﻿<?xml version="1.0" encoding="UTF-8"?>
<gpx xmlns="http://www.topografix.com/GPX/1/1" creator="HOLUX ezTour Plus" version="1.1">
<metadata>
<link href="http://www.holux.com"><text>HOLUX Technology, Inc.</text></link>
<time>2013-11-27T20:33:44Z</time></metadata>
<trk>
<name><![CDATA[Holux2013/11/21_12:55]]></name>
<trkseg>
<trkpt lat="30.853673935" lon="34.781421661">
<ele>476.265625</ele>
<time>2013-11-21T10:55:34Z</time>
<speed>0.110000</speed>
<extensions>
<speed>0.1</speed>
<temp>0.00</temp>
<bpm>0</bpm>
<rpm>0.00</rpm>
</extensions>
</trkpt>
<trkpt lat="30.853570938" lon="34.781494141">
<ele>477.296875</ele>
<time>2013-11-21T10:55:39Z</time>
<speed>0.050000</speed>
<extensions>
<speed>0.1</speed>
<temp>0.00</temp>
<bpm>0</bpm>
<rpm>0.00</rpm>
</extensions>
</trkpt>
<trkpt lat="30.853483200" lon="34.781558990">
<ele>478.257813</ele>
<time>2013-11-21T10:55:44Z</time>
<speed>0.150000</speed>
<extensions>
<speed>0.2</speed>
<temp>0.00</temp>
<bpm>0</bpm>
<rpm>0.00</rpm>
</extensions>
</trkpt>
<trkpt lat="30.853473663" lon="34.781551361">
<ele>476.914063</ele>
<time>2013-11-21T10:55:49Z</time>
<speed>0.110000</speed>
<extensions>
<speed>0.1</speed>
<temp>0.00</temp>
<bpm>0</bpm>
<rpm>0.00</rpm>
</extensions>
</trkpt>
<trkpt lat="30.853500366" lon="34.781505585">
<ele>473.664063</ele>
<time>2013-11-21T10:55:54Z</time>
<speed>0.210000</speed>
<extensions>
<speed>0.2</speed>
<temp>0.00</temp>
<bpm>0</bpm>
<rpm>0.00</rpm>
</extensions>
</trkpt>
<trkpt lat="30.853494644" lon="34.781520844">
<ele>475.679688</ele>
<time>2013-11-21T10:55:59Z</time>
<speed>0.360000</speed>
<extensions>
<speed>0.4</speed>
<temp>0.00</temp>
<bpm>0</bpm>
<rpm>0.00</rpm>
</extensions>
</trkpt>
<trkpt lat="30.853523254" lon="34.781520844">
<ele>477.625000</ele>
<time>2013-11-21T10:56:04Z</time>
<speed>0.450000</speed>
<extensions>
<speed>0.5</speed>
<temp>0.00</temp>
<bpm>0</bpm>
<rpm>0.00</rpm>
</extensions>
</trkpt>
<trkpt lat="30.853490829" lon="34.781585693">
<ele>483.945313</ele>
<time>2013-11-21T10:56:09Z</time>
<speed>0.110000</speed>
<extensions>
<speed>0.1</speed>
<temp>0.00</temp>
<bpm>0</bpm>
<rpm>0.00</rpm>
</extensions>
</trkpt>
<trkpt lat="30.853473663" lon="34.781581879">
<ele>484.843750</ele>
<time>2013-11-21T10:56:14Z</time>
<speed>0.370000</speed>
<extensions>
<speed>0.4</speed>
<temp>0.00</temp>
<bpm>0</bpm>
<rpm>0.00</rpm>
</extensions>
</trkpt>
<trkpt lat="30.853469849" lon="34.781536102">
<ele>483.585938</ele>
<time>2013-11-21T10:56:19Z</time>
<speed>0.280000</speed>
<extensions>
<speed>0.3</speed>
<temp>0.00</temp>
<bpm>0</bpm>
<rpm>0.00</rpm>
</extensions>
</trkpt>
<trkpt lat="30.853469849" lon="34.781532288">
<ele>483.601563</ele>
<time>2013-11-21T10:56:24Z</time>
<speed>0.140000</speed>
<extensions>
<speed>0.1</speed>
<temp>0.00</temp>
<bpm>0</bpm>
<rpm>0.00</rpm>
</extensions>
</trkpt>
<trkpt lat="30.853473663" lon="34.781536102">
<ele>483.593750</ele>
<time>2013-11-21T10:56:29Z</time>
<speed>0.160000</speed>
<extensions>
<speed>0.2</speed>
<temp>0.00</temp>
<bpm>0</bpm>
<rpm>0.00</rpm>
</extensions>
</trkpt>
<trkpt lat="30.853664398" lon="34.781322479">
<ele>469.570313</ele>
<time>2013-11-21T10:57:05Z</time>
<speed>0.190000</speed>
<extensions>
<speed>0.2</speed>
<temp>0.00</temp>
<bpm>0</bpm>
<rpm>0.00</rpm>
</extensions>
</trkpt>
<trkpt lat="30.853654861" lon="34.781326294">
<ele>470.281250</ele>
<time>2013-11-21T10:57:10Z</time>
<speed>0.340000</speed>
<extensions>
<speed>0.3</speed>
<temp>0.00</temp>
<bpm>0</bpm>
<rpm>0.00</rpm>
</extensions>
</trkpt>
<trkpt lat="30.853651047" lon="34.781398773">
<ele>485.539063</ele>
<time>2013-11-21T10:57:15Z</time>
<speed>0.550000</speed>
<extensions>
<speed>0.6</speed>
<temp>0.00</temp>
<bpm>0</bpm>
<rpm>0.00</rpm>
</extensions>
</trkpt>
<trkpt lat="30.853590012" lon="34.781448364">
<ele>490.437500</ele>
<time>2013-11-21T10:57:20Z</time>
<speed>0.690000</speed>
<extensions>
<speed>0.7</speed>
<temp>0.00</temp>
<bpm>0</bpm>
<rpm>0.00</rpm>
</extensions>
</trkpt>
<trkpt lat="30.853525162" lon="34.781490326">
<ele>485.218750</ele>
<time>2013-11-21T10:57:25Z</time>
<speed>0.870000</speed>
<extensions>
<speed>0.9</speed>
<temp>0.00</temp>
<bpm>0</bpm>
<rpm>0.00</rpm>
</extensions>
</trkpt>
<trkpt lat="30.853450775" lon="34.781444550">
<ele>479.687500</ele>
<time>2013-11-21T10:57:30Z</time>
<speed>1.210000</speed>
<extensions>
<speed>1.2</speed>
<temp>0.00</temp>
<bpm>0</bpm>
<rpm>0.00</rpm>
</extensions>
</trkpt>
<trkpt lat="30.853374481" lon="34.781398773">
<ele>465.320313</ele>
<time>2013-11-21T10:57:35Z</time>
<speed>1.330000</speed>
<extensions>
<speed>1.3</speed>
<temp>0.00</temp>
<bpm>0</bpm>
<rpm>0.00</rpm>
</extensions>
</trkpt>
<trkpt lat="30.853384018" lon="34.781429291">
<ele>467.617188</ele>
<time>2013-11-21T10:57:40Z</time>
<speed>1.100000</speed>
<extensions>
<speed>1.1</speed>
<temp>0.00</temp>
<bpm>0</bpm>
<rpm>0.00</rpm>
</extensions>
</trkpt>
<trkpt lat="30.853401184" lon="34.781501770">
<ele>473.070313</ele>
<time>2013-11-21T10:57:45Z</time>
<speed>0.990000</speed>
<extensions>
<speed>1.0</speed>
<temp>0.00</temp>
<bpm>0</bpm>
<rpm>0.00</rpm>
</extensions>
</trkpt>
<trkpt lat="30.853418350" lon="34.781528473">
<ele>474.804688</ele>
<time>2013-11-21T10:57:50Z</time>
<speed>0.990000</speed>
<extensions>
<speed>1.0</speed>
<temp>0.00</temp>
<bpm>0</bpm>
<rpm>0.00</rpm>
</extensions>
</trkpt>
<trkpt lat="30.853382111" lon="34.781558990">
<ele>473.109375</ele>
<time>2013-11-21T10:57:55Z</time>
<speed>0.930000</speed>
<extensions>
<speed>0.9</speed>
<temp>0.00</temp>
<bpm>0</bpm>
<rpm>0.00</rpm>
</extensions>
</trkpt>
<trkpt lat="30.853338242" lon="34.781585693">
<ele>472.843750</ele>
<time>2013-11-21T10:58:00Z</time>
<speed>1.160000</speed>
<extensions>
<speed>1.2</speed>
<temp>0.00</temp>
<bpm>0</bpm>
<rpm>0.00</rpm>
</extensions>
</trkpt>
<trkpt lat="30.853298187" lon="34.781608582">
<ele>472.867188</ele>
<time>2013-11-21T10:58:05Z</time>
<speed>1.230000</speed>
<extensions>
<speed>1.2</speed>
<temp>0.00</temp>
<bpm>0</bpm>
<rpm>0.00</rpm>
</extensions>
</trkpt>
<trkpt lat="30.853235245" lon="34.781780243">
<ele>474.453125</ele>
<time>2013-11-21T11:01:14Z</time>
<speed>0.090000</speed>
<extensions>
<speed>0.1</speed>
<temp>0.00</temp>
<bpm>0</bpm>
<rpm>0.00</rpm>
</extensions>
</trkpt>
<trkpt lat="30.853239059" lon="34.781764984">
<ele>476.734375</ele>
<time>2013-11-21T11:01:19Z</time>
<speed>0.390000</speed>
<extensions>
<speed>0.4</speed>
<temp>0.00</temp>
<bpm>0</bpm>
<rpm>0.00</rpm>
</extensions>
</trkpt>
<trkpt lat="30.853393555" lon="34.781772614">
<ele>494.171875</ele>
<time>2013-11-21T11:01:24Z</time>
<speed>0.400000</speed>
<extensions>
<speed>0.4</speed>
<temp>0.00</temp>
<bpm>0</bpm>
<rpm>0.00</rpm>
</extensions>
</trkpt>
<trkpt lat="30.853448868" lon="34.781791687">
<ele>501.890625</ele>
<time>2013-11-21T11:01:29Z</time>
<speed>0.540000</speed>
<extensions>
<speed>0.5</speed>
<temp>0.00</temp>
<bpm>0</bpm>
<rpm>0.00</rpm>
</extensions>
</trkpt>
<trkpt lat="30.853498459" lon="34.781726837">
<ele>500.367188</ele>
<time>2013-11-21T11:01:34Z</time>
<speed>0.480000</speed>
<extensions>
<speed>0.5</speed>
<temp>0.00</temp>
<bpm>0</bpm>
<rpm>0.00</rpm>
</extensions>
</trkpt>
<trkpt lat="30.853565216" lon="34.781585693">
<ele>491.406250</ele>
<time>2013-11-21T11:01:39Z</time>
<speed>0.300000</speed>
<extensions>
<speed>0.3</speed>
<temp>0.00</temp>
<bpm>0</bpm>
<rpm>0.00</rpm>
</extensions>
</trkpt>
<trkpt lat="30.853542328" lon="34.781578064">
<ele>494.210938</ele>
<time>2013-11-21T11:01:44Z</time>
<speed>0.290000</speed>
<extensions>
<speed>0.3</speed>
<temp>0.00</temp>
<bpm>0</bpm>
<rpm>0.00</rpm>
</extensions>
</trkpt>
<trkpt lat="30.853534698" lon="34.781574249">
<ele>494.015625</ele>
<time>2013-11-21T11:01:49Z</time>
<speed>0.130000</speed>
<extensions>
<speed>0.1</speed>
<temp>0.00</temp>
<bpm>0</bpm>
<rpm>0.00</rpm>
</extensions>
</trkpt>
<trkpt lat="30.853532791" lon="34.781551361">
<ele>492.062500</ele>
<time>2013-11-21T11:01:54Z</time>
<speed>0.160000</speed>
<extensions>
<speed>0.2</speed>
<temp>0.00</temp>
<bpm>0</bpm>
<rpm>0.00</rpm>
</extensions>
</trkpt>
<trkpt lat="30.853536606" lon="34.781539917">
<ele>491.054688</ele>
<time>2013-11-21T11:01:59Z</time>
<speed>0.080000</speed>
<extensions>
<speed>0.1</speed>
<temp>0.00</temp>
<bpm>0</bpm>
<rpm>0.00</rpm>
</extensions>
</trkpt>
<trkpt lat="30.853528976" lon="34.781536102">
<ele>490.984375</ele>
<time>2013-11-21T11:02:04Z</time>
<speed>0.350000</speed>
<extensions>
<speed>0.3</speed>
<temp>0.00</temp>
<bpm>0</bpm>
<rpm>0.00</rpm>
</extensions>
</trkpt>
<trkpt lat="30.853528976" lon="34.781532288">
<ele>491.304688</ele>
<time>2013-11-21T11:02:09Z</time>
<speed>0.250000</speed>
<extensions>
<speed>0.2</speed>
<temp>0.00</temp>
<bpm>0</bpm>
<rpm>0.00</rpm>
</extensions>
</trkpt>
<trkpt lat="30.853544235" lon="34.781528473">
<ele>491.031250</ele>
<time>2013-11-21T11:02:14Z</time>
<speed>0.150000</speed>
<extensions>
<speed>0.2</speed>
<temp>0.00</temp>
<bpm>0</bpm>
<rpm>0.00</rpm>
</extensions>
</trkpt>
<trkpt lat="30.853544235" lon="34.781517029">
<ele>491.085938</ele>
<time>2013-11-21T11:02:19Z</time>
<speed>0.110000</speed>
<extensions>
<speed>0.1</speed>
<temp>0.00</temp>
<bpm>0</bpm>
<rpm>0.00</rpm>
</extensions>
</trkpt>
<trkpt lat="30.853544235" lon="34.781509399">
<ele>491.070313</ele>
<time>2013-11-21T11:02:24Z</time>
<speed>0.140000</speed>
<extensions>
<speed>0.1</speed>
<temp>0.00</temp>
<bpm>0</bpm>
<rpm>0.00</rpm>
</extensions>
</trkpt>
<trkpt lat="30.853536606" lon="34.781505585">
<ele>491.062500</ele>
<time>2013-11-21T11:02:29Z</time>
<speed>0.220000</speed>
<extensions>
<speed>0.2</speed>
<temp>0.00</temp>
<bpm>0</bpm>
<rpm>0.00</rpm>
</extensions>
</trkpt>
<trkpt lat="30.853511810" lon="34.781501770">
<ele>491.695313</ele>
<time>2013-11-21T11:02:34Z</time>
<speed>0.450000</speed>
<extensions>
<speed>0.5</speed>
<temp>0.00</temp>
<bpm>0</bpm>
<rpm>0.00</rpm>
</extensions>
</trkpt>
<trkpt lat="30.853507996" lon="34.781509399">
<ele>492.734375</ele>
<time>2013-11-21T11:02:39Z</time>
<speed>0.400000</speed>
<extensions>
<speed>0.4</speed>
<temp>0.00</temp>
<bpm>0</bpm>
<rpm>0.00</rpm>
</extensions>
</trkpt>
<trkpt lat="30.853530884" lon="34.781497955">
<ele>493.281250</ele>
<time>2013-11-21T11:02:44Z</time>
<speed>0.130000</speed>
<extensions>
<speed>0.1</speed>
<temp>0.00</temp>
<bpm>0</bpm>
<rpm>0.00</rpm>
</extensions>
</trkpt>
<trkpt lat="30.853538513" lon="34.781501770">
<ele>493.531250</ele>
<time>2013-11-21T11:02:49Z</time>
<speed>0.110000</speed>
<extensions>
<speed>0.1</speed>
<temp>0.00</temp>
<bpm>0</bpm>
<rpm>0.00</rpm>
</extensions>
</trkpt>
<trkpt lat="30.853538513" lon="34.781505585">
<ele>493.687500</ele>
<time>2013-11-21T11:02:54Z</time>
<speed>0.290000</speed>
<extensions>
<speed>0.3</speed>
<temp>0.00</temp>
<bpm>0</bpm>
<rpm>0.00</rpm>
</extensions>
</trkpt>
<trkpt lat="30.853553772" lon="34.781505585">
<ele>493.945313</ele>
<time>2013-11-21T11:02:59Z</time>
<speed>0.060000</speed>
<extensions>
<speed>0.1</speed>
<temp>0.00</temp>
<bpm>0</bpm>
<rpm>0.00</rpm>
</extensions>
</trkpt>
<trkpt lat="30.853559494" lon="34.781509399">
<ele>493.929688</ele>
<time>2013-11-21T11:03:04Z</time>
<speed>0.100000</speed>
<extensions>
<speed>0.1</speed>
<temp>0.00</temp>
<bpm>0</bpm>
<rpm>0.00</rpm>
</extensions>
</trkpt>
<trkpt lat="30.853565216" lon="34.781517029">
<ele>494.046875</ele>
<time>2013-11-21T11:03:09Z</time>
<speed>0.240000</speed>
<extensions>
<speed>0.2</speed>
<temp>0.00</temp>
<bpm>0</bpm>
<rpm>0.00</rpm>
</extensions>
</trkpt>
<trkpt lat="30.853572845" lon="34.781524658">
<ele>493.507813</ele>
<time>2013-11-21T11:03:14Z</time>
<speed>0.130000</speed>
<extensions>
<speed>0.1</speed>
<temp>0.00</temp>
<bpm>0</bpm>
<rpm>0.00</rpm>
</extensions>
</trkpt>
<trkpt lat="30.853578568" lon="34.781520844">
<ele>493.460938</ele>
<time>2013-11-21T11:03:19Z</time>
<speed>0.130000</speed>
<extensions>
<speed>0.1</speed>
<temp>0.00</temp>
<bpm>0</bpm>
<rpm>0.00</rpm>
</extensions>
</trkpt>
<trkpt lat="30.853580475" lon="34.781524658">
<ele>493.445313</ele>
<time>2013-11-21T11:03:24Z</time>
<speed>0.230000</speed>
<extensions>
<speed>0.2</speed>
<temp>0.00</temp>
<bpm>0</bpm>
<rpm>0.00</rpm>
</extensions>
</trkpt>
<trkpt lat="30.853584290" lon="34.781566620">
<ele>493.304688</ele>
<time>2013-11-21T11:03:29Z</time>
<speed>0.410000</speed>
<extensions>
<speed>0.4</speed>
<temp>0.00</temp>
<bpm>0</bpm>
<rpm>0.00</rpm>
</extensions>
</trkpt>
<trkpt lat="30.853603363" lon="34.781585693">
<ele>493.609375</ele>
<time>2013-11-21T11:03:34Z</time>
<speed>0.260000</speed>
<extensions>
<speed>0.3</speed>
<temp>0.00</temp>
<bpm>0</bpm>
<rpm>0.00</rpm>
</extensions>
</trkpt>
<trkpt lat="30.853626251" lon="34.781669617">
<ele>493.968750</ele>
<time>2013-11-21T11:03:39Z</time>
<speed>1.150000</speed>
<extensions>
<speed>1.1</speed>
<temp>0.00</temp>
<bpm>0</bpm>
<rpm>0.00</rpm>
</extensions>
</trkpt>
<trkpt lat="30.853641510" lon="34.781814575">
<ele>493.992188</ele>
<time>2013-11-21T11:03:44Z</time>
<speed>2.030000</speed>
<extensions>
<speed>2.0</speed>
<temp>0.00</temp>
<bpm>0</bpm>
<rpm>0.00</rpm>
</extensions>
</trkpt>
<trkpt lat="30.853706360" lon="34.781822205">
<ele>494.031250</ele>
<time>2013-11-21T11:03:49Z</time>
<speed>2.110000</speed>
<extensions>
<speed>2.1</speed>
<temp>0.00</temp>
<bpm>0</bpm>
<rpm>0.00</rpm>
</extensions>
</trkpt>
<trkpt lat="30.853796005" lon="34.781864166">
<ele>493.390625</ele>
<time>2013-11-21T11:03:54Z</time>
<speed>2.260000</speed>
<extensions>
<speed>2.3</speed>
<temp>0.00</temp>
<bpm>0</bpm>
<rpm>0.00</rpm>
</extensions>
</trkpt>
<trkpt lat="30.853923798" lon="34.781909943">
<ele>491.765625</ele>
<time>2013-11-21T11:03:59Z</time>
<speed>1.720000</speed>
<extensions>
<speed>1.7</speed>
<temp>0.00</temp>
<bpm>0</bpm>
<rpm>0.00</rpm>
</extensions>
</trkpt>
<trkpt lat="30.854047775" lon="34.781879425">
<ele>491.648438</ele>
<time>2013-11-21T11:04:04Z</time>
<speed>2.290000</speed>
<extensions>
<speed>2.3</speed>
<temp>0.00</temp>
<bpm>0</bpm>
<rpm>0.00</rpm>
</extensions>
</trkpt>
<trkpt lat="30.854190826" lon="34.781860352">
<ele>492.421875</ele>
<time>2013-11-21T11:04:09Z</time>
<speed>2.920000</speed>
<extensions>
<speed>2.9</speed>
<temp>0.00</temp>
<bpm>0</bpm>
<rpm>0.00</rpm>
</extensions>
</trkpt>
<trkpt lat="30.854345322" lon="34.781826019">
<ele>491.726563</ele>
<time>2013-11-21T11:04:14Z</time>
<speed>2.630000</speed>
<extensions>
<speed>2.6</speed>
<temp>0.00</temp>
<bpm>0</bpm>
<rpm>0.00</rpm>
</extensions>
</trkpt>
<trkpt lat="30.854450226" lon="34.781791687">
<ele>493.617188</ele>
<time>2013-11-21T11:04:19Z</time>
<speed>1.650000</speed>
<extensions>
<speed>1.7</speed>
<temp>0.00</temp>
<bpm>0</bpm>
<rpm>0.00</rpm>
</extensions>
</trkpt>
<trkpt lat="30.854583740" lon="34.781730652">
<ele>494.023438</ele>
<time>2013-11-21T11:04:24Z</time>
<speed>1.460000</speed>
<extensions>
<speed>1.5</speed>
<temp>0.00</temp>
<bpm>0</bpm>
<rpm>0.00</rpm>
</extensions>
</trkpt>
<trkpt lat="30.854730606" lon="34.781669617">
<ele>491.007813</ele>
<time>2013-11-21T11:04:29Z</time>
<speed>2.690000</speed>
<extensions>
<speed>2.7</speed>
<temp>0.00</temp>
<bpm>0</bpm>
<rpm>0.00</rpm>
</extensions>
</trkpt>
<trkpt lat="30.854867935" lon="34.781673431">
<ele>488.710938</ele>
<time>2013-11-21T11:04:34Z</time>
<speed>2.240000</speed>
<extensions>
<speed>2.2</speed>
<temp>0.00</temp>
<bpm>0</bpm>
<rpm>0.00</rpm>
</extensions>
</trkpt>
<trkpt lat="30.854949951" lon="34.781749725">
<ele>484.828125</ele>
<time>2013-11-21T11:04:39Z</time>
<speed>2.660000</speed>
<extensions>
<speed>2.7</speed>
<temp>0.00</temp>
<bpm>0</bpm>
<rpm>0.00</rpm>
</extensions>
</trkpt>
<trkpt lat="30.854972839" lon="34.781906128">
<ele>480.031250</ele>
<time>2013-11-21T11:04:44Z</time>
<speed>3.010000</speed>
<extensions>
<speed>3.0</speed>
<temp>0.00</temp>
<bpm>0</bpm>
<rpm>0.00</rpm>
</extensions>
</trkpt>
<trkpt lat="30.854988098" lon="34.782081604">
<ele>477.390625</ele>
<time>2013-11-21T11:04:49Z</time>
<speed>2.830000</speed>
<extensions>
<speed>2.8</speed>
<temp>0.00</temp>
<bpm>0</bpm>
<rpm>0.00</rpm>
</extensions>
</trkpt>
<trkpt lat="30.855018616" lon="34.782211304">
<ele>474.226563</ele>
<time>2013-11-21T11:04:54Z</time>
<speed>1.820000</speed>
<extensions>
<speed>1.8</speed>
<temp>0.00</temp>
<bpm>0</bpm>
<rpm>0.00</rpm>
</extensions>
</trkpt>
<trkpt lat="30.855009079" lon="34.782344818">
<ele>469.671875</ele>
<time>2013-11-21T11:04:59Z</time>
<speed>2.570000</speed>
<extensions>
<speed>2.6</speed>
<temp>0.00</temp>
<bpm>0</bpm>
<rpm>0.00</rpm>
</extensions>
</trkpt>
<trkpt lat="30.855079651" lon="34.782489777">
<ele>466.281250</ele>
<time>2013-11-21T11:05:04Z</time>
<speed>2.770000</speed>
<extensions>
<speed>2.8</speed>
<temp>0.00</temp>
<bpm>0</bpm>
<rpm>0.00</rpm>
</extensions>
</trkpt>
<trkpt lat="30.855190277" lon="34.782505035">
<ele>464.164063</ele>
<time>2013-11-21T11:05:09Z</time>
<speed>1.980000</speed>
<extensions>
<speed>2.0</speed>
<temp>0.00</temp>
<bpm>0</bpm>
<rpm>0.00</rpm>
</extensions>
</trkpt>
<trkpt lat="30.855148315" lon="34.782409668">
<ele>463.750000</ele>
<time>2013-11-21T11:05:14Z</time>
<speed>3.160000</speed>
<extensions>
<speed>3.2</speed>
<temp>0.00</temp>
<bpm>0</bpm>
<rpm>0.00</rpm>
</extensions>
</trkpt>
<trkpt lat="30.855178833" lon="34.782314301">
<ele>462.632813</ele>
<time>2013-11-21T11:05:19Z</time>
<speed>2.020000</speed>
<extensions>
<speed>2.0</speed>
<temp>0.00</temp>
<bpm>0</bpm>
<rpm>0.00</rpm>
</extensions>
</trkpt>
<trkpt lat="30.855205536" lon="34.782180786">
<ele>462.421875</ele>
<time>2013-11-21T11:05:24Z</time>
<speed>2.480000</speed>
<extensions>
<speed>2.5</speed>
<temp>0.00</temp>
<bpm>0</bpm>
<rpm>0.00</rpm>
</extensions>
</trkpt>
<trkpt lat="30.855215073" lon="34.782024384">
<ele>462.359375</ele>
<time>2013-11-21T11:05:29Z</time>
<speed>2.870000</speed>
<extensions>
<speed>2.9</speed>
<temp>0.00</temp>
<bpm>0</bpm>
<rpm>0.00</rpm>
</extensions>
</trkpt>
<trkpt lat="30.855125427" lon="34.781894684">
<ele>460.414063</ele>
<time>2013-11-21T11:05:34Z</time>
<speed>3.460000</speed>
<extensions>
<speed>3.5</speed>
<temp>0.00</temp>
<bpm>0</bpm>
<rpm>0.00</rpm>
</extensions>
</trkpt>
<trkpt lat="30.854974747" lon="34.781822205">
<ele>461.062500</ele>
<time>2013-11-21T11:05:39Z</time>
<speed>3.110000</speed>
<extensions>
<speed>3.1</speed>
<temp>0.00</temp>
<bpm>0</bpm>
<rpm>0.00</rpm>
</extensions>
</trkpt>
<trkpt lat="30.854827881" lon="34.781761169">
<ele>461.492188</ele>
<time>2013-11-21T11:05:44Z</time>
<speed>3.440000</speed>
<extensions>
<speed>3.4</speed>
<temp>0.00</temp>
<bpm>0</bpm>
<rpm>0.00</rpm>
</extensions>
</trkpt>
<trkpt lat="30.854686737" lon="34.781730652">
<ele>461.156250</ele>
<time>2013-11-21T11:05:49Z</time>
<speed>2.890000</speed>
<extensions>
<speed>2.9</speed>
<temp>0.00</temp>
<bpm>0</bpm>
<rpm>0.00</rpm>
</extensions>
</trkpt>
<trkpt lat="30.854526520" lon="34.781692505">
<ele>459.875000</ele>
<time>2013-11-21T11:05:54Z</time>
<speed>3.470000</speed>
<extensions>
<speed>3.5</speed>
<temp>0.00</temp>
<bpm>0</bpm>
<rpm>0.00</rpm>
</extensions>
</trkpt>
<trkpt lat="30.854316711" lon="34.781669617">
<ele>457.882813</ele>
<time>2013-11-21T11:05:59Z</time>
<speed>3.240000</speed>
<extensions>
<speed>3.2</speed>
<temp>0.00</temp>
<bpm>0</bpm>
<rpm>0.00</rpm>
</extensions>
</trkpt>
<trkpt lat="30.854110718" lon="34.781730652">
<ele>456.796875</ele>
<time>2013-11-21T11:06:04Z</time>
<speed>4.010000</speed>
<extensions>
<speed>4.0</speed>
<temp>0.00</temp>
<bpm>0</bpm>
<rpm>0.00</rpm>
</extensions>
</trkpt>
<trkpt lat="30.853870392" lon="34.781784058">
<ele>456.789063</ele>
<time>2013-11-21T11:06:09Z</time>
<speed>3.810000</speed>
<extensions>
<speed>3.8</speed>
<temp>0.00</temp>
<bpm>0</bpm>
<rpm>0.00</rpm>
</extensions>
</trkpt>
<trkpt lat="30.853645325" lon="34.781848907">
<ele>459.234375</ele>
<time>2013-11-21T11:06:14Z</time>
<speed>4.020000</speed>
<extensions>
<speed>4.0</speed>
<temp>0.00</temp>
<bpm>0</bpm>
<rpm>0.00</rpm>
</extensions>
</trkpt>
<trkpt lat="30.853389740" lon="34.781925201">
<ele>460.960938</ele>
<time>2013-11-21T11:06:19Z</time>
<speed>5.330000</speed>
<extensions>
<speed>5.3</speed>
<temp>0.00</temp>
<bpm>0</bpm>
<rpm>0.00</rpm>
</extensions>
</trkpt>
<trkpt lat="30.853153229" lon="34.782020569">
<ele>463.492188</ele>
<time>2013-11-21T11:06:24Z</time>
<speed>4.470000</speed>
<extensions>
<speed>4.5</speed>
<temp>0.00</temp>
<bpm>0</bpm>
<rpm>0.00</rpm>
</extensions>
</trkpt>
<trkpt lat="30.852853775" lon="34.782077789">
<ele>466.773438</ele>
<time>2013-11-21T11:06:29Z</time>
<speed>4.610000</speed>
<extensions>
<speed>4.6</speed>
<temp>0.00</temp>
<bpm>0</bpm>
<rpm>0.00</rpm>
</extensions>
</trkpt>
<trkpt lat="30.852605820" lon="34.782135010">
<ele>470.664063</ele>
<time>2013-11-21T11:06:34Z</time>
<speed>4.330000</speed>
<extensions>
<speed>4.3</speed>
<temp>0.00</temp>
<bpm>0</bpm>
<rpm>0.00</rpm>
</extensions>
</trkpt>
<trkpt lat="30.852348328" lon="34.782196045">
<ele>473.578125</ele>
<time>2013-11-21T11:06:39Z</time>
<speed>4.950000</speed>
<extensions>
<speed>4.9</speed>
<temp>0.00</temp>
<bpm>0</bpm>
<rpm>0.00</rpm>
</extensions>
</trkpt>
<trkpt lat="30.852083206" lon="34.782253265">
<ele>477.585938</ele>
<time>2013-11-21T11:06:44Z</time>
<speed>5.150000</speed>
<extensions>
<speed>5.2</speed>
<temp>0.00</temp>
<bpm>0</bpm>
<rpm>0.00</rpm>
</extensions>
</trkpt>
<trkpt lat="30.851848602" lon="34.782314301">
<ele>479.304688</ele>
<time>2013-11-21T11:06:49Z</time>
<speed>4.690000</speed>
<extensions>
<speed>4.7</speed>
<temp>0.00</temp>
<bpm>0</bpm>
<rpm>0.00</rpm>
</extensions>
</trkpt>
<trkpt lat="30.851638794" lon="34.782352448">
<ele>480.773438</ele>
<time>2013-11-21T11:06:54Z</time>
<speed>3.000000</speed>
<extensions>
<speed>3.0</speed>
<temp>0.00</temp>
<bpm>0</bpm>
<rpm>0.00</rpm>
</extensions>
</trkpt>
<trkpt lat="30.851488113" lon="34.782527924">
<ele>482.929688</ele>
<time>2013-11-21T11:06:59Z</time>
<speed>4.260000</speed>
<extensions>
<speed>4.3</speed>
<temp>0.00</temp>
<bpm>0</bpm>
<rpm>0.00</rpm>
</extensions>
</trkpt>
<trkpt lat="30.851415634" lon="34.782791138">
<ele>484.226563</ele>
<time>2013-11-21T11:07:04Z</time>
<speed>4.520000</speed>
<extensions>
<speed>4.5</speed>
<temp>0.00</temp>
<bpm>0</bpm>
<rpm>0.00</rpm>
</extensions>
</trkpt>
<trkpt lat="30.851356506" lon="34.783077240">
<ele>482.156250</ele>
<time>2013-11-21T11:07:09Z</time>
<speed>5.030000</speed>
<extensions>
<speed>5.0</speed>
<temp>0.00</temp>
<bpm>0</bpm>
<rpm>0.00</rpm>
</extensions>
</trkpt>
<trkpt lat="30.851325989" lon="34.783370972">
<ele>480.578125</ele>
<time>2013-11-21T11:07:14Z</time>
<speed>5.540000</speed>
<extensions>
<speed>5.5</speed>
<temp>0.00</temp>
<bpm>0</bpm>
<rpm>0.00</rpm>
</extensions>
</trkpt>
<trkpt lat="30.851314545" lon="34.783679962">
<ele>475.765625</ele>
<time>2013-11-21T11:07:19Z</time>
<speed>5.780000</speed>
<extensions>
<speed>5.8</speed>
<temp>0.00</temp>
<bpm>0</bpm>
<rpm>0.00</rpm>
</extensions>
</trkpt>
<trkpt lat="30.851322174" lon="34.783977509">
<ele>469.343750</ele>
<time>2013-11-21T11:07:24Z</time>
<speed>5.190000</speed>
<extensions>
<speed>5.2</speed>
<temp>0.00</temp>
<bpm>0</bpm>
<rpm>0.00</rpm>
</extensions>
</trkpt>
<trkpt lat="30.851417542" lon="34.784255981">
<ele>461.843750</ele>
<time>2013-11-21T11:07:29Z</time>
<speed>5.170000</speed>
<extensions>
<speed>5.2</speed>
<temp>0.00</temp>
<bpm>0</bpm>
<rpm>0.00</rpm>
</extensions>
</trkpt>
<trkpt lat="30.851419449" lon="34.784496307">
<ele>455.562500</ele>
<time>2013-11-21T11:07:34Z</time>
<speed>4.390000</speed>
<extensions>
<speed>4.4</speed>
<temp>0.00</temp>
<bpm>0</bpm>
<rpm>0.00</rpm>
</extensions>
</trkpt>
<trkpt lat="30.851531982" lon="34.784698486">
<ele>451.125000</ele>
<time>2013-11-21T11:07:39Z</time>
<speed>3.140000</speed>
<extensions>
<speed>3.1</speed>
<temp>0.00</temp>
<bpm>0</bpm>
<rpm>0.00</rpm>
</extensions>
</trkpt>
<trkpt lat="30.851690292" lon="34.784618378">
<ele>450.375000</ele>
<time>2013-11-21T11:07:44Z</time>
<speed>4.080000</speed>
<extensions>
<speed>4.1</speed>
<temp>0.00</temp>
<bpm>0</bpm>
<rpm>0.00</rpm>
</extensions>
</trkpt>
<trkpt lat="30.851882935" lon="34.784564972">
<ele>451.710938</ele>
<time>2013-11-21T11:07:49Z</time>
<speed>3.890000</speed>
<extensions>
<speed>3.9</speed>
<temp>0.00</temp>
<bpm>0</bpm>
<rpm>0.00</rpm>
</extensions>
</trkpt>
<trkpt lat="30.852148056" lon="34.784530640">
<ele>456.375000</ele>
<time>2013-11-21T11:07:54Z</time>
<speed>5.150000</speed>
<extensions>
<speed>5.2</speed>
<temp>0.00</temp>
<bpm>0</bpm>
<rpm>0.00</rpm>
</extensions>
</trkpt>
<trkpt lat="30.852375031" lon="34.784496307">
<ele>459.515625</ele>
<time>2013-11-21T11:07:59Z</time>
<speed>4.160000</speed>
<extensions>
<speed>4.2</speed>
<temp>0.00</temp>
<bpm>0</bpm>
<rpm>0.00</rpm>
</extensions>
</trkpt>
<trkpt lat="30.852571487" lon="34.784473419">
<ele>465.093750</ele>
<time>2013-11-21T11:08:04Z</time>
<speed>3.270000</speed>
<extensions>
<speed>3.3</speed>
<temp>0.00</temp>
<bpm>0</bpm>
<rpm>0.00</rpm>
</extensions>
</trkpt>
<trkpt lat="30.852710724" lon="34.784469604">
<ele>470.085938</ele>
<time>2013-11-21T11:08:09Z</time>
<speed>2.360000</speed>
<extensions>
<speed>2.4</speed>
<temp>0.00</temp>
<bpm>0</bpm>
<rpm>0.00</rpm>
</extensions>
</trkpt>
<trkpt lat="30.852842331" lon="34.784458160">
<ele>476.125000</ele>
<time>2013-11-21T11:08:14Z</time>
<speed>2.160000</speed>
<extensions>
<speed>2.2</speed>
<temp>0.00</temp>
<bpm>0</bpm>
<rpm>0.00</rpm>
</extensions>
</trkpt>
<trkpt lat="30.852954865" lon="34.784442902">
<ele>478.492188</ele>
<time>2013-11-21T11:08:19Z</time>
<speed>3.360000</speed>
<extensions>
<speed>3.4</speed>
<temp>0.00</temp>
<bpm>0</bpm>
<rpm>0.00</rpm>
</extensions>
</trkpt>
<trkpt lat="30.853116989" lon="34.784389496">
<ele>482.515625</ele>
<time>2013-11-21T11:08:24Z</time>
<speed>3.520000</speed>
<extensions>
<speed>3.5</speed>
<temp>0.00</temp>
<bpm>0</bpm>
<rpm>0.00</rpm>
</extensions>
</trkpt>
<trkpt lat="30.853338242" lon="34.784320831">
<ele>485.445313</ele>
<time>2013-11-21T11:08:29Z</time>
<speed>4.250000</speed>
<extensions>
<speed>4.3</speed>
<temp>0.00</temp>
<bpm>0</bpm>
<rpm>0.00</rpm>
</extensions>
</trkpt>
<trkpt lat="30.853534698" lon="34.784320831">
<ele>487.500000</ele>
<time>2013-11-21T11:08:34Z</time>
<speed>3.850000</speed>
<extensions>
<speed>3.8</speed>
<temp>0.00</temp>
<bpm>0</bpm>
<rpm>0.00</rpm>
</extensions>
</trkpt>
<trkpt lat="30.853717804" lon="34.784278870">
<ele>489.476563</ele>
<time>2013-11-21T11:08:39Z</time>
<speed>3.960000</speed>
<extensions>
<speed>4.0</speed>
<temp>0.00</temp>
<bpm>0</bpm>
<rpm>0.00</rpm>
</extensions>
</trkpt>
<trkpt lat="30.853883743" lon="34.784217834">
<ele>489.203125</ele>
<time>2013-11-21T11:08:44Z</time>
<speed>3.710000</speed>
<extensions>
<speed>3.7</speed>
<temp>0.00</temp>
<bpm>0</bpm>
<rpm>0.00</rpm>
</extensions>
</trkpt>
<trkpt lat="30.854099274" lon="34.784149170">
<ele>489.101563</ele>
<time>2013-11-21T11:08:49Z</time>
<speed>4.350000</speed>
<extensions>
<speed>4.3</speed>
<temp>0.00</temp>
<bpm>0</bpm>
<rpm>0.00</rpm>
</extensions>
</trkpt>
<trkpt lat="30.854339600" lon="34.784099579">
<ele>490.789063</ele>
<time>2013-11-21T11:08:54Z</time>
<speed>4.880000</speed>
<extensions>
<speed>4.9</speed>
<temp>0.00</temp>
<bpm>0</bpm>
<rpm>0.00</rpm>
</extensions>
</trkpt>
<trkpt lat="30.854568481" lon="34.784049988">
<ele>490.148438</ele>
<time>2013-11-21T11:08:59Z</time>
<speed>5.360000</speed>
<extensions>
<speed>5.4</speed>
<temp>0.00</temp>
<bpm>0</bpm>
<rpm>0.00</rpm>
</extensions>
</trkpt>
<trkpt lat="30.854822159" lon="34.783973694">
<ele>490.218750</ele>
<time>2013-11-21T11:09:04Z</time>
<speed>5.330000</speed>
<extensions>
<speed>5.3</speed>
<temp>0.00</temp>
<bpm>0</bpm>
<rpm>0.00</rpm>
</extensions>
</trkpt>
<trkpt lat="30.855047226" lon="34.783905029">
<ele>490.085938</ele>
<time>2013-11-21T11:09:09Z</time>
<speed>4.600000</speed>
<extensions>
<speed>4.6</speed>
<temp>0.00</temp>
<bpm>0</bpm>
<rpm>0.00</rpm>
</extensions>
</trkpt>
<trkpt lat="30.855270386" lon="34.783855438">
<ele>491.218750</ele>
<time>2013-11-21T11:09:14Z</time>
<speed>4.990000</speed>
<extensions>
<speed>5.0</speed>
<temp>0.00</temp>
<bpm>0</bpm>
<rpm>0.00</rpm>
</extensions>
</trkpt>
<trkpt lat="30.855533600" lon="34.783828735">
<ele>493.351563</ele>
<time>2013-11-21T11:09:19Z</time>
<speed>5.040000</speed>
<extensions>
<speed>5.0</speed>
<temp>0.00</temp>
<bpm>0</bpm>
<rpm>0.00</rpm>
</extensions>
</trkpt>
<trkpt lat="30.855752945" lon="34.783771515">
<ele>493.343750</ele>
<time>2013-11-21T11:09:24Z</time>
<speed>5.160000</speed>
<extensions>
<speed>5.2</speed>
<temp>0.00</temp>
<bpm>0</bpm>
<rpm>0.00</rpm>
</extensions>
</trkpt>
<trkpt lat="30.855997086" lon="34.783733368">
<ele>492.093750</ele>
<time>2013-11-21T11:09:29Z</time>
<speed>5.860000</speed>
<extensions>
<speed>5.9</speed>
<temp>0.00</temp>
<bpm>0</bpm>
<rpm>0.00</rpm>
</extensions>
</trkpt>
<trkpt lat="30.856269836" lon="34.783668518">
<ele>493.773438</ele>
<time>2013-11-21T11:09:34Z</time>
<speed>5.460000</speed>
<extensions>
<speed>5.5</speed>
<temp>0.00</temp>
<bpm>0</bpm>
<rpm>0.00</rpm>
</extensions>
</trkpt>
<trkpt lat="30.856542587" lon="34.783611298">
<ele>494.625000</ele>
<time>2013-11-21T11:09:39Z</time>
<speed>6.370000</speed>
<extensions>
<speed>6.4</speed>
<temp>0.00</temp>
<bpm>0</bpm>
<rpm>0.00</rpm>
</extensions>
</trkpt>
<trkpt lat="30.856819153" lon="34.783542633">
<ele>495.421875</ele>
<time>2013-11-21T11:09:44Z</time>
<speed>6.040000</speed>
<extensions>
<speed>6.0</speed>
<temp>0.00</temp>
<bpm>0</bpm>
<rpm>0.00</rpm>
</extensions>
</trkpt>
<trkpt lat="30.857059479" lon="34.783481598">
<ele>496.070313</ele>
<time>2013-11-21T11:09:49Z</time>
<speed>5.190000</speed>
<extensions>
<speed>5.2</speed>
<temp>0.00</temp>
<bpm>0</bpm>
<rpm>0.00</rpm>
</extensions>
</trkpt>
<trkpt lat="30.857276917" lon="34.783435822">
<ele>499.117188</ele>
<time>2013-11-21T11:09:54Z</time>
<speed>4.920000</speed>
<extensions>
<speed>4.9</speed>
<temp>0.00</temp>
<bpm>0</bpm>
<rpm>0.00</rpm>
</extensions>
</trkpt>
<trkpt lat="30.857521057" lon="34.783390045">
<ele>500.000000</ele>
<time>2013-11-21T11:09:59Z</time>
<speed>5.910000</speed>
<extensions>
<speed>5.9</speed>
<temp>0.00</temp>
<bpm>0</bpm>
<rpm>0.00</rpm>
</extensions>
</trkpt>
<trkpt lat="30.857788086" lon="34.783317566">
<ele>500.796875</ele>
<time>2013-11-21T11:10:04Z</time>
<speed>6.150000</speed>
<extensions>
<speed>6.1</speed>
<temp>0.00</temp>
<bpm>0</bpm>
<rpm>0.00</rpm>
</extensions>
</trkpt>
<trkpt lat="30.858041763" lon="34.783233643">
<ele>501.195313</ele>
<time>2013-11-21T11:10:09Z</time>
<speed>5.980000</speed>
<extensions>
<speed>6.0</speed>
<temp>0.00</temp>
<bpm>0</bpm>
<rpm>0.00</rpm>
</extensions>
</trkpt>
<trkpt lat="30.858251572" lon="34.783046722">
<ele>498.179688</ele>
<time>2013-11-21T11:10:14Z</time>
<speed>5.560000</speed>
<extensions>
<speed>5.6</speed>
<temp>0.00</temp>
<bpm>0</bpm>
<rpm>0.00</rpm>
</extensions>
</trkpt>
<trkpt lat="30.858413696" lon="34.782817841">
<ele>497.031250</ele>
<time>2013-11-21T11:10:19Z</time>
<speed>5.860000</speed>
<extensions>
<speed>5.9</speed>
<temp>0.00</temp>
<bpm>0</bpm>
<rpm>0.00</rpm>
</extensions>
</trkpt>
<trkpt lat="30.858530045" lon="34.782569885">
<ele>496.226563</ele>
<time>2013-11-21T11:10:24Z</time>
<speed>4.740000</speed>
<extensions>
<speed>4.7</speed>
<temp>0.00</temp>
<bpm>0</bpm>
<rpm>0.00</rpm>
</extensions>
</trkpt>
<trkpt lat="30.858633041" lon="34.782375336">
<ele>496.773438</ele>
<time>2013-11-21T11:10:29Z</time>
<speed>4.520000</speed>
<extensions>
<speed>4.5</speed>
<temp>0.00</temp>
<bpm>0</bpm>
<rpm>0.00</rpm>
</extensions>
</trkpt>
<trkpt lat="30.858762741" lon="34.782184601">
<ele>496.648438</ele>
<time>2013-11-21T11:10:34Z</time>
<speed>4.810000</speed>
<extensions>
<speed>4.8</speed>
<temp>0.00</temp>
<bpm>0</bpm>
<rpm>0.00</rpm>
</extensions>
</trkpt>
<trkpt lat="30.858879089" lon="34.781986237">
<ele>495.695313</ele>
<time>2013-11-21T11:10:39Z</time>
<speed>4.630000</speed>
<extensions>
<speed>4.6</speed>
<temp>0.00</temp>
<bpm>0</bpm>
<rpm>0.00</rpm>
</extensions>
</trkpt>
<trkpt lat="30.858982086" lon="34.781768799">
<ele>494.789063</ele>
<time>2013-11-21T11:10:44Z</time>
<speed>4.550000</speed>
<extensions>
<speed>4.5</speed>
<temp>0.00</temp>
<bpm>0</bpm>
<rpm>0.00</rpm>
</extensions>
</trkpt>
<trkpt lat="30.859090805" lon="34.781585693">
<ele>494.140625</ele>
<time>2013-11-21T11:10:49Z</time>
<speed>3.800000</speed>
<extensions>
<speed>3.8</speed>
<temp>0.00</temp>
<bpm>0</bpm>
<rpm>0.00</rpm>
</extensions>
</trkpt>
<trkpt lat="30.859188080" lon="34.781387329">
<ele>496.500000</ele>
<time>2013-11-21T11:10:54Z</time>
<speed>3.940000</speed>
<extensions>
<speed>3.9</speed>
<temp>0.00</temp>
<bpm>0</bpm>
<rpm>0.00</rpm>
</extensions>
</trkpt>
<trkpt lat="30.859304428" lon="34.781192780">
<ele>498.218750</ele>
<time>2013-11-21T11:10:59Z</time>
<speed>3.990000</speed>
<extensions>
<speed>4.0</speed>
<temp>0.00</temp>
<bpm>0</bpm>
<rpm>0.00</rpm>
</extensions>
</trkpt>
<trkpt lat="30.859411240" lon="34.781040192">
<ele>499.773438</ele>
<time>2013-11-21T11:11:04Z</time>
<speed>3.580000</speed>
<extensions>
<speed>3.6</speed>
<temp>0.00</temp>
<bpm>0</bpm>
<rpm>0.00</rpm>
</extensions>
</trkpt>
<trkpt lat="30.859460831" lon="34.780944824">
<ele>500.312500</ele>
<time>2013-11-21T11:11:09Z</time>
<speed>1.880000</speed>
<extensions>
<speed>1.9</speed>
<temp>0.00</temp>
<bpm>0</bpm>
<rpm>0.00</rpm>
</extensions>
</trkpt>
<trkpt lat="30.859481812" lon="34.780849457">
<ele>498.515625</ele>
<time>2013-11-21T11:11:14Z</time>
<speed>0.290000</speed>
<extensions>
<speed>0.3</speed>
<temp>0.00</temp>
<bpm>0</bpm>
<rpm>0.00</rpm>
</extensions>
</trkpt>
<trkpt lat="30.859506607" lon="34.780830383">
<ele>497.898438</ele>
<time>2013-11-21T11:11:19Z</time>
<speed>0.240000</speed>
<extensions>
<speed>0.2</speed>
<temp>0.00</temp>
<bpm>0</bpm>
<rpm>0.00</rpm>
</extensions>
</trkpt>
<trkpt lat="30.859508514" lon="34.780826569">
<ele>497.906250</ele>
<time>2013-11-21T11:11:24Z</time>
<speed>0.080000</speed>
<extensions>
<speed>0.1</speed>
<temp>0.00</temp>
<bpm>0</bpm>
<rpm>0.00</rpm>
</extensions>
</trkpt>
<trkpt lat="30.859518051" lon="34.780826569">
<ele>497.906250</ele>
<time>2013-11-21T11:11:29Z</time>
<speed>0.170000</speed>
<extensions>
<speed>0.2</speed>
<temp>0.00</temp>
<bpm>0</bpm>
<rpm>0.00</rpm>
</extensions>
</trkpt>
<trkpt lat="30.859521866" lon="34.780826569">
<ele>497.929688</ele>
<time>2013-11-21T11:11:34Z</time>
<speed>0.090000</speed>
<extensions>
<speed>0.1</speed>
<temp>0.00</temp>
<bpm>0</bpm>
<rpm>0.00</rpm>
</extensions>
</trkpt>
<trkpt lat="30.859527588" lon="34.780818939">
<ele>497.851563</ele>
<time>2013-11-21T11:11:39Z</time>
<speed>0.780000</speed>
<extensions>
<speed>0.8</speed>
<temp>0.00</temp>
<bpm>0</bpm>
<rpm>0.00</rpm>
</extensions>
</trkpt>
<trkpt lat="30.859621048" lon="34.780746460">
<ele>497.195313</ele>
<time>2013-11-21T11:11:44Z</time>
<speed>3.650000</speed>
<extensions>
<speed>3.7</speed>
<temp>0.00</temp>
<bpm>0</bpm>
<rpm>0.00</rpm>
</extensions>
</trkpt>
<trkpt lat="30.859771729" lon="34.780612946">
<ele>496.828125</ele>
<time>2013-11-21T11:11:49Z</time>
<speed>4.230000</speed>
<extensions>
<speed>4.2</speed>
<temp>0.00</temp>
<bpm>0</bpm>
<rpm>0.00</rpm>
</extensions>
</trkpt>
<trkpt lat="30.859874725" lon="34.780418396">
<ele>496.046875</ele>
<time>2013-11-21T11:11:54Z</time>
<speed>2.190000</speed>
<extensions>
<speed>2.2</speed>
<temp>0.00</temp>
<bpm>0</bpm>
<rpm>0.00</rpm>
</extensions>
</trkpt>
<trkpt lat="30.859949112" lon="34.780307770">
<ele>495.109375</ele>
<time>2013-11-21T11:11:59Z</time>
<speed>2.820000</speed>
<extensions>
<speed>2.8</speed>
<temp>0.00</temp>
<bpm>0</bpm>
<rpm>0.00</rpm>
</extensions>
</trkpt>
<trkpt lat="30.860050201" lon="34.780181885">
<ele>493.953125</ele>
<time>2013-11-21T11:12:04Z</time>
<speed>3.840000</speed>
<extensions>
<speed>3.8</speed>
<temp>0.00</temp>
<bpm>0</bpm>
<rpm>0.00</rpm>
</extensions>
</trkpt>
<trkpt lat="30.860174179" lon="34.780010223">
<ele>492.593750</ele>
<time>2013-11-21T11:12:09Z</time>
<speed>3.510000</speed>
<extensions>
<speed>3.5</speed>
<temp>0.00</temp>
<bpm>0</bpm>
<rpm>0.00</rpm>
</extensions>
</trkpt>
<trkpt lat="30.860328674" lon="34.779796600">
<ele>491.968750</ele>
<time>2013-11-21T11:12:14Z</time>
<speed>4.940000</speed>
<extensions>
<speed>4.9</speed>
<temp>0.00</temp>
<bpm>0</bpm>
<rpm>0.00</rpm>
</extensions>
</trkpt>
<trkpt lat="30.860485077" lon="34.779567719">
<ele>490.476563</ele>
<time>2013-11-21T11:12:19Z</time>
<speed>4.620000</speed>
<extensions>
<speed>4.6</speed>
<temp>0.00</temp>
<bpm>0</bpm>
<rpm>0.00</rpm>
</extensions>
</trkpt>
<trkpt lat="30.860610962" lon="34.779373169">
<ele>488.851563</ele>
<time>2013-11-21T11:12:24Z</time>
<speed>4.110000</speed>
<extensions>
<speed>4.1</speed>
<temp>0.00</temp>
<bpm>0</bpm>
<rpm>0.00</rpm>
</extensions>
</trkpt>
<trkpt lat="30.860725403" lon="34.779197693">
<ele>488.710938</ele>
<time>2013-11-21T11:12:29Z</time>
<speed>3.950000</speed>
<extensions>
<speed>4.0</speed>
<temp>0.00</temp>
<bpm>0</bpm>
<rpm>0.00</rpm>
</extensions>
</trkpt>
<trkpt lat="30.860847473" lon="34.779018402">
<ele>486.968750</ele>
<time>2013-11-21T11:12:34Z</time>
<speed>3.800000</speed>
<extensions>
<speed>3.8</speed>
<temp>0.00</temp>
<bpm>0</bpm>
<rpm>0.00</rpm>
</extensions>
</trkpt>
<trkpt lat="30.860935211" lon="34.778823853">
<ele>486.476563</ele>
<time>2013-11-21T11:12:39Z</time>
<speed>4.220000</speed>
<extensions>
<speed>4.2</speed>
<temp>0.00</temp>
<bpm>0</bpm>
<rpm>0.00</rpm>
</extensions>
</trkpt>
<trkpt lat="30.861005783" lon="34.778621674">
<ele>486.601563</ele>
<time>2013-11-21T11:12:44Z</time>
<speed>4.490000</speed>
<extensions>
<speed>4.5</speed>
<temp>0.00</temp>
<bpm>0</bpm>
<rpm>0.00</rpm>
</extensions>
</trkpt>
<trkpt lat="30.861091614" lon="34.778450012">
<ele>486.859375</ele>
<time>2013-11-21T11:12:49Z</time>
<speed>4.060000</speed>
<extensions>
<speed>4.1</speed>
<temp>0.00</temp>
<bpm>0</bpm>
<rpm>0.00</rpm>
</extensions>
</trkpt>
<trkpt lat="30.861175537" lon="34.778289795">
<ele>488.085938</ele>
<time>2013-11-21T11:12:54Z</time>
<speed>3.950000</speed>
<extensions>
<speed>4.0</speed>
<temp>0.00</temp>
<bpm>0</bpm>
<rpm>0.00</rpm>
</extensions>
</trkpt>
<trkpt lat="30.861265182" lon="34.778125763">
<ele>488.976563</ele>
<time>2013-11-21T11:12:59Z</time>
<speed>4.060000</speed>
<extensions>
<speed>4.1</speed>
<temp>0.00</temp>
<bpm>0</bpm>
<rpm>0.00</rpm>
</extensions>
</trkpt>
<trkpt lat="30.861368179" lon="34.777957916">
<ele>487.859375</ele>
<time>2013-11-21T11:13:04Z</time>
<speed>4.220000</speed>
<extensions>
<speed>4.2</speed>
<temp>0.00</temp>
<bpm>0</bpm>
<rpm>0.00</rpm>
</extensions>
</trkpt>
<trkpt lat="30.861476898" lon="34.777786255">
<ele>489.289063</ele>
<time>2013-11-21T11:13:09Z</time>
<speed>4.470000</speed>
<extensions>
<speed>4.5</speed>
<temp>0.00</temp>
<bpm>0</bpm>
<rpm>0.00</rpm>
</extensions>
</trkpt>
<trkpt lat="30.861589432" lon="34.777606964">
<ele>488.968750</ele>
<time>2013-11-21T11:13:14Z</time>
<speed>4.020000</speed>
<extensions>
<speed>4.0</speed>
<temp>0.00</temp>
<bpm>0</bpm>
<rpm>0.00</rpm>
</extensions>
</trkpt>
<trkpt lat="30.861669540" lon="34.777420044">
<ele>488.898438</ele>
<time>2013-11-21T11:13:19Z</time>
<speed>4.040000</speed>
<extensions>
<speed>4.0</speed>
<temp>0.00</temp>
<bpm>0</bpm>
<rpm>0.00</rpm>
</extensions>
</trkpt>
<trkpt lat="30.861734390" lon="34.777194977">
<ele>488.632813</ele>
<time>2013-11-21T11:13:24Z</time>
<speed>4.200000</speed>
<extensions>
<speed>4.2</speed>
<temp>0.00</temp>
<bpm>0</bpm>
<rpm>0.00</rpm>
</extensions>
</trkpt>
<trkpt lat="30.861812592" lon="34.777030945">
<ele>488.625000</ele>
<time>2013-11-21T11:13:29Z</time>
<speed>3.000000</speed>
<extensions>
<speed>3.0</speed>
<temp>0.00</temp>
<bpm>0</bpm>
<rpm>0.00</rpm>
</extensions>
</trkpt>
<trkpt lat="30.861946106" lon="34.776920319">
<ele>486.507813</ele>
<time>2013-11-21T11:13:34Z</time>
<speed>3.810000</speed>
<extensions>
<speed>3.8</speed>
<temp>0.00</temp>
<bpm>0</bpm>
<rpm>0.00</rpm>
</extensions>
</trkpt>
<trkpt lat="30.862089157" lon="34.776798248">
<ele>490.390625</ele>
<time>2013-11-21T11:13:39Z</time>
<speed>3.830000</speed>
<extensions>
<speed>3.8</speed>
<temp>0.00</temp>
<bpm>0</bpm>
<rpm>0.00</rpm>
</extensions>
</trkpt>
<trkpt lat="30.862188339" lon="34.776649475">
<ele>493.929688</ele>
<time>2013-11-21T11:13:44Z</time>
<speed>3.840000</speed>
<extensions>
<speed>3.8</speed>
<temp>0.00</temp>
<bpm>0</bpm>
<rpm>0.00</rpm>
</extensions>
</trkpt>
<trkpt lat="30.862283707" lon="34.776485443">
<ele>497.812500</ele>
<time>2013-11-21T11:13:49Z</time>
<speed>3.490000</speed>
<extensions>
<speed>3.5</speed>
<temp>0.00</temp>
<bpm>0</bpm>
<rpm>0.00</rpm>
</extensions>
</trkpt>
<trkpt lat="30.862308502" lon="34.776340485">
<ele>497.312500</ele>
<time>2013-11-21T11:13:54Z</time>
<speed>2.700000</speed>
<extensions>
<speed>2.7</speed>
<temp>0.00</temp>
<bpm>0</bpm>
<rpm>0.00</rpm>
</extensions>
</trkpt>
<trkpt lat="30.862169266" lon="34.776241302">
<ele>496.367188</ele>
<time>2013-11-21T11:13:59Z</time>
<speed>4.180000</speed>
<extensions>
<speed>4.2</speed>
<temp>0.00</temp>
<bpm>0</bpm>
<rpm>0.00</rpm>
</extensions>
</trkpt>
<trkpt lat="30.862020493" lon="34.776145935">
<ele>494.671875</ele>
<time>2013-11-21T11:14:04Z</time>
<speed>3.410000</speed>
<extensions>
<speed>3.4</speed>
<temp>0.00</temp>
<bpm>0</bpm>
<rpm>0.00</rpm>
</extensions>
</trkpt>
<trkpt lat="30.861900330" lon="34.776050568">
<ele>491.414063</ele>
<time>2013-11-21T11:14:09Z</time>
<speed>2.340000</speed>
<extensions>
<speed>2.3</speed>
<temp>0.00</temp>
<bpm>0</bpm>
<rpm>0.00</rpm>
</extensions>
</trkpt>
<trkpt lat="30.861782074" lon="34.775993347">
<ele>491.882813</ele>
<time>2013-11-21T11:14:14Z</time>
<speed>3.510000</speed>
<extensions>
<speed>3.5</speed>
<temp>0.00</temp>
<bpm>0</bpm>
<rpm>0.00</rpm>
</extensions>
</trkpt>
<trkpt lat="30.861627579" lon="34.775878906">
<ele>489.921875</ele>
<time>2013-11-21T11:14:19Z</time>
<speed>4.380000</speed>
<extensions>
<speed>4.4</speed>
<temp>0.00</temp>
<bpm>0</bpm>
<rpm>0.00</rpm>
</extensions>
</trkpt>
<trkpt lat="30.861438751" lon="34.775745392">
<ele>488.898438</ele>
<time>2013-11-21T11:14:24Z</time>
<speed>4.080000</speed>
<extensions>
<speed>4.1</speed>
<temp>0.00</temp>
<bpm>0</bpm>
<rpm>0.00</rpm>
</extensions>
</trkpt>
<trkpt lat="30.861232758" lon="34.775642395">
<ele>487.484375</ele>
<time>2013-11-21T11:14:29Z</time>
<speed>4.940000</speed>
<extensions>
<speed>4.9</speed>
<temp>0.00</temp>
<bpm>0</bpm>
<rpm>0.00</rpm>
</extensions>
</trkpt>
<trkpt lat="30.861072540" lon="34.775535583">
<ele>487.226563</ele>
<time>2013-11-21T11:14:34Z</time>
<speed>4.040000</speed>
<extensions>
<speed>4.0</speed>
<temp>0.00</temp>
<bpm>0</bpm>
<rpm>0.00</rpm>
</extensions>
</trkpt>
<trkpt lat="30.860910416" lon="34.775421143">
<ele>487.898438</ele>
<time>2013-11-21T11:14:39Z</time>
<speed>4.740000</speed>
<extensions>
<speed>4.7</speed>
<temp>0.00</temp>
<bpm>0</bpm>
<rpm>0.00</rpm>
</extensions>
</trkpt>
<trkpt lat="30.860719681" lon="34.775302887">
<ele>488.812500</ele>
<time>2013-11-21T11:14:44Z</time>
<speed>3.920000</speed>
<extensions>
<speed>3.9</speed>
<temp>0.00</temp>
<bpm>0</bpm>
<rpm>0.00</rpm>
</extensions>
</trkpt>
<trkpt lat="30.860553741" lon="34.775188446">
<ele>491.117188</ele>
<time>2013-11-21T11:14:49Z</time>
<speed>4.590000</speed>
<extensions>
<speed>4.6</speed>
<temp>0.00</temp>
<bpm>0</bpm>
<rpm>0.00</rpm>
</extensions>
</trkpt>
<trkpt lat="30.860355377" lon="34.775035858">
<ele>492.265625</ele>
<time>2013-11-21T11:14:54Z</time>
<speed>5.390000</speed>
<extensions>
<speed>5.4</speed>
<temp>0.00</temp>
<bpm>0</bpm>
<rpm>0.00</rpm>
</extensions>
</trkpt>
<trkpt lat="30.860130310" lon="34.774868011">
<ele>493.632813</ele>
<time>2013-11-21T11:14:59Z</time>
<speed>5.490000</speed>
<extensions>
<speed>5.5</speed>
<temp>0.00</temp>
<bpm>0</bpm>
<rpm>0.00</rpm>
</extensions>
</trkpt>
<trkpt lat="30.859931946" lon="34.774719238">
<ele>493.226563</ele>
<time>2013-11-21T11:15:04Z</time>
<speed>5.200000</speed>
<extensions>
<speed>5.2</speed>
<temp>0.00</temp>
<bpm>0</bpm>
<rpm>0.00</rpm>
</extensions>
</trkpt>
<trkpt lat="30.859722137" lon="34.774593353">
<ele>493.375000</ele>
<time>2013-11-21T11:15:09Z</time>
<speed>5.570000</speed>
<extensions>
<speed>5.6</speed>
<temp>0.00</temp>
<bpm>0</bpm>
<rpm>0.00</rpm>
</extensions>
</trkpt>
<trkpt lat="30.859519958" lon="34.774459839">
<ele>491.781250</ele>
<time>2013-11-21T11:15:14Z</time>
<speed>4.960000</speed>
<extensions>
<speed>5.0</speed>
<temp>0.00</temp>
<bpm>0</bpm>
<rpm>0.00</rpm>
</extensions>
</trkpt>
<trkpt lat="30.859376907" lon="34.774375916">
<ele>491.875000</ele>
<time>2013-11-21T11:15:19Z</time>
<speed>2.910000</speed>
<extensions>
<speed>2.9</speed>
<temp>0.00</temp>
<bpm>0</bpm>
<rpm>0.00</rpm>
</extensions>
</trkpt>
<trkpt lat="30.859233856" lon="34.774291992">
<ele>491.593750</ele>
<time>2013-11-21T11:15:24Z</time>
<speed>3.430000</speed>
<extensions>
<speed>3.4</speed>
<temp>0.00</temp>
<bpm>0</bpm>
<rpm>0.00</rpm>
</extensions>
</trkpt>
<trkpt lat="30.859104156" lon="34.774192810">
<ele>492.578125</ele>
<time>2013-11-21T11:15:29Z</time>
<speed>3.710000</speed>
<extensions>
<speed>3.7</speed>
<temp>0.00</temp>
<bpm>0</bpm>
<rpm>0.00</rpm>
</extensions>
</trkpt>
<trkpt lat="30.858934402" lon="34.774097443">
<ele>492.125000</ele>
<time>2013-11-21T11:15:34Z</time>
<speed>4.730000</speed>
<extensions>
<speed>4.7</speed>
<temp>0.00</temp>
<bpm>0</bpm>
<rpm>0.00</rpm>
</extensions>
</trkpt>
<trkpt lat="30.858732224" lon="34.773960114">
<ele>492.382813</ele>
<time>2013-11-21T11:15:39Z</time>
<speed>4.450000</speed>
<extensions>
<speed>4.5</speed>
<temp>0.00</temp>
<bpm>0</bpm>
<rpm>0.00</rpm>
</extensions>
</trkpt>
<trkpt lat="30.858554840" lon="34.773838043">
<ele>492.460938</ele>
<time>2013-11-21T11:15:44Z</time>
<speed>3.700000</speed>
<extensions>
<speed>3.7</speed>
<temp>0.00</temp>
<bpm>0</bpm>
<rpm>0.00</rpm>
</extensions>
</trkpt>
<trkpt lat="30.858390808" lon="34.773738861">
<ele>492.976563</ele>
<time>2013-11-21T11:15:49Z</time>
<speed>3.890000</speed>
<extensions>
<speed>3.9</speed>
<temp>0.00</temp>
<bpm>0</bpm>
<rpm>0.00</rpm>
</extensions>
</trkpt>
<trkpt lat="30.858213425" lon="34.773635864">
<ele>492.929688</ele>
<time>2013-11-21T11:15:54Z</time>
<speed>4.020000</speed>
<extensions>
<speed>4.0</speed>
<temp>0.00</temp>
<bpm>0</bpm>
<rpm>0.00</rpm>
</extensions>
</trkpt>
<trkpt lat="30.858062744" lon="34.773521423">
<ele>494.101563</ele>
<time>2013-11-21T11:15:59Z</time>
<speed>4.510000</speed>
<extensions>
<speed>4.5</speed>
<temp>0.00</temp>
<bpm>0</bpm>
<rpm>0.00</rpm>
</extensions>
</trkpt>
<trkpt lat="30.857879639" lon="34.773422241">
<ele>496.437500</ele>
<time>2013-11-21T11:16:04Z</time>
<speed>4.700000</speed>
<extensions>
<speed>4.7</speed>
<temp>0.00</temp>
<bpm>0</bpm>
<rpm>0.00</rpm>
</extensions>
</trkpt>
<trkpt lat="30.857685089" lon="34.773292542">
<ele>497.507813</ele>
<time>2013-11-21T11:16:09Z</time>
<speed>5.090000</speed>
<extensions>
<speed>5.1</speed>
<temp>0.00</temp>
<bpm>0</bpm>
<rpm>0.00</rpm>
</extensions>
</trkpt>
<trkpt lat="30.857511520" lon="34.773170471">
<ele>497.781250</ele>
<time>2013-11-21T11:16:14Z</time>
<speed>4.480000</speed>
<extensions>
<speed>4.5</speed>
<temp>0.00</temp>
<bpm>0</bpm>
<rpm>0.00</rpm>
</extensions>
</trkpt>
<trkpt lat="30.857316971" lon="34.773056030">
<ele>496.257813</ele>
<time>2013-11-21T11:16:19Z</time>
<speed>4.840000</speed>
<extensions>
<speed>4.8</speed>
<temp>0.00</temp>
<bpm>0</bpm>
<rpm>0.00</rpm>
</extensions>
</trkpt>
<trkpt lat="30.857145309" lon="34.772930145">
<ele>495.210938</ele>
<time>2013-11-21T11:16:24Z</time>
<speed>4.620000</speed>
<extensions>
<speed>4.6</speed>
<temp>0.00</temp>
<bpm>0</bpm>
<rpm>0.00</rpm>
</extensions>
</trkpt>
<trkpt lat="30.856948853" lon="34.772796631">
<ele>498.054688</ele>
<time>2013-11-21T11:16:29Z</time>
<speed>4.740000</speed>
<extensions>
<speed>4.7</speed>
<temp>0.00</temp>
<bpm>0</bpm>
<rpm>0.00</rpm>
</extensions>
</trkpt>
<trkpt lat="30.856754303" lon="34.772678375">
<ele>497.726563</ele>
<time>2013-11-21T11:16:34Z</time>
<speed>4.870000</speed>
<extensions>
<speed>4.9</speed>
<temp>0.00</temp>
<bpm>0</bpm>
<rpm>0.00</rpm>
</extensions>
</trkpt>
<trkpt lat="30.856563568" lon="34.772579193">
<ele>494.671875</ele>
<time>2013-11-21T11:16:39Z</time>
<speed>4.760000</speed>
<extensions>
<speed>4.8</speed>
<temp>0.00</temp>
<bpm>0</bpm>
<rpm>0.00</rpm>
</extensions>
</trkpt>
<trkpt lat="30.856386185" lon="34.772483826">
<ele>492.507813</ele>
<time>2013-11-21T11:16:44Z</time>
<speed>4.440000</speed>
<extensions>
<speed>4.4</speed>
<temp>0.00</temp>
<bpm>0</bpm>
<rpm>0.00</rpm>
</extensions>
</trkpt>
<trkpt lat="30.856233597" lon="34.772335052">
<ele>492.609375</ele>
<time>2013-11-21T11:16:49Z</time>
<speed>4.350000</speed>
<extensions>
<speed>4.3</speed>
<temp>0.00</temp>
<bpm>0</bpm>
<rpm>0.00</rpm>
</extensions>
</trkpt>
<trkpt lat="30.856067657" lon="34.772201538">
<ele>493.804688</ele>
<time>2013-11-21T11:16:54Z</time>
<speed>3.640000</speed>
<extensions>
<speed>3.6</speed>
<temp>0.00</temp>
<bpm>0</bpm>
<rpm>0.00</rpm>
</extensions>
</trkpt>
<trkpt lat="30.855930328" lon="34.772098541">
<ele>494.851563</ele>
<time>2013-11-21T11:16:59Z</time>
<speed>3.840000</speed>
<extensions>
<speed>3.8</speed>
<temp>0.00</temp>
<bpm>0</bpm>
<rpm>0.00</rpm>
</extensions>
</trkpt>
<trkpt lat="30.855756760" lon="34.771976471">
<ele>495.718750</ele>
<time>2013-11-21T11:17:04Z</time>
<speed>4.290000</speed>
<extensions>
<speed>4.3</speed>
<temp>0.00</temp>
<bpm>0</bpm>
<rpm>0.00</rpm>
</extensions>
</trkpt>
<trkpt lat="30.855558395" lon="34.771846771">
<ele>494.984375</ele>
<time>2013-11-21T11:17:09Z</time>
<speed>4.950000</speed>
<extensions>
<speed>4.9</speed>
<temp>0.00</temp>
<bpm>0</bpm>
<rpm>0.00</rpm>
</extensions>
</trkpt>
<trkpt lat="30.855369568" lon="34.771728516">
<ele>493.820313</ele>
<time>2013-11-21T11:17:14Z</time>
<speed>4.320000</speed>
<extensions>
<speed>4.3</speed>
<temp>0.00</temp>
<bpm>0</bpm>
<rpm>0.00</rpm>
</extensions>
</trkpt>
<trkpt lat="30.855165482" lon="34.771610260">
<ele>492.039063</ele>
<time>2013-11-21T11:17:19Z</time>
<speed>4.950000</speed>
<extensions>
<speed>4.9</speed>
<temp>0.00</temp>
<bpm>0</bpm>
<rpm>0.00</rpm>
</extensions>
</trkpt>
<trkpt lat="30.854961395" lon="34.771492004">
<ele>491.593750</ele>
<time>2013-11-21T11:17:24Z</time>
<speed>4.450000</speed>
<extensions>
<speed>4.5</speed>
<temp>0.00</temp>
<bpm>0</bpm>
<rpm>0.00</rpm>
</extensions>
</trkpt>
<trkpt lat="30.854803085" lon="34.771377563">
<ele>490.796875</ele>
<time>2013-11-21T11:17:29Z</time>
<speed>4.140000</speed>
<extensions>
<speed>4.1</speed>
<temp>0.00</temp>
<bpm>0</bpm>
<rpm>0.00</rpm>
</extensions>
</trkpt>
<trkpt lat="30.854612350" lon="34.771350861">
<ele>493.218750</ele>
<time>2013-11-21T11:17:34Z</time>
<speed>3.740000</speed>
<extensions>
<speed>3.7</speed>
<temp>0.00</temp>
<bpm>0</bpm>
<rpm>0.00</rpm>
</extensions>
</trkpt>
<trkpt lat="30.854516983" lon="34.771484375">
<ele>493.843750</ele>
<time>2013-11-21T11:17:39Z</time>
<speed>4.420000</speed>
<extensions>
<speed>4.4</speed>
<temp>0.00</temp>
<bpm>0</bpm>
<rpm>0.00</rpm>
</extensions>
</trkpt>
<trkpt lat="30.854421616" lon="34.771728516">
<ele>493.671875</ele>
<time>2013-11-21T11:17:44Z</time>
<speed>5.040000</speed>
<extensions>
<speed>5.0</speed>
<temp>0.00</temp>
<bpm>0</bpm>
<rpm>0.00</rpm>
</extensions>
</trkpt>
<trkpt lat="30.854307175" lon="34.772022247">
<ele>493.765625</ele>
<time>2013-11-21T11:17:49Z</time>
<speed>5.800000</speed>
<extensions>
<speed>5.8</speed>
<temp>0.00</temp>
<bpm>0</bpm>
<rpm>0.00</rpm>
</extensions>
</trkpt>
<trkpt lat="30.854234695" lon="34.772304535">
<ele>493.656250</ele>
<time>2013-11-21T11:17:54Z</time>
<speed>5.010000</speed>
<extensions>
<speed>5.0</speed>
<temp>0.00</temp>
<bpm>0</bpm>
<rpm>0.00</rpm>
</extensions>
</trkpt>
<trkpt lat="30.854232788" lon="34.772563934">
<ele>494.687500</ele>
<time>2013-11-21T11:17:59Z</time>
<speed>5.030000</speed>
<extensions>
<speed>5.0</speed>
<temp>0.00</temp>
<bpm>0</bpm>
<rpm>0.00</rpm>
</extensions>
</trkpt>
<trkpt lat="30.854133606" lon="34.772792816">
<ele>494.179688</ele>
<time>2013-11-21T11:18:04Z</time>
<speed>4.260000</speed>
<extensions>
<speed>4.3</speed>
<temp>0.00</temp>
<bpm>0</bpm>
<rpm>0.00</rpm>
</extensions>
</trkpt>
<trkpt lat="30.854063034" lon="34.773075104">
<ele>493.085938</ele>
<time>2013-11-21T11:18:09Z</time>
<speed>5.620000</speed>
<extensions>
<speed>5.6</speed>
<temp>0.00</temp>
<bpm>0</bpm>
<rpm>0.00</rpm>
</extensions>
</trkpt>
<trkpt lat="30.854007721" lon="34.773376465">
<ele>493.195313</ele>
<time>2013-11-21T11:18:14Z</time>
<speed>5.920000</speed>
<extensions>
<speed>5.9</speed>
<temp>0.00</temp>
<bpm>0</bpm>
<rpm>0.00</rpm>
</extensions>
</trkpt>
<trkpt lat="30.853933334" lon="34.773654938">
<ele>493.812500</ele>
<time>2013-11-21T11:18:19Z</time>
<speed>5.290000</speed>
<extensions>
<speed>5.3</speed>
<temp>0.00</temp>
<bpm>0</bpm>
<rpm>0.00</rpm>
</extensions>
</trkpt>
<trkpt lat="30.853876114" lon="34.773883820">
<ele>495.375000</ele>
<time>2013-11-21T11:18:24Z</time>
<speed>4.320000</speed>
<extensions>
<speed>4.3</speed>
<temp>0.00</temp>
<bpm>0</bpm>
<rpm>0.00</rpm>
</extensions>
</trkpt>
<trkpt lat="30.853811264" lon="34.774127960">
<ele>494.531250</ele>
<time>2013-11-21T11:18:29Z</time>
<speed>5.090000</speed>
<extensions>
<speed>5.1</speed>
<temp>0.00</temp>
<bpm>0</bpm>
<rpm>0.00</rpm>
</extensions>
</trkpt>
<trkpt lat="30.853734970" lon="34.774394989">
<ele>492.554688</ele>
<time>2013-11-21T11:18:34Z</time>
<speed>5.270000</speed>
<extensions>
<speed>5.3</speed>
<temp>0.00</temp>
<bpm>0</bpm>
<rpm>0.00</rpm>
</extensions>
</trkpt>
<trkpt lat="30.853664398" lon="34.774677277">
<ele>490.375000</ele>
<time>2013-11-21T11:18:39Z</time>
<speed>5.720000</speed>
<extensions>
<speed>5.7</speed>
<temp>0.00</temp>
<bpm>0</bpm>
<rpm>0.00</rpm>
</extensions>
</trkpt>
<trkpt lat="30.853597641" lon="34.774951935">
<ele>487.515625</ele>
<time>2013-11-21T11:18:44Z</time>
<speed>5.040000</speed>
<extensions>
<speed>5.0</speed>
<temp>0.00</temp>
<bpm>0</bpm>
<rpm>0.00</rpm>
</extensions>
</trkpt>
<trkpt lat="30.853572845" lon="34.775192261">
<ele>485.609375</ele>
<time>2013-11-21T11:18:49Z</time>
<speed>4.790000</speed>
<extensions>
<speed>4.8</speed>
<temp>0.00</temp>
<bpm>0</bpm>
<rpm>0.00</rpm>
</extensions>
</trkpt>
<trkpt lat="30.853609085" lon="34.775417328">
<ele>484.007813</ele>
<time>2013-11-21T11:18:54Z</time>
<speed>3.300000</speed>
<extensions>
<speed>3.3</speed>
<temp>0.00</temp>
<bpm>0</bpm>
<rpm>0.00</rpm>
</extensions>
</trkpt>
<trkpt lat="30.853551865" lon="34.775566101">
<ele>485.937500</ele>
<time>2013-11-21T11:18:59Z</time>
<speed>2.650000</speed>
<extensions>
<speed>2.6</speed>
<temp>0.00</temp>
<bpm>0</bpm>
<rpm>0.00</rpm>
</extensions>
</trkpt>
<trkpt lat="30.853521347" lon="34.775672913">
<ele>486.320313</ele>
<time>2013-11-21T11:19:04Z</time>
<speed>2.750000</speed>
<extensions>
<speed>2.7</speed>
<temp>0.00</temp>
<bpm>0</bpm>
<rpm>0.00</rpm>
</extensions>
</trkpt>
<trkpt lat="30.853384018" lon="34.775848389">
<ele>487.351563</ele>
<time>2013-11-21T11:19:09Z</time>
<speed>4.230000</speed>
<extensions>
<speed>4.2</speed>
<temp>0.00</temp>
<bpm>0</bpm>
<rpm>0.00</rpm>
</extensions>
</trkpt>
<trkpt lat="30.853197098" lon="34.776103973">
<ele>486.953125</ele>
<time>2013-11-21T11:19:14Z</time>
<speed>5.760000</speed>
<extensions>
<speed>5.8</speed>
<temp>0.00</temp>
<bpm>0</bpm>
<rpm>0.00</rpm>
</extensions>
</trkpt>
<trkpt lat="30.853027344" lon="34.776351929">
<ele>487.187500</ele>
<time>2013-11-21T11:19:19Z</time>
<speed>5.600000</speed>
<extensions>
<speed>5.6</speed>
<temp>0.00</temp>
<bpm>0</bpm>
<rpm>0.00</rpm>
</extensions>
</trkpt>
<trkpt lat="30.852855682" lon="34.776626587">
<ele>488.945313</ele>
<time>2013-11-21T11:19:24Z</time>
<speed>6.520000</speed>
<extensions>
<speed>6.5</speed>
<temp>0.00</temp>
<bpm>0</bpm>
<rpm>0.00</rpm>
</extensions>
</trkpt>
<trkpt lat="30.852657318" lon="34.776912689">
<ele>489.476563</ele>
<time>2013-11-21T11:19:29Z</time>
<speed>6.230000</speed>
<extensions>
<speed>6.2</speed>
<temp>0.00</temp>
<bpm>0</bpm>
<rpm>0.00</rpm>
</extensions>
</trkpt>
<trkpt lat="30.852485657" lon="34.777179718">
<ele>489.609375</ele>
<time>2013-11-21T11:19:34Z</time>
<speed>5.860000</speed>
<extensions>
<speed>5.9</speed>
<temp>0.00</temp>
<bpm>0</bpm>
<rpm>0.00</rpm>
</extensions>
</trkpt>
<trkpt lat="30.852317810" lon="34.777427673">
<ele>493.640625</ele>
<time>2013-11-21T11:19:39Z</time>
<speed>5.990000</speed>
<extensions>
<speed>6.0</speed>
<temp>0.00</temp>
<bpm>0</bpm>
<rpm>0.00</rpm>
</extensions>
</trkpt>
<trkpt lat="30.852146149" lon="34.777690887">
<ele>493.671875</ele>
<time>2013-11-21T11:19:44Z</time>
<speed>5.450000</speed>
<extensions>
<speed>5.5</speed>
<temp>0.00</temp>
<bpm>0</bpm>
<rpm>0.00</rpm>
</extensions>
</trkpt>
<trkpt lat="30.852050781" lon="34.777919769">
<ele>489.398438</ele>
<time>2013-11-21T11:19:49Z</time>
<speed>5.100000</speed>
<extensions>
<speed>5.1</speed>
<temp>0.00</temp>
<bpm>0</bpm>
<rpm>0.00</rpm>
</extensions>
</trkpt>
<trkpt lat="30.851985931" lon="34.778190613">
<ele>486.585938</ele>
<time>2013-11-21T11:19:54Z</time>
<speed>5.390000</speed>
<extensions>
<speed>5.4</speed>
<temp>0.00</temp>
<bpm>0</bpm>
<rpm>0.00</rpm>
</extensions>
</trkpt>
<trkpt lat="30.851930618" lon="34.778446198">
<ele>486.476563</ele>
<time>2013-11-21T11:19:59Z</time>
<speed>5.290000</speed>
<extensions>
<speed>5.3</speed>
<temp>0.00</temp>
<bpm>0</bpm>
<rpm>0.00</rpm>
</extensions>
</trkpt>
<trkpt lat="30.851762772" lon="34.778640747">
<ele>486.304688</ele>
<time>2013-11-21T11:20:04Z</time>
<speed>5.550000</speed>
<extensions>
<speed>5.5</speed>
<temp>0.00</temp>
<bpm>0</bpm>
<rpm>0.00</rpm>
</extensions>
</trkpt>
<trkpt lat="30.851598740" lon="34.778823853">
<ele>484.273438</ele>
<time>2013-11-21T11:20:09Z</time>
<speed>4.890000</speed>
<extensions>
<speed>4.9</speed>
<temp>0.00</temp>
<bpm>0</bpm>
<rpm>0.00</rpm>
</extensions>
</trkpt>
<trkpt lat="30.851432800" lon="34.778991699">
<ele>483.828125</ele>
<time>2013-11-21T11:20:14Z</time>
<speed>5.440000</speed>
<extensions>
<speed>5.4</speed>
<temp>0.00</temp>
<bpm>0</bpm>
<rpm>0.00</rpm>
</extensions>
</trkpt>
<trkpt lat="30.851215363" lon="34.779151917">
<ele>485.429688</ele>
<time>2013-11-21T11:20:19Z</time>
<speed>4.980000</speed>
<extensions>
<speed>5.0</speed>
<temp>0.00</temp>
<bpm>0</bpm>
<rpm>0.00</rpm>
</extensions>
</trkpt>
<trkpt lat="30.850971222" lon="34.779251099">
<ele>490.960938</ele>
<time>2013-11-21T11:20:24Z</time>
<speed>4.710000</speed>
<extensions>
<speed>4.7</speed>
<temp>0.00</temp>
<bpm>0</bpm>
<rpm>0.00</rpm>
</extensions>
</trkpt>
<trkpt lat="30.850774765" lon="34.779251099">
<ele>488.828125</ele>
<time>2013-11-21T11:20:29Z</time>
<speed>4.650000</speed>
<extensions>
<speed>4.6</speed>
<temp>0.00</temp>
<bpm>0</bpm>
<rpm>0.00</rpm>
</extensions>
</trkpt>
<trkpt lat="30.850584030" lon="34.779132843">
<ele>486.250000</ele>
<time>2013-11-21T11:20:34Z</time>
<speed>4.300000</speed>
<extensions>
<speed>4.3</speed>
<temp>0.00</temp>
<bpm>0</bpm>
<rpm>0.00</rpm>
</extensions>
</trkpt>
<trkpt lat="30.850658417" lon="34.778930664">
<ele>484.320313</ele>
<time>2013-11-21T11:20:39Z</time>
<speed>4.790000</speed>
<extensions>
<speed>4.8</speed>
<temp>0.00</temp>
<bpm>0</bpm>
<rpm>0.00</rpm>
</extensions>
</trkpt>
<trkpt lat="30.850799561" lon="34.778678894">
<ele>482.507813</ele>
<time>2013-11-21T11:20:44Z</time>
<speed>5.170000</speed>
<extensions>
<speed>5.2</speed>
<temp>0.00</temp>
<bpm>0</bpm>
<rpm>0.00</rpm>
</extensions>
</trkpt>
<trkpt lat="30.850923538" lon="34.778438568">
<ele>480.117188</ele>
<time>2013-11-21T11:20:49Z</time>
<speed>5.210000</speed>
<extensions>
<speed>5.2</speed>
<temp>0.00</temp>
<bpm>0</bpm>
<rpm>0.00</rpm>
</extensions>
</trkpt>
<trkpt lat="30.851066589" lon="34.778209686">
<ele>480.640625</ele>
<time>2013-11-21T11:20:54Z</time>
<speed>5.000000</speed>
<extensions>
<speed>5.0</speed>
<temp>0.00</temp>
<bpm>0</bpm>
<rpm>0.00</rpm>
</extensions>
</trkpt>
<trkpt lat="30.851205826" lon="34.777988434">
<ele>481.039063</ele>
<time>2013-11-21T11:20:59Z</time>
<speed>5.550000</speed>
<extensions>
<speed>5.5</speed>
<temp>0.00</temp>
<bpm>0</bpm>
<rpm>0.00</rpm>
</extensions>
</trkpt>
<trkpt lat="30.851356506" lon="34.777759552">
<ele>481.921875</ele>
<time>2013-11-21T11:21:04Z</time>
<speed>5.400000</speed>
<extensions>
<speed>5.4</speed>
<temp>0.00</temp>
<bpm>0</bpm>
<rpm>0.00</rpm>
</extensions>
</trkpt>
<trkpt lat="30.851518631" lon="34.777519226">
<ele>482.203125</ele>
<time>2013-11-21T11:21:09Z</time>
<speed>5.820000</speed>
<extensions>
<speed>5.8</speed>
<temp>0.00</temp>
<bpm>0</bpm>
<rpm>0.00</rpm>
</extensions>
</trkpt>
<trkpt lat="30.851699829" lon="34.777259827">
<ele>482.148438</ele>
<time>2013-11-21T11:21:14Z</time>
<speed>6.110000</speed>
<extensions>
<speed>6.1</speed>
<temp>0.00</temp>
<bpm>0</bpm>
<rpm>0.00</rpm>
</extensions>
</trkpt>
<trkpt lat="30.851873398" lon="34.777038574">
<ele>481.140625</ele>
<time>2013-11-21T11:21:19Z</time>
<speed>5.540000</speed>
<extensions>
<speed>5.5</speed>
<temp>0.00</temp>
<bpm>0</bpm>
<rpm>0.00</rpm>
</extensions>
</trkpt>
<trkpt lat="30.852025986" lon="34.776779175">
<ele>481.718750</ele>
<time>2013-11-21T11:21:24Z</time>
<speed>5.900000</speed>
<extensions>
<speed>5.9</speed>
<temp>0.00</temp>
<bpm>0</bpm>
<rpm>0.00</rpm>
</extensions>
</trkpt>
<trkpt lat="30.852186203" lon="34.776531219">
<ele>481.617188</ele>
<time>2013-11-21T11:21:29Z</time>
<speed>5.540000</speed>
<extensions>
<speed>5.5</speed>
<temp>0.00</temp>
<bpm>0</bpm>
<rpm>0.00</rpm>
</extensions>
</trkpt>
<trkpt lat="30.852336884" lon="34.776290894">
<ele>482.304688</ele>
<time>2013-11-21T11:21:34Z</time>
<speed>5.520000</speed>
<extensions>
<speed>5.5</speed>
<temp>0.00</temp>
<bpm>0</bpm>
<rpm>0.00</rpm>
</extensions>
</trkpt>
<trkpt lat="30.852470398" lon="34.776088715">
<ele>484.273438</ele>
<time>2013-11-21T11:21:39Z</time>
<speed>5.150000</speed>
<extensions>
<speed>5.2</speed>
<temp>0.00</temp>
<bpm>0</bpm>
<rpm>0.00</rpm>
</extensions>
</trkpt>
<trkpt lat="30.852600098" lon="34.775867462">
<ele>485.953125</ele>
<time>2013-11-21T11:21:44Z</time>
<speed>5.250000</speed>
<extensions>
<speed>5.2</speed>
<temp>0.00</temp>
<bpm>0</bpm>
<rpm>0.00</rpm>
</extensions>
</trkpt>
<trkpt lat="30.852731705" lon="34.775638580">
<ele>488.187500</ele>
<time>2013-11-21T11:21:49Z</time>
<speed>5.340000</speed>
<extensions>
<speed>5.3</speed>
<temp>0.00</temp>
<bpm>0</bpm>
<rpm>0.00</rpm>
</extensions>
</trkpt>
<trkpt lat="30.852865219" lon="34.775436401">
<ele>488.656250</ele>
<time>2013-11-21T11:21:54Z</time>
<speed>4.120000</speed>
<extensions>
<speed>4.1</speed>
<temp>0.00</temp>
<bpm>0</bpm>
<rpm>0.00</rpm>
</extensions>
</trkpt>
<trkpt lat="30.852985382" lon="34.775264740">
<ele>489.640625</ele>
<time>2013-11-21T11:21:59Z</time>
<speed>4.600000</speed>
<extensions>
<speed>4.6</speed>
<temp>0.00</temp>
<bpm>0</bpm>
<rpm>0.00</rpm>
</extensions>
</trkpt>
<trkpt lat="30.853120804" lon="34.775051117">
<ele>488.515625</ele>
<time>2013-11-21T11:22:04Z</time>
<speed>4.530000</speed>
<extensions>
<speed>4.5</speed>
<temp>0.00</temp>
<bpm>0</bpm>
<rpm>0.00</rpm>
</extensions>
</trkpt>
<trkpt lat="30.853210449" lon="34.774860382">
<ele>487.335938</ele>
<time>2013-11-21T11:22:09Z</time>
<speed>4.790000</speed>
<extensions>
<speed>4.8</speed>
<temp>0.00</temp>
<bpm>0</bpm>
<rpm>0.00</rpm>
</extensions>
</trkpt>
<trkpt lat="30.853332520" lon="34.774631500">
<ele>485.835938</ele>
<time>2013-11-21T11:22:14Z</time>
<speed>5.180000</speed>
<extensions>
<speed>5.2</speed>
<temp>0.00</temp>
<bpm>0</bpm>
<rpm>0.00</rpm>
</extensions>
</trkpt>
<trkpt lat="30.853437424" lon="34.774383545">
<ele>486.835938</ele>
<time>2013-11-21T11:22:19Z</time>
<speed>4.750000</speed>
<extensions>
<speed>4.8</speed>
<temp>0.00</temp>
<bpm>0</bpm>
<rpm>0.00</rpm>
</extensions>
</trkpt>
<trkpt lat="30.853511810" lon="34.774135590">
<ele>487.992188</ele>
<time>2013-11-21T11:22:24Z</time>
<speed>5.150000</speed>
<extensions>
<speed>5.2</speed>
<temp>0.00</temp>
<bpm>0</bpm>
<rpm>0.00</rpm>
</extensions>
</trkpt>
<trkpt lat="30.853553772" lon="34.773872375">
<ele>489.039063</ele>
<time>2013-11-21T11:22:29Z</time>
<speed>4.660000</speed>
<extensions>
<speed>4.7</speed>
<temp>0.00</temp>
<bpm>0</bpm>
<rpm>0.00</rpm>
</extensions>
</trkpt>
<trkpt lat="30.853605270" lon="34.773651123">
<ele>491.406250</ele>
<time>2013-11-21T11:22:34Z</time>
<speed>4.820000</speed>
<extensions>
<speed>4.8</speed>
<temp>0.00</temp>
<bpm>0</bpm>
<rpm>0.00</rpm>
</extensions>
</trkpt>
<trkpt lat="30.853664398" lon="34.773399353">
<ele>493.476563</ele>
<time>2013-11-21T11:22:39Z</time>
<speed>4.890000</speed>
<extensions>
<speed>4.9</speed>
<temp>0.00</temp>
<bpm>0</bpm>
<rpm>0.00</rpm>
</extensions>
</trkpt>
<trkpt lat="30.853736877" lon="34.773151398">
<ele>493.804688</ele>
<time>2013-11-21T11:22:44Z</time>
<speed>4.960000</speed>
<extensions>
<speed>5.0</speed>
<temp>0.00</temp>
<bpm>0</bpm>
<rpm>0.00</rpm>
</extensions>
</trkpt>
<trkpt lat="30.853799820" lon="34.772907257">
<ele>493.031250</ele>
<time>2013-11-21T11:22:49Z</time>
<speed>4.920000</speed>
<extensions>
<speed>4.9</speed>
<temp>0.00</temp>
<bpm>0</bpm>
<rpm>0.00</rpm>
</extensions>
</trkpt>
<trkpt lat="30.853857040" lon="34.772705078">
<ele>493.109375</ele>
<time>2013-11-21T11:22:54Z</time>
<speed>3.580000</speed>
<extensions>
<speed>3.6</speed>
<temp>0.00</temp>
<bpm>0</bpm>
<rpm>0.00</rpm>
</extensions>
</trkpt>
<trkpt lat="30.853902817" lon="34.772495270">
<ele>493.859375</ele>
<time>2013-11-21T11:22:59Z</time>
<speed>4.530000</speed>
<extensions>
<speed>4.5</speed>
<temp>0.00</temp>
<bpm>0</bpm>
<rpm>0.00</rpm>
</extensions>
</trkpt>
<trkpt lat="30.853956223" lon="34.772270203">
<ele>494.398438</ele>
<time>2013-11-21T11:23:04Z</time>
<speed>4.590000</speed>
<extensions>
<speed>4.6</speed>
<temp>0.00</temp>
<bpm>0</bpm>
<rpm>0.00</rpm>
</extensions>
</trkpt>
<trkpt lat="30.854009628" lon="34.772048950">
<ele>494.367188</ele>
<time>2013-11-21T11:23:09Z</time>
<speed>4.230000</speed>
<extensions>
<speed>4.2</speed>
<temp>0.00</temp>
<bpm>0</bpm>
<rpm>0.00</rpm>
</extensions>
</trkpt>
<trkpt lat="30.854070663" lon="34.771823883">
<ele>495.031250</ele>
<time>2013-11-21T11:23:14Z</time>
<speed>4.470000</speed>
<extensions>
<speed>4.5</speed>
<temp>0.00</temp>
<bpm>0</bpm>
<rpm>0.00</rpm>
</extensions>
</trkpt>
<trkpt lat="30.854118347" lon="34.771625519">
<ele>496.601563</ele>
<time>2013-11-21T11:23:19Z</time>
<speed>3.440000</speed>
<extensions>
<speed>3.4</speed>
<temp>0.00</temp>
<bpm>0</bpm>
<rpm>0.00</rpm>
</extensions>
</trkpt>
<trkpt lat="30.854181290" lon="34.771404266">
<ele>497.359375</ele>
<time>2013-11-21T11:23:24Z</time>
<speed>4.420000</speed>
<extensions>
<speed>4.4</speed>
<temp>0.00</temp>
<bpm>0</bpm>
<rpm>0.00</rpm>
</extensions>
</trkpt>
<trkpt lat="30.854234695" lon="34.771163940">
<ele>499.757813</ele>
<time>2013-11-21T11:23:29Z</time>
<speed>4.300000</speed>
<extensions>
<speed>4.3</speed>
<temp>0.00</temp>
<bpm>0</bpm>
<rpm>0.00</rpm>
</extensions>
</trkpt>
<trkpt lat="30.854280472" lon="34.770969391">
<ele>499.734375</ele>
<time>2013-11-21T11:23:34Z</time>
<speed>3.810000</speed>
<extensions>
<speed>3.8</speed>
<temp>0.00</temp>
<bpm>0</bpm>
<rpm>0.00</rpm>
</extensions>
</trkpt>
<trkpt lat="30.854339600" lon="34.770755768">
<ele>500.382813</ele>
<time>2013-11-21T11:23:39Z</time>
<speed>4.540000</speed>
<extensions>
<speed>4.5</speed>
<temp>0.00</temp>
<bpm>0</bpm>
<rpm>0.00</rpm>
</extensions>
</trkpt>
<trkpt lat="30.854415894" lon="34.770557404">
<ele>502.351563</ele>
<time>2013-11-21T11:23:44Z</time>
<speed>2.430000</speed>
<extensions>
<speed>2.4</speed>
<temp>0.00</temp>
<bpm>0</bpm>
<rpm>0.00</rpm>
</extensions>
</trkpt>
<trkpt lat="30.854446411" lon="34.770492554">
<ele>503.046875</ele>
<time>2013-11-21T11:23:49Z</time>
<speed>0.530000</speed>
<extensions>
<speed>0.5</speed>
<temp>0.00</temp>
<bpm>0</bpm>
<rpm>0.00</rpm>
</extensions>
</trkpt>
<trkpt lat="30.854461670" lon="34.770462036">
<ele>504.031250</ele>
<time>2013-11-21T11:23:54Z</time>
<speed>0.790000</speed>
<extensions>
<speed>0.8</speed>
<temp>0.00</temp>
<bpm>0</bpm>
<rpm>0.00</rpm>
</extensions>
</trkpt>
<trkpt lat="30.854457855" lon="34.770423889">
<ele>505.140625</ele>
<time>2013-11-21T11:23:59Z</time>
<speed>0.560000</speed>
<extensions>
<speed>0.6</speed>
<temp>0.00</temp>
<bpm>0</bpm>
<rpm>0.00</rpm>
</extensions>
</trkpt>
<trkpt lat="30.854467392" lon="34.770412445">
<ele>506.156250</ele>
<time>2013-11-21T11:24:04Z</time>
<speed>0.920000</speed>
<extensions>
<speed>0.9</speed>
<temp>0.00</temp>
<bpm>0</bpm>
<rpm>0.00</rpm>
</extensions>
</trkpt>
<trkpt lat="30.854471207" lon="34.770336151">
<ele>504.742188</ele>
<time>2013-11-21T11:24:09Z</time>
<speed>2.560000</speed>
<extensions>
<speed>2.6</speed>
<temp>0.00</temp>
<bpm>0</bpm>
<rpm>0.00</rpm>
</extensions>
</trkpt>
<trkpt lat="30.854347229" lon="34.770229340">
<ele>505.445313</ele>
<time>2013-11-21T11:24:14Z</time>
<speed>4.090000</speed>
<extensions>
<speed>4.1</speed>
<temp>0.00</temp>
<bpm>0</bpm>
<rpm>0.00</rpm>
</extensions>
</trkpt>
<trkpt lat="30.854190826" lon="34.770103455">
<ele>505.132813</ele>
<time>2013-11-21T11:24:19Z</time>
<speed>4.200000</speed>
<extensions>
<speed>4.2</speed>
<temp>0.00</temp>
<bpm>0</bpm>
<rpm>0.00</rpm>
</extensions>
</trkpt>
<trkpt lat="30.854001999" lon="34.769969940">
<ele>504.585938</ele>
<time>2013-11-21T11:24:24Z</time>
<speed>4.840000</speed>
<extensions>
<speed>4.8</speed>
<temp>0.00</temp>
<bpm>0</bpm>
<rpm>0.00</rpm>
</extensions>
</trkpt>
<trkpt lat="30.853858948" lon="34.769844055">
<ele>503.164063</ele>
<time>2013-11-21T11:24:29Z</time>
<speed>4.380000</speed>
<extensions>
<speed>4.4</speed>
<temp>0.00</temp>
<bpm>0</bpm>
<rpm>0.00</rpm>
</extensions>
</trkpt>
<trkpt lat="30.853662491" lon="34.769695282">
<ele>502.671875</ele>
<time>2013-11-21T11:24:34Z</time>
<speed>5.440000</speed>
<extensions>
<speed>5.4</speed>
<temp>0.00</temp>
<bpm>0</bpm>
<rpm>0.00</rpm>
</extensions>
</trkpt>
<trkpt lat="30.853471756" lon="34.769531250">
<ele>501.515625</ele>
<time>2013-11-21T11:24:39Z</time>
<speed>4.980000</speed>
<extensions>
<speed>5.0</speed>
<temp>0.00</temp>
<bpm>0</bpm>
<rpm>0.00</rpm>
</extensions>
</trkpt>
<trkpt lat="30.853275299" lon="34.769374847">
<ele>501.046875</ele>
<time>2013-11-21T11:24:44Z</time>
<speed>5.080000</speed>
<extensions>
<speed>5.1</speed>
<temp>0.00</temp>
<bpm>0</bpm>
<rpm>0.00</rpm>
</extensions>
</trkpt>
<trkpt lat="30.853097916" lon="34.769214630">
<ele>500.125000</ele>
<time>2013-11-21T11:24:49Z</time>
<speed>5.040000</speed>
<extensions>
<speed>5.0</speed>
<temp>0.00</temp>
<bpm>0</bpm>
<rpm>0.00</rpm>
</extensions>
</trkpt>
<trkpt lat="30.852882385" lon="34.769046783">
<ele>500.250000</ele>
<time>2013-11-21T11:24:54Z</time>
<speed>5.880000</speed>
<extensions>
<speed>5.9</speed>
<temp>0.00</temp>
<bpm>0</bpm>
<rpm>0.00</rpm>
</extensions>
</trkpt>
<trkpt lat="30.852676392" lon="34.768909454">
<ele>500.664063</ele>
<time>2013-11-21T11:24:59Z</time>
<speed>5.350000</speed>
<extensions>
<speed>5.4</speed>
<temp>0.00</temp>
<bpm>0</bpm>
<rpm>0.00</rpm>
</extensions>
</trkpt>
<trkpt lat="30.852466583" lon="34.768779755">
<ele>499.609375</ele>
<time>2013-11-21T11:25:04Z</time>
<speed>5.150000</speed>
<extensions>
<speed>5.2</speed>
<temp>0.00</temp>
<bpm>0</bpm>
<rpm>0.00</rpm>
</extensions>
</trkpt>
<trkpt lat="30.852237701" lon="34.768676758">
<ele>497.515625</ele>
<time>2013-11-21T11:25:09Z</time>
<speed>5.260000</speed>
<extensions>
<speed>5.3</speed>
<temp>0.00</temp>
<bpm>0</bpm>
<rpm>0.00</rpm>
</extensions>
</trkpt>
<trkpt lat="30.852043152" lon="34.768562317">
<ele>497.210938</ele>
<time>2013-11-21T11:25:14Z</time>
<speed>4.490000</speed>
<extensions>
<speed>4.5</speed>
<temp>0.00</temp>
<bpm>0</bpm>
<rpm>0.00</rpm>
</extensions>
</trkpt>
<trkpt lat="30.851915359" lon="34.768508911">
<ele>497.546875</ele>
<time>2013-11-21T11:25:19Z</time>
<speed>2.370000</speed>
<extensions>
<speed>2.4</speed>
<temp>0.00</temp>
<bpm>0</bpm>
<rpm>0.00</rpm>
</extensions>
</trkpt>
<trkpt lat="30.851793289" lon="34.768444061">
<ele>496.968750</ele>
<time>2013-11-21T11:25:24Z</time>
<speed>3.550000</speed>
<extensions>
<speed>3.5</speed>
<temp>0.00</temp>
<bpm>0</bpm>
<rpm>0.00</rpm>
</extensions>
</trkpt>
<trkpt lat="30.851613998" lon="34.768341064">
<ele>497.054688</ele>
<time>2013-11-21T11:25:29Z</time>
<speed>5.230000</speed>
<extensions>
<speed>5.2</speed>
<temp>0.00</temp>
<bpm>0</bpm>
<rpm>0.00</rpm>
</extensions>
</trkpt>
<trkpt lat="30.851436615" lon="34.768196106">
<ele>496.437500</ele>
<time>2013-11-21T11:25:34Z</time>
<speed>5.660000</speed>
<extensions>
<speed>5.7</speed>
<temp>0.00</temp>
<bpm>0</bpm>
<rpm>0.00</rpm>
</extensions>
</trkpt>
<trkpt lat="30.851194382" lon="34.768020630">
<ele>497.078125</ele>
<time>2013-11-21T11:25:39Z</time>
<speed>6.020000</speed>
<extensions>
<speed>6.0</speed>
<temp>0.00</temp>
<bpm>0</bpm>
<rpm>0.00</rpm>
</extensions>
</trkpt>
<trkpt lat="30.850971222" lon="34.767807007">
<ele>496.679688</ele>
<time>2013-11-21T11:25:44Z</time>
<speed>6.560000</speed>
<extensions>
<speed>6.6</speed>
<temp>0.00</temp>
<bpm>0</bpm>
<rpm>0.00</rpm>
</extensions>
</trkpt>
<trkpt lat="30.850744247" lon="34.767589569">
<ele>496.468750</ele>
<time>2013-11-21T11:25:49Z</time>
<speed>6.390000</speed>
<extensions>
<speed>6.4</speed>
<temp>0.00</temp>
<bpm>0</bpm>
<rpm>0.00</rpm>
</extensions>
</trkpt>
<trkpt lat="30.850540161" lon="34.767341614">
<ele>495.335938</ele>
<time>2013-11-21T11:25:54Z</time>
<speed>6.160000</speed>
<extensions>
<speed>6.2</speed>
<temp>0.00</temp>
<bpm>0</bpm>
<rpm>0.00</rpm>
</extensions>
</trkpt>
<trkpt lat="30.850374222" lon="34.767105103">
<ele>493.968750</ele>
<time>2013-11-21T11:25:59Z</time>
<speed>5.370000</speed>
<extensions>
<speed>5.4</speed>
<temp>0.00</temp>
<bpm>0</bpm>
<rpm>0.00</rpm>
</extensions>
</trkpt>
<trkpt lat="30.850217819" lon="34.766868591">
<ele>493.734375</ele>
<time>2013-11-21T11:26:04Z</time>
<speed>5.500000</speed>
<extensions>
<speed>5.5</speed>
<temp>0.00</temp>
<bpm>0</bpm>
<rpm>0.00</rpm>
</extensions>
</trkpt>
<trkpt lat="30.850116730" lon="34.766662598">
<ele>495.078125</ele>
<time>2013-11-21T11:26:09Z</time>
<speed>4.560000</speed>
<extensions>
<speed>4.6</speed>
<temp>0.00</temp>
<bpm>0</bpm>
<rpm>0.00</rpm>
</extensions>
</trkpt>
<trkpt lat="30.849992752" lon="34.766433716">
<ele>497.812500</ele>
<time>2013-11-21T11:26:14Z</time>
<speed>5.610000</speed>
<extensions>
<speed>5.6</speed>
<temp>0.00</temp>
<bpm>0</bpm>
<rpm>0.00</rpm>
</extensions>
</trkpt>
<trkpt lat="30.849905014" lon="34.766235352">
<ele>499.117188</ele>
<time>2013-11-21T11:26:19Z</time>
<speed>3.610000</speed>
<extensions>
<speed>3.6</speed>
<temp>0.00</temp>
<bpm>0</bpm>
<rpm>0.00</rpm>
</extensions>
</trkpt>
<trkpt lat="30.849805832" lon="34.766029358">
<ele>499.992188</ele>
<time>2013-11-21T11:26:24Z</time>
<speed>4.880000</speed>
<extensions>
<speed>4.9</speed>
<temp>0.00</temp>
<bpm>0</bpm>
<rpm>0.00</rpm>
</extensions>
</trkpt>
<trkpt lat="30.849725723" lon="34.765766144">
<ele>500.742188</ele>
<time>2013-11-21T11:26:29Z</time>
<speed>5.070000</speed>
<extensions>
<speed>5.1</speed>
<temp>0.00</temp>
<bpm>0</bpm>
<rpm>0.00</rpm>
</extensions>
</trkpt>
<trkpt lat="30.849653244" lon="34.765556335">
<ele>500.265625</ele>
<time>2013-11-21T11:26:34Z</time>
<speed>4.700000</speed>
<extensions>
<speed>4.7</speed>
<temp>0.00</temp>
<bpm>0</bpm>
<rpm>0.00</rpm>
</extensions>
</trkpt>
<trkpt lat="30.849542618" lon="34.765319824">
<ele>501.789063</ele>
<time>2013-11-21T11:26:39Z</time>
<speed>5.160000</speed>
<extensions>
<speed>5.2</speed>
<temp>0.00</temp>
<bpm>0</bpm>
<rpm>0.00</rpm>
</extensions>
</trkpt>
<trkpt lat="30.849449158" lon="34.765094757">
<ele>505.218750</ele>
<time>2013-11-21T11:26:44Z</time>
<speed>4.370000</speed>
<extensions>
<speed>4.4</speed>
<temp>0.00</temp>
<bpm>0</bpm>
<rpm>0.00</rpm>
</extensions>
</trkpt>
<trkpt lat="30.849338531" lon="34.764865875">
<ele>507.742188</ele>
<time>2013-11-21T11:26:49Z</time>
<speed>5.360000</speed>
<extensions>
<speed>5.4</speed>
<temp>0.00</temp>
<bpm>0</bpm>
<rpm>0.00</rpm>
</extensions>
</trkpt>
<trkpt lat="30.849220276" lon="34.764602661">
<ele>510.796875</ele>
<time>2013-11-21T11:26:54Z</time>
<speed>5.560000</speed>
<extensions>
<speed>5.6</speed>
<temp>0.00</temp>
<bpm>0</bpm>
<rpm>0.00</rpm>
</extensions>
</trkpt>
<trkpt lat="30.849113464" lon="34.764362335">
<ele>510.851563</ele>
<time>2013-11-21T11:26:59Z</time>
<speed>5.360000</speed>
<extensions>
<speed>5.4</speed>
<temp>0.00</temp>
<bpm>0</bpm>
<rpm>0.00</rpm>
</extensions>
</trkpt>
<trkpt lat="30.849023819" lon="34.764099121">
<ele>510.765625</ele>
<time>2013-11-21T11:27:04Z</time>
<speed>5.760000</speed>
<extensions>
<speed>5.8</speed>
<temp>0.00</temp>
<bpm>0</bpm>
<rpm>0.00</rpm>
</extensions>
</trkpt>
<trkpt lat="30.848934174" lon="34.763782501">
<ele>513.031250</ele>
<time>2013-11-21T11:27:09Z</time>
<speed>6.380000</speed>
<extensions>
<speed>6.4</speed>
<temp>0.00</temp>
<bpm>0</bpm>
<rpm>0.00</rpm>
</extensions>
</trkpt>
<trkpt lat="30.848867416" lon="34.763511658">
<ele>514.046875</ele>
<time>2013-11-21T11:27:14Z</time>
<speed>5.140000</speed>
<extensions>
<speed>5.1</speed>
<temp>0.00</temp>
<bpm>0</bpm>
<rpm>0.00</rpm>
</extensions>
</trkpt>
<trkpt lat="30.848783493" lon="34.763259888">
<ele>514.421875</ele>
<time>2013-11-21T11:27:19Z</time>
<speed>5.530000</speed>
<extensions>
<speed>5.5</speed>
<temp>0.00</temp>
<bpm>0</bpm>
<rpm>0.00</rpm>
</extensions>
</trkpt>
<trkpt lat="30.848686218" lon="34.762996674">
<ele>514.484375</ele>
<time>2013-11-21T11:27:24Z</time>
<speed>4.650000</speed>
<extensions>
<speed>4.6</speed>
<temp>0.00</temp>
<bpm>0</bpm>
<rpm>0.00</rpm>
</extensions>
</trkpt>
<trkpt lat="30.848617554" lon="34.762790680">
<ele>514.984375</ele>
<time>2013-11-21T11:27:29Z</time>
<speed>4.190000</speed>
<extensions>
<speed>4.2</speed>
<temp>0.00</temp>
<bpm>0</bpm>
<rpm>0.00</rpm>
</extensions>
</trkpt>
<trkpt lat="30.848543167" lon="34.762580872">
<ele>514.796875</ele>
<time>2013-11-21T11:27:34Z</time>
<speed>5.080000</speed>
<extensions>
<speed>5.1</speed>
<temp>0.00</temp>
<bpm>0</bpm>
<rpm>0.00</rpm>
</extensions>
</trkpt>
<trkpt lat="30.848447800" lon="34.762332916">
<ele>512.593750</ele>
<time>2013-11-21T11:27:39Z</time>
<speed>5.350000</speed>
<extensions>
<speed>5.4</speed>
<temp>0.00</temp>
<bpm>0</bpm>
<rpm>0.00</rpm>
</extensions>
</trkpt>
<trkpt lat="30.848365784" lon="34.762069702">
<ele>512.109375</ele>
<time>2013-11-21T11:27:44Z</time>
<speed>5.210000</speed>
<extensions>
<speed>5.2</speed>
<temp>0.00</temp>
<bpm>0</bpm>
<rpm>0.00</rpm>
</extensions>
</trkpt>
<trkpt lat="30.848337173" lon="34.761840820">
<ele>512.421875</ele>
<time>2013-11-21T11:27:49Z</time>
<speed>4.570000</speed>
<extensions>
<speed>4.6</speed>
<temp>0.00</temp>
<bpm>0</bpm>
<rpm>0.00</rpm>
</extensions>
</trkpt>
<trkpt lat="30.848245621" lon="34.761589050">
<ele>513.890625</ele>
<time>2013-11-21T11:27:54Z</time>
<speed>5.520000</speed>
<extensions>
<speed>5.5</speed>
<temp>0.00</temp>
<bpm>0</bpm>
<rpm>0.00</rpm>
</extensions>
</trkpt>
<trkpt lat="30.848163605" lon="34.761333466">
<ele>514.625000</ele>
<time>2013-11-21T11:27:59Z</time>
<speed>4.880000</speed>
<extensions>
<speed>4.9</speed>
<temp>0.00</temp>
<bpm>0</bpm>
<rpm>0.00</rpm>
</extensions>
</trkpt>
<trkpt lat="30.848083496" lon="34.761135101">
<ele>514.015625</ele>
<time>2013-11-21T11:28:04Z</time>
<speed>4.200000</speed>
<extensions>
<speed>4.2</speed>
<temp>0.00</temp>
<bpm>0</bpm>
<rpm>0.00</rpm>
</extensions>
</trkpt>
<trkpt lat="30.848045349" lon="34.760955811">
<ele>514.375000</ele>
<time>2013-11-21T11:28:09Z</time>
<speed>2.730000</speed>
<extensions>
<speed>2.7</speed>
<temp>0.00</temp>
<bpm>0</bpm>
<rpm>0.00</rpm>
</extensions>
</trkpt>
<trkpt lat="30.848016739" lon="34.760791779">
<ele>514.296875</ele>
<time>2013-11-21T11:28:14Z</time>
<speed>3.300000</speed>
<extensions>
<speed>3.3</speed>
<temp>0.00</temp>
<bpm>0</bpm>
<rpm>0.00</rpm>
</extensions>
</trkpt>
<trkpt lat="30.847978592" lon="34.760608673">
<ele>512.937500</ele>
<time>2013-11-21T11:28:19Z</time>
<speed>3.920000</speed>
<extensions>
<speed>3.9</speed>
<temp>0.00</temp>
<bpm>0</bpm>
<rpm>0.00</rpm>
</extensions>
</trkpt>
<trkpt lat="30.847946167" lon="34.760406494">
<ele>514.593750</ele>
<time>2013-11-21T11:28:24Z</time>
<speed>4.320000</speed>
<extensions>
<speed>4.3</speed>
<temp>0.00</temp>
<bpm>0</bpm>
<rpm>0.00</rpm>
</extensions>
</trkpt>
<trkpt lat="30.847946167" lon="34.760177612">
<ele>516.062500</ele>
<time>2013-11-21T11:28:29Z</time>
<speed>4.980000</speed>
<extensions>
<speed>5.0</speed>
<temp>0.00</temp>
<bpm>0</bpm>
<rpm>0.00</rpm>
</extensions>
</trkpt>
<trkpt lat="30.847997665" lon="34.759902954">
<ele>517.765625</ele>
<time>2013-11-21T11:28:34Z</time>
<speed>4.850000</speed>
<extensions>
<speed>4.8</speed>
<temp>0.00</temp>
<bpm>0</bpm>
<rpm>0.00</rpm>
</extensions>
</trkpt>
<trkpt lat="30.848049164" lon="34.759654999">
<ele>518.171875</ele>
<time>2013-11-21T11:28:39Z</time>
<speed>5.160000</speed>
<extensions>
<speed>5.2</speed>
<temp>0.00</temp>
<bpm>0</bpm>
<rpm>0.00</rpm>
</extensions>
</trkpt>
<trkpt lat="30.848089218" lon="34.759456635">
<ele>518.796875</ele>
<time>2013-11-21T11:28:44Z</time>
<speed>3.660000</speed>
<extensions>
<speed>3.7</speed>
<temp>0.00</temp>
<bpm>0</bpm>
<rpm>0.00</rpm>
</extensions>
</trkpt>
<trkpt lat="30.848155975" lon="34.759304047">
<ele>517.390625</ele>
<time>2013-11-21T11:28:49Z</time>
<speed>4.400000</speed>
<extensions>
<speed>4.4</speed>
<temp>0.00</temp>
<bpm>0</bpm>
<rpm>0.00</rpm>
</extensions>
</trkpt>
<trkpt lat="30.848226547" lon="34.759181976">
<ele>516.015625</ele>
<time>2013-11-21T11:28:54Z</time>
<speed>2.230000</speed>
<extensions>
<speed>2.2</speed>
<temp>0.00</temp>
<bpm>0</bpm>
<rpm>0.00</rpm>
</extensions>
</trkpt>
<trkpt lat="30.848272324" lon="34.759082794">
<ele>515.203125</ele>
<time>2013-11-21T11:28:59Z</time>
<speed>2.470000</speed>
<extensions>
<speed>2.5</speed>
<temp>0.00</temp>
<bpm>0</bpm>
<rpm>0.00</rpm>
</extensions>
</trkpt>
<trkpt lat="30.848358154" lon="34.758945465">
<ele>515.109375</ele>
<time>2013-11-21T11:29:04Z</time>
<speed>4.190000</speed>
<extensions>
<speed>4.2</speed>
<temp>0.00</temp>
<bpm>0</bpm>
<rpm>0.00</rpm>
</extensions>
</trkpt>
<trkpt lat="30.848445892" lon="34.758773804">
<ele>514.984375</ele>
<time>2013-11-21T11:29:09Z</time>
<speed>3.670000</speed>
<extensions>
<speed>3.7</speed>
<temp>0.00</temp>
<bpm>0</bpm>
<rpm>0.00</rpm>
</extensions>
</trkpt>
<trkpt lat="30.848562241" lon="34.758598328">
<ele>516.359375</ele>
<time>2013-11-21T11:29:14Z</time>
<speed>4.430000</speed>
<extensions>
<speed>4.4</speed>
<temp>0.00</temp>
<bpm>0</bpm>
<rpm>0.00</rpm>
</extensions>
</trkpt>
<trkpt lat="30.848651886" lon="34.758361816">
<ele>515.859375</ele>
<time>2013-11-21T11:29:19Z</time>
<speed>4.690000</speed>
<extensions>
<speed>4.7</speed>
<temp>0.00</temp>
<bpm>0</bpm>
<rpm>0.00</rpm>
</extensions>
</trkpt>
<trkpt lat="30.848714828" lon="34.758132935">
<ele>515.906250</ele>
<time>2013-11-21T11:29:24Z</time>
<speed>3.850000</speed>
<extensions>
<speed>3.8</speed>
<temp>0.00</temp>
<bpm>0</bpm>
<rpm>0.00</rpm>
</extensions>
</trkpt>
<trkpt lat="30.848814011" lon="34.757877350">
<ele>515.453125</ele>
<time>2013-11-21T11:29:29Z</time>
<speed>4.520000</speed>
<extensions>
<speed>4.5</speed>
<temp>0.00</temp>
<bpm>0</bpm>
<rpm>0.00</rpm>
</extensions>
</trkpt>
<trkpt lat="30.848880768" lon="34.757644653">
<ele>516.250000</ele>
<time>2013-11-21T11:29:34Z</time>
<speed>4.140000</speed>
<extensions>
<speed>4.1</speed>
<temp>0.00</temp>
<bpm>0</bpm>
<rpm>0.00</rpm>
</extensions>
</trkpt>
<trkpt lat="30.848932266" lon="34.757415771">
<ele>516.718750</ele>
<time>2013-11-21T11:29:39Z</time>
<speed>3.950000</speed>
<extensions>
<speed>4.0</speed>
<temp>0.00</temp>
<bpm>0</bpm>
<rpm>0.00</rpm>
</extensions>
</trkpt>
<trkpt lat="30.848995209" lon="34.757164001">
<ele>518.968750</ele>
<time>2013-11-21T11:29:44Z</time>
<speed>5.160000</speed>
<extensions>
<speed>5.2</speed>
<temp>0.00</temp>
<bpm>0</bpm>
<rpm>0.00</rpm>
</extensions>
</trkpt>
<trkpt lat="30.849048615" lon="34.756866455">
<ele>518.734375</ele>
<time>2013-11-21T11:29:49Z</time>
<speed>5.920000</speed>
<extensions>
<speed>5.9</speed>
<temp>0.00</temp>
<bpm>0</bpm>
<rpm>0.00</rpm>
</extensions>
</trkpt>
<trkpt lat="30.849081039" lon="34.756526947">
<ele>517.390625</ele>
<time>2013-11-21T11:29:54Z</time>
<speed>6.200000</speed>
<extensions>
<speed>6.2</speed>
<temp>0.00</temp>
<bpm>0</bpm>
<rpm>0.00</rpm>
</extensions>
</trkpt>
<trkpt lat="30.849115372" lon="34.756210327">
<ele>518.531250</ele>
<time>2013-11-21T11:29:59Z</time>
<speed>6.120000</speed>
<extensions>
<speed>6.1</speed>
<temp>0.00</temp>
<bpm>0</bpm>
<rpm>0.00</rpm>
</extensions>
</trkpt>
<trkpt lat="30.849163055" lon="34.755901337">
<ele>519.546875</ele>
<time>2013-11-21T11:30:04Z</time>
<speed>6.080000</speed>
<extensions>
<speed>6.1</speed>
<temp>0.00</temp>
<bpm>0</bpm>
<rpm>0.00</rpm>
</extensions>
</trkpt>
<trkpt lat="30.849197388" lon="34.755584717">
<ele>520.203125</ele>
<time>2013-11-21T11:30:09Z</time>
<speed>6.180000</speed>
<extensions>
<speed>6.2</speed>
<temp>0.00</temp>
<bpm>0</bpm>
<rpm>0.00</rpm>
</extensions>
</trkpt>
<trkpt lat="30.849178314" lon="34.755298615">
<ele>517.921875</ele>
<time>2013-11-21T11:30:14Z</time>
<speed>5.750000</speed>
<extensions>
<speed>5.8</speed>
<temp>0.00</temp>
<bpm>0</bpm>
<rpm>0.00</rpm>
</extensions>
</trkpt>
<trkpt lat="30.849168777" lon="34.755004883">
<ele>516.375000</ele>
<time>2013-11-21T11:30:19Z</time>
<speed>6.070000</speed>
<extensions>
<speed>6.1</speed>
<temp>0.00</temp>
<bpm>0</bpm>
<rpm>0.00</rpm>
</extensions>
</trkpt>
<trkpt lat="30.849111557" lon="34.754669189">
<ele>515.906250</ele>
<time>2013-11-21T11:30:24Z</time>
<speed>6.440000</speed>
<extensions>
<speed>6.4</speed>
<temp>0.00</temp>
<bpm>0</bpm>
<rpm>0.00</rpm>
</extensions>
</trkpt>
<trkpt lat="30.849004745" lon="34.754325867">
<ele>512.859375</ele>
<time>2013-11-21T11:30:29Z</time>
<speed>6.550000</speed>
<extensions>
<speed>6.5</speed>
<temp>0.00</temp>
<bpm>0</bpm>
<rpm>0.00</rpm>
</extensions>
</trkpt>
<trkpt lat="30.848886490" lon="34.754009247">
<ele>511.000000</ele>
<time>2013-11-21T11:30:34Z</time>
<speed>6.230000</speed>
<extensions>
<speed>6.2</speed>
<temp>0.00</temp>
<bpm>0</bpm>
<rpm>0.00</rpm>
</extensions>
</trkpt>
<trkpt lat="30.848747253" lon="34.753704071">
<ele>508.492188</ele>
<time>2013-11-21T11:30:39Z</time>
<speed>6.670000</speed>
<extensions>
<speed>6.7</speed>
<temp>0.00</temp>
<bpm>0</bpm>
<rpm>0.00</rpm>
</extensions>
</trkpt>
<trkpt lat="30.848573685" lon="34.753437042">
<ele>507.773438</ele>
<time>2013-11-21T11:30:44Z</time>
<speed>6.410000</speed>
<extensions>
<speed>6.4</speed>
<temp>0.00</temp>
<bpm>0</bpm>
<rpm>0.00</rpm>
</extensions>
</trkpt>
<trkpt lat="30.848443985" lon="34.753265381">
<ele>507.656250</ele>
<time>2013-11-21T11:30:49Z</time>
<speed>3.350000</speed>
<extensions>
<speed>3.4</speed>
<temp>0.00</temp>
<bpm>0</bpm>
<rpm>0.00</rpm>
</extensions>
</trkpt>
<trkpt lat="30.848379135" lon="34.753154755">
<ele>507.031250</ele>
<time>2013-11-21T11:30:54Z</time>
<speed>2.020000</speed>
<extensions>
<speed>2.0</speed>
<temp>0.00</temp>
<bpm>0</bpm>
<rpm>0.00</rpm>
</extensions>
</trkpt>
<trkpt lat="30.848299026" lon="34.753089905">
<ele>507.445313</ele>
<time>2013-11-21T11:30:59Z</time>
<speed>2.870000</speed>
<extensions>
<speed>2.9</speed>
<temp>0.00</temp>
<bpm>0</bpm>
<rpm>0.00</rpm>
</extensions>
</trkpt>
<trkpt lat="30.848163605" lon="34.752979279">
<ele>506.726563</ele>
<time>2013-11-21T11:31:04Z</time>
<speed>3.780000</speed>
<extensions>
<speed>3.8</speed>
<temp>0.00</temp>
<bpm>0</bpm>
<rpm>0.00</rpm>
</extensions>
</trkpt>
<trkpt lat="30.848028183" lon="34.752780914">
<ele>507.390625</ele>
<time>2013-11-21T11:31:09Z</time>
<speed>5.160000</speed>
<extensions>
<speed>5.2</speed>
<temp>0.00</temp>
<bpm>0</bpm>
<rpm>0.00</rpm>
</extensions>
</trkpt>
<trkpt lat="30.847866058" lon="34.752544403">
<ele>510.773438</ele>
<time>2013-11-21T11:31:14Z</time>
<speed>5.590000</speed>
<extensions>
<speed>5.6</speed>
<temp>0.00</temp>
<bpm>0</bpm>
<rpm>0.00</rpm>
</extensions>
</trkpt>
<trkpt lat="30.847723007" lon="34.752273560">
<ele>512.906250</ele>
<time>2013-11-21T11:31:19Z</time>
<speed>5.690000</speed>
<extensions>
<speed>5.7</speed>
<temp>0.00</temp>
<bpm>0</bpm>
<rpm>0.00</rpm>
</extensions>
</trkpt>
<trkpt lat="30.847600937" lon="34.752025604">
<ele>514.359375</ele>
<time>2013-11-21T11:31:24Z</time>
<speed>5.340000</speed>
<extensions>
<speed>5.3</speed>
<temp>0.00</temp>
<bpm>0</bpm>
<rpm>0.00</rpm>
</extensions>
</trkpt>
<trkpt lat="30.847486496" lon="34.751770020">
<ele>515.781250</ele>
<time>2013-11-21T11:31:29Z</time>
<speed>5.670000</speed>
<extensions>
<speed>5.7</speed>
<temp>0.00</temp>
<bpm>0</bpm>
<rpm>0.00</rpm>
</extensions>
</trkpt>
<trkpt lat="30.847389221" lon="34.751502991">
<ele>516.796875</ele>
<time>2013-11-21T11:31:34Z</time>
<speed>5.200000</speed>
<extensions>
<speed>5.2</speed>
<temp>0.00</temp>
<bpm>0</bpm>
<rpm>0.00</rpm>
</extensions>
</trkpt>
<trkpt lat="30.847335815" lon="34.751232147">
<ele>515.609375</ele>
<time>2013-11-21T11:31:39Z</time>
<speed>5.760000</speed>
<extensions>
<speed>5.8</speed>
<temp>0.00</temp>
<bpm>0</bpm>
<rpm>0.00</rpm>
</extensions>
</trkpt>
<trkpt lat="30.847351074" lon="34.750900269">
<ele>512.156250</ele>
<time>2013-11-21T11:31:44Z</time>
<speed>5.970000</speed>
<extensions>
<speed>6.0</speed>
<temp>0.00</temp>
<bpm>0</bpm>
<rpm>0.00</rpm>
</extensions>
</trkpt>
<trkpt lat="30.847366333" lon="34.750602722">
<ele>511.312500</ele>
<time>2013-11-21T11:31:49Z</time>
<speed>5.890000</speed>
<extensions>
<speed>5.9</speed>
<temp>0.00</temp>
<bpm>0</bpm>
<rpm>0.00</rpm>
</extensions>
</trkpt>
<trkpt lat="30.847360611" lon="34.750297546">
<ele>508.171875</ele>
<time>2013-11-21T11:31:54Z</time>
<speed>6.390000</speed>
<extensions>
<speed>6.4</speed>
<temp>0.00</temp>
<bpm>0</bpm>
<rpm>0.00</rpm>
</extensions>
</trkpt>
<trkpt lat="30.847337723" lon="34.749950409">
<ele>505.984375</ele>
<time>2013-11-21T11:31:59Z</time>
<speed>6.870000</speed>
<extensions>
<speed>6.9</speed>
<temp>0.00</temp>
<bpm>0</bpm>
<rpm>0.00</rpm>
</extensions>
</trkpt>
<trkpt lat="30.847316742" lon="34.749580383">
<ele>503.117188</ele>
<time>2013-11-21T11:32:04Z</time>
<speed>6.670000</speed>
<extensions>
<speed>6.7</speed>
<temp>0.00</temp>
<bpm>0</bpm>
<rpm>0.00</rpm>
</extensions>
</trkpt>
<trkpt lat="30.847284317" lon="34.749217987">
<ele>501.664063</ele>
<time>2013-11-21T11:32:09Z</time>
<speed>7.190000</speed>
<extensions>
<speed>7.2</speed>
<temp>0.00</temp>
<bpm>0</bpm>
<rpm>0.00</rpm>
</extensions>
</trkpt>
<trkpt lat="30.847223282" lon="34.748847961">
<ele>500.781250</ele>
<time>2013-11-21T11:32:14Z</time>
<speed>7.060000</speed>
<extensions>
<speed>7.1</speed>
<temp>0.00</temp>
<bpm>0</bpm>
<rpm>0.00</rpm>
</extensions>
</trkpt>
<trkpt lat="30.847126007" lon="34.748527527">
<ele>498.781250</ele>
<time>2013-11-21T11:32:19Z</time>
<speed>6.600000</speed>
<extensions>
<speed>6.6</speed>
<temp>0.00</temp>
<bpm>0</bpm>
<rpm>0.00</rpm>
</extensions>
</trkpt>
<trkpt lat="30.847028732" lon="34.748188019">
<ele>502.296875</ele>
<time>2013-11-21T11:32:24Z</time>
<speed>7.260000</speed>
<extensions>
<speed>7.3</speed>
<temp>0.00</temp>
<bpm>0</bpm>
<rpm>0.00</rpm>
</extensions>
</trkpt>
<trkpt lat="30.846902847" lon="34.747856140">
<ele>502.445313</ele>
<time>2013-11-21T11:32:29Z</time>
<speed>7.080000</speed>
<extensions>
<speed>7.1</speed>
<temp>0.00</temp>
<bpm>0</bpm>
<rpm>0.00</rpm>
</extensions>
</trkpt>
<trkpt lat="30.846763611" lon="34.747516632">
<ele>501.890625</ele>
<time>2013-11-21T11:32:34Z</time>
<speed>7.190000</speed>
<extensions>
<speed>7.2</speed>
<temp>0.00</temp>
<bpm>0</bpm>
<rpm>0.00</rpm>
</extensions>
</trkpt>
<trkpt lat="30.846605301" lon="34.747200012">
<ele>502.281250</ele>
<time>2013-11-21T11:32:39Z</time>
<speed>7.250000</speed>
<extensions>
<speed>7.3</speed>
<temp>0.00</temp>
<bpm>0</bpm>
<rpm>0.00</rpm>
</extensions>
</trkpt>
<trkpt lat="30.846429825" lon="34.746898651">
<ele>503.554688</ele>
<time>2013-11-21T11:32:44Z</time>
<speed>7.140000</speed>
<extensions>
<speed>7.1</speed>
<temp>0.00</temp>
<bpm>0</bpm>
<rpm>0.00</rpm>
</extensions>
</trkpt>
<trkpt lat="30.846256256" lon="34.746597290">
<ele>502.820313</ele>
<time>2013-11-21T11:32:49Z</time>
<speed>6.620000</speed>
<extensions>
<speed>6.6</speed>
<temp>0.00</temp>
<bpm>0</bpm>
<rpm>0.00</rpm>
</extensions>
</trkpt>
<trkpt lat="30.846107483" lon="34.746311188">
<ele>503.187500</ele>
<time>2013-11-21T11:32:54Z</time>
<speed>6.320000</speed>
<extensions>
<speed>6.3</speed>
<temp>0.00</temp>
<bpm>0</bpm>
<rpm>0.00</rpm>
</extensions>
</trkpt>
<trkpt lat="30.845960617" lon="34.746040344">
<ele>502.796875</ele>
<time>2013-11-21T11:32:59Z</time>
<speed>6.240000</speed>
<extensions>
<speed>6.2</speed>
<temp>0.00</temp>
<bpm>0</bpm>
<rpm>0.00</rpm>
</extensions>
</trkpt>
<trkpt lat="30.845821381" lon="34.745792389">
<ele>502.164063</ele>
<time>2013-11-21T11:33:04Z</time>
<speed>6.090000</speed>
<extensions>
<speed>6.1</speed>
<temp>0.00</temp>
<bpm>0</bpm>
<rpm>0.00</rpm>
</extensions>
</trkpt>
<trkpt lat="30.845680237" lon="34.745521545">
<ele>501.179688</ele>
<time>2013-11-21T11:33:09Z</time>
<speed>6.160000</speed>
<extensions>
<speed>6.2</speed>
<temp>0.00</temp>
<bpm>0</bpm>
<rpm>0.00</rpm>
</extensions>
</trkpt>
<trkpt lat="30.845529556" lon="34.745243073">
<ele>499.617188</ele>
<time>2013-11-21T11:33:14Z</time>
<speed>6.260000</speed>
<extensions>
<speed>6.3</speed>
<temp>0.00</temp>
<bpm>0</bpm>
<rpm>0.00</rpm>
</extensions>
</trkpt>
<trkpt lat="30.845352173" lon="34.744949341">
<ele>498.976563</ele>
<time>2013-11-21T11:33:19Z</time>
<speed>6.850000</speed>
<extensions>
<speed>6.8</speed>
<temp>0.00</temp>
<bpm>0</bpm>
<rpm>0.00</rpm>
</extensions>
</trkpt>
<trkpt lat="30.845151901" lon="34.744667053">
<ele>496.781250</ele>
<time>2013-11-21T11:33:24Z</time>
<speed>7.420000</speed>
<extensions>
<speed>7.4</speed>
<temp>0.00</temp>
<bpm>0</bpm>
<rpm>0.00</rpm>
</extensions>
</trkpt>
<trkpt lat="30.844888687" lon="34.744338989">
<ele>496.890625</ele>
<time>2013-11-21T11:33:29Z</time>
<speed>8.780000</speed>
<extensions>
<speed>8.8</speed>
<temp>0.00</temp>
<bpm>0</bpm>
<rpm>0.00</rpm>
</extensions>
</trkpt>
<trkpt lat="30.844581604" lon="34.744022369">
<ele>496.195313</ele>
<time>2013-11-21T11:33:34Z</time>
<speed>9.440000</speed>
<extensions>
<speed>9.4</speed>
<temp>0.00</temp>
<bpm>0</bpm>
<rpm>0.00</rpm>
</extensions>
</trkpt>
<trkpt lat="30.844219208" lon="34.743747711">
<ele>495.093750</ele>
<time>2013-11-21T11:33:39Z</time>
<speed>9.699999</speed>
<extensions>
<speed>9.7</speed>
<temp>0.00</temp>
<bpm>0</bpm>
<rpm>0.00</rpm>
</extensions>
</trkpt>
<trkpt lat="30.843868256" lon="34.743522644">
<ele>493.554688</ele>
<time>2013-11-21T11:33:44Z</time>
<speed>8.470000</speed>
<extensions>
<speed>8.5</speed>
<temp>0.00</temp>
<bpm>0</bpm>
<rpm>0.00</rpm>
</extensions>
</trkpt>
<trkpt lat="30.843572617" lon="34.743362427">
<ele>492.234375</ele>
<time>2013-11-21T11:33:49Z</time>
<speed>6.330000</speed>
<extensions>
<speed>6.3</speed>
<temp>0.00</temp>
<bpm>0</bpm>
<rpm>0.00</rpm>
</extensions>
</trkpt>
<trkpt lat="30.843317032" lon="34.743244171">
<ele>490.656250</ele>
<time>2013-11-21T11:33:54Z</time>
<speed>5.380000</speed>
<extensions>
<speed>5.4</speed>
<temp>0.00</temp>
<bpm>0</bpm>
<rpm>0.00</rpm>
</extensions>
</trkpt>
<trkpt lat="30.843112946" lon="34.743152618">
<ele>490.054688</ele>
<time>2013-11-21T11:33:59Z</time>
<speed>4.440000</speed>
<extensions>
<speed>4.4</speed>
<temp>0.00</temp>
<bpm>0</bpm>
<rpm>0.00</rpm>
</extensions>
</trkpt>
<trkpt lat="30.842922211" lon="34.743083954">
<ele>490.304688</ele>
<time>2013-11-21T11:34:04Z</time>
<speed>4.720000</speed>
<extensions>
<speed>4.7</speed>
<temp>0.00</temp>
<bpm>0</bpm>
<rpm>0.00</rpm>
</extensions>
</trkpt>
<trkpt lat="30.842741013" lon="34.743000031">
<ele>491.656250</ele>
<time>2013-11-21T11:34:09Z</time>
<speed>3.840000</speed>
<extensions>
<speed>3.8</speed>
<temp>0.00</temp>
<bpm>0</bpm>
<rpm>0.00</rpm>
</extensions>
</trkpt>
<trkpt lat="30.842592239" lon="34.742965698">
<ele>492.734375</ele>
<time>2013-11-21T11:34:14Z</time>
<speed>3.420000</speed>
<extensions>
<speed>3.4</speed>
<temp>0.00</temp>
<bpm>0</bpm>
<rpm>0.00</rpm>
</extensions>
</trkpt>
<trkpt lat="30.842424393" lon="34.742900848">
<ele>494.007813</ele>
<time>2013-11-21T11:34:19Z</time>
<speed>4.580000</speed>
<extensions>
<speed>4.6</speed>
<temp>0.00</temp>
<bpm>0</bpm>
<rpm>0.00</rpm>
</extensions>
</trkpt>
<trkpt lat="30.842233658" lon="34.742813110">
<ele>495.265625</ele>
<time>2013-11-21T11:34:24Z</time>
<speed>3.800000</speed>
<extensions>
<speed>3.8</speed>
<temp>0.00</temp>
<bpm>0</bpm>
<rpm>0.00</rpm>
</extensions>
</trkpt>
<trkpt lat="30.842061996" lon="34.742736816">
<ele>495.031250</ele>
<time>2013-11-21T11:34:29Z</time>
<speed>4.580000</speed>
<extensions>
<speed>4.6</speed>
<temp>0.00</temp>
<bpm>0</bpm>
<rpm>0.00</rpm>
</extensions>
</trkpt>
<trkpt lat="30.841857910" lon="34.742633820">
<ele>494.609375</ele>
<time>2013-11-21T11:34:34Z</time>
<speed>4.880000</speed>
<extensions>
<speed>4.9</speed>
<temp>0.00</temp>
<bpm>0</bpm>
<rpm>0.00</rpm>
</extensions>
</trkpt>
<trkpt lat="30.841670990" lon="34.742553711">
<ele>493.617188</ele>
<time>2013-11-21T11:34:39Z</time>
<speed>4.100000</speed>
<extensions>
<speed>4.1</speed>
<temp>0.00</temp>
<bpm>0</bpm>
<rpm>0.00</rpm>
</extensions>
</trkpt>
<trkpt lat="30.841484070" lon="34.742465973">
<ele>494.953125</ele>
<time>2013-11-21T11:34:44Z</time>
<speed>5.170000</speed>
<extensions>
<speed>5.2</speed>
<temp>0.00</temp>
<bpm>0</bpm>
<rpm>0.00</rpm>
</extensions>
</trkpt>
<trkpt lat="30.841306686" lon="34.742382050">
<ele>494.796875</ele>
<time>2013-11-21T11:34:49Z</time>
<speed>3.910000</speed>
<extensions>
<speed>3.9</speed>
<temp>0.00</temp>
<bpm>0</bpm>
<rpm>0.00</rpm>
</extensions>
</trkpt>
<trkpt lat="30.841108322" lon="34.742279053">
<ele>493.312500</ele>
<time>2013-11-21T11:34:54Z</time>
<speed>5.280000</speed>
<extensions>
<speed>5.3</speed>
<temp>0.00</temp>
<bpm>0</bpm>
<rpm>0.00</rpm>
</extensions>
</trkpt>
<trkpt lat="30.840904236" lon="34.742183685">
<ele>494.421875</ele>
<time>2013-11-21T11:34:59Z</time>
<speed>3.860000</speed>
<extensions>
<speed>3.9</speed>
<temp>0.00</temp>
<bpm>0</bpm>
<rpm>0.00</rpm>
</extensions>
</trkpt>
<trkpt lat="30.840717316" lon="34.742107391">
<ele>495.437500</ele>
<time>2013-11-21T11:35:04Z</time>
<speed>4.710000</speed>
<extensions>
<speed>4.7</speed>
<temp>0.00</temp>
<bpm>0</bpm>
<rpm>0.00</rpm>
</extensions>
</trkpt>
<trkpt lat="30.840515137" lon="34.742012024">
<ele>496.648438</ele>
<time>2013-11-21T11:35:09Z</time>
<speed>4.010000</speed>
<extensions>
<speed>4.0</speed>
<temp>0.00</temp>
<bpm>0</bpm>
<rpm>0.00</rpm>
</extensions>
</trkpt>
<trkpt lat="30.840383530" lon="34.741943359">
<ele>497.968750</ele>
<time>2013-11-21T11:35:14Z</time>
<speed>4.030000</speed>
<extensions>
<speed>4.0</speed>
<temp>0.00</temp>
<bpm>0</bpm>
<rpm>0.00</rpm>
</extensions>
</trkpt>
<trkpt lat="30.840190887" lon="34.741863251">
<ele>501.023438</ele>
<time>2013-11-21T11:35:19Z</time>
<speed>4.220000</speed>
<extensions>
<speed>4.2</speed>
<temp>0.00</temp>
<bpm>0</bpm>
<rpm>0.00</rpm>
</extensions>
</trkpt>
<trkpt lat="30.840013504" lon="34.741790771">
<ele>500.953125</ele>
<time>2013-11-21T11:35:24Z</time>
<speed>4.160000</speed>
<extensions>
<speed>4.2</speed>
<temp>0.00</temp>
<bpm>0</bpm>
<rpm>0.00</rpm>
</extensions>
</trkpt>
<trkpt lat="30.839841843" lon="34.741718292">
<ele>501.218750</ele>
<time>2013-11-21T11:35:29Z</time>
<speed>4.380000</speed>
<extensions>
<speed>4.4</speed>
<temp>0.00</temp>
<bpm>0</bpm>
<rpm>0.00</rpm>
</extensions>
</trkpt>
<trkpt lat="30.839633942" lon="34.741619110">
<ele>501.156250</ele>
<time>2013-11-21T11:35:34Z</time>
<speed>4.010000</speed>
<extensions>
<speed>4.0</speed>
<temp>0.00</temp>
<bpm>0</bpm>
<rpm>0.00</rpm>
</extensions>
</trkpt>
<trkpt lat="30.839464188" lon="34.741531372">
<ele>502.468750</ele>
<time>2013-11-21T11:35:39Z</time>
<speed>4.540000</speed>
<extensions>
<speed>4.5</speed>
<temp>0.00</temp>
<bpm>0</bpm>
<rpm>0.00</rpm>
</extensions>
</trkpt>
<trkpt lat="30.839260101" lon="34.741455078">
<ele>503.585938</ele>
<time>2013-11-21T11:35:44Z</time>
<speed>4.230000</speed>
<extensions>
<speed>4.2</speed>
<temp>0.00</temp>
<bpm>0</bpm>
<rpm>0.00</rpm>
</extensions>
</trkpt>
<trkpt lat="30.839099884" lon="34.741382599">
<ele>504.125000</ele>
<time>2013-11-21T11:35:49Z</time>
<speed>3.530000</speed>
<extensions>
<speed>3.5</speed>
<temp>0.00</temp>
<bpm>0</bpm>
<rpm>0.00</rpm>
</extensions>
</trkpt>
<trkpt lat="30.838939667" lon="34.741306305">
<ele>504.523438</ele>
<time>2013-11-21T11:35:54Z</time>
<speed>4.250000</speed>
<extensions>
<speed>4.3</speed>
<temp>0.00</temp>
<bpm>0</bpm>
<rpm>0.00</rpm>
</extensions>
</trkpt>
<trkpt lat="30.838741302" lon="34.741237640">
<ele>503.187500</ele>
<time>2013-11-21T11:35:59Z</time>
<speed>4.710000</speed>
<extensions>
<speed>4.7</speed>
<temp>0.00</temp>
<bpm>0</bpm>
<rpm>0.00</rpm>
</extensions>
</trkpt>
<trkpt lat="30.838544846" lon="34.741153717">
<ele>504.773438</ele>
<time>2013-11-21T11:36:04Z</time>
<speed>5.220000</speed>
<extensions>
<speed>5.2</speed>
<temp>0.00</temp>
<bpm>0</bpm>
<rpm>0.00</rpm>
</extensions>
</trkpt>
<trkpt lat="30.838327408" lon="34.741058350">
<ele>507.000000</ele>
<time>2013-11-21T11:36:09Z</time>
<speed>4.950000</speed>
<extensions>
<speed>4.9</speed>
<temp>0.00</temp>
<bpm>0</bpm>
<rpm>0.00</rpm>
</extensions>
</trkpt>
<trkpt lat="30.838109970" lon="34.740962982">
<ele>508.093750</ele>
<time>2013-11-21T11:36:14Z</time>
<speed>5.160000</speed>
<extensions>
<speed>5.2</speed>
<temp>0.00</temp>
<bpm>0</bpm>
<rpm>0.00</rpm>
</extensions>
</trkpt>
<trkpt lat="30.837905884" lon="34.740863800">
<ele>506.890625</ele>
<time>2013-11-21T11:36:19Z</time>
<speed>4.960000</speed>
<extensions>
<speed>5.0</speed>
<temp>0.00</temp>
<bpm>0</bpm>
<rpm>0.00</rpm>
</extensions>
</trkpt>
<trkpt lat="30.837703705" lon="34.740772247">
<ele>507.171875</ele>
<time>2013-11-21T11:36:24Z</time>
<speed>5.360000</speed>
<extensions>
<speed>5.4</speed>
<temp>0.00</temp>
<bpm>0</bpm>
<rpm>0.00</rpm>
</extensions>
</trkpt>
<trkpt lat="30.837467194" lon="34.740665436">
<ele>505.265625</ele>
<time>2013-11-21T11:36:29Z</time>
<speed>5.510000</speed>
<extensions>
<speed>5.5</speed>
<temp>0.00</temp>
<bpm>0</bpm>
<rpm>0.00</rpm>
</extensions>
</trkpt>
<trkpt lat="30.837232590" lon="34.740550995">
<ele>504.132813</ele>
<time>2013-11-21T11:36:34Z</time>
<speed>4.460000</speed>
<extensions>
<speed>4.5</speed>
<temp>0.00</temp>
<bpm>0</bpm>
<rpm>0.00</rpm>
</extensions>
</trkpt>
<trkpt lat="30.837066650" lon="34.740467072">
<ele>507.328125</ele>
<time>2013-11-21T11:36:39Z</time>
<speed>4.340000</speed>
<extensions>
<speed>4.3</speed>
<temp>0.00</temp>
<bpm>0</bpm>
<rpm>0.00</rpm>
</extensions>
</trkpt>
<trkpt lat="30.836862564" lon="34.740394592">
<ele>510.195313</ele>
<time>2013-11-21T11:36:44Z</time>
<speed>4.720000</speed>
<extensions>
<speed>4.7</speed>
<temp>0.00</temp>
<bpm>0</bpm>
<rpm>0.00</rpm>
</extensions>
</trkpt>
<trkpt lat="30.836652756" lon="34.740303040">
<ele>510.554688</ele>
<time>2013-11-21T11:36:49Z</time>
<speed>5.030000</speed>
<extensions>
<speed>5.0</speed>
<temp>0.00</temp>
<bpm>0</bpm>
<rpm>0.00</rpm>
</extensions>
</trkpt>
<trkpt lat="30.836427689" lon="34.740192413">
<ele>509.078125</ele>
<time>2013-11-21T11:36:54Z</time>
<speed>5.450000</speed>
<extensions>
<speed>5.5</speed>
<temp>0.00</temp>
<bpm>0</bpm>
<rpm>0.00</rpm>
</extensions>
</trkpt>
<trkpt lat="30.836214066" lon="34.740085602">
<ele>507.242188</ele>
<time>2013-11-21T11:36:59Z</time>
<speed>5.610000</speed>
<extensions>
<speed>5.6</speed>
<temp>0.00</temp>
<bpm>0</bpm>
<rpm>0.00</rpm>
</extensions>
</trkpt>
<trkpt lat="30.835987091" lon="34.739982605">
<ele>506.601563</ele>
<time>2013-11-21T11:37:04Z</time>
<speed>5.000000</speed>
<extensions>
<speed>5.0</speed>
<temp>0.00</temp>
<bpm>0</bpm>
<rpm>0.00</rpm>
</extensions>
</trkpt>
<trkpt lat="30.835783005" lon="34.739879608">
<ele>507.671875</ele>
<time>2013-11-21T11:37:09Z</time>
<speed>4.950000</speed>
<extensions>
<speed>4.9</speed>
<temp>0.00</temp>
<bpm>0</bpm>
<rpm>0.00</rpm>
</extensions>
</trkpt>
<trkpt lat="30.835567474" lon="34.739776611">
<ele>506.679688</ele>
<time>2013-11-21T11:37:14Z</time>
<speed>5.260000</speed>
<extensions>
<speed>5.3</speed>
<temp>0.00</temp>
<bpm>0</bpm>
<rpm>0.00</rpm>
</extensions>
</trkpt>
<trkpt lat="30.835363388" lon="34.739681244">
<ele>508.203125</ele>
<time>2013-11-21T11:37:19Z</time>
<speed>4.260000</speed>
<extensions>
<speed>4.3</speed>
<temp>0.00</temp>
<bpm>0</bpm>
<rpm>0.00</rpm>
</extensions>
</trkpt>
<trkpt lat="30.835189819" lon="34.739604950">
<ele>506.765625</ele>
<time>2013-11-21T11:37:24Z</time>
<speed>4.380000</speed>
<extensions>
<speed>4.4</speed>
<temp>0.00</temp>
<bpm>0</bpm>
<rpm>0.00</rpm>
</extensions>
</trkpt>
<trkpt lat="30.834983826" lon="34.739505768">
<ele>508.273438</ele>
<time>2013-11-21T11:37:29Z</time>
<speed>4.550000</speed>
<extensions>
<speed>4.5</speed>
<temp>0.00</temp>
<bpm>0</bpm>
<rpm>0.00</rpm>
</extensions>
</trkpt>
<trkpt lat="30.834806442" lon="34.739421844">
<ele>508.359375</ele>
<time>2013-11-21T11:37:34Z</time>
<speed>3.290000</speed>
<extensions>
<speed>3.3</speed>
<temp>0.00</temp>
<bpm>0</bpm>
<rpm>0.00</rpm>
</extensions>
</trkpt>
<trkpt lat="30.834655762" lon="34.739349365">
<ele>508.007813</ele>
<time>2013-11-21T11:37:39Z</time>
<speed>3.020000</speed>
<extensions>
<speed>3.0</speed>
<temp>0.00</temp>
<bpm>0</bpm>
<rpm>0.00</rpm>
</extensions>
</trkpt>
<trkpt lat="30.834562302" lon="34.739322662">
<ele>507.921875</ele>
<time>2013-11-21T11:37:44Z</time>
<speed>1.860000</speed>
<extensions>
<speed>1.9</speed>
<temp>0.00</temp>
<bpm>0</bpm>
<rpm>0.00</rpm>
</extensions>
</trkpt>
<trkpt lat="30.834497452" lon="34.739284515">
<ele>506.835938</ele>
<time>2013-11-21T11:37:49Z</time>
<speed>2.010000</speed>
<extensions>
<speed>2.0</speed>
<temp>0.00</temp>
<bpm>0</bpm>
<rpm>0.00</rpm>
</extensions>
</trkpt>
<trkpt lat="30.834390640" lon="34.739231110">
<ele>507.890625</ele>
<time>2013-11-21T11:37:54Z</time>
<speed>2.790000</speed>
<extensions>
<speed>2.8</speed>
<temp>0.00</temp>
<bpm>0</bpm>
<rpm>0.00</rpm>
</extensions>
</trkpt>
<trkpt lat="30.834264755" lon="34.739196777">
<ele>507.414063</ele>
<time>2013-11-21T11:37:59Z</time>
<speed>2.800000</speed>
<extensions>
<speed>2.8</speed>
<temp>0.00</temp>
<bpm>0</bpm>
<rpm>0.00</rpm>
</extensions>
</trkpt>
<trkpt lat="30.834135056" lon="34.739147186">
<ele>508.757813</ele>
<time>2013-11-21T11:38:04Z</time>
<speed>3.670000</speed>
<extensions>
<speed>3.7</speed>
<temp>0.00</temp>
<bpm>0</bpm>
<rpm>0.00</rpm>
</extensions>
</trkpt>
<trkpt lat="30.834007263" lon="34.739101410">
<ele>510.023438</ele>
<time>2013-11-21T11:38:09Z</time>
<speed>2.680000</speed>
<extensions>
<speed>2.7</speed>
<temp>0.00</temp>
<bpm>0</bpm>
<rpm>0.00</rpm>
</extensions>
</trkpt>
<trkpt lat="30.833927155" lon="34.739063263">
<ele>511.000000</ele>
<time>2013-11-21T11:38:14Z</time>
<speed>1.710000</speed>
<extensions>
<speed>1.7</speed>
<temp>0.00</temp>
<bpm>0</bpm>
<rpm>0.00</rpm>
</extensions>
</trkpt>
<trkpt lat="30.833808899" lon="34.739040375">
<ele>511.234375</ele>
<time>2013-11-21T11:38:19Z</time>
<speed>2.980000</speed>
<extensions>
<speed>3.0</speed>
<temp>0.00</temp>
<bpm>0</bpm>
<rpm>0.00</rpm>
</extensions>
</trkpt>
<trkpt lat="30.833644867" lon="34.738998413">
<ele>512.609375</ele>
<time>2013-11-21T11:38:24Z</time>
<speed>3.590000</speed>
<extensions>
<speed>3.6</speed>
<temp>0.00</temp>
<bpm>0</bpm>
<rpm>0.00</rpm>
</extensions>
</trkpt>
<trkpt lat="30.833488464" lon="34.738956451">
<ele>513.875000</ele>
<time>2013-11-21T11:38:29Z</time>
<speed>3.200000</speed>
<extensions>
<speed>3.2</speed>
<temp>0.00</temp>
<bpm>0</bpm>
<rpm>0.00</rpm>
</extensions>
</trkpt>
<trkpt lat="30.833318710" lon="34.738925934">
<ele>516.296875</ele>
<time>2013-11-21T11:38:34Z</time>
<speed>3.650000</speed>
<extensions>
<speed>3.7</speed>
<temp>0.00</temp>
<bpm>0</bpm>
<rpm>0.00</rpm>
</extensions>
</trkpt>
<trkpt lat="30.833169937" lon="34.738906860">
<ele>516.187500</ele>
<time>2013-11-21T11:38:39Z</time>
<speed>3.200000</speed>
<extensions>
<speed>3.2</speed>
<temp>0.00</temp>
<bpm>0</bpm>
<rpm>0.00</rpm>
</extensions>
</trkpt>
<trkpt lat="30.833072662" lon="34.738899231">
<ele>516.625000</ele>
<time>2013-11-21T11:38:44Z</time>
<speed>0.860000</speed>
<extensions>
<speed>0.9</speed>
<temp>0.00</temp>
<bpm>0</bpm>
<rpm>0.00</rpm>
</extensions>
</trkpt>
<trkpt lat="30.833021164" lon="34.738903046">
<ele>517.453125</ele>
<time>2013-11-21T11:38:49Z</time>
<speed>1.320000</speed>
<extensions>
<speed>1.3</speed>
<temp>0.00</temp>
<bpm>0</bpm>
<rpm>0.00</rpm>
</extensions>
</trkpt>
<trkpt lat="30.832883835" lon="34.738914490">
<ele>518.140625</ele>
<time>2013-11-21T11:38:54Z</time>
<speed>3.360000</speed>
<extensions>
<speed>3.4</speed>
<temp>0.00</temp>
<bpm>0</bpm>
<rpm>0.00</rpm>
</extensions>
</trkpt>
<trkpt lat="30.832721710" lon="34.738922119">
<ele>519.328125</ele>
<time>2013-11-21T11:38:59Z</time>
<speed>2.640000</speed>
<extensions>
<speed>2.6</speed>
<temp>0.00</temp>
<bpm>0</bpm>
<rpm>0.00</rpm>
</extensions>
</trkpt>
<trkpt lat="30.832593918" lon="34.738937378">
<ele>520.125000</ele>
<time>2013-11-21T11:39:04Z</time>
<speed>3.370000</speed>
<extensions>
<speed>3.4</speed>
<temp>0.00</temp>
<bpm>0</bpm>
<rpm>0.00</rpm>
</extensions>
</trkpt>
<trkpt lat="30.832462311" lon="34.738971710">
<ele>519.234375</ele>
<time>2013-11-21T11:39:09Z</time>
<speed>2.690000</speed>
<extensions>
<speed>2.7</speed>
<temp>0.00</temp>
<bpm>0</bpm>
<rpm>0.00</rpm>
</extensions>
</trkpt>
<trkpt lat="30.832359314" lon="34.738986969">
<ele>518.109375</ele>
<time>2013-11-21T11:39:14Z</time>
<speed>2.690000</speed>
<extensions>
<speed>2.7</speed>
<temp>0.00</temp>
<bpm>0</bpm>
<rpm>0.00</rpm>
</extensions>
</trkpt>
<trkpt lat="30.832241058" lon="34.739032745">
<ele>516.968750</ele>
<time>2013-11-21T11:39:19Z</time>
<speed>2.640000</speed>
<extensions>
<speed>2.6</speed>
<temp>0.00</temp>
<bpm>0</bpm>
<rpm>0.00</rpm>
</extensions>
</trkpt>
<trkpt lat="30.832141876" lon="34.739074707">
<ele>517.875000</ele>
<time>2013-11-21T11:39:24Z</time>
<speed>2.640000</speed>
<extensions>
<speed>2.6</speed>
<temp>0.00</temp>
<bpm>0</bpm>
<rpm>0.00</rpm>
</extensions>
</trkpt>
<trkpt lat="30.832038879" lon="34.739109039">
<ele>516.531250</ele>
<time>2013-11-21T11:39:29Z</time>
<speed>2.500000</speed>
<extensions>
<speed>2.5</speed>
<temp>0.00</temp>
<bpm>0</bpm>
<rpm>0.00</rpm>
</extensions>
</trkpt>
<trkpt lat="30.831928253" lon="34.739177704">
<ele>517.109375</ele>
<time>2013-11-21T11:39:34Z</time>
<speed>2.630000</speed>
<extensions>
<speed>2.6</speed>
<temp>0.00</temp>
<bpm>0</bpm>
<rpm>0.00</rpm>
</extensions>
</trkpt>
<trkpt lat="30.831796646" lon="34.739242554">
<ele>519.062500</ele>
<time>2013-11-21T11:39:39Z</time>
<speed>2.740000</speed>
<extensions>
<speed>2.7</speed>
<temp>0.00</temp>
<bpm>0</bpm>
<rpm>0.00</rpm>
</extensions>
</trkpt>
<trkpt lat="30.831687927" lon="34.739299774">
<ele>519.109375</ele>
<time>2013-11-21T11:39:44Z</time>
<speed>2.320000</speed>
<extensions>
<speed>2.3</speed>
<temp>0.00</temp>
<bpm>0</bpm>
<rpm>0.00</rpm>
</extensions>
</trkpt>
<trkpt lat="30.831600189" lon="34.739372253">
<ele>519.281250</ele>
<time>2013-11-21T11:39:49Z</time>
<speed>3.430000</speed>
<extensions>
<speed>3.4</speed>
<temp>0.00</temp>
<bpm>0</bpm>
<rpm>0.00</rpm>
</extensions>
</trkpt>
<trkpt lat="30.831497192" lon="34.739456177">
<ele>522.000000</ele>
<time>2013-11-21T11:39:54Z</time>
<speed>2.860000</speed>
<extensions>
<speed>2.9</speed>
<temp>0.00</temp>
<bpm>0</bpm>
<rpm>0.00</rpm>
</extensions>
</trkpt>
<trkpt lat="30.831396103" lon="34.739536285">
<ele>521.890625</ele>
<time>2013-11-21T11:39:59Z</time>
<speed>2.370000</speed>
<extensions>
<speed>2.4</speed>
<temp>0.00</temp>
<bpm>0</bpm>
<rpm>0.00</rpm>
</extensions>
</trkpt>
<trkpt lat="30.831346512" lon="34.739570618">
<ele>520.875000</ele>
<time>2013-11-21T11:40:04Z</time>
<speed>0.980000</speed>
<extensions>
<speed>1.0</speed>
<temp>0.00</temp>
<bpm>0</bpm>
<rpm>0.00</rpm>
</extensions>
</trkpt>
<trkpt lat="30.831264496" lon="34.739620209">
<ele>519.359375</ele>
<time>2013-11-21T11:40:09Z</time>
<speed>2.410000</speed>
<extensions>
<speed>2.4</speed>
<temp>0.00</temp>
<bpm>0</bpm>
<rpm>0.00</rpm>
</extensions>
</trkpt>
<trkpt lat="30.831171036" lon="34.739707947">
<ele>519.281250</ele>
<time>2013-11-21T11:40:14Z</time>
<speed>2.510000</speed>
<extensions>
<speed>2.5</speed>
<temp>0.00</temp>
<bpm>0</bpm>
<rpm>0.00</rpm>
</extensions>
</trkpt>
<trkpt lat="30.831096649" lon="34.739765167">
<ele>519.125000</ele>
<time>2013-11-21T11:40:19Z</time>
<speed>2.110000</speed>
<extensions>
<speed>2.1</speed>
<temp>0.00</temp>
<bpm>0</bpm>
<rpm>0.00</rpm>
</extensions>
</trkpt>
<trkpt lat="30.831008911" lon="34.739837646">
<ele>519.078125</ele>
<time>2013-11-21T11:40:24Z</time>
<speed>2.430000</speed>
<extensions>
<speed>2.4</speed>
<temp>0.00</temp>
<bpm>0</bpm>
<rpm>0.00</rpm>
</extensions>
</trkpt>
<trkpt lat="30.830896378" lon="34.739921570">
<ele>521.390625</ele>
<time>2013-11-21T11:40:29Z</time>
<speed>2.800000</speed>
<extensions>
<speed>2.8</speed>
<temp>0.00</temp>
<bpm>0</bpm>
<rpm>0.00</rpm>
</extensions>
</trkpt>
<trkpt lat="30.830818176" lon="34.739986420">
<ele>522.562500</ele>
<time>2013-11-21T11:40:34Z</time>
<speed>2.030000</speed>
<extensions>
<speed>2.0</speed>
<temp>0.00</temp>
<bpm>0</bpm>
<rpm>0.00</rpm>
</extensions>
</trkpt>
<trkpt lat="30.830783844" lon="34.740043640">
<ele>521.421875</ele>
<time>2013-11-21T11:40:39Z</time>
<speed>1.560000</speed>
<extensions>
<speed>1.6</speed>
<temp>0.00</temp>
<bpm>0</bpm>
<rpm>0.00</rpm>
</extensions>
</trkpt>
<trkpt lat="30.830698013" lon="34.740135193">
<ele>520.343750</ele>
<time>2013-11-21T11:40:44Z</time>
<speed>2.740000</speed>
<extensions>
<speed>2.7</speed>
<temp>0.00</temp>
<bpm>0</bpm>
<rpm>0.00</rpm>
</extensions>
</trkpt>
<trkpt lat="30.830615997" lon="34.740219116">
<ele>518.890625</ele>
<time>2013-11-21T11:40:49Z</time>
<speed>2.110000</speed>
<extensions>
<speed>2.1</speed>
<temp>0.00</temp>
<bpm>0</bpm>
<rpm>0.00</rpm>
</extensions>
</trkpt>
<trkpt lat="30.830549240" lon="34.740295410">
<ele>517.875000</ele>
<time>2013-11-21T11:40:54Z</time>
<speed>1.750000</speed>
<extensions>
<speed>1.8</speed>
<temp>0.00</temp>
<bpm>0</bpm>
<rpm>0.00</rpm>
</extensions>
</trkpt>
<trkpt lat="30.830457687" lon="34.740383148">
<ele>514.921875</ele>
<time>2013-11-21T11:40:59Z</time>
<speed>2.580000</speed>
<extensions>
<speed>2.6</speed>
<temp>0.00</temp>
<bpm>0</bpm>
<rpm>0.00</rpm>
</extensions>
</trkpt>
<trkpt lat="30.830368042" lon="34.740467072">
<ele>514.000000</ele>
<time>2013-11-21T11:41:04Z</time>
<speed>1.760000</speed>
<extensions>
<speed>1.8</speed>
<temp>0.00</temp>
<bpm>0</bpm>
<rpm>0.00</rpm>
</extensions>
</trkpt>
<trkpt lat="30.830343246" lon="34.740509033">
<ele>516.140625</ele>
<time>2013-11-21T11:41:09Z</time>
<speed>0.470000</speed>
<extensions>
<speed>0.5</speed>
<temp>0.00</temp>
<bpm>0</bpm>
<rpm>0.00</rpm>
</extensions>
</trkpt>
<trkpt lat="30.830297470" lon="34.740570068">
<ele>515.953125</ele>
<time>2013-11-21T11:41:14Z</time>
<speed>1.570000</speed>
<extensions>
<speed>1.6</speed>
<temp>0.00</temp>
<bpm>0</bpm>
<rpm>0.00</rpm>
</extensions>
</trkpt>
<trkpt lat="30.830244064" lon="34.740684509">
<ele>516.375000</ele>
<time>2013-11-21T11:41:19Z</time>
<speed>1.960000</speed>
<extensions>
<speed>2.0</speed>
<temp>0.00</temp>
<bpm>0</bpm>
<rpm>0.00</rpm>
</extensions>
</trkpt>
<trkpt lat="30.830171585" lon="34.740760803">
<ele>515.875000</ele>
<time>2013-11-21T11:41:24Z</time>
<speed>1.730000</speed>
<extensions>
<speed>1.7</speed>
<temp>0.00</temp>
<bpm>0</bpm>
<rpm>0.00</rpm>
</extensions>
</trkpt>
<trkpt lat="30.830106735" lon="34.740829468">
<ele>515.093750</ele>
<time>2013-11-21T11:41:29Z</time>
<speed>1.310000</speed>
<extensions>
<speed>1.3</speed>
<temp>0.00</temp>
<bpm>0</bpm>
<rpm>0.00</rpm>
</extensions>
</trkpt>
<trkpt lat="30.830060959" lon="34.740913391">
<ele>513.875000</ele>
<time>2013-11-21T11:41:34Z</time>
<speed>1.570000</speed>
<extensions>
<speed>1.6</speed>
<temp>0.00</temp>
<bpm>0</bpm>
<rpm>0.00</rpm>
</extensions>
</trkpt>
<trkpt lat="30.830011368" lon="34.741008759">
<ele>513.671875</ele>
<time>2013-11-21T11:41:39Z</time>
<speed>0.730000</speed>
<extensions>
<speed>0.7</speed>
<temp>0.00</temp>
<bpm>0</bpm>
<rpm>0.00</rpm>
</extensions>
</trkpt>
<trkpt lat="30.829969406" lon="34.741096497">
<ele>512.796875</ele>
<time>2013-11-21T11:41:44Z</time>
<speed>1.940000</speed>
<extensions>
<speed>1.9</speed>
<temp>0.00</temp>
<bpm>0</bpm>
<rpm>0.00</rpm>
</extensions>
</trkpt>
<trkpt lat="30.829921722" lon="34.741188049">
<ele>512.703125</ele>
<time>2013-11-21T11:41:49Z</time>
<speed>1.390000</speed>
<extensions>
<speed>1.4</speed>
<temp>0.00</temp>
<bpm>0</bpm>
<rpm>0.00</rpm>
</extensions>
</trkpt>
<trkpt lat="30.829885483" lon="34.741275787">
<ele>512.281250</ele>
<time>2013-11-21T11:41:54Z</time>
<speed>1.520000</speed>
<extensions>
<speed>1.5</speed>
<temp>0.00</temp>
<bpm>0</bpm>
<rpm>0.00</rpm>
</extensions>
</trkpt>
<trkpt lat="30.829845428" lon="34.741355896">
<ele>513.343750</ele>
<time>2013-11-21T11:41:59Z</time>
<speed>1.710000</speed>
<extensions>
<speed>1.7</speed>
<temp>0.00</temp>
<bpm>0</bpm>
<rpm>0.00</rpm>
</extensions>
</trkpt>
<trkpt lat="30.829805374" lon="34.741466522">
<ele>514.953125</ele>
<time>2013-11-21T11:42:04Z</time>
<speed>2.180000</speed>
<extensions>
<speed>2.2</speed>
<temp>0.00</temp>
<bpm>0</bpm>
<rpm>0.00</rpm>
</extensions>
</trkpt>
<trkpt lat="30.829753876" lon="34.741565704">
<ele>516.265625</ele>
<time>2013-11-21T11:42:09Z</time>
<speed>2.120000</speed>
<extensions>
<speed>2.1</speed>
<temp>0.00</temp>
<bpm>0</bpm>
<rpm>0.00</rpm>
</extensions>
</trkpt>
<trkpt lat="30.829719543" lon="34.741725922">
<ele>518.750000</ele>
<time>2013-11-21T11:42:14Z</time>
<speed>2.500000</speed>
<extensions>
<speed>2.5</speed>
<temp>0.00</temp>
<bpm>0</bpm>
<rpm>0.00</rpm>
</extensions>
</trkpt>
<trkpt lat="30.829692841" lon="34.741802216">
<ele>522.203125</ele>
<time>2013-11-21T11:42:19Z</time>
<speed>1.690000</speed>
<extensions>
<speed>1.7</speed>
<temp>0.00</temp>
<bpm>0</bpm>
<rpm>0.00</rpm>
</extensions>
</trkpt>
<trkpt lat="30.829624176" lon="34.741947174">
<ele>524.671875</ele>
<time>2013-11-21T11:42:24Z</time>
<speed>2.720000</speed>
<extensions>
<speed>2.7</speed>
<temp>0.00</temp>
<bpm>0</bpm>
<rpm>0.00</rpm>
</extensions>
</trkpt>
<trkpt lat="30.829576492" lon="34.742084503">
<ele>526.468750</ele>
<time>2013-11-21T11:42:29Z</time>
<speed>2.880000</speed>
<extensions>
<speed>2.9</speed>
<temp>0.00</temp>
<bpm>0</bpm>
<rpm>0.00</rpm>
</extensions>
</trkpt>
<trkpt lat="30.829517365" lon="34.742218018">
<ele>528.984375</ele>
<time>2013-11-21T11:42:34Z</time>
<speed>2.010000</speed>
<extensions>
<speed>2.0</speed>
<temp>0.00</temp>
<bpm>0</bpm>
<rpm>0.00</rpm>
</extensions>
</trkpt>
<trkpt lat="30.829473495" lon="34.742324829">
<ele>530.750000</ele>
<time>2013-11-21T11:42:39Z</time>
<speed>2.210000</speed>
<extensions>
<speed>2.2</speed>
<temp>0.00</temp>
<bpm>0</bpm>
<rpm>0.00</rpm>
</extensions>
</trkpt>
<trkpt lat="30.829412460" lon="34.742450714">
<ele>531.250000</ele>
<time>2013-11-21T11:42:44Z</time>
<speed>2.720000</speed>
<extensions>
<speed>2.7</speed>
<temp>0.00</temp>
<bpm>0</bpm>
<rpm>0.00</rpm>
</extensions>
</trkpt>
<trkpt lat="30.829370499" lon="34.742557526">
<ele>529.562500</ele>
<time>2013-11-21T11:42:49Z</time>
<speed>2.310000</speed>
<extensions>
<speed>2.3</speed>
<temp>0.00</temp>
<bpm>0</bpm>
<rpm>0.00</rpm>
</extensions>
</trkpt>
<trkpt lat="30.829326630" lon="34.742679596">
<ele>527.750000</ele>
<time>2013-11-21T11:42:54Z</time>
<speed>1.840000</speed>
<extensions>
<speed>1.8</speed>
<temp>0.00</temp>
<bpm>0</bpm>
<rpm>0.00</rpm>
</extensions>
</trkpt>
<trkpt lat="30.829290390" lon="34.742782593">
<ele>527.906250</ele>
<time>2013-11-21T11:42:59Z</time>
<speed>2.360000</speed>
<extensions>
<speed>2.4</speed>
<temp>0.00</temp>
<bpm>0</bpm>
<rpm>0.00</rpm>
</extensions>
</trkpt>
<trkpt lat="30.829225540" lon="34.742942810">
<ele>529.093750</ele>
<time>2013-11-21T11:43:04Z</time>
<speed>2.590000</speed>
<extensions>
<speed>2.6</speed>
<temp>0.00</temp>
<bpm>0</bpm>
<rpm>0.00</rpm>
</extensions>
</trkpt>
<trkpt lat="30.829164505" lon="34.743083954">
<ele>530.234375</ele>
<time>2013-11-21T11:43:09Z</time>
<speed>2.690000</speed>
<extensions>
<speed>2.7</speed>
<temp>0.00</temp>
<bpm>0</bpm>
<rpm>0.00</rpm>
</extensions>
</trkpt>
<trkpt lat="30.829116821" lon="34.743244171">
<ele>530.921875</ele>
<time>2013-11-21T11:43:14Z</time>
<speed>3.110000</speed>
<extensions>
<speed>3.1</speed>
<temp>0.00</temp>
<bpm>0</bpm>
<rpm>0.00</rpm>
</extensions>
</trkpt>
<trkpt lat="30.829042435" lon="34.743450165">
<ele>532.843750</ele>
<time>2013-11-21T11:43:19Z</time>
<speed>3.490000</speed>
<extensions>
<speed>3.5</speed>
<temp>0.00</temp>
<bpm>0</bpm>
<rpm>0.00</rpm>
</extensions>
</trkpt>
<trkpt lat="30.828969955" lon="34.743618011">
<ele>535.843750</ele>
<time>2013-11-21T11:43:24Z</time>
<speed>3.100000</speed>
<extensions>
<speed>3.1</speed>
<temp>0.00</temp>
<bpm>0</bpm>
<rpm>0.00</rpm>
</extensions>
</trkpt>
<trkpt lat="30.828910828" lon="34.743728638">
<ele>538.390625</ele>
<time>2013-11-21T11:43:29Z</time>
<speed>1.330000</speed>
<extensions>
<speed>1.3</speed>
<temp>0.00</temp>
<bpm>0</bpm>
<rpm>0.00</rpm>
</extensions>
</trkpt>
<trkpt lat="30.828884125" lon="34.743785858">
<ele>539.468750</ele>
<time>2013-11-21T11:43:34Z</time>
<speed>1.430000</speed>
<extensions>
<speed>1.4</speed>
<temp>0.00</temp>
<bpm>0</bpm>
<rpm>0.00</rpm>
</extensions>
</trkpt>
<trkpt lat="30.828889847" lon="34.743854523">
<ele>539.218750</ele>
<time>2013-11-21T11:43:39Z</time>
<speed>1.080000</speed>
<extensions>
<speed>1.1</speed>
<temp>0.00</temp>
<bpm>0</bpm>
<rpm>0.00</rpm>
</extensions>
</trkpt>
<trkpt lat="30.828845978" lon="34.743949890">
<ele>539.828125</ele>
<time>2013-11-21T11:43:44Z</time>
<speed>2.030000</speed>
<extensions>
<speed>2.0</speed>
<temp>0.00</temp>
<bpm>0</bpm>
<rpm>0.00</rpm>
</extensions>
</trkpt>
<trkpt lat="30.828798294" lon="34.744022369">
<ele>540.484375</ele>
<time>2013-11-21T11:43:49Z</time>
<speed>1.550000</speed>
<extensions>
<speed>1.5</speed>
<temp>0.00</temp>
<bpm>0</bpm>
<rpm>0.00</rpm>
</extensions>
</trkpt>
<trkpt lat="30.828809738" lon="34.744083405">
<ele>541.703125</ele>
<time>2013-11-21T11:43:54Z</time>
<speed>1.560000</speed>
<extensions>
<speed>1.6</speed>
<temp>0.00</temp>
<bpm>0</bpm>
<rpm>0.00</rpm>
</extensions>
</trkpt>
<trkpt lat="30.828763962" lon="34.744159698">
<ele>541.687500</ele>
<time>2013-11-21T11:43:59Z</time>
<speed>2.170000</speed>
<extensions>
<speed>2.2</speed>
<temp>0.00</temp>
<bpm>0</bpm>
<rpm>0.00</rpm>
</extensions>
</trkpt>
<trkpt lat="30.828706741" lon="34.744262695">
<ele>541.390625</ele>
<time>2013-11-21T11:44:04Z</time>
<speed>2.700000</speed>
<extensions>
<speed>2.7</speed>
<temp>0.00</temp>
<bpm>0</bpm>
<rpm>0.00</rpm>
</extensions>
</trkpt>
<trkpt lat="30.828643799" lon="34.744430542">
<ele>541.531250</ele>
<time>2013-11-21T11:44:09Z</time>
<speed>3.330000</speed>
<extensions>
<speed>3.3</speed>
<temp>0.00</temp>
<bpm>0</bpm>
<rpm>0.00</rpm>
</extensions>
</trkpt>
<trkpt lat="30.828590393" lon="34.744594574">
<ele>541.296875</ele>
<time>2013-11-21T11:44:14Z</time>
<speed>3.140000</speed>
<extensions>
<speed>3.1</speed>
<temp>0.00</temp>
<bpm>0</bpm>
<rpm>0.00</rpm>
</extensions>
</trkpt>
<trkpt lat="30.828571320" lon="34.744678497">
<ele>542.781250</ele>
<time>2013-11-21T11:44:19Z</time>
<speed>0.340000</speed>
<extensions>
<speed>0.3</speed>
<temp>0.00</temp>
<bpm>0</bpm>
<rpm>0.00</rpm>
</extensions>
</trkpt>
<trkpt lat="30.828575134" lon="34.744670868">
<ele>542.843750</ele>
<time>2013-11-21T11:44:24Z</time>
<speed>0.130000</speed>
<extensions>
<speed>0.1</speed>
<temp>0.00</temp>
<bpm>0</bpm>
<rpm>0.00</rpm>
</extensions>
</trkpt>
<trkpt lat="30.828578949" lon="34.744674683">
<ele>543.062500</ele>
<time>2013-11-21T11:44:29Z</time>
<speed>0.670000</speed>
<extensions>
<speed>0.7</speed>
<temp>0.00</temp>
<bpm>0</bpm>
<rpm>0.00</rpm>
</extensions>
</trkpt>
<trkpt lat="30.828548431" lon="34.744785309">
<ele>542.500000</ele>
<time>2013-11-21T11:44:34Z</time>
<speed>2.190000</speed>
<extensions>
<speed>2.2</speed>
<temp>0.00</temp>
<bpm>0</bpm>
<rpm>0.00</rpm>
</extensions>
</trkpt>
<trkpt lat="30.828500748" lon="34.744941711">
<ele>541.281250</ele>
<time>2013-11-21T11:44:39Z</time>
<speed>2.710000</speed>
<extensions>
<speed>2.7</speed>
<temp>0.00</temp>
<bpm>0</bpm>
<rpm>0.00</rpm>
</extensions>
</trkpt>
<trkpt lat="30.828441620" lon="34.745082855">
<ele>540.328125</ele>
<time>2013-11-21T11:44:44Z</time>
<speed>2.630000</speed>
<extensions>
<speed>2.6</speed>
<temp>0.00</temp>
<bpm>0</bpm>
<rpm>0.00</rpm>
</extensions>
</trkpt>
<trkpt lat="30.828390121" lon="34.745208740">
<ele>540.437500</ele>
<time>2013-11-21T11:44:49Z</time>
<speed>2.330000</speed>
<extensions>
<speed>2.3</speed>
<temp>0.00</temp>
<bpm>0</bpm>
<rpm>0.00</rpm>
</extensions>
</trkpt>
<trkpt lat="30.828325272" lon="34.745342255">
<ele>540.828125</ele>
<time>2013-11-21T11:44:54Z</time>
<speed>2.980000</speed>
<extensions>
<speed>3.0</speed>
<temp>0.00</temp>
<bpm>0</bpm>
<rpm>0.00</rpm>
</extensions>
</trkpt>
<trkpt lat="30.828258514" lon="34.745506287">
<ele>541.921875</ele>
<time>2013-11-21T11:44:59Z</time>
<speed>3.180000</speed>
<extensions>
<speed>3.2</speed>
<temp>0.00</temp>
<bpm>0</bpm>
<rpm>0.00</rpm>
</extensions>
</trkpt>
<trkpt lat="30.828176498" lon="34.745677948">
<ele>543.187500</ele>
<time>2013-11-21T11:45:04Z</time>
<speed>3.250000</speed>
<extensions>
<speed>3.2</speed>
<temp>0.00</temp>
<bpm>0</bpm>
<rpm>0.00</rpm>
</extensions>
</trkpt>
<trkpt lat="30.828100204" lon="34.745853424">
<ele>544.562500</ele>
<time>2013-11-21T11:45:09Z</time>
<speed>3.200000</speed>
<extensions>
<speed>3.2</speed>
<temp>0.00</temp>
<bpm>0</bpm>
<rpm>0.00</rpm>
</extensions>
</trkpt>
<trkpt lat="30.828014374" lon="34.745998383">
<ele>542.781250</ele>
<time>2013-11-21T11:45:14Z</time>
<speed>4.190000</speed>
<extensions>
<speed>4.2</speed>
<temp>0.00</temp>
<bpm>0</bpm>
<rpm>0.00</rpm>
</extensions>
</trkpt>
<trkpt lat="30.827920914" lon="34.746181488">
<ele>542.796875</ele>
<time>2013-11-21T11:45:19Z</time>
<speed>3.790000</speed>
<extensions>
<speed>3.8</speed>
<temp>0.00</temp>
<bpm>0</bpm>
<rpm>0.00</rpm>
</extensions>
</trkpt>
<trkpt lat="30.827823639" lon="34.746376038">
<ele>543.156250</ele>
<time>2013-11-21T11:45:24Z</time>
<speed>3.880000</speed>
<extensions>
<speed>3.9</speed>
<temp>0.00</temp>
<bpm>0</bpm>
<rpm>0.00</rpm>
</extensions>
</trkpt>
<trkpt lat="30.827718735" lon="34.746582031">
<ele>541.640625</ele>
<time>2013-11-21T11:45:29Z</time>
<speed>4.480000</speed>
<extensions>
<speed>4.5</speed>
<temp>0.00</temp>
<bpm>0</bpm>
<rpm>0.00</rpm>
</extensions>
</trkpt>
<trkpt lat="30.827594757" lon="34.746784210">
<ele>538.640625</ele>
<time>2013-11-21T11:45:34Z</time>
<speed>4.170000</speed>
<extensions>
<speed>4.2</speed>
<temp>0.00</temp>
<bpm>0</bpm>
<rpm>0.00</rpm>
</extensions>
</trkpt>
<trkpt lat="30.827457428" lon="34.747016907">
<ele>538.562500</ele>
<time>2013-11-21T11:45:39Z</time>
<speed>5.250000</speed>
<extensions>
<speed>5.2</speed>
<temp>0.00</temp>
<bpm>0</bpm>
<rpm>0.00</rpm>
</extensions>
</trkpt>
<trkpt lat="30.827302933" lon="34.747245789">
<ele>538.796875</ele>
<time>2013-11-21T11:45:44Z</time>
<speed>4.970000</speed>
<extensions>
<speed>5.0</speed>
<temp>0.00</temp>
<bpm>0</bpm>
<rpm>0.00</rpm>
</extensions>
</trkpt>
<trkpt lat="30.827182770" lon="34.747413635">
<ele>537.875000</ele>
<time>2013-11-21T11:45:49Z</time>
<speed>3.940000</speed>
<extensions>
<speed>3.9</speed>
<temp>0.00</temp>
<bpm>0</bpm>
<rpm>0.00</rpm>
</extensions>
</trkpt>
<trkpt lat="30.827081680" lon="34.747562408">
<ele>539.187500</ele>
<time>2013-11-21T11:45:54Z</time>
<speed>2.160000</speed>
<extensions>
<speed>2.2</speed>
<temp>0.00</temp>
<bpm>0</bpm>
<rpm>0.00</rpm>
</extensions>
</trkpt>
<trkpt lat="30.827022552" lon="34.747665405">
<ele>538.234375</ele>
<time>2013-11-21T11:45:59Z</time>
<speed>2.180000</speed>
<extensions>
<speed>2.2</speed>
<temp>0.00</temp>
<bpm>0</bpm>
<rpm>0.00</rpm>
</extensions>
</trkpt>
<trkpt lat="30.826969147" lon="34.747669220">
<ele>538.609375</ele>
<time>2013-11-21T11:46:04Z</time>
<speed>0.280000</speed>
<extensions>
<speed>0.3</speed>
<temp>0.00</temp>
<bpm>0</bpm>
<rpm>0.00</rpm>
</extensions>
</trkpt>
<trkpt lat="30.826965332" lon="34.747665405">
<ele>539.859375</ele>
<time>2013-11-21T11:46:09Z</time>
<speed>0.080000</speed>
<extensions>
<speed>0.1</speed>
<temp>0.00</temp>
<bpm>0</bpm>
<rpm>0.00</rpm>
</extensions>
</trkpt>
<trkpt lat="30.826963425" lon="34.747661591">
<ele>539.921875</ele>
<time>2013-11-21T11:46:14Z</time>
<speed>0.040000</speed>
<extensions>
<speed>0.0</speed>
<temp>0.00</temp>
<bpm>0</bpm>
<rpm>0.00</rpm>
</extensions>
</trkpt>
<trkpt lat="30.826963425" lon="34.747661591">
<ele>539.953125</ele>
<time>2013-11-21T11:46:19Z</time>
<speed>0.020000</speed>
<extensions>
<speed>0.0</speed>
<temp>0.00</temp>
<bpm>0</bpm>
<rpm>0.00</rpm>
</extensions>
</trkpt>
<trkpt lat="30.826963425" lon="34.747665405">
<ele>539.953125</ele>
<time>2013-11-21T11:46:24Z</time>
<speed>0.030000</speed>
<extensions>
<speed>0.0</speed>
<temp>0.00</temp>
<bpm>0</bpm>
<rpm>0.00</rpm>
</extensions>
</trkpt>
<trkpt lat="30.826961517" lon="34.747665405">
<ele>539.937500</ele>
<time>2013-11-21T11:46:29Z</time>
<speed>0.100000</speed>
<extensions>
<speed>0.1</speed>
<temp>0.00</temp>
<bpm>0</bpm>
<rpm>0.00</rpm>
</extensions>
</trkpt>
<trkpt lat="30.826959610" lon="34.747657776">
<ele>539.953125</ele>
<time>2013-11-21T11:46:34Z</time>
<speed>0.770000</speed>
<extensions>
<speed>0.8</speed>
<temp>0.00</temp>
<bpm>0</bpm>
<rpm>0.00</rpm>
</extensions>
</trkpt>
<trkpt lat="30.826910019" lon="34.747627258">
<ele>539.921875</ele>
<time>2013-11-21T11:46:39Z</time>
<speed>1.260000</speed>
<extensions>
<speed>1.3</speed>
<temp>0.00</temp>
<bpm>0</bpm>
<rpm>0.00</rpm>
</extensions>
</trkpt>
<trkpt lat="30.826847076" lon="34.747577667">
<ele>540.062500</ele>
<time>2013-11-21T11:46:44Z</time>
<speed>1.140000</speed>
<extensions>
<speed>1.1</speed>
<temp>0.00</temp>
<bpm>0</bpm>
<rpm>0.00</rpm>
</extensions>
</trkpt>
<trkpt lat="30.826812744" lon="34.747554779">
<ele>540.656250</ele>
<time>2013-11-21T11:46:49Z</time>
<speed>0.870000</speed>
<extensions>
<speed>0.9</speed>
<temp>0.00</temp>
<bpm>0</bpm>
<rpm>0.00</rpm>
</extensions>
</trkpt>
<trkpt lat="30.826772690" lon="34.747505188">
<ele>541.218750</ele>
<time>2013-11-21T11:46:54Z</time>
<speed>1.250000</speed>
<extensions>
<speed>1.3</speed>
<temp>0.00</temp>
<bpm>0</bpm>
<rpm>0.00</rpm>
</extensions>
</trkpt>
<trkpt lat="30.826728821" lon="34.747474670">
<ele>541.984375</ele>
<time>2013-11-21T11:46:59Z</time>
<speed>1.150000</speed>
<extensions>
<speed>1.1</speed>
<temp>0.00</temp>
<bpm>0</bpm>
<rpm>0.00</rpm>
</extensions>
</trkpt>
<trkpt lat="30.826681137" lon="34.747447968">
<ele>542.375000</ele>
<time>2013-11-21T11:47:04Z</time>
<speed>0.970000</speed>
<extensions>
<speed>1.0</speed>
<temp>0.00</temp>
<bpm>0</bpm>
<rpm>0.00</rpm>
</extensions>
</trkpt>
<trkpt lat="30.826642990" lon="34.747398376">
<ele>543.343750</ele>
<time>2013-11-21T11:47:09Z</time>
<speed>1.160000</speed>
<extensions>
<speed>1.2</speed>
<temp>0.00</temp>
<bpm>0</bpm>
<rpm>0.00</rpm>
</extensions>
</trkpt>
<trkpt lat="30.826618195" lon="34.747371674">
<ele>544.250000</ele>
<time>2013-11-21T11:47:14Z</time>
<speed>1.100000</speed>
<extensions>
<speed>1.1</speed>
<temp>0.00</temp>
<bpm>0</bpm>
<rpm>0.00</rpm>
</extensions>
</trkpt>
<trkpt lat="30.826599121" lon="34.747341156">
<ele>545.156250</ele>
<time>2013-11-21T11:47:19Z</time>
<speed>0.730000</speed>
<extensions>
<speed>0.7</speed>
<temp>0.00</temp>
<bpm>0</bpm>
<rpm>0.00</rpm>
</extensions>
</trkpt>
<trkpt lat="30.826574326" lon="34.747303009">
<ele>546.781250</ele>
<time>2013-11-21T11:47:24Z</time>
<speed>0.980000</speed>
<extensions>
<speed>1.0</speed>
<temp>0.00</temp>
<bpm>0</bpm>
<rpm>0.00</rpm>
</extensions>
</trkpt>
<trkpt lat="30.826547623" lon="34.747249603">
<ele>547.984375</ele>
<time>2013-11-21T11:47:29Z</time>
<speed>0.670000</speed>
<extensions>
<speed>0.7</speed>
<temp>0.00</temp>
<bpm>0</bpm>
<rpm>0.00</rpm>
</extensions>
</trkpt>
<trkpt lat="30.826515198" lon="34.747188568">
<ele>548.984375</ele>
<time>2013-11-21T11:47:34Z</time>
<speed>0.980000</speed>
<extensions>
<speed>1.0</speed>
<temp>0.00</temp>
<bpm>0</bpm>
<rpm>0.00</rpm>
</extensions>
</trkpt>
<trkpt lat="30.826475143" lon="34.747131348">
<ele>550.500000</ele>
<time>2013-11-21T11:47:39Z</time>
<speed>0.910000</speed>
<extensions>
<speed>0.9</speed>
<temp>0.00</temp>
<bpm>0</bpm>
<rpm>0.00</rpm>
</extensions>
</trkpt>
<trkpt lat="30.826454163" lon="34.747074127">
<ele>551.500000</ele>
<time>2013-11-21T11:47:44Z</time>
<speed>1.020000</speed>
<extensions>
<speed>1.0</speed>
<temp>0.00</temp>
<bpm>0</bpm>
<rpm>0.00</rpm>
</extensions>
</trkpt>
<trkpt lat="30.826429367" lon="34.747001648">
<ele>552.328125</ele>
<time>2013-11-21T11:47:49Z</time>
<speed>1.500000</speed>
<extensions>
<speed>1.5</speed>
<temp>0.00</temp>
<bpm>0</bpm>
<rpm>0.00</rpm>
</extensions>
</trkpt>
<trkpt lat="30.826381683" lon="34.746948242">
<ele>552.937500</ele>
<time>2013-11-21T11:47:54Z</time>
<speed>1.370000</speed>
<extensions>
<speed>1.4</speed>
<temp>0.00</temp>
<bpm>0</bpm>
<rpm>0.00</rpm>
</extensions>
</trkpt>
<trkpt lat="30.826351166" lon="34.746879578">
<ele>553.281250</ele>
<time>2013-11-21T11:47:59Z</time>
<speed>1.360000</speed>
<extensions>
<speed>1.4</speed>
<temp>0.00</temp>
<bpm>0</bpm>
<rpm>0.00</rpm>
</extensions>
</trkpt>
<trkpt lat="30.826311111" lon="34.746795654">
<ele>554.796875</ele>
<time>2013-11-21T11:48:04Z</time>
<speed>1.590000</speed>
<extensions>
<speed>1.6</speed>
<temp>0.00</temp>
<bpm>0</bpm>
<rpm>0.00</rpm>
</extensions>
</trkpt>
<trkpt lat="30.826278687" lon="34.746726990">
<ele>555.937500</ele>
<time>2013-11-21T11:48:09Z</time>
<speed>1.640000</speed>
<extensions>
<speed>1.6</speed>
<temp>0.00</temp>
<bpm>0</bpm>
<rpm>0.00</rpm>
</extensions>
</trkpt>
<trkpt lat="30.826234818" lon="34.746643066">
<ele>556.984375</ele>
<time>2013-11-21T11:48:14Z</time>
<speed>1.500000</speed>
<extensions>
<speed>1.5</speed>
<temp>0.00</temp>
<bpm>0</bpm>
<rpm>0.00</rpm>
</extensions>
</trkpt>
<trkpt lat="30.826240540" lon="34.746562958">
<ele>557.593750</ele>
<time>2013-11-21T11:48:19Z</time>
<speed>1.020000</speed>
<extensions>
<speed>1.0</speed>
<temp>0.00</temp>
<bpm>0</bpm>
<rpm>0.00</rpm>
</extensions>
</trkpt>
<trkpt lat="30.826225281" lon="34.746505737">
<ele>557.703125</ele>
<time>2013-11-21T11:48:24Z</time>
<speed>1.680000</speed>
<extensions>
<speed>1.7</speed>
<temp>0.00</temp>
<bpm>0</bpm>
<rpm>0.00</rpm>
</extensions>
</trkpt>
<trkpt lat="30.826204300" lon="34.746398926">
<ele>558.328125</ele>
<time>2013-11-21T11:48:29Z</time>
<speed>2.190000</speed>
<extensions>
<speed>2.2</speed>
<temp>0.00</temp>
<bpm>0</bpm>
<rpm>0.00</rpm>
</extensions>
</trkpt>
<trkpt lat="30.826202393" lon="34.746292114">
<ele>557.265625</ele>
<time>2013-11-21T11:48:34Z</time>
<speed>1.980000</speed>
<extensions>
<speed>2.0</speed>
<temp>0.00</temp>
<bpm>0</bpm>
<rpm>0.00</rpm>
</extensions>
</trkpt>
<trkpt lat="30.826204300" lon="34.746154785">
<ele>558.437500</ele>
<time>2013-11-21T11:48:39Z</time>
<speed>2.700000</speed>
<extensions>
<speed>2.7</speed>
<temp>0.00</temp>
<bpm>0</bpm>
<rpm>0.00</rpm>
</extensions>
</trkpt>
<trkpt lat="30.826204300" lon="34.746074677">
<ele>559.781250</ele>
<time>2013-11-21T11:48:44Z</time>
<speed>0.720000</speed>
<extensions>
<speed>0.7</speed>
<temp>0.00</temp>
<bpm>0</bpm>
<rpm>0.00</rpm>
</extensions>
</trkpt>
<trkpt lat="30.826179504" lon="34.746009827">
<ele>561.671875</ele>
<time>2013-11-21T11:48:49Z</time>
<speed>1.650000</speed>
<extensions>
<speed>1.7</speed>
<temp>0.00</temp>
<bpm>0</bpm>
<rpm>0.00</rpm>
</extensions>
</trkpt>
<trkpt lat="30.826196671" lon="34.745883942">
<ele>562.781250</ele>
<time>2013-11-21T11:48:54Z</time>
<speed>2.530000</speed>
<extensions>
<speed>2.5</speed>
<temp>0.00</temp>
<bpm>0</bpm>
<rpm>0.00</rpm>
</extensions>
</trkpt>
<trkpt lat="30.826202393" lon="34.745777130">
<ele>564.625000</ele>
<time>2013-11-21T11:48:59Z</time>
<speed>1.950000</speed>
<extensions>
<speed>1.9</speed>
<temp>0.00</temp>
<bpm>0</bpm>
<rpm>0.00</rpm>
</extensions>
</trkpt>
<trkpt lat="30.826225281" lon="34.745693207">
<ele>565.328125</ele>
<time>2013-11-21T11:49:04Z</time>
<speed>2.140000</speed>
<extensions>
<speed>2.1</speed>
<temp>0.00</temp>
<bpm>0</bpm>
<rpm>0.00</rpm>
</extensions>
</trkpt>
<trkpt lat="30.826246262" lon="34.745571136">
<ele>567.062500</ele>
<time>2013-11-21T11:49:09Z</time>
<speed>2.290000</speed>
<extensions>
<speed>2.3</speed>
<temp>0.00</temp>
<bpm>0</bpm>
<rpm>0.00</rpm>
</extensions>
</trkpt>
<trkpt lat="30.826259613" lon="34.745468140">
<ele>567.734375</ele>
<time>2013-11-21T11:49:14Z</time>
<speed>2.070000</speed>
<extensions>
<speed>2.1</speed>
<temp>0.00</temp>
<bpm>0</bpm>
<rpm>0.00</rpm>
</extensions>
</trkpt>
<trkpt lat="30.826267242" lon="34.745353699">
<ele>570.250000</ele>
<time>2013-11-21T11:49:19Z</time>
<speed>1.330000</speed>
<extensions>
<speed>1.3</speed>
<temp>0.00</temp>
<bpm>0</bpm>
<rpm>0.00</rpm>
</extensions>
</trkpt>
<trkpt lat="30.826259613" lon="34.745277405">
<ele>570.828125</ele>
<time>2013-11-21T11:49:24Z</time>
<speed>2.260000</speed>
<extensions>
<speed>2.3</speed>
<temp>0.00</temp>
<bpm>0</bpm>
<rpm>0.00</rpm>
</extensions>
</trkpt>
<trkpt lat="30.826263428" lon="34.745159149">
<ele>571.640625</ele>
<time>2013-11-21T11:49:29Z</time>
<speed>2.220000</speed>
<extensions>
<speed>2.2</speed>
<temp>0.00</temp>
<bpm>0</bpm>
<rpm>0.00</rpm>
</extensions>
</trkpt>
<trkpt lat="30.826257706" lon="34.745033264">
<ele>571.593750</ele>
<time>2013-11-21T11:49:34Z</time>
<speed>2.620000</speed>
<extensions>
<speed>2.6</speed>
<temp>0.00</temp>
<bpm>0</bpm>
<rpm>0.00</rpm>
</extensions>
</trkpt>
<trkpt lat="30.826248169" lon="34.744884491">
<ele>571.562500</ele>
<time>2013-11-21T11:49:39Z</time>
<speed>3.000000</speed>
<extensions>
<speed>3.0</speed>
<temp>0.00</temp>
<bpm>0</bpm>
<rpm>0.00</rpm>
</extensions>
</trkpt>
<trkpt lat="30.826251984" lon="34.744754791">
<ele>572.687500</ele>
<time>2013-11-21T11:49:44Z</time>
<speed>2.560000</speed>
<extensions>
<speed>2.6</speed>
<temp>0.00</temp>
<bpm>0</bpm>
<rpm>0.00</rpm>
</extensions>
</trkpt>
<trkpt lat="30.826240540" lon="34.744632721">
<ele>571.609375</ele>
<time>2013-11-21T11:49:49Z</time>
<speed>2.100000</speed>
<extensions>
<speed>2.1</speed>
<temp>0.00</temp>
<bpm>0</bpm>
<rpm>0.00</rpm>
</extensions>
</trkpt>
<trkpt lat="30.826213837" lon="34.744495392">
<ele>571.828125</ele>
<time>2013-11-21T11:49:54Z</time>
<speed>2.930000</speed>
<extensions>
<speed>2.9</speed>
<temp>0.00</temp>
<bpm>0</bpm>
<rpm>0.00</rpm>
</extensions>
</trkpt>
<trkpt lat="30.826171875" lon="34.744319916">
<ele>571.062500</ele>
<time>2013-11-21T11:49:59Z</time>
<speed>3.600000</speed>
<extensions>
<speed>3.6</speed>
<temp>0.00</temp>
<bpm>0</bpm>
<rpm>0.00</rpm>
</extensions>
</trkpt>
<trkpt lat="30.826116562" lon="34.744140625">
<ele>569.953125</ele>
<time>2013-11-21T11:50:04Z</time>
<speed>3.650000</speed>
<extensions>
<speed>3.7</speed>
<temp>0.00</temp>
<bpm>0</bpm>
<rpm>0.00</rpm>
</extensions>
</trkpt>
<trkpt lat="30.826074600" lon="34.743999481">
<ele>569.453125</ele>
<time>2013-11-21T11:50:09Z</time>
<speed>1.540000</speed>
<extensions>
<speed>1.5</speed>
<temp>0.00</temp>
<bpm>0</bpm>
<rpm>0.00</rpm>
</extensions>
</trkpt>
<trkpt lat="30.826038361" lon="34.743885040">
<ele>568.859375</ele>
<time>2013-11-21T11:50:14Z</time>
<speed>2.380000</speed>
<extensions>
<speed>2.4</speed>
<temp>0.00</temp>
<bpm>0</bpm>
<rpm>0.00</rpm>
</extensions>
</trkpt>
<trkpt lat="30.825998306" lon="34.743766785">
<ele>566.828125</ele>
<time>2013-11-21T11:50:19Z</time>
<speed>2.430000</speed>
<extensions>
<speed>2.4</speed>
<temp>0.00</temp>
<bpm>0</bpm>
<rpm>0.00</rpm>
</extensions>
</trkpt>
<trkpt lat="30.825946808" lon="34.743621826">
<ele>563.890625</ele>
<time>2013-11-21T11:50:24Z</time>
<speed>2.130000</speed>
<extensions>
<speed>2.1</speed>
<temp>0.00</temp>
<bpm>0</bpm>
<rpm>0.00</rpm>
</extensions>
</trkpt>
<trkpt lat="30.825899124" lon="34.743495941">
<ele>563.281250</ele>
<time>2013-11-21T11:50:29Z</time>
<speed>2.500000</speed>
<extensions>
<speed>2.5</speed>
<temp>0.00</temp>
<bpm>0</bpm>
<rpm>0.00</rpm>
</extensions>
</trkpt>
<trkpt lat="30.825868607" lon="34.743408203">
<ele>563.531250</ele>
<time>2013-11-21T11:50:34Z</time>
<speed>0.510000</speed>
<extensions>
<speed>0.5</speed>
<temp>0.00</temp>
<bpm>0</bpm>
<rpm>0.00</rpm>
</extensions>
</trkpt>
<trkpt lat="30.825843811" lon="34.743370056">
<ele>564.078125</ele>
<time>2013-11-21T11:50:39Z</time>
<speed>1.200000</speed>
<extensions>
<speed>1.2</speed>
<temp>0.00</temp>
<bpm>0</bpm>
<rpm>0.00</rpm>
</extensions>
</trkpt>
<trkpt lat="30.825757980" lon="34.743286133">
<ele>565.562500</ele>
<time>2013-11-21T11:50:44Z</time>
<speed>2.640000</speed>
<extensions>
<speed>2.6</speed>
<temp>0.00</temp>
<bpm>0</bpm>
<rpm>0.00</rpm>
</extensions>
</trkpt>
<trkpt lat="30.825674057" lon="34.743213654">
<ele>567.343750</ele>
<time>2013-11-21T11:50:49Z</time>
<speed>2.660000</speed>
<extensions>
<speed>2.7</speed>
<temp>0.00</temp>
<bpm>0</bpm>
<rpm>0.00</rpm>
</extensions>
</trkpt>
<trkpt lat="30.825618744" lon="34.743164063">
<ele>567.937500</ele>
<time>2013-11-21T11:50:54Z</time>
<speed>1.660000</speed>
<extensions>
<speed>1.7</speed>
<temp>0.00</temp>
<bpm>0</bpm>
<rpm>0.00</rpm>
</extensions>
</trkpt>
<trkpt lat="30.825506210" lon="34.743122101">
<ele>569.421875</ele>
<time>2013-11-21T11:50:59Z</time>
<speed>2.690000</speed>
<extensions>
<speed>2.7</speed>
<temp>0.00</temp>
<bpm>0</bpm>
<rpm>0.00</rpm>
</extensions>
</trkpt>
<trkpt lat="30.825387955" lon="34.743103027">
<ele>570.515625</ele>
<time>2013-11-21T11:51:04Z</time>
<speed>1.760000</speed>
<extensions>
<speed>1.8</speed>
<temp>0.00</temp>
<bpm>0</bpm>
<rpm>0.00</rpm>
</extensions>
</trkpt>
<trkpt lat="30.825340271" lon="34.743091583">
<ele>571.796875</ele>
<time>2013-11-21T11:51:09Z</time>
<speed>1.620000</speed>
<extensions>
<speed>1.6</speed>
<temp>0.00</temp>
<bpm>0</bpm>
<rpm>0.00</rpm>
</extensions>
</trkpt>
<trkpt lat="30.825288773" lon="34.743061066">
<ele>573.562500</ele>
<time>2013-11-21T11:51:14Z</time>
<speed>1.630000</speed>
<extensions>
<speed>1.6</speed>
<temp>0.00</temp>
<bpm>0</bpm>
<rpm>0.00</rpm>
</extensions>
</trkpt>
<trkpt lat="30.825233459" lon="34.743038177">
<ele>575.078125</ele>
<time>2013-11-21T11:51:19Z</time>
<speed>0.740000</speed>
<extensions>
<speed>0.7</speed>
<temp>0.00</temp>
<bpm>0</bpm>
<rpm>0.00</rpm>
</extensions>
</trkpt>
<trkpt lat="30.825189590" lon="34.743015289">
<ele>576.078125</ele>
<time>2013-11-21T11:51:24Z</time>
<speed>0.990000</speed>
<extensions>
<speed>1.0</speed>
<temp>0.00</temp>
<bpm>0</bpm>
<rpm>0.00</rpm>
</extensions>
</trkpt>
<trkpt lat="30.825145721" lon="34.743019104">
<ele>577.312500</ele>
<time>2013-11-21T11:51:29Z</time>
<speed>1.110000</speed>
<extensions>
<speed>1.1</speed>
<temp>0.00</temp>
<bpm>0</bpm>
<rpm>0.00</rpm>
</extensions>
</trkpt>
<trkpt lat="30.825082779" lon="34.743030548">
<ele>578.578125</ele>
<time>2013-11-21T11:51:34Z</time>
<speed>1.170000</speed>
<extensions>
<speed>1.2</speed>
<temp>0.00</temp>
<bpm>0</bpm>
<rpm>0.00</rpm>
</extensions>
</trkpt>
<trkpt lat="30.825021744" lon="34.743007660">
<ele>578.703125</ele>
<time>2013-11-21T11:51:39Z</time>
<speed>1.340000</speed>
<extensions>
<speed>1.3</speed>
<temp>0.00</temp>
<bpm>0</bpm>
<rpm>0.00</rpm>
</extensions>
</trkpt>
<trkpt lat="30.824956894" lon="34.742988586">
<ele>579.109375</ele>
<time>2013-11-21T11:51:44Z</time>
<speed>1.420000</speed>
<extensions>
<speed>1.4</speed>
<temp>0.00</temp>
<bpm>0</bpm>
<rpm>0.00</rpm>
</extensions>
</trkpt>
<trkpt lat="30.824913025" lon="34.742969513">
<ele>579.515625</ele>
<time>2013-11-21T11:51:49Z</time>
<speed>1.110000</speed>
<extensions>
<speed>1.1</speed>
<temp>0.00</temp>
<bpm>0</bpm>
<rpm>0.00</rpm>
</extensions>
</trkpt>
<trkpt lat="30.824861526" lon="34.742927551">
<ele>580.140625</ele>
<time>2013-11-21T11:51:54Z</time>
<speed>1.320000</speed>
<extensions>
<speed>1.3</speed>
<temp>0.00</temp>
<bpm>0</bpm>
<rpm>0.00</rpm>
</extensions>
</trkpt>
<trkpt lat="30.824813843" lon="34.742874146">
<ele>580.812500</ele>
<time>2013-11-21T11:51:59Z</time>
<speed>1.590000</speed>
<extensions>
<speed>1.6</speed>
<temp>0.00</temp>
<bpm>0</bpm>
<rpm>0.00</rpm>
</extensions>
</trkpt>
<trkpt lat="30.824743271" lon="34.742828369">
<ele>581.062500</ele>
<time>2013-11-21T11:52:04Z</time>
<speed>1.120000</speed>
<extensions>
<speed>1.1</speed>
<temp>0.00</temp>
<bpm>0</bpm>
<rpm>0.00</rpm>
</extensions>
</trkpt>
<trkpt lat="30.824665070" lon="34.742786407">
<ele>582.203125</ele>
<time>2013-11-21T11:52:09Z</time>
<speed>1.430000</speed>
<extensions>
<speed>1.4</speed>
<temp>0.00</temp>
<bpm>0</bpm>
<rpm>0.00</rpm>
</extensions>
</trkpt>
<trkpt lat="30.824605942" lon="34.742717743">
<ele>582.812500</ele>
<time>2013-11-21T11:52:14Z</time>
<speed>1.970000</speed>
<extensions>
<speed>2.0</speed>
<temp>0.00</temp>
<bpm>0</bpm>
<rpm>0.00</rpm>
</extensions>
</trkpt>
<trkpt lat="30.824560165" lon="34.742660522">
<ele>583.375000</ele>
<time>2013-11-21T11:52:19Z</time>
<speed>1.690000</speed>
<extensions>
<speed>1.7</speed>
<temp>0.00</temp>
<bpm>0</bpm>
<rpm>0.00</rpm>
</extensions>
</trkpt>
<trkpt lat="30.824520111" lon="34.742603302">
<ele>584.500000</ele>
<time>2013-11-21T11:52:24Z</time>
<speed>1.420000</speed>
<extensions>
<speed>1.4</speed>
<temp>0.00</temp>
<bpm>0</bpm>
<rpm>0.00</rpm>
</extensions>
</trkpt>
<trkpt lat="30.824480057" lon="34.742542267">
<ele>585.171875</ele>
<time>2013-11-21T11:52:29Z</time>
<speed>1.750000</speed>
<extensions>
<speed>1.8</speed>
<temp>0.00</temp>
<bpm>0</bpm>
<rpm>0.00</rpm>
</extensions>
</trkpt>
<trkpt lat="30.824449539" lon="34.742500305">
<ele>585.343750</ele>
<time>2013-11-21T11:52:34Z</time>
<speed>0.760000</speed>
<extensions>
<speed>0.8</speed>
<temp>0.00</temp>
<bpm>0</bpm>
<rpm>0.00</rpm>
</extensions>
</trkpt>
<trkpt lat="30.824409485" lon="34.742458344">
<ele>585.171875</ele>
<time>2013-11-21T11:52:39Z</time>
<speed>1.570000</speed>
<extensions>
<speed>1.6</speed>
<temp>0.00</temp>
<bpm>0</bpm>
<rpm>0.00</rpm>
</extensions>
</trkpt>
<trkpt lat="30.824359894" lon="34.742401123">
<ele>586.515625</ele>
<time>2013-11-21T11:52:44Z</time>
<speed>1.390000</speed>
<extensions>
<speed>1.4</speed>
<temp>0.00</temp>
<bpm>0</bpm>
<rpm>0.00</rpm>
</extensions>
</trkpt>
<trkpt lat="30.824312210" lon="34.742321014">
<ele>587.906250</ele>
<time>2013-11-21T11:52:49Z</time>
<speed>1.870000</speed>
<extensions>
<speed>1.9</speed>
<temp>0.00</temp>
<bpm>0</bpm>
<rpm>0.00</rpm>
</extensions>
</trkpt>
<trkpt lat="30.824274063" lon="34.742259979">
<ele>588.765625</ele>
<time>2013-11-21T11:52:54Z</time>
<speed>1.650000</speed>
<extensions>
<speed>1.7</speed>
<temp>0.00</temp>
<bpm>0</bpm>
<rpm>0.00</rpm>
</extensions>
</trkpt>
<trkpt lat="30.824224472" lon="34.742210388">
<ele>589.281250</ele>
<time>2013-11-21T11:52:59Z</time>
<speed>1.670000</speed>
<extensions>
<speed>1.7</speed>
<temp>0.00</temp>
<bpm>0</bpm>
<rpm>0.00</rpm>
</extensions>
</trkpt>
<trkpt lat="30.824174881" lon="34.742145538">
<ele>589.656250</ele>
<time>2013-11-21T11:53:04Z</time>
<speed>1.870000</speed>
<extensions>
<speed>1.9</speed>
<temp>0.00</temp>
<bpm>0</bpm>
<rpm>0.00</rpm>
</extensions>
</trkpt>
<trkpt lat="30.824144363" lon="34.742057800">
<ele>590.453125</ele>
<time>2013-11-21T11:53:09Z</time>
<speed>1.700000</speed>
<extensions>
<speed>1.7</speed>
<temp>0.00</temp>
<bpm>0</bpm>
<rpm>0.00</rpm>
</extensions>
</trkpt>
<trkpt lat="30.824108124" lon="34.741977692">
<ele>591.656250</ele>
<time>2013-11-21T11:53:14Z</time>
<speed>1.490000</speed>
<extensions>
<speed>1.5</speed>
<temp>0.00</temp>
<bpm>0</bpm>
<rpm>0.00</rpm>
</extensions>
</trkpt>
<trkpt lat="30.824058533" lon="34.741889954">
<ele>593.640625</ele>
<time>2013-11-21T11:53:19Z</time>
<speed>1.720000</speed>
<extensions>
<speed>1.7</speed>
<temp>0.00</temp>
<bpm>0</bpm>
<rpm>0.00</rpm>
</extensions>
</trkpt>
<trkpt lat="30.824041367" lon="34.741844177">
<ele>594.468750</ele>
<time>2013-11-21T11:53:24Z</time>
<speed>1.630000</speed>
<extensions>
<speed>1.6</speed>
<temp>0.00</temp>
<bpm>0</bpm>
<rpm>0.00</rpm>
</extensions>
</trkpt>
<trkpt lat="30.824007034" lon="34.741767883">
<ele>594.234375</ele>
<time>2013-11-21T11:53:29Z</time>
<speed>1.650000</speed>
<extensions>
<speed>1.7</speed>
<temp>0.00</temp>
<bpm>0</bpm>
<rpm>0.00</rpm>
</extensions>
</trkpt>
<trkpt lat="30.823968887" lon="34.741706848">
<ele>594.765625</ele>
<time>2013-11-21T11:53:34Z</time>
<speed>1.690000</speed>
<extensions>
<speed>1.7</speed>
<temp>0.00</temp>
<bpm>0</bpm>
<rpm>0.00</rpm>
</extensions>
</trkpt>
<trkpt lat="30.823957443" lon="34.741653442">
<ele>595.812500</ele>
<time>2013-11-21T11:53:39Z</time>
<speed>0.920000</speed>
<extensions>
<speed>0.9</speed>
<temp>0.00</temp>
<bpm>0</bpm>
<rpm>0.00</rpm>
</extensions>
</trkpt>
<trkpt lat="30.823938370" lon="34.741596222">
<ele>596.187500</ele>
<time>2013-11-21T11:53:44Z</time>
<speed>1.430000</speed>
<extensions>
<speed>1.4</speed>
<temp>0.00</temp>
<bpm>0</bpm>
<rpm>0.00</rpm>
</extensions>
</trkpt>
<trkpt lat="30.823911667" lon="34.741535187">
<ele>597.140625</ele>
<time>2013-11-21T11:53:49Z</time>
<speed>1.590000</speed>
<extensions>
<speed>1.6</speed>
<temp>0.00</temp>
<bpm>0</bpm>
<rpm>0.00</rpm>
</extensions>
</trkpt>
<trkpt lat="30.823881149" lon="34.741451263">
<ele>597.734375</ele>
<time>2013-11-21T11:53:54Z</time>
<speed>1.810000</speed>
<extensions>
<speed>1.8</speed>
<temp>0.00</temp>
<bpm>0</bpm>
<rpm>0.00</rpm>
</extensions>
</trkpt>
<trkpt lat="30.823833466" lon="34.741359711">
<ele>599.468750</ele>
<time>2013-11-21T11:53:59Z</time>
<speed>2.130000</speed>
<extensions>
<speed>2.1</speed>
<temp>0.00</temp>
<bpm>0</bpm>
<rpm>0.00</rpm>
</extensions>
</trkpt>
<trkpt lat="30.823797226" lon="34.741291046">
<ele>601.453125</ele>
<time>2013-11-21T11:54:04Z</time>
<speed>1.600000</speed>
<extensions>
<speed>1.6</speed>
<temp>0.00</temp>
<bpm>0</bpm>
<rpm>0.00</rpm>
</extensions>
</trkpt>
<trkpt lat="30.823759079" lon="34.741210938">
<ele>602.687500</ele>
<time>2013-11-21T11:54:09Z</time>
<speed>1.930000</speed>
<extensions>
<speed>1.9</speed>
<temp>0.00</temp>
<bpm>0</bpm>
<rpm>0.00</rpm>
</extensions>
</trkpt>
<trkpt lat="30.823717117" lon="34.741127014">
<ele>604.343750</ele>
<time>2013-11-21T11:54:14Z</time>
<speed>1.890000</speed>
<extensions>
<speed>1.9</speed>
<temp>0.00</temp>
<bpm>0</bpm>
<rpm>0.00</rpm>
</extensions>
</trkpt>
<trkpt lat="30.823675156" lon="34.741065979">
<ele>606.796875</ele>
<time>2013-11-21T11:54:19Z</time>
<speed>1.470000</speed>
<extensions>
<speed>1.5</speed>
<temp>0.00</temp>
<bpm>0</bpm>
<rpm>0.00</rpm>
</extensions>
</trkpt>
<trkpt lat="30.823631287" lon="34.741024017">
<ele>608.484375</ele>
<time>2013-11-21T11:54:24Z</time>
<speed>1.360000</speed>
<extensions>
<speed>1.4</speed>
<temp>0.00</temp>
<bpm>0</bpm>
<rpm>0.00</rpm>
</extensions>
</trkpt>
<trkpt lat="30.823547363" lon="34.740993500">
<ele>608.953125</ele>
<time>2013-11-21T11:54:29Z</time>
<speed>1.810000</speed>
<extensions>
<speed>1.8</speed>
<temp>0.00</temp>
<bpm>0</bpm>
<rpm>0.00</rpm>
</extensions>
</trkpt>
<trkpt lat="30.823442459" lon="34.740962982">
<ele>609.562500</ele>
<time>2013-11-21T11:54:34Z</time>
<speed>2.320000</speed>
<extensions>
<speed>2.3</speed>
<temp>0.00</temp>
<bpm>0</bpm>
<rpm>0.00</rpm>
</extensions>
</trkpt>
<trkpt lat="30.823328018" lon="34.740943909">
<ele>610.593750</ele>
<time>2013-11-21T11:54:39Z</time>
<speed>2.470000</speed>
<extensions>
<speed>2.5</speed>
<temp>0.00</temp>
<bpm>0</bpm>
<rpm>0.00</rpm>
</extensions>
</trkpt>
<trkpt lat="30.823205948" lon="34.740932465">
<ele>612.562500</ele>
<time>2013-11-21T11:54:44Z</time>
<speed>2.660000</speed>
<extensions>
<speed>2.7</speed>
<temp>0.00</temp>
<bpm>0</bpm>
<rpm>0.00</rpm>
</extensions>
</trkpt>
<trkpt lat="30.823097229" lon="34.740901947">
<ele>612.968750</ele>
<time>2013-11-21T11:54:49Z</time>
<speed>2.580000</speed>
<extensions>
<speed>2.6</speed>
<temp>0.00</temp>
<bpm>0</bpm>
<rpm>0.00</rpm>
</extensions>
</trkpt>
<trkpt lat="30.822977066" lon="34.740852356">
<ele>612.437500</ele>
<time>2013-11-21T11:54:54Z</time>
<speed>2.540000</speed>
<extensions>
<speed>2.5</speed>
<temp>0.00</temp>
<bpm>0</bpm>
<rpm>0.00</rpm>
</extensions>
</trkpt>
<trkpt lat="30.822870255" lon="34.740859985">
<ele>612.656250</ele>
<time>2013-11-21T11:54:59Z</time>
<speed>1.910000</speed>
<extensions>
<speed>1.9</speed>
<temp>0.00</temp>
<bpm>0</bpm>
<rpm>0.00</rpm>
</extensions>
</trkpt>
<trkpt lat="30.822793961" lon="34.740909576">
<ele>610.531250</ele>
<time>2013-11-21T11:55:04Z</time>
<speed>1.500000</speed>
<extensions>
<speed>1.5</speed>
<temp>0.00</temp>
<bpm>0</bpm>
<rpm>0.00</rpm>
</extensions>
</trkpt>
<trkpt lat="30.822771072" lon="34.740921021">
<ele>608.562500</ele>
<time>2013-11-21T11:55:09Z</time>
<speed>0.190000</speed>
<extensions>
<speed>0.2</speed>
<temp>0.00</temp>
<bpm>0</bpm>
<rpm>0.00</rpm>
</extensions>
</trkpt>
<trkpt lat="30.822767258" lon="34.740921021">
<ele>608.031250</ele>
<time>2013-11-21T11:55:14Z</time>
<speed>0.200000</speed>
<extensions>
<speed>0.2</speed>
<temp>0.00</temp>
<bpm>0</bpm>
<rpm>0.00</rpm>
</extensions>
</trkpt>
<trkpt lat="30.822761536" lon="34.740924835">
<ele>608.046875</ele>
<time>2013-11-21T11:55:19Z</time>
<speed>0.150000</speed>
<extensions>
<speed>0.2</speed>
<temp>0.00</temp>
<bpm>0</bpm>
<rpm>0.00</rpm>
</extensions>
</trkpt>
<trkpt lat="30.822757721" lon="34.740928650">
<ele>608.031250</ele>
<time>2013-11-21T11:55:24Z</time>
<speed>0.790000</speed>
<extensions>
<speed>0.8</speed>
<temp>0.00</temp>
<bpm>0</bpm>
<rpm>0.00</rpm>
</extensions>
</trkpt>
<trkpt lat="30.822706223" lon="34.740978241">
<ele>607.812500</ele>
<time>2013-11-21T11:55:29Z</time>
<speed>2.170000</speed>
<extensions>
<speed>2.2</speed>
<temp>0.00</temp>
<bpm>0</bpm>
<rpm>0.00</rpm>
</extensions>
</trkpt>
<trkpt lat="30.822597504" lon="34.741092682">
<ele>608.390625</ele>
<time>2013-11-21T11:55:34Z</time>
<speed>2.780000</speed>
<extensions>
<speed>2.8</speed>
<temp>0.00</temp>
<bpm>0</bpm>
<rpm>0.00</rpm>
</extensions>
</trkpt>
<trkpt lat="30.822492599" lon="34.741218567">
<ele>608.671875</ele>
<time>2013-11-21T11:55:39Z</time>
<speed>3.010000</speed>
<extensions>
<speed>3.0</speed>
<temp>0.00</temp>
<bpm>0</bpm>
<rpm>0.00</rpm>
</extensions>
</trkpt>
<trkpt lat="30.822418213" lon="34.741321564">
<ele>608.062500</ele>
<time>2013-11-21T11:55:44Z</time>
<speed>2.060000</speed>
<extensions>
<speed>2.1</speed>
<temp>0.00</temp>
<bpm>0</bpm>
<rpm>0.00</rpm>
</extensions>
</trkpt>
<trkpt lat="30.822380066" lon="34.741382599">
<ele>607.421875</ele>
<time>2013-11-21T11:55:49Z</time>
<speed>0.910000</speed>
<extensions>
<speed>0.9</speed>
<temp>0.00</temp>
<bpm>0</bpm>
<rpm>0.00</rpm>
</extensions>
</trkpt>
<trkpt lat="30.822380066" lon="34.741413116">
<ele>607.078125</ele>
<time>2013-11-21T11:55:54Z</time>
<speed>0.220000</speed>
<extensions>
<speed>0.2</speed>
<temp>0.00</temp>
<bpm>0</bpm>
<rpm>0.00</rpm>
</extensions>
</trkpt>
<trkpt lat="30.822376251" lon="34.741413116">
<ele>606.875000</ele>
<time>2013-11-21T11:55:59Z</time>
<speed>0.020000</speed>
<extensions>
<speed>0.0</speed>
<temp>0.00</temp>
<bpm>0</bpm>
<rpm>0.00</rpm>
</extensions>
</trkpt>
<trkpt lat="30.822378159" lon="34.741413116">
<ele>606.812500</ele>
<time>2013-11-21T11:56:04Z</time>
<speed>0.060000</speed>
<extensions>
<speed>0.1</speed>
<temp>0.00</temp>
<bpm>0</bpm>
<rpm>0.00</rpm>
</extensions>
</trkpt>
<trkpt lat="30.822374344" lon="34.741416931">
<ele>606.781250</ele>
<time>2013-11-21T11:56:09Z</time>
<speed>0.080000</speed>
<extensions>
<speed>0.1</speed>
<temp>0.00</temp>
<bpm>0</bpm>
<rpm>0.00</rpm>
</extensions>
</trkpt>
<trkpt lat="30.822372437" lon="34.741416931">
<ele>606.796875</ele>
<time>2013-11-21T11:56:14Z</time>
<speed>0.060000</speed>
<extensions>
<speed>0.1</speed>
<temp>0.00</temp>
<bpm>0</bpm>
<rpm>0.00</rpm>
</extensions>
</trkpt>
<trkpt lat="30.822372437" lon="34.741416931">
<ele>606.875000</ele>
<time>2013-11-21T11:56:19Z</time>
<speed>0.070000</speed>
<extensions>
<speed>0.1</speed>
<temp>0.00</temp>
<bpm>0</bpm>
<rpm>0.00</rpm>
</extensions>
</trkpt>
<trkpt lat="30.822370529" lon="34.741413116">
<ele>606.890625</ele>
<time>2013-11-21T11:56:24Z</time>
<speed>0.020000</speed>
<extensions>
<speed>0.0</speed>
<temp>0.00</temp>
<bpm>0</bpm>
<rpm>0.00</rpm>
</extensions>
</trkpt>
<trkpt lat="30.822370529" lon="34.741416931">
<ele>606.906250</ele>
<time>2013-11-21T11:56:29Z</time>
<speed>0.010000</speed>
<extensions>
<speed>0.0</speed>
<temp>0.00</temp>
<bpm>0</bpm>
<rpm>0.00</rpm>
</extensions>
</trkpt>
<trkpt lat="30.822372437" lon="34.741416931">
<ele>606.906250</ele>
<time>2013-11-21T11:56:34Z</time>
<speed>0.020000</speed>
<extensions>
<speed>0.0</speed>
<temp>0.00</temp>
<bpm>0</bpm>
<rpm>0.00</rpm>
</extensions>
</trkpt>
<trkpt lat="30.822372437" lon="34.741416931">
<ele>606.890625</ele>
<time>2013-11-21T11:56:39Z</time>
<speed>0.020000</speed>
<extensions>
<speed>0.0</speed>
<temp>0.00</temp>
<bpm>0</bpm>
<rpm>0.00</rpm>
</extensions>
</trkpt>
<trkpt lat="30.822372437" lon="34.741416931">
<ele>606.875000</ele>
<time>2013-11-21T11:56:44Z</time>
<speed>0.010000</speed>
<extensions>
<speed>0.0</speed>
<temp>0.00</temp>
<bpm>0</bpm>
<rpm>0.00</rpm>
</extensions>
</trkpt>
<trkpt lat="30.822372437" lon="34.741416931">
<ele>606.843750</ele>
<time>2013-11-21T11:56:49Z</time>
<speed>0.030000</speed>
<extensions>
<speed>0.0</speed>
<temp>0.00</temp>
<bpm>0</bpm>
<rpm>0.00</rpm>
</extensions>
</trkpt>
<trkpt lat="30.822372437" lon="34.741416931">
<ele>606.828125</ele>
<time>2013-11-21T11:56:54Z</time>
<speed>0.010000</speed>
<extensions>
<speed>0.0</speed>
<temp>0.00</temp>
<bpm>0</bpm>
<rpm>0.00</rpm>
</extensions>
</trkpt>
<trkpt lat="30.822372437" lon="34.741416931">
<ele>606.828125</ele>
<time>2013-11-21T11:56:59Z</time>
<speed>0.020000</speed>
<extensions>
<speed>0.0</speed>
<temp>0.00</temp>
<bpm>0</bpm>
<rpm>0.00</rpm>
</extensions>
</trkpt>
<trkpt lat="30.822374344" lon="34.741416931">
<ele>606.812500</ele>
<time>2013-11-21T11:57:04Z</time>
<speed>0.020000</speed>
<extensions>
<speed>0.0</speed>
<temp>0.00</temp>
<bpm>0</bpm>
<rpm>0.00</rpm>
</extensions>
</trkpt>
<trkpt lat="30.822374344" lon="34.741416931">
<ele>606.781250</ele>
<time>2013-11-21T11:57:09Z</time>
<speed>0.010000</speed>
<extensions>
<speed>0.0</speed>
<temp>0.00</temp>
<bpm>0</bpm>
<rpm>0.00</rpm>
</extensions>
</trkpt>
<trkpt lat="30.822374344" lon="34.741416931">
<ele>606.750000</ele>
<time>2013-11-21T11:57:14Z</time>
<speed>0.040000</speed>
<extensions>
<speed>0.0</speed>
<temp>0.00</temp>
<bpm>0</bpm>
<rpm>0.00</rpm>
</extensions>
</trkpt>
<trkpt lat="30.822376251" lon="34.741416931">
<ele>606.718750</ele>
<time>2013-11-21T11:57:19Z</time>
<speed>0.020000</speed>
<extensions>
<speed>0.0</speed>
<temp>0.00</temp>
<bpm>0</bpm>
<rpm>0.00</rpm>
</extensions>
</trkpt>
<trkpt lat="30.822376251" lon="34.741420746">
<ele>606.718750</ele>
<time>2013-11-21T11:57:24Z</time>
<speed>0.020000</speed>
<extensions>
<speed>0.0</speed>
<temp>0.00</temp>
<bpm>0</bpm>
<rpm>0.00</rpm>
</extensions>
</trkpt>
<trkpt lat="30.822376251" lon="34.741420746">
<ele>606.671875</ele>
<time>2013-11-21T11:57:29Z</time>
<speed>0.010000</speed>
<extensions>
<speed>0.0</speed>
<temp>0.00</temp>
<bpm>0</bpm>
<rpm>0.00</rpm>
</extensions>
</trkpt>
<trkpt lat="30.822376251" lon="34.741420746">
<ele>606.656250</ele>
<time>2013-11-21T11:57:34Z</time>
<speed>0.020000</speed>
<extensions>
<speed>0.0</speed>
<temp>0.00</temp>
<bpm>0</bpm>
<rpm>0.00</rpm>
</extensions>
</trkpt>
<trkpt lat="30.822378159" lon="34.741420746">
<ele>606.625000</ele>
<time>2013-11-21T11:57:39Z</time>
<extensions>
<speed>0.0</speed>
<temp>0.00</temp>
<bpm>0</bpm>
<rpm>0.00</rpm>
</extensions>
</trkpt>
<trkpt lat="30.822378159" lon="34.741420746">
<ele>606.625000</ele>
<time>2013-11-21T11:57:44Z</time>
<extensions>
<speed>0.0</speed>
<temp>0.00</temp>
<bpm>0</bpm>
<rpm>0.00</rpm>
</extensions>
</trkpt>
<trkpt lat="30.822378159" lon="34.741420746">
<ele>606.593750</ele>
<time>2013-11-21T11:57:49Z</time>
<speed>0.020000</speed>
<extensions>
<speed>0.0</speed>
<temp>0.00</temp>
<bpm>0</bpm>
<rpm>0.00</rpm>
</extensions>
</trkpt>
<trkpt lat="30.822380066" lon="34.741420746">
<ele>606.546875</ele>
<time>2013-11-21T11:57:54Z</time>
<speed>0.020000</speed>
<extensions>
<speed>0.0</speed>
<temp>0.00</temp>
<bpm>0</bpm>
<rpm>0.00</rpm>
</extensions>
</trkpt>
<trkpt lat="30.822380066" lon="34.741420746">
<ele>606.531250</ele>
<time>2013-11-21T11:57:59Z</time>
<speed>0.030000</speed>
<extensions>
<speed>0.0</speed>
<temp>0.00</temp>
<bpm>0</bpm>
<rpm>0.00</rpm>
</extensions>
</trkpt>
<trkpt lat="30.822380066" lon="34.741420746">
<ele>606.515625</ele>
<time>2013-11-21T11:58:04Z</time>
<speed>0.020000</speed>
<extensions>
<speed>0.0</speed>
<temp>0.00</temp>
<bpm>0</bpm>
<rpm>0.00</rpm>
</extensions>
</trkpt>
<trkpt lat="30.822381973" lon="34.741420746">
<ele>606.484375</ele>
<time>2013-11-21T11:58:09Z</time>
<speed>0.020000</speed>
<extensions>
<speed>0.0</speed>
<temp>0.00</temp>
<bpm>0</bpm>
<rpm>0.00</rpm>
</extensions>
</trkpt>
<trkpt lat="30.822381973" lon="34.741420746">
<ele>606.468750</ele>
<time>2013-11-21T11:58:14Z</time>
<speed>0.010000</speed>
<extensions>
<speed>0.0</speed>
<temp>0.00</temp>
<bpm>0</bpm>
<rpm>0.00</rpm>
</extensions>
</trkpt>
<trkpt lat="30.822381973" lon="34.741420746">
<ele>606.437500</ele>
<time>2013-11-21T11:58:19Z</time>
<extensions>
<speed>0.0</speed>
<temp>0.00</temp>
<bpm>0</bpm>
<rpm>0.00</rpm>
</extensions>
</trkpt>
<trkpt lat="30.822383881" lon="34.741420746">
<ele>606.406250</ele>
<time>2013-11-21T11:58:24Z</time>
<speed>0.020000</speed>
<extensions>
<speed>0.0</speed>
<temp>0.00</temp>
<bpm>0</bpm>
<rpm>0.00</rpm>
</extensions>
</trkpt>
<trkpt lat="30.822383881" lon="34.741420746">
<ele>606.390625</ele>
<time>2013-11-21T11:58:29Z</time>
<speed>0.020000</speed>
<extensions>
<speed>0.0</speed>
<temp>0.00</temp>
<bpm>0</bpm>
<rpm>0.00</rpm>
</extensions>
</trkpt>
<trkpt lat="30.822383881" lon="34.741420746">
<ele>606.359375</ele>
<time>2013-11-21T11:58:34Z</time>
<extensions>
<speed>0.0</speed>
<temp>0.00</temp>
<bpm>0</bpm>
<rpm>0.00</rpm>
</extensions>
</trkpt>
<trkpt lat="30.822383881" lon="34.741420746">
<ele>606.328125</ele>
<time>2013-11-21T11:58:39Z</time>
<speed>0.010000</speed>
<extensions>
<speed>0.0</speed>
<temp>0.00</temp>
<bpm>0</bpm>
<rpm>0.00</rpm>
</extensions>
</trkpt>
<trkpt lat="30.822385788" lon="34.741424561">
<ele>606.296875</ele>
<time>2013-11-21T11:58:44Z</time>
<speed>0.010000</speed>
<extensions>
<speed>0.0</speed>
<temp>0.00</temp>
<bpm>0</bpm>
<rpm>0.00</rpm>
</extensions>
</trkpt>
<trkpt lat="30.822385788" lon="34.741424561">
<ele>606.265625</ele>
<time>2013-11-21T11:58:49Z</time>
<speed>0.010000</speed>
<extensions>
<speed>0.0</speed>
<temp>0.00</temp>
<bpm>0</bpm>
<rpm>0.00</rpm>
</extensions>
</trkpt>
<trkpt lat="30.822385788" lon="34.741424561">
<ele>606.234375</ele>
<time>2013-11-21T11:58:54Z</time>
<speed>0.030000</speed>
<extensions>
<speed>0.0</speed>
<temp>0.00</temp>
<bpm>0</bpm>
<rpm>0.00</rpm>
</extensions>
</trkpt>
<trkpt lat="30.822387695" lon="34.741424561">
<ele>606.218750</ele>
<time>2013-11-21T11:58:59Z</time>
<speed>0.010000</speed>
<extensions>
<speed>0.0</speed>
<temp>0.00</temp>
<bpm>0</bpm>
<rpm>0.00</rpm>
</extensions>
</trkpt>
<trkpt lat="30.822387695" lon="34.741424561">
<ele>606.187500</ele>
<time>2013-11-21T11:59:04Z</time>
<extensions>
<speed>0.0</speed>
<temp>0.00</temp>
<bpm>0</bpm>
<rpm>0.00</rpm>
</extensions>
</trkpt>
<trkpt lat="30.822387695" lon="34.741424561">
<ele>606.171875</ele>
<time>2013-11-21T11:59:09Z</time>
<speed>0.050000</speed>
<extensions>
<speed>0.1</speed>
<temp>0.00</temp>
<bpm>0</bpm>
<rpm>0.00</rpm>
</extensions>
</trkpt>
<trkpt lat="30.822387695" lon="34.741424561">
<ele>606.125000</ele>
<time>2013-11-21T11:59:14Z</time>
<speed>0.070000</speed>
<extensions>
<speed>0.1</speed>
<temp>0.00</temp>
<bpm>0</bpm>
<rpm>0.00</rpm>
</extensions>
</trkpt>
<trkpt lat="30.822387695" lon="34.741424561">
<ele>606.093750</ele>
<time>2013-11-21T11:59:19Z</time>
<speed>0.040000</speed>
<extensions>
<speed>0.0</speed>
<temp>0.00</temp>
<bpm>0</bpm>
<rpm>0.00</rpm>
</extensions>
</trkpt>
<trkpt lat="30.822389603" lon="34.741420746">
<ele>606.078125</ele>
<time>2013-11-21T11:59:24Z</time>
<speed>0.280000</speed>
<extensions>
<speed>0.3</speed>
<temp>0.00</temp>
<bpm>0</bpm>
<rpm>0.00</rpm>
</extensions>
</trkpt>
<trkpt lat="30.822441101" lon="34.741378784">
<ele>604.890625</ele>
<time>2013-11-21T11:59:29Z</time>
<speed>1.890000</speed>
<extensions>
<speed>1.9</speed>
<temp>0.00</temp>
<bpm>0</bpm>
<rpm>0.00</rpm>
</extensions>
</trkpt>
<trkpt lat="30.822490692" lon="34.741233826">
<ele>603.203125</ele>
<time>2013-11-21T11:59:34Z</time>
<speed>2.090000</speed>
<extensions>
<speed>2.1</speed>
<temp>0.00</temp>
<bpm>0</bpm>
<rpm>0.00</rpm>
</extensions>
</trkpt>
<trkpt lat="30.822584152" lon="34.741111755">
<ele>601.046875</ele>
<time>2013-11-21T11:59:39Z</time>
<speed>3.010000</speed>
<extensions>
<speed>3.0</speed>
<temp>0.00</temp>
<bpm>0</bpm>
<rpm>0.00</rpm>
</extensions>
</trkpt>
<trkpt lat="30.822681427" lon="34.741027832">
<ele>600.234375</ele>
<time>2013-11-21T11:59:44Z</time>
<speed>1.270000</speed>
<extensions>
<speed>1.3</speed>
<temp>0.00</temp>
<bpm>0</bpm>
<rpm>0.00</rpm>
</extensions>
</trkpt>
<trkpt lat="30.822774887" lon="34.740917206">
<ele>599.812500</ele>
<time>2013-11-21T11:59:49Z</time>
<speed>1.850000</speed>
<extensions>
<speed>1.8</speed>
<temp>0.00</temp>
<bpm>0</bpm>
<rpm>0.00</rpm>
</extensions>
</trkpt>
<trkpt lat="30.822902679" lon="34.740905762">
<ele>601.031250</ele>
<time>2013-11-21T11:59:54Z</time>
<speed>3.070000</speed>
<extensions>
<speed>3.1</speed>
<temp>0.00</temp>
<bpm>0</bpm>
<rpm>0.00</rpm>
</extensions>
</trkpt>
<trkpt lat="30.823102951" lon="34.740921021">
<ele>601.687500</ele>
<time>2013-11-21T11:59:59Z</time>
<speed>4.050000</speed>
<extensions>
<speed>4.0</speed>
<temp>0.00</temp>
<bpm>0</bpm>
<rpm>0.00</rpm>
</extensions>
</trkpt>
<trkpt lat="30.823335648" lon="34.740970612">
<ele>600.640625</ele>
<time>2013-11-21T12:00:04Z</time>
<speed>4.840000</speed>
<extensions>
<speed>4.8</speed>
<temp>0.00</temp>
<bpm>0</bpm>
<rpm>0.00</rpm>
</extensions>
</trkpt>
<trkpt lat="30.823564529" lon="34.741046906">
<ele>599.578125</ele>
<time>2013-11-21T12:00:09Z</time>
<speed>5.760000</speed>
<extensions>
<speed>5.8</speed>
<temp>0.00</temp>
<bpm>0</bpm>
<rpm>0.00</rpm>
</extensions>
</trkpt>
<trkpt lat="30.823770523" lon="34.741245270">
<ele>599.593750</ele>
<time>2013-11-21T12:00:14Z</time>
<speed>4.800000</speed>
<extensions>
<speed>4.8</speed>
<temp>0.00</temp>
<bpm>0</bpm>
<rpm>0.00</rpm>
</extensions>
</trkpt>
<trkpt lat="30.823894501" lon="34.741416931">
<ele>602.156250</ele>
<time>2013-11-21T12:00:19Z</time>
<speed>2.550000</speed>
<extensions>
<speed>2.6</speed>
<temp>0.00</temp>
<bpm>0</bpm>
<rpm>0.00</rpm>
</extensions>
</trkpt>
<trkpt lat="30.823951721" lon="34.741504669">
<ele>603.109375</ele>
<time>2013-11-21T12:00:24Z</time>
<speed>2.390000</speed>
<extensions>
<speed>2.4</speed>
<temp>0.00</temp>
<bpm>0</bpm>
<rpm>0.00</rpm>
</extensions>
</trkpt>
<trkpt lat="30.823993683" lon="34.741592407">
<ele>603.312500</ele>
<time>2013-11-21T12:00:29Z</time>
<speed>1.950000</speed>
<extensions>
<speed>1.9</speed>
<temp>0.00</temp>
<bpm>0</bpm>
<rpm>0.00</rpm>
</extensions>
</trkpt>
<trkpt lat="30.824052811" lon="34.741710663">
<ele>603.234375</ele>
<time>2013-11-21T12:00:34Z</time>
<speed>3.270000</speed>
<extensions>
<speed>3.3</speed>
<temp>0.00</temp>
<bpm>0</bpm>
<rpm>0.00</rpm>
</extensions>
</trkpt>
<trkpt lat="30.824123383" lon="34.741878510">
<ele>604.234375</ele>
<time>2013-11-21T12:00:39Z</time>
<speed>3.670000</speed>
<extensions>
<speed>3.7</speed>
<temp>0.00</temp>
<bpm>0</bpm>
<rpm>0.00</rpm>
</extensions>
</trkpt>
<trkpt lat="30.824205399" lon="34.742050171">
<ele>605.218750</ele>
<time>2013-11-21T12:00:44Z</time>
<speed>4.090000</speed>
<extensions>
<speed>4.1</speed>
<temp>0.00</temp>
<bpm>0</bpm>
<rpm>0.00</rpm>
</extensions>
</trkpt>
<trkpt lat="30.824304581" lon="34.742210388">
<ele>605.656250</ele>
<time>2013-11-21T12:00:49Z</time>
<speed>3.740000</speed>
<extensions>
<speed>3.7</speed>
<temp>0.00</temp>
<bpm>0</bpm>
<rpm>0.00</rpm>
</extensions>
</trkpt>
<trkpt lat="30.824363708" lon="34.742359161">
<ele>606.531250</ele>
<time>2013-11-21T12:00:54Z</time>
<speed>3.320000</speed>
<extensions>
<speed>3.3</speed>
<temp>0.00</temp>
<bpm>0</bpm>
<rpm>0.00</rpm>
</extensions>
</trkpt>
<trkpt lat="30.824478149" lon="34.742515564">
<ele>603.656250</ele>
<time>2013-11-21T12:00:59Z</time>
<speed>4.590000</speed>
<extensions>
<speed>4.6</speed>
<temp>0.00</temp>
<bpm>0</bpm>
<rpm>0.00</rpm>
</extensions>
</trkpt>
<trkpt lat="30.824615479" lon="34.742691040">
<ele>600.250000</ele>
<time>2013-11-21T12:01:04Z</time>
<speed>4.640000</speed>
<extensions>
<speed>4.6</speed>
<temp>0.00</temp>
<bpm>0</bpm>
<rpm>0.00</rpm>
</extensions>
</trkpt>
<trkpt lat="30.824760437" lon="34.742809296">
<ele>594.625000</ele>
<time>2013-11-21T12:01:09Z</time>
<speed>0.950000</speed>
<extensions>
<speed>1.0</speed>
<temp>0.00</temp>
<bpm>0</bpm>
<rpm>0.00</rpm>
</extensions>
</trkpt>
<trkpt lat="30.824750900" lon="34.742801666">
<ele>595.015625</ele>
<time>2013-11-21T12:01:14Z</time>
<speed>0.060000</speed>
<extensions>
<speed>0.1</speed>
<temp>0.00</temp>
<bpm>0</bpm>
<rpm>0.00</rpm>
</extensions>
</trkpt>
<trkpt lat="30.824752808" lon="34.742797852">
<ele>595.062500</ele>
<time>2013-11-21T12:01:19Z</time>
<speed>0.210000</speed>
<extensions>
<speed>0.2</speed>
<temp>0.00</temp>
<bpm>0</bpm>
<rpm>0.00</rpm>
</extensions>
</trkpt>
<trkpt lat="30.824752808" lon="34.742797852">
<ele>595.046875</ele>
<time>2013-11-21T12:01:24Z</time>
<speed>0.060000</speed>
<extensions>
<speed>0.1</speed>
<temp>0.00</temp>
<bpm>0</bpm>
<rpm>0.00</rpm>
</extensions>
</trkpt>
<trkpt lat="30.824748993" lon="34.742809296">
<ele>595.015625</ele>
<time>2013-11-21T12:01:29Z</time>
<speed>0.250000</speed>
<extensions>
<speed>0.2</speed>
<temp>0.00</temp>
<bpm>0</bpm>
<rpm>0.00</rpm>
</extensions>
</trkpt>
<trkpt lat="30.824748993" lon="34.742813110">
<ele>595.000000</ele>
<time>2013-11-21T12:01:34Z</time>
<speed>0.030000</speed>
<extensions>
<speed>0.0</speed>
<temp>0.00</temp>
<bpm>0</bpm>
<rpm>0.00</rpm>
</extensions>
</trkpt>
<trkpt lat="30.824748993" lon="34.742816925">
<ele>594.953125</ele>
<time>2013-11-21T12:01:39Z</time>
<speed>0.240000</speed>
<extensions>
<speed>0.2</speed>
<temp>0.00</temp>
<bpm>0</bpm>
<rpm>0.00</rpm>
</extensions>
</trkpt>
<trkpt lat="30.824813843" lon="34.742855072">
<ele>595.281250</ele>
<time>2013-11-21T12:01:44Z</time>
<speed>2.440000</speed>
<extensions>
<speed>2.4</speed>
<temp>0.00</temp>
<bpm>0</bpm>
<rpm>0.00</rpm>
</extensions>
</trkpt>
<trkpt lat="30.824926376" lon="34.742973328">
<ele>594.390625</ele>
<time>2013-11-21T12:01:49Z</time>
<speed>3.690000</speed>
<extensions>
<speed>3.7</speed>
<temp>0.00</temp>
<bpm>0</bpm>
<rpm>0.00</rpm>
</extensions>
</trkpt>
<trkpt lat="30.825077057" lon="34.743080139">
<ele>592.937500</ele>
<time>2013-11-21T12:01:54Z</time>
<speed>4.450000</speed>
<extensions>
<speed>4.5</speed>
<temp>0.00</temp>
<bpm>0</bpm>
<rpm>0.00</rpm>
</extensions>
</trkpt>
<trkpt lat="30.825237274" lon="34.743095398">
<ele>589.812500</ele>
<time>2013-11-21T12:01:59Z</time>
<speed>2.590000</speed>
<extensions>
<speed>2.6</speed>
<temp>0.00</temp>
<bpm>0</bpm>
<rpm>0.00</rpm>
</extensions>
</trkpt>
<trkpt lat="30.825389862" lon="34.743114471">
<ele>585.250000</ele>
<time>2013-11-21T12:02:04Z</time>
<speed>3.530000</speed>
<extensions>
<speed>3.5</speed>
<temp>0.00</temp>
<bpm>0</bpm>
<rpm>0.00</rpm>
</extensions>
</trkpt>
<trkpt lat="30.825569153" lon="34.743152618">
<ele>579.687500</ele>
<time>2013-11-21T12:02:09Z</time>
<speed>4.660000</speed>
<extensions>
<speed>4.7</speed>
<temp>0.00</temp>
<bpm>0</bpm>
<rpm>0.00</rpm>
</extensions>
</trkpt>
<trkpt lat="30.825746536" lon="34.743228912">
<ele>577.609375</ele>
<time>2013-11-21T12:02:14Z</time>
<speed>4.210000</speed>
<extensions>
<speed>4.2</speed>
<temp>0.00</temp>
<bpm>0</bpm>
<rpm>0.00</rpm>
</extensions>
</trkpt>
<trkpt lat="30.825910568" lon="34.743347168">
<ele>577.500000</ele>
<time>2013-11-21T12:02:19Z</time>
<speed>4.320000</speed>
<extensions>
<speed>4.3</speed>
<temp>0.00</temp>
<bpm>0</bpm>
<rpm>0.00</rpm>
</extensions>
</trkpt>
<trkpt lat="30.826032639" lon="34.743602753">
<ele>576.218750</ele>
<time>2013-11-21T12:02:24Z</time>
<speed>6.780000</speed>
<extensions>
<speed>6.8</speed>
<temp>0.00</temp>
<bpm>0</bpm>
<rpm>0.00</rpm>
</extensions>
</trkpt>
<trkpt lat="30.826141357" lon="34.743976593">
<ele>573.250000</ele>
<time>2013-11-21T12:02:29Z</time>
<speed>8.290000</speed>
<extensions>
<speed>8.3</speed>
<temp>0.00</temp>
<bpm>0</bpm>
<rpm>0.00</rpm>
</extensions>
</trkpt>
<trkpt lat="30.826223373" lon="34.744365692">
<ele>571.671875</ele>
<time>2013-11-21T12:02:34Z</time>
<speed>7.450000</speed>
<extensions>
<speed>7.4</speed>
<temp>0.00</temp>
<bpm>0</bpm>
<rpm>0.00</rpm>
</extensions>
</trkpt>
<trkpt lat="30.826278687" lon="34.744686127">
<ele>570.765625</ele>
<time>2013-11-21T12:02:39Z</time>
<speed>4.290000</speed>
<extensions>
<speed>4.3</speed>
<temp>0.00</temp>
<bpm>0</bpm>
<rpm>0.00</rpm>
</extensions>
</trkpt>
<trkpt lat="30.826250076" lon="34.744770050">
<ele>571.312500</ele>
<time>2013-11-21T12:02:44Z</time>
<speed>1.670000</speed>
<extensions>
<speed>1.7</speed>
<temp>0.00</temp>
<bpm>0</bpm>
<rpm>0.00</rpm>
</extensions>
</trkpt>
<trkpt lat="30.826276779" lon="34.744857788">
<ele>569.562500</ele>
<time>2013-11-21T12:02:49Z</time>
<speed>2.510000</speed>
<extensions>
<speed>2.5</speed>
<temp>0.00</temp>
<bpm>0</bpm>
<rpm>0.00</rpm>
</extensions>
</trkpt>
<trkpt lat="30.826305389" lon="34.744998932">
<ele>569.687500</ele>
<time>2013-11-21T12:02:54Z</time>
<speed>3.340000</speed>
<extensions>
<speed>3.3</speed>
<temp>0.00</temp>
<bpm>0</bpm>
<rpm>0.00</rpm>
</extensions>
</trkpt>
<trkpt lat="30.826309204" lon="34.745201111">
<ele>568.984375</ele>
<time>2013-11-21T12:02:59Z</time>
<speed>4.440000</speed>
<extensions>
<speed>4.4</speed>
<temp>0.00</temp>
<bpm>0</bpm>
<rpm>0.00</rpm>
</extensions>
</trkpt>
<trkpt lat="30.826297760" lon="34.745464325">
<ele>567.375000</ele>
<time>2013-11-21T12:03:04Z</time>
<speed>4.850000</speed>
<extensions>
<speed>4.8</speed>
<temp>0.00</temp>
<bpm>0</bpm>
<rpm>0.00</rpm>
</extensions>
</trkpt>
<trkpt lat="30.826257706" lon="34.745723724">
<ele>566.812500</ele>
<time>2013-11-21T12:03:09Z</time>
<speed>5.100000</speed>
<extensions>
<speed>5.1</speed>
<temp>0.00</temp>
<bpm>0</bpm>
<rpm>0.00</rpm>
</extensions>
</trkpt>
<trkpt lat="30.826208115" lon="34.745986938">
<ele>567.937500</ele>
<time>2013-11-21T12:03:14Z</time>
<speed>5.660000</speed>
<extensions>
<speed>5.7</speed>
<temp>0.00</temp>
<bpm>0</bpm>
<rpm>0.00</rpm>
</extensions>
</trkpt>
<trkpt lat="30.826238632" lon="34.746311188">
<ele>566.953125</ele>
<time>2013-11-21T12:03:19Z</time>
<speed>5.650000</speed>
<extensions>
<speed>5.7</speed>
<temp>0.00</temp>
<bpm>0</bpm>
<rpm>0.00</rpm>
</extensions>
</trkpt>
<trkpt lat="30.826293945" lon="34.746589661">
<ele>568.312500</ele>
<time>2013-11-21T12:03:24Z</time>
<speed>5.210000</speed>
<extensions>
<speed>5.2</speed>
<temp>0.00</temp>
<bpm>0</bpm>
<rpm>0.00</rpm>
</extensions>
</trkpt>
<trkpt lat="30.826379776" lon="34.746856689">
<ele>566.593750</ele>
<time>2013-11-21T12:03:29Z</time>
<speed>6.200000</speed>
<extensions>
<speed>6.2</speed>
<temp>0.00</temp>
<bpm>0</bpm>
<rpm>0.00</rpm>
</extensions>
</trkpt>
<trkpt lat="30.826478958" lon="34.747161865">
<ele>563.671875</ele>
<time>2013-11-21T12:03:34Z</time>
<speed>5.830000</speed>
<extensions>
<speed>5.8</speed>
<temp>0.00</temp>
<bpm>0</bpm>
<rpm>0.00</rpm>
</extensions>
</trkpt>
<trkpt lat="30.826673508" lon="34.747402191">
<ele>559.343750</ele>
<time>2013-11-21T12:03:39Z</time>
<speed>6.360000</speed>
<extensions>
<speed>6.4</speed>
<temp>0.00</temp>
<bpm>0</bpm>
<rpm>0.00</rpm>
</extensions>
</trkpt>
<trkpt lat="30.826923370" lon="34.747623444">
<ele>551.687500</ele>
<time>2013-11-21T12:03:44Z</time>
<speed>5.890000</speed>
<extensions>
<speed>5.9</speed>
<temp>0.00</temp>
<bpm>0</bpm>
<rpm>0.00</rpm>
</extensions>
</trkpt>
<trkpt lat="30.827022552" lon="34.747817993">
<ele>549.015625</ele>
<time>2013-11-21T12:03:49Z</time>
<speed>3.600000</speed>
<extensions>
<speed>3.6</speed>
<temp>0.00</temp>
<bpm>0</bpm>
<rpm>0.00</rpm>
</extensions>
</trkpt>
<trkpt lat="30.826959610" lon="34.747898102">
<ele>547.734375</ele>
<time>2013-11-21T12:03:54Z</time>
<speed>0.060000</speed>
<extensions>
<speed>0.1</speed>
<temp>0.00</temp>
<bpm>0</bpm>
<rpm>0.00</rpm>
</extensions>
</trkpt>
<trkpt lat="30.826940536" lon="34.747882843">
<ele>549.187500</ele>
<time>2013-11-21T12:03:59Z</time>
<speed>0.220000</speed>
<extensions>
<speed>0.2</speed>
<temp>0.00</temp>
<bpm>0</bpm>
<rpm>0.00</rpm>
</extensions>
</trkpt>
<trkpt lat="30.826932907" lon="34.747875214">
<ele>549.171875</ele>
<time>2013-11-21T12:04:04Z</time>
<speed>0.270000</speed>
<extensions>
<speed>0.3</speed>
<temp>0.00</temp>
<bpm>0</bpm>
<rpm>0.00</rpm>
</extensions>
</trkpt>
<trkpt lat="30.826925278" lon="34.747859955">
<ele>549.156250</ele>
<time>2013-11-21T12:04:09Z</time>
<speed>0.260000</speed>
<extensions>
<speed>0.3</speed>
<temp>0.00</temp>
<bpm>0</bpm>
<rpm>0.00</rpm>
</extensions>
</trkpt>
<trkpt lat="30.826923370" lon="34.747856140">
<ele>549.187500</ele>
<time>2013-11-21T12:04:14Z</time>
<speed>0.130000</speed>
<extensions>
<speed>0.1</speed>
<temp>0.00</temp>
<bpm>0</bpm>
<rpm>0.00</rpm>
</extensions>
</trkpt>
<trkpt lat="30.826913834" lon="34.747863770">
<ele>549.234375</ele>
<time>2013-11-21T12:04:19Z</time>
<speed>0.870000</speed>
<extensions>
<speed>0.9</speed>
<temp>0.00</temp>
<bpm>0</bpm>
<rpm>0.00</rpm>
</extensions>
</trkpt>
<trkpt lat="30.826854706" lon="34.747970581">
<ele>549.437500</ele>
<time>2013-11-21T12:04:24Z</time>
<speed>3.380000</speed>
<extensions>
<speed>3.4</speed>
<temp>0.00</temp>
<bpm>0</bpm>
<rpm>0.00</rpm>
</extensions>
</trkpt>
<trkpt lat="30.826749802" lon="34.748092651">
<ele>549.437500</ele>
<time>2013-11-21T12:04:29Z</time>
<speed>3.020000</speed>
<extensions>
<speed>3.0</speed>
<temp>0.00</temp>
<bpm>0</bpm>
<rpm>0.00</rpm>
</extensions>
</trkpt>
<trkpt lat="30.826601028" lon="34.748279572">
<ele>549.484375</ele>
<time>2013-11-21T12:04:34Z</time>
<speed>5.580000</speed>
<extensions>
<speed>5.6</speed>
<temp>0.00</temp>
<bpm>0</bpm>
<rpm>0.00</rpm>
</extensions>
</trkpt>
<trkpt lat="30.826438904" lon="34.748458862">
<ele>550.062500</ele>
<time>2013-11-21T12:04:39Z</time>
<speed>4.630000</speed>
<extensions>
<speed>4.6</speed>
<temp>0.00</temp>
<bpm>0</bpm>
<rpm>0.00</rpm>
</extensions>
</trkpt>
<trkpt lat="30.826232910" lon="34.748664856">
<ele>550.750000</ele>
<time>2013-11-21T12:04:44Z</time>
<speed>5.390000</speed>
<extensions>
<speed>5.4</speed>
<temp>0.00</temp>
<bpm>0</bpm>
<rpm>0.00</rpm>
</extensions>
</trkpt>
<trkpt lat="30.826059341" lon="34.748874664">
<ele>551.765625</ele>
<time>2013-11-21T12:04:49Z</time>
<speed>5.240000</speed>
<extensions>
<speed>5.2</speed>
<temp>0.00</temp>
<bpm>0</bpm>
<rpm>0.00</rpm>
</extensions>
</trkpt>
<trkpt lat="30.825853348" lon="34.749084473">
<ele>552.843750</ele>
<time>2013-11-21T12:04:54Z</time>
<speed>6.340000</speed>
<extensions>
<speed>6.3</speed>
<temp>0.00</temp>
<bpm>0</bpm>
<rpm>0.00</rpm>
</extensions>
</trkpt>
<trkpt lat="30.825632095" lon="34.749286652">
<ele>555.218750</ele>
<time>2013-11-21T12:04:59Z</time>
<speed>5.530000</speed>
<extensions>
<speed>5.5</speed>
<temp>0.00</temp>
<bpm>0</bpm>
<rpm>0.00</rpm>
</extensions>
</trkpt>
<trkpt lat="30.825433731" lon="34.749481201">
<ele>557.078125</ele>
<time>2013-11-21T12:05:04Z</time>
<speed>5.500000</speed>
<extensions>
<speed>5.5</speed>
<temp>0.00</temp>
<bpm>0</bpm>
<rpm>0.00</rpm>
</extensions>
</trkpt>
<trkpt lat="30.825242996" lon="34.749660492">
<ele>557.625000</ele>
<time>2013-11-21T12:05:09Z</time>
<speed>5.770000</speed>
<extensions>
<speed>5.8</speed>
<temp>0.00</temp>
<bpm>0</bpm>
<rpm>0.00</rpm>
</extensions>
</trkpt>
<trkpt lat="30.825025558" lon="34.749870300">
<ele>558.218750</ele>
<time>2013-11-21T12:05:14Z</time>
<speed>6.480000</speed>
<extensions>
<speed>6.5</speed>
<temp>0.00</temp>
<bpm>0</bpm>
<rpm>0.00</rpm>
</extensions>
</trkpt>
<trkpt lat="30.824766159" lon="34.750102997">
<ele>557.703125</ele>
<time>2013-11-21T12:05:19Z</time>
<speed>7.660000</speed>
<extensions>
<speed>7.7</speed>
<temp>0.00</temp>
<bpm>0</bpm>
<rpm>0.00</rpm>
</extensions>
</trkpt>
<trkpt lat="30.824474335" lon="34.750335693">
<ele>556.578125</ele>
<time>2013-11-21T12:05:24Z</time>
<speed>7.430000</speed>
<extensions>
<speed>7.4</speed>
<temp>0.00</temp>
<bpm>0</bpm>
<rpm>0.00</rpm>
</extensions>
</trkpt>
<trkpt lat="30.824195862" lon="34.750553131">
<ele>555.359375</ele>
<time>2013-11-21T12:05:29Z</time>
<speed>7.910000</speed>
<extensions>
<speed>7.9</speed>
<temp>0.00</temp>
<bpm>0</bpm>
<rpm>0.00</rpm>
</extensions>
</trkpt>
<trkpt lat="30.823942184" lon="34.750762939">
<ele>555.906250</ele>
<time>2013-11-21T12:05:34Z</time>
<speed>6.020000</speed>
<extensions>
<speed>6.0</speed>
<temp>0.00</temp>
<bpm>0</bpm>
<rpm>0.00</rpm>
</extensions>
</trkpt>
<trkpt lat="30.823736191" lon="34.750907898">
<ele>555.390625</ele>
<time>2013-11-21T12:05:39Z</time>
<speed>4.340000</speed>
<extensions>
<speed>4.3</speed>
<temp>0.00</temp>
<bpm>0</bpm>
<rpm>0.00</rpm>
</extensions>
</trkpt>
<trkpt lat="30.823604584" lon="34.750995636">
<ele>552.234375</ele>
<time>2013-11-21T12:05:44Z</time>
<speed>3.150000</speed>
<extensions>
<speed>3.2</speed>
<temp>0.00</temp>
<bpm>0</bpm>
<rpm>0.00</rpm>
</extensions>
</trkpt>
<trkpt lat="30.823465347" lon="34.751087189">
<ele>551.328125</ele>
<time>2013-11-21T12:05:49Z</time>
<speed>4.350000</speed>
<extensions>
<speed>4.3</speed>
<temp>0.00</temp>
<bpm>0</bpm>
<rpm>0.00</rpm>
</extensions>
</trkpt>
<trkpt lat="30.823308945" lon="34.751201630">
<ele>551.906250</ele>
<time>2013-11-21T12:05:54Z</time>
<speed>3.960000</speed>
<extensions>
<speed>4.0</speed>
<temp>0.00</temp>
<bpm>0</bpm>
<rpm>0.00</rpm>
</extensions>
</trkpt>
<trkpt lat="30.823141098" lon="34.751308441">
<ele>551.703125</ele>
<time>2013-11-21T12:05:59Z</time>
<speed>4.580000</speed>
<extensions>
<speed>4.6</speed>
<temp>0.00</temp>
<bpm>0</bpm>
<rpm>0.00</rpm>
</extensions>
</trkpt>
<trkpt lat="30.822967529" lon="34.751419067">
<ele>552.687500</ele>
<time>2013-11-21T12:06:04Z</time>
<speed>4.560000</speed>
<extensions>
<speed>4.6</speed>
<temp>0.00</temp>
<bpm>0</bpm>
<rpm>0.00</rpm>
</extensions>
</trkpt>
<trkpt lat="30.822769165" lon="34.751533508">
<ele>555.234375</ele>
<time>2013-11-21T12:06:09Z</time>
<speed>4.460000</speed>
<extensions>
<speed>4.5</speed>
<temp>0.00</temp>
<bpm>0</bpm>
<rpm>0.00</rpm>
</extensions>
</trkpt>
<trkpt lat="30.822589874" lon="34.751632690">
<ele>554.468750</ele>
<time>2013-11-21T12:06:14Z</time>
<speed>3.900000</speed>
<extensions>
<speed>3.9</speed>
<temp>0.00</temp>
<bpm>0</bpm>
<rpm>0.00</rpm>
</extensions>
</trkpt>
<trkpt lat="30.822435379" lon="34.751754761">
<ele>554.953125</ele>
<time>2013-11-21T12:06:19Z</time>
<speed>4.230000</speed>
<extensions>
<speed>4.2</speed>
<temp>0.00</temp>
<bpm>0</bpm>
<rpm>0.00</rpm>
</extensions>
</trkpt>
<trkpt lat="30.822275162" lon="34.751903534">
<ele>553.953125</ele>
<time>2013-11-21T12:06:24Z</time>
<speed>4.570000</speed>
<extensions>
<speed>4.6</speed>
<temp>0.00</temp>
<bpm>0</bpm>
<rpm>0.00</rpm>
</extensions>
</trkpt>
<trkpt lat="30.822130203" lon="34.752025604">
<ele>553.750000</ele>
<time>2013-11-21T12:06:29Z</time>
<speed>3.840000</speed>
<extensions>
<speed>3.8</speed>
<temp>0.00</temp>
<bpm>0</bpm>
<rpm>0.00</rpm>
</extensions>
</trkpt>
<trkpt lat="30.822000504" lon="34.752136230">
<ele>551.046875</ele>
<time>2013-11-21T12:06:34Z</time>
<speed>3.870000</speed>
<extensions>
<speed>3.9</speed>
<temp>0.00</temp>
<bpm>0</bpm>
<rpm>0.00</rpm>
</extensions>
</trkpt>
<trkpt lat="30.821874619" lon="34.752288818">
<ele>551.578125</ele>
<time>2013-11-21T12:06:39Z</time>
<speed>3.760000</speed>
<extensions>
<speed>3.8</speed>
<temp>0.00</temp>
<bpm>0</bpm>
<rpm>0.00</rpm>
</extensions>
</trkpt>
<trkpt lat="30.821731567" lon="34.752437592">
<ele>549.812500</ele>
<time>2013-11-21T12:06:44Z</time>
<speed>4.580000</speed>
<extensions>
<speed>4.6</speed>
<temp>0.00</temp>
<bpm>0</bpm>
<rpm>0.00</rpm>
</extensions>
</trkpt>
<trkpt lat="30.821546555" lon="34.752578735">
<ele>547.375000</ele>
<time>2013-11-21T12:06:49Z</time>
<speed>5.550000</speed>
<extensions>
<speed>5.5</speed>
<temp>0.00</temp>
<bpm>0</bpm>
<rpm>0.00</rpm>
</extensions>
</trkpt>
<trkpt lat="30.821321487" lon="34.752750397">
<ele>545.578125</ele>
<time>2013-11-21T12:06:54Z</time>
<speed>6.340000</speed>
<extensions>
<speed>6.3</speed>
<temp>0.00</temp>
<bpm>0</bpm>
<rpm>0.00</rpm>
</extensions>
</trkpt>
<trkpt lat="30.821065903" lon="34.752948761">
<ele>543.187500</ele>
<time>2013-11-21T12:06:59Z</time>
<speed>6.850000</speed>
<extensions>
<speed>6.8</speed>
<temp>0.00</temp>
<bpm>0</bpm>
<rpm>0.00</rpm>
</extensions>
</trkpt>
<trkpt lat="30.820827484" lon="34.753150940">
<ele>542.546875</ele>
<time>2013-11-21T12:07:04Z</time>
<speed>6.730000</speed>
<extensions>
<speed>6.7</speed>
<temp>0.00</temp>
<bpm>0</bpm>
<rpm>0.00</rpm>
</extensions>
</trkpt>
<trkpt lat="30.820528030" lon="34.753414154">
<ele>542.562500</ele>
<time>2013-11-21T12:07:09Z</time>
<speed>8.880000</speed>
<extensions>
<speed>8.9</speed>
<temp>0.00</temp>
<bpm>0</bpm>
<rpm>0.00</rpm>
</extensions>
</trkpt>
<trkpt lat="30.820188522" lon="34.753688812">
<ele>542.250000</ele>
<time>2013-11-21T12:07:14Z</time>
<speed>9.420000</speed>
<extensions>
<speed>9.4</speed>
<temp>0.00</temp>
<bpm>0</bpm>
<rpm>0.00</rpm>
</extensions>
</trkpt>
<trkpt lat="30.819862366" lon="34.753974915">
<ele>540.062500</ele>
<time>2013-11-21T12:07:19Z</time>
<speed>8.900000</speed>
<extensions>
<speed>8.9</speed>
<temp>0.00</temp>
<bpm>0</bpm>
<rpm>0.00</rpm>
</extensions>
</trkpt>
<trkpt lat="30.819530487" lon="34.754219055">
<ele>540.203125</ele>
<time>2013-11-21T12:07:24Z</time>
<speed>7.930000</speed>
<extensions>
<speed>7.9</speed>
<temp>0.00</temp>
<bpm>0</bpm>
<rpm>0.00</rpm>
</extensions>
</trkpt>
<trkpt lat="30.819288254" lon="34.754417419">
<ele>541.328125</ele>
<time>2013-11-21T12:07:29Z</time>
<speed>5.800000</speed>
<extensions>
<speed>5.8</speed>
<temp>0.00</temp>
<bpm>0</bpm>
<rpm>0.00</rpm>
</extensions>
</trkpt>
<trkpt lat="30.819065094" lon="34.754589081">
<ele>539.640625</ele>
<time>2013-11-21T12:07:34Z</time>
<speed>4.950000</speed>
<extensions>
<speed>4.9</speed>
<temp>0.00</temp>
<bpm>0</bpm>
<rpm>0.00</rpm>
</extensions>
</trkpt>
<trkpt lat="30.818895340" lon="34.754718781">
<ele>538.640625</ele>
<time>2013-11-21T12:07:39Z</time>
<speed>4.360000</speed>
<extensions>
<speed>4.4</speed>
<temp>0.00</temp>
<bpm>0</bpm>
<rpm>0.00</rpm>
</extensions>
</trkpt>
<trkpt lat="30.818794250" lon="34.754825592">
<ele>537.281250</ele>
<time>2013-11-21T12:07:44Z</time>
<speed>3.410000</speed>
<extensions>
<speed>3.4</speed>
<temp>0.00</temp>
<bpm>0</bpm>
<rpm>0.00</rpm>
</extensions>
</trkpt>
<trkpt lat="30.818735123" lon="34.754962921">
<ele>539.140625</ele>
<time>2013-11-21T12:07:49Z</time>
<speed>3.630000</speed>
<extensions>
<speed>3.6</speed>
<temp>0.00</temp>
<bpm>0</bpm>
<rpm>0.00</rpm>
</extensions>
</trkpt>
<trkpt lat="30.818664551" lon="34.755065918">
<ele>536.828125</ele>
<time>2013-11-21T12:07:54Z</time>
<speed>2.130000</speed>
<extensions>
<speed>2.1</speed>
<temp>0.00</temp>
<bpm>0</bpm>
<rpm>0.00</rpm>
</extensions>
</trkpt>
<trkpt lat="30.818634033" lon="34.755195618">
<ele>536.546875</ele>
<time>2013-11-21T12:07:59Z</time>
<speed>2.160000</speed>
<extensions>
<speed>2.2</speed>
<temp>0.00</temp>
<bpm>0</bpm>
<rpm>0.00</rpm>
</extensions>
</trkpt>
<trkpt lat="30.818677902" lon="34.755268097">
<ele>537.234375</ele>
<time>2013-11-21T12:08:04Z</time>
<speed>1.810000</speed>
<extensions>
<speed>1.8</speed>
<temp>0.00</temp>
<bpm>0</bpm>
<rpm>0.00</rpm>
</extensions>
</trkpt>
<trkpt lat="30.818666458" lon="34.755329132">
<ele>538.203125</ele>
<time>2013-11-21T12:08:09Z</time>
<speed>0.770000</speed>
<extensions>
<speed>0.8</speed>
<temp>0.00</temp>
<bpm>0</bpm>
<rpm>0.00</rpm>
</extensions>
</trkpt>
<trkpt lat="30.818597794" lon="34.755310059">
<ele>539.218750</ele>
<time>2013-11-21T12:08:14Z</time>
<speed>2.140000</speed>
<extensions>
<speed>2.1</speed>
<temp>0.00</temp>
<bpm>0</bpm>
<rpm>0.00</rpm>
</extensions>
</trkpt>
<trkpt lat="30.818479538" lon="34.755355835">
<ele>539.843750</ele>
<time>2013-11-21T12:08:19Z</time>
<speed>2.860000</speed>
<extensions>
<speed>2.9</speed>
<temp>0.00</temp>
<bpm>0</bpm>
<rpm>0.00</rpm>
</extensions>
</trkpt>
<trkpt lat="30.818391800" lon="34.755405426">
<ele>540.750000</ele>
<time>2013-11-21T12:08:24Z</time>
<speed>2.590000</speed>
<extensions>
<speed>2.6</speed>
<temp>0.00</temp>
<bpm>0</bpm>
<rpm>0.00</rpm>
</extensions>
</trkpt>
<trkpt lat="30.818334579" lon="34.755481720">
<ele>542.500000</ele>
<time>2013-11-21T12:08:29Z</time>
<speed>2.250000</speed>
<extensions>
<speed>2.3</speed>
<temp>0.00</temp>
<bpm>0</bpm>
<rpm>0.00</rpm>
</extensions>
</trkpt>
<trkpt lat="30.818250656" lon="34.755554199">
<ele>542.796875</ele>
<time>2013-11-21T12:08:34Z</time>
<speed>2.210000</speed>
<extensions>
<speed>2.2</speed>
<temp>0.00</temp>
<bpm>0</bpm>
<rpm>0.00</rpm>
</extensions>
</trkpt>
<trkpt lat="30.818174362" lon="34.755638123">
<ele>542.546875</ele>
<time>2013-11-21T12:08:39Z</time>
<speed>2.170000</speed>
<extensions>
<speed>2.2</speed>
<temp>0.00</temp>
<bpm>0</bpm>
<rpm>0.00</rpm>
</extensions>
</trkpt>
<trkpt lat="30.818115234" lon="34.755725861">
<ele>542.875000</ele>
<time>2013-11-21T12:08:44Z</time>
<speed>1.850000</speed>
<extensions>
<speed>1.8</speed>
<temp>0.00</temp>
<bpm>0</bpm>
<rpm>0.00</rpm>
</extensions>
</trkpt>
<trkpt lat="30.818038940" lon="34.755813599">
<ele>543.718750</ele>
<time>2013-11-21T12:08:49Z</time>
<speed>2.730000</speed>
<extensions>
<speed>2.7</speed>
<temp>0.00</temp>
<bpm>0</bpm>
<rpm>0.00</rpm>
</extensions>
</trkpt>
<trkpt lat="30.817941666" lon="34.755897522">
<ele>544.765625</ele>
<time>2013-11-21T12:08:54Z</time>
<speed>2.870000</speed>
<extensions>
<speed>2.9</speed>
<temp>0.00</temp>
<bpm>0</bpm>
<rpm>0.00</rpm>
</extensions>
</trkpt>
<trkpt lat="30.817852020" lon="34.755985260">
<ele>545.984375</ele>
<time>2013-11-21T12:08:59Z</time>
<speed>2.820000</speed>
<extensions>
<speed>2.8</speed>
<temp>0.00</temp>
<bpm>0</bpm>
<rpm>0.00</rpm>
</extensions>
</trkpt>
<trkpt lat="30.817735672" lon="34.756095886">
<ele>547.156250</ele>
<time>2013-11-21T12:09:04Z</time>
<speed>2.940000</speed>
<extensions>
<speed>2.9</speed>
<temp>0.00</temp>
<bpm>0</bpm>
<rpm>0.00</rpm>
</extensions>
</trkpt>
<trkpt lat="30.817625046" lon="34.756229401">
<ele>546.890625</ele>
<time>2013-11-21T12:09:09Z</time>
<speed>3.560000</speed>
<extensions>
<speed>3.6</speed>
<temp>0.00</temp>
<bpm>0</bpm>
<rpm>0.00</rpm>
</extensions>
</trkpt>
<trkpt lat="30.817451477" lon="34.756320953">
<ele>543.562500</ele>
<time>2013-11-21T12:09:14Z</time>
<speed>3.740000</speed>
<extensions>
<speed>3.7</speed>
<temp>0.00</temp>
<bpm>0</bpm>
<rpm>0.00</rpm>
</extensions>
</trkpt>
<trkpt lat="30.817296982" lon="34.756431580">
<ele>541.859375</ele>
<time>2013-11-21T12:09:19Z</time>
<speed>3.790000</speed>
<extensions>
<speed>3.8</speed>
<temp>0.00</temp>
<bpm>0</bpm>
<rpm>0.00</rpm>
</extensions>
</trkpt>
<trkpt lat="30.817090988" lon="34.756568909">
<ele>540.187500</ele>
<time>2013-11-21T12:09:24Z</time>
<speed>4.700000</speed>
<extensions>
<speed>4.7</speed>
<temp>0.00</temp>
<bpm>0</bpm>
<rpm>0.00</rpm>
</extensions>
</trkpt>
<trkpt lat="30.816896439" lon="34.756736755">
<ele>538.140625</ele>
<time>2013-11-21T12:09:29Z</time>
<speed>4.110000</speed>
<extensions>
<speed>4.1</speed>
<temp>0.00</temp>
<bpm>0</bpm>
<rpm>0.00</rpm>
</extensions>
</trkpt>
<trkpt lat="30.816802979" lon="34.756813049">
<ele>535.562500</ele>
<time>2013-11-21T12:09:34Z</time>
<speed>2.060000</speed>
<extensions>
<speed>2.1</speed>
<temp>0.00</temp>
<bpm>0</bpm>
<rpm>0.00</rpm>
</extensions>
</trkpt>
<trkpt lat="30.816688538" lon="34.756900787">
<ele>535.109375</ele>
<time>2013-11-21T12:09:39Z</time>
<speed>3.800000</speed>
<extensions>
<speed>3.8</speed>
<temp>0.00</temp>
<bpm>0</bpm>
<rpm>0.00</rpm>
</extensions>
</trkpt>
<trkpt lat="30.816549301" lon="34.757015228">
<ele>535.140625</ele>
<time>2013-11-21T12:09:44Z</time>
<speed>3.590000</speed>
<extensions>
<speed>3.6</speed>
<temp>0.00</temp>
<bpm>0</bpm>
<rpm>0.00</rpm>
</extensions>
</trkpt>
<trkpt lat="30.816390991" lon="34.757175446">
<ele>534.375000</ele>
<time>2013-11-21T12:09:49Z</time>
<speed>4.670000</speed>
<extensions>
<speed>4.7</speed>
<temp>0.00</temp>
<bpm>0</bpm>
<rpm>0.00</rpm>
</extensions>
</trkpt>
<trkpt lat="30.816270828" lon="34.757274628">
<ele>532.781250</ele>
<time>2013-11-21T12:09:54Z</time>
<speed>1.500000</speed>
<extensions>
<speed>1.5</speed>
<temp>0.00</temp>
<bpm>0</bpm>
<rpm>0.00</rpm>
</extensions>
</trkpt>
<trkpt lat="30.816247940" lon="34.757297516">
<ele>535.703125</ele>
<time>2013-11-21T12:09:59Z</time>
<speed>0.320000</speed>
<extensions>
<speed>0.3</speed>
<temp>0.00</temp>
<bpm>0</bpm>
<rpm>0.00</rpm>
</extensions>
</trkpt>
<trkpt lat="30.816236496" lon="34.757308960">
<ele>535.906250</ele>
<time>2013-11-21T12:10:04Z</time>
<speed>0.440000</speed>
<extensions>
<speed>0.4</speed>
<temp>0.00</temp>
<bpm>0</bpm>
<rpm>0.00</rpm>
</extensions>
</trkpt>
<trkpt lat="30.816223145" lon="34.757316589">
<ele>536.046875</ele>
<time>2013-11-21T12:10:09Z</time>
<speed>0.180000</speed>
<extensions>
<speed>0.2</speed>
<temp>0.00</temp>
<bpm>0</bpm>
<rpm>0.00</rpm>
</extensions>
</trkpt>
<trkpt lat="30.816196442" lon="34.757343292">
<ele>536.062500</ele>
<time>2013-11-21T12:10:14Z</time>
<speed>1.340000</speed>
<extensions>
<speed>1.3</speed>
<temp>0.00</temp>
<bpm>0</bpm>
<rpm>0.00</rpm>
</extensions>
</trkpt>
<trkpt lat="30.816106796" lon="34.757408142">
<ele>535.656250</ele>
<time>2013-11-21T12:10:19Z</time>
<speed>2.760000</speed>
<extensions>
<speed>2.8</speed>
<temp>0.00</temp>
<bpm>0</bpm>
<rpm>0.00</rpm>
</extensions>
</trkpt>
<trkpt lat="30.816007614" lon="34.757514954">
<ele>535.078125</ele>
<time>2013-11-21T12:10:24Z</time>
<speed>2.620000</speed>
<extensions>
<speed>2.6</speed>
<temp>0.00</temp>
<bpm>0</bpm>
<rpm>0.00</rpm>
</extensions>
</trkpt>
<trkpt lat="30.815925598" lon="34.757598877">
<ele>534.468750</ele>
<time>2013-11-21T12:10:29Z</time>
<speed>2.000000</speed>
<extensions>
<speed>2.0</speed>
<temp>0.00</temp>
<bpm>0</bpm>
<rpm>0.00</rpm>
</extensions>
</trkpt>
<trkpt lat="30.815845490" lon="34.757667542">
<ele>533.734375</ele>
<time>2013-11-21T12:10:34Z</time>
<speed>1.880000</speed>
<extensions>
<speed>1.9</speed>
<temp>0.00</temp>
<bpm>0</bpm>
<rpm>0.00</rpm>
</extensions>
</trkpt>
<trkpt lat="30.815761566" lon="34.757755280">
<ele>533.609375</ele>
<time>2013-11-21T12:10:39Z</time>
<speed>2.740000</speed>
<extensions>
<speed>2.7</speed>
<temp>0.00</temp>
<bpm>0</bpm>
<rpm>0.00</rpm>
</extensions>
</trkpt>
<trkpt lat="30.815656662" lon="34.757862091">
<ele>535.343750</ele>
<time>2013-11-21T12:10:44Z</time>
<speed>2.940000</speed>
<extensions>
<speed>2.9</speed>
<temp>0.00</temp>
<bpm>0</bpm>
<rpm>0.00</rpm>
</extensions>
</trkpt>
<trkpt lat="30.815534592" lon="34.757961273">
<ele>533.890625</ele>
<time>2013-11-21T12:10:49Z</time>
<speed>2.620000</speed>
<extensions>
<speed>2.6</speed>
<temp>0.00</temp>
<bpm>0</bpm>
<rpm>0.00</rpm>
</extensions>
</trkpt>
<trkpt lat="30.815460205" lon="34.758033752">
<ele>533.390625</ele>
<time>2013-11-21T12:10:54Z</time>
<speed>2.660000</speed>
<extensions>
<speed>2.7</speed>
<temp>0.00</temp>
<bpm>0</bpm>
<rpm>0.00</rpm>
</extensions>
</trkpt>
<trkpt lat="30.815322876" lon="34.758125305">
<ele>535.515625</ele>
<time>2013-11-21T12:10:59Z</time>
<speed>3.520000</speed>
<extensions>
<speed>3.5</speed>
<temp>0.00</temp>
<bpm>0</bpm>
<rpm>0.00</rpm>
</extensions>
</trkpt>
<trkpt lat="30.815217972" lon="34.758220673">
<ele>533.125000</ele>
<time>2013-11-21T12:11:04Z</time>
<speed>2.670000</speed>
<extensions>
<speed>2.7</speed>
<temp>0.00</temp>
<bpm>0</bpm>
<rpm>0.00</rpm>
</extensions>
</trkpt>
<trkpt lat="30.815095901" lon="34.758335114">
<ele>531.250000</ele>
<time>2013-11-21T12:11:09Z</time>
<speed>4.420000</speed>
<extensions>
<speed>4.4</speed>
<temp>0.00</temp>
<bpm>0</bpm>
<rpm>0.00</rpm>
</extensions>
</trkpt>
<trkpt lat="30.814987183" lon="34.758453369">
<ele>531.468750</ele>
<time>2013-11-21T12:11:14Z</time>
<speed>2.620000</speed>
<extensions>
<speed>2.6</speed>
<temp>0.00</temp>
<bpm>0</bpm>
<rpm>0.00</rpm>
</extensions>
</trkpt>
<trkpt lat="30.814872742" lon="34.758533478">
<ele>533.031250</ele>
<time>2013-11-21T12:11:19Z</time>
<speed>3.040000</speed>
<extensions>
<speed>3.0</speed>
<temp>0.00</temp>
<bpm>0</bpm>
<rpm>0.00</rpm>
</extensions>
</trkpt>
<trkpt lat="30.814718246" lon="34.758647919">
<ele>537.156250</ele>
<time>2013-11-21T12:11:24Z</time>
<speed>3.200000</speed>
<extensions>
<speed>3.2</speed>
<temp>0.00</temp>
<bpm>0</bpm>
<rpm>0.00</rpm>
</extensions>
</trkpt>
<trkpt lat="30.814628601" lon="34.758781433">
<ele>539.140625</ele>
<time>2013-11-21T12:11:29Z</time>
<speed>3.180000</speed>
<extensions>
<speed>3.2</speed>
<temp>0.00</temp>
<bpm>0</bpm>
<rpm>0.00</rpm>
</extensions>
</trkpt>
<trkpt lat="30.814529419" lon="34.758892059">
<ele>540.421875</ele>
<time>2013-11-21T12:11:34Z</time>
<speed>2.680000</speed>
<extensions>
<speed>2.7</speed>
<temp>0.00</temp>
<bpm>0</bpm>
<rpm>0.00</rpm>
</extensions>
</trkpt>
<trkpt lat="30.814418793" lon="34.759002686">
<ele>538.968750</ele>
<time>2013-11-21T12:11:39Z</time>
<speed>3.040000</speed>
<extensions>
<speed>3.0</speed>
<temp>0.00</temp>
<bpm>0</bpm>
<rpm>0.00</rpm>
</extensions>
</trkpt>
<trkpt lat="30.814310074" lon="34.759090424">
<ele>536.796875</ele>
<time>2013-11-21T12:11:44Z</time>
<speed>3.360000</speed>
<extensions>
<speed>3.4</speed>
<temp>0.00</temp>
<bpm>0</bpm>
<rpm>0.00</rpm>
</extensions>
</trkpt>
<trkpt lat="30.814191818" lon="34.759174347">
<ele>534.171875</ele>
<time>2013-11-21T12:11:49Z</time>
<speed>3.290000</speed>
<extensions>
<speed>3.3</speed>
<temp>0.00</temp>
<bpm>0</bpm>
<rpm>0.00</rpm>
</extensions>
</trkpt>
<trkpt lat="30.814079285" lon="34.759273529">
<ele>533.921875</ele>
<time>2013-11-21T12:11:54Z</time>
<speed>3.290000</speed>
<extensions>
<speed>3.3</speed>
<temp>0.00</temp>
<bpm>0</bpm>
<rpm>0.00</rpm>
</extensions>
</trkpt>
<trkpt lat="30.813989639" lon="34.759395599">
<ele>533.078125</ele>
<time>2013-11-21T12:11:59Z</time>
<speed>3.210000</speed>
<extensions>
<speed>3.2</speed>
<temp>0.00</temp>
<bpm>0</bpm>
<rpm>0.00</rpm>
</extensions>
</trkpt>
<trkpt lat="30.813901901" lon="34.759494781">
<ele>531.921875</ele>
<time>2013-11-21T12:12:04Z</time>
<speed>1.260000</speed>
<extensions>
<speed>1.3</speed>
<temp>0.00</temp>
<bpm>0</bpm>
<rpm>0.00</rpm>
</extensions>
</trkpt>
<trkpt lat="30.813819885" lon="34.759582520">
<ele>534.109375</ele>
<time>2013-11-21T12:12:09Z</time>
<speed>2.160000</speed>
<extensions>
<speed>2.2</speed>
<temp>0.00</temp>
<bpm>0</bpm>
<rpm>0.00</rpm>
</extensions>
</trkpt>
<trkpt lat="30.813741684" lon="34.759651184">
<ele>536.125000</ele>
<time>2013-11-21T12:12:14Z</time>
<speed>1.750000</speed>
<extensions>
<speed>1.8</speed>
<temp>0.00</temp>
<bpm>0</bpm>
<rpm>0.00</rpm>
</extensions>
</trkpt>
<trkpt lat="30.813642502" lon="34.759685516">
<ele>536.406250</ele>
<time>2013-11-21T12:12:19Z</time>
<speed>2.730000</speed>
<extensions>
<speed>2.7</speed>
<temp>0.00</temp>
<bpm>0</bpm>
<rpm>0.00</rpm>
</extensions>
</trkpt>
<trkpt lat="30.813499451" lon="34.759773254">
<ele>537.562500</ele>
<time>2013-11-21T12:12:24Z</time>
<speed>3.420000</speed>
<extensions>
<speed>3.4</speed>
<temp>0.00</temp>
<bpm>0</bpm>
<rpm>0.00</rpm>
</extensions>
</trkpt>
<trkpt lat="30.813419342" lon="34.759838104">
<ele>541.578125</ele>
<time>2013-11-21T12:12:29Z</time>
<speed>1.200000</speed>
<extensions>
<speed>1.2</speed>
<temp>0.00</temp>
<bpm>0</bpm>
<rpm>0.00</rpm>
</extensions>
</trkpt>
<trkpt lat="30.813352585" lon="34.759880066">
<ele>540.484375</ele>
<time>2013-11-21T12:12:34Z</time>
<speed>1.930000</speed>
<extensions>
<speed>1.9</speed>
<temp>0.00</temp>
<bpm>0</bpm>
<rpm>0.00</rpm>
</extensions>
</trkpt>
<trkpt lat="30.813268661" lon="34.759883881">
<ele>542.625000</ele>
<time>2013-11-21T12:12:39Z</time>
<speed>2.400000</speed>
<extensions>
<speed>2.4</speed>
<temp>0.00</temp>
<bpm>0</bpm>
<rpm>0.00</rpm>
</extensions>
</trkpt>
<trkpt lat="30.813213348" lon="34.759868622">
<ele>544.625000</ele>
<time>2013-11-21T12:12:44Z</time>
<speed>0.670000</speed>
<extensions>
<speed>0.7</speed>
<temp>0.00</temp>
<bpm>0</bpm>
<rpm>0.00</rpm>
</extensions>
</trkpt>
<trkpt lat="30.813175201" lon="34.759860992">
<ele>545.750000</ele>
<time>2013-11-21T12:12:49Z</time>
<speed>0.910000</speed>
<extensions>
<speed>0.9</speed>
<temp>0.00</temp>
<bpm>0</bpm>
<rpm>0.00</rpm>
</extensions>
</trkpt>
<trkpt lat="30.813123703" lon="34.759803772">
<ele>546.156250</ele>
<time>2013-11-21T12:12:54Z</time>
<speed>1.810000</speed>
<extensions>
<speed>1.8</speed>
<temp>0.00</temp>
<bpm>0</bpm>
<rpm>0.00</rpm>
</extensions>
</trkpt>
<trkpt lat="30.812931061" lon="34.759811401">
<ele>545.500000</ele>
<time>2013-11-21T12:12:59Z</time>
<speed>4.980000</speed>
<extensions>
<speed>5.0</speed>
<temp>0.00</temp>
<bpm>0</bpm>
<rpm>0.00</rpm>
</extensions>
</trkpt>
<trkpt lat="30.812686920" lon="34.759895325">
<ele>545.687500</ele>
<time>2013-11-21T12:13:04Z</time>
<speed>5.400000</speed>
<extensions>
<speed>5.4</speed>
<temp>0.00</temp>
<bpm>0</bpm>
<rpm>0.00</rpm>
</extensions>
</trkpt>
<trkpt lat="30.812416077" lon="34.759975433">
<ele>544.656250</ele>
<time>2013-11-21T12:13:09Z</time>
<speed>6.250000</speed>
<extensions>
<speed>6.3</speed>
<temp>0.00</temp>
<bpm>0</bpm>
<rpm>0.00</rpm>
</extensions>
</trkpt>
<trkpt lat="30.812088013" lon="34.760078430">
<ele>545.953125</ele>
<time>2013-11-21T12:13:14Z</time>
<speed>7.360000</speed>
<extensions>
<speed>7.4</speed>
<temp>0.00</temp>
<bpm>0</bpm>
<rpm>0.00</rpm>
</extensions>
</trkpt>
<trkpt lat="30.811788559" lon="34.760162354">
<ele>546.078125</ele>
<time>2013-11-21T12:13:19Z</time>
<speed>7.200000</speed>
<extensions>
<speed>7.2</speed>
<temp>0.00</temp>
<bpm>0</bpm>
<rpm>0.00</rpm>
</extensions>
</trkpt>
<trkpt lat="30.811435699" lon="34.760269165">
<ele>546.890625</ele>
<time>2013-11-21T12:13:24Z</time>
<speed>7.830000</speed>
<extensions>
<speed>7.8</speed>
<temp>0.00</temp>
<bpm>0</bpm>
<rpm>0.00</rpm>
</extensions>
</trkpt>
<trkpt lat="30.811069489" lon="34.760398865">
<ele>546.562500</ele>
<time>2013-11-21T12:13:29Z</time>
<speed>8.300000</speed>
<extensions>
<speed>8.3</speed>
<temp>0.00</temp>
<bpm>0</bpm>
<rpm>0.00</rpm>
</extensions>
</trkpt>
<trkpt lat="30.810718536" lon="34.760509491">
<ele>547.750000</ele>
<time>2013-11-21T12:13:34Z</time>
<speed>8.440000</speed>
<extensions>
<speed>8.4</speed>
<temp>0.00</temp>
<bpm>0</bpm>
<rpm>0.00</rpm>
</extensions>
</trkpt>
<trkpt lat="30.810358047" lon="34.760620117">
<ele>547.875000</ele>
<time>2013-11-21T12:13:39Z</time>
<speed>8.070000</speed>
<extensions>
<speed>8.1</speed>
<temp>0.00</temp>
<bpm>0</bpm>
<rpm>0.00</rpm>
</extensions>
</trkpt>
<trkpt lat="30.810018539" lon="34.760726929">
<ele>547.781250</ele>
<time>2013-11-21T12:13:44Z</time>
<speed>7.500000</speed>
<extensions>
<speed>7.5</speed>
<temp>0.00</temp>
<bpm>0</bpm>
<rpm>0.00</rpm>
</extensions>
</trkpt>
<trkpt lat="30.809707642" lon="34.760822296">
<ele>547.718750</ele>
<time>2013-11-21T12:13:49Z</time>
<speed>7.080000</speed>
<extensions>
<speed>7.1</speed>
<temp>0.00</temp>
<bpm>0</bpm>
<rpm>0.00</rpm>
</extensions>
</trkpt>
<trkpt lat="30.809394836" lon="34.760929108">
<ele>548.046875</ele>
<time>2013-11-21T12:13:54Z</time>
<speed>6.710000</speed>
<extensions>
<speed>6.7</speed>
<temp>0.00</temp>
<bpm>0</bpm>
<rpm>0.00</rpm>
</extensions>
</trkpt>
<trkpt lat="30.809097290" lon="34.761024475">
<ele>547.312500</ele>
<time>2013-11-21T12:13:59Z</time>
<speed>6.920000</speed>
<extensions>
<speed>6.9</speed>
<temp>0.00</temp>
<bpm>0</bpm>
<rpm>0.00</rpm>
</extensions>
</trkpt>
<trkpt lat="30.808807373" lon="34.761116028">
<ele>545.187500</ele>
<time>2013-11-21T12:14:04Z</time>
<speed>6.320000</speed>
<extensions>
<speed>6.3</speed>
<temp>0.00</temp>
<bpm>0</bpm>
<rpm>0.00</rpm>
</extensions>
</trkpt>
<trkpt lat="30.808519363" lon="34.761211395">
<ele>543.062500</ele>
<time>2013-11-21T12:14:09Z</time>
<speed>6.560000</speed>
<extensions>
<speed>6.6</speed>
<temp>0.00</temp>
<bpm>0</bpm>
<rpm>0.00</rpm>
</extensions>
</trkpt>
<trkpt lat="30.808242798" lon="34.761306763">
<ele>542.734375</ele>
<time>2013-11-21T12:14:14Z</time>
<speed>6.040000</speed>
<extensions>
<speed>6.0</speed>
<temp>0.00</temp>
<bpm>0</bpm>
<rpm>0.00</rpm>
</extensions>
</trkpt>
<trkpt lat="30.807949066" lon="34.761398315">
<ele>543.687500</ele>
<time>2013-11-21T12:14:19Z</time>
<speed>6.260000</speed>
<extensions>
<speed>6.3</speed>
<temp>0.00</temp>
<bpm>0</bpm>
<rpm>0.00</rpm>
</extensions>
</trkpt>
<trkpt lat="30.807672501" lon="34.761489868">
<ele>543.031250</ele>
<time>2013-11-21T12:14:24Z</time>
<speed>6.720000</speed>
<extensions>
<speed>6.7</speed>
<temp>0.00</temp>
<bpm>0</bpm>
<rpm>0.00</rpm>
</extensions>
</trkpt>
<trkpt lat="30.807422638" lon="34.761581421">
<ele>543.187500</ele>
<time>2013-11-21T12:14:29Z</time>
<speed>5.910000</speed>
<extensions>
<speed>5.9</speed>
<temp>0.00</temp>
<bpm>0</bpm>
<rpm>0.00</rpm>
</extensions>
</trkpt>
<trkpt lat="30.807199478" lon="34.761680603">
<ele>544.921875</ele>
<time>2013-11-21T12:14:34Z</time>
<speed>5.200000</speed>
<extensions>
<speed>5.2</speed>
<temp>0.00</temp>
<bpm>0</bpm>
<rpm>0.00</rpm>
</extensions>
</trkpt>
<trkpt lat="30.807012558" lon="34.761745453">
<ele>545.625000</ele>
<time>2013-11-21T12:14:39Z</time>
<speed>3.960000</speed>
<extensions>
<speed>4.0</speed>
<temp>0.00</temp>
<bpm>0</bpm>
<rpm>0.00</rpm>
</extensions>
</trkpt>
<trkpt lat="30.806850433" lon="34.761791229">
<ele>546.093750</ele>
<time>2013-11-21T12:14:44Z</time>
<speed>2.950000</speed>
<extensions>
<speed>2.9</speed>
<temp>0.00</temp>
<bpm>0</bpm>
<rpm>0.00</rpm>
</extensions>
</trkpt>
<trkpt lat="30.806743622" lon="34.761829376">
<ele>545.843750</ele>
<time>2013-11-21T12:14:49Z</time>
<speed>1.660000</speed>
<extensions>
<speed>1.7</speed>
<temp>0.00</temp>
<bpm>0</bpm>
<rpm>0.00</rpm>
</extensions>
</trkpt>
<trkpt lat="30.806652069" lon="34.761867523">
<ele>547.578125</ele>
<time>2013-11-21T12:14:54Z</time>
<speed>2.930000</speed>
<extensions>
<speed>2.9</speed>
<temp>0.00</temp>
<bpm>0</bpm>
<rpm>0.00</rpm>
</extensions>
</trkpt>
<trkpt lat="30.806478500" lon="34.761909485">
<ele>550.640625</ele>
<time>2013-11-21T12:14:59Z</time>
<speed>3.980000</speed>
<extensions>
<speed>4.0</speed>
<temp>0.00</temp>
<bpm>0</bpm>
<rpm>0.00</rpm>
</extensions>
</trkpt>
<trkpt lat="30.806333542" lon="34.761951447">
<ele>549.843750</ele>
<time>2013-11-21T12:15:04Z</time>
<speed>3.130000</speed>
<extensions>
<speed>3.1</speed>
<temp>0.00</temp>
<bpm>0</bpm>
<rpm>0.00</rpm>
</extensions>
</trkpt>
<trkpt lat="30.806230545" lon="34.761962891">
<ele>547.156250</ele>
<time>2013-11-21T12:15:09Z</time>
<speed>2.270000</speed>
<extensions>
<speed>2.3</speed>
<temp>0.00</temp>
<bpm>0</bpm>
<rpm>0.00</rpm>
</extensions>
</trkpt>
<trkpt lat="30.806156158" lon="34.761989594">
<ele>543.625000</ele>
<time>2013-11-21T12:15:14Z</time>
<speed>1.400000</speed>
<extensions>
<speed>1.4</speed>
<temp>0.00</temp>
<bpm>0</bpm>
<rpm>0.00</rpm>
</extensions>
</trkpt>
<trkpt lat="30.806035995" lon="34.762027740">
<ele>544.343750</ele>
<time>2013-11-21T12:15:19Z</time>
<speed>3.320000</speed>
<extensions>
<speed>3.3</speed>
<temp>0.00</temp>
<bpm>0</bpm>
<rpm>0.00</rpm>
</extensions>
</trkpt>
<trkpt lat="30.805885315" lon="34.762084961">
<ele>542.921875</ele>
<time>2013-11-21T12:15:24Z</time>
<speed>3.610000</speed>
<extensions>
<speed>3.6</speed>
<temp>0.00</temp>
<bpm>0</bpm>
<rpm>0.00</rpm>
</extensions>
</trkpt>
<trkpt lat="30.805715561" lon="34.762145996">
<ele>542.828125</ele>
<time>2013-11-21T12:15:29Z</time>
<speed>3.750000</speed>
<extensions>
<speed>3.8</speed>
<temp>0.00</temp>
<bpm>0</bpm>
<rpm>0.00</rpm>
</extensions>
</trkpt>
<trkpt lat="30.805522919" lon="34.762214661">
<ele>543.484375</ele>
<time>2013-11-21T12:15:34Z</time>
<speed>4.930000</speed>
<extensions>
<speed>4.9</speed>
<temp>0.00</temp>
<bpm>0</bpm>
<rpm>0.00</rpm>
</extensions>
</trkpt>
<trkpt lat="30.805301666" lon="34.762294769">
<ele>543.796875</ele>
<time>2013-11-21T12:15:39Z</time>
<speed>5.390000</speed>
<extensions>
<speed>5.4</speed>
<temp>0.00</temp>
<bpm>0</bpm>
<rpm>0.00</rpm>
</extensions>
</trkpt>
<trkpt lat="30.805082321" lon="34.762363434">
<ele>543.156250</ele>
<time>2013-11-21T12:15:44Z</time>
<speed>4.610000</speed>
<extensions>
<speed>4.6</speed>
<temp>0.00</temp>
<bpm>0</bpm>
<rpm>0.00</rpm>
</extensions>
</trkpt>
<trkpt lat="30.804908752" lon="34.762432098">
<ele>542.593750</ele>
<time>2013-11-21T12:15:49Z</time>
<speed>4.480000</speed>
<extensions>
<speed>4.5</speed>
<temp>0.00</temp>
<bpm>0</bpm>
<rpm>0.00</rpm>
</extensions>
</trkpt>
<trkpt lat="30.804697037" lon="34.762508392">
<ele>544.218750</ele>
<time>2013-11-21T12:15:54Z</time>
<speed>5.150000</speed>
<extensions>
<speed>5.2</speed>
<temp>0.00</temp>
<bpm>0</bpm>
<rpm>0.00</rpm>
</extensions>
</trkpt>
<trkpt lat="30.804462433" lon="34.762573242">
<ele>543.937500</ele>
<time>2013-11-21T12:15:59Z</time>
<speed>5.670000</speed>
<extensions>
<speed>5.7</speed>
<temp>0.00</temp>
<bpm>0</bpm>
<rpm>0.00</rpm>
</extensions>
</trkpt>
<trkpt lat="30.804214478" lon="34.762649536">
<ele>542.546875</ele>
<time>2013-11-21T12:16:04Z</time>
<speed>5.370000</speed>
<extensions>
<speed>5.4</speed>
<temp>0.00</temp>
<bpm>0</bpm>
<rpm>0.00</rpm>
</extensions>
</trkpt>
<trkpt lat="30.803991318" lon="34.762706757">
<ele>542.015625</ele>
<time>2013-11-21T12:16:09Z</time>
<speed>5.120000</speed>
<extensions>
<speed>5.1</speed>
<temp>0.00</temp>
<bpm>0</bpm>
<rpm>0.00</rpm>
</extensions>
</trkpt>
<trkpt lat="30.803750992" lon="34.762783051">
<ele>541.531250</ele>
<time>2013-11-21T12:16:14Z</time>
<speed>5.880000</speed>
<extensions>
<speed>5.9</speed>
<temp>0.00</temp>
<bpm>0</bpm>
<rpm>0.00</rpm>
</extensions>
</trkpt>
<trkpt lat="30.803493500" lon="34.762878418">
<ele>541.046875</ele>
<time>2013-11-21T12:16:19Z</time>
<speed>5.560000</speed>
<extensions>
<speed>5.6</speed>
<temp>0.00</temp>
<bpm>0</bpm>
<rpm>0.00</rpm>
</extensions>
</trkpt>
<trkpt lat="30.803274155" lon="34.762954712">
<ele>539.578125</ele>
<time>2013-11-21T12:16:24Z</time>
<speed>5.370000</speed>
<extensions>
<speed>5.4</speed>
<temp>0.00</temp>
<bpm>0</bpm>
<rpm>0.00</rpm>
</extensions>
</trkpt>
<trkpt lat="30.803035736" lon="34.763061523">
<ele>541.921875</ele>
<time>2013-11-21T12:16:29Z</time>
<speed>5.760000</speed>
<extensions>
<speed>5.8</speed>
<temp>0.00</temp>
<bpm>0</bpm>
<rpm>0.00</rpm>
</extensions>
</trkpt>
<trkpt lat="30.802782059" lon="34.763130188">
<ele>542.296875</ele>
<time>2013-11-21T12:16:34Z</time>
<speed>5.800000</speed>
<extensions>
<speed>5.8</speed>
<temp>0.00</temp>
<bpm>0</bpm>
<rpm>0.00</rpm>
</extensions>
</trkpt>
<trkpt lat="30.802518845" lon="34.763225555">
<ele>541.812500</ele>
<time>2013-11-21T12:16:39Z</time>
<speed>6.070000</speed>
<extensions>
<speed>6.1</speed>
<temp>0.00</temp>
<bpm>0</bpm>
<rpm>0.00</rpm>
</extensions>
</trkpt>
<trkpt lat="30.802242279" lon="34.763324738">
<ele>542.265625</ele>
<time>2013-11-21T12:16:44Z</time>
<speed>6.310000</speed>
<extensions>
<speed>6.3</speed>
<temp>0.00</temp>
<bpm>0</bpm>
<rpm>0.00</rpm>
</extensions>
</trkpt>
<trkpt lat="30.801996231" lon="34.763465881">
<ele>543.812500</ele>
<time>2013-11-21T12:16:49Z</time>
<speed>6.320000</speed>
<extensions>
<speed>6.3</speed>
<temp>0.00</temp>
<bpm>0</bpm>
<rpm>0.00</rpm>
</extensions>
</trkpt>
<trkpt lat="30.801738739" lon="34.763584137">
<ele>542.359375</ele>
<time>2013-11-21T12:16:54Z</time>
<speed>4.920000</speed>
<extensions>
<speed>4.9</speed>
<temp>0.00</temp>
<bpm>0</bpm>
<rpm>0.00</rpm>
</extensions>
</trkpt>
<trkpt lat="30.801540375" lon="34.763683319">
<ele>540.578125</ele>
<time>2013-11-21T12:16:59Z</time>
<speed>4.150000</speed>
<extensions>
<speed>4.1</speed>
<temp>0.00</temp>
<bpm>0</bpm>
<rpm>0.00</rpm>
</extensions>
</trkpt>
<trkpt lat="30.801406860" lon="34.763755798">
<ele>539.140625</ele>
<time>2013-11-21T12:17:04Z</time>
<speed>3.230000</speed>
<extensions>
<speed>3.2</speed>
<temp>0.00</temp>
<bpm>0</bpm>
<rpm>0.00</rpm>
</extensions>
</trkpt>
<trkpt lat="30.801265717" lon="34.763816833">
<ele>535.953125</ele>
<time>2013-11-21T12:17:09Z</time>
<speed>3.250000</speed>
<extensions>
<speed>3.2</speed>
<temp>0.00</temp>
<bpm>0</bpm>
<rpm>0.00</rpm>
</extensions>
</trkpt>
<trkpt lat="30.801116943" lon="34.763881683">
<ele>533.843750</ele>
<time>2013-11-21T12:17:14Z</time>
<speed>3.600000</speed>
<extensions>
<speed>3.6</speed>
<temp>0.00</temp>
<bpm>0</bpm>
<rpm>0.00</rpm>
</extensions>
</trkpt>
<trkpt lat="30.801004410" lon="34.763938904">
<ele>533.578125</ele>
<time>2013-11-21T12:17:19Z</time>
<speed>2.520000</speed>
<extensions>
<speed>2.5</speed>
<temp>0.00</temp>
<bpm>0</bpm>
<rpm>0.00</rpm>
</extensions>
</trkpt>
<trkpt lat="30.800870895" lon="34.763996124">
<ele>533.406250</ele>
<time>2013-11-21T12:17:24Z</time>
<speed>3.190000</speed>
<extensions>
<speed>3.2</speed>
<temp>0.00</temp>
<bpm>0</bpm>
<rpm>0.00</rpm>
</extensions>
</trkpt>
<trkpt lat="30.800739288" lon="34.764053345">
<ele>533.640625</ele>
<time>2013-11-21T12:17:29Z</time>
<speed>2.280000</speed>
<extensions>
<speed>2.3</speed>
<temp>0.00</temp>
<bpm>0</bpm>
<rpm>0.00</rpm>
</extensions>
</trkpt>
<trkpt lat="30.800632477" lon="34.764106750">
<ele>535.531250</ele>
<time>2013-11-21T12:17:34Z</time>
<speed>3.070000</speed>
<extensions>
<speed>3.1</speed>
<temp>0.00</temp>
<bpm>0</bpm>
<rpm>0.00</rpm>
</extensions>
</trkpt>
<trkpt lat="30.800481796" lon="34.764198303">
<ele>535.625000</ele>
<time>2013-11-21T12:17:39Z</time>
<speed>3.780000</speed>
<extensions>
<speed>3.8</speed>
<temp>0.00</temp>
<bpm>0</bpm>
<rpm>0.00</rpm>
</extensions>
</trkpt>
<trkpt lat="30.800342560" lon="34.764270782">
<ele>538.109375</ele>
<time>2013-11-21T12:17:44Z</time>
<speed>2.870000</speed>
<extensions>
<speed>2.9</speed>
<temp>0.00</temp>
<bpm>0</bpm>
<rpm>0.00</rpm>
</extensions>
</trkpt>
<trkpt lat="30.800197601" lon="34.764350891">
<ele>538.484375</ele>
<time>2013-11-21T12:17:49Z</time>
<speed>3.490000</speed>
<extensions>
<speed>3.5</speed>
<temp>0.00</temp>
<bpm>0</bpm>
<rpm>0.00</rpm>
</extensions>
</trkpt>
<trkpt lat="30.800073624" lon="34.764423370">
<ele>539.859375</ele>
<time>2013-11-21T12:17:54Z</time>
<speed>3.420000</speed>
<extensions>
<speed>3.4</speed>
<temp>0.00</temp>
<bpm>0</bpm>
<rpm>0.00</rpm>
</extensions>
</trkpt>
<trkpt lat="30.799915314" lon="34.764495850">
<ele>540.328125</ele>
<time>2013-11-21T12:17:59Z</time>
<speed>3.390000</speed>
<extensions>
<speed>3.4</speed>
<temp>0.00</temp>
<bpm>0</bpm>
<rpm>0.00</rpm>
</extensions>
</trkpt>
<trkpt lat="30.799797058" lon="34.764553070">
<ele>540.625000</ele>
<time>2013-11-21T12:18:04Z</time>
<speed>3.420000</speed>
<extensions>
<speed>3.4</speed>
<temp>0.00</temp>
<bpm>0</bpm>
<rpm>0.00</rpm>
</extensions>
</trkpt>
<trkpt lat="30.799663544" lon="34.764629364">
<ele>541.234375</ele>
<time>2013-11-21T12:18:09Z</time>
<speed>3.340000</speed>
<extensions>
<speed>3.3</speed>
<temp>0.00</temp>
<bpm>0</bpm>
<rpm>0.00</rpm>
</extensions>
</trkpt>
<trkpt lat="30.799516678" lon="34.764705658">
<ele>540.750000</ele>
<time>2013-11-21T12:18:14Z</time>
<speed>3.630000</speed>
<extensions>
<speed>3.6</speed>
<temp>0.00</temp>
<bpm>0</bpm>
<rpm>0.00</rpm>
</extensions>
</trkpt>
<trkpt lat="30.799381256" lon="34.764770508">
<ele>540.656250</ele>
<time>2013-11-21T12:18:19Z</time>
<speed>3.280000</speed>
<extensions>
<speed>3.3</speed>
<temp>0.00</temp>
<bpm>0</bpm>
<rpm>0.00</rpm>
</extensions>
</trkpt>
<trkpt lat="30.799243927" lon="34.764831543">
<ele>542.187500</ele>
<time>2013-11-21T12:18:24Z</time>
<speed>3.290000</speed>
<extensions>
<speed>3.3</speed>
<temp>0.00</temp>
<bpm>0</bpm>
<rpm>0.00</rpm>
</extensions>
</trkpt>
<trkpt lat="30.799110413" lon="34.764892578">
<ele>544.671875</ele>
<time>2013-11-21T12:18:29Z</time>
<speed>2.730000</speed>
<extensions>
<speed>2.7</speed>
<temp>0.00</temp>
<bpm>0</bpm>
<rpm>0.00</rpm>
</extensions>
</trkpt>
<trkpt lat="30.799009323" lon="34.764942169">
<ele>546.046875</ele>
<time>2013-11-21T12:18:34Z</time>
<speed>1.280000</speed>
<extensions>
<speed>1.3</speed>
<temp>0.00</temp>
<bpm>0</bpm>
<rpm>0.00</rpm>
</extensions>
</trkpt>
<trkpt lat="30.799001694" lon="34.764945984">
<ele>545.406250</ele>
<time>2013-11-21T12:18:39Z</time>
<speed>0.170000</speed>
<extensions>
<speed>0.2</speed>
<temp>0.00</temp>
<bpm>0</bpm>
<rpm>0.00</rpm>
</extensions>
</trkpt>
<trkpt lat="30.799001694" lon="34.764942169">
<ele>545.453125</ele>
<time>2013-11-21T12:18:44Z</time>
<speed>0.050000</speed>
<extensions>
<speed>0.1</speed>
<temp>0.00</temp>
<bpm>0</bpm>
<rpm>0.00</rpm>
</extensions>
</trkpt>
<trkpt lat="30.798999786" lon="34.764938354">
<ele>545.375000</ele>
<time>2013-11-21T12:18:49Z</time>
<speed>0.070000</speed>
<extensions>
<speed>0.1</speed>
<temp>0.00</temp>
<bpm>0</bpm>
<rpm>0.00</rpm>
</extensions>
</trkpt>
<trkpt lat="30.798997879" lon="34.764938354">
<ele>545.359375</ele>
<time>2013-11-21T12:18:54Z</time>
<speed>0.060000</speed>
<extensions>
<speed>0.1</speed>
<temp>0.00</temp>
<bpm>0</bpm>
<rpm>0.00</rpm>
</extensions>
</trkpt>
<trkpt lat="30.798997879" lon="34.764938354">
<ele>545.328125</ele>
<time>2013-11-21T12:18:59Z</time>
<speed>0.080000</speed>
<extensions>
<speed>0.1</speed>
<temp>0.00</temp>
<bpm>0</bpm>
<rpm>0.00</rpm>
</extensions>
</trkpt>
<trkpt lat="30.798994064" lon="34.764934540">
<ele>545.296875</ele>
<time>2013-11-21T12:19:04Z</time>
<speed>0.110000</speed>
<extensions>
<speed>0.1</speed>
<temp>0.00</temp>
<bpm>0</bpm>
<rpm>0.00</rpm>
</extensions>
</trkpt>
<trkpt lat="30.798990250" lon="34.764934540">
<ele>545.281250</ele>
<time>2013-11-21T12:19:09Z</time>
<speed>0.040000</speed>
<extensions>
<speed>0.0</speed>
<temp>0.00</temp>
<bpm>0</bpm>
<rpm>0.00</rpm>
</extensions>
</trkpt>
<trkpt lat="30.798986435" lon="34.764930725">
<ele>545.312500</ele>
<time>2013-11-21T12:19:14Z</time>
<speed>0.050000</speed>
<extensions>
<speed>0.1</speed>
<temp>0.00</temp>
<bpm>0</bpm>
<rpm>0.00</rpm>
</extensions>
</trkpt>
<trkpt lat="30.798986435" lon="34.764934540">
<ele>545.281250</ele>
<time>2013-11-21T12:19:19Z</time>
<speed>0.040000</speed>
<extensions>
<speed>0.0</speed>
<temp>0.00</temp>
<bpm>0</bpm>
<rpm>0.00</rpm>
</extensions>
</trkpt>
<trkpt lat="30.798990250" lon="34.764938354">
<ele>545.375000</ele>
<time>2013-11-21T12:19:24Z</time>
<speed>0.220000</speed>
<extensions>
<speed>0.2</speed>
<temp>0.00</temp>
<bpm>0</bpm>
<rpm>0.00</rpm>
</extensions>
</trkpt>
<trkpt lat="30.798995972" lon="34.764945984">
<ele>545.421875</ele>
<time>2013-11-21T12:19:29Z</time>
<speed>0.140000</speed>
<extensions>
<speed>0.1</speed>
<temp>0.00</temp>
<bpm>0</bpm>
<rpm>0.00</rpm>
</extensions>
</trkpt>
<trkpt lat="30.799003601" lon="34.764957428">
<ele>545.468750</ele>
<time>2013-11-21T12:19:34Z</time>
<speed>0.250000</speed>
<extensions>
<speed>0.2</speed>
<temp>0.00</temp>
<bpm>0</bpm>
<rpm>0.00</rpm>
</extensions>
</trkpt>
<trkpt lat="30.799009323" lon="34.764968872">
<ele>545.515625</ele>
<time>2013-11-21T12:19:39Z</time>
<speed>0.140000</speed>
<extensions>
<speed>0.1</speed>
<temp>0.00</temp>
<bpm>0</bpm>
<rpm>0.00</rpm>
</extensions>
</trkpt>
<trkpt lat="30.799013138" lon="34.764972687">
<ele>545.656250</ele>
<time>2013-11-21T12:19:44Z</time>
<speed>0.190000</speed>
<extensions>
<speed>0.2</speed>
<temp>0.00</temp>
<bpm>0</bpm>
<rpm>0.00</rpm>
</extensions>
</trkpt>
<trkpt lat="30.799016953" lon="34.764984131">
<ele>545.953125</ele>
<time>2013-11-21T12:19:49Z</time>
<speed>0.200000</speed>
<extensions>
<speed>0.2</speed>
<temp>0.00</temp>
<bpm>0</bpm>
<rpm>0.00</rpm>
</extensions>
</trkpt>
<trkpt lat="30.799024582" lon="34.764991760">
<ele>546.390625</ele>
<time>2013-11-21T12:19:54Z</time>
<speed>0.250000</speed>
<extensions>
<speed>0.2</speed>
<temp>0.00</temp>
<bpm>0</bpm>
<rpm>0.00</rpm>
</extensions>
</trkpt>
<trkpt lat="30.799030304" lon="34.764999390">
<ele>546.937500</ele>
<time>2013-11-21T12:19:59Z</time>
<speed>0.160000</speed>
<extensions>
<speed>0.2</speed>
<temp>0.00</temp>
<bpm>0</bpm>
<rpm>0.00</rpm>
</extensions>
</trkpt>
<trkpt lat="30.799030304" lon="34.765007019">
<ele>547.671875</ele>
<time>2013-11-21T12:20:04Z</time>
<speed>0.120000</speed>
<extensions>
<speed>0.1</speed>
<temp>0.00</temp>
<bpm>0</bpm>
<rpm>0.00</rpm>
</extensions>
</trkpt>
<trkpt lat="30.799030304" lon="34.765014648">
<ele>548.656250</ele>
<time>2013-11-21T12:20:09Z</time>
<speed>0.140000</speed>
<extensions>
<speed>0.1</speed>
<temp>0.00</temp>
<bpm>0</bpm>
<rpm>0.00</rpm>
</extensions>
</trkpt>
<trkpt lat="30.799028397" lon="34.765022278">
<ele>549.625000</ele>
<time>2013-11-21T12:20:14Z</time>
<speed>0.100000</speed>
<extensions>
<speed>0.1</speed>
<temp>0.00</temp>
<bpm>0</bpm>
<rpm>0.00</rpm>
</extensions>
</trkpt>
<trkpt lat="30.799022675" lon="34.765022278">
<ele>550.671875</ele>
<time>2013-11-21T12:20:19Z</time>
<speed>0.140000</speed>
<extensions>
<speed>0.1</speed>
<temp>0.00</temp>
<bpm>0</bpm>
<rpm>0.00</rpm>
</extensions>
</trkpt>
<trkpt lat="30.799016953" lon="34.765018463">
<ele>551.796875</ele>
<time>2013-11-21T12:20:24Z</time>
<speed>0.090000</speed>
<extensions>
<speed>0.1</speed>
<temp>0.00</temp>
<bpm>0</bpm>
<rpm>0.00</rpm>
</extensions>
</trkpt>
<trkpt lat="30.799011230" lon="34.765018463">
<ele>552.890625</ele>
<time>2013-11-21T12:20:29Z</time>
<speed>0.110000</speed>
<extensions>
<speed>0.1</speed>
<temp>0.00</temp>
<bpm>0</bpm>
<rpm>0.00</rpm>
</extensions>
</trkpt>
<trkpt lat="30.799005508" lon="34.765014648">
<ele>553.984375</ele>
<time>2013-11-21T12:20:34Z</time>
<speed>0.080000</speed>
<extensions>
<speed>0.1</speed>
<temp>0.00</temp>
<bpm>0</bpm>
<rpm>0.00</rpm>
</extensions>
</trkpt>
<trkpt lat="30.799001694" lon="34.765014648">
<ele>555.046875</ele>
<time>2013-11-21T12:20:39Z</time>
<speed>0.150000</speed>
<extensions>
<speed>0.2</speed>
<temp>0.00</temp>
<bpm>0</bpm>
<rpm>0.00</rpm>
</extensions>
</trkpt>
<trkpt lat="30.798992157" lon="34.765010834">
<ele>556.125000</ele>
<time>2013-11-21T12:20:44Z</time>
<speed>0.200000</speed>
<extensions>
<speed>0.2</speed>
<temp>0.00</temp>
<bpm>0</bpm>
<rpm>0.00</rpm>
</extensions>
</trkpt>
<trkpt lat="30.798984528" lon="34.765007019">
<ele>557.218750</ele>
<time>2013-11-21T12:20:49Z</time>
<speed>0.180000</speed>
<extensions>
<speed>0.2</speed>
<temp>0.00</temp>
<bpm>0</bpm>
<rpm>0.00</rpm>
</extensions>
</trkpt>
<trkpt lat="30.798978806" lon="34.765003204">
<ele>558.234375</ele>
<time>2013-11-21T12:20:54Z</time>
<speed>0.130000</speed>
<extensions>
<speed>0.1</speed>
<temp>0.00</temp>
<bpm>0</bpm>
<rpm>0.00</rpm>
</extensions>
</trkpt>
<trkpt lat="30.798974991" lon="34.764999390">
<ele>559.203125</ele>
<time>2013-11-21T12:20:59Z</time>
<speed>0.060000</speed>
<extensions>
<speed>0.1</speed>
<temp>0.00</temp>
<bpm>0</bpm>
<rpm>0.00</rpm>
</extensions>
</trkpt>
<trkpt lat="30.798973083" lon="34.764999390">
<ele>559.890625</ele>
<time>2013-11-21T12:21:04Z</time>
<speed>0.030000</speed>
<extensions>
<speed>0.0</speed>
<temp>0.00</temp>
<bpm>0</bpm>
<rpm>0.00</rpm>
</extensions>
</trkpt>
<trkpt lat="30.798973083" lon="34.765003204">
<ele>560.359375</ele>
<time>2013-11-21T12:21:09Z</time>
<speed>0.030000</speed>
<extensions>
<speed>0.0</speed>
<temp>0.00</temp>
<bpm>0</bpm>
<rpm>0.00</rpm>
</extensions>
</trkpt>
<trkpt lat="30.798973083" lon="34.765003204">
<ele>560.500000</ele>
<time>2013-11-21T12:21:14Z</time>
<extensions>
<speed>0.0</speed>
<temp>0.00</temp>
<bpm>0</bpm>
<rpm>0.00</rpm>
</extensions>
</trkpt>
<trkpt lat="30.798973083" lon="34.765003204">
<ele>560.500000</ele>
<time>2013-11-21T12:21:19Z</time>
<speed>0.020000</speed>
<extensions>
<speed>0.0</speed>
<temp>0.00</temp>
<bpm>0</bpm>
<rpm>0.00</rpm>
</extensions>
</trkpt>
<trkpt lat="30.798973083" lon="34.765003204">
<ele>560.468750</ele>
<time>2013-11-21T12:21:24Z</time>
<speed>0.020000</speed>
<extensions>
<speed>0.0</speed>
<temp>0.00</temp>
<bpm>0</bpm>
<rpm>0.00</rpm>
</extensions>
</trkpt>
<trkpt lat="30.798973083" lon="34.765003204">
<ele>560.453125</ele>
<time>2013-11-21T12:21:29Z</time>
<speed>0.010000</speed>
<extensions>
<speed>0.0</speed>
<temp>0.00</temp>
<bpm>0</bpm>
<rpm>0.00</rpm>
</extensions>
</trkpt>
<trkpt lat="30.798973083" lon="34.765003204">
<ele>560.437500</ele>
<time>2013-11-21T12:21:34Z</time>
<speed>0.010000</speed>
<extensions>
<speed>0.0</speed>
<temp>0.00</temp>
<bpm>0</bpm>
<rpm>0.00</rpm>
</extensions>
</trkpt>
<trkpt lat="30.798973083" lon="34.765003204">
<ele>560.437500</ele>
<time>2013-11-21T12:21:39Z</time>
<speed>0.040000</speed>
<extensions>
<speed>0.0</speed>
<temp>0.00</temp>
<bpm>0</bpm>
<rpm>0.00</rpm>
</extensions>
</trkpt>
<trkpt lat="30.798973083" lon="34.765003204">
<ele>560.437500</ele>
<time>2013-11-21T12:21:44Z</time>
<speed>0.040000</speed>
<extensions>
<speed>0.0</speed>
<temp>0.00</temp>
<bpm>0</bpm>
<rpm>0.00</rpm>
</extensions>
</trkpt>
<trkpt lat="30.798973083" lon="34.765003204">
<ele>560.453125</ele>
<time>2013-11-21T12:21:49Z</time>
<speed>0.060000</speed>
<extensions>
<speed>0.1</speed>
<temp>0.00</temp>
<bpm>0</bpm>
<rpm>0.00</rpm>
</extensions>
</trkpt>
<trkpt lat="30.798973083" lon="34.765003204">
<ele>560.484375</ele>
<time>2013-11-21T12:21:54Z</time>
<speed>0.070000</speed>
<extensions>
<speed>0.1</speed>
<temp>0.00</temp>
<bpm>0</bpm>
<rpm>0.00</rpm>
</extensions>
</trkpt>
<trkpt lat="30.798973083" lon="34.764999390">
<ele>560.500000</ele>
<time>2013-11-21T12:21:59Z</time>
<speed>0.010000</speed>
<extensions>
<speed>0.0</speed>
<temp>0.00</temp>
<bpm>0</bpm>
<rpm>0.00</rpm>
</extensions>
</trkpt>
<trkpt lat="30.798973083" lon="34.764999390">
<ele>560.500000</ele>
<time>2013-11-21T12:22:04Z</time>
<speed>0.070000</speed>
<extensions>
<speed>0.1</speed>
<temp>0.00</temp>
<bpm>0</bpm>
<rpm>0.00</rpm>
</extensions>
</trkpt>
<trkpt lat="30.798973083" lon="34.764999390">
<ele>560.578125</ele>
<time>2013-11-21T12:22:09Z</time>
<speed>0.020000</speed>
<extensions>
<speed>0.0</speed>
<temp>0.00</temp>
<bpm>0</bpm>
<rpm>0.00</rpm>
</extensions>
</trkpt>
<trkpt lat="30.798973083" lon="34.764995575">
<ele>560.609375</ele>
<time>2013-11-21T12:22:14Z</time>
<speed>0.020000</speed>
<extensions>
<speed>0.0</speed>
<temp>0.00</temp>
<bpm>0</bpm>
<rpm>0.00</rpm>
</extensions>
</trkpt>
<trkpt lat="30.798973083" lon="34.764991760">
<ele>560.609375</ele>
<time>2013-11-21T12:22:19Z</time>
<speed>0.360000</speed>
<extensions>
<speed>0.4</speed>
<temp>0.00</temp>
<bpm>0</bpm>
<rpm>0.00</rpm>
</extensions>
</trkpt>
<trkpt lat="30.798978806" lon="34.764965057">
<ele>560.609375</ele>
<time>2013-11-21T12:22:24Z</time>
<speed>0.900000</speed>
<extensions>
<speed>0.9</speed>
<temp>0.00</temp>
<bpm>0</bpm>
<rpm>0.00</rpm>
</extensions>
</trkpt>
<trkpt lat="30.798984528" lon="34.764850616">
<ele>560.312500</ele>
<time>2013-11-21T12:22:29Z</time>
<speed>0.760000</speed>
<extensions>
<speed>0.8</speed>
<temp>0.00</temp>
<bpm>0</bpm>
<rpm>0.00</rpm>
</extensions>
</trkpt>
<trkpt lat="30.798969269" lon="34.764667511">
<ele>561.937500</ele>
<time>2013-11-21T12:22:34Z</time>
<speed>0.450000</speed>
<extensions>
<speed>0.5</speed>
<temp>0.00</temp>
<bpm>0</bpm>
<rpm>0.00</rpm>
</extensions>
</trkpt>
<trkpt lat="30.798971176" lon="34.764606476">
<ele>562.640625</ele>
<time>2013-11-21T12:22:39Z</time>
<speed>0.270000</speed>
<extensions>
<speed>0.3</speed>
<temp>0.00</temp>
<bpm>0</bpm>
<rpm>0.00</rpm>
</extensions>
</trkpt>
<trkpt lat="30.798961639" lon="34.764568329">
<ele>562.328125</ele>
<time>2013-11-21T12:22:44Z</time>
<speed>0.130000</speed>
<extensions>
<speed>0.1</speed>
<temp>0.00</temp>
<bpm>0</bpm>
<rpm>0.00</rpm>
</extensions>
</trkpt>
<trkpt lat="30.798954010" lon="34.764560699">
<ele>561.609375</ele>
<time>2013-11-21T12:22:49Z</time>
<speed>0.170000</speed>
<extensions>
<speed>0.2</speed>
<temp>0.00</temp>
<bpm>0</bpm>
<rpm>0.00</rpm>
</extensions>
</trkpt>
<trkpt lat="30.798946381" lon="34.764549255">
<ele>560.796875</ele>
<time>2013-11-21T12:22:54Z</time>
<speed>0.410000</speed>
<extensions>
<speed>0.4</speed>
<temp>0.00</temp>
<bpm>0</bpm>
<rpm>0.00</rpm>
</extensions>
</trkpt>
<trkpt lat="30.798843384" lon="34.764503479">
<ele>559.281250</ele>
<time>2013-11-21T12:22:59Z</time>
<speed>3.290000</speed>
<extensions>
<speed>3.3</speed>
<temp>0.00</temp>
<bpm>0</bpm>
<rpm>0.00</rpm>
</extensions>
</trkpt>
<trkpt lat="30.798734665" lon="34.764419556">
<ele>557.281250</ele>
<time>2013-11-21T12:23:04Z</time>
<speed>1.570000</speed>
<extensions>
<speed>1.6</speed>
<temp>0.00</temp>
<bpm>0</bpm>
<rpm>0.00</rpm>
</extensions>
</trkpt>
<trkpt lat="30.798738480" lon="34.764289856">
<ele>555.781250</ele>
<time>2013-11-21T12:23:09Z</time>
<speed>3.440000</speed>
<extensions>
<speed>3.4</speed>
<temp>0.00</temp>
<bpm>0</bpm>
<rpm>0.00</rpm>
</extensions>
</trkpt>
<trkpt lat="30.798728943" lon="34.764072418">
<ele>554.312500</ele>
<time>2013-11-21T12:23:14Z</time>
<speed>3.420000</speed>
<extensions>
<speed>3.4</speed>
<temp>0.00</temp>
<bpm>0</bpm>
<rpm>0.00</rpm>
</extensions>
</trkpt>
<trkpt lat="30.798675537" lon="34.763896942">
<ele>552.234375</ele>
<time>2013-11-21T12:23:19Z</time>
<speed>3.290000</speed>
<extensions>
<speed>3.3</speed>
<temp>0.00</temp>
<bpm>0</bpm>
<rpm>0.00</rpm>
</extensions>
</trkpt>
<trkpt lat="30.798606873" lon="34.763713837">
<ele>553.421875</ele>
<time>2013-11-21T12:23:24Z</time>
<speed>3.500000</speed>
<extensions>
<speed>3.5</speed>
<temp>0.00</temp>
<bpm>0</bpm>
<rpm>0.00</rpm>
</extensions>
</trkpt>
<trkpt lat="30.798532486" lon="34.763576508">
<ele>550.593750</ele>
<time>2013-11-21T12:23:29Z</time>
<speed>2.570000</speed>
<extensions>
<speed>2.6</speed>
<temp>0.00</temp>
<bpm>0</bpm>
<rpm>0.00</rpm>
</extensions>
</trkpt>
<trkpt lat="30.798479080" lon="34.763454437">
<ele>551.031250</ele>
<time>2013-11-21T12:23:34Z</time>
<speed>2.140000</speed>
<extensions>
<speed>2.1</speed>
<temp>0.00</temp>
<bpm>0</bpm>
<rpm>0.00</rpm>
</extensions>
</trkpt>
<trkpt lat="30.798423767" lon="34.763309479">
<ele>552.046875</ele>
<time>2013-11-21T12:23:39Z</time>
<speed>3.070000</speed>
<extensions>
<speed>3.1</speed>
<temp>0.00</temp>
<bpm>0</bpm>
<rpm>0.00</rpm>
</extensions>
</trkpt>
<trkpt lat="30.798364639" lon="34.763149261">
<ele>553.375000</ele>
<time>2013-11-21T12:23:44Z</time>
<speed>3.370000</speed>
<extensions>
<speed>3.4</speed>
<temp>0.00</temp>
<bpm>0</bpm>
<rpm>0.00</rpm>
</extensions>
</trkpt>
<trkpt lat="30.798299789" lon="34.762985229">
<ele>551.250000</ele>
<time>2013-11-21T12:23:49Z</time>
<speed>2.550000</speed>
<extensions>
<speed>2.6</speed>
<temp>0.00</temp>
<bpm>0</bpm>
<rpm>0.00</rpm>
</extensions>
</trkpt>
<trkpt lat="30.798252106" lon="34.762893677">
<ele>549.609375</ele>
<time>2013-11-21T12:23:54Z</time>
<speed>1.920000</speed>
<extensions>
<speed>1.9</speed>
<temp>0.00</temp>
<bpm>0</bpm>
<rpm>0.00</rpm>
</extensions>
</trkpt>
<trkpt lat="30.798200607" lon="34.762840271">
<ele>550.656250</ele>
<time>2013-11-21T12:23:59Z</time>
<speed>2.010000</speed>
<extensions>
<speed>2.0</speed>
<temp>0.00</temp>
<bpm>0</bpm>
<rpm>0.00</rpm>
</extensions>
</trkpt>
<trkpt lat="30.798063278" lon="34.762722015">
<ele>548.671875</ele>
<time>2013-11-21T12:24:04Z</time>
<speed>3.340000</speed>
<extensions>
<speed>3.3</speed>
<temp>0.00</temp>
<bpm>0</bpm>
<rpm>0.00</rpm>
</extensions>
</trkpt>
<trkpt lat="30.797964096" lon="34.762626648">
<ele>549.187500</ele>
<time>2013-11-21T12:24:09Z</time>
<speed>2.820000</speed>
<extensions>
<speed>2.8</speed>
<temp>0.00</temp>
<bpm>0</bpm>
<rpm>0.00</rpm>
</extensions>
</trkpt>
<trkpt lat="30.797874451" lon="34.762546539">
<ele>547.296875</ele>
<time>2013-11-21T12:24:14Z</time>
<speed>2.920000</speed>
<extensions>
<speed>2.9</speed>
<temp>0.00</temp>
<bpm>0</bpm>
<rpm>0.00</rpm>
</extensions>
</trkpt>
<trkpt lat="30.797788620" lon="34.762451172">
<ele>547.125000</ele>
<time>2013-11-21T12:24:19Z</time>
<speed>2.820000</speed>
<extensions>
<speed>2.8</speed>
<temp>0.00</temp>
<bpm>0</bpm>
<rpm>0.00</rpm>
</extensions>
</trkpt>
<trkpt lat="30.797775269" lon="34.762428284">
<ele>545.906250</ele>
<time>2013-11-21T12:24:24Z</time>
<speed>0.090000</speed>
<extensions>
<speed>0.1</speed>
<temp>0.00</temp>
<bpm>0</bpm>
<rpm>0.00</rpm>
</extensions>
</trkpt>
<trkpt lat="30.797777176" lon="34.762424469">
<ele>545.734375</ele>
<time>2013-11-21T12:24:29Z</time>
<speed>0.050000</speed>
<extensions>
<speed>0.1</speed>
<temp>0.00</temp>
<bpm>0</bpm>
<rpm>0.00</rpm>
</extensions>
</trkpt>
<trkpt lat="30.797765732" lon="34.762413025">
<ele>545.640625</ele>
<time>2013-11-21T12:24:34Z</time>
<speed>0.700000</speed>
<extensions>
<speed>0.7</speed>
<temp>0.00</temp>
<bpm>0</bpm>
<rpm>0.00</rpm>
</extensions>
</trkpt>
<trkpt lat="30.797735214" lon="34.762390137">
<ele>545.593750</ele>
<time>2013-11-21T12:24:39Z</time>
<speed>1.040000</speed>
<extensions>
<speed>1.0</speed>
<temp>0.00</temp>
<bpm>0</bpm>
<rpm>0.00</rpm>
</extensions>
</trkpt>
<trkpt lat="30.797683716" lon="34.762340546">
<ele>545.171875</ele>
<time>2013-11-21T12:24:44Z</time>
<speed>1.040000</speed>
<extensions>
<speed>1.0</speed>
<temp>0.00</temp>
<bpm>0</bpm>
<rpm>0.00</rpm>
</extensions>
</trkpt>
<trkpt lat="30.797643661" lon="34.762283325">
<ele>543.187500</ele>
<time>2013-11-21T12:24:49Z</time>
<speed>1.140000</speed>
<extensions>
<speed>1.1</speed>
<temp>0.00</temp>
<bpm>0</bpm>
<rpm>0.00</rpm>
</extensions>
</trkpt>
<trkpt lat="30.797632217" lon="34.762218475">
<ele>543.125000</ele>
<time>2013-11-21T12:24:54Z</time>
<speed>0.940000</speed>
<extensions>
<speed>0.9</speed>
<temp>0.00</temp>
<bpm>0</bpm>
<rpm>0.00</rpm>
</extensions>
</trkpt>
<trkpt lat="30.797637939" lon="34.762157440">
<ele>543.593750</ele>
<time>2013-11-21T12:24:59Z</time>
<speed>1.140000</speed>
<extensions>
<speed>1.1</speed>
<temp>0.00</temp>
<bpm>0</bpm>
<rpm>0.00</rpm>
</extensions>
</trkpt>
<trkpt lat="30.797645569" lon="34.762104034">
<ele>543.140625</ele>
<time>2013-11-21T12:25:04Z</time>
<speed>1.160000</speed>
<extensions>
<speed>1.2</speed>
<temp>0.00</temp>
<bpm>0</bpm>
<rpm>0.00</rpm>
</extensions>
</trkpt>
<trkpt lat="30.797672272" lon="34.762058258">
<ele>544.609375</ele>
<time>2013-11-21T12:25:09Z</time>
<speed>0.990000</speed>
<extensions>
<speed>1.0</speed>
<temp>0.00</temp>
<bpm>0</bpm>
<rpm>0.00</rpm>
</extensions>
</trkpt>
<trkpt lat="30.797676086" lon="34.762004852">
<ele>545.734375</ele>
<time>2013-11-21T12:25:14Z</time>
<speed>1.030000</speed>
<extensions>
<speed>1.0</speed>
<temp>0.00</temp>
<bpm>0</bpm>
<rpm>0.00</rpm>
</extensions>
</trkpt>
<trkpt lat="30.797693253" lon="34.761951447">
<ele>546.015625</ele>
<time>2013-11-21T12:25:19Z</time>
<speed>0.880000</speed>
<extensions>
<speed>0.9</speed>
<temp>0.00</temp>
<bpm>0</bpm>
<rpm>0.00</rpm>
</extensions>
</trkpt>
<trkpt lat="30.797712326" lon="34.761917114">
<ele>546.234375</ele>
<time>2013-11-21T12:25:24Z</time>
<speed>0.670000</speed>
<extensions>
<speed>0.7</speed>
<temp>0.00</temp>
<bpm>0</bpm>
<rpm>0.00</rpm>
</extensions>
</trkpt>
<trkpt lat="30.797737122" lon="34.761852264">
<ele>546.562500</ele>
<time>2013-11-21T12:25:29Z</time>
<speed>1.180000</speed>
<extensions>
<speed>1.2</speed>
<temp>0.00</temp>
<bpm>0</bpm>
<rpm>0.00</rpm>
</extensions>
</trkpt>
<trkpt lat="30.797754288" lon="34.761779785">
<ele>546.796875</ele>
<time>2013-11-21T12:25:34Z</time>
<speed>1.180000</speed>
<extensions>
<speed>1.2</speed>
<temp>0.00</temp>
<bpm>0</bpm>
<rpm>0.00</rpm>
</extensions>
</trkpt>
<trkpt lat="30.797742844" lon="34.761703491">
<ele>548.328125</ele>
<time>2013-11-21T12:25:39Z</time>
<speed>2.060000</speed>
<extensions>
<speed>2.1</speed>
<temp>0.00</temp>
<bpm>0</bpm>
<rpm>0.00</rpm>
</extensions>
</trkpt>
<trkpt lat="30.797666550" lon="34.761638641">
<ele>549.937500</ele>
<time>2013-11-21T12:25:44Z</time>
<speed>2.260000</speed>
<extensions>
<speed>2.3</speed>
<temp>0.00</temp>
<bpm>0</bpm>
<rpm>0.00</rpm>
</extensions>
</trkpt>
<trkpt lat="30.797567368" lon="34.761543274">
<ele>549.218750</ele>
<time>2013-11-21T12:25:49Z</time>
<speed>3.230000</speed>
<extensions>
<speed>3.2</speed>
<temp>0.00</temp>
<bpm>0</bpm>
<rpm>0.00</rpm>
</extensions>
</trkpt>
<trkpt lat="30.797424316" lon="34.761508942">
<ele>550.375000</ele>
<time>2013-11-21T12:25:54Z</time>
<speed>3.490000</speed>
<extensions>
<speed>3.5</speed>
<temp>0.00</temp>
<bpm>0</bpm>
<rpm>0.00</rpm>
</extensions>
</trkpt>
<trkpt lat="30.797246933" lon="34.761493683">
<ele>552.500000</ele>
<time>2013-11-21T12:25:59Z</time>
<speed>3.700000</speed>
<extensions>
<speed>3.7</speed>
<temp>0.00</temp>
<bpm>0</bpm>
<rpm>0.00</rpm>
</extensions>
</trkpt>
<trkpt lat="30.797101974" lon="34.761516571">
<ele>553.484375</ele>
<time>2013-11-21T12:26:04Z</time>
<speed>2.420000</speed>
<extensions>
<speed>2.4</speed>
<temp>0.00</temp>
<bpm>0</bpm>
<rpm>0.00</rpm>
</extensions>
</trkpt>
<trkpt lat="30.796966553" lon="34.761566162">
<ele>554.765625</ele>
<time>2013-11-21T12:26:09Z</time>
<speed>3.010000</speed>
<extensions>
<speed>3.0</speed>
<temp>0.00</temp>
<bpm>0</bpm>
<rpm>0.00</rpm>
</extensions>
</trkpt>
<trkpt lat="30.796871185" lon="34.761585236">
<ele>556.390625</ele>
<time>2013-11-21T12:26:14Z</time>
<speed>2.130000</speed>
<extensions>
<speed>2.1</speed>
<temp>0.00</temp>
<bpm>0</bpm>
<rpm>0.00</rpm>
</extensions>
</trkpt>
<trkpt lat="30.796770096" lon="34.761623383">
<ele>556.437500</ele>
<time>2013-11-21T12:26:19Z</time>
<speed>2.510000</speed>
<extensions>
<speed>2.5</speed>
<temp>0.00</temp>
<bpm>0</bpm>
<rpm>0.00</rpm>
</extensions>
</trkpt>
<trkpt lat="30.796651840" lon="34.761703491">
<ele>556.140625</ele>
<time>2013-11-21T12:26:24Z</time>
<speed>2.460000</speed>
<extensions>
<speed>2.5</speed>
<temp>0.00</temp>
<bpm>0</bpm>
<rpm>0.00</rpm>
</extensions>
</trkpt>
<trkpt lat="30.796590805" lon="34.761722565">
<ele>557.437500</ele>
<time>2013-11-21T12:26:29Z</time>
<speed>1.460000</speed>
<extensions>
<speed>1.5</speed>
<temp>0.00</temp>
<bpm>0</bpm>
<rpm>0.00</rpm>
</extensions>
</trkpt>
<trkpt lat="30.796518326" lon="34.761741638">
<ele>557.875000</ele>
<time>2013-11-21T12:26:34Z</time>
<speed>2.990000</speed>
<extensions>
<speed>3.0</speed>
<temp>0.00</temp>
<bpm>0</bpm>
<rpm>0.00</rpm>
</extensions>
</trkpt>
<trkpt lat="30.796428680" lon="34.761657715">
<ele>557.875000</ele>
<time>2013-11-21T12:26:39Z</time>
<speed>3.000000</speed>
<extensions>
<speed>3.0</speed>
<temp>0.00</temp>
<bpm>0</bpm>
<rpm>0.00</rpm>
</extensions>
</trkpt>
<trkpt lat="30.796400070" lon="34.761489868">
<ele>558.250000</ele>
<time>2013-11-21T12:26:44Z</time>
<speed>3.880000</speed>
<extensions>
<speed>3.9</speed>
<temp>0.00</temp>
<bpm>0</bpm>
<rpm>0.00</rpm>
</extensions>
</trkpt>
<trkpt lat="30.796384811" lon="34.761295319">
<ele>558.062500</ele>
<time>2013-11-21T12:26:49Z</time>
<speed>3.830000</speed>
<extensions>
<speed>3.8</speed>
<temp>0.00</temp>
<bpm>0</bpm>
<rpm>0.00</rpm>
</extensions>
</trkpt>
<trkpt lat="30.796360016" lon="34.761093140">
<ele>557.000000</ele>
<time>2013-11-21T12:26:54Z</time>
<speed>4.400000</speed>
<extensions>
<speed>4.4</speed>
<temp>0.00</temp>
<bpm>0</bpm>
<rpm>0.00</rpm>
</extensions>
</trkpt>
<trkpt lat="30.796270370" lon="34.760887146">
<ele>557.671875</ele>
<time>2013-11-21T12:26:59Z</time>
<speed>3.940000</speed>
<extensions>
<speed>3.9</speed>
<temp>0.00</temp>
<bpm>0</bpm>
<rpm>0.00</rpm>
</extensions>
</trkpt>
<trkpt lat="30.796203613" lon="34.760700226">
<ele>558.531250</ele>
<time>2013-11-21T12:27:04Z</time>
<speed>3.900000</speed>
<extensions>
<speed>3.9</speed>
<temp>0.00</temp>
<bpm>0</bpm>
<rpm>0.00</rpm>
</extensions>
</trkpt>
<trkpt lat="30.796148300" lon="34.760540009">
<ele>555.687500</ele>
<time>2013-11-21T12:27:09Z</time>
<speed>2.850000</speed>
<extensions>
<speed>2.9</speed>
<temp>0.00</temp>
<bpm>0</bpm>
<rpm>0.00</rpm>
</extensions>
</trkpt>
<trkpt lat="30.796092987" lon="34.760383606">
<ele>554.015625</ele>
<time>2013-11-21T12:27:14Z</time>
<speed>2.990000</speed>
<extensions>
<speed>3.0</speed>
<temp>0.00</temp>
<bpm>0</bpm>
<rpm>0.00</rpm>
</extensions>
</trkpt>
<trkpt lat="30.796037674" lon="34.760272980">
<ele>552.265625</ele>
<time>2013-11-21T12:27:19Z</time>
<speed>1.960000</speed>
<extensions>
<speed>2.0</speed>
<temp>0.00</temp>
<bpm>0</bpm>
<rpm>0.00</rpm>
</extensions>
</trkpt>
<trkpt lat="30.796014786" lon="34.760196686">
<ele>552.843750</ele>
<time>2013-11-21T12:27:24Z</time>
<speed>1.720000</speed>
<extensions>
<speed>1.7</speed>
<temp>0.00</temp>
<bpm>0</bpm>
<rpm>0.00</rpm>
</extensions>
</trkpt>
<trkpt lat="30.795976639" lon="34.760128021">
<ele>555.171875</ele>
<time>2013-11-21T12:27:29Z</time>
<speed>2.100000</speed>
<extensions>
<speed>2.1</speed>
<temp>0.00</temp>
<bpm>0</bpm>
<rpm>0.00</rpm>
</extensions>
</trkpt>
<trkpt lat="30.795934677" lon="34.760002136">
<ele>553.203125</ele>
<time>2013-11-21T12:27:34Z</time>
<speed>2.160000</speed>
<extensions>
<speed>2.2</speed>
<temp>0.00</temp>
<bpm>0</bpm>
<rpm>0.00</rpm>
</extensions>
</trkpt>
<trkpt lat="30.795885086" lon="34.759902954">
<ele>553.515625</ele>
<time>2013-11-21T12:27:39Z</time>
<speed>2.480000</speed>
<extensions>
<speed>2.5</speed>
<temp>0.00</temp>
<bpm>0</bpm>
<rpm>0.00</rpm>
</extensions>
</trkpt>
<trkpt lat="30.795837402" lon="34.759746552">
<ele>553.593750</ele>
<time>2013-11-21T12:27:44Z</time>
<speed>4.080000</speed>
<extensions>
<speed>4.1</speed>
<temp>0.00</temp>
<bpm>0</bpm>
<rpm>0.00</rpm>
</extensions>
</trkpt>
<trkpt lat="30.795742035" lon="34.759552002">
<ele>552.937500</ele>
<time>2013-11-21T12:27:49Z</time>
<speed>3.660000</speed>
<extensions>
<speed>3.7</speed>
<temp>0.00</temp>
<bpm>0</bpm>
<rpm>0.00</rpm>
</extensions>
</trkpt>
<trkpt lat="30.795631409" lon="34.759418488">
<ele>553.296875</ele>
<time>2013-11-21T12:27:54Z</time>
<speed>3.060000</speed>
<extensions>
<speed>3.1</speed>
<temp>0.00</temp>
<bpm>0</bpm>
<rpm>0.00</rpm>
</extensions>
</trkpt>
<trkpt lat="30.795518875" lon="34.759296417">
<ele>554.828125</ele>
<time>2013-11-21T12:27:59Z</time>
<speed>3.780000</speed>
<extensions>
<speed>3.8</speed>
<temp>0.00</temp>
<bpm>0</bpm>
<rpm>0.00</rpm>
</extensions>
</trkpt>
<trkpt lat="30.795412064" lon="34.759178162">
<ele>556.406250</ele>
<time>2013-11-21T12:28:04Z</time>
<speed>4.000000</speed>
<extensions>
<speed>4.0</speed>
<temp>0.00</temp>
<bpm>0</bpm>
<rpm>0.00</rpm>
</extensions>
</trkpt>
<trkpt lat="30.795282364" lon="34.759037018">
<ele>555.718750</ele>
<time>2013-11-21T12:28:09Z</time>
<speed>3.130000</speed>
<extensions>
<speed>3.1</speed>
<temp>0.00</temp>
<bpm>0</bpm>
<rpm>0.00</rpm>
</extensions>
</trkpt>
<trkpt lat="30.795169830" lon="34.758945465">
<ele>554.187500</ele>
<time>2013-11-21T12:28:14Z</time>
<speed>3.550000</speed>
<extensions>
<speed>3.5</speed>
<temp>0.00</temp>
<bpm>0</bpm>
<rpm>0.00</rpm>
</extensions>
</trkpt>
<trkpt lat="30.795057297" lon="34.758831024">
<ele>553.687500</ele>
<time>2013-11-21T12:28:19Z</time>
<speed>3.080000</speed>
<extensions>
<speed>3.1</speed>
<temp>0.00</temp>
<bpm>0</bpm>
<rpm>0.00</rpm>
</extensions>
</trkpt>
<trkpt lat="30.794994354" lon="34.758728027">
<ele>552.750000</ele>
<time>2013-11-21T12:28:24Z</time>
<speed>2.370000</speed>
<extensions>
<speed>2.4</speed>
<temp>0.00</temp>
<bpm>0</bpm>
<rpm>0.00</rpm>
</extensions>
</trkpt>
<trkpt lat="30.794914246" lon="34.758644104">
<ele>554.921875</ele>
<time>2013-11-21T12:28:29Z</time>
<speed>2.140000</speed>
<extensions>
<speed>2.1</speed>
<temp>0.00</temp>
<bpm>0</bpm>
<rpm>0.00</rpm>
</extensions>
</trkpt>
<trkpt lat="30.794830322" lon="34.758560181">
<ele>554.328125</ele>
<time>2013-11-21T12:28:34Z</time>
<speed>2.000000</speed>
<extensions>
<speed>2.0</speed>
<temp>0.00</temp>
<bpm>0</bpm>
<rpm>0.00</rpm>
</extensions>
</trkpt>
<trkpt lat="30.794731140" lon="34.758487701">
<ele>554.437500</ele>
<time>2013-11-21T12:28:39Z</time>
<speed>3.430000</speed>
<extensions>
<speed>3.4</speed>
<temp>0.00</temp>
<bpm>0</bpm>
<rpm>0.00</rpm>
</extensions>
</trkpt>
<trkpt lat="30.794633865" lon="34.758331299">
<ele>555.390625</ele>
<time>2013-11-21T12:28:44Z</time>
<speed>3.430000</speed>
<extensions>
<speed>3.4</speed>
<temp>0.00</temp>
<bpm>0</bpm>
<rpm>0.00</rpm>
</extensions>
</trkpt>
<trkpt lat="30.794498444" lon="34.758213043">
<ele>554.265625</ele>
<time>2013-11-21T12:28:49Z</time>
<speed>4.000000</speed>
<extensions>
<speed>4.0</speed>
<temp>0.00</temp>
<bpm>0</bpm>
<rpm>0.00</rpm>
</extensions>
</trkpt>
<trkpt lat="30.794420242" lon="34.758052826">
<ele>552.640625</ele>
<time>2013-11-21T12:28:54Z</time>
<speed>3.130000</speed>
<extensions>
<speed>3.1</speed>
<temp>0.00</temp>
<bpm>0</bpm>
<rpm>0.00</rpm>
</extensions>
</trkpt>
<trkpt lat="30.794343948" lon="34.757892609">
<ele>552.125000</ele>
<time>2013-11-21T12:28:59Z</time>
<speed>3.950000</speed>
<extensions>
<speed>4.0</speed>
<temp>0.00</temp>
<bpm>0</bpm>
<rpm>0.00</rpm>
</extensions>
</trkpt>
<trkpt lat="30.794227600" lon="34.757690430">
<ele>551.968750</ele>
<time>2013-11-21T12:29:04Z</time>
<speed>4.100000</speed>
<extensions>
<speed>4.1</speed>
<temp>0.00</temp>
<bpm>0</bpm>
<rpm>0.00</rpm>
</extensions>
</trkpt>
<trkpt lat="30.794107437" lon="34.757503510">
<ele>551.296875</ele>
<time>2013-11-21T12:29:09Z</time>
<speed>3.300000</speed>
<extensions>
<speed>3.3</speed>
<temp>0.00</temp>
<bpm>0</bpm>
<rpm>0.00</rpm>
</extensions>
</trkpt>
<trkpt lat="30.794132233" lon="34.757339478">
<ele>550.890625</ele>
<time>2013-11-21T12:29:14Z</time>
<speed>3.920000</speed>
<extensions>
<speed>3.9</speed>
<temp>0.00</temp>
<bpm>0</bpm>
<rpm>0.00</rpm>
</extensions>
</trkpt>
<trkpt lat="30.794286728" lon="34.757186890">
<ele>548.296875</ele>
<time>2013-11-21T12:29:19Z</time>
<speed>4.930000</speed>
<extensions>
<speed>4.9</speed>
<temp>0.00</temp>
<bpm>0</bpm>
<rpm>0.00</rpm>
</extensions>
</trkpt>
<trkpt lat="30.794467926" lon="34.757022858">
<ele>546.531250</ele>
<time>2013-11-21T12:29:24Z</time>
<speed>4.560000</speed>
<extensions>
<speed>4.6</speed>
<temp>0.00</temp>
<bpm>0</bpm>
<rpm>0.00</rpm>
</extensions>
</trkpt>
<trkpt lat="30.794589996" lon="34.756858826">
<ele>549.812500</ele>
<time>2013-11-21T12:29:29Z</time>
<speed>3.520000</speed>
<extensions>
<speed>3.5</speed>
<temp>0.00</temp>
<bpm>0</bpm>
<rpm>0.00</rpm>
</extensions>
</trkpt>
<trkpt lat="30.794675827" lon="34.756694794">
<ele>548.156250</ele>
<time>2013-11-21T12:29:34Z</time>
<speed>3.740000</speed>
<extensions>
<speed>3.7</speed>
<temp>0.00</temp>
<bpm>0</bpm>
<rpm>0.00</rpm>
</extensions>
</trkpt>
<trkpt lat="30.794748306" lon="34.756511688">
<ele>549.328125</ele>
<time>2013-11-21T12:29:39Z</time>
<speed>3.860000</speed>
<extensions>
<speed>3.9</speed>
<temp>0.00</temp>
<bpm>0</bpm>
<rpm>0.00</rpm>
</extensions>
</trkpt>
<trkpt lat="30.794750214" lon="34.756431580">
<ele>548.031250</ele>
<time>2013-11-21T12:29:44Z</time>
<speed>0.200000</speed>
<extensions>
<speed>0.2</speed>
<temp>0.00</temp>
<bpm>0</bpm>
<rpm>0.00</rpm>
</extensions>
</trkpt>
<trkpt lat="30.794757843" lon="34.756439209">
<ele>548.109375</ele>
<time>2013-11-21T12:29:49Z</time>
<speed>0.020000</speed>
<extensions>
<speed>0.0</speed>
<temp>0.00</temp>
<bpm>0</bpm>
<rpm>0.00</rpm>
</extensions>
</trkpt>
<trkpt lat="30.794755936" lon="34.756439209">
<ele>548.093750</ele>
<time>2013-11-21T12:29:54Z</time>
<speed>0.070000</speed>
<extensions>
<speed>0.1</speed>
<temp>0.00</temp>
<bpm>0</bpm>
<rpm>0.00</rpm>
</extensions>
</trkpt>
<trkpt lat="30.794754028" lon="34.756439209">
<ele>548.109375</ele>
<time>2013-11-21T12:29:59Z</time>
<speed>0.070000</speed>
<extensions>
<speed>0.1</speed>
<temp>0.00</temp>
<bpm>0</bpm>
<rpm>0.00</rpm>
</extensions>
</trkpt>
<trkpt lat="30.794752121" lon="34.756439209">
<ele>548.078125</ele>
<time>2013-11-21T12:30:04Z</time>
<speed>0.120000</speed>
<extensions>
<speed>0.1</speed>
<temp>0.00</temp>
<bpm>0</bpm>
<rpm>0.00</rpm>
</extensions>
</trkpt>
<trkpt lat="30.794748306" lon="34.756435394">
<ele>548.015625</ele>
<time>2013-11-21T12:30:09Z</time>
<speed>0.090000</speed>
<extensions>
<speed>0.1</speed>
<temp>0.00</temp>
<bpm>0</bpm>
<rpm>0.00</rpm>
</extensions>
</trkpt>
<trkpt lat="30.794788361" lon="34.756320953">
<ele>547.312500</ele>
<time>2013-11-21T12:30:14Z</time>
<speed>4.840000</speed>
<extensions>
<speed>4.8</speed>
<temp>0.00</temp>
<bpm>0</bpm>
<rpm>0.00</rpm>
</extensions>
</trkpt>
<trkpt lat="30.794818878" lon="34.756050110">
<ele>546.593750</ele>
<time>2013-11-21T12:30:19Z</time>
<speed>3.740000</speed>
<extensions>
<speed>3.7</speed>
<temp>0.00</temp>
<bpm>0</bpm>
<rpm>0.00</rpm>
</extensions>
</trkpt>
<trkpt lat="30.794744492" lon="34.756000519">
<ele>547.687500</ele>
<time>2013-11-21T12:30:24Z</time>
<speed>2.080000</speed>
<extensions>
<speed>2.1</speed>
<temp>0.00</temp>
<bpm>0</bpm>
<rpm>0.00</rpm>
</extensions>
</trkpt>
<trkpt lat="30.794708252" lon="34.755893707">
<ele>547.843750</ele>
<time>2013-11-21T12:30:29Z</time>
<speed>2.340000</speed>
<extensions>
<speed>2.3</speed>
<temp>0.00</temp>
<bpm>0</bpm>
<rpm>0.00</rpm>
</extensions>
</trkpt>
<trkpt lat="30.794658661" lon="34.755867004">
<ele>547.312500</ele>
<time>2013-11-21T12:30:34Z</time>
<speed>1.660000</speed>
<extensions>
<speed>1.7</speed>
<temp>0.00</temp>
<bpm>0</bpm>
<rpm>0.00</rpm>
</extensions>
</trkpt>
<trkpt lat="30.794534683" lon="34.755844116">
<ele>546.734375</ele>
<time>2013-11-21T12:30:39Z</time>
<speed>2.870000</speed>
<extensions>
<speed>2.9</speed>
<temp>0.00</temp>
<bpm>0</bpm>
<rpm>0.00</rpm>
</extensions>
</trkpt>
<trkpt lat="30.794372559" lon="34.755840302">
<ele>545.703125</ele>
<time>2013-11-21T12:30:44Z</time>
<speed>2.890000</speed>
<extensions>
<speed>2.9</speed>
<temp>0.00</temp>
<bpm>0</bpm>
<rpm>0.00</rpm>
</extensions>
</trkpt>
<trkpt lat="30.794261932" lon="34.755847931">
<ele>545.562500</ele>
<time>2013-11-21T12:30:49Z</time>
<speed>2.350000</speed>
<extensions>
<speed>2.4</speed>
<temp>0.00</temp>
<bpm>0</bpm>
<rpm>0.00</rpm>
</extensions>
</trkpt>
<trkpt lat="30.794130325" lon="34.755805969">
<ele>546.171875</ele>
<time>2013-11-21T12:30:54Z</time>
<speed>3.210000</speed>
<extensions>
<speed>3.2</speed>
<temp>0.00</temp>
<bpm>0</bpm>
<rpm>0.00</rpm>
</extensions>
</trkpt>
<trkpt lat="30.793968201" lon="34.755809784">
<ele>546.640625</ele>
<time>2013-11-21T12:30:59Z</time>
<speed>3.060000</speed>
<extensions>
<speed>3.1</speed>
<temp>0.00</temp>
<bpm>0</bpm>
<rpm>0.00</rpm>
</extensions>
</trkpt>
<trkpt lat="30.793794632" lon="34.755874634">
<ele>547.328125</ele>
<time>2013-11-21T12:31:04Z</time>
<speed>3.930000</speed>
<extensions>
<speed>3.9</speed>
<temp>0.00</temp>
<bpm>0</bpm>
<rpm>0.00</rpm>
</extensions>
</trkpt>
<trkpt lat="30.793642044" lon="34.755943298">
<ele>547.531250</ele>
<time>2013-11-21T12:31:09Z</time>
<speed>4.180000</speed>
<extensions>
<speed>4.2</speed>
<temp>0.00</temp>
<bpm>0</bpm>
<rpm>0.00</rpm>
</extensions>
</trkpt>
<trkpt lat="30.793476105" lon="34.755950928">
<ele>546.718750</ele>
<time>2013-11-21T12:31:14Z</time>
<speed>3.090000</speed>
<extensions>
<speed>3.1</speed>
<temp>0.00</temp>
<bpm>0</bpm>
<rpm>0.00</rpm>
</extensions>
</trkpt>
<trkpt lat="30.793380737" lon="34.756027222">
<ele>547.437500</ele>
<time>2013-11-21T12:31:19Z</time>
<speed>2.730000</speed>
<extensions>
<speed>2.7</speed>
<temp>0.00</temp>
<bpm>0</bpm>
<rpm>0.00</rpm>
</extensions>
</trkpt>
<trkpt lat="30.793231964" lon="34.756069183">
<ele>546.140625</ele>
<time>2013-11-21T12:31:24Z</time>
<speed>3.950000</speed>
<extensions>
<speed>4.0</speed>
<temp>0.00</temp>
<bpm>0</bpm>
<rpm>0.00</rpm>
</extensions>
</trkpt>
<trkpt lat="30.793073654" lon="34.756130219">
<ele>544.312500</ele>
<time>2013-11-21T12:31:29Z</time>
<speed>3.770000</speed>
<extensions>
<speed>3.8</speed>
<temp>0.00</temp>
<bpm>0</bpm>
<rpm>0.00</rpm>
</extensions>
</trkpt>
<trkpt lat="30.792884827" lon="34.756191254">
<ele>544.828125</ele>
<time>2013-11-21T12:31:34Z</time>
<speed>4.340000</speed>
<extensions>
<speed>4.3</speed>
<temp>0.00</temp>
<bpm>0</bpm>
<rpm>0.00</rpm>
</extensions>
</trkpt>
<trkpt lat="30.792699814" lon="34.756259918">
<ele>544.890625</ele>
<time>2013-11-21T12:31:39Z</time>
<speed>4.310000</speed>
<extensions>
<speed>4.3</speed>
<temp>0.00</temp>
<bpm>0</bpm>
<rpm>0.00</rpm>
</extensions>
</trkpt>
<trkpt lat="30.792528152" lon="34.756370544">
<ele>544.968750</ele>
<time>2013-11-21T12:31:44Z</time>
<speed>4.570000</speed>
<extensions>
<speed>4.6</speed>
<temp>0.00</temp>
<bpm>0</bpm>
<rpm>0.00</rpm>
</extensions>
</trkpt>
<trkpt lat="30.792348862" lon="34.756431580">
<ele>543.218750</ele>
<time>2013-11-21T12:31:49Z</time>
<speed>3.840000</speed>
<extensions>
<speed>3.8</speed>
<temp>0.00</temp>
<bpm>0</bpm>
<rpm>0.00</rpm>
</extensions>
</trkpt>
<trkpt lat="30.792160034" lon="34.756469727">
<ele>542.562500</ele>
<time>2013-11-21T12:31:54Z</time>
<speed>4.550000</speed>
<extensions>
<speed>4.5</speed>
<temp>0.00</temp>
<bpm>0</bpm>
<rpm>0.00</rpm>
</extensions>
</trkpt>
<trkpt lat="30.791969299" lon="34.756614685">
<ele>541.296875</ele>
<time>2013-11-21T12:31:59Z</time>
<speed>4.700000</speed>
<extensions>
<speed>4.7</speed>
<temp>0.00</temp>
<bpm>0</bpm>
<rpm>0.00</rpm>
</extensions>
</trkpt>
<trkpt lat="30.791812897" lon="34.756771088">
<ele>541.203125</ele>
<time>2013-11-21T12:32:04Z</time>
<speed>4.440000</speed>
<extensions>
<speed>4.4</speed>
<temp>0.00</temp>
<bpm>0</bpm>
<rpm>0.00</rpm>
</extensions>
</trkpt>
<trkpt lat="30.791675568" lon="34.756958008">
<ele>541.390625</ele>
<time>2013-11-21T12:32:09Z</time>
<speed>4.360000</speed>
<extensions>
<speed>4.4</speed>
<temp>0.00</temp>
<bpm>0</bpm>
<rpm>0.00</rpm>
</extensions>
</trkpt>
<trkpt lat="30.791568756" lon="34.757125854">
<ele>539.828125</ele>
<time>2013-11-21T12:32:14Z</time>
<speed>3.850000</speed>
<extensions>
<speed>3.8</speed>
<temp>0.00</temp>
<bpm>0</bpm>
<rpm>0.00</rpm>
</extensions>
</trkpt>
<trkpt lat="30.791444778" lon="34.757247925">
<ele>537.875000</ele>
<time>2013-11-21T12:32:19Z</time>
<speed>4.230000</speed>
<extensions>
<speed>4.2</speed>
<temp>0.00</temp>
<bpm>0</bpm>
<rpm>0.00</rpm>
</extensions>
</trkpt>
<trkpt lat="30.791358948" lon="34.757408142">
<ele>536.859375</ele>
<time>2013-11-21T12:32:24Z</time>
<speed>2.570000</speed>
<extensions>
<speed>2.6</speed>
<temp>0.00</temp>
<bpm>0</bpm>
<rpm>0.00</rpm>
</extensions>
</trkpt>
<trkpt lat="30.791324615" lon="34.757423401">
<ele>531.781250</ele>
<time>2013-11-21T12:32:29Z</time>
<speed>0.160000</speed>
<extensions>
<speed>0.2</speed>
<temp>0.00</temp>
<bpm>0</bpm>
<rpm>0.00</rpm>
</extensions>
</trkpt>
<trkpt lat="30.791328430" lon="34.757427216">
<ele>531.140625</ele>
<time>2013-11-21T12:32:34Z</time>
<speed>0.020000</speed>
<extensions>
<speed>0.0</speed>
<temp>0.00</temp>
<bpm>0</bpm>
<rpm>0.00</rpm>
</extensions>
</trkpt>
<trkpt lat="30.791326523" lon="34.757423401">
<ele>531.265625</ele>
<time>2013-11-21T12:32:39Z</time>
<speed>0.040000</speed>
<extensions>
<speed>0.0</speed>
<temp>0.00</temp>
<bpm>0</bpm>
<rpm>0.00</rpm>
</extensions>
</trkpt>
<trkpt lat="30.791324615" lon="34.757423401">
<ele>531.312500</ele>
<time>2013-11-21T12:32:44Z</time>
<speed>0.020000</speed>
<extensions>
<speed>0.0</speed>
<temp>0.00</temp>
<bpm>0</bpm>
<rpm>0.00</rpm>
</extensions>
</trkpt>
<trkpt lat="30.791322708" lon="34.757423401">
<ele>531.359375</ele>
<time>2013-11-21T12:32:49Z</time>
<speed>0.030000</speed>
<extensions>
<speed>0.0</speed>
<temp>0.00</temp>
<bpm>0</bpm>
<rpm>0.00</rpm>
</extensions>
</trkpt>
<trkpt lat="30.791322708" lon="34.757419586">
<ele>531.453125</ele>
<time>2013-11-21T12:32:54Z</time>
<speed>0.040000</speed>
<extensions>
<speed>0.0</speed>
<temp>0.00</temp>
<bpm>0</bpm>
<rpm>0.00</rpm>
</extensions>
</trkpt>
<trkpt lat="30.791320801" lon="34.757419586">
<ele>531.421875</ele>
<time>2013-11-21T12:32:59Z</time>
<speed>0.010000</speed>
<extensions>
<speed>0.0</speed>
<temp>0.00</temp>
<bpm>0</bpm>
<rpm>0.00</rpm>
</extensions>
</trkpt>
<trkpt lat="30.791320801" lon="34.757419586">
<ele>531.421875</ele>
<time>2013-11-21T12:33:04Z</time>
<speed>0.010000</speed>
<extensions>
<speed>0.0</speed>
<temp>0.00</temp>
<bpm>0</bpm>
<rpm>0.00</rpm>
</extensions>
</trkpt>
<trkpt lat="30.791320801" lon="34.757419586">
<ele>531.437500</ele>
<time>2013-11-21T12:33:09Z</time>
<speed>0.010000</speed>
<extensions>
<speed>0.0</speed>
<temp>0.00</temp>
<bpm>0</bpm>
<rpm>0.00</rpm>
</extensions>
</trkpt>
<trkpt lat="30.791320801" lon="34.757419586">
<ele>531.453125</ele>
<time>2013-11-21T12:33:14Z</time>
<speed>0.010000</speed>
<extensions>
<speed>0.0</speed>
<temp>0.00</temp>
<bpm>0</bpm>
<rpm>0.00</rpm>
</extensions>
</trkpt>
<trkpt lat="30.791320801" lon="34.757419586">
<ele>531.484375</ele>
<time>2013-11-21T12:33:19Z</time>
<speed>0.020000</speed>
<extensions>
<speed>0.0</speed>
<temp>0.00</temp>
<bpm>0</bpm>
<rpm>0.00</rpm>
</extensions>
</trkpt>
<trkpt lat="30.791318893" lon="34.757419586">
<ele>531.484375</ele>
<time>2013-11-21T12:33:24Z</time>
<speed>0.020000</speed>
<extensions>
<speed>0.0</speed>
<temp>0.00</temp>
<bpm>0</bpm>
<rpm>0.00</rpm>
</extensions>
</trkpt>
<trkpt lat="30.791318893" lon="34.757419586">
<ele>531.484375</ele>
<time>2013-11-21T12:33:29Z</time>
<extensions>
<speed>0.0</speed>
<temp>0.00</temp>
<bpm>0</bpm>
<rpm>0.00</rpm>
</extensions>
</trkpt>
<trkpt lat="30.791315079" lon="34.757408142">
<ele>531.515625</ele>
<time>2013-11-21T12:33:34Z</time>
<speed>1.010000</speed>
<extensions>
<speed>1.0</speed>
<temp>0.00</temp>
<bpm>0</bpm>
<rpm>0.00</rpm>
</extensions>
</trkpt>
<trkpt lat="30.791261673" lon="34.757305145">
<ele>531.625000</ele>
<time>2013-11-21T12:33:39Z</time>
<speed>3.620000</speed>
<extensions>
<speed>3.6</speed>
<temp>0.00</temp>
<bpm>0</bpm>
<rpm>0.00</rpm>
</extensions>
</trkpt>
<trkpt lat="30.791166306" lon="34.757110596">
<ele>531.453125</ele>
<time>2013-11-21T12:33:44Z</time>
<speed>3.270000</speed>
<extensions>
<speed>3.3</speed>
<temp>0.00</temp>
<bpm>0</bpm>
<rpm>0.00</rpm>
</extensions>
</trkpt>
<trkpt lat="30.791099548" lon="34.756984711">
<ele>531.062500</ele>
<time>2013-11-21T12:33:49Z</time>
<speed>2.290000</speed>
<extensions>
<speed>2.3</speed>
<temp>0.00</temp>
<bpm>0</bpm>
<rpm>0.00</rpm>
</extensions>
</trkpt>
<trkpt lat="30.791059494" lon="34.756843567">
<ele>530.515625</ele>
<time>2013-11-21T12:33:54Z</time>
<speed>2.300000</speed>
<extensions>
<speed>2.3</speed>
<temp>0.00</temp>
<bpm>0</bpm>
<rpm>0.00</rpm>
</extensions>
</trkpt>
<trkpt lat="30.791032791" lon="34.756721497">
<ele>529.484375</ele>
<time>2013-11-21T12:33:59Z</time>
<speed>3.400000</speed>
<extensions>
<speed>3.4</speed>
<temp>0.00</temp>
<bpm>0</bpm>
<rpm>0.00</rpm>
</extensions>
</trkpt>
<trkpt lat="30.791004181" lon="34.756565094">
<ele>528.765625</ele>
<time>2013-11-21T12:34:04Z</time>
<speed>3.150000</speed>
<extensions>
<speed>3.2</speed>
<temp>0.00</temp>
<bpm>0</bpm>
<rpm>0.00</rpm>
</extensions>
</trkpt>
<trkpt lat="30.791007996" lon="34.756374359">
<ele>527.796875</ele>
<time>2013-11-21T12:34:09Z</time>
<speed>2.910000</speed>
<extensions>
<speed>2.9</speed>
<temp>0.00</temp>
<bpm>0</bpm>
<rpm>0.00</rpm>
</extensions>
</trkpt>
<trkpt lat="30.791015625" lon="34.756202698">
<ele>526.625000</ele>
<time>2013-11-21T12:34:14Z</time>
<speed>2.350000</speed>
<extensions>
<speed>2.4</speed>
<temp>0.00</temp>
<bpm>0</bpm>
<rpm>0.00</rpm>
</extensions>
</trkpt>
<trkpt lat="30.791055679" lon="34.756034851">
<ele>527.437500</ele>
<time>2013-11-21T12:34:19Z</time>
<speed>3.840000</speed>
<extensions>
<speed>3.8</speed>
<temp>0.00</temp>
<bpm>0</bpm>
<rpm>0.00</rpm>
</extensions>
</trkpt>
<trkpt lat="30.791072845" lon="34.755924225">
<ele>528.000000</ele>
<time>2013-11-21T12:34:24Z</time>
<speed>0.190000</speed>
<extensions>
<speed>0.2</speed>
<temp>0.00</temp>
<bpm>0</bpm>
<rpm>0.00</rpm>
</extensions>
</trkpt>
<trkpt lat="30.791069031" lon="34.755939484">
<ele>526.718750</ele>
<time>2013-11-21T12:34:29Z</time>
<speed>0.090000</speed>
<extensions>
<speed>0.1</speed>
<temp>0.00</temp>
<bpm>0</bpm>
<rpm>0.00</rpm>
</extensions>
</trkpt>
<trkpt lat="30.791067123" lon="34.755939484">
<ele>526.593750</ele>
<time>2013-11-21T12:34:34Z</time>
<speed>0.100000</speed>
<extensions>
<speed>0.1</speed>
<temp>0.00</temp>
<bpm>0</bpm>
<rpm>0.00</rpm>
</extensions>
</trkpt>
<trkpt lat="30.791063309" lon="34.755935669">
<ele>526.546875</ele>
<time>2013-11-21T12:34:39Z</time>
<speed>0.010000</speed>
<extensions>
<speed>0.0</speed>
<temp>0.00</temp>
<bpm>0</bpm>
<rpm>0.00</rpm>
</extensions>
</trkpt>
<trkpt lat="30.791063309" lon="34.755935669">
<ele>526.531250</ele>
<time>2013-11-21T12:34:44Z</time>
<speed>0.130000</speed>
<extensions>
<speed>0.1</speed>
<temp>0.00</temp>
<bpm>0</bpm>
<rpm>0.00</rpm>
</extensions>
</trkpt>
<trkpt lat="30.791038513" lon="34.755901337">
<ele>526.671875</ele>
<time>2013-11-21T12:34:49Z</time>
<speed>1.730000</speed>
<extensions>
<speed>1.7</speed>
<temp>0.00</temp>
<bpm>0</bpm>
<rpm>0.00</rpm>
</extensions>
</trkpt>
<trkpt lat="30.790933609" lon="34.755859375">
<ele>527.265625</ele>
<time>2013-11-21T12:34:54Z</time>
<speed>2.790000</speed>
<extensions>
<speed>2.8</speed>
<temp>0.00</temp>
<bpm>0</bpm>
<rpm>0.00</rpm>
</extensions>
</trkpt>
<trkpt lat="30.790802002" lon="34.755802155">
<ele>527.859375</ele>
<time>2013-11-21T12:34:59Z</time>
<speed>2.990000</speed>
<extensions>
<speed>3.0</speed>
<temp>0.00</temp>
<bpm>0</bpm>
<rpm>0.00</rpm>
</extensions>
</trkpt>
<trkpt lat="30.790668488" lon="34.755779266">
<ele>528.531250</ele>
<time>2013-11-21T12:35:04Z</time>
<speed>3.040000</speed>
<extensions>
<speed>3.0</speed>
<temp>0.00</temp>
<bpm>0</bpm>
<rpm>0.00</rpm>
</extensions>
</trkpt>
<trkpt lat="30.790506363" lon="34.755771637">
<ele>529.031250</ele>
<time>2013-11-21T12:35:09Z</time>
<speed>4.330000</speed>
<extensions>
<speed>4.3</speed>
<temp>0.00</temp>
<bpm>0</bpm>
<rpm>0.00</rpm>
</extensions>
</trkpt>
<trkpt lat="30.790315628" lon="34.755748749">
<ele>529.671875</ele>
<time>2013-11-21T12:35:14Z</time>
<speed>3.600000</speed>
<extensions>
<speed>3.6</speed>
<temp>0.00</temp>
<bpm>0</bpm>
<rpm>0.00</rpm>
</extensions>
</trkpt>
<trkpt lat="30.790180206" lon="34.755737305">
<ele>528.859375</ele>
<time>2013-11-21T12:35:19Z</time>
<speed>2.200000</speed>
<extensions>
<speed>2.2</speed>
<temp>0.00</temp>
<bpm>0</bpm>
<rpm>0.00</rpm>
</extensions>
</trkpt>
<trkpt lat="30.790039063" lon="34.755775452">
<ele>528.296875</ele>
<time>2013-11-21T12:35:24Z</time>
<speed>3.610000</speed>
<extensions>
<speed>3.6</speed>
<temp>0.00</temp>
<bpm>0</bpm>
<rpm>0.00</rpm>
</extensions>
</trkpt>
<trkpt lat="30.789903641" lon="34.755821228">
<ele>527.921875</ele>
<time>2013-11-21T12:35:29Z</time>
<speed>1.930000</speed>
<extensions>
<speed>1.9</speed>
<temp>0.00</temp>
<bpm>0</bpm>
<rpm>0.00</rpm>
</extensions>
</trkpt>
<trkpt lat="30.789840698" lon="34.755832672">
<ele>528.359375</ele>
<time>2013-11-21T12:35:34Z</time>
<speed>1.140000</speed>
<extensions>
<speed>1.1</speed>
<temp>0.00</temp>
<bpm>0</bpm>
<rpm>0.00</rpm>
</extensions>
</trkpt>
<trkpt lat="30.789802551" lon="34.755851746">
<ele>529.234375</ele>
<time>2013-11-21T12:35:39Z</time>
<speed>1.390000</speed>
<extensions>
<speed>1.4</speed>
<temp>0.00</temp>
<bpm>0</bpm>
<rpm>0.00</rpm>
</extensions>
</trkpt>
<trkpt lat="30.789733887" lon="34.755847931">
<ele>530.656250</ele>
<time>2013-11-21T12:35:44Z</time>
<speed>1.470000</speed>
<extensions>
<speed>1.5</speed>
<temp>0.00</temp>
<bpm>0</bpm>
<rpm>0.00</rpm>
</extensions>
</trkpt>
<trkpt lat="30.789619446" lon="34.755851746">
<ele>533.015625</ele>
<time>2013-11-21T12:35:49Z</time>
<speed>2.890000</speed>
<extensions>
<speed>2.9</speed>
<temp>0.00</temp>
<bpm>0</bpm>
<rpm>0.00</rpm>
</extensions>
</trkpt>
<trkpt lat="30.789436340" lon="34.755832672">
<ele>536.937500</ele>
<time>2013-11-21T12:35:54Z</time>
<speed>3.870000</speed>
<extensions>
<speed>3.9</speed>
<temp>0.00</temp>
<bpm>0</bpm>
<rpm>0.00</rpm>
</extensions>
</trkpt>
<trkpt lat="30.789319992" lon="34.755809784">
<ele>541.859375</ele>
<time>2013-11-21T12:35:59Z</time>
<speed>2.160000</speed>
<extensions>
<speed>2.2</speed>
<temp>0.00</temp>
<bpm>0</bpm>
<rpm>0.00</rpm>
</extensions>
</trkpt>
<trkpt lat="30.789222717" lon="34.755828857">
<ele>544.578125</ele>
<time>2013-11-21T12:36:04Z</time>
<speed>2.550000</speed>
<extensions>
<speed>2.6</speed>
<temp>0.00</temp>
<bpm>0</bpm>
<rpm>0.00</rpm>
</extensions>
</trkpt>
<trkpt lat="30.789020538" lon="34.755905151">
<ele>544.921875</ele>
<time>2013-11-21T12:36:09Z</time>
<speed>5.220000</speed>
<extensions>
<speed>5.2</speed>
<temp>0.00</temp>
<bpm>0</bpm>
<rpm>0.00</rpm>
</extensions>
</trkpt>
<trkpt lat="30.788799286" lon="34.756011963">
<ele>545.359375</ele>
<time>2013-11-21T12:36:14Z</time>
<speed>4.380000</speed>
<extensions>
<speed>4.4</speed>
<temp>0.00</temp>
<bpm>0</bpm>
<rpm>0.00</rpm>
</extensions>
</trkpt>
<trkpt lat="30.788646698" lon="34.755966187">
<ele>546.828125</ele>
<time>2013-11-21T12:36:19Z</time>
<speed>3.590000</speed>
<extensions>
<speed>3.6</speed>
<temp>0.00</temp>
<bpm>0</bpm>
<rpm>0.00</rpm>
</extensions>
</trkpt>
<trkpt lat="30.788497925" lon="34.755874634">
<ele>547.593750</ele>
<time>2013-11-21T12:36:24Z</time>
<speed>4.340000</speed>
<extensions>
<speed>4.3</speed>
<temp>0.00</temp>
<bpm>0</bpm>
<rpm>0.00</rpm>
</extensions>
</trkpt>
<trkpt lat="30.788339615" lon="34.755767822">
<ele>548.281250</ele>
<time>2013-11-21T12:36:29Z</time>
<speed>3.850000</speed>
<extensions>
<speed>3.8</speed>
<temp>0.00</temp>
<bpm>0</bpm>
<rpm>0.00</rpm>
</extensions>
</trkpt>
<trkpt lat="30.788187027" lon="34.755634308">
<ele>550.062500</ele>
<time>2013-11-21T12:36:34Z</time>
<speed>4.660000</speed>
<extensions>
<speed>4.7</speed>
<temp>0.00</temp>
<bpm>0</bpm>
<rpm>0.00</rpm>
</extensions>
</trkpt>
<trkpt lat="30.788030624" lon="34.755508423">
<ele>549.250000</ele>
<time>2013-11-21T12:36:39Z</time>
<speed>4.420000</speed>
<extensions>
<speed>4.4</speed>
<temp>0.00</temp>
<bpm>0</bpm>
<rpm>0.00</rpm>
</extensions>
</trkpt>
<trkpt lat="30.787908554" lon="34.755413055">
<ele>550.593750</ele>
<time>2013-11-21T12:36:44Z</time>
<speed>3.200000</speed>
<extensions>
<speed>3.2</speed>
<temp>0.00</temp>
<bpm>0</bpm>
<rpm>0.00</rpm>
</extensions>
</trkpt>
<trkpt lat="30.787782669" lon="34.755329132">
<ele>550.656250</ele>
<time>2013-11-21T12:36:49Z</time>
<speed>4.090000</speed>
<extensions>
<speed>4.1</speed>
<temp>0.00</temp>
<bpm>0</bpm>
<rpm>0.00</rpm>
</extensions>
</trkpt>
<trkpt lat="30.787631989" lon="34.755245209">
<ele>553.140625</ele>
<time>2013-11-21T12:36:54Z</time>
<speed>3.250000</speed>
<extensions>
<speed>3.2</speed>
<temp>0.00</temp>
<bpm>0</bpm>
<rpm>0.00</rpm>
</extensions>
</trkpt>
<trkpt lat="30.787477493" lon="34.755130768">
<ele>553.437500</ele>
<time>2013-11-21T12:36:59Z</time>
<speed>4.360000</speed>
<extensions>
<speed>4.4</speed>
<temp>0.00</temp>
<bpm>0</bpm>
<rpm>0.00</rpm>
</extensions>
</trkpt>
<trkpt lat="30.787322998" lon="34.755050659">
<ele>554.921875</ele>
<time>2013-11-21T12:37:04Z</time>
<speed>2.930000</speed>
<extensions>
<speed>2.9</speed>
<temp>0.00</temp>
<bpm>0</bpm>
<rpm>0.00</rpm>
</extensions>
</trkpt>
<trkpt lat="30.787195206" lon="34.755020142">
<ele>555.984375</ele>
<time>2013-11-21T12:37:09Z</time>
<speed>3.880000</speed>
<extensions>
<speed>3.9</speed>
<temp>0.00</temp>
<bpm>0</bpm>
<rpm>0.00</rpm>
</extensions>
</trkpt>
<trkpt lat="30.787054062" lon="34.754962921">
<ele>556.062500</ele>
<time>2013-11-21T12:37:14Z</time>
<speed>2.980000</speed>
<extensions>
<speed>3.0</speed>
<temp>0.00</temp>
<bpm>0</bpm>
<rpm>0.00</rpm>
</extensions>
</trkpt>
<trkpt lat="30.786922455" lon="34.754940033">
<ele>556.984375</ele>
<time>2013-11-21T12:37:19Z</time>
<speed>3.150000</speed>
<extensions>
<speed>3.2</speed>
<temp>0.00</temp>
<bpm>0</bpm>
<rpm>0.00</rpm>
</extensions>
</trkpt>
<trkpt lat="30.786804199" lon="34.754924774">
<ele>557.781250</ele>
<time>2013-11-21T12:37:24Z</time>
<speed>3.030000</speed>
<extensions>
<speed>3.0</speed>
<temp>0.00</temp>
<bpm>0</bpm>
<rpm>0.00</rpm>
</extensions>
</trkpt>
<trkpt lat="30.786664963" lon="34.754928589">
<ele>558.343750</ele>
<time>2013-11-21T12:37:29Z</time>
<speed>2.700000</speed>
<extensions>
<speed>2.7</speed>
<temp>0.00</temp>
<bpm>0</bpm>
<rpm>0.00</rpm>
</extensions>
</trkpt>
<trkpt lat="30.786493301" lon="34.754920959">
<ele>559.453125</ele>
<time>2013-11-21T12:37:34Z</time>
<speed>3.640000</speed>
<extensions>
<speed>3.6</speed>
<temp>0.00</temp>
<bpm>0</bpm>
<rpm>0.00</rpm>
</extensions>
</trkpt>
<trkpt lat="30.786340714" lon="34.754852295">
<ele>558.078125</ele>
<time>2013-11-21T12:37:39Z</time>
<speed>3.770000</speed>
<extensions>
<speed>3.8</speed>
<temp>0.00</temp>
<bpm>0</bpm>
<rpm>0.00</rpm>
</extensions>
</trkpt>
<trkpt lat="30.786178589" lon="34.754768372">
<ele>560.000000</ele>
<time>2013-11-21T12:37:44Z</time>
<speed>4.350000</speed>
<extensions>
<speed>4.3</speed>
<temp>0.00</temp>
<bpm>0</bpm>
<rpm>0.00</rpm>
</extensions>
</trkpt>
<trkpt lat="30.786050797" lon="34.754646301">
<ele>560.140625</ele>
<time>2013-11-21T12:37:49Z</time>
<speed>3.730000</speed>
<extensions>
<speed>3.7</speed>
<temp>0.00</temp>
<bpm>0</bpm>
<rpm>0.00</rpm>
</extensions>
</trkpt>
<trkpt lat="30.785877228" lon="34.754554749">
<ele>560.390625</ele>
<time>2013-11-21T12:37:54Z</time>
<speed>4.190000</speed>
<extensions>
<speed>4.2</speed>
<temp>0.00</temp>
<bpm>0</bpm>
<rpm>0.00</rpm>
</extensions>
</trkpt>
<trkpt lat="30.785741806" lon="34.754428864">
<ele>561.125000</ele>
<time>2013-11-21T12:37:59Z</time>
<speed>3.790000</speed>
<extensions>
<speed>3.8</speed>
<temp>0.00</temp>
<bpm>0</bpm>
<rpm>0.00</rpm>
</extensions>
</trkpt>
<trkpt lat="30.785638809" lon="34.754245758">
<ele>562.109375</ele>
<time>2013-11-21T12:38:04Z</time>
<speed>4.480000</speed>
<extensions>
<speed>4.5</speed>
<temp>0.00</temp>
<bpm>0</bpm>
<rpm>0.00</rpm>
</extensions>
</trkpt>
<trkpt lat="30.785539627" lon="34.754062653">
<ele>562.984375</ele>
<time>2013-11-21T12:38:09Z</time>
<speed>4.370000</speed>
<extensions>
<speed>4.4</speed>
<temp>0.00</temp>
<bpm>0</bpm>
<rpm>0.00</rpm>
</extensions>
</trkpt>
<trkpt lat="30.785432816" lon="34.753906250">
<ele>562.187500</ele>
<time>2013-11-21T12:38:14Z</time>
<speed>4.280000</speed>
<extensions>
<speed>4.3</speed>
<temp>0.00</temp>
<bpm>0</bpm>
<rpm>0.00</rpm>
</extensions>
</trkpt>
<trkpt lat="30.785293579" lon="34.753711700">
<ele>563.406250</ele>
<time>2013-11-21T12:38:19Z</time>
<speed>4.350000</speed>
<extensions>
<speed>4.3</speed>
<temp>0.00</temp>
<bpm>0</bpm>
<rpm>0.00</rpm>
</extensions>
</trkpt>
<trkpt lat="30.785148621" lon="34.753520966">
<ele>563.484375</ele>
<time>2013-11-21T12:38:24Z</time>
<speed>4.710000</speed>
<extensions>
<speed>4.7</speed>
<temp>0.00</temp>
<bpm>0</bpm>
<rpm>0.00</rpm>
</extensions>
</trkpt>
<trkpt lat="30.785022736" lon="34.753337860">
<ele>562.031250</ele>
<time>2013-11-21T12:38:29Z</time>
<speed>3.890000</speed>
<extensions>
<speed>3.9</speed>
<temp>0.00</temp>
<bpm>0</bpm>
<rpm>0.00</rpm>
</extensions>
</trkpt>
<trkpt lat="30.784879684" lon="34.753177643">
<ele>562.640625</ele>
<time>2013-11-21T12:38:34Z</time>
<speed>4.540000</speed>
<extensions>
<speed>4.5</speed>
<temp>0.00</temp>
<bpm>0</bpm>
<rpm>0.00</rpm>
</extensions>
</trkpt>
<trkpt lat="30.784755707" lon="34.753013611">
<ele>563.359375</ele>
<time>2013-11-21T12:38:39Z</time>
<speed>4.370000</speed>
<extensions>
<speed>4.4</speed>
<temp>0.00</temp>
<bpm>0</bpm>
<rpm>0.00</rpm>
</extensions>
</trkpt>
<trkpt lat="30.784599304" lon="34.752853394">
<ele>564.125000</ele>
<time>2013-11-21T12:38:44Z</time>
<speed>4.860000</speed>
<extensions>
<speed>4.9</speed>
<temp>0.00</temp>
<bpm>0</bpm>
<rpm>0.00</rpm>
</extensions>
</trkpt>
<trkpt lat="30.784486771" lon="34.752693176">
<ele>562.843750</ele>
<time>2013-11-21T12:38:49Z</time>
<speed>3.680000</speed>
<extensions>
<speed>3.7</speed>
<temp>0.00</temp>
<bpm>0</bpm>
<rpm>0.00</rpm>
</extensions>
</trkpt>
<trkpt lat="30.784374237" lon="34.752521515">
<ele>562.812500</ele>
<time>2013-11-21T12:38:54Z</time>
<speed>4.150000</speed>
<extensions>
<speed>4.1</speed>
<temp>0.00</temp>
<bpm>0</bpm>
<rpm>0.00</rpm>
</extensions>
</trkpt>
<trkpt lat="30.784265518" lon="34.752357483">
<ele>563.750000</ele>
<time>2013-11-21T12:38:59Z</time>
<speed>3.850000</speed>
<extensions>
<speed>3.8</speed>
<temp>0.00</temp>
<bpm>0</bpm>
<rpm>0.00</rpm>
</extensions>
</trkpt>
<trkpt lat="30.784145355" lon="34.752204895">
<ele>564.890625</ele>
<time>2013-11-21T12:39:04Z</time>
<speed>3.570000</speed>
<extensions>
<speed>3.6</speed>
<temp>0.00</temp>
<bpm>0</bpm>
<rpm>0.00</rpm>
</extensions>
</trkpt>
<trkpt lat="30.784048080" lon="34.752082825">
<ele>564.765625</ele>
<time>2013-11-21T12:39:09Z</time>
<speed>3.940000</speed>
<extensions>
<speed>3.9</speed>
<temp>0.00</temp>
<bpm>0</bpm>
<rpm>0.00</rpm>
</extensions>
</trkpt>
<trkpt lat="30.783958435" lon="34.751995087">
<ele>563.968750</ele>
<time>2013-11-21T12:39:14Z</time>
<speed>2.140000</speed>
<extensions>
<speed>2.1</speed>
<temp>0.00</temp>
<bpm>0</bpm>
<rpm>0.00</rpm>
</extensions>
</trkpt>
<trkpt lat="30.783872604" lon="34.751926422">
<ele>564.281250</ele>
<time>2013-11-21T12:39:19Z</time>
<speed>2.960000</speed>
<extensions>
<speed>3.0</speed>
<temp>0.00</temp>
<bpm>0</bpm>
<rpm>0.00</rpm>
</extensions>
</trkpt>
<trkpt lat="30.783777237" lon="34.751792908">
<ele>565.906250</ele>
<time>2013-11-21T12:39:24Z</time>
<speed>3.390000</speed>
<extensions>
<speed>3.4</speed>
<temp>0.00</temp>
<bpm>0</bpm>
<rpm>0.00</rpm>
</extensions>
</trkpt>
<trkpt lat="30.783647537" lon="34.751655579">
<ele>566.218750</ele>
<time>2013-11-21T12:39:29Z</time>
<speed>4.060000</speed>
<extensions>
<speed>4.1</speed>
<temp>0.00</temp>
<bpm>0</bpm>
<rpm>0.00</rpm>
</extensions>
</trkpt>
<trkpt lat="30.783533096" lon="34.751468658">
<ele>565.640625</ele>
<time>2013-11-21T12:39:34Z</time>
<speed>4.460000</speed>
<extensions>
<speed>4.5</speed>
<temp>0.00</temp>
<bpm>0</bpm>
<rpm>0.00</rpm>
</extensions>
</trkpt>
<trkpt lat="30.783426285" lon="34.751247406">
<ele>565.140625</ele>
<time>2013-11-21T12:39:39Z</time>
<speed>4.700000</speed>
<extensions>
<speed>4.7</speed>
<temp>0.00</temp>
<bpm>0</bpm>
<rpm>0.00</rpm>
</extensions>
</trkpt>
<trkpt lat="30.783330917" lon="34.751010895">
<ele>564.531250</ele>
<time>2013-11-21T12:39:44Z</time>
<speed>4.650000</speed>
<extensions>
<speed>4.6</speed>
<temp>0.00</temp>
<bpm>0</bpm>
<rpm>0.00</rpm>
</extensions>
</trkpt>
<trkpt lat="30.783266068" lon="34.750785828">
<ele>563.734375</ele>
<time>2013-11-21T12:39:49Z</time>
<speed>5.550000</speed>
<extensions>
<speed>5.5</speed>
<temp>0.00</temp>
<bpm>0</bpm>
<rpm>0.00</rpm>
</extensions>
</trkpt>
<trkpt lat="30.783285141" lon="34.750526428">
<ele>563.437500</ele>
<time>2013-11-21T12:39:54Z</time>
<speed>3.720000</speed>
<extensions>
<speed>3.7</speed>
<temp>0.00</temp>
<bpm>0</bpm>
<rpm>0.00</rpm>
</extensions>
</trkpt>
<trkpt lat="30.783290863" lon="34.750339508">
<ele>563.703125</ele>
<time>2013-11-21T12:39:59Z</time>
<speed>3.580000</speed>
<extensions>
<speed>3.6</speed>
<temp>0.00</temp>
<bpm>0</bpm>
<rpm>0.00</rpm>
</extensions>
</trkpt>
<trkpt lat="30.783288956" lon="34.750179291">
<ele>562.375000</ele>
<time>2013-11-21T12:40:04Z</time>
<speed>3.030000</speed>
<extensions>
<speed>3.0</speed>
<temp>0.00</temp>
<bpm>0</bpm>
<rpm>0.00</rpm>
</extensions>
</trkpt>
<trkpt lat="30.783296585" lon="34.750049591">
<ele>563.453125</ele>
<time>2013-11-21T12:40:09Z</time>
<speed>2.720000</speed>
<extensions>
<speed>2.7</speed>
<temp>0.00</temp>
<bpm>0</bpm>
<rpm>0.00</rpm>
</extensions>
</trkpt>
<trkpt lat="30.783327103" lon="34.749874115">
<ele>563.984375</ele>
<time>2013-11-21T12:40:14Z</time>
<speed>4.340000</speed>
<extensions>
<speed>4.3</speed>
<temp>0.00</temp>
<bpm>0</bpm>
<rpm>0.00</rpm>
</extensions>
</trkpt>
<trkpt lat="30.783363342" lon="34.749656677">
<ele>562.656250</ele>
<time>2013-11-21T12:40:19Z</time>
<speed>3.780000</speed>
<extensions>
<speed>3.8</speed>
<temp>0.00</temp>
<bpm>0</bpm>
<rpm>0.00</rpm>
</extensions>
</trkpt>
<trkpt lat="30.783370972" lon="34.749492645">
<ele>561.421875</ele>
<time>2013-11-21T12:40:24Z</time>
<speed>2.180000</speed>
<extensions>
<speed>2.2</speed>
<temp>0.00</temp>
<bpm>0</bpm>
<rpm>0.00</rpm>
</extensions>
</trkpt>
<trkpt lat="30.783384323" lon="34.749366760">
<ele>560.953125</ele>
<time>2013-11-21T12:40:29Z</time>
<speed>1.890000</speed>
<extensions>
<speed>1.9</speed>
<temp>0.00</temp>
<bpm>0</bpm>
<rpm>0.00</rpm>
</extensions>
</trkpt>
<trkpt lat="30.783319473" lon="34.749221802">
<ele>564.000000</ele>
<time>2013-11-21T12:40:34Z</time>
<speed>3.770000</speed>
<extensions>
<speed>3.8</speed>
<temp>0.00</temp>
<bpm>0</bpm>
<rpm>0.00</rpm>
</extensions>
</trkpt>
<trkpt lat="30.783250809" lon="34.749027252">
<ele>563.656250</ele>
<time>2013-11-21T12:40:39Z</time>
<speed>4.010000</speed>
<extensions>
<speed>4.0</speed>
<temp>0.00</temp>
<bpm>0</bpm>
<rpm>0.00</rpm>
</extensions>
</trkpt>
<trkpt lat="30.783128738" lon="34.748847961">
<ele>565.234375</ele>
<time>2013-11-21T12:40:44Z</time>
<speed>4.580000</speed>
<extensions>
<speed>4.6</speed>
<temp>0.00</temp>
<bpm>0</bpm>
<rpm>0.00</rpm>
</extensions>
</trkpt>
<trkpt lat="30.782964706" lon="34.748676300">
<ele>564.109375</ele>
<time>2013-11-21T12:40:49Z</time>
<speed>4.880000</speed>
<extensions>
<speed>4.9</speed>
<temp>0.00</temp>
<bpm>0</bpm>
<rpm>0.00</rpm>
</extensions>
</trkpt>
<trkpt lat="30.782886505" lon="34.748500824">
<ele>563.078125</ele>
<time>2013-11-21T12:40:54Z</time>
<speed>4.050000</speed>
<extensions>
<speed>4.0</speed>
<temp>0.00</temp>
<bpm>0</bpm>
<rpm>0.00</rpm>
</extensions>
</trkpt>
<trkpt lat="30.782827377" lon="34.748325348">
<ele>562.125000</ele>
<time>2013-11-21T12:40:59Z</time>
<speed>4.620000</speed>
<extensions>
<speed>4.6</speed>
<temp>0.00</temp>
<bpm>0</bpm>
<rpm>0.00</rpm>
</extensions>
</trkpt>
<trkpt lat="30.782768250" lon="34.748100281">
<ele>562.046875</ele>
<time>2013-11-21T12:41:04Z</time>
<speed>4.500000</speed>
<extensions>
<speed>4.5</speed>
<temp>0.00</temp>
<bpm>0</bpm>
<rpm>0.00</rpm>
</extensions>
</trkpt>
<trkpt lat="30.782724380" lon="34.747917175">
<ele>560.484375</ele>
<time>2013-11-21T12:41:09Z</time>
<speed>3.250000</speed>
<extensions>
<speed>3.2</speed>
<temp>0.00</temp>
<bpm>0</bpm>
<rpm>0.00</rpm>
</extensions>
</trkpt>
<trkpt lat="30.782695770" lon="34.747760773">
<ele>561.328125</ele>
<time>2013-11-21T12:41:14Z</time>
<speed>3.050000</speed>
<extensions>
<speed>3.0</speed>
<temp>0.00</temp>
<bpm>0</bpm>
<rpm>0.00</rpm>
</extensions>
</trkpt>
<trkpt lat="30.782657623" lon="34.747573853">
<ele>560.906250</ele>
<time>2013-11-21T12:41:19Z</time>
<speed>4.020000</speed>
<extensions>
<speed>4.0</speed>
<temp>0.00</temp>
<bpm>0</bpm>
<rpm>0.00</rpm>
</extensions>
</trkpt>
<trkpt lat="30.782632828" lon="34.747390747">
<ele>559.875000</ele>
<time>2013-11-21T12:41:24Z</time>
<speed>3.420000</speed>
<extensions>
<speed>3.4</speed>
<temp>0.00</temp>
<bpm>0</bpm>
<rpm>0.00</rpm>
</extensions>
</trkpt>
<trkpt lat="30.782577515" lon="34.747207642">
<ele>559.328125</ele>
<time>2013-11-21T12:41:29Z</time>
<speed>3.280000</speed>
<extensions>
<speed>3.3</speed>
<temp>0.00</temp>
<bpm>0</bpm>
<rpm>0.00</rpm>
</extensions>
</trkpt>
<trkpt lat="30.782514572" lon="34.747005463">
<ele>560.531250</ele>
<time>2013-11-21T12:41:34Z</time>
<speed>3.730000</speed>
<extensions>
<speed>3.7</speed>
<temp>0.00</temp>
<bpm>0</bpm>
<rpm>0.00</rpm>
</extensions>
</trkpt>
<trkpt lat="30.782461166" lon="34.746822357">
<ele>560.046875</ele>
<time>2013-11-21T12:41:39Z</time>
<speed>3.190000</speed>
<extensions>
<speed>3.2</speed>
<temp>0.00</temp>
<bpm>0</bpm>
<rpm>0.00</rpm>
</extensions>
</trkpt>
<trkpt lat="30.782419205" lon="34.746688843">
<ele>560.218750</ele>
<time>2013-11-21T12:41:44Z</time>
<speed>3.190000</speed>
<extensions>
<speed>3.2</speed>
<temp>0.00</temp>
<bpm>0</bpm>
<rpm>0.00</rpm>
</extensions>
</trkpt>
<trkpt lat="30.782321930" lon="34.746532440">
<ele>561.593750</ele>
<time>2013-11-21T12:41:49Z</time>
<speed>3.830000</speed>
<extensions>
<speed>3.8</speed>
<temp>0.00</temp>
<bpm>0</bpm>
<rpm>0.00</rpm>
</extensions>
</trkpt>
<trkpt lat="30.782209396" lon="34.746395111">
<ele>563.937500</ele>
<time>2013-11-21T12:41:54Z</time>
<speed>3.290000</speed>
<extensions>
<speed>3.3</speed>
<temp>0.00</temp>
<bpm>0</bpm>
<rpm>0.00</rpm>
</extensions>
</trkpt>
<trkpt lat="30.782091141" lon="34.746250153">
<ele>566.187500</ele>
<time>2013-11-21T12:41:59Z</time>
<speed>4.070000</speed>
<extensions>
<speed>4.1</speed>
<temp>0.00</temp>
<bpm>0</bpm>
<rpm>0.00</rpm>
</extensions>
</trkpt>
<trkpt lat="30.782012939" lon="34.746105194">
<ele>570.000000</ele>
<time>2013-11-21T12:42:04Z</time>
<speed>3.560000</speed>
<extensions>
<speed>3.6</speed>
<temp>0.00</temp>
<bpm>0</bpm>
<rpm>0.00</rpm>
</extensions>
</trkpt>
<trkpt lat="30.781927109" lon="34.745910645">
<ele>571.890625</ele>
<time>2013-11-21T12:42:09Z</time>
<speed>4.350000</speed>
<extensions>
<speed>4.3</speed>
<temp>0.00</temp>
<bpm>0</bpm>
<rpm>0.00</rpm>
</extensions>
</trkpt>
<trkpt lat="30.781850815" lon="34.745731354">
<ele>572.640625</ele>
<time>2013-11-21T12:42:14Z</time>
<speed>3.670000</speed>
<extensions>
<speed>3.7</speed>
<temp>0.00</temp>
<bpm>0</bpm>
<rpm>0.00</rpm>
</extensions>
</trkpt>
<trkpt lat="30.781774521" lon="34.745532990">
<ele>574.968750</ele>
<time>2013-11-21T12:42:19Z</time>
<speed>4.200000</speed>
<extensions>
<speed>4.2</speed>
<temp>0.00</temp>
<bpm>0</bpm>
<rpm>0.00</rpm>
</extensions>
</trkpt>
<trkpt lat="30.781715393" lon="34.745307922">
<ele>576.234375</ele>
<time>2013-11-21T12:42:24Z</time>
<speed>4.540000</speed>
<extensions>
<speed>4.5</speed>
<temp>0.00</temp>
<bpm>0</bpm>
<rpm>0.00</rpm>
</extensions>
</trkpt>
<trkpt lat="30.781635284" lon="34.745109558">
<ele>576.312500</ele>
<time>2013-11-21T12:42:29Z</time>
<speed>4.000000</speed>
<extensions>
<speed>4.0</speed>
<temp>0.00</temp>
<bpm>0</bpm>
<rpm>0.00</rpm>
</extensions>
</trkpt>
<trkpt lat="30.781566620" lon="34.744949341">
<ele>573.500000</ele>
<time>2013-11-21T12:42:34Z</time>
<speed>3.390000</speed>
<extensions>
<speed>3.4</speed>
<temp>0.00</temp>
<bpm>0</bpm>
<rpm>0.00</rpm>
</extensions>
</trkpt>
<trkpt lat="30.781482697" lon="34.744781494">
<ele>568.781250</ele>
<time>2013-11-21T12:42:39Z</time>
<speed>3.670000</speed>
<extensions>
<speed>3.7</speed>
<temp>0.00</temp>
<bpm>0</bpm>
<rpm>0.00</rpm>
</extensions>
</trkpt>
<trkpt lat="30.781387329" lon="34.744613647">
<ele>569.031250</ele>
<time>2013-11-21T12:42:44Z</time>
<speed>3.690000</speed>
<extensions>
<speed>3.7</speed>
<temp>0.00</temp>
<bpm>0</bpm>
<rpm>0.00</rpm>
</extensions>
</trkpt>
<trkpt lat="30.781320572" lon="34.744464874">
<ele>568.281250</ele>
<time>2013-11-21T12:42:49Z</time>
<speed>3.080000</speed>
<extensions>
<speed>3.1</speed>
<temp>0.00</temp>
<bpm>0</bpm>
<rpm>0.00</rpm>
</extensions>
</trkpt>
<trkpt lat="30.781248093" lon="34.744319916">
<ele>569.031250</ele>
<time>2013-11-21T12:42:54Z</time>
<speed>3.660000</speed>
<extensions>
<speed>3.7</speed>
<temp>0.00</temp>
<bpm>0</bpm>
<rpm>0.00</rpm>
</extensions>
</trkpt>
<trkpt lat="30.781143188" lon="34.744194031">
<ele>568.625000</ele>
<time>2013-11-21T12:42:59Z</time>
<speed>4.020000</speed>
<extensions>
<speed>4.0</speed>
<temp>0.00</temp>
<bpm>0</bpm>
<rpm>0.00</rpm>
</extensions>
</trkpt>
<trkpt lat="30.780998230" lon="34.744029999">
<ele>568.437500</ele>
<time>2013-11-21T12:43:04Z</time>
<speed>3.760000</speed>
<extensions>
<speed>3.8</speed>
<temp>0.00</temp>
<bpm>0</bpm>
<rpm>0.00</rpm>
</extensions>
</trkpt>
<trkpt lat="30.780925751" lon="34.743885040">
<ele>569.156250</ele>
<time>2013-11-21T12:43:09Z</time>
<speed>2.850000</speed>
<extensions>
<speed>2.9</speed>
<temp>0.00</temp>
<bpm>0</bpm>
<rpm>0.00</rpm>
</extensions>
</trkpt>
<trkpt lat="30.780801773" lon="34.743698120">
<ele>568.109375</ele>
<time>2013-11-21T12:43:14Z</time>
<speed>4.660000</speed>
<extensions>
<speed>4.7</speed>
<temp>0.00</temp>
<bpm>0</bpm>
<rpm>0.00</rpm>
</extensions>
</trkpt>
<trkpt lat="30.780681610" lon="34.743534088">
<ele>569.125000</ele>
<time>2013-11-21T12:43:19Z</time>
<speed>3.970000</speed>
<extensions>
<speed>4.0</speed>
<temp>0.00</temp>
<bpm>0</bpm>
<rpm>0.00</rpm>
</extensions>
</trkpt>
<trkpt lat="30.780559540" lon="34.743385315">
<ele>569.984375</ele>
<time>2013-11-21T12:43:24Z</time>
<speed>4.020000</speed>
<extensions>
<speed>4.0</speed>
<temp>0.00</temp>
<bpm>0</bpm>
<rpm>0.00</rpm>
</extensions>
</trkpt>
<trkpt lat="30.780410767" lon="34.743263245">
<ele>569.640625</ele>
<time>2013-11-21T12:43:29Z</time>
<speed>4.210000</speed>
<extensions>
<speed>4.2</speed>
<temp>0.00</temp>
<bpm>0</bpm>
<rpm>0.00</rpm>
</extensions>
</trkpt>
<trkpt lat="30.780235291" lon="34.743225098">
<ele>568.828125</ele>
<time>2013-11-21T12:43:34Z</time>
<speed>4.000000</speed>
<extensions>
<speed>4.0</speed>
<temp>0.00</temp>
<bpm>0</bpm>
<rpm>0.00</rpm>
</extensions>
</trkpt>
<trkpt lat="30.780096054" lon="34.743190765">
<ele>566.421875</ele>
<time>2013-11-21T12:43:39Z</time>
<speed>2.890000</speed>
<extensions>
<speed>2.9</speed>
<temp>0.00</temp>
<bpm>0</bpm>
<rpm>0.00</rpm>
</extensions>
</trkpt>
<trkpt lat="30.779956818" lon="34.743164063">
<ele>565.218750</ele>
<time>2013-11-21T12:43:44Z</time>
<speed>3.780000</speed>
<extensions>
<speed>3.8</speed>
<temp>0.00</temp>
<bpm>0</bpm>
<rpm>0.00</rpm>
</extensions>
</trkpt>
<trkpt lat="30.779781342" lon="34.743072510">
<ele>565.546875</ele>
<time>2013-11-21T12:43:49Z</time>
<speed>4.630000</speed>
<extensions>
<speed>4.6</speed>
<temp>0.00</temp>
<bpm>0</bpm>
<rpm>0.00</rpm>
</extensions>
</trkpt>
<trkpt lat="30.779617310" lon="34.742946625">
<ele>566.656250</ele>
<time>2013-11-21T12:43:54Z</time>
<speed>3.840000</speed>
<extensions>
<speed>3.8</speed>
<temp>0.00</temp>
<bpm>0</bpm>
<rpm>0.00</rpm>
</extensions>
</trkpt>
<trkpt lat="30.779426575" lon="34.742889404">
<ele>567.234375</ele>
<time>2013-11-21T12:43:59Z</time>
<speed>4.540000</speed>
<extensions>
<speed>4.5</speed>
<temp>0.00</temp>
<bpm>0</bpm>
<rpm>0.00</rpm>
</extensions>
</trkpt>
<trkpt lat="30.779239655" lon="34.742916107">
<ele>565.015625</ele>
<time>2013-11-21T12:44:04Z</time>
<speed>3.650000</speed>
<extensions>
<speed>3.7</speed>
<temp>0.00</temp>
<bpm>0</bpm>
<rpm>0.00</rpm>
</extensions>
</trkpt>
<trkpt lat="30.779108047" lon="34.743022919">
<ele>565.609375</ele>
<time>2013-11-21T12:44:09Z</time>
<speed>3.610000</speed>
<extensions>
<speed>3.6</speed>
<temp>0.00</temp>
<bpm>0</bpm>
<rpm>0.00</rpm>
</extensions>
</trkpt>
<trkpt lat="30.778947830" lon="34.743129730">
<ele>566.671875</ele>
<time>2013-11-21T12:44:14Z</time>
<speed>4.290000</speed>
<extensions>
<speed>4.3</speed>
<temp>0.00</temp>
<bpm>0</bpm>
<rpm>0.00</rpm>
</extensions>
</trkpt>
<trkpt lat="30.778800964" lon="34.743240356">
<ele>567.187500</ele>
<time>2013-11-21T12:44:19Z</time>
<speed>4.090000</speed>
<extensions>
<speed>4.1</speed>
<temp>0.00</temp>
<bpm>0</bpm>
<rpm>0.00</rpm>
</extensions>
</trkpt>
<trkpt lat="30.778625488" lon="34.743328094">
<ele>567.640625</ele>
<time>2013-11-21T12:44:24Z</time>
<speed>4.160000</speed>
<extensions>
<speed>4.2</speed>
<temp>0.00</temp>
<bpm>0</bpm>
<rpm>0.00</rpm>
</extensions>
</trkpt>
<trkpt lat="30.778438568" lon="34.743434906">
<ele>565.203125</ele>
<time>2013-11-21T12:44:29Z</time>
<speed>5.200000</speed>
<extensions>
<speed>5.2</speed>
<temp>0.00</temp>
<bpm>0</bpm>
<rpm>0.00</rpm>
</extensions>
</trkpt>
<trkpt lat="30.778234482" lon="34.743541718">
<ele>565.421875</ele>
<time>2013-11-21T12:44:34Z</time>
<speed>4.240000</speed>
<extensions>
<speed>4.2</speed>
<temp>0.00</temp>
<bpm>0</bpm>
<rpm>0.00</rpm>
</extensions>
</trkpt>
<trkpt lat="30.778064728" lon="34.743659973">
<ele>564.781250</ele>
<time>2013-11-21T12:44:39Z</time>
<speed>4.750000</speed>
<extensions>
<speed>4.8</speed>
<temp>0.00</temp>
<bpm>0</bpm>
<rpm>0.00</rpm>
</extensions>
</trkpt>
<trkpt lat="30.777849197" lon="34.743766785">
<ele>565.406250</ele>
<time>2013-11-21T12:44:44Z</time>
<speed>4.660000</speed>
<extensions>
<speed>4.7</speed>
<temp>0.00</temp>
<bpm>0</bpm>
<rpm>0.00</rpm>
</extensions>
</trkpt>
<trkpt lat="30.777658463" lon="34.743762970">
<ele>562.843750</ele>
<time>2013-11-21T12:44:49Z</time>
<speed>4.190000</speed>
<extensions>
<speed>4.2</speed>
<temp>0.00</temp>
<bpm>0</bpm>
<rpm>0.00</rpm>
</extensions>
</trkpt>
<trkpt lat="30.777454376" lon="34.743743896">
<ele>560.265625</ele>
<time>2013-11-21T12:44:54Z</time>
<speed>4.850000</speed>
<extensions>
<speed>4.8</speed>
<temp>0.00</temp>
<bpm>0</bpm>
<rpm>0.00</rpm>
</extensions>
</trkpt>
<trkpt lat="30.777235031" lon="34.743762970">
<ele>558.906250</ele>
<time>2013-11-21T12:44:59Z</time>
<speed>4.600000</speed>
<extensions>
<speed>4.6</speed>
<temp>0.00</temp>
<bpm>0</bpm>
<rpm>0.00</rpm>
</extensions>
</trkpt>
<trkpt lat="30.777040482" lon="34.743793488">
<ele>556.906250</ele>
<time>2013-11-21T12:45:04Z</time>
<speed>4.710000</speed>
<extensions>
<speed>4.7</speed>
<temp>0.00</temp>
<bpm>0</bpm>
<rpm>0.00</rpm>
</extensions>
</trkpt>
<trkpt lat="30.776813507" lon="34.743824005">
<ele>557.921875</ele>
<time>2013-11-21T12:45:09Z</time>
<speed>4.880000</speed>
<extensions>
<speed>4.9</speed>
<temp>0.00</temp>
<bpm>0</bpm>
<rpm>0.00</rpm>
</extensions>
</trkpt>
<trkpt lat="30.776617050" lon="34.743751526">
<ele>557.265625</ele>
<time>2013-11-21T12:45:14Z</time>
<speed>5.080000</speed>
<extensions>
<speed>5.1</speed>
<temp>0.00</temp>
<bpm>0</bpm>
<rpm>0.00</rpm>
</extensions>
</trkpt>
<trkpt lat="30.776380539" lon="34.743663788">
<ele>561.343750</ele>
<time>2013-11-21T12:45:19Z</time>
<speed>5.430000</speed>
<extensions>
<speed>5.4</speed>
<temp>0.00</temp>
<bpm>0</bpm>
<rpm>0.00</rpm>
</extensions>
</trkpt>
<trkpt lat="30.776157379" lon="34.743553162">
<ele>564.546875</ele>
<time>2013-11-21T12:45:24Z</time>
<speed>5.620000</speed>
<extensions>
<speed>5.6</speed>
<temp>0.00</temp>
<bpm>0</bpm>
<rpm>0.00</rpm>
</extensions>
</trkpt>
<trkpt lat="30.775932312" lon="34.743442535">
<ele>567.906250</ele>
<time>2013-11-21T12:45:29Z</time>
<speed>5.220000</speed>
<extensions>
<speed>5.2</speed>
<temp>0.00</temp>
<bpm>0</bpm>
<rpm>0.00</rpm>
</extensions>
</trkpt>
<trkpt lat="30.775699615" lon="34.743335724">
<ele>567.843750</ele>
<time>2013-11-21T12:45:34Z</time>
<speed>5.480000</speed>
<extensions>
<speed>5.5</speed>
<temp>0.00</temp>
<bpm>0</bpm>
<rpm>0.00</rpm>
</extensions>
</trkpt>
<trkpt lat="30.775457382" lon="34.743209839">
<ele>567.406250</ele>
<time>2013-11-21T12:45:39Z</time>
<speed>5.250000</speed>
<extensions>
<speed>5.2</speed>
<temp>0.00</temp>
<bpm>0</bpm>
<rpm>0.00</rpm>
</extensions>
</trkpt>
<trkpt lat="30.775245667" lon="34.743103027">
<ele>568.078125</ele>
<time>2013-11-21T12:45:44Z</time>
<speed>5.210000</speed>
<extensions>
<speed>5.2</speed>
<temp>0.00</temp>
<bpm>0</bpm>
<rpm>0.00</rpm>
</extensions>
</trkpt>
<trkpt lat="30.775028229" lon="34.743003845">
<ele>568.375000</ele>
<time>2013-11-21T12:45:49Z</time>
<speed>5.240000</speed>
<extensions>
<speed>5.2</speed>
<temp>0.00</temp>
<bpm>0</bpm>
<rpm>0.00</rpm>
</extensions>
</trkpt>
<trkpt lat="30.774837494" lon="34.742923737">
<ele>569.734375</ele>
<time>2013-11-21T12:45:54Z</time>
<speed>4.740000</speed>
<extensions>
<speed>4.7</speed>
<temp>0.00</temp>
<bpm>0</bpm>
<rpm>0.00</rpm>
</extensions>
</trkpt>
<trkpt lat="30.774654388" lon="34.742847443">
<ele>569.187500</ele>
<time>2013-11-21T12:45:59Z</time>
<speed>4.670000</speed>
<extensions>
<speed>4.7</speed>
<temp>0.00</temp>
<bpm>0</bpm>
<rpm>0.00</rpm>
</extensions>
</trkpt>
<trkpt lat="30.774507523" lon="34.742740631">
<ele>568.640625</ele>
<time>2013-11-21T12:46:04Z</time>
<speed>3.220000</speed>
<extensions>
<speed>3.2</speed>
<temp>0.00</temp>
<bpm>0</bpm>
<rpm>0.00</rpm>
</extensions>
</trkpt>
<trkpt lat="30.774394989" lon="34.742515564">
<ele>567.703125</ele>
<time>2013-11-21T12:46:09Z</time>
<speed>5.180000</speed>
<extensions>
<speed>5.2</speed>
<temp>0.00</temp>
<bpm>0</bpm>
<rpm>0.00</rpm>
</extensions>
</trkpt>
<trkpt lat="30.774219513" lon="34.742271423">
<ele>563.546875</ele>
<time>2013-11-21T12:46:14Z</time>
<speed>5.300000</speed>
<extensions>
<speed>5.3</speed>
<temp>0.00</temp>
<bpm>0</bpm>
<rpm>0.00</rpm>
</extensions>
</trkpt>
<trkpt lat="30.774103165" lon="34.742118835">
<ele>564.828125</ele>
<time>2013-11-21T12:46:19Z</time>
<speed>2.740000</speed>
<extensions>
<speed>2.7</speed>
<temp>0.00</temp>
<bpm>0</bpm>
<rpm>0.00</rpm>
</extensions>
</trkpt>
<trkpt lat="30.774003983" lon="34.742042542">
<ele>563.187500</ele>
<time>2013-11-21T12:46:24Z</time>
<speed>3.310000</speed>
<extensions>
<speed>3.3</speed>
<temp>0.00</temp>
<bpm>0</bpm>
<rpm>0.00</rpm>
</extensions>
</trkpt>
<trkpt lat="30.773897171" lon="34.741966248">
<ele>564.203125</ele>
<time>2013-11-21T12:46:29Z</time>
<speed>3.590000</speed>
<extensions>
<speed>3.6</speed>
<temp>0.00</temp>
<bpm>0</bpm>
<rpm>0.00</rpm>
</extensions>
</trkpt>
<trkpt lat="30.773757935" lon="34.741836548">
<ele>563.375000</ele>
<time>2013-11-21T12:46:34Z</time>
<speed>4.230000</speed>
<extensions>
<speed>4.2</speed>
<temp>0.00</temp>
<bpm>0</bpm>
<rpm>0.00</rpm>
</extensions>
</trkpt>
<trkpt lat="30.773632050" lon="34.741687775">
<ele>562.031250</ele>
<time>2013-11-21T12:46:39Z</time>
<speed>4.420000</speed>
<extensions>
<speed>4.4</speed>
<temp>0.00</temp>
<bpm>0</bpm>
<rpm>0.00</rpm>
</extensions>
</trkpt>
<trkpt lat="30.773483276" lon="34.741523743">
<ele>560.968750</ele>
<time>2013-11-21T12:46:44Z</time>
<speed>4.390000</speed>
<extensions>
<speed>4.4</speed>
<temp>0.00</temp>
<bpm>0</bpm>
<rpm>0.00</rpm>
</extensions>
</trkpt>
<trkpt lat="30.773387909" lon="34.741359711">
<ele>560.234375</ele>
<time>2013-11-21T12:46:49Z</time>
<speed>3.340000</speed>
<extensions>
<speed>3.3</speed>
<temp>0.00</temp>
<bpm>0</bpm>
<rpm>0.00</rpm>
</extensions>
</trkpt>
<trkpt lat="30.773305893" lon="34.741146088">
<ele>559.203125</ele>
<time>2013-11-21T12:46:54Z</time>
<speed>4.380000</speed>
<extensions>
<speed>4.4</speed>
<temp>0.00</temp>
<bpm>0</bpm>
<rpm>0.00</rpm>
</extensions>
</trkpt>
<trkpt lat="30.773244858" lon="34.740970612">
<ele>558.812500</ele>
<time>2013-11-21T12:46:59Z</time>
<speed>2.040000</speed>
<extensions>
<speed>2.0</speed>
<temp>0.00</temp>
<bpm>0</bpm>
<rpm>0.00</rpm>
</extensions>
</trkpt>
<trkpt lat="30.773263931" lon="34.740985870">
<ele>562.812500</ele>
<time>2013-11-21T12:47:04Z</time>
<speed>0.160000</speed>
<extensions>
<speed>0.2</speed>
<temp>0.00</temp>
<bpm>0</bpm>
<rpm>0.00</rpm>
</extensions>
</trkpt>
<trkpt lat="30.773262024" lon="34.740982056">
<ele>562.921875</ele>
<time>2013-11-21T12:47:09Z</time>
<speed>0.050000</speed>
<extensions>
<speed>0.1</speed>
<temp>0.00</temp>
<bpm>0</bpm>
<rpm>0.00</rpm>
</extensions>
</trkpt>
<trkpt lat="30.773260117" lon="34.740982056">
<ele>562.953125</ele>
<time>2013-11-21T12:47:14Z</time>
<speed>0.100000</speed>
<extensions>
<speed>0.1</speed>
<temp>0.00</temp>
<bpm>0</bpm>
<rpm>0.00</rpm>
</extensions>
</trkpt>
<trkpt lat="30.773258209" lon="34.740974426">
<ele>562.921875</ele>
<time>2013-11-21T12:47:19Z</time>
<speed>0.060000</speed>
<extensions>
<speed>0.1</speed>
<temp>0.00</temp>
<bpm>0</bpm>
<rpm>0.00</rpm>
</extensions>
</trkpt>
<trkpt lat="30.773258209" lon="34.740970612">
<ele>562.937500</ele>
<time>2013-11-21T12:47:24Z</time>
<speed>0.130000</speed>
<extensions>
<speed>0.1</speed>
<temp>0.00</temp>
<bpm>0</bpm>
<rpm>0.00</rpm>
</extensions>
</trkpt>
<trkpt lat="30.773254395" lon="34.740959167">
<ele>562.937500</ele>
<time>2013-11-21T12:47:29Z</time>
<speed>0.200000</speed>
<extensions>
<speed>0.2</speed>
<temp>0.00</temp>
<bpm>0</bpm>
<rpm>0.00</rpm>
</extensions>
</trkpt>
<trkpt lat="30.773254395" lon="34.740959167">
<ele>562.937500</ele>
<time>2013-11-21T12:47:34Z</time>
<speed>0.100000</speed>
<extensions>
<speed>0.1</speed>
<temp>0.00</temp>
<bpm>0</bpm>
<rpm>0.00</rpm>
</extensions>
</trkpt>
<trkpt lat="30.773242950" lon="34.740951538">
<ele>562.953125</ele>
<time>2013-11-21T12:47:39Z</time>
<speed>0.300000</speed>
<extensions>
<speed>0.3</speed>
<temp>0.00</temp>
<bpm>0</bpm>
<rpm>0.00</rpm>
</extensions>
</trkpt>
<trkpt lat="30.773221970" lon="34.740951538">
<ele>562.906250</ele>
<time>2013-11-21T12:47:44Z</time>
<speed>0.570000</speed>
<extensions>
<speed>0.6</speed>
<temp>0.00</temp>
<bpm>0</bpm>
<rpm>0.00</rpm>
</extensions>
</trkpt>
<trkpt lat="30.773208618" lon="34.740943909">
<ele>562.828125</ele>
<time>2013-11-21T12:47:49Z</time>
<speed>0.220000</speed>
<extensions>
<speed>0.2</speed>
<temp>0.00</temp>
<bpm>0</bpm>
<rpm>0.00</rpm>
</extensions>
</trkpt>
<trkpt lat="30.773197174" lon="34.740959167">
<ele>562.750000</ele>
<time>2013-11-21T12:47:54Z</time>
<speed>0.710000</speed>
<extensions>
<speed>0.7</speed>
<temp>0.00</temp>
<bpm>0</bpm>
<rpm>0.00</rpm>
</extensions>
</trkpt>
<trkpt lat="30.773176193" lon="34.740989685">
<ele>562.671875</ele>
<time>2013-11-21T12:47:59Z</time>
<speed>0.830000</speed>
<extensions>
<speed>0.8</speed>
<temp>0.00</temp>
<bpm>0</bpm>
<rpm>0.00</rpm>
</extensions>
</trkpt>
<trkpt lat="30.773138046" lon="34.741008759">
<ele>562.937500</ele>
<time>2013-11-21T12:48:04Z</time>
<speed>0.650000</speed>
<extensions>
<speed>0.6</speed>
<temp>0.00</temp>
<bpm>0</bpm>
<rpm>0.00</rpm>
</extensions>
</trkpt>
<trkpt lat="30.773124695" lon="34.740966797">
<ele>563.171875</ele>
<time>2013-11-21T12:48:09Z</time>
<speed>1.200000</speed>
<extensions>
<speed>1.2</speed>
<temp>0.00</temp>
<bpm>0</bpm>
<rpm>0.00</rpm>
</extensions>
</trkpt>
<trkpt lat="30.773136139" lon="34.740921021">
<ele>563.156250</ele>
<time>2013-11-21T12:48:14Z</time>
<speed>0.740000</speed>
<extensions>
<speed>0.7</speed>
<temp>0.00</temp>
<bpm>0</bpm>
<rpm>0.00</rpm>
</extensions>
</trkpt>
<trkpt lat="30.773149490" lon="34.740856171">
<ele>563.109375</ele>
<time>2013-11-21T12:48:19Z</time>
<speed>0.950000</speed>
<extensions>
<speed>1.0</speed>
<temp>0.00</temp>
<bpm>0</bpm>
<rpm>0.00</rpm>
</extensions>
</trkpt>
<trkpt lat="30.773153305" lon="34.740818024">
<ele>562.062500</ele>
<time>2013-11-21T12:48:24Z</time>
<speed>0.160000</speed>
<extensions>
<speed>0.2</speed>
<temp>0.00</temp>
<bpm>0</bpm>
<rpm>0.00</rpm>
</extensions>
</trkpt>
<trkpt lat="30.773160934" lon="34.740787506">
<ele>561.812500</ele>
<time>2013-11-21T12:48:29Z</time>
<speed>0.650000</speed>
<extensions>
<speed>0.6</speed>
<temp>0.00</temp>
<bpm>0</bpm>
<rpm>0.00</rpm>
</extensions>
</trkpt>
<trkpt lat="30.773164749" lon="34.740772247">
<ele>561.968750</ele>
<time>2013-11-21T12:48:34Z</time>
<speed>0.370000</speed>
<extensions>
<speed>0.4</speed>
<temp>0.00</temp>
<bpm>0</bpm>
<rpm>0.00</rpm>
</extensions>
</trkpt>
<trkpt lat="30.773176193" lon="34.740730286">
<ele>562.062500</ele>
<time>2013-11-21T12:48:39Z</time>
<speed>0.810000</speed>
<extensions>
<speed>0.8</speed>
<temp>0.00</temp>
<bpm>0</bpm>
<rpm>0.00</rpm>
</extensions>
</trkpt>
<trkpt lat="30.773168564" lon="34.740684509">
<ele>562.562500</ele>
<time>2013-11-21T12:48:44Z</time>
<speed>1.000000</speed>
<extensions>
<speed>1.0</speed>
<temp>0.00</temp>
<bpm>0</bpm>
<rpm>0.00</rpm>
</extensions>
</trkpt>
<trkpt lat="30.773170471" lon="34.740615845">
<ele>562.328125</ele>
<time>2013-11-21T12:48:49Z</time>
<speed>0.750000</speed>
<extensions>
<speed>0.8</speed>
<temp>0.00</temp>
<bpm>0</bpm>
<rpm>0.00</rpm>
</extensions>
</trkpt>
<trkpt lat="30.773166656" lon="34.740612030">
<ele>562.093750</ele>
<time>2013-11-21T12:48:54Z</time>
<speed>0.120000</speed>
<extensions>
<speed>0.1</speed>
<temp>0.00</temp>
<bpm>0</bpm>
<rpm>0.00</rpm>
</extensions>
</trkpt>
<trkpt lat="30.773160934" lon="34.740558624">
<ele>562.062500</ele>
<time>2013-11-21T12:48:59Z</time>
<speed>0.980000</speed>
<extensions>
<speed>1.0</speed>
<temp>0.00</temp>
<bpm>0</bpm>
<rpm>0.00</rpm>
</extensions>
</trkpt>
<trkpt lat="30.773126602" lon="34.740447998">
<ele>561.906250</ele>
<time>2013-11-21T12:49:04Z</time>
<speed>2.310000</speed>
<extensions>
<speed>2.3</speed>
<temp>0.00</temp>
<bpm>0</bpm>
<rpm>0.00</rpm>
</extensions>
</trkpt>
<trkpt lat="30.773067474" lon="34.740333557">
<ele>561.796875</ele>
<time>2013-11-21T12:49:09Z</time>
<speed>2.550000</speed>
<extensions>
<speed>2.6</speed>
<temp>0.00</temp>
<bpm>0</bpm>
<rpm>0.00</rpm>
</extensions>
</trkpt>
<trkpt lat="30.773042679" lon="34.740196228">
<ele>561.515625</ele>
<time>2013-11-21T12:49:14Z</time>
<speed>2.350000</speed>
<extensions>
<speed>2.4</speed>
<temp>0.00</temp>
<bpm>0</bpm>
<rpm>0.00</rpm>
</extensions>
</trkpt>
<trkpt lat="30.773059845" lon="34.740062714">
<ele>561.343750</ele>
<time>2013-11-21T12:49:19Z</time>
<speed>2.460000</speed>
<extensions>
<speed>2.5</speed>
<temp>0.00</temp>
<bpm>0</bpm>
<rpm>0.00</rpm>
</extensions>
</trkpt>
<trkpt lat="30.773038864" lon="34.739910126">
<ele>561.125000</ele>
<time>2013-11-21T12:49:24Z</time>
<speed>3.100000</speed>
<extensions>
<speed>3.1</speed>
<temp>0.00</temp>
<bpm>0</bpm>
<rpm>0.00</rpm>
</extensions>
</trkpt>
<trkpt lat="30.773000717" lon="34.739742279">
<ele>560.187500</ele>
<time>2013-11-21T12:49:29Z</time>
<speed>3.100000</speed>
<extensions>
<speed>3.1</speed>
<temp>0.00</temp>
<bpm>0</bpm>
<rpm>0.00</rpm>
</extensions>
</trkpt>
<trkpt lat="30.772953033" lon="34.739616394">
<ele>558.515625</ele>
<time>2013-11-21T12:49:34Z</time>
<speed>2.240000</speed>
<extensions>
<speed>2.2</speed>
<temp>0.00</temp>
<bpm>0</bpm>
<rpm>0.00</rpm>
</extensions>
</trkpt>
<trkpt lat="30.772884369" lon="34.739521027">
<ele>556.328125</ele>
<time>2013-11-21T12:49:39Z</time>
<speed>1.480000</speed>
<extensions>
<speed>1.5</speed>
<temp>0.00</temp>
<bpm>0</bpm>
<rpm>0.00</rpm>
</extensions>
</trkpt>
<trkpt lat="30.772804260" lon="34.739521027">
<ele>556.468750</ele>
<time>2013-11-21T12:49:44Z</time>
<speed>2.040000</speed>
<extensions>
<speed>2.0</speed>
<temp>0.00</temp>
<bpm>0</bpm>
<rpm>0.00</rpm>
</extensions>
</trkpt>
<trkpt lat="30.772703171" lon="34.739490509">
<ele>556.609375</ele>
<time>2013-11-21T12:49:49Z</time>
<speed>2.510000</speed>
<extensions>
<speed>2.5</speed>
<temp>0.00</temp>
<bpm>0</bpm>
<rpm>0.00</rpm>
</extensions>
</trkpt>
<trkpt lat="30.772607803" lon="34.739410400">
<ele>558.718750</ele>
<time>2013-11-21T12:49:54Z</time>
<speed>3.180000</speed>
<extensions>
<speed>3.2</speed>
<temp>0.00</temp>
<bpm>0</bpm>
<rpm>0.00</rpm>
</extensions>
</trkpt>
<trkpt lat="30.772535324" lon="34.739311218">
<ele>561.437500</ele>
<time>2013-11-21T12:49:59Z</time>
<speed>2.740000</speed>
<extensions>
<speed>2.7</speed>
<temp>0.00</temp>
<bpm>0</bpm>
<rpm>0.00</rpm>
</extensions>
</trkpt>
<trkpt lat="30.772455215" lon="34.739162445">
<ele>560.500000</ele>
<time>2013-11-21T12:50:04Z</time>
<speed>3.980000</speed>
<extensions>
<speed>4.0</speed>
<temp>0.00</temp>
<bpm>0</bpm>
<rpm>0.00</rpm>
</extensions>
</trkpt>
<trkpt lat="30.772331238" lon="34.739093781">
<ele>564.156250</ele>
<time>2013-11-21T12:50:09Z</time>
<speed>2.600000</speed>
<extensions>
<speed>2.6</speed>
<temp>0.00</temp>
<bpm>0</bpm>
<rpm>0.00</rpm>
</extensions>
</trkpt>
<trkpt lat="30.772247314" lon="34.739048004">
<ele>568.609375</ele>
<time>2013-11-21T12:50:14Z</time>
<speed>1.740000</speed>
<extensions>
<speed>1.7</speed>
<temp>0.00</temp>
<bpm>0</bpm>
<rpm>0.00</rpm>
</extensions>
</trkpt>
<trkpt lat="30.772218704" lon="34.738895416">
<ele>570.203125</ele>
<time>2013-11-21T12:50:19Z</time>
<speed>2.250000</speed>
<extensions>
<speed>2.3</speed>
<temp>0.00</temp>
<bpm>0</bpm>
<rpm>0.00</rpm>
</extensions>
</trkpt>
<trkpt lat="30.772314072" lon="34.738864899">
<ele>570.546875</ele>
<time>2013-11-21T12:50:24Z</time>
<speed>3.450000</speed>
<extensions>
<speed>3.5</speed>
<temp>0.00</temp>
<bpm>0</bpm>
<rpm>0.00</rpm>
</extensions>
</trkpt>
<trkpt lat="30.772445679" lon="34.738819122">
<ele>574.000000</ele>
<time>2013-11-21T12:50:29Z</time>
<speed>2.540000</speed>
<extensions>
<speed>2.5</speed>
<temp>0.00</temp>
<bpm>0</bpm>
<rpm>0.00</rpm>
</extensions>
</trkpt>
<trkpt lat="30.772523880" lon="34.738647461">
<ele>574.921875</ele>
<time>2013-11-21T12:50:34Z</time>
<speed>3.870000</speed>
<extensions>
<speed>3.9</speed>
<temp>0.00</temp>
<bpm>0</bpm>
<rpm>0.00</rpm>
</extensions>
</trkpt>
<trkpt lat="30.772617340" lon="34.738441467">
<ele>575.687500</ele>
<time>2013-11-21T12:50:39Z</time>
<speed>4.160000</speed>
<extensions>
<speed>4.2</speed>
<temp>0.00</temp>
<bpm>0</bpm>
<rpm>0.00</rpm>
</extensions>
</trkpt>
<trkpt lat="30.772693634" lon="34.738285065">
<ele>573.703125</ele>
<time>2013-11-21T12:50:44Z</time>
<speed>3.360000</speed>
<extensions>
<speed>3.4</speed>
<temp>0.00</temp>
<bpm>0</bpm>
<rpm>0.00</rpm>
</extensions>
</trkpt>
<trkpt lat="30.772819519" lon="34.738136292">
<ele>573.890625</ele>
<time>2013-11-21T12:50:49Z</time>
<speed>3.920000</speed>
<extensions>
<speed>3.9</speed>
<temp>0.00</temp>
<bpm>0</bpm>
<rpm>0.00</rpm>
</extensions>
</trkpt>
<trkpt lat="30.772964478" lon="34.737979889">
<ele>571.281250</ele>
<time>2013-11-21T12:50:54Z</time>
<speed>4.560000</speed>
<extensions>
<speed>4.6</speed>
<temp>0.00</temp>
<bpm>0</bpm>
<rpm>0.00</rpm>
</extensions>
</trkpt>
<trkpt lat="30.773021698" lon="34.737785339">
<ele>570.343750</ele>
<time>2013-11-21T12:50:59Z</time>
<speed>4.230000</speed>
<extensions>
<speed>4.2</speed>
<temp>0.00</temp>
<bpm>0</bpm>
<rpm>0.00</rpm>
</extensions>
</trkpt>
<trkpt lat="30.773128510" lon="34.737571716">
<ele>566.890625</ele>
<time>2013-11-21T12:51:04Z</time>
<speed>4.830000</speed>
<extensions>
<speed>4.8</speed>
<temp>0.00</temp>
<bpm>0</bpm>
<rpm>0.00</rpm>
</extensions>
</trkpt>
<trkpt lat="30.773250580" lon="34.737350464">
<ele>564.515625</ele>
<time>2013-11-21T12:51:09Z</time>
<speed>4.520000</speed>
<extensions>
<speed>4.5</speed>
<temp>0.00</temp>
<bpm>0</bpm>
<rpm>0.00</rpm>
</extensions>
</trkpt>
<trkpt lat="30.773347855" lon="34.737186432">
<ele>563.343750</ele>
<time>2013-11-21T12:51:14Z</time>
<speed>3.770000</speed>
<extensions>
<speed>3.8</speed>
<temp>0.00</temp>
<bpm>0</bpm>
<rpm>0.00</rpm>
</extensions>
</trkpt>
<trkpt lat="30.773494720" lon="34.737010956">
<ele>560.421875</ele>
<time>2013-11-21T12:51:19Z</time>
<speed>5.190000</speed>
<extensions>
<speed>5.2</speed>
<temp>0.00</temp>
<bpm>0</bpm>
<rpm>0.00</rpm>
</extensions>
</trkpt>
<trkpt lat="30.773601532" lon="34.736797333">
<ele>563.343750</ele>
<time>2013-11-21T12:51:24Z</time>
<speed>3.780000</speed>
<extensions>
<speed>3.8</speed>
<temp>0.00</temp>
<bpm>0</bpm>
<rpm>0.00</rpm>
</extensions>
</trkpt>
<trkpt lat="30.773672104" lon="34.736648560">
<ele>563.421875</ele>
<time>2013-11-21T12:51:29Z</time>
<speed>3.380000</speed>
<extensions>
<speed>3.4</speed>
<temp>0.00</temp>
<bpm>0</bpm>
<rpm>0.00</rpm>
</extensions>
</trkpt>
<trkpt lat="30.773721695" lon="34.736488342">
<ele>562.046875</ele>
<time>2013-11-21T12:51:34Z</time>
<speed>3.600000</speed>
<extensions>
<speed>3.6</speed>
<temp>0.00</temp>
<bpm>0</bpm>
<rpm>0.00</rpm>
</extensions>
</trkpt>
<trkpt lat="30.773784637" lon="34.736309052">
<ele>562.453125</ele>
<time>2013-11-21T12:51:39Z</time>
<speed>4.210000</speed>
<extensions>
<speed>4.2</speed>
<temp>0.00</temp>
<bpm>0</bpm>
<rpm>0.00</rpm>
</extensions>
</trkpt>
<trkpt lat="30.773830414" lon="34.736125946">
<ele>563.546875</ele>
<time>2013-11-21T12:51:44Z</time>
<speed>4.130000</speed>
<extensions>
<speed>4.1</speed>
<temp>0.00</temp>
<bpm>0</bpm>
<rpm>0.00</rpm>
</extensions>
</trkpt>
<trkpt lat="30.773874283" lon="34.735950470">
<ele>566.000000</ele>
<time>2013-11-21T12:51:49Z</time>
<speed>2.120000</speed>
<extensions>
<speed>2.1</speed>
<temp>0.00</temp>
<bpm>0</bpm>
<rpm>0.00</rpm>
</extensions>
</trkpt>
<trkpt lat="30.773902893" lon="34.735782623">
<ele>568.140625</ele>
<time>2013-11-21T12:51:54Z</time>
<speed>3.490000</speed>
<extensions>
<speed>3.5</speed>
<temp>0.00</temp>
<bpm>0</bpm>
<rpm>0.00</rpm>
</extensions>
</trkpt>
<trkpt lat="30.773986816" lon="34.735576630">
<ele>566.328125</ele>
<time>2013-11-21T12:51:59Z</time>
<speed>4.200000</speed>
<extensions>
<speed>4.2</speed>
<temp>0.00</temp>
<bpm>0</bpm>
<rpm>0.00</rpm>
</extensions>
</trkpt>
<trkpt lat="30.774040222" lon="34.735389709">
<ele>566.953125</ele>
<time>2013-11-21T12:52:04Z</time>
<speed>3.740000</speed>
<extensions>
<speed>3.7</speed>
<temp>0.00</temp>
<bpm>0</bpm>
<rpm>0.00</rpm>
</extensions>
</trkpt>
<trkpt lat="30.774076462" lon="34.735210419">
<ele>568.546875</ele>
<time>2013-11-21T12:52:09Z</time>
<speed>4.260000</speed>
<extensions>
<speed>4.3</speed>
<temp>0.00</temp>
<bpm>0</bpm>
<rpm>0.00</rpm>
</extensions>
</trkpt>
<trkpt lat="30.774114609" lon="34.734981537">
<ele>572.812500</ele>
<time>2013-11-21T12:52:14Z</time>
<speed>4.270000</speed>
<extensions>
<speed>4.3</speed>
<temp>0.00</temp>
<bpm>0</bpm>
<rpm>0.00</rpm>
</extensions>
</trkpt>
<trkpt lat="30.774145126" lon="34.734775543">
<ele>573.171875</ele>
<time>2013-11-21T12:52:19Z</time>
<speed>3.300000</speed>
<extensions>
<speed>3.3</speed>
<temp>0.00</temp>
<bpm>0</bpm>
<rpm>0.00</rpm>
</extensions>
</trkpt>
<trkpt lat="30.774192810" lon="34.734626770">
<ele>574.859375</ele>
<time>2013-11-21T12:52:24Z</time>
<speed>3.390000</speed>
<extensions>
<speed>3.4</speed>
<temp>0.00</temp>
<bpm>0</bpm>
<rpm>0.00</rpm>
</extensions>
</trkpt>
<trkpt lat="30.774290085" lon="34.734436035">
<ele>571.921875</ele>
<time>2013-11-21T12:52:29Z</time>
<speed>4.320000</speed>
<extensions>
<speed>4.3</speed>
<temp>0.00</temp>
<bpm>0</bpm>
<rpm>0.00</rpm>
</extensions>
</trkpt>
<trkpt lat="30.774356842" lon="34.734275818">
<ele>570.531250</ele>
<time>2013-11-21T12:52:34Z</time>
<speed>2.810000</speed>
<extensions>
<speed>2.8</speed>
<temp>0.00</temp>
<bpm>0</bpm>
<rpm>0.00</rpm>
</extensions>
</trkpt>
<trkpt lat="30.774394989" lon="34.734157562">
<ele>570.359375</ele>
<time>2013-11-21T12:52:39Z</time>
<speed>2.500000</speed>
<extensions>
<speed>2.5</speed>
<temp>0.00</temp>
<bpm>0</bpm>
<rpm>0.00</rpm>
</extensions>
</trkpt>
<trkpt lat="30.774431229" lon="34.733974457">
<ele>570.671875</ele>
<time>2013-11-21T12:52:44Z</time>
<speed>3.390000</speed>
<extensions>
<speed>3.4</speed>
<temp>0.00</temp>
<bpm>0</bpm>
<rpm>0.00</rpm>
</extensions>
</trkpt>
<trkpt lat="30.774461746" lon="34.733802795">
<ele>570.953125</ele>
<time>2013-11-21T12:52:49Z</time>
<speed>2.470000</speed>
<extensions>
<speed>2.5</speed>
<temp>0.00</temp>
<bpm>0</bpm>
<rpm>0.00</rpm>
</extensions>
</trkpt>
<trkpt lat="30.774454117" lon="34.733680725">
<ele>572.828125</ele>
<time>2013-11-21T12:52:54Z</time>
<speed>2.300000</speed>
<extensions>
<speed>2.3</speed>
<temp>0.00</temp>
<bpm>0</bpm>
<rpm>0.00</rpm>
</extensions>
</trkpt>
<trkpt lat="30.774425507" lon="34.733520508">
<ele>575.906250</ele>
<time>2013-11-21T12:52:59Z</time>
<speed>3.720000</speed>
<extensions>
<speed>3.7</speed>
<temp>0.00</temp>
<bpm>0</bpm>
<rpm>0.00</rpm>
</extensions>
</trkpt>
<trkpt lat="30.774393082" lon="34.733337402">
<ele>577.343750</ele>
<time>2013-11-21T12:53:04Z</time>
<speed>3.470000</speed>
<extensions>
<speed>3.5</speed>
<temp>0.00</temp>
<bpm>0</bpm>
<rpm>0.00</rpm>
</extensions>
</trkpt>
<trkpt lat="30.774435043" lon="34.733184814">
<ele>581.984375</ele>
<time>2013-11-21T12:53:09Z</time>
<speed>3.200000</speed>
<extensions>
<speed>3.2</speed>
<temp>0.00</temp>
<bpm>0</bpm>
<rpm>0.00</rpm>
</extensions>
</trkpt>
<trkpt lat="30.774509430" lon="34.733013153">
<ele>584.390625</ele>
<time>2013-11-21T12:53:14Z</time>
<speed>3.580000</speed>
<extensions>
<speed>3.6</speed>
<temp>0.00</temp>
<bpm>0</bpm>
<rpm>0.00</rpm>
</extensions>
</trkpt>
<trkpt lat="30.774520874" lon="34.732833862">
<ele>587.328125</ele>
<time>2013-11-21T12:53:19Z</time>
<speed>4.070000</speed>
<extensions>
<speed>4.1</speed>
<temp>0.00</temp>
<bpm>0</bpm>
<rpm>0.00</rpm>
</extensions>
</trkpt>
<trkpt lat="30.774541855" lon="34.732612610">
<ele>588.250000</ele>
<time>2013-11-21T12:53:24Z</time>
<speed>4.300000</speed>
<extensions>
<speed>4.3</speed>
<temp>0.00</temp>
<bpm>0</bpm>
<rpm>0.00</rpm>
</extensions>
</trkpt>
<trkpt lat="30.774589539" lon="34.732425690">
<ele>584.656250</ele>
<time>2013-11-21T12:53:29Z</time>
<speed>4.180000</speed>
<extensions>
<speed>4.2</speed>
<temp>0.00</temp>
<bpm>0</bpm>
<rpm>0.00</rpm>
</extensions>
</trkpt>
<trkpt lat="30.774606705" lon="34.732208252">
<ele>583.468750</ele>
<time>2013-11-21T12:53:34Z</time>
<speed>3.990000</speed>
<extensions>
<speed>4.0</speed>
<temp>0.00</temp>
<bpm>0</bpm>
<rpm>0.00</rpm>
</extensions>
</trkpt>
<trkpt lat="30.774604797" lon="34.732006073">
<ele>583.828125</ele>
<time>2013-11-21T12:53:39Z</time>
<speed>4.490000</speed>
<extensions>
<speed>4.5</speed>
<temp>0.00</temp>
<bpm>0</bpm>
<rpm>0.00</rpm>
</extensions>
</trkpt>
<trkpt lat="30.774614334" lon="34.731746674">
<ele>581.312500</ele>
<time>2013-11-21T12:53:44Z</time>
<speed>4.230000</speed>
<extensions>
<speed>4.2</speed>
<temp>0.00</temp>
<bpm>0</bpm>
<rpm>0.00</rpm>
</extensions>
</trkpt>
<trkpt lat="30.774608612" lon="34.731502533">
<ele>584.296875</ele>
<time>2013-11-21T12:53:49Z</time>
<speed>5.120000</speed>
<extensions>
<speed>5.1</speed>
<temp>0.00</temp>
<bpm>0</bpm>
<rpm>0.00</rpm>
</extensions>
</trkpt>
<trkpt lat="30.774589539" lon="34.731266022">
<ele>584.562500</ele>
<time>2013-11-21T12:53:54Z</time>
<speed>4.620000</speed>
<extensions>
<speed>4.6</speed>
<temp>0.00</temp>
<bpm>0</bpm>
<rpm>0.00</rpm>
</extensions>
</trkpt>
<trkpt lat="30.774574280" lon="34.731029510">
<ele>586.875000</ele>
<time>2013-11-21T12:53:59Z</time>
<speed>4.050000</speed>
<extensions>
<speed>4.0</speed>
<temp>0.00</temp>
<bpm>0</bpm>
<rpm>0.00</rpm>
</extensions>
</trkpt>
<trkpt lat="30.774547577" lon="34.730831146">
<ele>586.484375</ele>
<time>2013-11-21T12:54:04Z</time>
<speed>4.630000</speed>
<extensions>
<speed>4.6</speed>
<temp>0.00</temp>
<bpm>0</bpm>
<rpm>0.00</rpm>
</extensions>
</trkpt>
<trkpt lat="30.774488449" lon="34.730602264">
<ele>583.765625</ele>
<time>2013-11-21T12:54:09Z</time>
<speed>4.660000</speed>
<extensions>
<speed>4.7</speed>
<temp>0.00</temp>
<bpm>0</bpm>
<rpm>0.00</rpm>
</extensions>
</trkpt>
<trkpt lat="30.774433136" lon="34.730396271">
<ele>583.078125</ele>
<time>2013-11-21T12:54:14Z</time>
<speed>4.240000</speed>
<extensions>
<speed>4.2</speed>
<temp>0.00</temp>
<bpm>0</bpm>
<rpm>0.00</rpm>
</extensions>
</trkpt>
<trkpt lat="30.774406433" lon="34.730197906">
<ele>583.656250</ele>
<time>2013-11-21T12:54:19Z</time>
<speed>4.000000</speed>
<extensions>
<speed>4.0</speed>
<temp>0.00</temp>
<bpm>0</bpm>
<rpm>0.00</rpm>
</extensions>
</trkpt>
<trkpt lat="30.774337769" lon="34.729957581">
<ele>579.375000</ele>
<time>2013-11-21T12:54:24Z</time>
<speed>4.380000</speed>
<extensions>
<speed>4.4</speed>
<temp>0.00</temp>
<bpm>0</bpm>
<rpm>0.00</rpm>
</extensions>
</trkpt>
<trkpt lat="30.774251938" lon="34.729812622">
<ele>580.828125</ele>
<time>2013-11-21T12:54:29Z</time>
<speed>2.840000</speed>
<extensions>
<speed>2.8</speed>
<temp>0.00</temp>
<bpm>0</bpm>
<rpm>0.00</rpm>
</extensions>
</trkpt>
<trkpt lat="30.774152756" lon="34.729690552">
<ele>581.437500</ele>
<time>2013-11-21T12:54:34Z</time>
<speed>3.260000</speed>
<extensions>
<speed>3.3</speed>
<temp>0.00</temp>
<bpm>0</bpm>
<rpm>0.00</rpm>
</extensions>
</trkpt>
<trkpt lat="30.774065018" lon="34.729572296">
<ele>581.453125</ele>
<time>2013-11-21T12:54:39Z</time>
<speed>2.190000</speed>
<extensions>
<speed>2.2</speed>
<temp>0.00</temp>
<bpm>0</bpm>
<rpm>0.00</rpm>
</extensions>
</trkpt>
<trkpt lat="30.773977280" lon="34.729480743">
<ele>580.312500</ele>
<time>2013-11-21T12:54:44Z</time>
<speed>2.620000</speed>
<extensions>
<speed>2.6</speed>
<temp>0.00</temp>
<bpm>0</bpm>
<rpm>0.00</rpm>
</extensions>
</trkpt>
<trkpt lat="30.773870468" lon="34.729335785">
<ele>579.734375</ele>
<time>2013-11-21T12:54:49Z</time>
<speed>3.400000</speed>
<extensions>
<speed>3.4</speed>
<temp>0.00</temp>
<bpm>0</bpm>
<rpm>0.00</rpm>
</extensions>
</trkpt>
<trkpt lat="30.773809433" lon="34.729152679">
<ele>575.546875</ele>
<time>2013-11-21T12:54:54Z</time>
<speed>3.590000</speed>
<extensions>
<speed>3.6</speed>
<temp>0.00</temp>
<bpm>0</bpm>
<rpm>0.00</rpm>
</extensions>
</trkpt>
<trkpt lat="30.773761749" lon="34.728954315">
<ele>577.656250</ele>
<time>2013-11-21T12:54:59Z</time>
<speed>3.600000</speed>
<extensions>
<speed>3.6</speed>
<temp>0.00</temp>
<bpm>0</bpm>
<rpm>0.00</rpm>
</extensions>
</trkpt>
<trkpt lat="30.773677826" lon="34.728771210">
<ele>578.921875</ele>
<time>2013-11-21T12:55:04Z</time>
<speed>4.210000</speed>
<extensions>
<speed>4.2</speed>
<temp>0.00</temp>
<bpm>0</bpm>
<rpm>0.00</rpm>
</extensions>
</trkpt>
<trkpt lat="30.773557663" lon="34.728549957">
<ele>576.421875</ele>
<time>2013-11-21T12:55:09Z</time>
<speed>4.410000</speed>
<extensions>
<speed>4.4</speed>
<temp>0.00</temp>
<bpm>0</bpm>
<rpm>0.00</rpm>
</extensions>
</trkpt>
<trkpt lat="30.773416519" lon="34.728408813">
<ele>576.125000</ele>
<time>2013-11-21T12:55:14Z</time>
<speed>4.610000</speed>
<extensions>
<speed>4.6</speed>
<temp>0.00</temp>
<bpm>0</bpm>
<rpm>0.00</rpm>
</extensions>
</trkpt>
<trkpt lat="30.773237228" lon="34.728286743">
<ele>577.031250</ele>
<time>2013-11-21T12:55:19Z</time>
<speed>4.430000</speed>
<extensions>
<speed>4.4</speed>
<temp>0.00</temp>
<bpm>0</bpm>
<rpm>0.00</rpm>
</extensions>
</trkpt>
<trkpt lat="30.773044586" lon="34.728240967">
<ele>575.187500</ele>
<time>2013-11-21T12:55:24Z</time>
<speed>4.530000</speed>
<extensions>
<speed>4.5</speed>
<temp>0.00</temp>
<bpm>0</bpm>
<rpm>0.00</rpm>
</extensions>
</trkpt>
<trkpt lat="30.772884369" lon="34.728252411">
<ele>576.750000</ele>
<time>2013-11-21T12:55:29Z</time>
<speed>3.320000</speed>
<extensions>
<speed>3.3</speed>
<temp>0.00</temp>
<bpm>0</bpm>
<rpm>0.00</rpm>
</extensions>
</trkpt>
<trkpt lat="30.772712708" lon="34.728229523">
<ele>576.171875</ele>
<time>2013-11-21T12:55:34Z</time>
<speed>4.370000</speed>
<extensions>
<speed>4.4</speed>
<temp>0.00</temp>
<bpm>0</bpm>
<rpm>0.00</rpm>
</extensions>
</trkpt>
<trkpt lat="30.772523880" lon="34.728202820">
<ele>573.875000</ele>
<time>2013-11-21T12:55:39Z</time>
<speed>3.720000</speed>
<extensions>
<speed>3.7</speed>
<temp>0.00</temp>
<bpm>0</bpm>
<rpm>0.00</rpm>
</extensions>
</trkpt>
<trkpt lat="30.772375107" lon="34.728088379">
<ele>572.875000</ele>
<time>2013-11-21T12:55:44Z</time>
<speed>4.170000</speed>
<extensions>
<speed>4.2</speed>
<temp>0.00</temp>
<bpm>0</bpm>
<rpm>0.00</rpm>
</extensions>
</trkpt>
<trkpt lat="30.772241592" lon="34.727970123">
<ele>573.765625</ele>
<time>2013-11-21T12:55:49Z</time>
<speed>3.690000</speed>
<extensions>
<speed>3.7</speed>
<temp>0.00</temp>
<bpm>0</bpm>
<rpm>0.00</rpm>
</extensions>
</trkpt>
<trkpt lat="30.772094727" lon="34.727874756">
<ele>572.515625</ele>
<time>2013-11-21T12:55:54Z</time>
<speed>3.140000</speed>
<extensions>
<speed>3.1</speed>
<temp>0.00</temp>
<bpm>0</bpm>
<rpm>0.00</rpm>
</extensions>
</trkpt>
<trkpt lat="30.772043228" lon="34.727771759">
<ele>571.750000</ele>
<time>2013-11-21T12:55:59Z</time>
<speed>2.640000</speed>
<extensions>
<speed>2.6</speed>
<temp>0.00</temp>
<bpm>0</bpm>
<rpm>0.00</rpm>
</extensions>
</trkpt>
<trkpt lat="30.772003174" lon="34.727622986">
<ele>572.906250</ele>
<time>2013-11-21T12:56:04Z</time>
<speed>2.330000</speed>
<extensions>
<speed>2.3</speed>
<temp>0.00</temp>
<bpm>0</bpm>
<rpm>0.00</rpm>
</extensions>
</trkpt>
<trkpt lat="30.771968842" lon="34.727531433">
<ele>574.546875</ele>
<time>2013-11-21T12:56:09Z</time>
<speed>2.320000</speed>
<extensions>
<speed>2.3</speed>
<temp>0.00</temp>
<bpm>0</bpm>
<rpm>0.00</rpm>
</extensions>
</trkpt>
<trkpt lat="30.771898270" lon="34.727489471">
<ele>576.921875</ele>
<time>2013-11-21T12:56:14Z</time>
<speed>2.270000</speed>
<extensions>
<speed>2.3</speed>
<temp>0.00</temp>
<bpm>0</bpm>
<rpm>0.00</rpm>
</extensions>
</trkpt>
<trkpt lat="30.771837234" lon="34.727478027">
<ele>579.984375</ele>
<time>2013-11-21T12:56:19Z</time>
<speed>1.240000</speed>
<extensions>
<speed>1.2</speed>
<temp>0.00</temp>
<bpm>0</bpm>
<rpm>0.00</rpm>
</extensions>
</trkpt>
<trkpt lat="30.771717072" lon="34.727500916">
<ele>581.343750</ele>
<time>2013-11-21T12:56:24Z</time>
<speed>3.660000</speed>
<extensions>
<speed>3.7</speed>
<temp>0.00</temp>
<bpm>0</bpm>
<rpm>0.00</rpm>
</extensions>
</trkpt>
<trkpt lat="30.771566391" lon="34.727542877">
<ele>581.968750</ele>
<time>2013-11-21T12:56:29Z</time>
<speed>3.340000</speed>
<extensions>
<speed>3.3</speed>
<temp>0.00</temp>
<bpm>0</bpm>
<rpm>0.00</rpm>
</extensions>
</trkpt>
<trkpt lat="30.771419525" lon="34.727611542">
<ele>583.515625</ele>
<time>2013-11-21T12:56:34Z</time>
<speed>3.630000</speed>
<extensions>
<speed>3.6</speed>
<temp>0.00</temp>
<bpm>0</bpm>
<rpm>0.00</rpm>
</extensions>
</trkpt>
<trkpt lat="30.771293640" lon="34.727722168">
<ele>583.343750</ele>
<time>2013-11-21T12:56:39Z</time>
<speed>3.160000</speed>
<extensions>
<speed>3.2</speed>
<temp>0.00</temp>
<bpm>0</bpm>
<rpm>0.00</rpm>
</extensions>
</trkpt>
<trkpt lat="30.771146774" lon="34.727836609">
<ele>583.984375</ele>
<time>2013-11-21T12:56:44Z</time>
<speed>3.920000</speed>
<extensions>
<speed>3.9</speed>
<temp>0.00</temp>
<bpm>0</bpm>
<rpm>0.00</rpm>
</extensions>
</trkpt>
<trkpt lat="30.770986557" lon="34.727882385">
<ele>580.000000</ele>
<time>2013-11-21T12:56:49Z</time>
<speed>3.920000</speed>
<extensions>
<speed>3.9</speed>
<temp>0.00</temp>
<bpm>0</bpm>
<rpm>0.00</rpm>
</extensions>
</trkpt>
<trkpt lat="30.770799637" lon="34.727954865">
<ele>577.531250</ele>
<time>2013-11-21T12:56:54Z</time>
<speed>4.200000</speed>
<extensions>
<speed>4.2</speed>
<temp>0.00</temp>
<bpm>0</bpm>
<rpm>0.00</rpm>
</extensions>
</trkpt>
<trkpt lat="30.770633698" lon="34.728054047">
<ele>574.937500</ele>
<time>2013-11-21T12:56:59Z</time>
<speed>3.580000</speed>
<extensions>
<speed>3.6</speed>
<temp>0.00</temp>
<bpm>0</bpm>
<rpm>0.00</rpm>
</extensions>
</trkpt>
<trkpt lat="30.770484924" lon="34.728115082">
<ele>571.593750</ele>
<time>2013-11-21T12:57:04Z</time>
<speed>3.010000</speed>
<extensions>
<speed>3.0</speed>
<temp>0.00</temp>
<bpm>0</bpm>
<rpm>0.00</rpm>
</extensions>
</trkpt>
<trkpt lat="30.770332336" lon="34.728176117">
<ele>570.218750</ele>
<time>2013-11-21T12:57:09Z</time>
<speed>3.380000</speed>
<extensions>
<speed>3.4</speed>
<temp>0.00</temp>
<bpm>0</bpm>
<rpm>0.00</rpm>
</extensions>
</trkpt>
<trkpt lat="30.770185471" lon="34.728240967">
<ele>570.609375</ele>
<time>2013-11-21T12:57:14Z</time>
<speed>4.330000</speed>
<extensions>
<speed>4.3</speed>
<temp>0.00</temp>
<bpm>0</bpm>
<rpm>0.00</rpm>
</extensions>
</trkpt>
<trkpt lat="30.769998550" lon="34.728351593">
<ele>568.015625</ele>
<time>2013-11-21T12:57:19Z</time>
<speed>4.000000</speed>
<extensions>
<speed>4.0</speed>
<temp>0.00</temp>
<bpm>0</bpm>
<rpm>0.00</rpm>
</extensions>
</trkpt>
<trkpt lat="30.769880295" lon="34.728439331">
<ele>568.875000</ele>
<time>2013-11-21T12:57:24Z</time>
<speed>2.550000</speed>
<extensions>
<speed>2.6</speed>
<temp>0.00</temp>
<bpm>0</bpm>
<rpm>0.00</rpm>
</extensions>
</trkpt>
<trkpt lat="30.769794464" lon="34.728504181">
<ele>568.140625</ele>
<time>2013-11-21T12:57:29Z</time>
<speed>2.380000</speed>
<extensions>
<speed>2.4</speed>
<temp>0.00</temp>
<bpm>0</bpm>
<rpm>0.00</rpm>
</extensions>
</trkpt>
<trkpt lat="30.769727707" lon="34.728557587">
<ele>567.453125</ele>
<time>2013-11-21T12:57:34Z</time>
<speed>1.620000</speed>
<extensions>
<speed>1.6</speed>
<temp>0.00</temp>
<bpm>0</bpm>
<rpm>0.00</rpm>
</extensions>
</trkpt>
<trkpt lat="30.769685745" lon="34.728610992">
<ele>568.640625</ele>
<time>2013-11-21T12:57:39Z</time>
<speed>1.510000</speed>
<extensions>
<speed>1.5</speed>
<temp>0.00</temp>
<bpm>0</bpm>
<rpm>0.00</rpm>
</extensions>
</trkpt>
<trkpt lat="30.769586563" lon="34.728672028">
<ele>570.281250</ele>
<time>2013-11-21T12:57:44Z</time>
<speed>2.940000</speed>
<extensions>
<speed>2.9</speed>
<temp>0.00</temp>
<bpm>0</bpm>
<rpm>0.00</rpm>
</extensions>
</trkpt>
<trkpt lat="30.769474030" lon="34.728797913">
<ele>571.062500</ele>
<time>2013-11-21T12:57:49Z</time>
<speed>2.800000</speed>
<extensions>
<speed>2.8</speed>
<temp>0.00</temp>
<bpm>0</bpm>
<rpm>0.00</rpm>
</extensions>
</trkpt>
<trkpt lat="30.769393921" lon="34.728885651">
<ele>572.437500</ele>
<time>2013-11-21T12:57:54Z</time>
<speed>1.540000</speed>
<extensions>
<speed>1.5</speed>
<temp>0.00</temp>
<bpm>0</bpm>
<rpm>0.00</rpm>
</extensions>
</trkpt>
<trkpt lat="30.769334793" lon="34.728973389">
<ele>574.796875</ele>
<time>2013-11-21T12:57:59Z</time>
<speed>3.220000</speed>
<extensions>
<speed>3.2</speed>
<temp>0.00</temp>
<bpm>0</bpm>
<rpm>0.00</rpm>
</extensions>
</trkpt>
<trkpt lat="30.769231796" lon="34.729087830">
<ele>577.671875</ele>
<time>2013-11-21T12:58:04Z</time>
<speed>3.720000</speed>
<extensions>
<speed>3.7</speed>
<temp>0.00</temp>
<bpm>0</bpm>
<rpm>0.00</rpm>
</extensions>
</trkpt>
<trkpt lat="30.769096375" lon="34.729137421">
<ele>576.062500</ele>
<time>2013-11-21T12:58:09Z</time>
<speed>3.320000</speed>
<extensions>
<speed>3.3</speed>
<temp>0.00</temp>
<bpm>0</bpm>
<rpm>0.00</rpm>
</extensions>
</trkpt>
<trkpt lat="30.768972397" lon="34.729194641">
<ele>575.734375</ele>
<time>2013-11-21T12:58:14Z</time>
<speed>2.580000</speed>
<extensions>
<speed>2.6</speed>
<temp>0.00</temp>
<bpm>0</bpm>
<rpm>0.00</rpm>
</extensions>
</trkpt>
<trkpt lat="30.768852234" lon="34.729194641">
<ele>574.375000</ele>
<time>2013-11-21T12:58:19Z</time>
<speed>2.620000</speed>
<extensions>
<speed>2.6</speed>
<temp>0.00</temp>
<bpm>0</bpm>
<rpm>0.00</rpm>
</extensions>
</trkpt>
<trkpt lat="30.768760681" lon="34.729160309">
<ele>571.578125</ele>
<time>2013-11-21T12:58:24Z</time>
<speed>2.060000</speed>
<extensions>
<speed>2.1</speed>
<temp>0.00</temp>
<bpm>0</bpm>
<rpm>0.00</rpm>
</extensions>
</trkpt>
<trkpt lat="30.768688202" lon="34.729091644">
<ele>569.984375</ele>
<time>2013-11-21T12:58:29Z</time>
<speed>1.960000</speed>
<extensions>
<speed>2.0</speed>
<temp>0.00</temp>
<bpm>0</bpm>
<rpm>0.00</rpm>
</extensions>
</trkpt>
<trkpt lat="30.768613815" lon="34.729030609">
<ele>571.531250</ele>
<time>2013-11-21T12:58:34Z</time>
<speed>2.030000</speed>
<extensions>
<speed>2.0</speed>
<temp>0.00</temp>
<bpm>0</bpm>
<rpm>0.00</rpm>
</extensions>
</trkpt>
<trkpt lat="30.768541336" lon="34.728973389">
<ele>574.562500</ele>
<time>2013-11-21T12:58:39Z</time>
<speed>2.460000</speed>
<extensions>
<speed>2.5</speed>
<temp>0.00</temp>
<bpm>0</bpm>
<rpm>0.00</rpm>
</extensions>
</trkpt>
<trkpt lat="30.768474579" lon="34.728927612">
<ele>574.921875</ele>
<time>2013-11-21T12:58:44Z</time>
<speed>2.460000</speed>
<extensions>
<speed>2.5</speed>
<temp>0.00</temp>
<bpm>0</bpm>
<rpm>0.00</rpm>
</extensions>
</trkpt>
<trkpt lat="30.768375397" lon="34.728847504">
<ele>575.343750</ele>
<time>2013-11-21T12:58:49Z</time>
<speed>2.960000</speed>
<extensions>
<speed>3.0</speed>
<temp>0.00</temp>
<bpm>0</bpm>
<rpm>0.00</rpm>
</extensions>
</trkpt>
<trkpt lat="30.768278122" lon="34.728748322">
<ele>575.796875</ele>
<time>2013-11-21T12:58:54Z</time>
<speed>3.170000</speed>
<extensions>
<speed>3.2</speed>
<temp>0.00</temp>
<bpm>0</bpm>
<rpm>0.00</rpm>
</extensions>
</trkpt>
<trkpt lat="30.768215179" lon="34.728656769">
<ele>577.359375</ele>
<time>2013-11-21T12:58:59Z</time>
<speed>0.940000</speed>
<extensions>
<speed>0.9</speed>
<temp>0.00</temp>
<bpm>0</bpm>
<rpm>0.00</rpm>
</extensions>
</trkpt>
<trkpt lat="30.768142700" lon="34.728603363">
<ele>578.765625</ele>
<time>2013-11-21T12:59:04Z</time>
<speed>2.590000</speed>
<extensions>
<speed>2.6</speed>
<temp>0.00</temp>
<bpm>0</bpm>
<rpm>0.00</rpm>
</extensions>
</trkpt>
<trkpt lat="30.768045425" lon="34.728523254">
<ele>579.265625</ele>
<time>2013-11-21T12:59:09Z</time>
<speed>3.300000</speed>
<extensions>
<speed>3.3</speed>
<temp>0.00</temp>
<bpm>0</bpm>
<rpm>0.00</rpm>
</extensions>
</trkpt>
<trkpt lat="30.767957687" lon="34.728420258">
<ele>577.328125</ele>
<time>2013-11-21T12:59:14Z</time>
<speed>3.620000</speed>
<extensions>
<speed>3.6</speed>
<temp>0.00</temp>
<bpm>0</bpm>
<rpm>0.00</rpm>
</extensions>
</trkpt>
<trkpt lat="30.767829895" lon="34.728290558">
<ele>580.312500</ele>
<time>2013-11-21T12:59:19Z</time>
<speed>3.650000</speed>
<extensions>
<speed>3.7</speed>
<temp>0.00</temp>
<bpm>0</bpm>
<rpm>0.00</rpm>
</extensions>
</trkpt>
<trkpt lat="30.767705917" lon="34.728115082">
<ele>579.906250</ele>
<time>2013-11-21T12:59:24Z</time>
<speed>4.370000</speed>
<extensions>
<speed>4.4</speed>
<temp>0.00</temp>
<bpm>0</bpm>
<rpm>0.00</rpm>
</extensions>
</trkpt>
<trkpt lat="30.767599106" lon="34.727954865">
<ele>580.421875</ele>
<time>2013-11-21T12:59:29Z</time>
<speed>3.040000</speed>
<extensions>
<speed>3.0</speed>
<temp>0.00</temp>
<bpm>0</bpm>
<rpm>0.00</rpm>
</extensions>
</trkpt>
<trkpt lat="30.767492294" lon="34.727802277">
<ele>577.968750</ele>
<time>2013-11-21T12:59:34Z</time>
<speed>3.790000</speed>
<extensions>
<speed>3.8</speed>
<temp>0.00</temp>
<bpm>0</bpm>
<rpm>0.00</rpm>
</extensions>
</trkpt>
<trkpt lat="30.767343521" lon="34.727714539">
<ele>575.531250</ele>
<time>2013-11-21T12:59:39Z</time>
<speed>4.580000</speed>
<extensions>
<speed>4.6</speed>
<temp>0.00</temp>
<bpm>0</bpm>
<rpm>0.00</rpm>
</extensions>
</trkpt>
<trkpt lat="30.767127991" lon="34.727684021">
<ele>575.640625</ele>
<time>2013-11-21T12:59:44Z</time>
<speed>4.000000</speed>
<extensions>
<speed>4.0</speed>
<temp>0.00</temp>
<bpm>0</bpm>
<rpm>0.00</rpm>
</extensions>
</trkpt>
<trkpt lat="30.767005920" lon="34.727630615">
<ele>575.859375</ele>
<time>2013-11-21T12:59:49Z</time>
<speed>2.560000</speed>
<extensions>
<speed>2.6</speed>
<temp>0.00</temp>
<bpm>0</bpm>
<rpm>0.00</rpm>
</extensions>
</trkpt>
<trkpt lat="30.766904831" lon="34.727581024">
<ele>577.625000</ele>
<time>2013-11-21T12:59:54Z</time>
<speed>1.830000</speed>
<extensions>
<speed>1.8</speed>
<temp>0.00</temp>
<bpm>0</bpm>
<rpm>0.00</rpm>
</extensions>
</trkpt>
<trkpt lat="30.766841888" lon="34.727512360">
<ele>577.390625</ele>
<time>2013-11-21T12:59:59Z</time>
<speed>2.010000</speed>
<extensions>
<speed>2.0</speed>
<temp>0.00</temp>
<bpm>0</bpm>
<rpm>0.00</rpm>
</extensions>
</trkpt>
<trkpt lat="30.766832352" lon="34.727363586">
<ele>576.750000</ele>
<time>2013-11-21T13:00:04Z</time>
<speed>2.550000</speed>
<extensions>
<speed>2.6</speed>
<temp>0.00</temp>
<bpm>0</bpm>
<rpm>0.00</rpm>
</extensions>
</trkpt>
<trkpt lat="30.766824722" lon="34.727310181">
<ele>578.281250</ele>
<time>2013-11-21T13:00:09Z</time>
<speed>0.100000</speed>
<extensions>
<speed>0.1</speed>
<temp>0.00</temp>
<bpm>0</bpm>
<rpm>0.00</rpm>
</extensions>
</trkpt>
<trkpt lat="30.766820908" lon="34.727313995">
<ele>578.093750</ele>
<time>2013-11-21T13:00:14Z</time>
<speed>0.050000</speed>
<extensions>
<speed>0.1</speed>
<temp>0.00</temp>
<bpm>0</bpm>
<rpm>0.00</rpm>
</extensions>
</trkpt>
<trkpt lat="30.766820908" lon="34.727310181">
<ele>578.031250</ele>
<time>2013-11-21T13:00:19Z</time>
<speed>0.180000</speed>
<extensions>
<speed>0.2</speed>
<temp>0.00</temp>
<bpm>0</bpm>
<rpm>0.00</rpm>
</extensions>
</trkpt>
<trkpt lat="30.766817093" lon="34.727306366">
<ele>578.062500</ele>
<time>2013-11-21T13:00:24Z</time>
<speed>0.100000</speed>
<extensions>
<speed>0.1</speed>
<temp>0.00</temp>
<bpm>0</bpm>
<rpm>0.00</rpm>
</extensions>
</trkpt>
<trkpt lat="30.766813278" lon="34.727302551">
<ele>578.093750</ele>
<time>2013-11-21T13:00:29Z</time>
<speed>0.030000</speed>
<extensions>
<speed>0.0</speed>
<temp>0.00</temp>
<bpm>0</bpm>
<rpm>0.00</rpm>
</extensions>
</trkpt>
<trkpt lat="30.766813278" lon="34.727302551">
<ele>578.125000</ele>
<time>2013-11-21T13:00:34Z</time>
<speed>0.090000</speed>
<extensions>
<speed>0.1</speed>
<temp>0.00</temp>
<bpm>0</bpm>
<rpm>0.00</rpm>
</extensions>
</trkpt>
<trkpt lat="30.766815186" lon="34.727302551">
<ele>578.109375</ele>
<time>2013-11-21T13:00:39Z</time>
<speed>0.010000</speed>
<extensions>
<speed>0.0</speed>
<temp>0.00</temp>
<bpm>0</bpm>
<rpm>0.00</rpm>
</extensions>
</trkpt>
<trkpt lat="30.766815186" lon="34.727302551">
<ele>578.093750</ele>
<time>2013-11-21T13:00:44Z</time>
<speed>0.020000</speed>
<extensions>
<speed>0.0</speed>
<temp>0.00</temp>
<bpm>0</bpm>
<rpm>0.00</rpm>
</extensions>
</trkpt>
<trkpt lat="30.766813278" lon="34.727298737">
<ele>578.125000</ele>
<time>2013-11-21T13:00:49Z</time>
<speed>0.030000</speed>
<extensions>
<speed>0.0</speed>
<temp>0.00</temp>
<bpm>0</bpm>
<rpm>0.00</rpm>
</extensions>
</trkpt>
<trkpt lat="30.766811371" lon="34.727298737">
<ele>578.156250</ele>
<time>2013-11-21T13:00:54Z</time>
<speed>0.040000</speed>
<extensions>
<speed>0.0</speed>
<temp>0.00</temp>
<bpm>0</bpm>
<rpm>0.00</rpm>
</extensions>
</trkpt>
<trkpt lat="30.766811371" lon="34.727298737">
<ele>578.156250</ele>
<time>2013-11-21T13:00:59Z</time>
<speed>0.010000</speed>
<extensions>
<speed>0.0</speed>
<temp>0.00</temp>
<bpm>0</bpm>
<rpm>0.00</rpm>
</extensions>
</trkpt>
<trkpt lat="30.766811371" lon="34.727298737">
<ele>578.156250</ele>
<time>2013-11-21T13:01:04Z</time>
<speed>0.030000</speed>
<extensions>
<speed>0.0</speed>
<temp>0.00</temp>
<bpm>0</bpm>
<rpm>0.00</rpm>
</extensions>
</trkpt>
<trkpt lat="30.766811371" lon="34.727294922">
<ele>578.140625</ele>
<time>2013-11-21T13:01:09Z</time>
<speed>0.030000</speed>
<extensions>
<speed>0.0</speed>
<temp>0.00</temp>
<bpm>0</bpm>
<rpm>0.00</rpm>
</extensions>
</trkpt>
<trkpt lat="30.766809464" lon="34.727294922">
<ele>578.140625</ele>
<time>2013-11-21T13:01:14Z</time>
<extensions>
<speed>0.0</speed>
<temp>0.00</temp>
<bpm>0</bpm>
<rpm>0.00</rpm>
</extensions>
</trkpt>
<trkpt lat="30.766809464" lon="34.727294922">
<ele>578.140625</ele>
<time>2013-11-21T13:01:19Z</time>
<speed>0.040000</speed>
<extensions>
<speed>0.0</speed>
<temp>0.00</temp>
<bpm>0</bpm>
<rpm>0.00</rpm>
</extensions>
</trkpt>
<trkpt lat="30.766805649" lon="34.727294922">
<ele>578.156250</ele>
<time>2013-11-21T13:01:24Z</time>
<speed>0.240000</speed>
<extensions>
<speed>0.2</speed>
<temp>0.00</temp>
<bpm>0</bpm>
<rpm>0.00</rpm>
</extensions>
</trkpt>
<trkpt lat="30.766786575" lon="34.727287292">
<ele>578.234375</ele>
<time>2013-11-21T13:01:29Z</time>
<speed>1.250000</speed>
<extensions>
<speed>1.3</speed>
<temp>0.00</temp>
<bpm>0</bpm>
<rpm>0.00</rpm>
</extensions>
</trkpt>
<trkpt lat="30.766708374" lon="34.727226257">
<ele>577.796875</ele>
<time>2013-11-21T13:01:34Z</time>
<speed>1.300000</speed>
<extensions>
<speed>1.3</speed>
<temp>0.00</temp>
<bpm>0</bpm>
<rpm>0.00</rpm>
</extensions>
</trkpt>
<trkpt lat="30.766658783" lon="34.727214813">
<ele>577.000000</ele>
<time>2013-11-21T13:01:39Z</time>
<speed>0.370000</speed>
<extensions>
<speed>0.4</speed>
<temp>0.00</temp>
<bpm>0</bpm>
<rpm>0.00</rpm>
</extensions>
</trkpt>
<trkpt lat="30.766609192" lon="34.727226257">
<ele>576.640625</ele>
<time>2013-11-21T13:01:44Z</time>
<speed>0.690000</speed>
<extensions>
<speed>0.7</speed>
<temp>0.00</temp>
<bpm>0</bpm>
<rpm>0.00</rpm>
</extensions>
</trkpt>
<trkpt lat="30.766569138" lon="34.727245331">
<ele>577.203125</ele>
<time>2013-11-21T13:01:49Z</time>
<speed>0.790000</speed>
<extensions>
<speed>0.8</speed>
<temp>0.00</temp>
<bpm>0</bpm>
<rpm>0.00</rpm>
</extensions>
</trkpt>
<trkpt lat="30.766548157" lon="34.727298737">
<ele>577.843750</ele>
<time>2013-11-21T13:01:54Z</time>
<speed>0.810000</speed>
<extensions>
<speed>0.8</speed>
<temp>0.00</temp>
<bpm>0</bpm>
<rpm>0.00</rpm>
</extensions>
</trkpt>
<trkpt lat="30.766521454" lon="34.727340698">
<ele>579.015625</ele>
<time>2013-11-21T13:01:59Z</time>
<speed>0.850000</speed>
<extensions>
<speed>0.8</speed>
<temp>0.00</temp>
<bpm>0</bpm>
<rpm>0.00</rpm>
</extensions>
</trkpt>
<trkpt lat="30.766498566" lon="34.727382660">
<ele>580.046875</ele>
<time>2013-11-21T13:02:04Z</time>
<speed>0.740000</speed>
<extensions>
<speed>0.7</speed>
<temp>0.00</temp>
<bpm>0</bpm>
<rpm>0.00</rpm>
</extensions>
</trkpt>
<trkpt lat="30.766483307" lon="34.727416992">
<ele>580.218750</ele>
<time>2013-11-21T13:02:09Z</time>
<speed>0.530000</speed>
<extensions>
<speed>0.5</speed>
<temp>0.00</temp>
<bpm>0</bpm>
<rpm>0.00</rpm>
</extensions>
</trkpt>
<trkpt lat="30.766462326" lon="34.727455139">
<ele>580.453125</ele>
<time>2013-11-21T13:02:14Z</time>
<speed>0.670000</speed>
<extensions>
<speed>0.7</speed>
<temp>0.00</temp>
<bpm>0</bpm>
<rpm>0.00</rpm>
</extensions>
</trkpt>
<trkpt lat="30.766445160" lon="34.727493286">
<ele>581.250000</ele>
<time>2013-11-21T13:02:19Z</time>
<speed>0.580000</speed>
<extensions>
<speed>0.6</speed>
<temp>0.00</temp>
<bpm>0</bpm>
<rpm>0.00</rpm>
</extensions>
</trkpt>
<trkpt lat="30.766414642" lon="34.727512360">
<ele>581.703125</ele>
<time>2013-11-21T13:02:24Z</time>
<speed>0.850000</speed>
<extensions>
<speed>0.8</speed>
<temp>0.00</temp>
<bpm>0</bpm>
<rpm>0.00</rpm>
</extensions>
</trkpt>
<trkpt lat="30.766391754" lon="34.727546692">
<ele>582.171875</ele>
<time>2013-11-21T13:02:29Z</time>
<speed>0.950000</speed>
<extensions>
<speed>1.0</speed>
<temp>0.00</temp>
<bpm>0</bpm>
<rpm>0.00</rpm>
</extensions>
</trkpt>
<trkpt lat="30.766372681" lon="34.727561951">
<ele>582.234375</ele>
<time>2013-11-21T13:02:34Z</time>
<speed>0.570000</speed>
<extensions>
<speed>0.6</speed>
<temp>0.00</temp>
<bpm>0</bpm>
<rpm>0.00</rpm>
</extensions>
</trkpt>
<trkpt lat="30.766345978" lon="34.727558136">
<ele>583.515625</ele>
<time>2013-11-21T13:02:39Z</time>
<speed>0.560000</speed>
<extensions>
<speed>0.6</speed>
<temp>0.00</temp>
<bpm>0</bpm>
<rpm>0.00</rpm>
</extensions>
</trkpt>
<trkpt lat="30.766315460" lon="34.727584839">
<ele>583.468750</ele>
<time>2013-11-21T13:02:44Z</time>
<speed>0.690000</speed>
<extensions>
<speed>0.7</speed>
<temp>0.00</temp>
<bpm>0</bpm>
<rpm>0.00</rpm>
</extensions>
</trkpt>
<trkpt lat="30.766298294" lon="34.727626801">
<ele>584.937500</ele>
<time>2013-11-21T13:02:49Z</time>
<speed>1.200000</speed>
<extensions>
<speed>1.2</speed>
<temp>0.00</temp>
<bpm>0</bpm>
<rpm>0.00</rpm>
</extensions>
</trkpt>
<trkpt lat="30.766275406" lon="34.727684021">
<ele>585.312500</ele>
<time>2013-11-21T13:02:54Z</time>
<speed>1.160000</speed>
<extensions>
<speed>1.2</speed>
<temp>0.00</temp>
<bpm>0</bpm>
<rpm>0.00</rpm>
</extensions>
</trkpt>
<trkpt lat="30.766246796" lon="34.727722168">
<ele>585.921875</ele>
<time>2013-11-21T13:02:59Z</time>
<speed>0.690000</speed>
<extensions>
<speed>0.7</speed>
<temp>0.00</temp>
<bpm>0</bpm>
<rpm>0.00</rpm>
</extensions>
</trkpt>
<trkpt lat="30.766218185" lon="34.727745056">
<ele>585.734375</ele>
<time>2013-11-21T13:03:04Z</time>
<speed>0.540000</speed>
<extensions>
<speed>0.5</speed>
<temp>0.00</temp>
<bpm>0</bpm>
<rpm>0.00</rpm>
</extensions>
</trkpt>
<trkpt lat="30.766208649" lon="34.727767944">
<ele>587.500000</ele>
<time>2013-11-21T13:03:09Z</time>
<speed>0.360000</speed>
<extensions>
<speed>0.4</speed>
<temp>0.00</temp>
<bpm>0</bpm>
<rpm>0.00</rpm>
</extensions>
</trkpt>
<trkpt lat="30.766193390" lon="34.727787018">
<ele>588.890625</ele>
<time>2013-11-21T13:03:14Z</time>
<speed>0.490000</speed>
<extensions>
<speed>0.5</speed>
<temp>0.00</temp>
<bpm>0</bpm>
<rpm>0.00</rpm>
</extensions>
</trkpt>
<trkpt lat="30.766170502" lon="34.727806091">
<ele>589.640625</ele>
<time>2013-11-21T13:03:19Z</time>
<speed>0.590000</speed>
<extensions>
<speed>0.6</speed>
<temp>0.00</temp>
<bpm>0</bpm>
<rpm>0.00</rpm>
</extensions>
</trkpt>
<trkpt lat="30.766160965" lon="34.727783203">
<ele>591.953125</ele>
<time>2013-11-21T13:03:24Z</time>
<speed>0.520000</speed>
<extensions>
<speed>0.5</speed>
<temp>0.00</temp>
<bpm>0</bpm>
<rpm>0.00</rpm>
</extensions>
</trkpt>
<trkpt lat="30.766147614" lon="34.727779388">
<ele>592.281250</ele>
<time>2013-11-21T13:03:29Z</time>
<speed>0.140000</speed>
<extensions>
<speed>0.1</speed>
<temp>0.00</temp>
<bpm>0</bpm>
<rpm>0.00</rpm>
</extensions>
</trkpt>
<trkpt lat="30.766145706" lon="34.727779388">
<ele>592.437500</ele>
<time>2013-11-21T13:03:34Z</time>
<speed>0.060000</speed>
<extensions>
<speed>0.1</speed>
<temp>0.00</temp>
<bpm>0</bpm>
<rpm>0.00</rpm>
</extensions>
</trkpt>
<trkpt lat="30.766134262" lon="34.727775574">
<ele>592.781250</ele>
<time>2013-11-21T13:03:39Z</time>
<speed>0.470000</speed>
<extensions>
<speed>0.5</speed>
<temp>0.00</temp>
<bpm>0</bpm>
<rpm>0.00</rpm>
</extensions>
</trkpt>
<trkpt lat="30.766088486" lon="34.727748871">
<ele>595.031250</ele>
<time>2013-11-21T13:03:44Z</time>
<speed>1.000000</speed>
<extensions>
<speed>1.0</speed>
<temp>0.00</temp>
<bpm>0</bpm>
<rpm>0.00</rpm>
</extensions>
</trkpt>
<trkpt lat="30.766036987" lon="34.727710724">
<ele>596.000000</ele>
<time>2013-11-21T13:03:49Z</time>
<speed>1.240000</speed>
<extensions>
<speed>1.2</speed>
<temp>0.00</temp>
<bpm>0</bpm>
<rpm>0.00</rpm>
</extensions>
</trkpt>
<trkpt lat="30.765958786" lon="34.727703094">
<ele>596.265625</ele>
<time>2013-11-21T13:03:54Z</time>
<speed>0.810000</speed>
<extensions>
<speed>0.8</speed>
<temp>0.00</temp>
<bpm>0</bpm>
<rpm>0.00</rpm>
</extensions>
</trkpt>
<trkpt lat="30.765943527" lon="34.727722168">
<ele>598.421875</ele>
<time>2013-11-21T13:03:59Z</time>
<speed>0.840000</speed>
<extensions>
<speed>0.8</speed>
<temp>0.00</temp>
<bpm>0</bpm>
<rpm>0.00</rpm>
</extensions>
</trkpt>
<trkpt lat="30.765939713" lon="34.727760315">
<ele>599.921875</ele>
<time>2013-11-21T13:04:04Z</time>
<speed>0.880000</speed>
<extensions>
<speed>0.9</speed>
<temp>0.00</temp>
<bpm>0</bpm>
<rpm>0.00</rpm>
</extensions>
</trkpt>
<trkpt lat="30.765924454" lon="34.727836609">
<ele>601.015625</ele>
<time>2013-11-21T13:04:09Z</time>
<speed>1.360000</speed>
<extensions>
<speed>1.4</speed>
<temp>0.00</temp>
<bpm>0</bpm>
<rpm>0.00</rpm>
</extensions>
</trkpt>
<trkpt lat="30.765907288" lon="34.727859497">
<ele>601.375000</ele>
<time>2013-11-21T13:04:14Z</time>
<speed>0.020000</speed>
<extensions>
<speed>0.0</speed>
<temp>0.00</temp>
<bpm>0</bpm>
<rpm>0.00</rpm>
</extensions>
</trkpt>
<trkpt lat="30.765893936" lon="34.727851868">
<ele>601.156250</ele>
<time>2013-11-21T13:04:19Z</time>
<speed>0.130000</speed>
<extensions>
<speed>0.1</speed>
<temp>0.00</temp>
<bpm>0</bpm>
<rpm>0.00</rpm>
</extensions>
</trkpt>
<trkpt lat="30.765924454" lon="34.727893829">
<ele>600.718750</ele>
<time>2013-11-21T13:04:24Z</time>
<speed>3.040000</speed>
<extensions>
<speed>3.0</speed>
<temp>0.00</temp>
<bpm>0</bpm>
<rpm>0.00</rpm>
</extensions>
</trkpt>
<trkpt lat="30.766057968" lon="34.728034973">
<ele>599.718750</ele>
<time>2013-11-21T13:04:29Z</time>
<speed>4.990000</speed>
<extensions>
<speed>5.0</speed>
<temp>0.00</temp>
<bpm>0</bpm>
<rpm>0.00</rpm>
</extensions>
</trkpt>
<trkpt lat="30.766262054" lon="34.728275299">
<ele>599.046875</ele>
<time>2013-11-21T13:04:34Z</time>
<speed>6.360000</speed>
<extensions>
<speed>6.4</speed>
<temp>0.00</temp>
<bpm>0</bpm>
<rpm>0.00</rpm>
</extensions>
</trkpt>
<trkpt lat="30.766489029" lon="34.728530884">
<ele>598.062500</ele>
<time>2013-11-21T13:04:39Z</time>
<speed>7.450000</speed>
<extensions>
<speed>7.4</speed>
<temp>0.00</temp>
<bpm>0</bpm>
<rpm>0.00</rpm>
</extensions>
</trkpt>
<trkpt lat="30.766719818" lon="34.728839874">
<ele>599.046875</ele>
<time>2013-11-21T13:04:44Z</time>
<speed>7.690000</speed>
<extensions>
<speed>7.7</speed>
<temp>0.00</temp>
<bpm>0</bpm>
<rpm>0.00</rpm>
</extensions>
</trkpt>
<trkpt lat="30.766939163" lon="34.729156494">
<ele>599.906250</ele>
<time>2013-11-21T13:04:49Z</time>
<speed>7.210000</speed>
<extensions>
<speed>7.2</speed>
<temp>0.00</temp>
<bpm>0</bpm>
<rpm>0.00</rpm>
</extensions>
</trkpt>
<trkpt lat="30.767110825" lon="34.729480743">
<ele>597.937500</ele>
<time>2013-11-21T13:04:54Z</time>
<speed>6.990000</speed>
<extensions>
<speed>7.0</speed>
<temp>0.00</temp>
<bpm>0</bpm>
<rpm>0.00</rpm>
</extensions>
</trkpt>
<trkpt lat="30.767248154" lon="34.729793549">
<ele>598.875000</ele>
<time>2013-11-21T13:04:59Z</time>
<speed>6.290000</speed>
<extensions>
<speed>6.3</speed>
<temp>0.00</temp>
<bpm>0</bpm>
<rpm>0.00</rpm>
</extensions>
</trkpt>
<trkpt lat="30.767358780" lon="34.730072021">
<ele>601.500000</ele>
<time>2013-11-21T13:05:04Z</time>
<speed>5.240000</speed>
<extensions>
<speed>5.2</speed>
<temp>0.00</temp>
<bpm>0</bpm>
<rpm>0.00</rpm>
</extensions>
</trkpt>
<trkpt lat="30.767429352" lon="34.730300903">
<ele>602.578125</ele>
<time>2013-11-21T13:05:09Z</time>
<speed>4.230000</speed>
<extensions>
<speed>4.2</speed>
<temp>0.00</temp>
<bpm>0</bpm>
<rpm>0.00</rpm>
</extensions>
</trkpt>
<trkpt lat="30.767469406" lon="34.730480194">
<ele>604.218750</ele>
<time>2013-11-21T13:05:14Z</time>
<speed>3.250000</speed>
<extensions>
<speed>3.2</speed>
<temp>0.00</temp>
<bpm>0</bpm>
<rpm>0.00</rpm>
</extensions>
</trkpt>
<trkpt lat="30.767507553" lon="34.730655670">
<ele>604.187500</ele>
<time>2013-11-21T13:05:19Z</time>
<speed>3.810000</speed>
<extensions>
<speed>3.8</speed>
<temp>0.00</temp>
<bpm>0</bpm>
<rpm>0.00</rpm>
</extensions>
</trkpt>
<trkpt lat="30.767555237" lon="34.730846405">
<ele>604.328125</ele>
<time>2013-11-21T13:05:24Z</time>
<speed>3.540000</speed>
<extensions>
<speed>3.5</speed>
<temp>0.00</temp>
<bpm>0</bpm>
<rpm>0.00</rpm>
</extensions>
</trkpt>
<trkpt lat="30.767576218" lon="34.730983734">
<ele>604.718750</ele>
<time>2013-11-21T13:05:29Z</time>
<speed>2.060000</speed>
<extensions>
<speed>2.1</speed>
<temp>0.00</temp>
<bpm>0</bpm>
<rpm>0.00</rpm>
</extensions>
</trkpt>
<trkpt lat="30.767601013" lon="34.731124878">
<ele>605.421875</ele>
<time>2013-11-21T13:05:34Z</time>
<speed>2.770000</speed>
<extensions>
<speed>2.8</speed>
<temp>0.00</temp>
<bpm>0</bpm>
<rpm>0.00</rpm>
</extensions>
</trkpt>
<trkpt lat="30.767612457" lon="34.731246948">
<ele>606.093750</ele>
<time>2013-11-21T13:05:39Z</time>
<speed>2.550000</speed>
<extensions>
<speed>2.6</speed>
<temp>0.00</temp>
<bpm>0</bpm>
<rpm>0.00</rpm>
</extensions>
</trkpt>
<trkpt lat="30.767648697" lon="34.731395721">
<ele>606.640625</ele>
<time>2013-11-21T13:05:44Z</time>
<speed>2.990000</speed>
<extensions>
<speed>3.0</speed>
<temp>0.00</temp>
<bpm>0</bpm>
<rpm>0.00</rpm>
</extensions>
</trkpt>
<trkpt lat="30.767662048" lon="34.731494904">
<ele>607.265625</ele>
<time>2013-11-21T13:05:49Z</time>
<speed>1.280000</speed>
<extensions>
<speed>1.3</speed>
<temp>0.00</temp>
<bpm>0</bpm>
<rpm>0.00</rpm>
</extensions>
</trkpt>
<trkpt lat="30.767683029" lon="34.731601715">
<ele>607.875000</ele>
<time>2013-11-21T13:05:54Z</time>
<speed>2.460000</speed>
<extensions>
<speed>2.5</speed>
<temp>0.00</temp>
<bpm>0</bpm>
<rpm>0.00</rpm>
</extensions>
</trkpt>
<trkpt lat="30.767694473" lon="34.731739044">
<ele>608.359375</ele>
<time>2013-11-21T13:05:59Z</time>
<speed>2.330000</speed>
<extensions>
<speed>2.3</speed>
<temp>0.00</temp>
<bpm>0</bpm>
<rpm>0.00</rpm>
</extensions>
</trkpt>
<trkpt lat="30.767686844" lon="34.731842041">
<ele>608.703125</ele>
<time>2013-11-21T13:06:04Z</time>
<speed>0.360000</speed>
<extensions>
<speed>0.4</speed>
<temp>0.00</temp>
<bpm>0</bpm>
<rpm>0.00</rpm>
</extensions>
</trkpt>
<trkpt lat="30.767667770" lon="34.731964111">
<ele>609.531250</ele>
<time>2013-11-21T13:06:09Z</time>
<speed>2.520000</speed>
<extensions>
<speed>2.5</speed>
<temp>0.00</temp>
<bpm>0</bpm>
<rpm>0.00</rpm>
</extensions>
</trkpt>
<trkpt lat="30.767648697" lon="34.732086182">
<ele>610.546875</ele>
<time>2013-11-21T13:06:14Z</time>
<speed>2.040000</speed>
<extensions>
<speed>2.0</speed>
<temp>0.00</temp>
<bpm>0</bpm>
<rpm>0.00</rpm>
</extensions>
</trkpt>
<trkpt lat="30.767621994" lon="34.732181549">
<ele>612.390625</ele>
<time>2013-11-21T13:06:19Z</time>
<speed>2.840000</speed>
<extensions>
<speed>2.8</speed>
<temp>0.00</temp>
<bpm>0</bpm>
<rpm>0.00</rpm>
</extensions>
</trkpt>
<trkpt lat="30.767627716" lon="34.732269287">
<ele>612.828125</ele>
<time>2013-11-21T13:06:24Z</time>
<speed>2.210000</speed>
<extensions>
<speed>2.2</speed>
<temp>0.00</temp>
<bpm>0</bpm>
<rpm>0.00</rpm>
</extensions>
</trkpt>
<trkpt lat="30.767618179" lon="34.732330322">
<ele>612.718750</ele>
<time>2013-11-21T13:06:29Z</time>
<speed>1.840000</speed>
<extensions>
<speed>1.8</speed>
<temp>0.00</temp>
<bpm>0</bpm>
<rpm>0.00</rpm>
</extensions>
</trkpt>
<trkpt lat="30.767593384" lon="34.732402802">
<ele>613.859375</ele>
<time>2013-11-21T13:06:34Z</time>
<speed>1.330000</speed>
<extensions>
<speed>1.3</speed>
<temp>0.00</temp>
<bpm>0</bpm>
<rpm>0.00</rpm>
</extensions>
</trkpt>
<trkpt lat="30.767578125" lon="34.732498169">
<ele>615.671875</ele>
<time>2013-11-21T13:06:39Z</time>
<speed>1.600000</speed>
<extensions>
<speed>1.6</speed>
<temp>0.00</temp>
<bpm>0</bpm>
<rpm>0.00</rpm>
</extensions>
</trkpt>
<trkpt lat="30.767532349" lon="34.732624054">
<ele>618.203125</ele>
<time>2013-11-21T13:06:44Z</time>
<speed>1.990000</speed>
<extensions>
<speed>2.0</speed>
<temp>0.00</temp>
<bpm>0</bpm>
<rpm>0.00</rpm>
</extensions>
</trkpt>
<trkpt lat="30.767543793" lon="34.732711792">
<ele>619.078125</ele>
<time>2013-11-21T13:06:49Z</time>
<speed>2.300000</speed>
<extensions>
<speed>2.3</speed>
<temp>0.00</temp>
<bpm>0</bpm>
<rpm>0.00</rpm>
</extensions>
</trkpt>
<trkpt lat="30.767541885" lon="34.732810974">
<ele>619.625000</ele>
<time>2013-11-21T13:06:54Z</time>
<speed>2.440000</speed>
<extensions>
<speed>2.4</speed>
<temp>0.00</temp>
<bpm>0</bpm>
<rpm>0.00</rpm>
</extensions>
</trkpt>
<trkpt lat="30.767528534" lon="34.732929230">
<ele>620.703125</ele>
<time>2013-11-21T13:06:59Z</time>
<speed>2.830000</speed>
<extensions>
<speed>2.8</speed>
<temp>0.00</temp>
<bpm>0</bpm>
<rpm>0.00</rpm>
</extensions>
</trkpt>
<trkpt lat="30.767496109" lon="34.733043671">
<ele>621.062500</ele>
<time>2013-11-21T13:07:04Z</time>
<speed>2.530000</speed>
<extensions>
<speed>2.5</speed>
<temp>0.00</temp>
<bpm>0</bpm>
<rpm>0.00</rpm>
</extensions>
</trkpt>
<trkpt lat="30.767473221" lon="34.733184814">
<ele>623.609375</ele>
<time>2013-11-21T13:07:09Z</time>
<speed>2.560000</speed>
<extensions>
<speed>2.6</speed>
<temp>0.00</temp>
<bpm>0</bpm>
<rpm>0.00</rpm>
</extensions>
</trkpt>
<trkpt lat="30.767452240" lon="34.733325958">
<ele>624.109375</ele>
<time>2013-11-21T13:07:14Z</time>
<speed>3.030000</speed>
<extensions>
<speed>3.0</speed>
<temp>0.00</temp>
<bpm>0</bpm>
<rpm>0.00</rpm>
</extensions>
</trkpt>
<trkpt lat="30.767421722" lon="34.733428955">
<ele>624.453125</ele>
<time>2013-11-21T13:07:19Z</time>
<speed>1.090000</speed>
<extensions>
<speed>1.1</speed>
<temp>0.00</temp>
<bpm>0</bpm>
<rpm>0.00</rpm>
</extensions>
</trkpt>
<trkpt lat="30.767406464" lon="34.733509064">
<ele>625.718750</ele>
<time>2013-11-21T13:07:24Z</time>
<speed>2.290000</speed>
<extensions>
<speed>2.3</speed>
<temp>0.00</temp>
<bpm>0</bpm>
<rpm>0.00</rpm>
</extensions>
</trkpt>
<trkpt lat="30.767360687" lon="34.733623505">
<ele>629.328125</ele>
<time>2013-11-21T13:07:29Z</time>
<speed>2.690000</speed>
<extensions>
<speed>2.7</speed>
<temp>0.00</temp>
<bpm>0</bpm>
<rpm>0.00</rpm>
</extensions>
</trkpt>
<trkpt lat="30.767320633" lon="34.733730316">
<ele>629.796875</ele>
<time>2013-11-21T13:07:34Z</time>
<speed>1.350000</speed>
<extensions>
<speed>1.4</speed>
<temp>0.00</temp>
<bpm>0</bpm>
<rpm>0.00</rpm>
</extensions>
</trkpt>
<trkpt lat="30.767288208" lon="34.733795166">
<ele>631.078125</ele>
<time>2013-11-21T13:07:39Z</time>
<speed>1.290000</speed>
<extensions>
<speed>1.3</speed>
<temp>0.00</temp>
<bpm>0</bpm>
<rpm>0.00</rpm>
</extensions>
</trkpt>
<trkpt lat="30.767248154" lon="34.733867645">
<ele>632.546875</ele>
<time>2013-11-21T13:07:44Z</time>
<speed>2.010000</speed>
<extensions>
<speed>2.0</speed>
<temp>0.00</temp>
<bpm>0</bpm>
<rpm>0.00</rpm>
</extensions>
</trkpt>
<trkpt lat="30.767196655" lon="34.733943939">
<ele>632.640625</ele>
<time>2013-11-21T13:07:49Z</time>
<speed>1.920000</speed>
<extensions>
<speed>1.9</speed>
<temp>0.00</temp>
<bpm>0</bpm>
<rpm>0.00</rpm>
</extensions>
</trkpt>
<trkpt lat="30.767158508" lon="34.734039307">
<ele>633.546875</ele>
<time>2013-11-21T13:07:54Z</time>
<speed>2.250000</speed>
<extensions>
<speed>2.3</speed>
<temp>0.00</temp>
<bpm>0</bpm>
<rpm>0.00</rpm>
</extensions>
</trkpt>
<trkpt lat="30.767114639" lon="34.734149933">
<ele>633.750000</ele>
<time>2013-11-21T13:07:59Z</time>
<speed>2.720000</speed>
<extensions>
<speed>2.7</speed>
<temp>0.00</temp>
<bpm>0</bpm>
<rpm>0.00</rpm>
</extensions>
</trkpt>
<trkpt lat="30.767042160" lon="34.734275818">
<ele>634.609375</ele>
<time>2013-11-21T13:08:04Z</time>
<speed>2.980000</speed>
<extensions>
<speed>3.0</speed>
<temp>0.00</temp>
<bpm>0</bpm>
<rpm>0.00</rpm>
</extensions>
</trkpt>
<trkpt lat="30.766992569" lon="34.734401703">
<ele>634.187500</ele>
<time>2013-11-21T13:08:09Z</time>
<speed>1.290000</speed>
<extensions>
<speed>1.3</speed>
<temp>0.00</temp>
<bpm>0</bpm>
<rpm>0.00</rpm>
</extensions>
</trkpt>
<trkpt lat="30.766967773" lon="34.734462738">
<ele>637.718750</ele>
<time>2013-11-21T13:08:14Z</time>
<speed>1.500000</speed>
<extensions>
<speed>1.5</speed>
<temp>0.00</temp>
<bpm>0</bpm>
<rpm>0.00</rpm>
</extensions>
</trkpt>
<trkpt lat="30.766887665" lon="34.734565735">
<ele>639.109375</ele>
<time>2013-11-21T13:08:19Z</time>
<speed>2.850000</speed>
<extensions>
<speed>2.9</speed>
<temp>0.00</temp>
<bpm>0</bpm>
<rpm>0.00</rpm>
</extensions>
</trkpt>
<trkpt lat="30.766815186" lon="34.734710693">
<ele>640.625000</ele>
<time>2013-11-21T13:08:24Z</time>
<speed>3.150000</speed>
<extensions>
<speed>3.2</speed>
<temp>0.00</temp>
<bpm>0</bpm>
<rpm>0.00</rpm>
</extensions>
</trkpt>
<trkpt lat="30.766754150" lon="34.734821320">
<ele>641.906250</ele>
<time>2013-11-21T13:08:29Z</time>
<speed>1.140000</speed>
<extensions>
<speed>1.1</speed>
<temp>0.00</temp>
<bpm>0</bpm>
<rpm>0.00</rpm>
</extensions>
</trkpt>
<trkpt lat="30.766740799" lon="34.734886169">
<ele>644.750000</ele>
<time>2013-11-21T13:08:34Z</time>
<speed>1.860000</speed>
<extensions>
<speed>1.9</speed>
<temp>0.00</temp>
<bpm>0</bpm>
<rpm>0.00</rpm>
</extensions>
</trkpt>
<trkpt lat="30.766695023" lon="34.734977722">
<ele>645.828125</ele>
<time>2013-11-21T13:08:39Z</time>
<speed>2.430000</speed>
<extensions>
<speed>2.4</speed>
<temp>0.00</temp>
<bpm>0</bpm>
<rpm>0.00</rpm>
</extensions>
</trkpt>
<trkpt lat="30.766616821" lon="34.735080719">
<ele>646.500000</ele>
<time>2013-11-21T13:08:44Z</time>
<speed>2.630000</speed>
<extensions>
<speed>2.6</speed>
<temp>0.00</temp>
<bpm>0</bpm>
<rpm>0.00</rpm>
</extensions>
</trkpt>
<trkpt lat="30.766544342" lon="34.735210419">
<ele>646.906250</ele>
<time>2013-11-21T13:08:49Z</time>
<speed>3.250000</speed>
<extensions>
<speed>3.2</speed>
<temp>0.00</temp>
<bpm>0</bpm>
<rpm>0.00</rpm>
</extensions>
</trkpt>
<trkpt lat="30.766481400" lon="34.735305786">
<ele>647.203125</ele>
<time>2013-11-21T13:08:54Z</time>
<speed>2.420000</speed>
<extensions>
<speed>2.4</speed>
<temp>0.00</temp>
<bpm>0</bpm>
<rpm>0.00</rpm>
</extensions>
</trkpt>
<trkpt lat="30.766420364" lon="34.735427856">
<ele>649.531250</ele>
<time>2013-11-21T13:08:59Z</time>
<speed>3.120000</speed>
<extensions>
<speed>3.1</speed>
<temp>0.00</temp>
<bpm>0</bpm>
<rpm>0.00</rpm>
</extensions>
</trkpt>
<trkpt lat="30.766355515" lon="34.735534668">
<ele>650.984375</ele>
<time>2013-11-21T13:09:04Z</time>
<speed>2.930000</speed>
<extensions>
<speed>2.9</speed>
<temp>0.00</temp>
<bpm>0</bpm>
<rpm>0.00</rpm>
</extensions>
</trkpt>
<trkpt lat="30.766281128" lon="34.735652924">
<ele>651.078125</ele>
<time>2013-11-21T13:09:09Z</time>
<speed>2.410000</speed>
<extensions>
<speed>2.4</speed>
<temp>0.00</temp>
<bpm>0</bpm>
<rpm>0.00</rpm>
</extensions>
</trkpt>
<trkpt lat="30.766222000" lon="34.735771179">
<ele>650.984375</ele>
<time>2013-11-21T13:09:14Z</time>
<speed>3.390000</speed>
<extensions>
<speed>3.4</speed>
<temp>0.00</temp>
<bpm>0</bpm>
<rpm>0.00</rpm>
</extensions>
</trkpt>
<trkpt lat="30.766153336" lon="34.735866547">
<ele>651.140625</ele>
<time>2013-11-21T13:09:19Z</time>
<speed>2.590000</speed>
<extensions>
<speed>2.6</speed>
<temp>0.00</temp>
<bpm>0</bpm>
<rpm>0.00</rpm>
</extensions>
</trkpt>
<trkpt lat="30.766063690" lon="34.735980988">
<ele>651.734375</ele>
<time>2013-11-21T13:09:24Z</time>
<speed>1.900000</speed>
<extensions>
<speed>1.9</speed>
<temp>0.00</temp>
<bpm>0</bpm>
<rpm>0.00</rpm>
</extensions>
</trkpt>
<trkpt lat="30.766008377" lon="34.736083984">
<ele>652.515625</ele>
<time>2013-11-21T13:09:29Z</time>
<speed>2.670000</speed>
<extensions>
<speed>2.7</speed>
<temp>0.00</temp>
<bpm>0</bpm>
<rpm>0.00</rpm>
</extensions>
</trkpt>
<trkpt lat="30.765943527" lon="34.736190796">
<ele>653.359375</ele>
<time>2013-11-21T13:09:34Z</time>
<speed>1.260000</speed>
<extensions>
<speed>1.3</speed>
<temp>0.00</temp>
<bpm>0</bpm>
<rpm>0.00</rpm>
</extensions>
</trkpt>
<trkpt lat="30.765888214" lon="34.736263275">
<ele>654.046875</ele>
<time>2013-11-21T13:09:39Z</time>
<speed>3.140000</speed>
<extensions>
<speed>3.1</speed>
<temp>0.00</temp>
<bpm>0</bpm>
<rpm>0.00</rpm>
</extensions>
</trkpt>
<trkpt lat="30.765800476" lon="34.736377716">
<ele>655.296875</ele>
<time>2013-11-21T13:09:44Z</time>
<speed>2.080000</speed>
<extensions>
<speed>2.1</speed>
<temp>0.00</temp>
<bpm>0</bpm>
<rpm>0.00</rpm>
</extensions>
</trkpt>
<trkpt lat="30.765741348" lon="34.736473083">
<ele>656.250000</ele>
<time>2013-11-21T13:09:49Z</time>
<speed>2.200000</speed>
<extensions>
<speed>2.2</speed>
<temp>0.00</temp>
<bpm>0</bpm>
<rpm>0.00</rpm>
</extensions>
</trkpt>
<trkpt lat="30.765672684" lon="34.736618042">
<ele>657.296875</ele>
<time>2013-11-21T13:09:54Z</time>
<speed>3.540000</speed>
<extensions>
<speed>3.5</speed>
<temp>0.00</temp>
<bpm>0</bpm>
<rpm>0.00</rpm>
</extensions>
</trkpt>
<trkpt lat="30.765607834" lon="34.736774445">
<ele>659.750000</ele>
<time>2013-11-21T13:09:59Z</time>
<speed>3.380000</speed>
<extensions>
<speed>3.4</speed>
<temp>0.00</temp>
<bpm>0</bpm>
<rpm>0.00</rpm>
</extensions>
</trkpt>
<trkpt lat="30.765548706" lon="34.736900330">
<ele>662.406250</ele>
<time>2013-11-21T13:10:04Z</time>
<speed>2.500000</speed>
<extensions>
<speed>2.5</speed>
<temp>0.00</temp>
<bpm>0</bpm>
<rpm>0.00</rpm>
</extensions>
</trkpt>
<trkpt lat="30.765485764" lon="34.737010956">
<ele>664.515625</ele>
<time>2013-11-21T13:10:09Z</time>
<speed>3.160000</speed>
<extensions>
<speed>3.2</speed>
<temp>0.00</temp>
<bpm>0</bpm>
<rpm>0.00</rpm>
</extensions>
</trkpt>
<trkpt lat="30.765371323" lon="34.737140656">
<ele>665.062500</ele>
<time>2013-11-21T13:10:14Z</time>
<speed>2.760000</speed>
<extensions>
<speed>2.8</speed>
<temp>0.00</temp>
<bpm>0</bpm>
<rpm>0.00</rpm>
</extensions>
</trkpt>
<trkpt lat="30.765281677" lon="34.737274170">
<ele>665.812500</ele>
<time>2013-11-21T13:10:19Z</time>
<speed>3.190000</speed>
<extensions>
<speed>3.2</speed>
<temp>0.00</temp>
<bpm>0</bpm>
<rpm>0.00</rpm>
</extensions>
</trkpt>
<trkpt lat="30.765207291" lon="34.737384796">
<ele>666.390625</ele>
<time>2013-11-21T13:10:24Z</time>
<speed>2.910000</speed>
<extensions>
<speed>2.9</speed>
<temp>0.00</temp>
<bpm>0</bpm>
<rpm>0.00</rpm>
</extensions>
</trkpt>
<trkpt lat="30.765123367" lon="34.737533569">
<ele>667.281250</ele>
<time>2013-11-21T13:10:29Z</time>
<speed>3.720000</speed>
<extensions>
<speed>3.7</speed>
<temp>0.00</temp>
<bpm>0</bpm>
<rpm>0.00</rpm>
</extensions>
</trkpt>
<trkpt lat="30.765050888" lon="34.737674713">
<ele>667.843750</ele>
<time>2013-11-21T13:10:34Z</time>
<speed>2.160000</speed>
<extensions>
<speed>2.2</speed>
<temp>0.00</temp>
<bpm>0</bpm>
<rpm>0.00</rpm>
</extensions>
</trkpt>
<trkpt lat="30.764957428" lon="34.737789154">
<ele>667.875000</ele>
<time>2013-11-21T13:10:39Z</time>
<speed>3.090000</speed>
<extensions>
<speed>3.1</speed>
<temp>0.00</temp>
<bpm>0</bpm>
<rpm>0.00</rpm>
</extensions>
</trkpt>
<trkpt lat="30.764879227" lon="34.737945557">
<ele>664.812500</ele>
<time>2013-11-21T13:10:44Z</time>
<speed>3.660000</speed>
<extensions>
<speed>3.7</speed>
<temp>0.00</temp>
<bpm>0</bpm>
<rpm>0.00</rpm>
</extensions>
</trkpt>
<trkpt lat="30.764808655" lon="34.738124847">
<ele>659.843750</ele>
<time>2013-11-21T13:10:49Z</time>
<speed>2.850000</speed>
<extensions>
<speed>2.9</speed>
<temp>0.00</temp>
<bpm>0</bpm>
<rpm>0.00</rpm>
</extensions>
</trkpt>
<trkpt lat="30.764762878" lon="34.738311768">
<ele>657.562500</ele>
<time>2013-11-21T13:10:54Z</time>
<speed>3.730000</speed>
<extensions>
<speed>3.7</speed>
<temp>0.00</temp>
<bpm>0</bpm>
<rpm>0.00</rpm>
</extensions>
</trkpt>
<trkpt lat="30.764682770" lon="34.738475800">
<ele>656.156250</ele>
<time>2013-11-21T13:10:59Z</time>
<speed>3.660000</speed>
<extensions>
<speed>3.7</speed>
<temp>0.00</temp>
<bpm>0</bpm>
<rpm>0.00</rpm>
</extensions>
</trkpt>
<trkpt lat="30.764583588" lon="34.738658905">
<ele>654.968750</ele>
<time>2013-11-21T13:11:04Z</time>
<speed>3.910000</speed>
<extensions>
<speed>3.9</speed>
<temp>0.00</temp>
<bpm>0</bpm>
<rpm>0.00</rpm>
</extensions>
</trkpt>
<trkpt lat="30.764505386" lon="34.738830566">
<ele>652.843750</ele>
<time>2013-11-21T13:11:09Z</time>
<speed>4.090000</speed>
<extensions>
<speed>4.1</speed>
<temp>0.00</temp>
<bpm>0</bpm>
<rpm>0.00</rpm>
</extensions>
</trkpt>
<trkpt lat="30.764432907" lon="34.738986969">
<ele>656.031250</ele>
<time>2013-11-21T13:11:14Z</time>
<speed>3.690000</speed>
<extensions>
<speed>3.7</speed>
<temp>0.00</temp>
<bpm>0</bpm>
<rpm>0.00</rpm>
</extensions>
</trkpt>
<trkpt lat="30.764364243" lon="34.739154816">
<ele>655.953125</ele>
<time>2013-11-21T13:11:19Z</time>
<speed>2.800000</speed>
<extensions>
<speed>2.8</speed>
<temp>0.00</temp>
<bpm>0</bpm>
<rpm>0.00</rpm>
</extensions>
</trkpt>
<trkpt lat="30.764284134" lon="34.739284515">
<ele>658.468750</ele>
<time>2013-11-21T13:11:24Z</time>
<speed>3.550000</speed>
<extensions>
<speed>3.5</speed>
<temp>0.00</temp>
<bpm>0</bpm>
<rpm>0.00</rpm>
</extensions>
</trkpt>
<trkpt lat="30.764196396" lon="34.739437103">
<ele>659.375000</ele>
<time>2013-11-21T13:11:29Z</time>
<speed>3.040000</speed>
<extensions>
<speed>3.0</speed>
<temp>0.00</temp>
<bpm>0</bpm>
<rpm>0.00</rpm>
</extensions>
</trkpt>
<trkpt lat="30.764123917" lon="34.739616394">
<ele>658.859375</ele>
<time>2013-11-21T13:11:34Z</time>
<speed>4.040000</speed>
<extensions>
<speed>4.0</speed>
<temp>0.00</temp>
<bpm>0</bpm>
<rpm>0.00</rpm>
</extensions>
</trkpt>
<trkpt lat="30.764020920" lon="34.739807129">
<ele>658.406250</ele>
<time>2013-11-21T13:11:39Z</time>
<speed>3.550000</speed>
<extensions>
<speed>3.5</speed>
<temp>0.00</temp>
<bpm>0</bpm>
<rpm>0.00</rpm>
</extensions>
</trkpt>
<trkpt lat="30.763936996" lon="34.739982605">
<ele>657.531250</ele>
<time>2013-11-21T13:11:44Z</time>
<speed>4.000000</speed>
<extensions>
<speed>4.0</speed>
<temp>0.00</temp>
<bpm>0</bpm>
<rpm>0.00</rpm>
</extensions>
</trkpt>
<trkpt lat="30.763839722" lon="34.740192413">
<ele>656.828125</ele>
<time>2013-11-21T13:11:49Z</time>
<speed>4.430000</speed>
<extensions>
<speed>4.4</speed>
<temp>0.00</temp>
<bpm>0</bpm>
<rpm>0.00</rpm>
</extensions>
</trkpt>
<trkpt lat="30.763723373" lon="34.740432739">
<ele>657.453125</ele>
<time>2013-11-21T13:11:54Z</time>
<speed>4.820000</speed>
<extensions>
<speed>4.8</speed>
<temp>0.00</temp>
<bpm>0</bpm>
<rpm>0.00</rpm>
</extensions>
</trkpt>
<trkpt lat="30.763622284" lon="34.740676880">
<ele>658.921875</ele>
<time>2013-11-21T13:11:59Z</time>
<speed>4.750000</speed>
<extensions>
<speed>4.8</speed>
<temp>0.00</temp>
<bpm>0</bpm>
<rpm>0.00</rpm>
</extensions>
</trkpt>
<trkpt lat="30.763523102" lon="34.740921021">
<ele>658.421875</ele>
<time>2013-11-21T13:12:04Z</time>
<speed>5.320000</speed>
<extensions>
<speed>5.3</speed>
<temp>0.00</temp>
<bpm>0</bpm>
<rpm>0.00</rpm>
</extensions>
</trkpt>
<trkpt lat="30.763416290" lon="34.741161346">
<ele>662.234375</ele>
<time>2013-11-21T13:12:09Z</time>
<speed>4.240000</speed>
<extensions>
<speed>4.2</speed>
<temp>0.00</temp>
<bpm>0</bpm>
<rpm>0.00</rpm>
</extensions>
</trkpt>
<trkpt lat="30.763307571" lon="34.741394043">
<ele>664.875000</ele>
<time>2013-11-21T13:12:14Z</time>
<speed>5.350000</speed>
<extensions>
<speed>5.4</speed>
<temp>0.00</temp>
<bpm>0</bpm>
<rpm>0.00</rpm>
</extensions>
</trkpt>
<trkpt lat="30.763206482" lon="34.741638184">
<ele>664.671875</ele>
<time>2013-11-21T13:12:19Z</time>
<speed>5.570000</speed>
<extensions>
<speed>5.6</speed>
<temp>0.00</temp>
<bpm>0</bpm>
<rpm>0.00</rpm>
</extensions>
</trkpt>
<trkpt lat="30.763092041" lon="34.741897583">
<ele>665.562500</ele>
<time>2013-11-21T13:12:24Z</time>
<speed>4.920000</speed>
<extensions>
<speed>4.9</speed>
<temp>0.00</temp>
<bpm>0</bpm>
<rpm>0.00</rpm>
</extensions>
</trkpt>
<trkpt lat="30.763002396" lon="34.742137909">
<ele>665.093750</ele>
<time>2013-11-21T13:12:29Z</time>
<speed>5.480000</speed>
<extensions>
<speed>5.5</speed>
<temp>0.00</temp>
<bpm>0</bpm>
<rpm>0.00</rpm>
</extensions>
</trkpt>
<trkpt lat="30.762876511" lon="34.742431641">
<ele>667.093750</ele>
<time>2013-11-21T13:12:34Z</time>
<speed>6.190000</speed>
<extensions>
<speed>6.2</speed>
<temp>0.00</temp>
<bpm>0</bpm>
<rpm>0.00</rpm>
</extensions>
</trkpt>
<trkpt lat="30.762765884" lon="34.742702484">
<ele>666.968750</ele>
<time>2013-11-21T13:12:39Z</time>
<speed>5.570000</speed>
<extensions>
<speed>5.6</speed>
<temp>0.00</temp>
<bpm>0</bpm>
<rpm>0.00</rpm>
</extensions>
</trkpt>
<trkpt lat="30.762649536" lon="34.742954254">
<ele>670.328125</ele>
<time>2013-11-21T13:12:44Z</time>
<speed>5.450000</speed>
<extensions>
<speed>5.5</speed>
<temp>0.00</temp>
<bpm>0</bpm>
<rpm>0.00</rpm>
</extensions>
</trkpt>
<trkpt lat="30.762561798" lon="34.743171692">
<ele>671.671875</ele>
<time>2013-11-21T13:12:49Z</time>
<speed>5.010000</speed>
<extensions>
<speed>5.0</speed>
<temp>0.00</temp>
<bpm>0</bpm>
<rpm>0.00</rpm>
</extensions>
</trkpt>
<trkpt lat="30.762466431" lon="34.743389130">
<ele>673.000000</ele>
<time>2013-11-21T13:12:54Z</time>
<speed>5.240000</speed>
<extensions>
<speed>5.2</speed>
<temp>0.00</temp>
<bpm>0</bpm>
<rpm>0.00</rpm>
</extensions>
</trkpt>
<trkpt lat="30.762351990" lon="34.743633270">
<ele>673.843750</ele>
<time>2013-11-21T13:12:59Z</time>
<speed>5.390000</speed>
<extensions>
<speed>5.4</speed>
<temp>0.00</temp>
<bpm>0</bpm>
<rpm>0.00</rpm>
</extensions>
</trkpt>
<trkpt lat="30.762248993" lon="34.743877411">
<ele>675.343750</ele>
<time>2013-11-21T13:13:04Z</time>
<speed>5.150000</speed>
<extensions>
<speed>5.2</speed>
<temp>0.00</temp>
<bpm>0</bpm>
<rpm>0.00</rpm>
</extensions>
</trkpt>
<trkpt lat="30.762149811" lon="34.744094849">
<ele>676.359375</ele>
<time>2013-11-21T13:13:09Z</time>
<speed>4.550000</speed>
<extensions>
<speed>4.5</speed>
<temp>0.00</temp>
<bpm>0</bpm>
<rpm>0.00</rpm>
</extensions>
</trkpt>
<trkpt lat="30.762084961" lon="34.744289398">
<ele>674.562500</ele>
<time>2013-11-21T13:13:14Z</time>
<speed>3.690000</speed>
<extensions>
<speed>3.7</speed>
<temp>0.00</temp>
<bpm>0</bpm>
<rpm>0.00</rpm>
</extensions>
</trkpt>
<trkpt lat="30.762023926" lon="34.744438171">
<ele>674.156250</ele>
<time>2013-11-21T13:13:19Z</time>
<speed>2.990000</speed>
<extensions>
<speed>3.0</speed>
<temp>0.00</temp>
<bpm>0</bpm>
<rpm>0.00</rpm>
</extensions>
</trkpt>
<trkpt lat="30.761966705" lon="34.744586945">
<ele>673.437500</ele>
<time>2013-11-21T13:13:24Z</time>
<speed>3.690000</speed>
<extensions>
<speed>3.7</speed>
<temp>0.00</temp>
<bpm>0</bpm>
<rpm>0.00</rpm>
</extensions>
</trkpt>
<trkpt lat="30.761896133" lon="34.744781494">
<ele>672.234375</ele>
<time>2013-11-21T13:13:29Z</time>
<speed>4.340000</speed>
<extensions>
<speed>4.3</speed>
<temp>0.00</temp>
<bpm>0</bpm>
<rpm>0.00</rpm>
</extensions>
</trkpt>
<trkpt lat="30.761798859" lon="34.744979858">
<ele>669.968750</ele>
<time>2013-11-21T13:13:34Z</time>
<speed>4.560000</speed>
<extensions>
<speed>4.6</speed>
<temp>0.00</temp>
<bpm>0</bpm>
<rpm>0.00</rpm>
</extensions>
</trkpt>
<trkpt lat="30.761703491" lon="34.745208740">
<ele>668.828125</ele>
<time>2013-11-21T13:13:39Z</time>
<speed>5.150000</speed>
<extensions>
<speed>5.2</speed>
<temp>0.00</temp>
<bpm>0</bpm>
<rpm>0.00</rpm>
</extensions>
</trkpt>
<trkpt lat="30.761590958" lon="34.745429993">
<ele>671.593750</ele>
<time>2013-11-21T13:13:44Z</time>
<speed>4.570000</speed>
<extensions>
<speed>4.6</speed>
<temp>0.00</temp>
<bpm>0</bpm>
<rpm>0.00</rpm>
</extensions>
</trkpt>
<trkpt lat="30.761493683" lon="34.745651245">
<ele>671.859375</ele>
<time>2013-11-21T13:13:49Z</time>
<speed>4.990000</speed>
<extensions>
<speed>5.0</speed>
<temp>0.00</temp>
<bpm>0</bpm>
<rpm>0.00</rpm>
</extensions>
</trkpt>
<trkpt lat="30.761400223" lon="34.745883942">
<ele>672.890625</ele>
<time>2013-11-21T13:13:54Z</time>
<speed>4.640000</speed>
<extensions>
<speed>4.6</speed>
<temp>0.00</temp>
<bpm>0</bpm>
<rpm>0.00</rpm>
</extensions>
</trkpt>
<trkpt lat="30.761308670" lon="34.746097565">
<ele>673.421875</ele>
<time>2013-11-21T13:13:59Z</time>
<speed>4.950000</speed>
<extensions>
<speed>4.9</speed>
<temp>0.00</temp>
<bpm>0</bpm>
<rpm>0.00</rpm>
</extensions>
</trkpt>
<trkpt lat="30.761219025" lon="34.746330261">
<ele>673.453125</ele>
<time>2013-11-21T13:14:04Z</time>
<speed>5.050000</speed>
<extensions>
<speed>5.1</speed>
<temp>0.00</temp>
<bpm>0</bpm>
<rpm>0.00</rpm>
</extensions>
</trkpt>
<trkpt lat="30.761112213" lon="34.746528625">
<ele>671.578125</ele>
<time>2013-11-21T13:14:09Z</time>
<speed>3.990000</speed>
<extensions>
<speed>4.0</speed>
<temp>0.00</temp>
<bpm>0</bpm>
<rpm>0.00</rpm>
</extensions>
</trkpt>
<trkpt lat="30.761030197" lon="34.746742249">
<ele>671.500000</ele>
<time>2013-11-21T13:14:14Z</time>
<speed>4.690000</speed>
<extensions>
<speed>4.7</speed>
<temp>0.00</temp>
<bpm>0</bpm>
<rpm>0.00</rpm>
</extensions>
</trkpt>
<trkpt lat="30.760925293" lon="34.746990204">
<ele>673.484375</ele>
<time>2013-11-21T13:14:19Z</time>
<speed>5.180000</speed>
<extensions>
<speed>5.2</speed>
<temp>0.00</temp>
<bpm>0</bpm>
<rpm>0.00</rpm>
</extensions>
</trkpt>
<trkpt lat="30.760828018" lon="34.747203827">
<ele>676.562500</ele>
<time>2013-11-21T13:14:24Z</time>
<speed>4.570000</speed>
<extensions>
<speed>4.6</speed>
<temp>0.00</temp>
<bpm>0</bpm>
<rpm>0.00</rpm>
</extensions>
</trkpt>
<trkpt lat="30.760717392" lon="34.747436523">
<ele>678.234375</ele>
<time>2013-11-21T13:14:29Z</time>
<speed>5.200000</speed>
<extensions>
<speed>5.2</speed>
<temp>0.00</temp>
<bpm>0</bpm>
<rpm>0.00</rpm>
</extensions>
</trkpt>
<trkpt lat="30.760593414" lon="34.747669220">
<ele>681.703125</ele>
<time>2013-11-21T13:14:34Z</time>
<speed>4.860000</speed>
<extensions>
<speed>4.9</speed>
<temp>0.00</temp>
<bpm>0</bpm>
<rpm>0.00</rpm>
</extensions>
</trkpt>
<trkpt lat="30.760473251" lon="34.747901917">
<ele>685.203125</ele>
<time>2013-11-21T13:14:39Z</time>
<speed>5.460000</speed>
<extensions>
<speed>5.5</speed>
<temp>0.00</temp>
<bpm>0</bpm>
<rpm>0.00</rpm>
</extensions>
</trkpt>
<trkpt lat="30.760324478" lon="34.748138428">
<ele>684.515625</ele>
<time>2013-11-21T13:14:44Z</time>
<speed>5.700000</speed>
<extensions>
<speed>5.7</speed>
<temp>0.00</temp>
<bpm>0</bpm>
<rpm>0.00</rpm>
</extensions>
</trkpt>
<trkpt lat="30.760179520" lon="34.748329163">
<ele>681.218750</ele>
<time>2013-11-21T13:14:49Z</time>
<speed>4.680000</speed>
<extensions>
<speed>4.7</speed>
<temp>0.00</temp>
<bpm>0</bpm>
<rpm>0.00</rpm>
</extensions>
</trkpt>
<trkpt lat="30.760044098" lon="34.748504639">
<ele>680.812500</ele>
<time>2013-11-21T13:14:54Z</time>
<speed>4.900000</speed>
<extensions>
<speed>4.9</speed>
<temp>0.00</temp>
<bpm>0</bpm>
<rpm>0.00</rpm>
</extensions>
</trkpt>
<trkpt lat="30.759914398" lon="34.748687744">
<ele>679.062500</ele>
<time>2013-11-21T13:14:59Z</time>
<speed>4.910000</speed>
<extensions>
<speed>4.9</speed>
<temp>0.00</temp>
<bpm>0</bpm>
<rpm>0.00</rpm>
</extensions>
</trkpt>
<trkpt lat="30.759788513" lon="34.748817444">
<ele>673.531250</ele>
<time>2013-11-21T13:15:04Z</time>
<speed>5.010000</speed>
<extensions>
<speed>5.0</speed>
<temp>0.00</temp>
<bpm>0</bpm>
<rpm>0.00</rpm>
</extensions>
</trkpt>
<trkpt lat="30.759651184" lon="34.748966217">
<ele>668.484375</ele>
<time>2013-11-21T13:15:09Z</time>
<speed>5.040000</speed>
<extensions>
<speed>5.0</speed>
<temp>0.00</temp>
<bpm>0</bpm>
<rpm>0.00</rpm>
</extensions>
</trkpt>
<trkpt lat="30.759490967" lon="34.749141693">
<ele>664.828125</ele>
<time>2013-11-21T13:15:14Z</time>
<speed>4.930000</speed>
<extensions>
<speed>4.9</speed>
<temp>0.00</temp>
<bpm>0</bpm>
<rpm>0.00</rpm>
</extensions>
</trkpt>
<trkpt lat="30.759372711" lon="34.749263763">
<ele>659.593750</ele>
<time>2013-11-21T13:15:19Z</time>
<speed>4.010000</speed>
<extensions>
<speed>4.0</speed>
<temp>0.00</temp>
<bpm>0</bpm>
<rpm>0.00</rpm>
</extensions>
</trkpt>
<trkpt lat="30.759216309" lon="34.749427795">
<ele>657.328125</ele>
<time>2013-11-21T13:15:24Z</time>
<speed>4.560000</speed>
<extensions>
<speed>4.6</speed>
<temp>0.00</temp>
<bpm>0</bpm>
<rpm>0.00</rpm>
</extensions>
</trkpt>
<trkpt lat="30.759046555" lon="34.749618530">
<ele>654.671875</ele>
<time>2013-11-21T13:15:29Z</time>
<speed>5.130000</speed>
<extensions>
<speed>5.1</speed>
<temp>0.00</temp>
<bpm>0</bpm>
<rpm>0.00</rpm>
</extensions>
</trkpt>
<trkpt lat="30.758865356" lon="34.749763489">
<ele>652.515625</ele>
<time>2013-11-21T13:15:34Z</time>
<speed>4.510000</speed>
<extensions>
<speed>4.5</speed>
<temp>0.00</temp>
<bpm>0</bpm>
<rpm>0.00</rpm>
</extensions>
</trkpt>
<trkpt lat="30.758705139" lon="34.749885559">
<ele>649.437500</ele>
<time>2013-11-21T13:15:39Z</time>
<speed>4.180000</speed>
<extensions>
<speed>4.2</speed>
<temp>0.00</temp>
<bpm>0</bpm>
<rpm>0.00</rpm>
</extensions>
</trkpt>
<trkpt lat="30.758514404" lon="34.750038147">
<ele>647.859375</ele>
<time>2013-11-21T13:15:44Z</time>
<speed>5.060000</speed>
<extensions>
<speed>5.1</speed>
<temp>0.00</temp>
<bpm>0</bpm>
<rpm>0.00</rpm>
</extensions>
</trkpt>
<trkpt lat="30.758316040" lon="34.750171661">
<ele>645.140625</ele>
<time>2013-11-21T13:15:49Z</time>
<speed>5.460000</speed>
<extensions>
<speed>5.5</speed>
<temp>0.00</temp>
<bpm>0</bpm>
<rpm>0.00</rpm>
</extensions>
</trkpt>
<trkpt lat="30.758092880" lon="34.750316620">
<ele>642.828125</ele>
<time>2013-11-21T13:15:54Z</time>
<speed>5.600000</speed>
<extensions>
<speed>5.6</speed>
<temp>0.00</temp>
<bpm>0</bpm>
<rpm>0.00</rpm>
</extensions>
</trkpt>
<trkpt lat="30.757890701" lon="34.750450134">
<ele>642.234375</ele>
<time>2013-11-21T13:15:59Z</time>
<speed>4.810000</speed>
<extensions>
<speed>4.8</speed>
<temp>0.00</temp>
<bpm>0</bpm>
<rpm>0.00</rpm>
</extensions>
</trkpt>
<trkpt lat="30.757724762" lon="34.750545502">
<ele>643.593750</ele>
<time>2013-11-21T13:16:04Z</time>
<speed>3.970000</speed>
<extensions>
<speed>4.0</speed>
<temp>0.00</temp>
<bpm>0</bpm>
<rpm>0.00</rpm>
</extensions>
</trkpt>
<trkpt lat="30.757555008" lon="34.750667572">
<ele>643.343750</ele>
<time>2013-11-21T13:16:09Z</time>
<speed>4.730000</speed>
<extensions>
<speed>4.7</speed>
<temp>0.00</temp>
<bpm>0</bpm>
<rpm>0.00</rpm>
</extensions>
</trkpt>
<trkpt lat="30.757341385" lon="34.750816345">
<ele>646.593750</ele>
<time>2013-11-21T13:16:14Z</time>
<speed>5.530000</speed>
<extensions>
<speed>5.5</speed>
<temp>0.00</temp>
<bpm>0</bpm>
<rpm>0.00</rpm>
</extensions>
</trkpt>
<trkpt lat="30.757106781" lon="34.750949860">
<ele>648.609375</ele>
<time>2013-11-21T13:16:19Z</time>
<speed>6.020000</speed>
<extensions>
<speed>6.0</speed>
<temp>0.00</temp>
<bpm>0</bpm>
<rpm>0.00</rpm>
</extensions>
</trkpt>
<trkpt lat="30.756879807" lon="34.751117706">
<ele>650.921875</ele>
<time>2013-11-21T13:16:24Z</time>
<speed>5.950000</speed>
<extensions>
<speed>6.0</speed>
<temp>0.00</temp>
<bpm>0</bpm>
<rpm>0.00</rpm>
</extensions>
</trkpt>
<trkpt lat="30.756679535" lon="34.751258850">
<ele>648.984375</ele>
<time>2013-11-21T13:16:29Z</time>
<speed>5.180000</speed>
<extensions>
<speed>5.2</speed>
<temp>0.00</temp>
<bpm>0</bpm>
<rpm>0.00</rpm>
</extensions>
</trkpt>
<trkpt lat="30.756479263" lon="34.751384735">
<ele>647.203125</ele>
<time>2013-11-21T13:16:34Z</time>
<speed>5.590000</speed>
<extensions>
<speed>5.6</speed>
<temp>0.00</temp>
<bpm>0</bpm>
<rpm>0.00</rpm>
</extensions>
</trkpt>
<trkpt lat="30.756261826" lon="34.751522064">
<ele>644.843750</ele>
<time>2013-11-21T13:16:39Z</time>
<speed>5.530000</speed>
<extensions>
<speed>5.5</speed>
<temp>0.00</temp>
<bpm>0</bpm>
<rpm>0.00</rpm>
</extensions>
</trkpt>
<trkpt lat="30.756050110" lon="34.751655579">
<ele>644.125000</ele>
<time>2013-11-21T13:16:44Z</time>
<speed>4.970000</speed>
<extensions>
<speed>5.0</speed>
<temp>0.00</temp>
<bpm>0</bpm>
<rpm>0.00</rpm>
</extensions>
</trkpt>
<trkpt lat="30.755834579" lon="34.751804352">
<ele>645.578125</ele>
<time>2013-11-21T13:16:49Z</time>
<speed>5.860000</speed>
<extensions>
<speed>5.9</speed>
<temp>0.00</temp>
<bpm>0</bpm>
<rpm>0.00</rpm>
</extensions>
</trkpt>
<trkpt lat="30.755617142" lon="34.751949310">
<ele>643.750000</ele>
<time>2013-11-21T13:16:54Z</time>
<speed>5.250000</speed>
<extensions>
<speed>5.2</speed>
<temp>0.00</temp>
<bpm>0</bpm>
<rpm>0.00</rpm>
</extensions>
</trkpt>
<trkpt lat="30.755434036" lon="34.752056122">
<ele>644.015625</ele>
<time>2013-11-21T13:16:59Z</time>
<speed>4.010000</speed>
<extensions>
<speed>4.0</speed>
<temp>0.00</temp>
<bpm>0</bpm>
<rpm>0.00</rpm>
</extensions>
</trkpt>
<trkpt lat="30.755218506" lon="34.752189636">
<ele>647.937500</ele>
<time>2013-11-21T13:17:04Z</time>
<speed>4.800000</speed>
<extensions>
<speed>4.8</speed>
<temp>0.00</temp>
<bpm>0</bpm>
<rpm>0.00</rpm>
</extensions>
</trkpt>
<trkpt lat="30.755001068" lon="34.752315521">
<ele>650.312500</ele>
<time>2013-11-21T13:17:09Z</time>
<speed>5.540000</speed>
<extensions>
<speed>5.5</speed>
<temp>0.00</temp>
<bpm>0</bpm>
<rpm>0.00</rpm>
</extensions>
</trkpt>
<trkpt lat="30.754756927" lon="34.752483368">
<ele>654.984375</ele>
<time>2013-11-21T13:17:14Z</time>
<speed>5.760000</speed>
<extensions>
<speed>5.8</speed>
<temp>0.00</temp>
<bpm>0</bpm>
<rpm>0.00</rpm>
</extensions>
</trkpt>
<trkpt lat="30.754526138" lon="34.752624512">
<ele>657.140625</ele>
<time>2013-11-21T13:17:19Z</time>
<speed>4.740000</speed>
<extensions>
<speed>4.7</speed>
<temp>0.00</temp>
<bpm>0</bpm>
<rpm>0.00</rpm>
</extensions>
</trkpt>
<trkpt lat="30.754320145" lon="34.752769470">
<ele>660.906250</ele>
<time>2013-11-21T13:17:24Z</time>
<speed>5.290000</speed>
<extensions>
<speed>5.3</speed>
<temp>0.00</temp>
<bpm>0</bpm>
<rpm>0.00</rpm>
</extensions>
</trkpt>
<trkpt lat="30.754125595" lon="34.752899170">
<ele>663.500000</ele>
<time>2013-11-21T13:17:29Z</time>
<speed>4.200000</speed>
<extensions>
<speed>4.2</speed>
<temp>0.00</temp>
<bpm>0</bpm>
<rpm>0.00</rpm>
</extensions>
</trkpt>
<trkpt lat="30.753976822" lon="34.752983093">
<ele>664.671875</ele>
<time>2013-11-21T13:17:34Z</time>
<speed>3.930000</speed>
<extensions>
<speed>3.9</speed>
<temp>0.00</temp>
<bpm>0</bpm>
<rpm>0.00</rpm>
</extensions>
</trkpt>
<trkpt lat="30.753810883" lon="34.753097534">
<ele>665.140625</ele>
<time>2013-11-21T13:17:39Z</time>
<speed>5.050000</speed>
<extensions>
<speed>5.1</speed>
<temp>0.00</temp>
<bpm>0</bpm>
<rpm>0.00</rpm>
</extensions>
</trkpt>
<trkpt lat="30.753623962" lon="34.753231049">
<ele>664.343750</ele>
<time>2013-11-21T13:17:44Z</time>
<speed>4.280000</speed>
<extensions>
<speed>4.3</speed>
<temp>0.00</temp>
<bpm>0</bpm>
<rpm>0.00</rpm>
</extensions>
</trkpt>
<trkpt lat="30.753416061" lon="34.753349304">
<ele>666.437500</ele>
<time>2013-11-21T13:17:49Z</time>
<speed>5.320000</speed>
<extensions>
<speed>5.3</speed>
<temp>0.00</temp>
<bpm>0</bpm>
<rpm>0.00</rpm>
</extensions>
</trkpt>
<trkpt lat="30.753223419" lon="34.753467560">
<ele>669.750000</ele>
<time>2013-11-21T13:17:54Z</time>
<speed>4.440000</speed>
<extensions>
<speed>4.4</speed>
<temp>0.00</temp>
<bpm>0</bpm>
<rpm>0.00</rpm>
</extensions>
</trkpt>
<trkpt lat="30.753046036" lon="34.753623962">
<ele>669.984375</ele>
<time>2013-11-21T13:17:59Z</time>
<speed>5.260000</speed>
<extensions>
<speed>5.3</speed>
<temp>0.00</temp>
<bpm>0</bpm>
<rpm>0.00</rpm>
</extensions>
</trkpt>
<trkpt lat="30.752832413" lon="34.753803253">
<ele>669.203125</ele>
<time>2013-11-21T13:18:04Z</time>
<speed>5.210000</speed>
<extensions>
<speed>5.2</speed>
<temp>0.00</temp>
<bpm>0</bpm>
<rpm>0.00</rpm>
</extensions>
</trkpt>
<trkpt lat="30.752672195" lon="34.753967285">
<ele>668.625000</ele>
<time>2013-11-21T13:18:09Z</time>
<speed>5.060000</speed>
<extensions>
<speed>5.1</speed>
<temp>0.00</temp>
<bpm>0</bpm>
<rpm>0.00</rpm>
</extensions>
</trkpt>
<trkpt lat="30.752492905" lon="34.754154205">
<ele>668.171875</ele>
<time>2013-11-21T13:18:14Z</time>
<speed>5.640000</speed>
<extensions>
<speed>5.6</speed>
<temp>0.00</temp>
<bpm>0</bpm>
<rpm>0.00</rpm>
</extensions>
</trkpt>
<trkpt lat="30.752325058" lon="34.754318237">
<ele>670.765625</ele>
<time>2013-11-21T13:18:19Z</time>
<speed>5.200000</speed>
<extensions>
<speed>5.2</speed>
<temp>0.00</temp>
<bpm>0</bpm>
<rpm>0.00</rpm>
</extensions>
</trkpt>
<trkpt lat="30.752157211" lon="34.754512787">
<ele>671.265625</ele>
<time>2013-11-21T13:18:24Z</time>
<speed>5.640000</speed>
<extensions>
<speed>5.6</speed>
<temp>0.00</temp>
<bpm>0</bpm>
<rpm>0.00</rpm>
</extensions>
</trkpt>
<trkpt lat="30.752017975" lon="34.754684448">
<ele>673.593750</ele>
<time>2013-11-21T13:18:29Z</time>
<speed>4.240000</speed>
<extensions>
<speed>4.2</speed>
<temp>0.00</temp>
<bpm>0</bpm>
<rpm>0.00</rpm>
</extensions>
</trkpt>
<trkpt lat="30.751876831" lon="34.754867554">
<ele>675.718750</ele>
<time>2013-11-21T13:18:34Z</time>
<speed>4.780000</speed>
<extensions>
<speed>4.8</speed>
<temp>0.00</temp>
<bpm>0</bpm>
<rpm>0.00</rpm>
</extensions>
</trkpt>
<trkpt lat="30.751754761" lon="34.755062103">
<ele>672.125000</ele>
<time>2013-11-21T13:18:39Z</time>
<speed>4.390000</speed>
<extensions>
<speed>4.4</speed>
<temp>0.00</temp>
<bpm>0</bpm>
<rpm>0.00</rpm>
</extensions>
</trkpt>
<trkpt lat="30.751646042" lon="34.755214691">
<ele>668.328125</ele>
<time>2013-11-21T13:18:44Z</time>
<speed>3.400000</speed>
<extensions>
<speed>3.4</speed>
<temp>0.00</temp>
<bpm>0</bpm>
<rpm>0.00</rpm>
</extensions>
</trkpt>
<trkpt lat="30.751537323" lon="34.755382538">
<ele>667.921875</ele>
<time>2013-11-21T13:18:49Z</time>
<speed>4.310000</speed>
<extensions>
<speed>4.3</speed>
<temp>0.00</temp>
<bpm>0</bpm>
<rpm>0.00</rpm>
</extensions>
</trkpt>
<trkpt lat="30.751417160" lon="34.755569458">
<ele>666.750000</ele>
<time>2013-11-21T13:18:54Z</time>
<speed>4.440000</speed>
<extensions>
<speed>4.4</speed>
<temp>0.00</temp>
<bpm>0</bpm>
<rpm>0.00</rpm>
</extensions>
</trkpt>
<trkpt lat="30.751287460" lon="34.755775452">
<ele>666.109375</ele>
<time>2013-11-21T13:18:59Z</time>
<speed>5.130000</speed>
<extensions>
<speed>5.1</speed>
<temp>0.00</temp>
<bpm>0</bpm>
<rpm>0.00</rpm>
</extensions>
</trkpt>
<trkpt lat="30.751131058" lon="34.755985260">
<ele>666.468750</ele>
<time>2013-11-21T13:19:04Z</time>
<speed>5.740000</speed>
<extensions>
<speed>5.7</speed>
<temp>0.00</temp>
<bpm>0</bpm>
<rpm>0.00</rpm>
</extensions>
</trkpt>
<trkpt lat="30.750974655" lon="34.756229401">
<ele>668.796875</ele>
<time>2013-11-21T13:19:09Z</time>
<speed>4.910000</speed>
<extensions>
<speed>4.9</speed>
<temp>0.00</temp>
<bpm>0</bpm>
<rpm>0.00</rpm>
</extensions>
</trkpt>
<trkpt lat="30.750848770" lon="34.756443024">
<ele>671.015625</ele>
<time>2013-11-21T13:19:14Z</time>
<speed>5.560000</speed>
<extensions>
<speed>5.6</speed>
<temp>0.00</temp>
<bpm>0</bpm>
<rpm>0.00</rpm>
</extensions>
</trkpt>
<trkpt lat="30.750684738" lon="34.756694794">
<ele>672.109375</ele>
<time>2013-11-21T13:19:19Z</time>
<speed>6.120000</speed>
<extensions>
<speed>6.1</speed>
<temp>0.00</temp>
<bpm>0</bpm>
<rpm>0.00</rpm>
</extensions>
</trkpt>
<trkpt lat="30.750524521" lon="34.756923676">
<ele>672.437500</ele>
<time>2013-11-21T13:19:24Z</time>
<speed>4.990000</speed>
<extensions>
<speed>5.0</speed>
<temp>0.00</temp>
<bpm>0</bpm>
<rpm>0.00</rpm>
</extensions>
</trkpt>
<trkpt lat="30.750432968" lon="34.757102966">
<ele>676.750000</ele>
<time>2013-11-21T13:19:29Z</time>
<speed>4.750000</speed>
<extensions>
<speed>4.8</speed>
<temp>0.00</temp>
<bpm>0</bpm>
<rpm>0.00</rpm>
</extensions>
</trkpt>
<trkpt lat="30.750320435" lon="34.757293701">
<ele>679.781250</ele>
<time>2013-11-21T13:19:34Z</time>
<speed>4.770000</speed>
<extensions>
<speed>4.8</speed>
<temp>0.00</temp>
<bpm>0</bpm>
<rpm>0.00</rpm>
</extensions>
</trkpt>
<trkpt lat="30.750207901" lon="34.757480621">
<ele>681.625000</ele>
<time>2013-11-21T13:19:39Z</time>
<speed>4.580000</speed>
<extensions>
<speed>4.6</speed>
<temp>0.00</temp>
<bpm>0</bpm>
<rpm>0.00</rpm>
</extensions>
</trkpt>
<trkpt lat="30.750099182" lon="34.757671356">
<ele>686.453125</ele>
<time>2013-11-21T13:19:44Z</time>
<speed>4.380000</speed>
<extensions>
<speed>4.4</speed>
<temp>0.00</temp>
<bpm>0</bpm>
<rpm>0.00</rpm>
</extensions>
</trkpt>
<trkpt lat="30.749961853" lon="34.757858276">
<ele>687.281250</ele>
<time>2013-11-21T13:19:49Z</time>
<speed>4.750000</speed>
<extensions>
<speed>4.8</speed>
<temp>0.00</temp>
<bpm>0</bpm>
<rpm>0.00</rpm>
</extensions>
</trkpt>
<trkpt lat="30.749835968" lon="34.758056641">
<ele>689.218750</ele>
<time>2013-11-21T13:19:54Z</time>
<speed>4.440000</speed>
<extensions>
<speed>4.4</speed>
<temp>0.00</temp>
<bpm>0</bpm>
<rpm>0.00</rpm>
</extensions>
</trkpt>
<trkpt lat="30.749723434" lon="34.758243561">
<ele>689.921875</ele>
<time>2013-11-21T13:19:59Z</time>
<speed>4.620000</speed>
<extensions>
<speed>4.6</speed>
<temp>0.00</temp>
<bpm>0</bpm>
<rpm>0.00</rpm>
</extensions>
</trkpt>
<trkpt lat="30.749597549" lon="34.758430481">
<ele>691.203125</ele>
<time>2013-11-21T13:20:04Z</time>
<speed>4.170000</speed>
<extensions>
<speed>4.2</speed>
<temp>0.00</temp>
<bpm>0</bpm>
<rpm>0.00</rpm>
</extensions>
</trkpt>
<trkpt lat="30.749460220" lon="34.758636475">
<ele>690.406250</ele>
<time>2013-11-21T13:20:09Z</time>
<speed>4.530000</speed>
<extensions>
<speed>4.5</speed>
<temp>0.00</temp>
<bpm>0</bpm>
<rpm>0.00</rpm>
</extensions>
</trkpt>
<trkpt lat="30.749343872" lon="34.758800507">
<ele>687.343750</ele>
<time>2013-11-21T13:20:14Z</time>
<speed>4.310000</speed>
<extensions>
<speed>4.3</speed>
<temp>0.00</temp>
<bpm>0</bpm>
<rpm>0.00</rpm>
</extensions>
</trkpt>
<trkpt lat="30.749252319" lon="34.758968353">
<ele>689.968750</ele>
<time>2013-11-21T13:20:19Z</time>
<speed>4.640000</speed>
<extensions>
<speed>4.6</speed>
<temp>0.00</temp>
<bpm>0</bpm>
<rpm>0.00</rpm>
</extensions>
</trkpt>
<trkpt lat="30.749132156" lon="34.759166718">
<ele>690.937500</ele>
<time>2013-11-21T13:20:24Z</time>
<speed>4.690000</speed>
<extensions>
<speed>4.7</speed>
<temp>0.00</temp>
<bpm>0</bpm>
<rpm>0.00</rpm>
</extensions>
</trkpt>
<trkpt lat="30.749011993" lon="34.759361267">
<ele>693.125000</ele>
<time>2013-11-21T13:20:29Z</time>
<speed>4.770000</speed>
<extensions>
<speed>4.8</speed>
<temp>0.00</temp>
<bpm>0</bpm>
<rpm>0.00</rpm>
</extensions>
</trkpt>
<trkpt lat="30.748886108" lon="34.759559631">
<ele>692.250000</ele>
<time>2013-11-21T13:20:34Z</time>
<speed>4.740000</speed>
<extensions>
<speed>4.7</speed>
<temp>0.00</temp>
<bpm>0</bpm>
<rpm>0.00</rpm>
</extensions>
</trkpt>
<trkpt lat="30.748765945" lon="34.759757996">
<ele>691.843750</ele>
<time>2013-11-21T13:20:39Z</time>
<speed>4.810000</speed>
<extensions>
<speed>4.8</speed>
<temp>0.00</temp>
<bpm>0</bpm>
<rpm>0.00</rpm>
</extensions>
</trkpt>
<trkpt lat="30.748628616" lon="34.759963989">
<ele>691.078125</ele>
<time>2013-11-21T13:20:44Z</time>
<speed>4.810000</speed>
<extensions>
<speed>4.8</speed>
<temp>0.00</temp>
<bpm>0</bpm>
<rpm>0.00</rpm>
</extensions>
</trkpt>
<trkpt lat="30.748498917" lon="34.760177612">
<ele>692.265625</ele>
<time>2013-11-21T13:20:49Z</time>
<speed>4.760000</speed>
<extensions>
<speed>4.8</speed>
<temp>0.00</temp>
<bpm>0</bpm>
<rpm>0.00</rpm>
</extensions>
</trkpt>
<trkpt lat="30.748395920" lon="34.760364532">
<ele>692.906250</ele>
<time>2013-11-21T13:20:54Z</time>
<speed>4.760000</speed>
<extensions>
<speed>4.8</speed>
<temp>0.00</temp>
<bpm>0</bpm>
<rpm>0.00</rpm>
</extensions>
</trkpt>
<trkpt lat="30.748270035" lon="34.760551453">
<ele>691.375000</ele>
<time>2013-11-21T13:20:59Z</time>
<speed>4.630000</speed>
<extensions>
<speed>4.6</speed>
<temp>0.00</temp>
<bpm>0</bpm>
<rpm>0.00</rpm>
</extensions>
</trkpt>
<trkpt lat="30.748149872" lon="34.760749817">
<ele>691.062500</ele>
<time>2013-11-21T13:21:04Z</time>
<speed>4.510000</speed>
<extensions>
<speed>4.5</speed>
<temp>0.00</temp>
<bpm>0</bpm>
<rpm>0.00</rpm>
</extensions>
</trkpt>
<trkpt lat="30.748025894" lon="34.760936737">
<ele>691.953125</ele>
<time>2013-11-21T13:21:09Z</time>
<speed>4.460000</speed>
<extensions>
<speed>4.5</speed>
<temp>0.00</temp>
<bpm>0</bpm>
<rpm>0.00</rpm>
</extensions>
</trkpt>
<trkpt lat="30.747896194" lon="34.761127472">
<ele>693.093750</ele>
<time>2013-11-21T13:21:14Z</time>
<speed>4.670000</speed>
<extensions>
<speed>4.7</speed>
<temp>0.00</temp>
<bpm>0</bpm>
<rpm>0.00</rpm>
</extensions>
</trkpt>
<trkpt lat="30.747776031" lon="34.761322021">
<ele>696.359375</ele>
<time>2013-11-21T13:21:19Z</time>
<speed>4.610000</speed>
<extensions>
<speed>4.6</speed>
<temp>0.00</temp>
<bpm>0</bpm>
<rpm>0.00</rpm>
</extensions>
</trkpt>
<trkpt lat="30.747650146" lon="34.761508942">
<ele>698.734375</ele>
<time>2013-11-21T13:21:24Z</time>
<speed>4.450000</speed>
<extensions>
<speed>4.5</speed>
<temp>0.00</temp>
<bpm>0</bpm>
<rpm>0.00</rpm>
</extensions>
</trkpt>
<trkpt lat="30.747524261" lon="34.761684418">
<ele>700.375000</ele>
<time>2013-11-21T13:21:29Z</time>
<speed>4.350000</speed>
<extensions>
<speed>4.3</speed>
<temp>0.00</temp>
<bpm>0</bpm>
<rpm>0.00</rpm>
</extensions>
</trkpt>
<trkpt lat="30.747369766" lon="34.761867523">
<ele>701.937500</ele>
<time>2013-11-21T13:21:34Z</time>
<speed>4.500000</speed>
<extensions>
<speed>4.5</speed>
<temp>0.00</temp>
<bpm>0</bpm>
<rpm>0.00</rpm>
</extensions>
</trkpt>
<trkpt lat="30.747207642" lon="34.762054443">
<ele>705.828125</ele>
<time>2013-11-21T13:21:39Z</time>
<speed>4.510000</speed>
<extensions>
<speed>4.5</speed>
<temp>0.00</temp>
<bpm>0</bpm>
<rpm>0.00</rpm>
</extensions>
</trkpt>
<trkpt lat="30.747053146" lon="34.762210846">
<ele>706.015625</ele>
<time>2013-11-21T13:21:44Z</time>
<speed>4.860000</speed>
<extensions>
<speed>4.9</speed>
<temp>0.00</temp>
<bpm>0</bpm>
<rpm>0.00</rpm>
</extensions>
</trkpt>
<trkpt lat="30.746870041" lon="34.762401581">
<ele>708.968750</ele>
<time>2013-11-21T13:21:49Z</time>
<speed>5.220000</speed>
<extensions>
<speed>5.2</speed>
<temp>0.00</temp>
<bpm>0</bpm>
<rpm>0.00</rpm>
</extensions>
</trkpt>
<trkpt lat="30.746692657" lon="34.762565613">
<ele>706.375000</ele>
<time>2013-11-21T13:21:54Z</time>
<speed>5.300000</speed>
<extensions>
<speed>5.3</speed>
<temp>0.00</temp>
<bpm>0</bpm>
<rpm>0.00</rpm>
</extensions>
</trkpt>
<trkpt lat="30.746511459" lon="34.762722015">
<ele>703.281250</ele>
<time>2013-11-21T13:21:59Z</time>
<speed>5.190000</speed>
<extensions>
<speed>5.2</speed>
<temp>0.00</temp>
<bpm>0</bpm>
<rpm>0.00</rpm>
</extensions>
</trkpt>
<trkpt lat="30.746324539" lon="34.762870789">
<ele>703.218750</ele>
<time>2013-11-21T13:22:04Z</time>
<speed>5.310000</speed>
<extensions>
<speed>5.3</speed>
<temp>0.00</temp>
<bpm>0</bpm>
<rpm>0.00</rpm>
</extensions>
</trkpt>
<trkpt lat="30.746133804" lon="34.762992859">
<ele>701.687500</ele>
<time>2013-11-21T13:22:09Z</time>
<speed>5.090000</speed>
<extensions>
<speed>5.1</speed>
<temp>0.00</temp>
<bpm>0</bpm>
<rpm>0.00</rpm>
</extensions>
</trkpt>
<trkpt lat="30.745925903" lon="34.763118744">
<ele>701.296875</ele>
<time>2013-11-21T13:22:14Z</time>
<speed>4.960000</speed>
<extensions>
<speed>5.0</speed>
<temp>0.00</temp>
<bpm>0</bpm>
<rpm>0.00</rpm>
</extensions>
</trkpt>
<trkpt lat="30.745735168" lon="34.763229370">
<ele>701.078125</ele>
<time>2013-11-21T13:22:19Z</time>
<speed>5.110000</speed>
<extensions>
<speed>5.1</speed>
<temp>0.00</temp>
<bpm>0</bpm>
<rpm>0.00</rpm>
</extensions>
</trkpt>
<trkpt lat="30.745531082" lon="34.763359070">
<ele>699.937500</ele>
<time>2013-11-21T13:22:24Z</time>
<speed>5.130000</speed>
<extensions>
<speed>5.1</speed>
<temp>0.00</temp>
<bpm>0</bpm>
<rpm>0.00</rpm>
</extensions>
</trkpt>
<trkpt lat="30.745304108" lon="34.763484955">
<ele>698.343750</ele>
<time>2013-11-21T13:22:29Z</time>
<speed>6.320000</speed>
<extensions>
<speed>6.3</speed>
<temp>0.00</temp>
<bpm>0</bpm>
<rpm>0.00</rpm>
</extensions>
</trkpt>
<trkpt lat="30.745042801" lon="34.763637543">
<ele>697.312500</ele>
<time>2013-11-21T13:22:34Z</time>
<speed>6.790000</speed>
<extensions>
<speed>6.8</speed>
<temp>0.00</temp>
<bpm>0</bpm>
<rpm>0.00</rpm>
</extensions>
</trkpt>
<trkpt lat="30.744815826" lon="34.763763428">
<ele>695.796875</ele>
<time>2013-11-21T13:22:39Z</time>
<speed>5.380000</speed>
<extensions>
<speed>5.4</speed>
<temp>0.00</temp>
<bpm>0</bpm>
<rpm>0.00</rpm>
</extensions>
</trkpt>
<trkpt lat="30.744598389" lon="34.763889313">
<ele>693.703125</ele>
<time>2013-11-21T13:22:44Z</time>
<speed>5.970000</speed>
<extensions>
<speed>6.0</speed>
<temp>0.00</temp>
<bpm>0</bpm>
<rpm>0.00</rpm>
</extensions>
</trkpt>
<trkpt lat="30.744354248" lon="34.764019012">
<ele>693.250000</ele>
<time>2013-11-21T13:22:49Z</time>
<speed>5.130000</speed>
<extensions>
<speed>5.1</speed>
<temp>0.00</temp>
<bpm>0</bpm>
<rpm>0.00</rpm>
</extensions>
</trkpt>
<trkpt lat="30.744142532" lon="34.764152527">
<ele>692.421875</ele>
<time>2013-11-21T13:22:54Z</time>
<speed>4.580000</speed>
<extensions>
<speed>4.6</speed>
<temp>0.00</temp>
<bpm>0</bpm>
<rpm>0.00</rpm>
</extensions>
</trkpt>
<trkpt lat="30.743944168" lon="34.764274597">
<ele>689.734375</ele>
<time>2013-11-21T13:22:59Z</time>
<speed>5.140000</speed>
<extensions>
<speed>5.1</speed>
<temp>0.00</temp>
<bpm>0</bpm>
<rpm>0.00</rpm>
</extensions>
</trkpt>
<trkpt lat="30.743755341" lon="34.764377594">
<ele>689.593750</ele>
<time>2013-11-21T13:23:04Z</time>
<speed>4.050000</speed>
<extensions>
<speed>4.0</speed>
<temp>0.00</temp>
<bpm>0</bpm>
<rpm>0.00</rpm>
</extensions>
</trkpt>
<trkpt lat="30.743604660" lon="34.764469147">
<ele>688.718750</ele>
<time>2013-11-21T13:23:09Z</time>
<speed>3.670000</speed>
<extensions>
<speed>3.7</speed>
<temp>0.00</temp>
<bpm>0</bpm>
<rpm>0.00</rpm>
</extensions>
</trkpt>
<trkpt lat="30.743417740" lon="34.764587402">
<ele>688.500000</ele>
<time>2013-11-21T13:23:14Z</time>
<speed>4.320000</speed>
<extensions>
<speed>4.3</speed>
<temp>0.00</temp>
<bpm>0</bpm>
<rpm>0.00</rpm>
</extensions>
</trkpt>
<trkpt lat="30.743230820" lon="34.764705658">
<ele>687.984375</ele>
<time>2013-11-21T13:23:19Z</time>
<speed>5.100000</speed>
<extensions>
<speed>5.1</speed>
<temp>0.00</temp>
<bpm>0</bpm>
<rpm>0.00</rpm>
</extensions>
</trkpt>
<trkpt lat="30.743019104" lon="34.764823914">
<ele>687.421875</ele>
<time>2013-11-21T13:23:24Z</time>
<speed>5.100000</speed>
<extensions>
<speed>5.1</speed>
<temp>0.00</temp>
<bpm>0</bpm>
<rpm>0.00</rpm>
</extensions>
</trkpt>
<trkpt lat="30.742811203" lon="34.764942169">
<ele>688.453125</ele>
<time>2013-11-21T13:23:29Z</time>
<speed>5.500000</speed>
<extensions>
<speed>5.5</speed>
<temp>0.00</temp>
<bpm>0</bpm>
<rpm>0.00</rpm>
</extensions>
</trkpt>
<trkpt lat="30.742601395" lon="34.765052795">
<ele>689.578125</ele>
<time>2013-11-21T13:23:34Z</time>
<speed>5.040000</speed>
<extensions>
<speed>5.0</speed>
<temp>0.00</temp>
<bpm>0</bpm>
<rpm>0.00</rpm>
</extensions>
</trkpt>
<trkpt lat="30.742425919" lon="34.765167236">
<ele>690.921875</ele>
<time>2013-11-21T13:23:39Z</time>
<speed>4.100000</speed>
<extensions>
<speed>4.1</speed>
<temp>0.00</temp>
<bpm>0</bpm>
<rpm>0.00</rpm>
</extensions>
</trkpt>
<trkpt lat="30.742244720" lon="34.765277863">
<ele>693.406250</ele>
<time>2013-11-21T13:23:44Z</time>
<speed>4.000000</speed>
<extensions>
<speed>4.0</speed>
<temp>0.00</temp>
<bpm>0</bpm>
<rpm>0.00</rpm>
</extensions>
</trkpt>
<trkpt lat="30.742078781" lon="34.765346527">
<ele>694.796875</ele>
<time>2013-11-21T13:23:49Z</time>
<speed>4.120000</speed>
<extensions>
<speed>4.1</speed>
<temp>0.00</temp>
<bpm>0</bpm>
<rpm>0.00</rpm>
</extensions>
</trkpt>
<trkpt lat="30.741874695" lon="34.765441895">
<ele>698.468750</ele>
<time>2013-11-21T13:23:54Z</time>
<speed>4.990000</speed>
<extensions>
<speed>5.0</speed>
<temp>0.00</temp>
<bpm>0</bpm>
<rpm>0.00</rpm>
</extensions>
</trkpt>
<trkpt lat="30.741659164" lon="34.765571594">
<ele>700.718750</ele>
<time>2013-11-21T13:23:59Z</time>
<speed>5.590000</speed>
<extensions>
<speed>5.6</speed>
<temp>0.00</temp>
<bpm>0</bpm>
<rpm>0.00</rpm>
</extensions>
</trkpt>
<trkpt lat="30.741424561" lon="34.765693665">
<ele>702.328125</ele>
<time>2013-11-21T13:24:04Z</time>
<speed>5.610000</speed>
<extensions>
<speed>5.6</speed>
<temp>0.00</temp>
<bpm>0</bpm>
<rpm>0.00</rpm>
</extensions>
</trkpt>
<trkpt lat="30.741197586" lon="34.765815735">
<ele>706.375000</ele>
<time>2013-11-21T13:24:09Z</time>
<speed>4.850000</speed>
<extensions>
<speed>4.8</speed>
<temp>0.00</temp>
<bpm>0</bpm>
<rpm>0.00</rpm>
</extensions>
</trkpt>
<trkpt lat="30.740980148" lon="34.765933990">
<ele>706.890625</ele>
<time>2013-11-21T13:24:14Z</time>
<speed>4.940000</speed>
<extensions>
<speed>4.9</speed>
<temp>0.00</temp>
<bpm>0</bpm>
<rpm>0.00</rpm>
</extensions>
</trkpt>
<trkpt lat="30.740781784" lon="34.766052246">
<ele>706.828125</ele>
<time>2013-11-21T13:24:19Z</time>
<speed>4.680000</speed>
<extensions>
<speed>4.7</speed>
<temp>0.00</temp>
<bpm>0</bpm>
<rpm>0.00</rpm>
</extensions>
</trkpt>
<trkpt lat="30.740613937" lon="34.766162872">
<ele>705.031250</ele>
<time>2013-11-21T13:24:24Z</time>
<speed>4.450000</speed>
<extensions>
<speed>4.5</speed>
<temp>0.00</temp>
<bpm>0</bpm>
<rpm>0.00</rpm>
</extensions>
</trkpt>
<trkpt lat="30.740430832" lon="34.766269684">
<ele>705.421875</ele>
<time>2013-11-21T13:24:29Z</time>
<speed>4.390000</speed>
<extensions>
<speed>4.4</speed>
<temp>0.00</temp>
<bpm>0</bpm>
<rpm>0.00</rpm>
</extensions>
</trkpt>
<trkpt lat="30.740247726" lon="34.766384125">
<ele>703.156250</ele>
<time>2013-11-21T13:24:34Z</time>
<speed>4.860000</speed>
<extensions>
<speed>4.9</speed>
<temp>0.00</temp>
<bpm>0</bpm>
<rpm>0.00</rpm>
</extensions>
</trkpt>
<trkpt lat="30.740034103" lon="34.766502380">
<ele>700.375000</ele>
<time>2013-11-21T13:24:39Z</time>
<speed>4.080000</speed>
<extensions>
<speed>4.1</speed>
<temp>0.00</temp>
<bpm>0</bpm>
<rpm>0.00</rpm>
</extensions>
</trkpt>
<trkpt lat="30.739891052" lon="34.766578674">
<ele>698.937500</ele>
<time>2013-11-21T13:24:44Z</time>
<speed>3.290000</speed>
<extensions>
<speed>3.3</speed>
<temp>0.00</temp>
<bpm>0</bpm>
<rpm>0.00</rpm>
</extensions>
</trkpt>
<trkpt lat="30.739725113" lon="34.766677856">
<ele>702.109375</ele>
<time>2013-11-21T13:24:49Z</time>
<speed>4.230000</speed>
<extensions>
<speed>4.2</speed>
<temp>0.00</temp>
<bpm>0</bpm>
<rpm>0.00</rpm>
</extensions>
</trkpt>
<trkpt lat="30.739555359" lon="34.766769409">
<ele>703.390625</ele>
<time>2013-11-21T13:24:54Z</time>
<speed>3.790000</speed>
<extensions>
<speed>3.8</speed>
<temp>0.00</temp>
<bpm>0</bpm>
<rpm>0.00</rpm>
</extensions>
</trkpt>
<trkpt lat="30.739439011" lon="34.766838074">
<ele>702.687500</ele>
<time>2013-11-21T13:24:59Z</time>
<speed>3.210000</speed>
<extensions>
<speed>3.2</speed>
<temp>0.00</temp>
<bpm>0</bpm>
<rpm>0.00</rpm>
</extensions>
</trkpt>
<trkpt lat="30.739301682" lon="34.766921997">
<ele>703.078125</ele>
<time>2013-11-21T13:25:04Z</time>
<speed>3.460000</speed>
<extensions>
<speed>3.5</speed>
<temp>0.00</temp>
<bpm>0</bpm>
<rpm>0.00</rpm>
</extensions>
</trkpt>
<trkpt lat="30.739166260" lon="34.766979218">
<ele>705.968750</ele>
<time>2013-11-21T13:25:09Z</time>
<speed>3.750000</speed>
<extensions>
<speed>3.8</speed>
<temp>0.00</temp>
<bpm>0</bpm>
<rpm>0.00</rpm>
</extensions>
</trkpt>
<trkpt lat="30.738994598" lon="34.767055511">
<ele>707.281250</ele>
<time>2013-11-21T13:25:14Z</time>
<speed>4.640000</speed>
<extensions>
<speed>4.6</speed>
<temp>0.00</temp>
<bpm>0</bpm>
<rpm>0.00</rpm>
</extensions>
</trkpt>
<trkpt lat="30.738819122" lon="34.767185211">
<ele>707.468750</ele>
<time>2013-11-21T13:25:19Z</time>
<speed>2.930000</speed>
<extensions>
<speed>2.9</speed>
<temp>0.00</temp>
<bpm>0</bpm>
<rpm>0.00</rpm>
</extensions>
</trkpt>
<trkpt lat="30.738716125" lon="34.767253876">
<ele>705.406250</ele>
<time>2013-11-21T13:25:24Z</time>
<speed>3.610000</speed>
<extensions>
<speed>3.6</speed>
<temp>0.00</temp>
<bpm>0</bpm>
<rpm>0.00</rpm>
</extensions>
</trkpt>
<trkpt lat="30.738565445" lon="34.767349243">
<ele>705.250000</ele>
<time>2013-11-21T13:25:29Z</time>
<speed>4.170000</speed>
<extensions>
<speed>4.2</speed>
<temp>0.00</temp>
<bpm>0</bpm>
<rpm>0.00</rpm>
</extensions>
</trkpt>
<trkpt lat="30.738439560" lon="34.767448425">
<ele>706.546875</ele>
<time>2013-11-21T13:25:34Z</time>
<speed>3.080000</speed>
<extensions>
<speed>3.1</speed>
<temp>0.00</temp>
<bpm>0</bpm>
<rpm>0.00</rpm>
</extensions>
</trkpt>
<trkpt lat="30.738298416" lon="34.767562866">
<ele>705.453125</ele>
<time>2013-11-21T13:25:39Z</time>
<speed>4.360000</speed>
<extensions>
<speed>4.4</speed>
<temp>0.00</temp>
<bpm>0</bpm>
<rpm>0.00</rpm>
</extensions>
</trkpt>
<trkpt lat="30.738159180" lon="34.767711639">
<ele>702.296875</ele>
<time>2013-11-21T13:25:44Z</time>
<speed>3.610000</speed>
<extensions>
<speed>3.6</speed>
<temp>0.00</temp>
<bpm>0</bpm>
<rpm>0.00</rpm>
</extensions>
</trkpt>
<trkpt lat="30.738040924" lon="34.767829895">
<ele>702.921875</ele>
<time>2013-11-21T13:25:49Z</time>
<speed>4.360000</speed>
<extensions>
<speed>4.4</speed>
<temp>0.00</temp>
<bpm>0</bpm>
<rpm>0.00</rpm>
</extensions>
</trkpt>
<trkpt lat="30.737867355" lon="34.768001556">
<ele>702.296875</ele>
<time>2013-11-21T13:25:54Z</time>
<speed>3.960000</speed>
<extensions>
<speed>4.0</speed>
<temp>0.00</temp>
<bpm>0</bpm>
<rpm>0.00</rpm>
</extensions>
</trkpt>
<trkpt lat="30.737747192" lon="34.768199921">
<ele>705.812500</ele>
<time>2013-11-21T13:25:59Z</time>
<speed>4.780000</speed>
<extensions>
<speed>4.8</speed>
<temp>0.00</temp>
<bpm>0</bpm>
<rpm>0.00</rpm>
</extensions>
</trkpt>
<trkpt lat="30.737623215" lon="34.768398285">
<ele>708.015625</ele>
<time>2013-11-21T13:26:04Z</time>
<speed>4.520000</speed>
<extensions>
<speed>4.5</speed>
<temp>0.00</temp>
<bpm>0</bpm>
<rpm>0.00</rpm>
</extensions>
</trkpt>
<trkpt lat="30.737525940" lon="34.768619537">
<ele>709.265625</ele>
<time>2013-11-21T13:26:09Z</time>
<speed>3.670000</speed>
<extensions>
<speed>3.7</speed>
<temp>0.00</temp>
<bpm>0</bpm>
<rpm>0.00</rpm>
</extensions>
</trkpt>
<trkpt lat="30.737468719" lon="34.768821716">
<ele>708.765625</ele>
<time>2013-11-21T13:26:14Z</time>
<speed>4.490000</speed>
<extensions>
<speed>4.5</speed>
<temp>0.00</temp>
<bpm>0</bpm>
<rpm>0.00</rpm>
</extensions>
</trkpt>
<trkpt lat="30.737419128" lon="34.769008636">
<ele>708.750000</ele>
<time>2013-11-21T13:26:19Z</time>
<speed>3.180000</speed>
<extensions>
<speed>3.2</speed>
<temp>0.00</temp>
<bpm>0</bpm>
<rpm>0.00</rpm>
</extensions>
</trkpt>
<trkpt lat="30.737373352" lon="34.769157410">
<ele>709.171875</ele>
<time>2013-11-21T13:26:24Z</time>
<speed>3.320000</speed>
<extensions>
<speed>3.3</speed>
<temp>0.00</temp>
<bpm>0</bpm>
<rpm>0.00</rpm>
</extensions>
</trkpt>
<trkpt lat="30.737306595" lon="34.769329071">
<ele>708.046875</ele>
<time>2013-11-21T13:26:29Z</time>
<speed>3.330000</speed>
<extensions>
<speed>3.3</speed>
<temp>0.00</temp>
<bpm>0</bpm>
<rpm>0.00</rpm>
</extensions>
</trkpt>
<trkpt lat="30.737264633" lon="34.769432068">
<ele>707.046875</ele>
<time>2013-11-21T13:26:34Z</time>
<speed>1.770000</speed>
<extensions>
<speed>1.8</speed>
<temp>0.00</temp>
<bpm>0</bpm>
<rpm>0.00</rpm>
</extensions>
</trkpt>
<trkpt lat="30.737255096" lon="34.769512177">
<ele>711.546875</ele>
<time>2013-11-21T13:26:39Z</time>
<speed>1.510000</speed>
<extensions>
<speed>1.5</speed>
<temp>0.00</temp>
<bpm>0</bpm>
<rpm>0.00</rpm>
</extensions>
</trkpt>
<trkpt lat="30.737241745" lon="34.769493103">
<ele>712.984375</ele>
<time>2013-11-21T13:26:44Z</time>
<speed>0.490000</speed>
<extensions>
<speed>0.5</speed>
<temp>0.00</temp>
<bpm>0</bpm>
<rpm>0.00</rpm>
</extensions>
</trkpt>
<trkpt lat="30.737216949" lon="34.769493103">
<ele>713.593750</ele>
<time>2013-11-21T13:26:49Z</time>
<speed>0.100000</speed>
<extensions>
<speed>0.1</speed>
<temp>0.00</temp>
<bpm>0</bpm>
<rpm>0.00</rpm>
</extensions>
</trkpt>
<trkpt lat="30.737216949" lon="34.769500732">
<ele>713.812500</ele>
<time>2013-11-21T13:26:54Z</time>
<speed>0.160000</speed>
<extensions>
<speed>0.2</speed>
<temp>0.00</temp>
<bpm>0</bpm>
<rpm>0.00</rpm>
</extensions>
</trkpt>
<trkpt lat="30.737216949" lon="34.769504547">
<ele>713.843750</ele>
<time>2013-11-21T13:26:59Z</time>
<speed>0.120000</speed>
<extensions>
<speed>0.1</speed>
<temp>0.00</temp>
<bpm>0</bpm>
<rpm>0.00</rpm>
</extensions>
</trkpt>
<trkpt lat="30.737213135" lon="34.769515991">
<ele>713.828125</ele>
<time>2013-11-21T13:27:04Z</time>
<speed>0.190000</speed>
<extensions>
<speed>0.2</speed>
<temp>0.00</temp>
<bpm>0</bpm>
<rpm>0.00</rpm>
</extensions>
</trkpt>
<trkpt lat="30.737215042" lon="34.769523621">
<ele>713.812500</ele>
<time>2013-11-21T13:27:09Z</time>
<speed>0.140000</speed>
<extensions>
<speed>0.1</speed>
<temp>0.00</temp>
<bpm>0</bpm>
<rpm>0.00</rpm>
</extensions>
</trkpt>
<trkpt lat="30.737216949" lon="34.769531250">
<ele>713.812500</ele>
<time>2013-11-21T13:27:14Z</time>
<speed>0.040000</speed>
<extensions>
<speed>0.0</speed>
<temp>0.00</temp>
<bpm>0</bpm>
<rpm>0.00</rpm>
</extensions>
</trkpt>
<trkpt lat="30.737216949" lon="34.769535065">
<ele>713.765625</ele>
<time>2013-11-21T13:27:19Z</time>
<speed>0.060000</speed>
<extensions>
<speed>0.1</speed>
<temp>0.00</temp>
<bpm>0</bpm>
<rpm>0.00</rpm>
</extensions>
</trkpt>
<trkpt lat="30.737218857" lon="34.769535065">
<ele>713.718750</ele>
<time>2013-11-21T13:27:24Z</time>
<speed>0.070000</speed>
<extensions>
<speed>0.1</speed>
<temp>0.00</temp>
<bpm>0</bpm>
<rpm>0.00</rpm>
</extensions>
</trkpt>
<trkpt lat="30.737215042" lon="34.769535065">
<ele>713.656250</ele>
<time>2013-11-21T13:27:29Z</time>
<speed>0.010000</speed>
<extensions>
<speed>0.0</speed>
<temp>0.00</temp>
<bpm>0</bpm>
<rpm>0.00</rpm>
</extensions>
</trkpt>
<trkpt lat="30.737216949" lon="34.769531250">
<ele>713.656250</ele>
<time>2013-11-21T13:27:34Z</time>
<speed>0.050000</speed>
<extensions>
<speed>0.1</speed>
<temp>0.00</temp>
<bpm>0</bpm>
<rpm>0.00</rpm>
</extensions>
</trkpt>
<trkpt lat="30.737218857" lon="34.769527435">
<ele>713.625000</ele>
<time>2013-11-21T13:27:39Z</time>
<speed>0.120000</speed>
<extensions>
<speed>0.1</speed>
<temp>0.00</temp>
<bpm>0</bpm>
<rpm>0.00</rpm>
</extensions>
</trkpt>
<trkpt lat="30.737216949" lon="34.769519806">
<ele>713.625000</ele>
<time>2013-11-21T13:27:44Z</time>
<speed>0.210000</speed>
<extensions>
<speed>0.2</speed>
<temp>0.00</temp>
<bpm>0</bpm>
<rpm>0.00</rpm>
</extensions>
</trkpt>
<trkpt lat="30.737213135" lon="34.769515991">
<ele>713.640625</ele>
<time>2013-11-21T13:27:49Z</time>
<speed>0.070000</speed>
<extensions>
<speed>0.1</speed>
<temp>0.00</temp>
<bpm>0</bpm>
<rpm>0.00</rpm>
</extensions>
</trkpt>
<trkpt lat="30.737215042" lon="34.769512177">
<ele>713.640625</ele>
<time>2013-11-21T13:27:54Z</time>
<speed>0.040000</speed>
<extensions>
<speed>0.0</speed>
<temp>0.00</temp>
<bpm>0</bpm>
<rpm>0.00</rpm>
</extensions>
</trkpt>
<trkpt lat="30.737216949" lon="34.769508362">
<ele>713.671875</ele>
<time>2013-11-21T13:27:59Z</time>
<speed>0.450000</speed>
<extensions>
<speed>0.5</speed>
<temp>0.00</temp>
<bpm>0</bpm>
<rpm>0.00</rpm>
</extensions>
</trkpt>
<trkpt lat="30.737157822" lon="34.769515991">
<ele>713.421875</ele>
<time>2013-11-21T13:28:04Z</time>
<speed>2.170000</speed>
<extensions>
<speed>2.2</speed>
<temp>0.00</temp>
<bpm>0</bpm>
<rpm>0.00</rpm>
</extensions>
</trkpt>
<trkpt lat="30.737049103" lon="34.769515991">
<ele>712.656250</ele>
<time>2013-11-21T13:28:09Z</time>
<speed>2.070000</speed>
<extensions>
<speed>2.1</speed>
<temp>0.00</temp>
<bpm>0</bpm>
<rpm>0.00</rpm>
</extensions>
</trkpt>
<trkpt lat="30.736959457" lon="34.769523621">
<ele>711.484375</ele>
<time>2013-11-21T13:28:14Z</time>
<speed>3.110000</speed>
<extensions>
<speed>3.1</speed>
<temp>0.00</temp>
<bpm>0</bpm>
<rpm>0.00</rpm>
</extensions>
</trkpt>
<trkpt lat="30.736804962" lon="34.769519806">
<ele>711.203125</ele>
<time>2013-11-21T13:28:19Z</time>
<speed>3.370000</speed>
<extensions>
<speed>3.4</speed>
<temp>0.00</temp>
<bpm>0</bpm>
<rpm>0.00</rpm>
</extensions>
</trkpt>
<trkpt lat="30.736688614" lon="34.769531250">
<ele>712.062500</ele>
<time>2013-11-21T13:28:24Z</time>
<speed>2.580000</speed>
<extensions>
<speed>2.6</speed>
<temp>0.00</temp>
<bpm>0</bpm>
<rpm>0.00</rpm>
</extensions>
</trkpt>
<trkpt lat="30.736541748" lon="34.769535065">
<ele>713.500000</ele>
<time>2013-11-21T13:28:29Z</time>
<speed>3.830000</speed>
<extensions>
<speed>3.8</speed>
<temp>0.00</temp>
<bpm>0</bpm>
<rpm>0.00</rpm>
</extensions>
</trkpt>
<trkpt lat="30.736371994" lon="34.769546509">
<ele>714.765625</ele>
<time>2013-11-21T13:28:34Z</time>
<speed>3.160000</speed>
<extensions>
<speed>3.2</speed>
<temp>0.00</temp>
<bpm>0</bpm>
<rpm>0.00</rpm>
</extensions>
</trkpt>
<trkpt lat="30.736246109" lon="34.769542694">
<ele>715.968750</ele>
<time>2013-11-21T13:28:39Z</time>
<speed>2.620000</speed>
<extensions>
<speed>2.6</speed>
<temp>0.00</temp>
<bpm>0</bpm>
<rpm>0.00</rpm>
</extensions>
</trkpt>
<trkpt lat="30.736116409" lon="34.769542694">
<ele>714.546875</ele>
<time>2013-11-21T13:28:44Z</time>
<speed>2.950000</speed>
<extensions>
<speed>2.9</speed>
<temp>0.00</temp>
<bpm>0</bpm>
<rpm>0.00</rpm>
</extensions>
</trkpt>
<trkpt lat="30.735946655" lon="34.769565582">
<ele>714.671875</ele>
<time>2013-11-21T13:28:49Z</time>
<speed>3.980000</speed>
<extensions>
<speed>4.0</speed>
<temp>0.00</temp>
<bpm>0</bpm>
<rpm>0.00</rpm>
</extensions>
</trkpt>
<trkpt lat="30.735725403" lon="34.769580841">
<ele>716.234375</ele>
<time>2013-11-21T13:28:54Z</time>
<speed>4.820000</speed>
<extensions>
<speed>4.8</speed>
<temp>0.00</temp>
<bpm>0</bpm>
<rpm>0.00</rpm>
</extensions>
</trkpt>
<trkpt lat="30.735511780" lon="34.769603729">
<ele>715.671875</ele>
<time>2013-11-21T13:28:59Z</time>
<speed>4.280000</speed>
<extensions>
<speed>4.3</speed>
<temp>0.00</temp>
<bpm>0</bpm>
<rpm>0.00</rpm>
</extensions>
</trkpt>
<trkpt lat="30.735322952" lon="34.769615173">
<ele>714.234375</ele>
<time>2013-11-21T13:29:04Z</time>
<speed>4.290000</speed>
<extensions>
<speed>4.3</speed>
<temp>0.00</temp>
<bpm>0</bpm>
<rpm>0.00</rpm>
</extensions>
</trkpt>
<trkpt lat="30.735128403" lon="34.769630432">
<ele>713.109375</ele>
<time>2013-11-21T13:29:09Z</time>
<speed>4.520000</speed>
<extensions>
<speed>4.5</speed>
<temp>0.00</temp>
<bpm>0</bpm>
<rpm>0.00</rpm>
</extensions>
</trkpt>
<trkpt lat="30.734918594" lon="34.769626617">
<ele>711.640625</ele>
<time>2013-11-21T13:29:14Z</time>
<speed>4.930000</speed>
<extensions>
<speed>4.9</speed>
<temp>0.00</temp>
<bpm>0</bpm>
<rpm>0.00</rpm>
</extensions>
</trkpt>
<trkpt lat="30.734708786" lon="34.769653320">
<ele>709.906250</ele>
<time>2013-11-21T13:29:19Z</time>
<speed>4.230000</speed>
<extensions>
<speed>4.2</speed>
<temp>0.00</temp>
<bpm>0</bpm>
<rpm>0.00</rpm>
</extensions>
</trkpt>
<trkpt lat="30.734495163" lon="34.769699097">
<ele>709.593750</ele>
<time>2013-11-21T13:29:24Z</time>
<speed>5.120000</speed>
<extensions>
<speed>5.1</speed>
<temp>0.00</temp>
<bpm>0</bpm>
<rpm>0.00</rpm>
</extensions>
</trkpt>
<trkpt lat="30.734275818" lon="34.769748688">
<ele>706.890625</ele>
<time>2013-11-21T13:29:29Z</time>
<speed>4.540000</speed>
<extensions>
<speed>4.5</speed>
<temp>0.00</temp>
<bpm>0</bpm>
<rpm>0.00</rpm>
</extensions>
</trkpt>
<trkpt lat="30.734073639" lon="34.769783020">
<ele>706.328125</ele>
<time>2013-11-21T13:29:34Z</time>
<speed>4.980000</speed>
<extensions>
<speed>5.0</speed>
<temp>0.00</temp>
<bpm>0</bpm>
<rpm>0.00</rpm>
</extensions>
</trkpt>
<trkpt lat="30.733825684" lon="34.769866943">
<ele>706.203125</ele>
<time>2013-11-21T13:29:39Z</time>
<speed>5.560000</speed>
<extensions>
<speed>5.6</speed>
<temp>0.00</temp>
<bpm>0</bpm>
<rpm>0.00</rpm>
</extensions>
</trkpt>
<trkpt lat="30.733600616" lon="34.769950867">
<ele>712.046875</ele>
<time>2013-11-21T13:29:44Z</time>
<speed>4.970000</speed>
<extensions>
<speed>5.0</speed>
<temp>0.00</temp>
<bpm>0</bpm>
<rpm>0.00</rpm>
</extensions>
</trkpt>
<trkpt lat="30.733385086" lon="34.770053864">
<ele>714.328125</ele>
<time>2013-11-21T13:29:49Z</time>
<speed>5.620000</speed>
<extensions>
<speed>5.6</speed>
<temp>0.00</temp>
<bpm>0</bpm>
<rpm>0.00</rpm>
</extensions>
</trkpt>
<trkpt lat="30.733156204" lon="34.770153046">
<ele>715.187500</ele>
<time>2013-11-21T13:29:54Z</time>
<speed>4.510000</speed>
<extensions>
<speed>4.5</speed>
<temp>0.00</temp>
<bpm>0</bpm>
<rpm>0.00</rpm>
</extensions>
</trkpt>
<trkpt lat="30.732969284" lon="34.770263672">
<ele>718.968750</ele>
<time>2013-11-21T13:29:59Z</time>
<speed>5.240000</speed>
<extensions>
<speed>5.2</speed>
<temp>0.00</temp>
<bpm>0</bpm>
<rpm>0.00</rpm>
</extensions>
</trkpt>
<trkpt lat="30.732761383" lon="34.770401001">
<ele>723.593750</ele>
<time>2013-11-21T13:30:04Z</time>
<speed>4.980000</speed>
<extensions>
<speed>5.0</speed>
<temp>0.00</temp>
<bpm>0</bpm>
<rpm>0.00</rpm>
</extensions>
</trkpt>
<trkpt lat="30.732582092" lon="34.770526886">
<ele>725.296875</ele>
<time>2013-11-21T13:30:09Z</time>
<speed>5.230000</speed>
<extensions>
<speed>5.2</speed>
<temp>0.00</temp>
<bpm>0</bpm>
<rpm>0.00</rpm>
</extensions>
</trkpt>
<trkpt lat="30.732389450" lon="34.770679474">
<ele>724.968750</ele>
<time>2013-11-21T13:30:14Z</time>
<speed>4.260000</speed>
<extensions>
<speed>4.3</speed>
<temp>0.00</temp>
<bpm>0</bpm>
<rpm>0.00</rpm>
</extensions>
</trkpt>
<trkpt lat="30.732234955" lon="34.770801544">
<ele>723.546875</ele>
<time>2013-11-21T13:30:19Z</time>
<speed>3.080000</speed>
<extensions>
<speed>3.1</speed>
<temp>0.00</temp>
<bpm>0</bpm>
<rpm>0.00</rpm>
</extensions>
</trkpt>
<trkpt lat="30.732112885" lon="34.770900726">
<ele>726.453125</ele>
<time>2013-11-21T13:30:24Z</time>
<speed>4.020000</speed>
<extensions>
<speed>4.0</speed>
<temp>0.00</temp>
<bpm>0</bpm>
<rpm>0.00</rpm>
</extensions>
</trkpt>
<trkpt lat="30.731937408" lon="34.771057129">
<ele>727.953125</ele>
<time>2013-11-21T13:30:29Z</time>
<speed>5.040000</speed>
<extensions>
<speed>5.0</speed>
<temp>0.00</temp>
<bpm>0</bpm>
<rpm>0.00</rpm>
</extensions>
</trkpt>
<trkpt lat="30.731784821" lon="34.771186829">
<ele>734.031250</ele>
<time>2013-11-21T13:30:34Z</time>
<speed>4.320000</speed>
<extensions>
<speed>4.3</speed>
<temp>0.00</temp>
<bpm>0</bpm>
<rpm>0.00</rpm>
</extensions>
</trkpt>
<trkpt lat="30.731613159" lon="34.771347046">
<ele>736.609375</ele>
<time>2013-11-21T13:30:39Z</time>
<speed>5.320000</speed>
<extensions>
<speed>5.3</speed>
<temp>0.00</temp>
<bpm>0</bpm>
<rpm>0.00</rpm>
</extensions>
</trkpt>
<trkpt lat="30.731426239" lon="34.771530151">
<ele>734.906250</ele>
<time>2013-11-21T13:30:44Z</time>
<speed>5.480000</speed>
<extensions>
<speed>5.5</speed>
<temp>0.00</temp>
<bpm>0</bpm>
<rpm>0.00</rpm>
</extensions>
</trkpt>
<trkpt lat="30.731254578" lon="34.771690369">
<ele>735.281250</ele>
<time>2013-11-21T13:30:49Z</time>
<speed>3.850000</speed>
<extensions>
<speed>3.8</speed>
<temp>0.00</temp>
<bpm>0</bpm>
<rpm>0.00</rpm>
</extensions>
</trkpt>
<trkpt lat="30.731107712" lon="34.771839142">
<ele>734.093750</ele>
<time>2013-11-21T13:30:54Z</time>
<speed>4.430000</speed>
<extensions>
<speed>4.4</speed>
<temp>0.00</temp>
<bpm>0</bpm>
<rpm>0.00</rpm>
</extensions>
</trkpt>
<trkpt lat="30.730951309" lon="34.771991730">
<ele>731.671875</ele>
<time>2013-11-21T13:30:59Z</time>
<speed>4.220000</speed>
<extensions>
<speed>4.2</speed>
<temp>0.00</temp>
<bpm>0</bpm>
<rpm>0.00</rpm>
</extensions>
</trkpt>
<trkpt lat="30.730834961" lon="34.772121429">
<ele>729.984375</ele>
<time>2013-11-21T13:31:04Z</time>
<speed>2.960000</speed>
<extensions>
<speed>3.0</speed>
<temp>0.00</temp>
<bpm>0</bpm>
<rpm>0.00</rpm>
</extensions>
</trkpt>
<trkpt lat="30.730754852" lon="34.772197723">
<ele>727.890625</ele>
<time>2013-11-21T13:31:09Z</time>
<speed>2.740000</speed>
<extensions>
<speed>2.7</speed>
<temp>0.00</temp>
<bpm>0</bpm>
<rpm>0.00</rpm>
</extensions>
</trkpt>
<trkpt lat="30.730640411" lon="34.772331238">
<ele>725.687500</ele>
<time>2013-11-21T13:31:14Z</time>
<speed>4.090000</speed>
<extensions>
<speed>4.1</speed>
<temp>0.00</temp>
<bpm>0</bpm>
<rpm>0.00</rpm>
</extensions>
</trkpt>
<trkpt lat="30.730480194" lon="34.772472382">
<ele>724.109375</ele>
<time>2013-11-21T13:31:19Z</time>
<speed>4.600000</speed>
<extensions>
<speed>4.6</speed>
<temp>0.00</temp>
<bpm>0</bpm>
<rpm>0.00</rpm>
</extensions>
</trkpt>
<trkpt lat="30.730331421" lon="34.772621155">
<ele>723.000000</ele>
<time>2013-11-21T13:31:24Z</time>
<speed>4.440000</speed>
<extensions>
<speed>4.4</speed>
<temp>0.00</temp>
<bpm>0</bpm>
<rpm>0.00</rpm>
</extensions>
</trkpt>
<trkpt lat="30.730192184" lon="34.772750854">
<ele>725.218750</ele>
<time>2013-11-21T13:31:29Z</time>
<speed>4.070000</speed>
<extensions>
<speed>4.1</speed>
<temp>0.00</temp>
<bpm>0</bpm>
<rpm>0.00</rpm>
</extensions>
</trkpt>
<trkpt lat="30.730030060" lon="34.772914886">
<ele>727.203125</ele>
<time>2013-11-21T13:31:34Z</time>
<speed>4.790000</speed>
<extensions>
<speed>4.8</speed>
<temp>0.00</temp>
<bpm>0</bpm>
<rpm>0.00</rpm>
</extensions>
</trkpt>
<trkpt lat="30.729887009" lon="34.773056030">
<ele>728.968750</ele>
<time>2013-11-21T13:31:39Z</time>
<speed>4.630000</speed>
<extensions>
<speed>4.6</speed>
<temp>0.00</temp>
<bpm>0</bpm>
<rpm>0.00</rpm>
</extensions>
</trkpt>
<trkpt lat="30.729728699" lon="34.773200989">
<ele>730.609375</ele>
<time>2013-11-21T13:31:44Z</time>
<speed>4.540000</speed>
<extensions>
<speed>4.5</speed>
<temp>0.00</temp>
<bpm>0</bpm>
<rpm>0.00</rpm>
</extensions>
</trkpt>
<trkpt lat="30.729606628" lon="34.773326874">
<ele>730.156250</ele>
<time>2013-11-21T13:31:49Z</time>
<speed>3.780000</speed>
<extensions>
<speed>3.8</speed>
<temp>0.00</temp>
<bpm>0</bpm>
<rpm>0.00</rpm>
</extensions>
</trkpt>
<trkpt lat="30.729452133" lon="34.773490906">
<ele>732.562500</ele>
<time>2013-11-21T13:31:54Z</time>
<speed>4.640000</speed>
<extensions>
<speed>4.6</speed>
<temp>0.00</temp>
<bpm>0</bpm>
<rpm>0.00</rpm>
</extensions>
</trkpt>
<trkpt lat="30.729301453" lon="34.773593903">
<ele>738.828125</ele>
<time>2013-11-21T13:31:59Z</time>
<speed>3.730000</speed>
<extensions>
<speed>3.7</speed>
<temp>0.00</temp>
<bpm>0</bpm>
<rpm>0.00</rpm>
</extensions>
</trkpt>
<trkpt lat="30.729158401" lon="34.773696899">
<ele>739.156250</ele>
<time>2013-11-21T13:32:04Z</time>
<speed>4.140000</speed>
<extensions>
<speed>4.1</speed>
<temp>0.00</temp>
<bpm>0</bpm>
<rpm>0.00</rpm>
</extensions>
</trkpt>
<trkpt lat="30.729007721" lon="34.773799896">
<ele>741.609375</ele>
<time>2013-11-21T13:32:09Z</time>
<speed>4.330000</speed>
<extensions>
<speed>4.3</speed>
<temp>0.00</temp>
<bpm>0</bpm>
<rpm>0.00</rpm>
</extensions>
</trkpt>
<trkpt lat="30.728816986" lon="34.773956299">
<ele>741.625000</ele>
<time>2013-11-21T13:32:14Z</time>
<speed>4.970000</speed>
<extensions>
<speed>5.0</speed>
<temp>0.00</temp>
<bpm>0</bpm>
<rpm>0.00</rpm>
</extensions>
</trkpt>
<trkpt lat="30.728630066" lon="34.774066925">
<ele>742.234375</ele>
<time>2013-11-21T13:32:19Z</time>
<speed>3.910000</speed>
<extensions>
<speed>3.9</speed>
<temp>0.00</temp>
<bpm>0</bpm>
<rpm>0.00</rpm>
</extensions>
</trkpt>
<trkpt lat="30.728448868" lon="34.774169922">
<ele>740.937500</ele>
<time>2013-11-21T13:32:24Z</time>
<speed>4.590000</speed>
<extensions>
<speed>4.6</speed>
<temp>0.00</temp>
<bpm>0</bpm>
<rpm>0.00</rpm>
</extensions>
</trkpt>
<trkpt lat="30.728233337" lon="34.774299622">
<ele>741.859375</ele>
<time>2013-11-21T13:32:29Z</time>
<speed>4.040000</speed>
<extensions>
<speed>4.0</speed>
<temp>0.00</temp>
<bpm>0</bpm>
<rpm>0.00</rpm>
</extensions>
</trkpt>
<trkpt lat="30.728040695" lon="34.774394989">
<ele>735.921875</ele>
<time>2013-11-21T13:32:34Z</time>
<speed>5.060000</speed>
<extensions>
<speed>5.1</speed>
<temp>0.00</temp>
<bpm>0</bpm>
<rpm>0.00</rpm>
</extensions>
</trkpt>
<trkpt lat="30.727838516" lon="34.774471283">
<ele>735.796875</ele>
<time>2013-11-21T13:32:39Z</time>
<speed>4.470000</speed>
<extensions>
<speed>4.5</speed>
<temp>0.00</temp>
<bpm>0</bpm>
<rpm>0.00</rpm>
</extensions>
</trkpt>
<trkpt lat="30.727659225" lon="34.774528503">
<ele>737.750000</ele>
<time>2013-11-21T13:32:44Z</time>
<speed>4.310000</speed>
<extensions>
<speed>4.3</speed>
<temp>0.00</temp>
<bpm>0</bpm>
<rpm>0.00</rpm>
</extensions>
</trkpt>
<trkpt lat="30.727476120" lon="34.774585724">
<ele>736.265625</ele>
<time>2013-11-21T13:32:49Z</time>
<speed>4.600000</speed>
<extensions>
<speed>4.6</speed>
<temp>0.00</temp>
<bpm>0</bpm>
<rpm>0.00</rpm>
</extensions>
</trkpt>
<trkpt lat="30.727420807" lon="34.774593353">
<ele>736.359375</ele>
<time>2013-11-21T13:32:54Z</time>
<speed>0.120000</speed>
<extensions>
<speed>0.1</speed>
<temp>0.00</temp>
<bpm>0</bpm>
<rpm>0.00</rpm>
</extensions>
</trkpt>
<trkpt lat="30.727420807" lon="34.774600983">
<ele>736.093750</ele>
<time>2013-11-21T13:32:59Z</time>
<extensions>
<speed>0.0</speed>
<temp>0.00</temp>
<bpm>0</bpm>
<rpm>0.00</rpm>
</extensions>
</trkpt>
<trkpt lat="30.727420807" lon="34.774600983">
<ele>735.921875</ele>
<time>2013-11-21T13:33:04Z</time>
<speed>0.010000</speed>
<extensions>
<speed>0.0</speed>
<temp>0.00</temp>
<bpm>0</bpm>
<rpm>0.00</rpm>
</extensions>
</trkpt>
<trkpt lat="30.727420807" lon="34.774600983">
<ele>735.812500</ele>
<time>2013-11-21T13:33:09Z</time>
<extensions>
<speed>0.0</speed>
<temp>0.00</temp>
<bpm>0</bpm>
<rpm>0.00</rpm>
</extensions>
</trkpt>
<trkpt lat="30.727424622" lon="34.774604797">
<ele>735.734375</ele>
<time>2013-11-21T13:33:14Z</time>
<speed>0.050000</speed>
<extensions>
<speed>0.1</speed>
<temp>0.00</temp>
<bpm>0</bpm>
<rpm>0.00</rpm>
</extensions>
</trkpt>
<trkpt lat="30.727424622" lon="34.774604797">
<ele>735.718750</ele>
<time>2013-11-21T13:33:19Z</time>
<speed>0.130000</speed>
<extensions>
<speed>0.1</speed>
<temp>0.00</temp>
<bpm>0</bpm>
<rpm>0.00</rpm>
</extensions>
</trkpt>
<trkpt lat="30.727392197" lon="34.774604797">
<ele>735.750000</ele>
<time>2013-11-21T13:33:24Z</time>
<speed>1.510000</speed>
<extensions>
<speed>1.5</speed>
<temp>0.00</temp>
<bpm>0</bpm>
<rpm>0.00</rpm>
</extensions>
</trkpt>
<trkpt lat="30.727252960" lon="34.774635315">
<ele>735.531250</ele>
<time>2013-11-21T13:33:29Z</time>
<speed>3.980000</speed>
<extensions>
<speed>4.0</speed>
<temp>0.00</temp>
<bpm>0</bpm>
<rpm>0.00</rpm>
</extensions>
</trkpt>
<trkpt lat="30.727069855" lon="34.774665833">
<ele>735.078125</ele>
<time>2013-11-21T13:33:34Z</time>
<speed>3.400000</speed>
<extensions>
<speed>3.4</speed>
<temp>0.00</temp>
<bpm>0</bpm>
<rpm>0.00</rpm>
</extensions>
</trkpt>
<trkpt lat="30.726930618" lon="34.774684906">
<ele>734.640625</ele>
<time>2013-11-21T13:33:39Z</time>
<speed>2.800000</speed>
<extensions>
<speed>2.8</speed>
<temp>0.00</temp>
<bpm>0</bpm>
<rpm>0.00</rpm>
</extensions>
</trkpt>
<trkpt lat="30.726791382" lon="34.774700165">
<ele>733.625000</ele>
<time>2013-11-21T13:33:44Z</time>
<speed>3.200000</speed>
<extensions>
<speed>3.2</speed>
<temp>0.00</temp>
<bpm>0</bpm>
<rpm>0.00</rpm>
</extensions>
</trkpt>
<trkpt lat="30.726625443" lon="34.774745941">
<ele>732.656250</ele>
<time>2013-11-21T13:33:49Z</time>
<speed>3.590000</speed>
<extensions>
<speed>3.6</speed>
<temp>0.00</temp>
<bpm>0</bpm>
<rpm>0.00</rpm>
</extensions>
</trkpt>
<trkpt lat="30.726488113" lon="34.774761200">
<ele>732.984375</ele>
<time>2013-11-21T13:33:54Z</time>
<speed>3.170000</speed>
<extensions>
<speed>3.2</speed>
<temp>0.00</temp>
<bpm>0</bpm>
<rpm>0.00</rpm>
</extensions>
</trkpt>
<trkpt lat="30.726324081" lon="34.774810791">
<ele>732.531250</ele>
<time>2013-11-21T13:33:59Z</time>
<speed>3.630000</speed>
<extensions>
<speed>3.6</speed>
<temp>0.00</temp>
<bpm>0</bpm>
<rpm>0.00</rpm>
</extensions>
</trkpt>
<trkpt lat="30.726139069" lon="34.774841309">
<ele>729.250000</ele>
<time>2013-11-21T13:34:04Z</time>
<speed>4.050000</speed>
<extensions>
<speed>4.0</speed>
<temp>0.00</temp>
<bpm>0</bpm>
<rpm>0.00</rpm>
</extensions>
</trkpt>
<trkpt lat="30.725978851" lon="34.774864197">
<ele>729.515625</ele>
<time>2013-11-21T13:34:09Z</time>
<speed>3.120000</speed>
<extensions>
<speed>3.1</speed>
<temp>0.00</temp>
<bpm>0</bpm>
<rpm>0.00</rpm>
</extensions>
</trkpt>
<trkpt lat="30.725847244" lon="34.774890900">
<ele>729.625000</ele>
<time>2013-11-21T13:34:14Z</time>
<speed>3.100000</speed>
<extensions>
<speed>3.1</speed>
<temp>0.00</temp>
<bpm>0</bpm>
<rpm>0.00</rpm>
</extensions>
</trkpt>
<trkpt lat="30.725782394" lon="34.774883270">
<ele>730.609375</ele>
<time>2013-11-21T13:34:19Z</time>
<speed>1.160000</speed>
<extensions>
<speed>1.2</speed>
<temp>0.00</temp>
<bpm>0</bpm>
<rpm>0.00</rpm>
</extensions>
</trkpt>
<trkpt lat="30.725704193" lon="34.774902344">
<ele>730.187500</ele>
<time>2013-11-21T13:34:24Z</time>
<speed>2.130000</speed>
<extensions>
<speed>2.1</speed>
<temp>0.00</temp>
<bpm>0</bpm>
<rpm>0.00</rpm>
</extensions>
</trkpt>
<trkpt lat="30.725585938" lon="34.774929047">
<ele>730.531250</ele>
<time>2013-11-21T13:34:29Z</time>
<speed>2.810000</speed>
<extensions>
<speed>2.8</speed>
<temp>0.00</temp>
<bpm>0</bpm>
<rpm>0.00</rpm>
</extensions>
</trkpt>
<trkpt lat="30.725419998" lon="34.774986267">
<ele>729.656250</ele>
<time>2013-11-21T13:34:34Z</time>
<speed>4.020000</speed>
<extensions>
<speed>4.0</speed>
<temp>0.00</temp>
<bpm>0</bpm>
<rpm>0.00</rpm>
</extensions>
</trkpt>
<trkpt lat="30.725223541" lon="34.775039673">
<ele>728.187500</ele>
<time>2013-11-21T13:34:39Z</time>
<speed>4.230000</speed>
<extensions>
<speed>4.2</speed>
<temp>0.00</temp>
<bpm>0</bpm>
<rpm>0.00</rpm>
</extensions>
</trkpt>
<trkpt lat="30.725049973" lon="34.775093079">
<ele>728.062500</ele>
<time>2013-11-21T13:34:44Z</time>
<speed>4.330000</speed>
<extensions>
<speed>4.3</speed>
<temp>0.00</temp>
<bpm>0</bpm>
<rpm>0.00</rpm>
</extensions>
</trkpt>
<trkpt lat="30.724855423" lon="34.775154114">
<ele>726.812500</ele>
<time>2013-11-21T13:34:49Z</time>
<speed>4.760000</speed>
<extensions>
<speed>4.8</speed>
<temp>0.00</temp>
<bpm>0</bpm>
<rpm>0.00</rpm>
</extensions>
</trkpt>
<trkpt lat="30.724645615" lon="34.775230408">
<ele>734.062500</ele>
<time>2013-11-21T13:34:54Z</time>
<speed>4.030000</speed>
<extensions>
<speed>4.0</speed>
<temp>0.00</temp>
<bpm>0</bpm>
<rpm>0.00</rpm>
</extensions>
</trkpt>
<trkpt lat="30.724445343" lon="34.775329590">
<ele>737.531250</ele>
<time>2013-11-21T13:34:59Z</time>
<speed>4.930000</speed>
<extensions>
<speed>4.9</speed>
<temp>0.00</temp>
<bpm>0</bpm>
<rpm>0.00</rpm>
</extensions>
</trkpt>
<trkpt lat="30.724220276" lon="34.775436401">
<ele>742.562500</ele>
<time>2013-11-21T13:35:04Z</time>
<speed>4.910000</speed>
<extensions>
<speed>4.9</speed>
<temp>0.00</temp>
<bpm>0</bpm>
<rpm>0.00</rpm>
</extensions>
</trkpt>
<trkpt lat="30.724054337" lon="34.775535583">
<ele>745.687500</ele>
<time>2013-11-21T13:35:09Z</time>
<speed>3.980000</speed>
<extensions>
<speed>4.0</speed>
<temp>0.00</temp>
<bpm>0</bpm>
<rpm>0.00</rpm>
</extensions>
</trkpt>
<trkpt lat="30.723930359" lon="34.775604248">
<ele>747.984375</ele>
<time>2013-11-21T13:35:14Z</time>
<speed>3.050000</speed>
<extensions>
<speed>3.0</speed>
<temp>0.00</temp>
<bpm>0</bpm>
<rpm>0.00</rpm>
</extensions>
</trkpt>
<trkpt lat="30.723783493" lon="34.775718689">
<ele>749.046875</ele>
<time>2013-11-21T13:35:19Z</time>
<speed>4.370000</speed>
<extensions>
<speed>4.4</speed>
<temp>0.00</temp>
<bpm>0</bpm>
<rpm>0.00</rpm>
</extensions>
</trkpt>
<trkpt lat="30.723588943" lon="34.775859833">
<ele>751.828125</ele>
<time>2013-11-21T13:35:24Z</time>
<speed>5.340000</speed>
<extensions>
<speed>5.3</speed>
<temp>0.00</temp>
<bpm>0</bpm>
<rpm>0.00</rpm>
</extensions>
</trkpt>
<trkpt lat="30.723382950" lon="34.776016235">
<ele>751.437500</ele>
<time>2013-11-21T13:35:29Z</time>
<speed>5.170000</speed>
<extensions>
<speed>5.2</speed>
<temp>0.00</temp>
<bpm>0</bpm>
<rpm>0.00</rpm>
</extensions>
</trkpt>
<trkpt lat="30.723184586" lon="34.776176453">
<ele>747.468750</ele>
<time>2013-11-21T13:35:34Z</time>
<speed>5.530000</speed>
<extensions>
<speed>5.5</speed>
<temp>0.00</temp>
<bpm>0</bpm>
<rpm>0.00</rpm>
</extensions>
</trkpt>
<trkpt lat="30.722974777" lon="34.776363373">
<ele>745.406250</ele>
<time>2013-11-21T13:35:39Z</time>
<speed>6.030000</speed>
<extensions>
<speed>6.0</speed>
<temp>0.00</temp>
<bpm>0</bpm>
<rpm>0.00</rpm>
</extensions>
</trkpt>
<trkpt lat="30.722757339" lon="34.776576996">
<ele>744.515625</ele>
<time>2013-11-21T13:35:44Z</time>
<speed>5.740000</speed>
<extensions>
<speed>5.7</speed>
<temp>0.00</temp>
<bpm>0</bpm>
<rpm>0.00</rpm>
</extensions>
</trkpt>
<trkpt lat="30.722581863" lon="34.776725769">
<ele>746.687500</ele>
<time>2013-11-21T13:35:49Z</time>
<speed>4.860000</speed>
<extensions>
<speed>4.9</speed>
<temp>0.00</temp>
<bpm>0</bpm>
<rpm>0.00</rpm>
</extensions>
</trkpt>
<trkpt lat="30.722387314" lon="34.776878357">
<ele>745.546875</ele>
<time>2013-11-21T13:35:54Z</time>
<speed>5.140000</speed>
<extensions>
<speed>5.1</speed>
<temp>0.00</temp>
<bpm>0</bpm>
<rpm>0.00</rpm>
</extensions>
</trkpt>
<trkpt lat="30.722181320" lon="34.777023315">
<ele>744.046875</ele>
<time>2013-11-21T13:35:59Z</time>
<speed>5.250000</speed>
<extensions>
<speed>5.2</speed>
<temp>0.00</temp>
<bpm>0</bpm>
<rpm>0.00</rpm>
</extensions>
</trkpt>
<trkpt lat="30.721965790" lon="34.777130127">
<ele>742.968750</ele>
<time>2013-11-21T13:36:04Z</time>
<speed>5.430000</speed>
<extensions>
<speed>5.4</speed>
<temp>0.00</temp>
<bpm>0</bpm>
<rpm>0.00</rpm>
</extensions>
</trkpt>
<trkpt lat="30.721755981" lon="34.777233124">
<ele>738.937500</ele>
<time>2013-11-21T13:36:09Z</time>
<speed>4.450000</speed>
<extensions>
<speed>4.5</speed>
<temp>0.00</temp>
<bpm>0</bpm>
<rpm>0.00</rpm>
</extensions>
</trkpt>
<trkpt lat="30.721597672" lon="34.777301788">
<ele>735.453125</ele>
<time>2013-11-21T13:36:14Z</time>
<speed>3.580000</speed>
<extensions>
<speed>3.6</speed>
<temp>0.00</temp>
<bpm>0</bpm>
<rpm>0.00</rpm>
</extensions>
</trkpt>
<trkpt lat="30.721443176" lon="34.777385712">
<ele>738.796875</ele>
<time>2013-11-21T13:36:19Z</time>
<speed>4.000000</speed>
<extensions>
<speed>4.0</speed>
<temp>0.00</temp>
<bpm>0</bpm>
<rpm>0.00</rpm>
</extensions>
</trkpt>
<trkpt lat="30.721284866" lon="34.777420044">
<ele>741.953125</ele>
<time>2013-11-21T13:36:24Z</time>
<speed>3.280000</speed>
<extensions>
<speed>3.3</speed>
<temp>0.00</temp>
<bpm>0</bpm>
<rpm>0.00</rpm>
</extensions>
</trkpt>
<trkpt lat="30.721092224" lon="34.777500153">
<ele>739.328125</ele>
<time>2013-11-21T13:36:29Z</time>
<speed>4.870000</speed>
<extensions>
<speed>4.9</speed>
<temp>0.00</temp>
<bpm>0</bpm>
<rpm>0.00</rpm>
</extensions>
</trkpt>
<trkpt lat="30.720895767" lon="34.777568817">
<ele>736.421875</ele>
<time>2013-11-21T13:36:34Z</time>
<speed>4.590000</speed>
<extensions>
<speed>4.6</speed>
<temp>0.00</temp>
<bpm>0</bpm>
<rpm>0.00</rpm>
</extensions>
</trkpt>
<trkpt lat="30.720701218" lon="34.777652740">
<ele>735.359375</ele>
<time>2013-11-21T13:36:39Z</time>
<speed>4.140000</speed>
<extensions>
<speed>4.1</speed>
<temp>0.00</temp>
<bpm>0</bpm>
<rpm>0.00</rpm>
</extensions>
</trkpt>
<trkpt lat="30.720499039" lon="34.777729034">
<ele>735.562500</ele>
<time>2013-11-21T13:36:44Z</time>
<speed>5.230000</speed>
<extensions>
<speed>5.2</speed>
<temp>0.00</temp>
<bpm>0</bpm>
<rpm>0.00</rpm>
</extensions>
</trkpt>
<trkpt lat="30.720285416" lon="34.777797699">
<ele>735.359375</ele>
<time>2013-11-21T13:36:49Z</time>
<speed>4.490000</speed>
<extensions>
<speed>4.5</speed>
<temp>0.00</temp>
<bpm>0</bpm>
<rpm>0.00</rpm>
</extensions>
</trkpt>
<trkpt lat="30.720069885" lon="34.777847290">
<ele>732.109375</ele>
<time>2013-11-21T13:36:54Z</time>
<speed>5.460000</speed>
<extensions>
<speed>5.5</speed>
<temp>0.00</temp>
<bpm>0</bpm>
<rpm>0.00</rpm>
</extensions>
</trkpt>
<trkpt lat="30.719835281" lon="34.777873993">
<ele>732.703125</ele>
<time>2013-11-21T13:36:59Z</time>
<speed>4.870000</speed>
<extensions>
<speed>4.9</speed>
<temp>0.00</temp>
<bpm>0</bpm>
<rpm>0.00</rpm>
</extensions>
</trkpt>
<trkpt lat="30.719589233" lon="34.777908325">
<ele>733.656250</ele>
<time>2013-11-21T13:37:04Z</time>
<speed>5.610000</speed>
<extensions>
<speed>5.6</speed>
<temp>0.00</temp>
<bpm>0</bpm>
<rpm>0.00</rpm>
</extensions>
</trkpt>
<trkpt lat="30.719337463" lon="34.777938843">
<ele>734.406250</ele>
<time>2013-11-21T13:37:09Z</time>
<speed>5.180000</speed>
<extensions>
<speed>5.2</speed>
<temp>0.00</temp>
<bpm>0</bpm>
<rpm>0.00</rpm>
</extensions>
</trkpt>
<trkpt lat="30.719139099" lon="34.777961731">
<ele>735.000000</ele>
<time>2013-11-21T13:37:14Z</time>
<speed>4.350000</speed>
<extensions>
<speed>4.3</speed>
<temp>0.00</temp>
<bpm>0</bpm>
<rpm>0.00</rpm>
</extensions>
</trkpt>
<trkpt lat="30.718927383" lon="34.777996063">
<ele>734.890625</ele>
<time>2013-11-21T13:37:19Z</time>
<speed>4.640000</speed>
<extensions>
<speed>4.6</speed>
<temp>0.00</temp>
<bpm>0</bpm>
<rpm>0.00</rpm>
</extensions>
</trkpt>
<trkpt lat="30.718683243" lon="34.778034210">
<ele>738.015625</ele>
<time>2013-11-21T13:37:24Z</time>
<speed>5.170000</speed>
<extensions>
<speed>5.2</speed>
<temp>0.00</temp>
<bpm>0</bpm>
<rpm>0.00</rpm>
</extensions>
</trkpt>
<trkpt lat="30.718471527" lon="34.778057098">
<ele>737.781250</ele>
<time>2013-11-21T13:37:29Z</time>
<speed>4.660000</speed>
<extensions>
<speed>4.7</speed>
<temp>0.00</temp>
<bpm>0</bpm>
<rpm>0.00</rpm>
</extensions>
</trkpt>
<trkpt lat="30.718248367" lon="34.778091431">
<ele>737.078125</ele>
<time>2013-11-21T13:37:34Z</time>
<speed>4.750000</speed>
<extensions>
<speed>4.8</speed>
<temp>0.00</temp>
<bpm>0</bpm>
<rpm>0.00</rpm>
</extensions>
</trkpt>
<trkpt lat="30.718036652" lon="34.778133392">
<ele>736.687500</ele>
<time>2013-11-21T13:37:39Z</time>
<speed>4.880000</speed>
<extensions>
<speed>4.9</speed>
<temp>0.00</temp>
<bpm>0</bpm>
<rpm>0.00</rpm>
</extensions>
</trkpt>
<trkpt lat="30.717821121" lon="34.778194427">
<ele>737.140625</ele>
<time>2013-11-21T13:37:44Z</time>
<speed>4.640000</speed>
<extensions>
<speed>4.6</speed>
<temp>0.00</temp>
<bpm>0</bpm>
<rpm>0.00</rpm>
</extensions>
</trkpt>
<trkpt lat="30.717599869" lon="34.778293610">
<ele>738.140625</ele>
<time>2013-11-21T13:37:49Z</time>
<speed>4.650000</speed>
<extensions>
<speed>4.6</speed>
<temp>0.00</temp>
<bpm>0</bpm>
<rpm>0.00</rpm>
</extensions>
</trkpt>
<trkpt lat="30.717418671" lon="34.778381348">
<ele>740.515625</ele>
<time>2013-11-21T13:37:54Z</time>
<speed>3.650000</speed>
<extensions>
<speed>3.7</speed>
<temp>0.00</temp>
<bpm>0</bpm>
<rpm>0.00</rpm>
</extensions>
</trkpt>
<trkpt lat="30.717235565" lon="34.778480530">
<ele>739.531250</ele>
<time>2013-11-21T13:37:59Z</time>
<speed>4.690000</speed>
<extensions>
<speed>4.7</speed>
<temp>0.00</temp>
<bpm>0</bpm>
<rpm>0.00</rpm>
</extensions>
</trkpt>
<trkpt lat="30.717020035" lon="34.778606415">
<ele>739.796875</ele>
<time>2013-11-21T13:38:04Z</time>
<speed>5.240000</speed>
<extensions>
<speed>5.2</speed>
<temp>0.00</temp>
<bpm>0</bpm>
<rpm>0.00</rpm>
</extensions>
</trkpt>
<trkpt lat="30.716814041" lon="34.778755188">
<ele>738.734375</ele>
<time>2013-11-21T13:38:09Z</time>
<speed>5.220000</speed>
<extensions>
<speed>5.2</speed>
<temp>0.00</temp>
<bpm>0</bpm>
<rpm>0.00</rpm>
</extensions>
</trkpt>
<trkpt lat="30.716642380" lon="34.778892517">
<ele>740.625000</ele>
<time>2013-11-21T13:38:14Z</time>
<speed>4.210000</speed>
<extensions>
<speed>4.2</speed>
<temp>0.00</temp>
<bpm>0</bpm>
<rpm>0.00</rpm>
</extensions>
</trkpt>
<trkpt lat="30.716449738" lon="34.779056549">
<ele>738.890625</ele>
<time>2013-11-21T13:38:19Z</time>
<speed>5.320000</speed>
<extensions>
<speed>5.3</speed>
<temp>0.00</temp>
<bpm>0</bpm>
<rpm>0.00</rpm>
</extensions>
</trkpt>
<trkpt lat="30.716241837" lon="34.779270172">
<ele>739.359375</ele>
<time>2013-11-21T13:38:24Z</time>
<speed>6.550000</speed>
<extensions>
<speed>6.5</speed>
<temp>0.00</temp>
<bpm>0</bpm>
<rpm>0.00</rpm>
</extensions>
</trkpt>
<trkpt lat="30.716068268" lon="34.779521942">
<ele>742.718750</ele>
<time>2013-11-21T13:38:29Z</time>
<speed>6.060000</speed>
<extensions>
<speed>6.1</speed>
<temp>0.00</temp>
<bpm>0</bpm>
<rpm>0.00</rpm>
</extensions>
</trkpt>
<trkpt lat="30.715892792" lon="34.779762268">
<ele>746.390625</ele>
<time>2013-11-21T13:38:34Z</time>
<speed>5.760000</speed>
<extensions>
<speed>5.8</speed>
<temp>0.00</temp>
<bpm>0</bpm>
<rpm>0.00</rpm>
</extensions>
</trkpt>
<trkpt lat="30.715744019" lon="34.780014038">
<ele>750.015625</ele>
<time>2013-11-21T13:38:39Z</time>
<speed>5.250000</speed>
<extensions>
<speed>5.2</speed>
<temp>0.00</temp>
<bpm>0</bpm>
<rpm>0.00</rpm>
</extensions>
</trkpt>
<trkpt lat="30.715623856" lon="34.780261993">
<ele>750.015625</ele>
<time>2013-11-21T13:38:44Z</time>
<speed>5.590000</speed>
<extensions>
<speed>5.6</speed>
<temp>0.00</temp>
<bpm>0</bpm>
<rpm>0.00</rpm>
</extensions>
</trkpt>
<trkpt lat="30.715513229" lon="34.780502319">
<ele>744.343750</ele>
<time>2013-11-21T13:38:49Z</time>
<speed>5.630000</speed>
<extensions>
<speed>5.6</speed>
<temp>0.00</temp>
<bpm>0</bpm>
<rpm>0.00</rpm>
</extensions>
</trkpt>
<trkpt lat="30.715372086" lon="34.780754089">
<ele>739.734375</ele>
<time>2013-11-21T13:38:54Z</time>
<speed>5.850000</speed>
<extensions>
<speed>5.8</speed>
<temp>0.00</temp>
<bpm>0</bpm>
<rpm>0.00</rpm>
</extensions>
</trkpt>
<trkpt lat="30.715232849" lon="34.780990601">
<ele>743.546875</ele>
<time>2013-11-21T13:38:59Z</time>
<speed>5.510000</speed>
<extensions>
<speed>5.5</speed>
<temp>0.00</temp>
<bpm>0</bpm>
<rpm>0.00</rpm>
</extensions>
</trkpt>
<trkpt lat="30.715103149" lon="34.781223297">
<ele>743.718750</ele>
<time>2013-11-21T13:39:04Z</time>
<speed>5.410000</speed>
<extensions>
<speed>5.4</speed>
<temp>0.00</temp>
<bpm>0</bpm>
<rpm>0.00</rpm>
</extensions>
</trkpt>
<trkpt lat="30.714967728" lon="34.781459808">
<ele>743.453125</ele>
<time>2013-11-21T13:39:09Z</time>
<speed>5.510000</speed>
<extensions>
<speed>5.5</speed>
<temp>0.00</temp>
<bpm>0</bpm>
<rpm>0.00</rpm>
</extensions>
</trkpt>
<trkpt lat="30.714824677" lon="34.781681061">
<ele>745.390625</ele>
<time>2013-11-21T13:39:14Z</time>
<speed>5.520000</speed>
<extensions>
<speed>5.5</speed>
<temp>0.00</temp>
<bpm>0</bpm>
<rpm>0.00</rpm>
</extensions>
</trkpt>
<trkpt lat="30.714649200" lon="34.781906128">
<ele>748.546875</ele>
<time>2013-11-21T13:39:19Z</time>
<speed>5.760000</speed>
<extensions>
<speed>5.8</speed>
<temp>0.00</temp>
<bpm>0</bpm>
<rpm>0.00</rpm>
</extensions>
</trkpt>
<trkpt lat="30.714468002" lon="34.782123566">
<ele>749.781250</ele>
<time>2013-11-21T13:39:24Z</time>
<speed>5.860000</speed>
<extensions>
<speed>5.9</speed>
<temp>0.00</temp>
<bpm>0</bpm>
<rpm>0.00</rpm>
</extensions>
</trkpt>
<trkpt lat="30.714279175" lon="34.782352448">
<ele>749.218750</ele>
<time>2013-11-21T13:39:29Z</time>
<speed>6.440000</speed>
<extensions>
<speed>6.4</speed>
<temp>0.00</temp>
<bpm>0</bpm>
<rpm>0.00</rpm>
</extensions>
</trkpt>
<trkpt lat="30.714075089" lon="34.782638550">
<ele>747.718750</ele>
<time>2013-11-21T13:39:34Z</time>
<speed>7.650000</speed>
<extensions>
<speed>7.7</speed>
<temp>0.00</temp>
<bpm>0</bpm>
<rpm>0.00</rpm>
</extensions>
</trkpt>
<trkpt lat="30.713846207" lon="34.783008575">
<ele>743.828125</ele>
<time>2013-11-21T13:39:39Z</time>
<speed>9.490000</speed>
<extensions>
<speed>9.5</speed>
<temp>0.00</temp>
<bpm>0</bpm>
<rpm>0.00</rpm>
</extensions>
</trkpt>
<trkpt lat="30.713598251" lon="34.783435822">
<ele>741.359375</ele>
<time>2013-11-21T13:39:44Z</time>
<speed>10.280000</speed>
<extensions>
<speed>10.3</speed>
<temp>0.00</temp>
<bpm>0</bpm>
<rpm>0.00</rpm>
</extensions>
</trkpt>
<trkpt lat="30.713302612" lon="34.783905029">
<ele>738.625000</ele>
<time>2013-11-21T13:39:49Z</time>
<speed>11.720000</speed>
<extensions>
<speed>11.7</speed>
<temp>0.00</temp>
<bpm>0</bpm>
<rpm>0.00</rpm>
</extensions>
</trkpt>
<trkpt lat="30.712934494" lon="34.784400940">
<ele>737.500000</ele>
<time>2013-11-21T13:39:54Z</time>
<speed>13.550000</speed>
<extensions>
<speed>13.5</speed>
<temp>0.00</temp>
<bpm>0</bpm>
<rpm>0.00</rpm>
</extensions>
</trkpt>
<trkpt lat="30.712429047" lon="34.784824371">
<ele>731.343750</ele>
<time>2013-11-21T13:39:59Z</time>
<speed>16.130000</speed>
<extensions>
<speed>16.1</speed>
<temp>0.00</temp>
<bpm>0</bpm>
<rpm>0.00</rpm>
</extensions>
</trkpt>
<trkpt lat="30.711759567" lon="34.785068512">
<ele>724.203125</ele>
<time>2013-11-21T13:40:04Z</time>
<speed>16.640000</speed>
<extensions>
<speed>16.6</speed>
<temp>0.00</temp>
<bpm>0</bpm>
<rpm>0.00</rpm>
</extensions>
</trkpt>
<trkpt lat="30.710987091" lon="34.785072327">
<ele>717.140625</ele>
<time>2013-11-21T13:40:09Z</time>
<speed>18.020000</speed>
<extensions>
<speed>18.0</speed>
<temp>0.00</temp>
<bpm>0</bpm>
<rpm>0.00</rpm>
</extensions>
</trkpt>
<trkpt lat="30.710208893" lon="34.784923553">
<ele>712.546875</ele>
<time>2013-11-21T13:40:14Z</time>
<speed>15.930000</speed>
<extensions>
<speed>15.9</speed>
<temp>0.00</temp>
<bpm>0</bpm>
<rpm>0.00</rpm>
</extensions>
</trkpt>
<trkpt lat="30.709543228" lon="34.784778595">
<ele>710.171875</ele>
<time>2013-11-21T13:40:19Z</time>
<speed>13.970000</speed>
<extensions>
<speed>14.0</speed>
<temp>0.00</temp>
<bpm>0</bpm>
<rpm>0.00</rpm>
</extensions>
</trkpt>
<trkpt lat="30.708955765" lon="34.784660339">
<ele>709.375000</ele>
<time>2013-11-21T13:40:24Z</time>
<speed>12.440000</speed>
<extensions>
<speed>12.4</speed>
<temp>0.00</temp>
<bpm>0</bpm>
<rpm>0.00</rpm>
</extensions>
</trkpt>
<trkpt lat="30.708444595" lon="34.784553528">
<ele>710.781250</ele>
<time>2013-11-21T13:40:29Z</time>
<speed>10.920000</speed>
<extensions>
<speed>10.9</speed>
<temp>0.00</temp>
<bpm>0</bpm>
<rpm>0.00</rpm>
</extensions>
</trkpt>
<trkpt lat="30.708011627" lon="34.784469604">
<ele>711.453125</ele>
<time>2013-11-21T13:40:34Z</time>
<speed>9.050001</speed>
<extensions>
<speed>9.1</speed>
<temp>0.00</temp>
<bpm>0</bpm>
<rpm>0.00</rpm>
</extensions>
</trkpt>
<trkpt lat="30.707651138" lon="34.784381866">
<ele>709.218750</ele>
<time>2013-11-21T13:40:39Z</time>
<speed>7.910000</speed>
<extensions>
<speed>7.9</speed>
<temp>0.00</temp>
<bpm>0</bpm>
<rpm>0.00</rpm>
</extensions>
</trkpt>
<trkpt lat="30.707321167" lon="34.784324646">
<ele>709.218750</ele>
<time>2013-11-21T13:40:44Z</time>
<speed>6.910000</speed>
<extensions>
<speed>6.9</speed>
<temp>0.00</temp>
<bpm>0</bpm>
<rpm>0.00</rpm>
</extensions>
</trkpt>
<trkpt lat="30.707040787" lon="34.784286499">
<ele>710.000000</ele>
<time>2013-11-21T13:40:49Z</time>
<speed>5.830000</speed>
<extensions>
<speed>5.8</speed>
<temp>0.00</temp>
<bpm>0</bpm>
<rpm>0.00</rpm>
</extensions>
</trkpt>
<trkpt lat="30.706808090" lon="34.784229279">
<ele>707.562500</ele>
<time>2013-11-21T13:40:54Z</time>
<speed>4.680000</speed>
<extensions>
<speed>4.7</speed>
<temp>0.00</temp>
<bpm>0</bpm>
<rpm>0.00</rpm>
</extensions>
</trkpt>
<trkpt lat="30.706628799" lon="34.784172058">
<ele>706.609375</ele>
<time>2013-11-21T13:40:59Z</time>
<speed>3.410000</speed>
<extensions>
<speed>3.4</speed>
<temp>0.00</temp>
<bpm>0</bpm>
<rpm>0.00</rpm>
</extensions>
</trkpt>
<trkpt lat="30.706521988" lon="34.784133911">
<ele>702.203125</ele>
<time>2013-11-21T13:41:04Z</time>
<speed>2.090000</speed>
<extensions>
<speed>2.1</speed>
<temp>0.00</temp>
<bpm>0</bpm>
<rpm>0.00</rpm>
</extensions>
</trkpt>
<trkpt lat="30.706418991" lon="34.784122467">
<ele>704.281250</ele>
<time>2013-11-21T13:41:09Z</time>
<speed>2.140000</speed>
<extensions>
<speed>2.1</speed>
<temp>0.00</temp>
<bpm>0</bpm>
<rpm>0.00</rpm>
</extensions>
</trkpt>
<trkpt lat="30.706335068" lon="34.784088135">
<ele>708.828125</ele>
<time>2013-11-21T13:41:14Z</time>
<speed>2.160000</speed>
<extensions>
<speed>2.2</speed>
<temp>0.00</temp>
<bpm>0</bpm>
<rpm>0.00</rpm>
</extensions>
</trkpt>
<trkpt lat="30.706228256" lon="34.784069061">
<ele>708.609375</ele>
<time>2013-11-21T13:41:19Z</time>
<speed>2.120000</speed>
<extensions>
<speed>2.1</speed>
<temp>0.00</temp>
<bpm>0</bpm>
<rpm>0.00</rpm>
</extensions>
</trkpt>
<trkpt lat="30.706121445" lon="34.784065247">
<ele>711.406250</ele>
<time>2013-11-21T13:41:24Z</time>
<speed>2.830000</speed>
<extensions>
<speed>2.8</speed>
<temp>0.00</temp>
<bpm>0</bpm>
<rpm>0.00</rpm>
</extensions>
</trkpt>
<trkpt lat="30.706008911" lon="34.784049988">
<ele>713.703125</ele>
<time>2013-11-21T13:41:29Z</time>
<speed>2.930000</speed>
<extensions>
<speed>2.9</speed>
<temp>0.00</temp>
<bpm>0</bpm>
<rpm>0.00</rpm>
</extensions>
</trkpt>
<trkpt lat="30.705883026" lon="34.784011841">
<ele>715.890625</ele>
<time>2013-11-21T13:41:34Z</time>
<speed>2.990000</speed>
<extensions>
<speed>3.0</speed>
<temp>0.00</temp>
<bpm>0</bpm>
<rpm>0.00</rpm>
</extensions>
</trkpt>
<trkpt lat="30.705741882" lon="34.783977509">
<ele>717.234375</ele>
<time>2013-11-21T13:41:39Z</time>
<speed>3.000000</speed>
<extensions>
<speed>3.0</speed>
<temp>0.00</temp>
<bpm>0</bpm>
<rpm>0.00</rpm>
</extensions>
</trkpt>
<trkpt lat="30.705608368" lon="34.783958435">
<ele>718.812500</ele>
<time>2013-11-21T13:41:44Z</time>
<speed>2.970000</speed>
<extensions>
<speed>3.0</speed>
<temp>0.00</temp>
<bpm>0</bpm>
<rpm>0.00</rpm>
</extensions>
</trkpt>
<trkpt lat="30.705516815" lon="34.783939362">
<ele>718.625000</ele>
<time>2013-11-21T13:41:49Z</time>
<speed>1.730000</speed>
<extensions>
<speed>1.7</speed>
<temp>0.00</temp>
<bpm>0</bpm>
<rpm>0.00</rpm>
</extensions>
</trkpt>
<trkpt lat="30.705419540" lon="34.783935547">
<ele>722.406250</ele>
<time>2013-11-21T13:41:54Z</time>
<speed>2.640000</speed>
<extensions>
<speed>2.6</speed>
<temp>0.00</temp>
<bpm>0</bpm>
<rpm>0.00</rpm>
</extensions>
</trkpt>
<trkpt lat="30.705293655" lon="34.783897400">
<ele>722.531250</ele>
<time>2013-11-21T13:41:59Z</time>
<speed>2.650000</speed>
<extensions>
<speed>2.6</speed>
<temp>0.00</temp>
<bpm>0</bpm>
<rpm>0.00</rpm>
</extensions>
</trkpt>
<trkpt lat="30.705167770" lon="34.783878326">
<ele>724.812500</ele>
<time>2013-11-21T13:42:04Z</time>
<speed>2.610000</speed>
<extensions>
<speed>2.6</speed>
<temp>0.00</temp>
<bpm>0</bpm>
<rpm>0.00</rpm>
</extensions>
</trkpt>
<trkpt lat="30.705062866" lon="34.783866882">
<ele>722.843750</ele>
<time>2013-11-21T13:42:09Z</time>
<speed>2.050000</speed>
<extensions>
<speed>2.1</speed>
<temp>0.00</temp>
<bpm>0</bpm>
<rpm>0.00</rpm>
</extensions>
</trkpt>
<trkpt lat="30.704984665" lon="34.783836365">
<ele>724.265625</ele>
<time>2013-11-21T13:42:14Z</time>
<speed>2.430000</speed>
<extensions>
<speed>2.4</speed>
<temp>0.00</temp>
<bpm>0</bpm>
<rpm>0.00</rpm>
</extensions>
</trkpt>
<trkpt lat="30.704870224" lon="34.783805847">
<ele>726.171875</ele>
<time>2013-11-21T13:42:19Z</time>
<speed>2.800000</speed>
<extensions>
<speed>2.8</speed>
<temp>0.00</temp>
<bpm>0</bpm>
<rpm>0.00</rpm>
</extensions>
</trkpt>
<trkpt lat="30.704759598" lon="34.783779144">
<ele>726.546875</ele>
<time>2013-11-21T13:42:24Z</time>
<speed>1.560000</speed>
<extensions>
<speed>1.6</speed>
<temp>0.00</temp>
<bpm>0</bpm>
<rpm>0.00</rpm>
</extensions>
</trkpt>
<trkpt lat="30.704654694" lon="34.783763885">
<ele>726.640625</ele>
<time>2013-11-21T13:42:29Z</time>
<speed>2.750000</speed>
<extensions>
<speed>2.7</speed>
<temp>0.00</temp>
<bpm>0</bpm>
<rpm>0.00</rpm>
</extensions>
</trkpt>
<trkpt lat="30.704540253" lon="34.783737183">
<ele>727.171875</ele>
<time>2013-11-21T13:42:34Z</time>
<speed>2.900000</speed>
<extensions>
<speed>2.9</speed>
<temp>0.00</temp>
<bpm>0</bpm>
<rpm>0.00</rpm>
</extensions>
</trkpt>
<trkpt lat="30.704429626" lon="34.783714294">
<ele>728.031250</ele>
<time>2013-11-21T13:42:39Z</time>
<speed>2.760000</speed>
<extensions>
<speed>2.8</speed>
<temp>0.00</temp>
<bpm>0</bpm>
<rpm>0.00</rpm>
</extensions>
</trkpt>
<trkpt lat="30.704305649" lon="34.783683777">
<ele>727.156250</ele>
<time>2013-11-21T13:42:44Z</time>
<speed>3.070000</speed>
<extensions>
<speed>3.1</speed>
<temp>0.00</temp>
<bpm>0</bpm>
<rpm>0.00</rpm>
</extensions>
</trkpt>
<trkpt lat="30.704177856" lon="34.783660889">
<ele>726.109375</ele>
<time>2013-11-21T13:42:49Z</time>
<speed>2.700000</speed>
<extensions>
<speed>2.7</speed>
<temp>0.00</temp>
<bpm>0</bpm>
<rpm>0.00</rpm>
</extensions>
</trkpt>
<trkpt lat="30.704061508" lon="34.783630371">
<ele>726.031250</ele>
<time>2013-11-21T13:42:54Z</time>
<speed>1.360000</speed>
<extensions>
<speed>1.4</speed>
<temp>0.00</temp>
<bpm>0</bpm>
<rpm>0.00</rpm>
</extensions>
</trkpt>
<trkpt lat="30.703979492" lon="34.783618927">
<ele>723.703125</ele>
<time>2013-11-21T13:42:59Z</time>
<speed>2.640000</speed>
<extensions>
<speed>2.6</speed>
<temp>0.00</temp>
<bpm>0</bpm>
<rpm>0.00</rpm>
</extensions>
</trkpt>
<trkpt lat="30.703836441" lon="34.783596039">
<ele>722.468750</ele>
<time>2013-11-21T13:43:04Z</time>
<speed>2.960000</speed>
<extensions>
<speed>3.0</speed>
<temp>0.00</temp>
<bpm>0</bpm>
<rpm>0.00</rpm>
</extensions>
</trkpt>
<trkpt lat="30.703702927" lon="34.783592224">
<ele>721.812500</ele>
<time>2013-11-21T13:43:09Z</time>
<speed>2.960000</speed>
<extensions>
<speed>3.0</speed>
<temp>0.00</temp>
<bpm>0</bpm>
<rpm>0.00</rpm>
</extensions>
</trkpt>
<trkpt lat="30.703567505" lon="34.783573151">
<ele>722.218750</ele>
<time>2013-11-21T13:43:14Z</time>
<speed>2.370000</speed>
<extensions>
<speed>2.4</speed>
<temp>0.00</temp>
<bpm>0</bpm>
<rpm>0.00</rpm>
</extensions>
</trkpt>
<trkpt lat="30.703479767" lon="34.783565521">
<ele>724.859375</ele>
<time>2013-11-21T13:43:19Z</time>
<speed>2.170000</speed>
<extensions>
<speed>2.2</speed>
<temp>0.00</temp>
<bpm>0</bpm>
<rpm>0.00</rpm>
</extensions>
</trkpt>
<trkpt lat="30.703340530" lon="34.783576965">
<ele>725.609375</ele>
<time>2013-11-21T13:43:24Z</time>
<speed>3.370000</speed>
<extensions>
<speed>3.4</speed>
<temp>0.00</temp>
<bpm>0</bpm>
<rpm>0.00</rpm>
</extensions>
</trkpt>
<trkpt lat="30.703189850" lon="34.783584595">
<ele>724.953125</ele>
<time>2013-11-21T13:43:29Z</time>
<speed>3.450000</speed>
<extensions>
<speed>3.5</speed>
<temp>0.00</temp>
<bpm>0</bpm>
<rpm>0.00</rpm>
</extensions>
</trkpt>
<trkpt lat="30.703025818" lon="34.783584595">
<ele>727.921875</ele>
<time>2013-11-21T13:43:34Z</time>
<speed>3.390000</speed>
<extensions>
<speed>3.4</speed>
<temp>0.00</temp>
<bpm>0</bpm>
<rpm>0.00</rpm>
</extensions>
</trkpt>
<trkpt lat="30.702907562" lon="34.783580780">
<ele>729.515625</ele>
<time>2013-11-21T13:43:39Z</time>
<speed>2.140000</speed>
<extensions>
<speed>2.1</speed>
<temp>0.00</temp>
<bpm>0</bpm>
<rpm>0.00</rpm>
</extensions>
</trkpt>
<trkpt lat="30.702789307" lon="34.783599854">
<ele>732.796875</ele>
<time>2013-11-21T13:43:44Z</time>
<speed>3.080000</speed>
<extensions>
<speed>3.1</speed>
<temp>0.00</temp>
<bpm>0</bpm>
<rpm>0.00</rpm>
</extensions>
</trkpt>
<trkpt lat="30.702640533" lon="34.783596039">
<ele>733.562500</ele>
<time>2013-11-21T13:43:49Z</time>
<speed>3.170000</speed>
<extensions>
<speed>3.2</speed>
<temp>0.00</temp>
<bpm>0</bpm>
<rpm>0.00</rpm>
</extensions>
</trkpt>
<trkpt lat="30.702505112" lon="34.783611298">
<ele>736.031250</ele>
<time>2013-11-21T13:43:54Z</time>
<speed>2.980000</speed>
<extensions>
<speed>3.0</speed>
<temp>0.00</temp>
<bpm>0</bpm>
<rpm>0.00</rpm>
</extensions>
</trkpt>
<trkpt lat="30.702350616" lon="34.783611298">
<ele>735.906250</ele>
<time>2013-11-21T13:43:59Z</time>
<speed>3.310000</speed>
<extensions>
<speed>3.3</speed>
<temp>0.00</temp>
<bpm>0</bpm>
<rpm>0.00</rpm>
</extensions>
</trkpt>
<trkpt lat="30.702234268" lon="34.783615112">
<ele>734.640625</ele>
<time>2013-11-21T13:44:04Z</time>
<speed>2.370000</speed>
<extensions>
<speed>2.4</speed>
<temp>0.00</temp>
<bpm>0</bpm>
<rpm>0.00</rpm>
</extensions>
</trkpt>
<trkpt lat="30.702089310" lon="34.783603668">
<ele>738.187500</ele>
<time>2013-11-21T13:44:09Z</time>
<speed>3.170000</speed>
<extensions>
<speed>3.2</speed>
<temp>0.00</temp>
<bpm>0</bpm>
<rpm>0.00</rpm>
</extensions>
</trkpt>
<trkpt lat="30.701993942" lon="34.783603668">
<ele>738.687500</ele>
<time>2013-11-21T13:44:14Z</time>
<speed>1.820000</speed>
<extensions>
<speed>1.8</speed>
<temp>0.00</temp>
<bpm>0</bpm>
<rpm>0.00</rpm>
</extensions>
</trkpt>
<trkpt lat="30.701862335" lon="34.783607483">
<ele>737.437500</ele>
<time>2013-11-21T13:44:19Z</time>
<speed>3.400000</speed>
<extensions>
<speed>3.4</speed>
<temp>0.00</temp>
<bpm>0</bpm>
<rpm>0.00</rpm>
</extensions>
</trkpt>
<trkpt lat="30.701692581" lon="34.783618927">
<ele>735.921875</ele>
<time>2013-11-21T13:44:24Z</time>
<speed>3.490000</speed>
<extensions>
<speed>3.5</speed>
<temp>0.00</temp>
<bpm>0</bpm>
<rpm>0.00</rpm>
</extensions>
</trkpt>
<trkpt lat="30.701578140" lon="34.783626556">
<ele>736.453125</ele>
<time>2013-11-21T13:44:29Z</time>
<speed>2.010000</speed>
<extensions>
<speed>2.0</speed>
<temp>0.00</temp>
<bpm>0</bpm>
<rpm>0.00</rpm>
</extensions>
</trkpt>
<trkpt lat="30.701478958" lon="34.783630371">
<ele>734.828125</ele>
<time>2013-11-21T13:44:34Z</time>
<speed>2.450000</speed>
<extensions>
<speed>2.4</speed>
<temp>0.00</temp>
<bpm>0</bpm>
<rpm>0.00</rpm>
</extensions>
</trkpt>
<trkpt lat="30.701335907" lon="34.783641815">
<ele>734.453125</ele>
<time>2013-11-21T13:44:39Z</time>
<speed>3.550000</speed>
<extensions>
<speed>3.5</speed>
<temp>0.00</temp>
<bpm>0</bpm>
<rpm>0.00</rpm>
</extensions>
</trkpt>
<trkpt lat="30.701187134" lon="34.783611298">
<ele>734.265625</ele>
<time>2013-11-21T13:44:44Z</time>
<speed>3.110000</speed>
<extensions>
<speed>3.1</speed>
<temp>0.00</temp>
<bpm>0</bpm>
<rpm>0.00</rpm>
</extensions>
</trkpt>
<trkpt lat="30.701047897" lon="34.783615112">
<ele>734.500000</ele>
<time>2013-11-21T13:44:49Z</time>
<speed>3.240000</speed>
<extensions>
<speed>3.2</speed>
<temp>0.00</temp>
<bpm>0</bpm>
<rpm>0.00</rpm>
</extensions>
</trkpt>
<trkpt lat="30.700883865" lon="34.783618927">
<ele>737.328125</ele>
<time>2013-11-21T13:44:54Z</time>
<speed>3.800000</speed>
<extensions>
<speed>3.8</speed>
<temp>0.00</temp>
<bpm>0</bpm>
<rpm>0.00</rpm>
</extensions>
</trkpt>
<trkpt lat="30.700708389" lon="34.783599854">
<ele>736.250000</ele>
<time>2013-11-21T13:44:59Z</time>
<speed>2.530000</speed>
<extensions>
<speed>2.5</speed>
<temp>0.00</temp>
<bpm>0</bpm>
<rpm>0.00</rpm>
</extensions>
</trkpt>
<trkpt lat="30.700628281" lon="34.783599854">
<ele>736.421875</ele>
<time>2013-11-21T13:45:04Z</time>
<speed>2.010000</speed>
<extensions>
<speed>2.0</speed>
<temp>0.00</temp>
<bpm>0</bpm>
<rpm>0.00</rpm>
</extensions>
</trkpt>
<trkpt lat="30.700468063" lon="34.783607483">
<ele>735.125000</ele>
<time>2013-11-21T13:45:09Z</time>
<speed>3.890000</speed>
<extensions>
<speed>3.9</speed>
<temp>0.00</temp>
<bpm>0</bpm>
<rpm>0.00</rpm>
</extensions>
</trkpt>
<trkpt lat="30.700309753" lon="34.783599854">
<ele>738.250000</ele>
<time>2013-11-21T13:45:14Z</time>
<speed>3.780000</speed>
<extensions>
<speed>3.8</speed>
<temp>0.00</temp>
<bpm>0</bpm>
<rpm>0.00</rpm>
</extensions>
</trkpt>
<trkpt lat="30.700126648" lon="34.783580780">
<ele>738.234375</ele>
<time>2013-11-21T13:45:19Z</time>
<speed>3.680000</speed>
<extensions>
<speed>3.7</speed>
<temp>0.00</temp>
<bpm>0</bpm>
<rpm>0.00</rpm>
</extensions>
</trkpt>
<trkpt lat="30.699987411" lon="34.783588409">
<ele>739.796875</ele>
<time>2013-11-21T13:45:24Z</time>
<speed>2.060000</speed>
<extensions>
<speed>2.1</speed>
<temp>0.00</temp>
<bpm>0</bpm>
<rpm>0.00</rpm>
</extensions>
</trkpt>
<trkpt lat="30.699874878" lon="34.783584595">
<ele>740.625000</ele>
<time>2013-11-21T13:45:29Z</time>
<speed>3.380000</speed>
<extensions>
<speed>3.4</speed>
<temp>0.00</temp>
<bpm>0</bpm>
<rpm>0.00</rpm>
</extensions>
</trkpt>
<trkpt lat="30.699720383" lon="34.783596039">
<ele>740.031250</ele>
<time>2013-11-21T13:45:34Z</time>
<speed>3.140000</speed>
<extensions>
<speed>3.1</speed>
<temp>0.00</temp>
<bpm>0</bpm>
<rpm>0.00</rpm>
</extensions>
</trkpt>
<trkpt lat="30.699594498" lon="34.783611298">
<ele>740.546875</ele>
<time>2013-11-21T13:45:39Z</time>
<speed>2.770000</speed>
<extensions>
<speed>2.8</speed>
<temp>0.00</temp>
<bpm>0</bpm>
<rpm>0.00</rpm>
</extensions>
</trkpt>
<trkpt lat="30.699438095" lon="34.783615112">
<ele>741.078125</ele>
<time>2013-11-21T13:45:44Z</time>
<speed>3.440000</speed>
<extensions>
<speed>3.4</speed>
<temp>0.00</temp>
<bpm>0</bpm>
<rpm>0.00</rpm>
</extensions>
</trkpt>
<trkpt lat="30.699298859" lon="34.783615112">
<ele>739.781250</ele>
<time>2013-11-21T13:45:49Z</time>
<speed>2.460000</speed>
<extensions>
<speed>2.5</speed>
<temp>0.00</temp>
<bpm>0</bpm>
<rpm>0.00</rpm>
</extensions>
</trkpt>
<trkpt lat="30.699209213" lon="34.783615112">
<ele>738.171875</ele>
<time>2013-11-21T13:45:54Z</time>
<speed>1.640000</speed>
<extensions>
<speed>1.6</speed>
<temp>0.00</temp>
<bpm>0</bpm>
<rpm>0.00</rpm>
</extensions>
</trkpt>
<trkpt lat="30.699140549" lon="34.783626556">
<ele>738.359375</ele>
<time>2013-11-21T13:45:59Z</time>
<speed>1.180000</speed>
<extensions>
<speed>1.2</speed>
<temp>0.00</temp>
<bpm>0</bpm>
<rpm>0.00</rpm>
</extensions>
</trkpt>
<trkpt lat="30.699029922" lon="34.783653259">
<ele>740.093750</ele>
<time>2013-11-21T13:46:04Z</time>
<speed>3.360000</speed>
<extensions>
<speed>3.4</speed>
<temp>0.00</temp>
<bpm>0</bpm>
<rpm>0.00</rpm>
</extensions>
</trkpt>
<trkpt lat="30.698860168" lon="34.783683777">
<ele>743.234375</ele>
<time>2013-11-21T13:46:09Z</time>
<speed>3.100000</speed>
<extensions>
<speed>3.1</speed>
<temp>0.00</temp>
<bpm>0</bpm>
<rpm>0.00</rpm>
</extensions>
</trkpt>
<trkpt lat="30.698705673" lon="34.783721924">
<ele>745.265625</ele>
<time>2013-11-21T13:46:14Z</time>
<speed>3.130000</speed>
<extensions>
<speed>3.1</speed>
<temp>0.00</temp>
<bpm>0</bpm>
<rpm>0.00</rpm>
</extensions>
</trkpt>
<trkpt lat="30.698507309" lon="34.783802032">
<ele>750.203125</ele>
<time>2013-11-21T13:46:19Z</time>
<speed>4.330000</speed>
<extensions>
<speed>4.3</speed>
<temp>0.00</temp>
<bpm>0</bpm>
<rpm>0.00</rpm>
</extensions>
</trkpt>
<trkpt lat="30.698310852" lon="34.783885956">
<ele>752.265625</ele>
<time>2013-11-21T13:46:24Z</time>
<speed>4.320000</speed>
<extensions>
<speed>4.3</speed>
<temp>0.00</temp>
<bpm>0</bpm>
<rpm>0.00</rpm>
</extensions>
</trkpt>
<trkpt lat="30.698135376" lon="34.783981323">
<ele>754.875000</ele>
<time>2013-11-21T13:46:29Z</time>
<speed>4.330000</speed>
<extensions>
<speed>4.3</speed>
<temp>0.00</temp>
<bpm>0</bpm>
<rpm>0.00</rpm>
</extensions>
</trkpt>
<trkpt lat="30.697952271" lon="34.784095764">
<ele>751.078125</ele>
<time>2013-11-21T13:46:34Z</time>
<speed>5.480000</speed>
<extensions>
<speed>5.5</speed>
<temp>0.00</temp>
<bpm>0</bpm>
<rpm>0.00</rpm>
</extensions>
</trkpt>
<trkpt lat="30.697729111" lon="34.784244537">
<ele>746.359375</ele>
<time>2013-11-21T13:46:39Z</time>
<speed>6.170000</speed>
<extensions>
<speed>6.2</speed>
<temp>0.00</temp>
<bpm>0</bpm>
<rpm>0.00</rpm>
</extensions>
</trkpt>
<trkpt lat="30.697435379" lon="34.784427643">
<ele>744.281250</ele>
<time>2013-11-21T13:46:44Z</time>
<speed>7.700000</speed>
<extensions>
<speed>7.7</speed>
<temp>0.00</temp>
<bpm>0</bpm>
<rpm>0.00</rpm>
</extensions>
</trkpt>
<trkpt lat="30.697124481" lon="34.784610748">
<ele>743.531250</ele>
<time>2013-11-21T13:46:49Z</time>
<speed>7.290000</speed>
<extensions>
<speed>7.3</speed>
<temp>0.00</temp>
<bpm>0</bpm>
<rpm>0.00</rpm>
</extensions>
</trkpt>
<trkpt lat="30.696846008" lon="34.784751892">
<ele>742.343750</ele>
<time>2013-11-21T13:46:54Z</time>
<speed>5.620000</speed>
<extensions>
<speed>5.6</speed>
<temp>0.00</temp>
<bpm>0</bpm>
<rpm>0.00</rpm>
</extensions>
</trkpt>
<trkpt lat="30.696685791" lon="34.784790039">
<ele>737.203125</ele>
<time>2013-11-21T13:46:59Z</time>
<speed>3.300000</speed>
<extensions>
<speed>3.3</speed>
<temp>0.00</temp>
<bpm>0</bpm>
<rpm>0.00</rpm>
</extensions>
</trkpt>
<trkpt lat="30.696580887" lon="34.784820557">
<ele>733.609375</ele>
<time>2013-11-21T13:47:04Z</time>
<speed>2.830000</speed>
<extensions>
<speed>2.8</speed>
<temp>0.00</temp>
<bpm>0</bpm>
<rpm>0.00</rpm>
</extensions>
</trkpt>
<trkpt lat="30.696470261" lon="34.784832001">
<ele>730.937500</ele>
<time>2013-11-21T13:47:09Z</time>
<speed>2.420000</speed>
<extensions>
<speed>2.4</speed>
<temp>0.00</temp>
<bpm>0</bpm>
<rpm>0.00</rpm>
</extensions>
</trkpt>
<trkpt lat="30.696359634" lon="34.784843445">
<ele>728.421875</ele>
<time>2013-11-21T13:47:14Z</time>
<speed>2.560000</speed>
<extensions>
<speed>2.6</speed>
<temp>0.00</temp>
<bpm>0</bpm>
<rpm>0.00</rpm>
</extensions>
</trkpt>
<trkpt lat="30.696247101" lon="34.784843445">
<ele>725.468750</ele>
<time>2013-11-21T13:47:19Z</time>
<speed>2.620000</speed>
<extensions>
<speed>2.6</speed>
<temp>0.00</temp>
<bpm>0</bpm>
<rpm>0.00</rpm>
</extensions>
</trkpt>
<trkpt lat="30.696128845" lon="34.784851074">
<ele>723.984375</ele>
<time>2013-11-21T13:47:24Z</time>
<speed>2.360000</speed>
<extensions>
<speed>2.4</speed>
<temp>0.00</temp>
<bpm>0</bpm>
<rpm>0.00</rpm>
</extensions>
</trkpt>
<trkpt lat="30.696029663" lon="34.784862518">
<ele>725.046875</ele>
<time>2013-11-21T13:47:29Z</time>
<speed>2.350000</speed>
<extensions>
<speed>2.4</speed>
<temp>0.00</temp>
<bpm>0</bpm>
<rpm>0.00</rpm>
</extensions>
</trkpt>
<trkpt lat="30.695901871" lon="34.784866333">
<ele>726.390625</ele>
<time>2013-11-21T13:47:34Z</time>
<speed>2.570000</speed>
<extensions>
<speed>2.6</speed>
<temp>0.00</temp>
<bpm>0</bpm>
<rpm>0.00</rpm>
</extensions>
</trkpt>
<trkpt lat="30.695804596" lon="34.784885406">
<ele>725.640625</ele>
<time>2013-11-21T13:47:39Z</time>
<speed>2.120000</speed>
<extensions>
<speed>2.1</speed>
<temp>0.00</temp>
<bpm>0</bpm>
<rpm>0.00</rpm>
</extensions>
</trkpt>
<trkpt lat="30.695695877" lon="34.784877777">
<ele>726.078125</ele>
<time>2013-11-21T13:47:44Z</time>
<speed>1.720000</speed>
<extensions>
<speed>1.7</speed>
<temp>0.00</temp>
<bpm>0</bpm>
<rpm>0.00</rpm>
</extensions>
</trkpt>
<trkpt lat="30.695648193" lon="34.784854889">
<ele>724.453125</ele>
<time>2013-11-21T13:47:49Z</time>
<speed>0.940000</speed>
<extensions>
<speed>0.9</speed>
<temp>0.00</temp>
<bpm>0</bpm>
<rpm>0.00</rpm>
</extensions>
</trkpt>
<trkpt lat="30.695610046" lon="34.784839630">
<ele>725.906250</ele>
<time>2013-11-21T13:47:54Z</time>
<speed>1.290000</speed>
<extensions>
<speed>1.3</speed>
<temp>0.00</temp>
<bpm>0</bpm>
<rpm>0.00</rpm>
</extensions>
</trkpt>
<trkpt lat="30.695562363" lon="34.784843445">
<ele>727.421875</ele>
<time>2013-11-21T13:47:59Z</time>
<speed>1.660000</speed>
<extensions>
<speed>1.7</speed>
<temp>0.00</temp>
<bpm>0</bpm>
<rpm>0.00</rpm>
</extensions>
</trkpt>
<trkpt lat="30.695478439" lon="34.784851074">
<ele>727.015625</ele>
<time>2013-11-21T13:48:04Z</time>
<speed>1.840000</speed>
<extensions>
<speed>1.8</speed>
<temp>0.00</temp>
<bpm>0</bpm>
<rpm>0.00</rpm>
</extensions>
</trkpt>
<trkpt lat="30.695394516" lon="34.784843445">
<ele>727.140625</ele>
<time>2013-11-21T13:48:09Z</time>
<speed>1.800000</speed>
<extensions>
<speed>1.8</speed>
<temp>0.00</temp>
<bpm>0</bpm>
<rpm>0.00</rpm>
</extensions>
</trkpt>
<trkpt lat="30.695308685" lon="34.784847260">
<ele>728.609375</ele>
<time>2013-11-21T13:48:14Z</time>
<speed>1.850000</speed>
<extensions>
<speed>1.8</speed>
<temp>0.00</temp>
<bpm>0</bpm>
<rpm>0.00</rpm>
</extensions>
</trkpt>
<trkpt lat="30.695255280" lon="34.784858704">
<ele>729.281250</ele>
<time>2013-11-21T13:48:19Z</time>
<speed>1.320000</speed>
<extensions>
<speed>1.3</speed>
<temp>0.00</temp>
<bpm>0</bpm>
<rpm>0.00</rpm>
</extensions>
</trkpt>
<trkpt lat="30.695173264" lon="34.784854889">
<ele>730.500000</ele>
<time>2013-11-21T13:48:24Z</time>
<speed>2.240000</speed>
<extensions>
<speed>2.2</speed>
<temp>0.00</temp>
<bpm>0</bpm>
<rpm>0.00</rpm>
</extensions>
</trkpt>
<trkpt lat="30.695077896" lon="34.784843445">
<ele>730.203125</ele>
<time>2013-11-21T13:48:29Z</time>
<speed>1.750000</speed>
<extensions>
<speed>1.8</speed>
<temp>0.00</temp>
<bpm>0</bpm>
<rpm>0.00</rpm>
</extensions>
</trkpt>
<trkpt lat="30.695020676" lon="34.784847260">
<ele>731.921875</ele>
<time>2013-11-21T13:48:34Z</time>
<speed>1.330000</speed>
<extensions>
<speed>1.3</speed>
<temp>0.00</temp>
<bpm>0</bpm>
<rpm>0.00</rpm>
</extensions>
</trkpt>
<trkpt lat="30.694932938" lon="34.784839630">
<ele>732.625000</ele>
<time>2013-11-21T13:48:39Z</time>
<speed>1.650000</speed>
<extensions>
<speed>1.7</speed>
<temp>0.00</temp>
<bpm>0</bpm>
<rpm>0.00</rpm>
</extensions>
</trkpt>
<trkpt lat="30.694849014" lon="34.784839630">
<ele>733.828125</ele>
<time>2013-11-21T13:48:44Z</time>
<speed>1.910000</speed>
<extensions>
<speed>1.9</speed>
<temp>0.00</temp>
<bpm>0</bpm>
<rpm>0.00</rpm>
</extensions>
</trkpt>
<trkpt lat="30.694757462" lon="34.784851074">
<ele>736.312500</ele>
<time>2013-11-21T13:48:49Z</time>
<speed>1.910000</speed>
<extensions>
<speed>1.9</speed>
<temp>0.00</temp>
<bpm>0</bpm>
<rpm>0.00</rpm>
</extensions>
</trkpt>
<trkpt lat="30.694675446" lon="34.784851074">
<ele>737.453125</ele>
<time>2013-11-21T13:48:54Z</time>
<speed>1.020000</speed>
<extensions>
<speed>1.0</speed>
<temp>0.00</temp>
<bpm>0</bpm>
<rpm>0.00</rpm>
</extensions>
</trkpt>
<trkpt lat="30.694601059" lon="34.784847260">
<ele>737.703125</ele>
<time>2013-11-21T13:48:59Z</time>
<speed>2.100000</speed>
<extensions>
<speed>2.1</speed>
<temp>0.00</temp>
<bpm>0</bpm>
<rpm>0.00</rpm>
</extensions>
</trkpt>
<trkpt lat="30.694519043" lon="34.784858704">
<ele>739.609375</ele>
<time>2013-11-21T13:49:04Z</time>
<speed>1.700000</speed>
<extensions>
<speed>1.7</speed>
<temp>0.00</temp>
<bpm>0</bpm>
<rpm>0.00</rpm>
</extensions>
</trkpt>
<trkpt lat="30.694440842" lon="34.784858704">
<ele>740.375000</ele>
<time>2013-11-21T13:49:09Z</time>
<speed>1.700000</speed>
<extensions>
<speed>1.7</speed>
<temp>0.00</temp>
<bpm>0</bpm>
<rpm>0.00</rpm>
</extensions>
</trkpt>
<trkpt lat="30.694355011" lon="34.784832001">
<ele>742.187500</ele>
<time>2013-11-21T13:49:14Z</time>
<speed>1.830000</speed>
<extensions>
<speed>1.8</speed>
<temp>0.00</temp>
<bpm>0</bpm>
<rpm>0.00</rpm>
</extensions>
</trkpt>
<trkpt lat="30.694253922" lon="34.784835815">
<ele>744.203125</ele>
<time>2013-11-21T13:49:19Z</time>
<speed>1.940000</speed>
<extensions>
<speed>1.9</speed>
<temp>0.00</temp>
<bpm>0</bpm>
<rpm>0.00</rpm>
</extensions>
</trkpt>
<trkpt lat="30.694149017" lon="34.784847260">
<ele>745.640625</ele>
<time>2013-11-21T13:49:24Z</time>
<speed>1.980000</speed>
<extensions>
<speed>2.0</speed>
<temp>0.00</temp>
<bpm>0</bpm>
<rpm>0.00</rpm>
</extensions>
</trkpt>
<trkpt lat="30.694080353" lon="34.784843445">
<ele>747.812500</ele>
<time>2013-11-21T13:49:29Z</time>
<speed>1.220000</speed>
<extensions>
<speed>1.2</speed>
<temp>0.00</temp>
<bpm>0</bpm>
<rpm>0.00</rpm>
</extensions>
</trkpt>
<trkpt lat="30.693998337" lon="34.784835815">
<ele>747.781250</ele>
<time>2013-11-21T13:49:34Z</time>
<speed>1.960000</speed>
<extensions>
<speed>2.0</speed>
<temp>0.00</temp>
<bpm>0</bpm>
<rpm>0.00</rpm>
</extensions>
</trkpt>
<trkpt lat="30.693935394" lon="34.784828186">
<ele>747.828125</ele>
<time>2013-11-21T13:49:39Z</time>
<speed>1.130000</speed>
<extensions>
<speed>1.1</speed>
<temp>0.00</temp>
<bpm>0</bpm>
<rpm>0.00</rpm>
</extensions>
</trkpt>
<trkpt lat="30.693855286" lon="34.784824371">
<ele>746.265625</ele>
<time>2013-11-21T13:49:44Z</time>
<speed>1.950000</speed>
<extensions>
<speed>1.9</speed>
<temp>0.00</temp>
<bpm>0</bpm>
<rpm>0.00</rpm>
</extensions>
</trkpt>
<trkpt lat="30.693761826" lon="34.784832001">
<ele>745.390625</ele>
<time>2013-11-21T13:49:49Z</time>
<speed>2.030000</speed>
<extensions>
<speed>2.0</speed>
<temp>0.00</temp>
<bpm>0</bpm>
<rpm>0.00</rpm>
</extensions>
</trkpt>
<trkpt lat="30.693653107" lon="34.784828186">
<ele>747.687500</ele>
<time>2013-11-21T13:49:54Z</time>
<speed>2.100000</speed>
<extensions>
<speed>2.1</speed>
<temp>0.00</temp>
<bpm>0</bpm>
<rpm>0.00</rpm>
</extensions>
</trkpt>
<trkpt lat="30.693515778" lon="34.784832001">
<ele>749.250000</ele>
<time>2013-11-21T13:49:59Z</time>
<speed>2.250000</speed>
<extensions>
<speed>2.3</speed>
<temp>0.00</temp>
<bpm>0</bpm>
<rpm>0.00</rpm>
</extensions>
</trkpt>
<trkpt lat="30.693449020" lon="34.784839630">
<ele>751.671875</ele>
<time>2013-11-21T13:50:04Z</time>
<speed>2.030000</speed>
<extensions>
<speed>2.0</speed>
<temp>0.00</temp>
<bpm>0</bpm>
<rpm>0.00</rpm>
</extensions>
</trkpt>
<trkpt lat="30.693347931" lon="34.784847260">
<ele>753.781250</ele>
<time>2013-11-21T13:50:09Z</time>
<speed>2.210000</speed>
<extensions>
<speed>2.2</speed>
<temp>0.00</temp>
<bpm>0</bpm>
<rpm>0.00</rpm>
</extensions>
</trkpt>
<trkpt lat="30.693269730" lon="34.784847260">
<ele>755.562500</ele>
<time>2013-11-21T13:50:14Z</time>
<speed>1.820000</speed>
<extensions>
<speed>1.8</speed>
<temp>0.00</temp>
<bpm>0</bpm>
<rpm>0.00</rpm>
</extensions>
</trkpt>
<trkpt lat="30.693187714" lon="34.784854889">
<ele>757.046875</ele>
<time>2013-11-21T13:50:19Z</time>
<speed>1.460000</speed>
<extensions>
<speed>1.5</speed>
<temp>0.00</temp>
<bpm>0</bpm>
<rpm>0.00</rpm>
</extensions>
</trkpt>
<trkpt lat="30.693107605" lon="34.784847260">
<ele>758.359375</ele>
<time>2013-11-21T13:50:24Z</time>
<speed>1.990000</speed>
<extensions>
<speed>2.0</speed>
<temp>0.00</temp>
<bpm>0</bpm>
<rpm>0.00</rpm>
</extensions>
</trkpt>
<trkpt lat="30.693056107" lon="34.784843445">
<ele>759.562500</ele>
<time>2013-11-21T13:50:29Z</time>
<speed>1.440000</speed>
<extensions>
<speed>1.4</speed>
<temp>0.00</temp>
<bpm>0</bpm>
<rpm>0.00</rpm>
</extensions>
</trkpt>
<trkpt lat="30.692977905" lon="34.784847260">
<ele>760.390625</ele>
<time>2013-11-21T13:50:34Z</time>
<speed>2.020000</speed>
<extensions>
<speed>2.0</speed>
<temp>0.00</temp>
<bpm>0</bpm>
<rpm>0.00</rpm>
</extensions>
</trkpt>
<trkpt lat="30.692892075" lon="34.784832001">
<ele>759.703125</ele>
<time>2013-11-21T13:50:39Z</time>
<speed>1.630000</speed>
<extensions>
<speed>1.6</speed>
<temp>0.00</temp>
<bpm>0</bpm>
<rpm>0.00</rpm>
</extensions>
</trkpt>
<trkpt lat="30.692827225" lon="34.784839630">
<ele>760.781250</ele>
<time>2013-11-21T13:50:44Z</time>
<speed>2.200000</speed>
<extensions>
<speed>2.2</speed>
<temp>0.00</temp>
<bpm>0</bpm>
<rpm>0.00</rpm>
</extensions>
</trkpt>
<trkpt lat="30.692754745" lon="34.784835815">
<ele>761.406250</ele>
<time>2013-11-21T13:50:49Z</time>
<speed>1.920000</speed>
<extensions>
<speed>1.9</speed>
<temp>0.00</temp>
<bpm>0</bpm>
<rpm>0.00</rpm>
</extensions>
</trkpt>
<trkpt lat="30.692686081" lon="34.784832001">
<ele>760.187500</ele>
<time>2013-11-21T13:50:54Z</time>
<speed>1.650000</speed>
<extensions>
<speed>1.7</speed>
<temp>0.00</temp>
<bpm>0</bpm>
<rpm>0.00</rpm>
</extensions>
</trkpt>
<trkpt lat="30.692605972" lon="34.784851074">
<ele>759.781250</ele>
<time>2013-11-21T13:50:59Z</time>
<speed>1.960000</speed>
<extensions>
<speed>2.0</speed>
<temp>0.00</temp>
<bpm>0</bpm>
<rpm>0.00</rpm>
</extensions>
</trkpt>
<trkpt lat="30.692525864" lon="34.784851074">
<ele>759.718750</ele>
<time>2013-11-21T13:51:04Z</time>
<speed>1.830000</speed>
<extensions>
<speed>1.8</speed>
<temp>0.00</temp>
<bpm>0</bpm>
<rpm>0.00</rpm>
</extensions>
</trkpt>
<trkpt lat="30.692447662" lon="34.784851074">
<ele>758.718750</ele>
<time>2013-11-21T13:51:09Z</time>
<speed>2.340000</speed>
<extensions>
<speed>2.3</speed>
<temp>0.00</temp>
<bpm>0</bpm>
<rpm>0.00</rpm>
</extensions>
</trkpt>
<trkpt lat="30.692361832" lon="34.784847260">
<ele>759.906250</ele>
<time>2013-11-21T13:51:14Z</time>
<speed>1.530000</speed>
<extensions>
<speed>1.5</speed>
<temp>0.00</temp>
<bpm>0</bpm>
<rpm>0.00</rpm>
</extensions>
</trkpt>
<trkpt lat="30.692279816" lon="34.784858704">
<ele>759.906250</ele>
<time>2013-11-21T13:51:19Z</time>
<speed>1.820000</speed>
<extensions>
<speed>1.8</speed>
<temp>0.00</temp>
<bpm>0</bpm>
<rpm>0.00</rpm>
</extensions>
</trkpt>
<trkpt lat="30.692188263" lon="34.784893036">
<ele>760.437500</ele>
<time>2013-11-21T13:51:24Z</time>
<speed>2.100000</speed>
<extensions>
<speed>2.1</speed>
<temp>0.00</temp>
<bpm>0</bpm>
<rpm>0.00</rpm>
</extensions>
</trkpt>
<trkpt lat="30.692096710" lon="34.784927368">
<ele>762.625000</ele>
<time>2013-11-21T13:51:29Z</time>
<speed>1.680000</speed>
<extensions>
<speed>1.7</speed>
<temp>0.00</temp>
<bpm>0</bpm>
<rpm>0.00</rpm>
</extensions>
</trkpt>
<trkpt lat="30.691999435" lon="34.784965515">
<ele>762.593750</ele>
<time>2013-11-21T13:51:34Z</time>
<speed>2.650000</speed>
<extensions>
<speed>2.6</speed>
<temp>0.00</temp>
<bpm>0</bpm>
<rpm>0.00</rpm>
</extensions>
</trkpt>
<trkpt lat="30.691894531" lon="34.785003662">
<ele>763.015625</ele>
<time>2013-11-21T13:51:39Z</time>
<speed>2.580000</speed>
<extensions>
<speed>2.6</speed>
<temp>0.00</temp>
<bpm>0</bpm>
<rpm>0.00</rpm>
</extensions>
</trkpt>
<trkpt lat="30.691837311" lon="34.785041809">
<ele>763.687500</ele>
<time>2013-11-21T13:51:44Z</time>
<speed>0.430000</speed>
<extensions>
<speed>0.4</speed>
<temp>0.00</temp>
<bpm>0</bpm>
<rpm>0.00</rpm>
</extensions>
</trkpt>
<trkpt lat="30.691776276" lon="34.785068512">
<ele>763.703125</ele>
<time>2013-11-21T13:51:49Z</time>
<speed>2.080000</speed>
<extensions>
<speed>2.1</speed>
<temp>0.00</temp>
<bpm>0</bpm>
<rpm>0.00</rpm>
</extensions>
</trkpt>
<trkpt lat="30.691724777" lon="34.785095215">
<ele>765.359375</ele>
<time>2013-11-21T13:51:54Z</time>
<speed>0.810000</speed>
<extensions>
<speed>0.8</speed>
<temp>0.00</temp>
<bpm>0</bpm>
<rpm>0.00</rpm>
</extensions>
</trkpt>
<trkpt lat="30.691696167" lon="34.785118103">
<ele>764.359375</ele>
<time>2013-11-21T13:51:59Z</time>
<speed>0.310000</speed>
<extensions>
<speed>0.3</speed>
<temp>0.00</temp>
<bpm>0</bpm>
<rpm>0.00</rpm>
</extensions>
</trkpt>
<trkpt lat="30.691661835" lon="34.785152435">
<ele>764.109375</ele>
<time>2013-11-21T13:52:04Z</time>
<speed>1.140000</speed>
<extensions>
<speed>1.1</speed>
<temp>0.00</temp>
<bpm>0</bpm>
<rpm>0.00</rpm>
</extensions>
</trkpt>
<trkpt lat="30.691591263" lon="34.785202026">
<ele>763.484375</ele>
<time>2013-11-21T13:52:09Z</time>
<speed>1.880000</speed>
<extensions>
<speed>1.9</speed>
<temp>0.00</temp>
<bpm>0</bpm>
<rpm>0.00</rpm>
</extensions>
</trkpt>
<trkpt lat="30.691549301" lon="34.785240173">
<ele>763.359375</ele>
<time>2013-11-21T13:52:14Z</time>
<speed>1.680000</speed>
<extensions>
<speed>1.7</speed>
<temp>0.00</temp>
<bpm>0</bpm>
<rpm>0.00</rpm>
</extensions>
</trkpt>
<trkpt lat="30.691442490" lon="34.785331726">
<ele>764.078125</ele>
<time>2013-11-21T13:52:19Z</time>
<speed>2.380000</speed>
<extensions>
<speed>2.4</speed>
<temp>0.00</temp>
<bpm>0</bpm>
<rpm>0.00</rpm>
</extensions>
</trkpt>
<trkpt lat="30.691364288" lon="34.785392761">
<ele>764.546875</ele>
<time>2013-11-21T13:52:24Z</time>
<speed>1.670000</speed>
<extensions>
<speed>1.7</speed>
<temp>0.00</temp>
<bpm>0</bpm>
<rpm>0.00</rpm>
</extensions>
</trkpt>
<trkpt lat="30.691265106" lon="34.785488129">
<ele>766.218750</ele>
<time>2013-11-21T13:52:29Z</time>
<speed>2.930000</speed>
<extensions>
<speed>2.9</speed>
<temp>0.00</temp>
<bpm>0</bpm>
<rpm>0.00</rpm>
</extensions>
</trkpt>
<trkpt lat="30.691177368" lon="34.785583496">
<ele>770.312500</ele>
<time>2013-11-21T13:52:34Z</time>
<speed>2.930000</speed>
<extensions>
<speed>2.9</speed>
<temp>0.00</temp>
<bpm>0</bpm>
<rpm>0.00</rpm>
</extensions>
</trkpt>
<trkpt lat="30.691064835" lon="34.785720825">
<ele>772.703125</ele>
<time>2013-11-21T13:52:39Z</time>
<speed>2.950000</speed>
<extensions>
<speed>2.9</speed>
<temp>0.00</temp>
<bpm>0</bpm>
<rpm>0.00</rpm>
</extensions>
</trkpt>
<trkpt lat="30.691003799" lon="34.785831451">
<ele>772.609375</ele>
<time>2013-11-21T13:52:44Z</time>
<speed>2.360000</speed>
<extensions>
<speed>2.4</speed>
<temp>0.00</temp>
<bpm>0</bpm>
<rpm>0.00</rpm>
</extensions>
</trkpt>
<trkpt lat="30.690929413" lon="34.785968781">
<ele>773.593750</ele>
<time>2013-11-21T13:52:49Z</time>
<speed>2.590000</speed>
<extensions>
<speed>2.6</speed>
<temp>0.00</temp>
<bpm>0</bpm>
<rpm>0.00</rpm>
</extensions>
</trkpt>
<trkpt lat="30.690879822" lon="34.786041260">
<ele>774.968750</ele>
<time>2013-11-21T13:52:54Z</time>
<speed>1.560000</speed>
<extensions>
<speed>1.6</speed>
<temp>0.00</temp>
<bpm>0</bpm>
<rpm>0.00</rpm>
</extensions>
</trkpt>
<trkpt lat="30.690824509" lon="34.786167145">
<ele>774.875000</ele>
<time>2013-11-21T13:52:59Z</time>
<speed>2.770000</speed>
<extensions>
<speed>2.8</speed>
<temp>0.00</temp>
<bpm>0</bpm>
<rpm>0.00</rpm>
</extensions>
</trkpt>
<trkpt lat="30.690761566" lon="34.786293030">
<ele>774.546875</ele>
<time>2013-11-21T13:53:04Z</time>
<speed>3.410000</speed>
<extensions>
<speed>3.4</speed>
<temp>0.00</temp>
<bpm>0</bpm>
<rpm>0.00</rpm>
</extensions>
</trkpt>
<trkpt lat="30.690715790" lon="34.786415100">
<ele>775.250000</ele>
<time>2013-11-21T13:53:09Z</time>
<speed>2.410000</speed>
<extensions>
<speed>2.4</speed>
<temp>0.00</temp>
<bpm>0</bpm>
<rpm>0.00</rpm>
</extensions>
</trkpt>
<trkpt lat="30.690633774" lon="34.786560059">
<ele>776.718750</ele>
<time>2013-11-21T13:53:14Z</time>
<speed>3.080000</speed>
<extensions>
<speed>3.1</speed>
<temp>0.00</temp>
<bpm>0</bpm>
<rpm>0.00</rpm>
</extensions>
</trkpt>
<trkpt lat="30.690586090" lon="34.786659241">
<ele>778.218750</ele>
<time>2013-11-21T13:53:19Z</time>
<speed>2.830000</speed>
<extensions>
<speed>2.8</speed>
<temp>0.00</temp>
<bpm>0</bpm>
<rpm>0.00</rpm>
</extensions>
</trkpt>
<trkpt lat="30.690513611" lon="34.786846161">
<ele>781.046875</ele>
<time>2013-11-21T13:53:24Z</time>
<speed>3.740000</speed>
<extensions>
<speed>3.7</speed>
<temp>0.00</temp>
<bpm>0</bpm>
<rpm>0.00</rpm>
</extensions>
</trkpt>
<trkpt lat="30.690416336" lon="34.787033081">
<ele>784.031250</ele>
<time>2013-11-21T13:53:29Z</time>
<speed>3.690000</speed>
<extensions>
<speed>3.7</speed>
<temp>0.00</temp>
<bpm>0</bpm>
<rpm>0.00</rpm>
</extensions>
</trkpt>
<trkpt lat="30.690355301" lon="34.787174225">
<ele>787.046875</ele>
<time>2013-11-21T13:53:34Z</time>
<speed>2.590000</speed>
<extensions>
<speed>2.6</speed>
<temp>0.00</temp>
<bpm>0</bpm>
<rpm>0.00</rpm>
</extensions>
</trkpt>
<trkpt lat="30.690290451" lon="34.787319183">
<ele>787.390625</ele>
<time>2013-11-21T13:53:39Z</time>
<speed>3.590000</speed>
<extensions>
<speed>3.6</speed>
<temp>0.00</temp>
<bpm>0</bpm>
<rpm>0.00</rpm>
</extensions>
</trkpt>
<trkpt lat="30.690216064" lon="34.787494659">
<ele>787.968750</ele>
<time>2013-11-21T13:53:44Z</time>
<speed>4.270000</speed>
<extensions>
<speed>4.3</speed>
<temp>0.00</temp>
<bpm>0</bpm>
<rpm>0.00</rpm>
</extensions>
</trkpt>
<trkpt lat="30.690134048" lon="34.787654877">
<ele>786.531250</ele>
<time>2013-11-21T13:53:49Z</time>
<speed>2.700000</speed>
<extensions>
<speed>2.7</speed>
<temp>0.00</temp>
<bpm>0</bpm>
<rpm>0.00</rpm>
</extensions>
</trkpt>
<trkpt lat="30.690069199" lon="34.787792206">
<ele>785.656250</ele>
<time>2013-11-21T13:53:54Z</time>
<speed>3.570000</speed>
<extensions>
<speed>3.6</speed>
<temp>0.00</temp>
<bpm>0</bpm>
<rpm>0.00</rpm>
</extensions>
</trkpt>
<trkpt lat="30.689998627" lon="34.787929535">
<ele>786.859375</ele>
<time>2013-11-21T13:53:59Z</time>
<speed>3.490000</speed>
<extensions>
<speed>3.5</speed>
<temp>0.00</temp>
<bpm>0</bpm>
<rpm>0.00</rpm>
</extensions>
</trkpt>
<trkpt lat="30.689935684" lon="34.788093567">
<ele>788.593750</ele>
<time>2013-11-21T13:54:04Z</time>
<speed>3.650000</speed>
<extensions>
<speed>3.7</speed>
<temp>0.00</temp>
<bpm>0</bpm>
<rpm>0.00</rpm>
</extensions>
</trkpt>
<trkpt lat="30.689857483" lon="34.788257599">
<ele>785.343750</ele>
<time>2013-11-21T13:54:09Z</time>
<speed>3.540000</speed>
<extensions>
<speed>3.5</speed>
<temp>0.00</temp>
<bpm>0</bpm>
<rpm>0.00</rpm>
</extensions>
</trkpt>
<trkpt lat="30.689775467" lon="34.788421631">
<ele>784.546875</ele>
<time>2013-11-21T13:54:14Z</time>
<speed>3.750000</speed>
<extensions>
<speed>3.8</speed>
<temp>0.00</temp>
<bpm>0</bpm>
<rpm>0.00</rpm>
</extensions>
</trkpt>
<trkpt lat="30.689685822" lon="34.788616180">
<ele>784.078125</ele>
<time>2013-11-21T13:54:19Z</time>
<speed>4.110000</speed>
<extensions>
<speed>4.1</speed>
<temp>0.00</temp>
<bpm>0</bpm>
<rpm>0.00</rpm>
</extensions>
</trkpt>
<trkpt lat="30.689588547" lon="34.788803101">
<ele>785.968750</ele>
<time>2013-11-21T13:54:24Z</time>
<speed>4.350000</speed>
<extensions>
<speed>4.3</speed>
<temp>0.00</temp>
<bpm>0</bpm>
<rpm>0.00</rpm>
</extensions>
</trkpt>
<trkpt lat="30.689495087" lon="34.789005280">
<ele>787.093750</ele>
<time>2013-11-21T13:54:29Z</time>
<speed>4.040000</speed>
<extensions>
<speed>4.0</speed>
<temp>0.00</temp>
<bpm>0</bpm>
<rpm>0.00</rpm>
</extensions>
</trkpt>
<trkpt lat="30.689407349" lon="34.789192200">
<ele>788.031250</ele>
<time>2013-11-21T13:54:34Z</time>
<speed>4.140000</speed>
<extensions>
<speed>4.1</speed>
<temp>0.00</temp>
<bpm>0</bpm>
<rpm>0.00</rpm>
</extensions>
</trkpt>
<trkpt lat="30.689325333" lon="34.789390564">
<ele>787.421875</ele>
<time>2013-11-21T13:54:39Z</time>
<speed>3.630000</speed>
<extensions>
<speed>3.6</speed>
<temp>0.00</temp>
<bpm>0</bpm>
<rpm>0.00</rpm>
</extensions>
</trkpt>
<trkpt lat="30.689277649" lon="34.789527893">
<ele>788.515625</ele>
<time>2013-11-21T13:54:44Z</time>
<speed>1.540000</speed>
<extensions>
<speed>1.5</speed>
<temp>0.00</temp>
<bpm>0</bpm>
<rpm>0.00</rpm>
</extensions>
</trkpt>
<trkpt lat="30.689292908" lon="34.789546967">
<ele>785.078125</ele>
<time>2013-11-21T13:54:49Z</time>
<speed>0.120000</speed>
<extensions>
<speed>0.1</speed>
<temp>0.00</temp>
<bpm>0</bpm>
<rpm>0.00</rpm>
</extensions>
</trkpt>
<trkpt lat="30.689298630" lon="34.789543152">
<ele>785.218750</ele>
<time>2013-11-21T13:54:54Z</time>
<speed>0.050000</speed>
<extensions>
<speed>0.1</speed>
<temp>0.00</temp>
<bpm>0</bpm>
<rpm>0.00</rpm>
</extensions>
</trkpt>
<trkpt lat="30.689298630" lon="34.789543152">
<ele>785.265625</ele>
<time>2013-11-21T13:54:59Z</time>
<speed>0.020000</speed>
<extensions>
<speed>0.0</speed>
<temp>0.00</temp>
<bpm>0</bpm>
<rpm>0.00</rpm>
</extensions>
</trkpt>
<trkpt lat="30.689300537" lon="34.789543152">
<ele>785.281250</ele>
<time>2013-11-21T13:55:04Z</time>
<speed>0.180000</speed>
<extensions>
<speed>0.2</speed>
<temp>0.00</temp>
<bpm>0</bpm>
<rpm>0.00</rpm>
</extensions>
</trkpt>
<trkpt lat="30.689292908" lon="34.789566040">
<ele>785.281250</ele>
<time>2013-11-21T13:55:09Z</time>
<speed>1.360000</speed>
<extensions>
<speed>1.4</speed>
<temp>0.00</temp>
<bpm>0</bpm>
<rpm>0.00</rpm>
</extensions>
</trkpt>
<trkpt lat="30.689231873" lon="34.789684296">
<ele>785.562500</ele>
<time>2013-11-21T13:55:14Z</time>
<speed>2.400000</speed>
<extensions>
<speed>2.4</speed>
<temp>0.00</temp>
<bpm>0</bpm>
<rpm>0.00</rpm>
</extensions>
</trkpt>
<trkpt lat="30.689161301" lon="34.789798737">
<ele>786.281250</ele>
<time>2013-11-21T13:55:19Z</time>
<speed>3.170000</speed>
<extensions>
<speed>3.2</speed>
<temp>0.00</temp>
<bpm>0</bpm>
<rpm>0.00</rpm>
</extensions>
</trkpt>
<trkpt lat="30.689075470" lon="34.789978027">
<ele>786.687500</ele>
<time>2013-11-21T13:55:24Z</time>
<speed>3.510000</speed>
<extensions>
<speed>3.5</speed>
<temp>0.00</temp>
<bpm>0</bpm>
<rpm>0.00</rpm>
</extensions>
</trkpt>
<trkpt lat="30.688997269" lon="34.790122986">
<ele>786.437500</ele>
<time>2013-11-21T13:55:29Z</time>
<speed>1.920000</speed>
<extensions>
<speed>1.9</speed>
<temp>0.00</temp>
<bpm>0</bpm>
<rpm>0.00</rpm>
</extensions>
</trkpt>
<trkpt lat="30.688962936" lon="34.790237427">
<ele>786.328125</ele>
<time>2013-11-21T13:55:34Z</time>
<speed>3.110000</speed>
<extensions>
<speed>3.1</speed>
<temp>0.00</temp>
<bpm>0</bpm>
<rpm>0.00</rpm>
</extensions>
</trkpt>
<trkpt lat="30.688903809" lon="34.790367126">
<ele>786.562500</ele>
<time>2013-11-21T13:55:39Z</time>
<speed>2.840000</speed>
<extensions>
<speed>2.8</speed>
<temp>0.00</temp>
<bpm>0</bpm>
<rpm>0.00</rpm>
</extensions>
</trkpt>
<trkpt lat="30.688859940" lon="34.790454865">
<ele>786.546875</ele>
<time>2013-11-21T13:55:44Z</time>
<speed>2.170000</speed>
<extensions>
<speed>2.2</speed>
<temp>0.00</temp>
<bpm>0</bpm>
<rpm>0.00</rpm>
</extensions>
</trkpt>
<trkpt lat="30.688796997" lon="34.790588379">
<ele>785.187500</ele>
<time>2013-11-21T13:55:49Z</time>
<speed>3.140000</speed>
<extensions>
<speed>3.1</speed>
<temp>0.00</temp>
<bpm>0</bpm>
<rpm>0.00</rpm>
</extensions>
</trkpt>
<trkpt lat="30.688745499" lon="34.790691376">
<ele>784.859375</ele>
<time>2013-11-21T13:55:54Z</time>
<speed>2.120000</speed>
<extensions>
<speed>2.1</speed>
<temp>0.00</temp>
<bpm>0</bpm>
<rpm>0.00</rpm>
</extensions>
</trkpt>
<trkpt lat="30.688701630" lon="34.790725708">
<ele>785.046875</ele>
<time>2013-11-21T13:55:59Z</time>
<speed>1.390000</speed>
<extensions>
<speed>1.4</speed>
<temp>0.00</temp>
<bpm>0</bpm>
<rpm>0.00</rpm>
</extensions>
</trkpt>
<trkpt lat="30.688684464" lon="34.790744781">
<ele>786.953125</ele>
<time>2013-11-21T13:56:04Z</time>
<speed>0.070000</speed>
<extensions>
<speed>0.1</speed>
<temp>0.00</temp>
<bpm>0</bpm>
<rpm>0.00</rpm>
</extensions>
</trkpt>
<trkpt lat="30.688678741" lon="34.790752411">
<ele>786.312500</ele>
<time>2013-11-21T13:56:09Z</time>
<extensions>
<speed>0.0</speed>
<temp>0.00</temp>
<bpm>0</bpm>
<rpm>0.00</rpm>
</extensions>
</trkpt>
<trkpt lat="30.688678741" lon="34.790752411">
<ele>786.250000</ele>
<time>2013-11-21T13:56:14Z</time>
<speed>0.060000</speed>
<extensions>
<speed>0.1</speed>
<temp>0.00</temp>
<bpm>0</bpm>
<rpm>0.00</rpm>
</extensions>
</trkpt>
<trkpt lat="30.688676834" lon="34.790752411">
<ele>786.390625</ele>
<time>2013-11-21T13:56:19Z</time>
<speed>0.040000</speed>
<extensions>
<speed>0.0</speed>
<temp>0.00</temp>
<bpm>0</bpm>
<rpm>0.00</rpm>
</extensions>
</trkpt>
<trkpt lat="30.688673019" lon="34.790752411">
<ele>786.593750</ele>
<time>2013-11-21T13:56:24Z</time>
<speed>0.060000</speed>
<extensions>
<speed>0.1</speed>
<temp>0.00</temp>
<bpm>0</bpm>
<rpm>0.00</rpm>
</extensions>
</trkpt>
<trkpt lat="30.688673019" lon="34.790756226">
<ele>786.593750</ele>
<time>2013-11-21T13:56:29Z</time>
<speed>0.010000</speed>
<extensions>
<speed>0.0</speed>
<temp>0.00</temp>
<bpm>0</bpm>
<rpm>0.00</rpm>
</extensions>
</trkpt>
<trkpt lat="30.688676834" lon="34.790756226">
<ele>786.375000</ele>
<time>2013-11-21T13:56:34Z</time>
<speed>0.230000</speed>
<extensions>
<speed>0.2</speed>
<temp>0.00</temp>
<bpm>0</bpm>
<rpm>0.00</rpm>
</extensions>
</trkpt>
<trkpt lat="30.688659668" lon="34.790798187">
<ele>786.078125</ele>
<time>2013-11-21T13:56:39Z</time>
<speed>1.560000</speed>
<extensions>
<speed>1.6</speed>
<temp>0.00</temp>
<bpm>0</bpm>
<rpm>0.00</rpm>
</extensions>
</trkpt>
<trkpt lat="30.688591003" lon="34.790908813">
<ele>786.015625</ele>
<time>2013-11-21T13:56:44Z</time>
<speed>2.810000</speed>
<extensions>
<speed>2.8</speed>
<temp>0.00</temp>
<bpm>0</bpm>
<rpm>0.00</rpm>
</extensions>
</trkpt>
<trkpt lat="30.688508987" lon="34.791046143">
<ele>786.281250</ele>
<time>2013-11-21T13:56:49Z</time>
<speed>3.810000</speed>
<extensions>
<speed>3.8</speed>
<temp>0.00</temp>
<bpm>0</bpm>
<rpm>0.00</rpm>
</extensions>
</trkpt>
<trkpt lat="30.688421249" lon="34.791168213">
<ele>787.359375</ele>
<time>2013-11-21T13:56:54Z</time>
<speed>3.970000</speed>
<extensions>
<speed>4.0</speed>
<temp>0.00</temp>
<bpm>0</bpm>
<rpm>0.00</rpm>
</extensions>
</trkpt>
<trkpt lat="30.688318253" lon="34.791301727">
<ele>788.312500</ele>
<time>2013-11-21T13:56:59Z</time>
<speed>3.410000</speed>
<extensions>
<speed>3.4</speed>
<temp>0.00</temp>
<bpm>0</bpm>
<rpm>0.00</rpm>
</extensions>
</trkpt>
<trkpt lat="30.688180923" lon="34.791454315">
<ele>789.000000</ele>
<time>2013-11-21T13:57:04Z</time>
<speed>4.480000</speed>
<extensions>
<speed>4.5</speed>
<temp>0.00</temp>
<bpm>0</bpm>
<rpm>0.00</rpm>
</extensions>
</trkpt>
<trkpt lat="30.688018799" lon="34.791614532">
<ele>788.187500</ele>
<time>2013-11-21T13:57:09Z</time>
<speed>4.850000</speed>
<extensions>
<speed>4.8</speed>
<temp>0.00</temp>
<bpm>0</bpm>
<rpm>0.00</rpm>
</extensions>
</trkpt>
<trkpt lat="30.687843323" lon="34.791782379">
<ele>788.890625</ele>
<time>2013-11-21T13:57:14Z</time>
<speed>4.740000</speed>
<extensions>
<speed>4.7</speed>
<temp>0.00</temp>
<bpm>0</bpm>
<rpm>0.00</rpm>
</extensions>
</trkpt>
<trkpt lat="30.687683105" lon="34.791957855">
<ele>787.312500</ele>
<time>2013-11-21T13:57:19Z</time>
<speed>5.470000</speed>
<extensions>
<speed>5.5</speed>
<temp>0.00</temp>
<bpm>0</bpm>
<rpm>0.00</rpm>
</extensions>
</trkpt>
<trkpt lat="30.687498093" lon="34.792144775">
<ele>786.265625</ele>
<time>2013-11-21T13:57:24Z</time>
<speed>5.570000</speed>
<extensions>
<speed>5.6</speed>
<temp>0.00</temp>
<bpm>0</bpm>
<rpm>0.00</rpm>
</extensions>
</trkpt>
<trkpt lat="30.687316895" lon="34.792324066">
<ele>785.093750</ele>
<time>2013-11-21T13:57:29Z</time>
<speed>5.790000</speed>
<extensions>
<speed>5.8</speed>
<temp>0.00</temp>
<bpm>0</bpm>
<rpm>0.00</rpm>
</extensions>
</trkpt>
<trkpt lat="30.687101364" lon="34.792514801">
<ele>783.218750</ele>
<time>2013-11-21T13:57:34Z</time>
<speed>6.240000</speed>
<extensions>
<speed>6.2</speed>
<temp>0.00</temp>
<bpm>0</bpm>
<rpm>0.00</rpm>
</extensions>
</trkpt>
<trkpt lat="30.686851501" lon="34.792732239">
<ele>781.750000</ele>
<time>2013-11-21T13:57:39Z</time>
<speed>6.970000</speed>
<extensions>
<speed>7.0</speed>
<temp>0.00</temp>
<bpm>0</bpm>
<rpm>0.00</rpm>
</extensions>
</trkpt>
<trkpt lat="30.686599731" lon="34.792949677">
<ele>780.234375</ele>
<time>2013-11-21T13:57:44Z</time>
<speed>6.330000</speed>
<extensions>
<speed>6.3</speed>
<temp>0.00</temp>
<bpm>0</bpm>
<rpm>0.00</rpm>
</extensions>
</trkpt>
<trkpt lat="30.686389923" lon="34.793128967">
<ele>780.062500</ele>
<time>2013-11-21T13:57:49Z</time>
<speed>5.320000</speed>
<extensions>
<speed>5.3</speed>
<temp>0.00</temp>
<bpm>0</bpm>
<rpm>0.00</rpm>
</extensions>
</trkpt>
<trkpt lat="30.686201096" lon="34.793277740">
<ele>782.125000</ele>
<time>2013-11-21T13:57:54Z</time>
<speed>5.000000</speed>
<extensions>
<speed>5.0</speed>
<temp>0.00</temp>
<bpm>0</bpm>
<rpm>0.00</rpm>
</extensions>
</trkpt>
<trkpt lat="30.686029434" lon="34.793422699">
<ele>783.109375</ele>
<time>2013-11-21T13:57:59Z</time>
<speed>4.530000</speed>
<extensions>
<speed>4.5</speed>
<temp>0.00</temp>
<bpm>0</bpm>
<rpm>0.00</rpm>
</extensions>
</trkpt>
<trkpt lat="30.685853958" lon="34.793582916">
<ele>785.125000</ele>
<time>2013-11-21T13:58:04Z</time>
<speed>4.850000</speed>
<extensions>
<speed>4.8</speed>
<temp>0.00</temp>
<bpm>0</bpm>
<rpm>0.00</rpm>
</extensions>
</trkpt>
<trkpt lat="30.685710907" lon="34.793701172">
<ele>784.953125</ele>
<time>2013-11-21T13:58:09Z</time>
<speed>3.790000</speed>
<extensions>
<speed>3.8</speed>
<temp>0.00</temp>
<bpm>0</bpm>
<rpm>0.00</rpm>
</extensions>
</trkpt>
<trkpt lat="30.685560226" lon="34.793857574">
<ele>785.265625</ele>
<time>2013-11-21T13:58:14Z</time>
<speed>4.320000</speed>
<extensions>
<speed>4.3</speed>
<temp>0.00</temp>
<bpm>0</bpm>
<rpm>0.00</rpm>
</extensions>
</trkpt>
<trkpt lat="30.685415268" lon="34.793987274">
<ele>785.437500</ele>
<time>2013-11-21T13:58:19Z</time>
<speed>4.500000</speed>
<extensions>
<speed>4.5</speed>
<temp>0.00</temp>
<bpm>0</bpm>
<rpm>0.00</rpm>
</extensions>
</trkpt>
<trkpt lat="30.685281754" lon="34.794116974">
<ele>785.281250</ele>
<time>2013-11-21T13:58:24Z</time>
<speed>4.160000</speed>
<extensions>
<speed>4.2</speed>
<temp>0.00</temp>
<bpm>0</bpm>
<rpm>0.00</rpm>
</extensions>
</trkpt>
<trkpt lat="30.685125351" lon="34.794250488">
<ele>788.468750</ele>
<time>2013-11-21T13:58:29Z</time>
<speed>3.760000</speed>
<extensions>
<speed>3.8</speed>
<temp>0.00</temp>
<bpm>0</bpm>
<rpm>0.00</rpm>
</extensions>
</trkpt>
<trkpt lat="30.684965134" lon="34.794403076">
<ele>788.703125</ele>
<time>2013-11-21T13:58:34Z</time>
<speed>4.410000</speed>
<extensions>
<speed>4.4</speed>
<temp>0.00</temp>
<bpm>0</bpm>
<rpm>0.00</rpm>
</extensions>
</trkpt>
<trkpt lat="30.684816360" lon="34.794544220">
<ele>789.890625</ele>
<time>2013-11-21T13:58:39Z</time>
<speed>4.590000</speed>
<extensions>
<speed>4.6</speed>
<temp>0.00</temp>
<bpm>0</bpm>
<rpm>0.00</rpm>
</extensions>
</trkpt>
<trkpt lat="30.684654236" lon="34.794700623">
<ele>789.593750</ele>
<time>2013-11-21T13:58:44Z</time>
<speed>4.510000</speed>
<extensions>
<speed>4.5</speed>
<temp>0.00</temp>
<bpm>0</bpm>
<rpm>0.00</rpm>
</extensions>
</trkpt>
<trkpt lat="30.684539795" lon="34.794811249">
<ele>791.078125</ele>
<time>2013-11-21T13:58:49Z</time>
<speed>3.080000</speed>
<extensions>
<speed>3.1</speed>
<temp>0.00</temp>
<bpm>0</bpm>
<rpm>0.00</rpm>
</extensions>
</trkpt>
<trkpt lat="30.684469223" lon="34.794868469">
<ele>791.031250</ele>
<time>2013-11-21T13:58:54Z</time>
<speed>1.950000</speed>
<extensions>
<speed>1.9</speed>
<temp>0.00</temp>
<bpm>0</bpm>
<rpm>0.00</rpm>
</extensions>
</trkpt>
<trkpt lat="30.684354782" lon="34.794979095">
<ele>790.203125</ele>
<time>2013-11-21T13:58:59Z</time>
<speed>3.810000</speed>
<extensions>
<speed>3.8</speed>
<temp>0.00</temp>
<bpm>0</bpm>
<rpm>0.00</rpm>
</extensions>
</trkpt>
<trkpt lat="30.684219360" lon="34.795116425">
<ele>789.296875</ele>
<time>2013-11-21T13:59:04Z</time>
<speed>4.000000</speed>
<extensions>
<speed>4.0</speed>
<temp>0.00</temp>
<bpm>0</bpm>
<rpm>0.00</rpm>
</extensions>
</trkpt>
<trkpt lat="30.684083939" lon="34.795253754">
<ele>790.937500</ele>
<time>2013-11-21T13:59:09Z</time>
<speed>2.970000</speed>
<extensions>
<speed>3.0</speed>
<temp>0.00</temp>
<bpm>0</bpm>
<rpm>0.00</rpm>
</extensions>
</trkpt>
<trkpt lat="30.684003830" lon="34.795372009">
<ele>791.468750</ele>
<time>2013-11-21T13:59:14Z</time>
<speed>3.340000</speed>
<extensions>
<speed>3.3</speed>
<temp>0.00</temp>
<bpm>0</bpm>
<rpm>0.00</rpm>
</extensions>
</trkpt>
<trkpt lat="30.683925629" lon="34.795459747">
<ele>790.906250</ele>
<time>2013-11-21T13:59:19Z</time>
<speed>2.980000</speed>
<extensions>
<speed>3.0</speed>
<temp>0.00</temp>
<bpm>0</bpm>
<rpm>0.00</rpm>
</extensions>
</trkpt>
<trkpt lat="30.683832169" lon="34.795593262">
<ele>791.453125</ele>
<time>2013-11-21T13:59:24Z</time>
<speed>3.020000</speed>
<extensions>
<speed>3.0</speed>
<temp>0.00</temp>
<bpm>0</bpm>
<rpm>0.00</rpm>
</extensions>
</trkpt>
<trkpt lat="30.683732986" lon="34.795761108">
<ele>792.562500</ele>
<time>2013-11-21T13:59:29Z</time>
<speed>3.990000</speed>
<extensions>
<speed>4.0</speed>
<temp>0.00</temp>
<bpm>0</bpm>
<rpm>0.00</rpm>
</extensions>
</trkpt>
<trkpt lat="30.683614731" lon="34.795936584">
<ele>795.125000</ele>
<time>2013-11-21T13:59:34Z</time>
<speed>3.530000</speed>
<extensions>
<speed>3.5</speed>
<temp>0.00</temp>
<bpm>0</bpm>
<rpm>0.00</rpm>
</extensions>
</trkpt>
<trkpt lat="30.683559418" lon="34.796051025">
<ele>795.281250</ele>
<time>2013-11-21T13:59:39Z</time>
<speed>2.340000</speed>
<extensions>
<speed>2.3</speed>
<temp>0.00</temp>
<bpm>0</bpm>
<rpm>0.00</rpm>
</extensions>
</trkpt>
<trkpt lat="30.683467865" lon="34.796230316">
<ele>793.562500</ele>
<time>2013-11-21T13:59:44Z</time>
<speed>3.670000</speed>
<extensions>
<speed>3.7</speed>
<temp>0.00</temp>
<bpm>0</bpm>
<rpm>0.00</rpm>
</extensions>
</trkpt>
<trkpt lat="30.683374405" lon="34.796398163">
<ele>795.453125</ele>
<time>2013-11-21T13:59:49Z</time>
<speed>3.930000</speed>
<extensions>
<speed>3.9</speed>
<temp>0.00</temp>
<bpm>0</bpm>
<rpm>0.00</rpm>
</extensions>
</trkpt>
<trkpt lat="30.683294296" lon="34.796539307">
<ele>796.546875</ele>
<time>2013-11-21T13:59:54Z</time>
<speed>3.210000</speed>
<extensions>
<speed>3.2</speed>
<temp>0.00</temp>
<bpm>0</bpm>
<rpm>0.00</rpm>
</extensions>
</trkpt>
<trkpt lat="30.683195114" lon="34.796726227">
<ele>796.359375</ele>
<time>2013-11-21T13:59:59Z</time>
<speed>4.160000</speed>
<extensions>
<speed>4.2</speed>
<temp>0.00</temp>
<bpm>0</bpm>
<rpm>0.00</rpm>
</extensions>
</trkpt>
<trkpt lat="30.683099747" lon="34.796875000">
<ele>797.593750</ele>
<time>2013-11-21T14:00:04Z</time>
<speed>3.340000</speed>
<extensions>
<speed>3.3</speed>
<temp>0.00</temp>
<bpm>0</bpm>
<rpm>0.00</rpm>
</extensions>
</trkpt>
<trkpt lat="30.683032990" lon="34.797004700">
<ele>798.312500</ele>
<time>2013-11-21T14:00:09Z</time>
<speed>2.630000</speed>
<extensions>
<speed>2.6</speed>
<temp>0.00</temp>
<bpm>0</bpm>
<rpm>0.00</rpm>
</extensions>
</trkpt>
<trkpt lat="30.682956696" lon="34.797145844">
<ele>795.968750</ele>
<time>2013-11-21T14:00:14Z</time>
<speed>4.030000</speed>
<extensions>
<speed>4.0</speed>
<temp>0.00</temp>
<bpm>0</bpm>
<rpm>0.00</rpm>
</extensions>
</trkpt>
<trkpt lat="30.682867050" lon="34.797321320">
<ele>796.640625</ele>
<time>2013-11-21T14:00:19Z</time>
<speed>3.460000</speed>
<extensions>
<speed>3.5</speed>
<temp>0.00</temp>
<bpm>0</bpm>
<rpm>0.00</rpm>
</extensions>
</trkpt>
<trkpt lat="30.682794571" lon="34.797451019">
<ele>798.015625</ele>
<time>2013-11-21T14:00:24Z</time>
<speed>2.280000</speed>
<extensions>
<speed>2.3</speed>
<temp>0.00</temp>
<bpm>0</bpm>
<rpm>0.00</rpm>
</extensions>
</trkpt>
<trkpt lat="30.682752609" lon="34.797519684">
<ele>797.390625</ele>
<time>2013-11-21T14:00:29Z</time>
<speed>2.350000</speed>
<extensions>
<speed>2.4</speed>
<temp>0.00</temp>
<bpm>0</bpm>
<rpm>0.00</rpm>
</extensions>
</trkpt>
<trkpt lat="30.682687759" lon="34.797660828">
<ele>796.937500</ele>
<time>2013-11-21T14:00:34Z</time>
<speed>3.880000</speed>
<extensions>
<speed>3.9</speed>
<temp>0.00</temp>
<bpm>0</bpm>
<rpm>0.00</rpm>
</extensions>
</trkpt>
<trkpt lat="30.682579041" lon="34.797836304">
<ele>796.828125</ele>
<time>2013-11-21T14:00:39Z</time>
<speed>4.630000</speed>
<extensions>
<speed>4.6</speed>
<temp>0.00</temp>
<bpm>0</bpm>
<rpm>0.00</rpm>
</extensions>
</trkpt>
<trkpt lat="30.682468414" lon="34.798023224">
<ele>797.656250</ele>
<time>2013-11-21T14:00:44Z</time>
<speed>5.090000</speed>
<extensions>
<speed>5.1</speed>
<temp>0.00</temp>
<bpm>0</bpm>
<rpm>0.00</rpm>
</extensions>
</trkpt>
<trkpt lat="30.682357788" lon="34.798244476">
<ele>796.140625</ele>
<time>2013-11-21T14:00:49Z</time>
<speed>4.010000</speed>
<extensions>
<speed>4.0</speed>
<temp>0.00</temp>
<bpm>0</bpm>
<rpm>0.00</rpm>
</extensions>
</trkpt>
<trkpt lat="30.682277679" lon="34.798416138">
<ele>795.968750</ele>
<time>2013-11-21T14:00:54Z</time>
<speed>2.770000</speed>
<extensions>
<speed>2.8</speed>
<temp>0.00</temp>
<bpm>0</bpm>
<rpm>0.00</rpm>
</extensions>
</trkpt>
<trkpt lat="30.682203293" lon="34.798530579">
<ele>796.500000</ele>
<time>2013-11-21T14:00:59Z</time>
<speed>2.860000</speed>
<extensions>
<speed>2.9</speed>
<temp>0.00</temp>
<bpm>0</bpm>
<rpm>0.00</rpm>
</extensions>
</trkpt>
<trkpt lat="30.682123184" lon="34.798652649">
<ele>799.046875</ele>
<time>2013-11-21T14:01:04Z</time>
<speed>2.650000</speed>
<extensions>
<speed>2.6</speed>
<temp>0.00</temp>
<bpm>0</bpm>
<rpm>0.00</rpm>
</extensions>
</trkpt>
<trkpt lat="30.682043076" lon="34.798774719">
<ele>799.156250</ele>
<time>2013-11-21T14:01:09Z</time>
<speed>3.050000</speed>
<extensions>
<speed>3.0</speed>
<temp>0.00</temp>
<bpm>0</bpm>
<rpm>0.00</rpm>
</extensions>
</trkpt>
<trkpt lat="30.681964874" lon="34.798923492">
<ele>800.437500</ele>
<time>2013-11-21T14:01:14Z</time>
<speed>3.630000</speed>
<extensions>
<speed>3.6</speed>
<temp>0.00</temp>
<bpm>0</bpm>
<rpm>0.00</rpm>
</extensions>
</trkpt>
<trkpt lat="30.681898117" lon="34.799064636">
<ele>800.968750</ele>
<time>2013-11-21T14:01:19Z</time>
<speed>3.490000</speed>
<extensions>
<speed>3.5</speed>
<temp>0.00</temp>
<bpm>0</bpm>
<rpm>0.00</rpm>
</extensions>
</trkpt>
<trkpt lat="30.681837082" lon="34.799175262">
<ele>802.421875</ele>
<time>2013-11-21T14:01:24Z</time>
<speed>2.630000</speed>
<extensions>
<speed>2.6</speed>
<temp>0.00</temp>
<bpm>0</bpm>
<rpm>0.00</rpm>
</extensions>
</trkpt>
<trkpt lat="30.681758881" lon="34.799308777">
<ele>803.062500</ele>
<time>2013-11-21T14:01:29Z</time>
<speed>2.890000</speed>
<extensions>
<speed>2.9</speed>
<temp>0.00</temp>
<bpm>0</bpm>
<rpm>0.00</rpm>
</extensions>
</trkpt>
<trkpt lat="30.681703568" lon="34.799404144">
<ele>801.859375</ele>
<time>2013-11-21T14:01:34Z</time>
<speed>1.320000</speed>
<extensions>
<speed>1.3</speed>
<temp>0.00</temp>
<bpm>0</bpm>
<rpm>0.00</rpm>
</extensions>
</trkpt>
<trkpt lat="30.681665421" lon="34.799480438">
<ele>805.578125</ele>
<time>2013-11-21T14:01:39Z</time>
<speed>2.340000</speed>
<extensions>
<speed>2.3</speed>
<temp>0.00</temp>
<bpm>0</bpm>
<rpm>0.00</rpm>
</extensions>
</trkpt>
<trkpt lat="30.681600571" lon="34.799598694">
<ele>805.921875</ele>
<time>2013-11-21T14:01:44Z</time>
<speed>3.010000</speed>
<extensions>
<speed>3.0</speed>
<temp>0.00</temp>
<bpm>0</bpm>
<rpm>0.00</rpm>
</extensions>
</trkpt>
<trkpt lat="30.681533813" lon="34.799716949">
<ele>805.421875</ele>
<time>2013-11-21T14:01:49Z</time>
<speed>2.820000</speed>
<extensions>
<speed>2.8</speed>
<temp>0.00</temp>
<bpm>0</bpm>
<rpm>0.00</rpm>
</extensions>
</trkpt>
<trkpt lat="30.681493759" lon="34.799804688">
<ele>806.500000</ele>
<time>2013-11-21T14:01:54Z</time>
<speed>0.610000</speed>
<extensions>
<speed>0.6</speed>
<temp>0.00</temp>
<bpm>0</bpm>
<rpm>0.00</rpm>
</extensions>
</trkpt>
<trkpt lat="30.681449890" lon="34.799865723">
<ele>809.281250</ele>
<time>2013-11-21T14:01:59Z</time>
<speed>2.320000</speed>
<extensions>
<speed>2.3</speed>
<temp>0.00</temp>
<bpm>0</bpm>
<rpm>0.00</rpm>
</extensions>
</trkpt>
<trkpt lat="30.681396484" lon="34.799972534">
<ele>810.703125</ele>
<time>2013-11-21T14:02:04Z</time>
<speed>1.990000</speed>
<extensions>
<speed>2.0</speed>
<temp>0.00</temp>
<bpm>0</bpm>
<rpm>0.00</rpm>
</extensions>
</trkpt>
<trkpt lat="30.681333542" lon="34.800083160">
<ele>812.296875</ele>
<time>2013-11-21T14:02:09Z</time>
<speed>2.930000</speed>
<extensions>
<speed>2.9</speed>
<temp>0.00</temp>
<bpm>0</bpm>
<rpm>0.00</rpm>
</extensions>
</trkpt>
<trkpt lat="30.681257248" lon="34.800209045">
<ele>812.031250</ele>
<time>2013-11-21T14:02:14Z</time>
<speed>3.210000</speed>
<extensions>
<speed>3.2</speed>
<temp>0.00</temp>
<bpm>0</bpm>
<rpm>0.00</rpm>
</extensions>
</trkpt>
<trkpt lat="30.681140900" lon="34.800369263">
<ele>813.046875</ele>
<time>2013-11-21T14:02:19Z</time>
<speed>3.470000</speed>
<extensions>
<speed>3.5</speed>
<temp>0.00</temp>
<bpm>0</bpm>
<rpm>0.00</rpm>
</extensions>
</trkpt>
<trkpt lat="30.681039810" lon="34.800483704">
<ele>813.531250</ele>
<time>2013-11-21T14:02:24Z</time>
<speed>2.760000</speed>
<extensions>
<speed>2.8</speed>
<temp>0.00</temp>
<bpm>0</bpm>
<rpm>0.00</rpm>
</extensions>
</trkpt>
<trkpt lat="30.680932999" lon="34.800586700">
<ele>812.968750</ele>
<time>2013-11-21T14:02:29Z</time>
<speed>3.830000</speed>
<extensions>
<speed>3.8</speed>
<temp>0.00</temp>
<bpm>0</bpm>
<rpm>0.00</rpm>
</extensions>
</trkpt>
<trkpt lat="30.680770874" lon="34.800716400">
<ele>813.484375</ele>
<time>2013-11-21T14:02:34Z</time>
<speed>3.340000</speed>
<extensions>
<speed>3.3</speed>
<temp>0.00</temp>
<bpm>0</bpm>
<rpm>0.00</rpm>
</extensions>
</trkpt>
<trkpt lat="30.680637360" lon="34.800811768">
<ele>812.703125</ele>
<time>2013-11-21T14:02:39Z</time>
<speed>4.050000</speed>
<extensions>
<speed>4.0</speed>
<temp>0.00</temp>
<bpm>0</bpm>
<rpm>0.00</rpm>
</extensions>
</trkpt>
<trkpt lat="30.680509567" lon="34.800891876">
<ele>810.828125</ele>
<time>2013-11-21T14:02:44Z</time>
<speed>2.880000</speed>
<extensions>
<speed>2.9</speed>
<temp>0.00</temp>
<bpm>0</bpm>
<rpm>0.00</rpm>
</extensions>
</trkpt>
<trkpt lat="30.680358887" lon="34.800971985">
<ele>811.156250</ele>
<time>2013-11-21T14:02:49Z</time>
<speed>4.350000</speed>
<extensions>
<speed>4.3</speed>
<temp>0.00</temp>
<bpm>0</bpm>
<rpm>0.00</rpm>
</extensions>
</trkpt>
<trkpt lat="30.680191040" lon="34.801071167">
<ele>814.937500</ele>
<time>2013-11-21T14:02:54Z</time>
<speed>3.560000</speed>
<extensions>
<speed>3.6</speed>
<temp>0.00</temp>
<bpm>0</bpm>
<rpm>0.00</rpm>
</extensions>
</trkpt>
<trkpt lat="30.680063248" lon="34.801139832">
<ele>816.984375</ele>
<time>2013-11-21T14:02:59Z</time>
<speed>3.380000</speed>
<extensions>
<speed>3.4</speed>
<temp>0.00</temp>
<bpm>0</bpm>
<rpm>0.00</rpm>
</extensions>
</trkpt>
<trkpt lat="30.679899216" lon="34.801242828">
<ele>820.015625</ele>
<time>2013-11-21T14:03:04Z</time>
<speed>3.860000</speed>
<extensions>
<speed>3.9</speed>
<temp>0.00</temp>
<bpm>0</bpm>
<rpm>0.00</rpm>
</extensions>
</trkpt>
<trkpt lat="30.679769516" lon="34.801322937">
<ele>822.687500</ele>
<time>2013-11-21T14:03:09Z</time>
<speed>3.690000</speed>
<extensions>
<speed>3.7</speed>
<temp>0.00</temp>
<bpm>0</bpm>
<rpm>0.00</rpm>
</extensions>
</trkpt>
<trkpt lat="30.679609299" lon="34.801406860">
<ele>820.890625</ele>
<time>2013-11-21T14:03:14Z</time>
<speed>4.310000</speed>
<extensions>
<speed>4.3</speed>
<temp>0.00</temp>
<bpm>0</bpm>
<rpm>0.00</rpm>
</extensions>
</trkpt>
<trkpt lat="30.679456711" lon="34.801498413">
<ele>821.890625</ele>
<time>2013-11-21T14:03:19Z</time>
<speed>3.050000</speed>
<extensions>
<speed>3.0</speed>
<temp>0.00</temp>
<bpm>0</bpm>
<rpm>0.00</rpm>
</extensions>
</trkpt>
<trkpt lat="30.679372787" lon="34.801555634">
<ele>821.187500</ele>
<time>2013-11-21T14:03:24Z</time>
<speed>2.310000</speed>
<extensions>
<speed>2.3</speed>
<temp>0.00</temp>
<bpm>0</bpm>
<rpm>0.00</rpm>
</extensions>
</trkpt>
<trkpt lat="30.679231644" lon="34.801635742">
<ele>820.406250</ele>
<time>2013-11-21T14:03:29Z</time>
<speed>4.580000</speed>
<extensions>
<speed>4.6</speed>
<temp>0.00</temp>
<bpm>0</bpm>
<rpm>0.00</rpm>
</extensions>
</trkpt>
<trkpt lat="30.679058075" lon="34.801742554">
<ele>821.125000</ele>
<time>2013-11-21T14:03:34Z</time>
<speed>3.080000</speed>
<extensions>
<speed>3.1</speed>
<temp>0.00</temp>
<bpm>0</bpm>
<rpm>0.00</rpm>
</extensions>
</trkpt>
<trkpt lat="30.678909302" lon="34.801818848">
<ele>820.640625</ele>
<time>2013-11-21T14:03:39Z</time>
<speed>4.430000</speed>
<extensions>
<speed>4.4</speed>
<temp>0.00</temp>
<bpm>0</bpm>
<rpm>0.00</rpm>
</extensions>
</trkpt>
<trkpt lat="30.678770065" lon="34.801887512">
<ele>817.656250</ele>
<time>2013-11-21T14:03:44Z</time>
<speed>3.870000</speed>
<extensions>
<speed>3.9</speed>
<temp>0.00</temp>
<bpm>0</bpm>
<rpm>0.00</rpm>
</extensions>
</trkpt>
<trkpt lat="30.678636551" lon="34.801975250">
<ele>818.031250</ele>
<time>2013-11-21T14:03:49Z</time>
<speed>4.190000</speed>
<extensions>
<speed>4.2</speed>
<temp>0.00</temp>
<bpm>0</bpm>
<rpm>0.00</rpm>
</extensions>
</trkpt>
<trkpt lat="30.678461075" lon="34.802070618">
<ele>818.187500</ele>
<time>2013-11-21T14:03:54Z</time>
<speed>3.670000</speed>
<extensions>
<speed>3.7</speed>
<temp>0.00</temp>
<bpm>0</bpm>
<rpm>0.00</rpm>
</extensions>
</trkpt>
<trkpt lat="30.678316116" lon="34.802150726">
<ele>817.890625</ele>
<time>2013-11-21T14:03:59Z</time>
<speed>3.160000</speed>
<extensions>
<speed>3.2</speed>
<temp>0.00</temp>
<bpm>0</bpm>
<rpm>0.00</rpm>
</extensions>
</trkpt>
<trkpt lat="30.678199768" lon="34.802219391">
<ele>819.281250</ele>
<time>2013-11-21T14:04:04Z</time>
<speed>2.480000</speed>
<extensions>
<speed>2.5</speed>
<temp>0.00</temp>
<bpm>0</bpm>
<rpm>0.00</rpm>
</extensions>
</trkpt>
<trkpt lat="30.678104401" lon="34.802276611">
<ele>820.609375</ele>
<time>2013-11-21T14:04:09Z</time>
<speed>2.220000</speed>
<extensions>
<speed>2.2</speed>
<temp>0.00</temp>
<bpm>0</bpm>
<rpm>0.00</rpm>
</extensions>
</trkpt>
<trkpt lat="30.678005219" lon="34.802326202">
<ele>819.968750</ele>
<time>2013-11-21T14:04:14Z</time>
<speed>2.280000</speed>
<extensions>
<speed>2.3</speed>
<temp>0.00</temp>
<bpm>0</bpm>
<rpm>0.00</rpm>
</extensions>
</trkpt>
<trkpt lat="30.677915573" lon="34.802387238">
<ele>818.453125</ele>
<time>2013-11-21T14:04:19Z</time>
<speed>2.180000</speed>
<extensions>
<speed>2.2</speed>
<temp>0.00</temp>
<bpm>0</bpm>
<rpm>0.00</rpm>
</extensions>
</trkpt>
<trkpt lat="30.677829742" lon="34.802436829">
<ele>818.062500</ele>
<time>2013-11-21T14:04:24Z</time>
<speed>2.160000</speed>
<extensions>
<speed>2.2</speed>
<temp>0.00</temp>
<bpm>0</bpm>
<rpm>0.00</rpm>
</extensions>
</trkpt>
<trkpt lat="30.677717209" lon="34.802497864">
<ele>818.125000</ele>
<time>2013-11-21T14:04:29Z</time>
<speed>3.350000</speed>
<extensions>
<speed>3.4</speed>
<temp>0.00</temp>
<bpm>0</bpm>
<rpm>0.00</rpm>
</extensions>
</trkpt>
<trkpt lat="30.677564621" lon="34.802589417">
<ele>819.484375</ele>
<time>2013-11-21T14:04:34Z</time>
<speed>3.970000</speed>
<extensions>
<speed>4.0</speed>
<temp>0.00</temp>
<bpm>0</bpm>
<rpm>0.00</rpm>
</extensions>
</trkpt>
<trkpt lat="30.677400589" lon="34.802677155">
<ele>819.500000</ele>
<time>2013-11-21T14:04:39Z</time>
<speed>4.520000</speed>
<extensions>
<speed>4.5</speed>
<temp>0.00</temp>
<bpm>0</bpm>
<rpm>0.00</rpm>
</extensions>
</trkpt>
<trkpt lat="30.677211761" lon="34.802783966">
<ele>819.375000</ele>
<time>2013-11-21T14:04:44Z</time>
<speed>4.810000</speed>
<extensions>
<speed>4.8</speed>
<temp>0.00</temp>
<bpm>0</bpm>
<rpm>0.00</rpm>
</extensions>
</trkpt>
<trkpt lat="30.676992416" lon="34.802902222">
<ele>819.765625</ele>
<time>2013-11-21T14:04:49Z</time>
<speed>5.640000</speed>
<extensions>
<speed>5.6</speed>
<temp>0.00</temp>
<bpm>0</bpm>
<rpm>0.00</rpm>
</extensions>
</trkpt>
<trkpt lat="30.676744461" lon="34.803043365">
<ele>818.875000</ele>
<time>2013-11-21T14:04:54Z</time>
<speed>6.750000</speed>
<extensions>
<speed>6.7</speed>
<temp>0.00</temp>
<bpm>0</bpm>
<rpm>0.00</rpm>
</extensions>
</trkpt>
<trkpt lat="30.676448822" lon="34.803211212">
<ele>817.968750</ele>
<time>2013-11-21T14:04:59Z</time>
<speed>7.740000</speed>
<extensions>
<speed>7.7</speed>
<temp>0.00</temp>
<bpm>0</bpm>
<rpm>0.00</rpm>
</extensions>
</trkpt>
<trkpt lat="30.676132202" lon="34.803401947">
<ele>816.234375</ele>
<time>2013-11-21T14:05:04Z</time>
<speed>8.700000</speed>
<extensions>
<speed>8.7</speed>
<temp>0.00</temp>
<bpm>0</bpm>
<rpm>0.00</rpm>
</extensions>
</trkpt>
<trkpt lat="30.675708771" lon="34.803585052">
<ele>813.187500</ele>
<time>2013-11-21T14:05:09Z</time>
<speed>10.440000</speed>
<extensions>
<speed>10.4</speed>
<temp>0.00</temp>
<bpm>0</bpm>
<rpm>0.00</rpm>
</extensions>
</trkpt>
<trkpt lat="30.675186157" lon="34.803733826">
<ele>809.328125</ele>
<time>2013-11-21T14:05:14Z</time>
<speed>12.790000</speed>
<extensions>
<speed>12.8</speed>
<temp>0.00</temp>
<bpm>0</bpm>
<rpm>0.00</rpm>
</extensions>
</trkpt>
<trkpt lat="30.674558640" lon="34.803829193">
<ele>805.734375</ele>
<time>2013-11-21T14:05:19Z</time>
<speed>14.880000</speed>
<extensions>
<speed>14.9</speed>
<temp>0.00</temp>
<bpm>0</bpm>
<rpm>0.00</rpm>
</extensions>
</trkpt>
<trkpt lat="30.673883438" lon="34.803886414">
<ele>803.390625</ele>
<time>2013-11-21T14:05:24Z</time>
<speed>14.690000</speed>
<extensions>
<speed>14.7</speed>
<temp>0.00</temp>
<bpm>0</bpm>
<rpm>0.00</rpm>
</extensions>
</trkpt>
<trkpt lat="30.673200607" lon="34.803970337">
<ele>799.656250</ele>
<time>2013-11-21T14:05:29Z</time>
<speed>14.590000</speed>
<extensions>
<speed>14.6</speed>
<temp>0.00</temp>
<bpm>0</bpm>
<rpm>0.00</rpm>
</extensions>
</trkpt>
<trkpt lat="30.672578812" lon="34.804019928">
<ele>797.656250</ele>
<time>2013-11-21T14:05:34Z</time>
<speed>13.449999</speed>
<extensions>
<speed>13.4</speed>
<temp>0.00</temp>
<bpm>0</bpm>
<rpm>0.00</rpm>
</extensions>
</trkpt>
<trkpt lat="30.672014236" lon="34.804065704">
<ele>794.609375</ele>
<time>2013-11-21T14:05:39Z</time>
<speed>11.940000</speed>
<extensions>
<speed>11.9</speed>
<temp>0.00</temp>
<bpm>0</bpm>
<rpm>0.00</rpm>
</extensions>
</trkpt>
<trkpt lat="30.671522141" lon="34.804134369">
<ele>794.890625</ele>
<time>2013-11-21T14:05:44Z</time>
<speed>10.130000</speed>
<extensions>
<speed>10.1</speed>
<temp>0.00</temp>
<bpm>0</bpm>
<rpm>0.00</rpm>
</extensions>
</trkpt>
<trkpt lat="30.671100616" lon="34.804168701">
<ele>794.750000</ele>
<time>2013-11-21T14:05:49Z</time>
<speed>8.490000</speed>
<extensions>
<speed>8.5</speed>
<temp>0.00</temp>
<bpm>0</bpm>
<rpm>0.00</rpm>
</extensions>
</trkpt>
<trkpt lat="30.670753479" lon="34.804187775">
<ele>796.562500</ele>
<time>2013-11-21T14:05:54Z</time>
<speed>7.950000</speed>
<extensions>
<speed>8.0</speed>
<temp>0.00</temp>
<bpm>0</bpm>
<rpm>0.00</rpm>
</extensions>
</trkpt>
<trkpt lat="30.670427322" lon="34.804210663">
<ele>797.500000</ele>
<time>2013-11-21T14:05:59Z</time>
<speed>7.300000</speed>
<extensions>
<speed>7.3</speed>
<temp>0.00</temp>
<bpm>0</bpm>
<rpm>0.00</rpm>
</extensions>
</trkpt>
<trkpt lat="30.670112610" lon="34.804248810">
<ele>798.703125</ele>
<time>2013-11-21T14:06:04Z</time>
<speed>6.210000</speed>
<extensions>
<speed>6.2</speed>
<temp>0.00</temp>
<bpm>0</bpm>
<rpm>0.00</rpm>
</extensions>
</trkpt>
<trkpt lat="30.669853210" lon="34.804283142">
<ele>798.078125</ele>
<time>2013-11-21T14:06:09Z</time>
<speed>4.600000</speed>
<extensions>
<speed>4.6</speed>
<temp>0.00</temp>
<bpm>0</bpm>
<rpm>0.00</rpm>
</extensions>
</trkpt>
<trkpt lat="30.669660568" lon="34.804317474">
<ele>799.937500</ele>
<time>2013-11-21T14:06:14Z</time>
<speed>4.630000</speed>
<extensions>
<speed>4.6</speed>
<temp>0.00</temp>
<bpm>0</bpm>
<rpm>0.00</rpm>
</extensions>
</trkpt>
<trkpt lat="30.669452667" lon="34.804336548">
<ele>799.609375</ele>
<time>2013-11-21T14:06:19Z</time>
<speed>4.820000</speed>
<extensions>
<speed>4.8</speed>
<temp>0.00</temp>
<bpm>0</bpm>
<rpm>0.00</rpm>
</extensions>
</trkpt>
<trkpt lat="30.669263840" lon="34.804344177">
<ele>798.875000</ele>
<time>2013-11-21T14:06:24Z</time>
<speed>3.930000</speed>
<extensions>
<speed>3.9</speed>
<temp>0.00</temp>
<bpm>0</bpm>
<rpm>0.00</rpm>
</extensions>
</trkpt>
<trkpt lat="30.669086456" lon="34.804359436">
<ele>799.312500</ele>
<time>2013-11-21T14:06:29Z</time>
<speed>3.430000</speed>
<extensions>
<speed>3.4</speed>
<temp>0.00</temp>
<bpm>0</bpm>
<rpm>0.00</rpm>
</extensions>
</trkpt>
<trkpt lat="30.668994904" lon="34.804370880">
<ele>798.656250</ele>
<time>2013-11-21T14:06:34Z</time>
<speed>1.860000</speed>
<extensions>
<speed>1.9</speed>
<temp>0.00</temp>
<bpm>0</bpm>
<rpm>0.00</rpm>
</extensions>
</trkpt>
<trkpt lat="30.668910980" lon="34.804393768">
<ele>799.593750</ele>
<time>2013-11-21T14:06:39Z</time>
<speed>2.700000</speed>
<extensions>
<speed>2.7</speed>
<temp>0.00</temp>
<bpm>0</bpm>
<rpm>0.00</rpm>
</extensions>
</trkpt>
<trkpt lat="30.668769836" lon="34.804389954">
<ele>797.703125</ele>
<time>2013-11-21T14:06:44Z</time>
<speed>3.440000</speed>
<extensions>
<speed>3.4</speed>
<temp>0.00</temp>
<bpm>0</bpm>
<rpm>0.00</rpm>
</extensions>
</trkpt>
<trkpt lat="30.668619156" lon="34.804401398">
<ele>797.437500</ele>
<time>2013-11-21T14:06:49Z</time>
<speed>2.830000</speed>
<extensions>
<speed>2.8</speed>
<temp>0.00</temp>
<bpm>0</bpm>
<rpm>0.00</rpm>
</extensions>
</trkpt>
<trkpt lat="30.668544769" lon="34.804409027">
<ele>796.515625</ele>
<time>2013-11-21T14:06:54Z</time>
<speed>2.090000</speed>
<extensions>
<speed>2.1</speed>
<temp>0.00</temp>
<bpm>0</bpm>
<rpm>0.00</rpm>
</extensions>
</trkpt>
<trkpt lat="30.668420792" lon="34.804412842">
<ele>797.390625</ele>
<time>2013-11-21T14:06:59Z</time>
<speed>3.010000</speed>
<extensions>
<speed>3.0</speed>
<temp>0.00</temp>
<bpm>0</bpm>
<rpm>0.00</rpm>
</extensions>
</trkpt>
<trkpt lat="30.668262482" lon="34.804431915">
<ele>798.203125</ele>
<time>2013-11-21T14:07:04Z</time>
<speed>3.050000</speed>
<extensions>
<speed>3.0</speed>
<temp>0.00</temp>
<bpm>0</bpm>
<rpm>0.00</rpm>
</extensions>
</trkpt>
<trkpt lat="30.668096542" lon="34.804435730">
<ele>798.312500</ele>
<time>2013-11-21T14:07:09Z</time>
<speed>3.730000</speed>
<extensions>
<speed>3.7</speed>
<temp>0.00</temp>
<bpm>0</bpm>
<rpm>0.00</rpm>
</extensions>
</trkpt>
<trkpt lat="30.667963028" lon="34.804470062">
<ele>797.718750</ele>
<time>2013-11-21T14:07:14Z</time>
<speed>3.350000</speed>
<extensions>
<speed>3.4</speed>
<temp>0.00</temp>
<bpm>0</bpm>
<rpm>0.00</rpm>
</extensions>
</trkpt>
<trkpt lat="30.667798996" lon="34.804508209">
<ele>797.906250</ele>
<time>2013-11-21T14:07:19Z</time>
<speed>3.280000</speed>
<extensions>
<speed>3.3</speed>
<temp>0.00</temp>
<bpm>0</bpm>
<rpm>0.00</rpm>
</extensions>
</trkpt>
<trkpt lat="30.667638779" lon="34.804531097">
<ele>798.046875</ele>
<time>2013-11-21T14:07:24Z</time>
<speed>3.290000</speed>
<extensions>
<speed>3.3</speed>
<temp>0.00</temp>
<bpm>0</bpm>
<rpm>0.00</rpm>
</extensions>
</trkpt>
<trkpt lat="30.667446136" lon="34.804573059">
<ele>799.828125</ele>
<time>2013-11-21T14:07:29Z</time>
<speed>4.030000</speed>
<extensions>
<speed>4.0</speed>
<temp>0.00</temp>
<bpm>0</bpm>
<rpm>0.00</rpm>
</extensions>
</trkpt>
<trkpt lat="30.667274475" lon="34.804603577">
<ele>798.140625</ele>
<time>2013-11-21T14:07:34Z</time>
<speed>3.840000</speed>
<extensions>
<speed>3.8</speed>
<temp>0.00</temp>
<bpm>0</bpm>
<rpm>0.00</rpm>
</extensions>
</trkpt>
<trkpt lat="30.667081833" lon="34.804695129">
<ele>798.187500</ele>
<time>2013-11-21T14:07:39Z</time>
<speed>4.480000</speed>
<extensions>
<speed>4.5</speed>
<temp>0.00</temp>
<bpm>0</bpm>
<rpm>0.00</rpm>
</extensions>
</trkpt>
<trkpt lat="30.666934967" lon="34.804779053">
<ele>796.578125</ele>
<time>2013-11-21T14:07:44Z</time>
<speed>3.530000</speed>
<extensions>
<speed>3.5</speed>
<temp>0.00</temp>
<bpm>0</bpm>
<rpm>0.00</rpm>
</extensions>
</trkpt>
<trkpt lat="30.666812897" lon="34.804866791">
<ele>796.000000</ele>
<time>2013-11-21T14:07:49Z</time>
<speed>2.710000</speed>
<extensions>
<speed>2.7</speed>
<temp>0.00</temp>
<bpm>0</bpm>
<rpm>0.00</rpm>
</extensions>
</trkpt>
<trkpt lat="30.666732788" lon="34.804950714">
<ele>795.156250</ele>
<time>2013-11-21T14:07:54Z</time>
<speed>2.430000</speed>
<extensions>
<speed>2.4</speed>
<temp>0.00</temp>
<bpm>0</bpm>
<rpm>0.00</rpm>
</extensions>
</trkpt>
<trkpt lat="30.666656494" lon="34.805030823">
<ele>794.437500</ele>
<time>2013-11-21T14:07:59Z</time>
<speed>1.720000</speed>
<extensions>
<speed>1.7</speed>
<temp>0.00</temp>
<bpm>0</bpm>
<rpm>0.00</rpm>
</extensions>
</trkpt>
<trkpt lat="30.666595459" lon="34.805095673">
<ele>794.000000</ele>
<time>2013-11-21T14:08:04Z</time>
<speed>1.780000</speed>
<extensions>
<speed>1.8</speed>
<temp>0.00</temp>
<bpm>0</bpm>
<rpm>0.00</rpm>
</extensions>
</trkpt>
<trkpt lat="30.666545868" lon="34.805122375">
<ele>793.843750</ele>
<time>2013-11-21T14:08:09Z</time>
<speed>2.000000</speed>
<extensions>
<speed>2.0</speed>
<temp>0.00</temp>
<bpm>0</bpm>
<rpm>0.00</rpm>
</extensions>
</trkpt>
<trkpt lat="30.666475296" lon="34.805202484">
<ele>793.937500</ele>
<time>2013-11-21T14:08:14Z</time>
<speed>2.280000</speed>
<extensions>
<speed>2.3</speed>
<temp>0.00</temp>
<bpm>0</bpm>
<rpm>0.00</rpm>
</extensions>
</trkpt>
<trkpt lat="30.666442871" lon="34.805259705">
<ele>793.781250</ele>
<time>2013-11-21T14:08:19Z</time>
<speed>0.100000</speed>
<extensions>
<speed>0.1</speed>
<temp>0.00</temp>
<bpm>0</bpm>
<rpm>0.00</rpm>
</extensions>
</trkpt>
<trkpt lat="30.666435242" lon="34.805259705">
<ele>793.312500</ele>
<time>2013-11-21T14:08:24Z</time>
<speed>0.110000</speed>
<extensions>
<speed>0.1</speed>
<temp>0.00</temp>
<bpm>0</bpm>
<rpm>0.00</rpm>
</extensions>
</trkpt>
<trkpt lat="30.666433334" lon="34.805263519">
<ele>793.265625</ele>
<time>2013-11-21T14:08:29Z</time>
<speed>0.060000</speed>
<extensions>
<speed>0.1</speed>
<temp>0.00</temp>
<bpm>0</bpm>
<rpm>0.00</rpm>
</extensions>
</trkpt>
<trkpt lat="30.666425705" lon="34.805282593">
<ele>793.218750</ele>
<time>2013-11-21T14:08:34Z</time>
<speed>1.530000</speed>
<extensions>
<speed>1.5</speed>
<temp>0.00</temp>
<bpm>0</bpm>
<rpm>0.00</rpm>
</extensions>
</trkpt>
<trkpt lat="30.666337967" lon="34.805427551">
<ele>794.843750</ele>
<time>2013-11-21T14:08:39Z</time>
<speed>3.390000</speed>
<extensions>
<speed>3.4</speed>
<temp>0.00</temp>
<bpm>0</bpm>
<rpm>0.00</rpm>
</extensions>
</trkpt>
<trkpt lat="30.666236877" lon="34.805568695">
<ele>794.312500</ele>
<time>2013-11-21T14:08:44Z</time>
<speed>4.180000</speed>
<extensions>
<speed>4.2</speed>
<temp>0.00</temp>
<bpm>0</bpm>
<rpm>0.00</rpm>
</extensions>
</trkpt>
<trkpt lat="30.666109085" lon="34.805740356">
<ele>795.203125</ele>
<time>2013-11-21T14:08:49Z</time>
<speed>4.710000</speed>
<extensions>
<speed>4.7</speed>
<temp>0.00</temp>
<bpm>0</bpm>
<rpm>0.00</rpm>
</extensions>
</trkpt>
<trkpt lat="30.665941238" lon="34.805953979">
<ele>794.968750</ele>
<time>2013-11-21T14:08:54Z</time>
<speed>5.770000</speed>
<extensions>
<speed>5.8</speed>
<temp>0.00</temp>
<bpm>0</bpm>
<rpm>0.00</rpm>
</extensions>
</trkpt>
<trkpt lat="30.665756226" lon="34.806213379">
<ele>794.968750</ele>
<time>2013-11-21T14:08:59Z</time>
<speed>6.380000</speed>
<extensions>
<speed>6.4</speed>
<temp>0.00</temp>
<bpm>0</bpm>
<rpm>0.00</rpm>
</extensions>
</trkpt>
<trkpt lat="30.665550232" lon="34.806514740">
<ele>794.312500</ele>
<time>2013-11-21T14:09:04Z</time>
<speed>7.670000</speed>
<extensions>
<speed>7.7</speed>
<temp>0.00</temp>
<bpm>0</bpm>
<rpm>0.00</rpm>
</extensions>
</trkpt>
<trkpt lat="30.665302277" lon="34.806861877">
<ele>793.218750</ele>
<time>2013-11-21T14:09:09Z</time>
<speed>9.000000</speed>
<extensions>
<speed>9.0</speed>
<temp>0.00</temp>
<bpm>0</bpm>
<rpm>0.00</rpm>
</extensions>
</trkpt>
<trkpt lat="30.665027618" lon="34.807266235">
<ele>792.296875</ele>
<time>2013-11-21T14:09:14Z</time>
<speed>11.130000</speed>
<extensions>
<speed>11.1</speed>
<temp>0.00</temp>
<bpm>0</bpm>
<rpm>0.00</rpm>
</extensions>
</trkpt>
<trkpt lat="30.664697647" lon="34.807727814">
<ele>789.531250</ele>
<time>2013-11-21T14:09:19Z</time>
<speed>12.310001</speed>
<extensions>
<speed>12.3</speed>
<temp>0.00</temp>
<bpm>0</bpm>
<rpm>0.00</rpm>
</extensions>
</trkpt>
<trkpt lat="30.664289474" lon="34.808200836">
<ele>787.046875</ele>
<time>2013-11-21T14:09:24Z</time>
<speed>13.250000</speed>
<extensions>
<speed>13.3</speed>
<temp>0.00</temp>
<bpm>0</bpm>
<rpm>0.00</rpm>
</extensions>
</trkpt>
<trkpt lat="30.663764954" lon="34.808532715">
<ele>785.406250</ele>
<time>2013-11-21T14:09:29Z</time>
<speed>13.190000</speed>
<extensions>
<speed>13.2</speed>
<temp>0.00</temp>
<bpm>0</bpm>
<rpm>0.00</rpm>
</extensions>
</trkpt>
<trkpt lat="30.663236618" lon="34.808696747">
<ele>784.359375</ele>
<time>2013-11-21T14:09:34Z</time>
<speed>11.570000</speed>
<extensions>
<speed>11.6</speed>
<temp>0.00</temp>
<bpm>0</bpm>
<rpm>0.00</rpm>
</extensions>
</trkpt>
<trkpt lat="30.662769318" lon="34.808849335">
<ele>783.078125</ele>
<time>2013-11-21T14:09:39Z</time>
<speed>10.510000</speed>
<extensions>
<speed>10.5</speed>
<temp>0.00</temp>
<bpm>0</bpm>
<rpm>0.00</rpm>
</extensions>
</trkpt>
<trkpt lat="30.662296295" lon="34.809005737">
<ele>782.703125</ele>
<time>2013-11-21T14:09:44Z</time>
<speed>9.900000</speed>
<extensions>
<speed>9.9</speed>
<temp>0.00</temp>
<bpm>0</bpm>
<rpm>0.00</rpm>
</extensions>
</trkpt>
<trkpt lat="30.661869049" lon="34.809139252">
<ele>782.890625</ele>
<time>2013-11-21T14:09:49Z</time>
<speed>8.990000</speed>
<extensions>
<speed>9.0</speed>
<temp>0.00</temp>
<bpm>0</bpm>
<rpm>0.00</rpm>
</extensions>
</trkpt>
<trkpt lat="30.661506653" lon="34.809238434">
<ele>783.250000</ele>
<time>2013-11-21T14:09:54Z</time>
<speed>8.250000</speed>
<extensions>
<speed>8.3</speed>
<temp>0.00</temp>
<bpm>0</bpm>
<rpm>0.00</rpm>
</extensions>
</trkpt>
<trkpt lat="30.661174774" lon="34.809322357">
<ele>784.656250</ele>
<time>2013-11-21T14:09:59Z</time>
<speed>7.270000</speed>
<extensions>
<speed>7.3</speed>
<temp>0.00</temp>
<bpm>0</bpm>
<rpm>0.00</rpm>
</extensions>
</trkpt>
<trkpt lat="30.660881042" lon="34.809432983">
<ele>785.843750</ele>
<time>2013-11-21T14:10:04Z</time>
<speed>6.100000</speed>
<extensions>
<speed>6.1</speed>
<temp>0.00</temp>
<bpm>0</bpm>
<rpm>0.00</rpm>
</extensions>
</trkpt>
<trkpt lat="30.660652161" lon="34.809520721">
<ele>786.765625</ele>
<time>2013-11-21T14:10:09Z</time>
<speed>4.510000</speed>
<extensions>
<speed>4.5</speed>
<temp>0.00</temp>
<bpm>0</bpm>
<rpm>0.00</rpm>
</extensions>
</trkpt>
<trkpt lat="30.660440445" lon="34.809589386">
<ele>787.593750</ele>
<time>2013-11-21T14:10:14Z</time>
<speed>4.930000</speed>
<extensions>
<speed>4.9</speed>
<temp>0.00</temp>
<bpm>0</bpm>
<rpm>0.00</rpm>
</extensions>
</trkpt>
<trkpt lat="30.660238266" lon="34.809673309">
<ele>787.765625</ele>
<time>2013-11-21T14:10:19Z</time>
<speed>3.840000</speed>
<extensions>
<speed>3.8</speed>
<temp>0.00</temp>
<bpm>0</bpm>
<rpm>0.00</rpm>
</extensions>
</trkpt>
<trkpt lat="30.660037994" lon="34.809738159">
<ele>787.984375</ele>
<time>2013-11-21T14:10:24Z</time>
<speed>4.920000</speed>
<extensions>
<speed>4.9</speed>
<temp>0.00</temp>
<bpm>0</bpm>
<rpm>0.00</rpm>
</extensions>
</trkpt>
<trkpt lat="30.659841537" lon="34.809810638">
<ele>788.484375</ele>
<time>2013-11-21T14:10:29Z</time>
<speed>4.590000</speed>
<extensions>
<speed>4.6</speed>
<temp>0.00</temp>
<bpm>0</bpm>
<rpm>0.00</rpm>
</extensions>
</trkpt>
<trkpt lat="30.659633636" lon="34.809898376">
<ele>789.796875</ele>
<time>2013-11-21T14:10:34Z</time>
<speed>4.860000</speed>
<extensions>
<speed>4.9</speed>
<temp>0.00</temp>
<bpm>0</bpm>
<rpm>0.00</rpm>
</extensions>
</trkpt>
<trkpt lat="30.659431458" lon="34.809959412">
<ele>790.593750</ele>
<time>2013-11-21T14:10:39Z</time>
<speed>3.860000</speed>
<extensions>
<speed>3.9</speed>
<temp>0.00</temp>
<bpm>0</bpm>
<rpm>0.00</rpm>
</extensions>
</trkpt>
<trkpt lat="30.659240723" lon="34.810054779">
<ele>788.953125</ele>
<time>2013-11-21T14:10:44Z</time>
<speed>2.350000</speed>
<extensions>
<speed>2.4</speed>
<temp>0.00</temp>
<bpm>0</bpm>
<rpm>0.00</rpm>
</extensions>
</trkpt>
<trkpt lat="30.659137726" lon="34.810024261">
<ele>788.906250</ele>
<time>2013-11-21T14:10:49Z</time>
<speed>3.130000</speed>
<extensions>
<speed>3.1</speed>
<temp>0.00</temp>
<bpm>0</bpm>
<rpm>0.00</rpm>
</extensions>
</trkpt>
<trkpt lat="30.659015656" lon="34.809947968">
<ele>788.140625</ele>
<time>2013-11-21T14:10:54Z</time>
<speed>3.000000</speed>
<extensions>
<speed>3.0</speed>
<temp>0.00</temp>
<bpm>0</bpm>
<rpm>0.00</rpm>
</extensions>
</trkpt>
<trkpt lat="30.658893585" lon="34.809909821">
<ele>787.171875</ele>
<time>2013-11-21T14:10:59Z</time>
<speed>2.070000</speed>
<extensions>
<speed>2.1</speed>
<temp>0.00</temp>
<bpm>0</bpm>
<rpm>0.00</rpm>
</extensions>
</trkpt>
<trkpt lat="30.658823013" lon="34.809879303">
<ele>786.187500</ele>
<time>2013-11-21T14:11:04Z</time>
<speed>2.000000</speed>
<extensions>
<speed>2.0</speed>
<temp>0.00</temp>
<bpm>0</bpm>
<rpm>0.00</rpm>
</extensions>
</trkpt>
<trkpt lat="30.658733368" lon="34.809936523">
<ele>785.656250</ele>
<time>2013-11-21T14:11:09Z</time>
<speed>2.370000</speed>
<extensions>
<speed>2.4</speed>
<temp>0.00</temp>
<bpm>0</bpm>
<rpm>0.00</rpm>
</extensions>
</trkpt>
<trkpt lat="30.658607483" lon="34.810001373">
<ele>784.390625</ele>
<time>2013-11-21T14:11:14Z</time>
<speed>2.660000</speed>
<extensions>
<speed>2.7</speed>
<temp>0.00</temp>
<bpm>0</bpm>
<rpm>0.00</rpm>
</extensions>
</trkpt>
<trkpt lat="30.658502579" lon="34.810043335">
<ele>782.953125</ele>
<time>2013-11-21T14:11:19Z</time>
<speed>2.250000</speed>
<extensions>
<speed>2.3</speed>
<temp>0.00</temp>
<bpm>0</bpm>
<rpm>0.00</rpm>
</extensions>
</trkpt>
<trkpt lat="30.658437729" lon="34.810165405">
<ele>777.734375</ele>
<time>2013-11-21T14:11:24Z</time>
<speed>2.590000</speed>
<extensions>
<speed>2.6</speed>
<temp>0.00</temp>
<bpm>0</bpm>
<rpm>0.00</rpm>
</extensions>
</trkpt>
<trkpt lat="30.658388138" lon="34.810195923">
<ele>776.078125</ele>
<time>2013-11-21T14:11:29Z</time>
<speed>2.620000</speed>
<extensions>
<speed>2.6</speed>
<temp>0.00</temp>
<bpm>0</bpm>
<rpm>0.00</rpm>
</extensions>
</trkpt>
<trkpt lat="30.658300400" lon="34.810234070">
<ele>775.390625</ele>
<time>2013-11-21T14:11:34Z</time>
<speed>2.010000</speed>
<extensions>
<speed>2.0</speed>
<temp>0.00</temp>
<bpm>0</bpm>
<rpm>0.00</rpm>
</extensions>
</trkpt>
<trkpt lat="30.658201218" lon="34.810234070">
<ele>773.859375</ele>
<time>2013-11-21T14:11:39Z</time>
<speed>1.780000</speed>
<extensions>
<speed>1.8</speed>
<temp>0.00</temp>
<bpm>0</bpm>
<rpm>0.00</rpm>
</extensions>
</trkpt>
<trkpt lat="30.658111572" lon="34.810211182">
<ele>772.781250</ele>
<time>2013-11-21T14:11:44Z</time>
<speed>2.420000</speed>
<extensions>
<speed>2.4</speed>
<temp>0.00</temp>
<bpm>0</bpm>
<rpm>0.00</rpm>
</extensions>
</trkpt>
<trkpt lat="30.657955170" lon="34.810180664">
<ele>770.375000</ele>
<time>2013-11-21T14:11:49Z</time>
<speed>3.880000</speed>
<extensions>
<speed>3.9</speed>
<temp>0.00</temp>
<bpm>0</bpm>
<rpm>0.00</rpm>
</extensions>
</trkpt>
<trkpt lat="30.657756805" lon="34.810173035">
<ele>770.656250</ele>
<time>2013-11-21T14:11:54Z</time>
<speed>3.320000</speed>
<extensions>
<speed>3.3</speed>
<temp>0.00</temp>
<bpm>0</bpm>
<rpm>0.00</rpm>
</extensions>
</trkpt>
<trkpt lat="30.657629013" lon="34.810115814">
<ele>770.000000</ele>
<time>2013-11-21T14:11:59Z</time>
<speed>2.340000</speed>
<extensions>
<speed>2.3</speed>
<temp>0.00</temp>
<bpm>0</bpm>
<rpm>0.00</rpm>
</extensions>
</trkpt>
<trkpt lat="30.657474518" lon="34.810085297">
<ele>771.312500</ele>
<time>2013-11-21T14:12:04Z</time>
<speed>3.300000</speed>
<extensions>
<speed>3.3</speed>
<temp>0.00</temp>
<bpm>0</bpm>
<rpm>0.00</rpm>
</extensions>
</trkpt>
<trkpt lat="30.657325745" lon="34.810077667">
<ele>773.640625</ele>
<time>2013-11-21T14:12:09Z</time>
<speed>3.490000</speed>
<extensions>
<speed>3.5</speed>
<temp>0.00</temp>
<bpm>0</bpm>
<rpm>0.00</rpm>
</extensions>
</trkpt>
<trkpt lat="30.657169342" lon="34.810058594">
<ele>772.390625</ele>
<time>2013-11-21T14:12:14Z</time>
<speed>3.470000</speed>
<extensions>
<speed>3.5</speed>
<temp>0.00</temp>
<bpm>0</bpm>
<rpm>0.00</rpm>
</extensions>
</trkpt>
<trkpt lat="30.657001495" lon="34.810035706">
<ele>772.406250</ele>
<time>2013-11-21T14:12:19Z</time>
<speed>3.610000</speed>
<extensions>
<speed>3.6</speed>
<temp>0.00</temp>
<bpm>0</bpm>
<rpm>0.00</rpm>
</extensions>
</trkpt>
<trkpt lat="30.656847000" lon="34.810024261">
<ele>771.343750</ele>
<time>2013-11-21T14:12:24Z</time>
<speed>3.240000</speed>
<extensions>
<speed>3.2</speed>
<temp>0.00</temp>
<bpm>0</bpm>
<rpm>0.00</rpm>
</extensions>
</trkpt>
<trkpt lat="30.656703949" lon="34.810009003">
<ele>775.390625</ele>
<time>2013-11-21T14:12:29Z</time>
<speed>3.250000</speed>
<extensions>
<speed>3.2</speed>
<temp>0.00</temp>
<bpm>0</bpm>
<rpm>0.00</rpm>
</extensions>
</trkpt>
<trkpt lat="30.656545639" lon="34.810001373">
<ele>776.375000</ele>
<time>2013-11-21T14:12:34Z</time>
<speed>3.370000</speed>
<extensions>
<speed>3.4</speed>
<temp>0.00</temp>
<bpm>0</bpm>
<rpm>0.00</rpm>
</extensions>
</trkpt>
<trkpt lat="30.656400681" lon="34.810001373">
<ele>777.468750</ele>
<time>2013-11-21T14:12:39Z</time>
<speed>3.490000</speed>
<extensions>
<speed>3.5</speed>
<temp>0.00</temp>
<bpm>0</bpm>
<rpm>0.00</rpm>
</extensions>
</trkpt>
<trkpt lat="30.656242371" lon="34.810009003">
<ele>778.703125</ele>
<time>2013-11-21T14:12:44Z</time>
<speed>3.720000</speed>
<extensions>
<speed>3.7</speed>
<temp>0.00</temp>
<bpm>0</bpm>
<rpm>0.00</rpm>
</extensions>
</trkpt>
<trkpt lat="30.656084061" lon="34.809989929">
<ele>778.109375</ele>
<time>2013-11-21T14:12:49Z</time>
<speed>3.590000</speed>
<extensions>
<speed>3.6</speed>
<temp>0.00</temp>
<bpm>0</bpm>
<rpm>0.00</rpm>
</extensions>
</trkpt>
<trkpt lat="30.655912399" lon="34.809978485">
<ele>777.968750</ele>
<time>2013-11-21T14:12:54Z</time>
<speed>3.750000</speed>
<extensions>
<speed>3.8</speed>
<temp>0.00</temp>
<bpm>0</bpm>
<rpm>0.00</rpm>
</extensions>
</trkpt>
<trkpt lat="30.655733109" lon="34.809963226">
<ele>777.140625</ele>
<time>2013-11-21T14:12:59Z</time>
<speed>3.640000</speed>
<extensions>
<speed>3.6</speed>
<temp>0.00</temp>
<bpm>0</bpm>
<rpm>0.00</rpm>
</extensions>
</trkpt>
<trkpt lat="30.655550003" lon="34.809955597">
<ele>777.468750</ele>
<time>2013-11-21T14:13:04Z</time>
<speed>4.170000</speed>
<extensions>
<speed>4.2</speed>
<temp>0.00</temp>
<bpm>0</bpm>
<rpm>0.00</rpm>
</extensions>
</trkpt>
<trkpt lat="30.655364990" lon="34.809917450">
<ele>777.359375</ele>
<time>2013-11-21T14:13:09Z</time>
<speed>4.080000</speed>
<extensions>
<speed>4.1</speed>
<temp>0.00</temp>
<bpm>0</bpm>
<rpm>0.00</rpm>
</extensions>
</trkpt>
<trkpt lat="30.655181885" lon="34.809913635">
<ele>778.781250</ele>
<time>2013-11-21T14:13:14Z</time>
<speed>4.100000</speed>
<extensions>
<speed>4.1</speed>
<temp>0.00</temp>
<bpm>0</bpm>
<rpm>0.00</rpm>
</extensions>
</trkpt>
<trkpt lat="30.655006409" lon="34.809894562">
<ele>778.812500</ele>
<time>2013-11-21T14:13:19Z</time>
<speed>4.040000</speed>
<extensions>
<speed>4.0</speed>
<temp>0.00</temp>
<bpm>0</bpm>
<rpm>0.00</rpm>
</extensions>
</trkpt>
<trkpt lat="30.654827118" lon="34.809883118">
<ele>779.093750</ele>
<time>2013-11-21T14:13:24Z</time>
<speed>4.040000</speed>
<extensions>
<speed>4.0</speed>
<temp>0.00</temp>
<bpm>0</bpm>
<rpm>0.00</rpm>
</extensions>
</trkpt>
<trkpt lat="30.654644012" lon="34.809890747">
<ele>780.890625</ele>
<time>2013-11-21T14:13:29Z</time>
<speed>3.800000</speed>
<extensions>
<speed>3.8</speed>
<temp>0.00</temp>
<bpm>0</bpm>
<rpm>0.00</rpm>
</extensions>
</trkpt>
<trkpt lat="30.654464722" lon="34.809856415">
<ele>783.406250</ele>
<time>2013-11-21T14:13:34Z</time>
<speed>4.170000</speed>
<extensions>
<speed>4.2</speed>
<temp>0.00</temp>
<bpm>0</bpm>
<rpm>0.00</rpm>
</extensions>
</trkpt>
<trkpt lat="30.654287338" lon="34.809856415">
<ele>784.234375</ele>
<time>2013-11-21T14:13:39Z</time>
<speed>3.710000</speed>
<extensions>
<speed>3.7</speed>
<temp>0.00</temp>
<bpm>0</bpm>
<rpm>0.00</rpm>
</extensions>
</trkpt>
<trkpt lat="30.654127121" lon="34.809844971">
<ele>785.453125</ele>
<time>2013-11-21T14:13:44Z</time>
<speed>3.860000</speed>
<extensions>
<speed>3.9</speed>
<temp>0.00</temp>
<bpm>0</bpm>
<rpm>0.00</rpm>
</extensions>
</trkpt>
<trkpt lat="30.653970718" lon="34.809837341">
<ele>786.531250</ele>
<time>2013-11-21T14:13:49Z</time>
<speed>3.520000</speed>
<extensions>
<speed>3.5</speed>
<temp>0.00</temp>
<bpm>0</bpm>
<rpm>0.00</rpm>
</extensions>
</trkpt>
<trkpt lat="30.653814316" lon="34.809803009">
<ele>787.031250</ele>
<time>2013-11-21T14:13:54Z</time>
<speed>3.470000</speed>
<extensions>
<speed>3.5</speed>
<temp>0.00</temp>
<bpm>0</bpm>
<rpm>0.00</rpm>
</extensions>
</trkpt>
<trkpt lat="30.653657913" lon="34.809803009">
<ele>785.421875</ele>
<time>2013-11-21T14:13:59Z</time>
<speed>3.360000</speed>
<extensions>
<speed>3.4</speed>
<temp>0.00</temp>
<bpm>0</bpm>
<rpm>0.00</rpm>
</extensions>
</trkpt>
<trkpt lat="30.653518677" lon="34.809806824">
<ele>784.843750</ele>
<time>2013-11-21T14:14:04Z</time>
<speed>3.240000</speed>
<extensions>
<speed>3.2</speed>
<temp>0.00</temp>
<bpm>0</bpm>
<rpm>0.00</rpm>
</extensions>
</trkpt>
<trkpt lat="30.653373718" lon="34.809803009">
<ele>785.343750</ele>
<time>2013-11-21T14:14:09Z</time>
<speed>3.330000</speed>
<extensions>
<speed>3.3</speed>
<temp>0.00</temp>
<bpm>0</bpm>
<rpm>0.00</rpm>
</extensions>
</trkpt>
<trkpt lat="30.653223038" lon="34.809776306">
<ele>785.015625</ele>
<time>2013-11-21T14:14:14Z</time>
<speed>3.580000</speed>
<extensions>
<speed>3.6</speed>
<temp>0.00</temp>
<bpm>0</bpm>
<rpm>0.00</rpm>
</extensions>
</trkpt>
<trkpt lat="30.653089523" lon="34.809764862">
<ele>785.093750</ele>
<time>2013-11-21T14:14:19Z</time>
<speed>2.650000</speed>
<extensions>
<speed>2.6</speed>
<temp>0.00</temp>
<bpm>0</bpm>
<rpm>0.00</rpm>
</extensions>
</trkpt>
<trkpt lat="30.652971268" lon="34.809791565">
<ele>784.812500</ele>
<time>2013-11-21T14:14:24Z</time>
<speed>2.820000</speed>
<extensions>
<speed>2.8</speed>
<temp>0.00</temp>
<bpm>0</bpm>
<rpm>0.00</rpm>
</extensions>
</trkpt>
<trkpt lat="30.652866364" lon="34.809852600">
<ele>783.718750</ele>
<time>2013-11-21T14:14:29Z</time>
<speed>2.190000</speed>
<extensions>
<speed>2.2</speed>
<temp>0.00</temp>
<bpm>0</bpm>
<rpm>0.00</rpm>
</extensions>
</trkpt>
<trkpt lat="30.652822495" lon="34.809955597">
<ele>783.781250</ele>
<time>2013-11-21T14:14:34Z</time>
<speed>2.490000</speed>
<extensions>
<speed>2.5</speed>
<temp>0.00</temp>
<bpm>0</bpm>
<rpm>0.00</rpm>
</extensions>
</trkpt>
<trkpt lat="30.652828217" lon="34.810096741">
<ele>782.703125</ele>
<time>2013-11-21T14:14:39Z</time>
<speed>2.740000</speed>
<extensions>
<speed>2.7</speed>
<temp>0.00</temp>
<bpm>0</bpm>
<rpm>0.00</rpm>
</extensions>
</trkpt>
<trkpt lat="30.652807236" lon="34.810249329">
<ele>783.375000</ele>
<time>2013-11-21T14:14:44Z</time>
<speed>2.920000</speed>
<extensions>
<speed>2.9</speed>
<temp>0.00</temp>
<bpm>0</bpm>
<rpm>0.00</rpm>
</extensions>
</trkpt>
<trkpt lat="30.652727127" lon="34.810302734">
<ele>785.015625</ele>
<time>2013-11-21T14:14:49Z</time>
<speed>2.120000</speed>
<extensions>
<speed>2.1</speed>
<temp>0.00</temp>
<bpm>0</bpm>
<rpm>0.00</rpm>
</extensions>
</trkpt>
<trkpt lat="30.652654648" lon="34.810249329">
<ele>786.781250</ele>
<time>2013-11-21T14:14:54Z</time>
<speed>2.260000</speed>
<extensions>
<speed>2.3</speed>
<temp>0.00</temp>
<bpm>0</bpm>
<rpm>0.00</rpm>
</extensions>
</trkpt>
<trkpt lat="30.652540207" lon="34.810207367">
<ele>787.218750</ele>
<time>2013-11-21T14:14:59Z</time>
<speed>2.690000</speed>
<extensions>
<speed>2.7</speed>
<temp>0.00</temp>
<bpm>0</bpm>
<rpm>0.00</rpm>
</extensions>
</trkpt>
<trkpt lat="30.652406693" lon="34.810161591">
<ele>787.718750</ele>
<time>2013-11-21T14:15:04Z</time>
<speed>2.940000</speed>
<extensions>
<speed>2.9</speed>
<temp>0.00</temp>
<bpm>0</bpm>
<rpm>0.00</rpm>
</extensions>
</trkpt>
<trkpt lat="30.652284622" lon="34.810127258">
<ele>788.656250</ele>
<time>2013-11-21T14:15:09Z</time>
<speed>2.740000</speed>
<extensions>
<speed>2.7</speed>
<temp>0.00</temp>
<bpm>0</bpm>
<rpm>0.00</rpm>
</extensions>
</trkpt>
<trkpt lat="30.652154922" lon="34.810092926">
<ele>788.781250</ele>
<time>2013-11-21T14:15:14Z</time>
<speed>3.030000</speed>
<extensions>
<speed>3.0</speed>
<temp>0.00</temp>
<bpm>0</bpm>
<rpm>0.00</rpm>
</extensions>
</trkpt>
<trkpt lat="30.652013779" lon="34.810039520">
<ele>788.890625</ele>
<time>2013-11-21T14:15:19Z</time>
<speed>3.260000</speed>
<extensions>
<speed>3.3</speed>
<temp>0.00</temp>
<bpm>0</bpm>
<rpm>0.00</rpm>
</extensions>
</trkpt>
<trkpt lat="30.651878357" lon="34.810005188">
<ele>788.031250</ele>
<time>2013-11-21T14:15:24Z</time>
<speed>3.190000</speed>
<extensions>
<speed>3.2</speed>
<temp>0.00</temp>
<bpm>0</bpm>
<rpm>0.00</rpm>
</extensions>
</trkpt>
<trkpt lat="30.651739120" lon="34.809982300">
<ele>785.500000</ele>
<time>2013-11-21T14:15:29Z</time>
<speed>3.220000</speed>
<extensions>
<speed>3.2</speed>
<temp>0.00</temp>
<bpm>0</bpm>
<rpm>0.00</rpm>
</extensions>
</trkpt>
<trkpt lat="30.651584625" lon="34.809936523">
<ele>785.109375</ele>
<time>2013-11-21T14:15:34Z</time>
<speed>3.470000</speed>
<extensions>
<speed>3.5</speed>
<temp>0.00</temp>
<bpm>0</bpm>
<rpm>0.00</rpm>
</extensions>
</trkpt>
<trkpt lat="30.651439667" lon="34.809879303">
<ele>786.359375</ele>
<time>2013-11-21T14:15:39Z</time>
<speed>3.680000</speed>
<extensions>
<speed>3.7</speed>
<temp>0.00</temp>
<bpm>0</bpm>
<rpm>0.00</rpm>
</extensions>
</trkpt>
<trkpt lat="30.651273727" lon="34.809825897">
<ele>786.703125</ele>
<time>2013-11-21T14:15:44Z</time>
<speed>3.850000</speed>
<extensions>
<speed>3.8</speed>
<temp>0.00</temp>
<bpm>0</bpm>
<rpm>0.00</rpm>
</extensions>
</trkpt>
<trkpt lat="30.651107788" lon="34.809772491">
<ele>786.734375</ele>
<time>2013-11-21T14:15:49Z</time>
<speed>3.540000</speed>
<extensions>
<speed>3.5</speed>
<temp>0.00</temp>
<bpm>0</bpm>
<rpm>0.00</rpm>
</extensions>
</trkpt>
<trkpt lat="30.650983810" lon="34.809734344">
<ele>788.359375</ele>
<time>2013-11-21T14:15:54Z</time>
<speed>2.470000</speed>
<extensions>
<speed>2.5</speed>
<temp>0.00</temp>
<bpm>0</bpm>
<rpm>0.00</rpm>
</extensions>
</trkpt>
<trkpt lat="30.650852203" lon="34.809696198">
<ele>789.406250</ele>
<time>2013-11-21T14:15:59Z</time>
<speed>2.940000</speed>
<extensions>
<speed>2.9</speed>
<temp>0.00</temp>
<bpm>0</bpm>
<rpm>0.00</rpm>
</extensions>
</trkpt>
<trkpt lat="30.650707245" lon="34.809665680">
<ele>792.640625</ele>
<time>2013-11-21T14:16:04Z</time>
<speed>3.130000</speed>
<extensions>
<speed>3.1</speed>
<temp>0.00</temp>
<bpm>0</bpm>
<rpm>0.00</rpm>
</extensions>
</trkpt>
<trkpt lat="30.650568008" lon="34.809627533">
<ele>795.359375</ele>
<time>2013-11-21T14:16:09Z</time>
<speed>3.250000</speed>
<extensions>
<speed>3.2</speed>
<temp>0.00</temp>
<bpm>0</bpm>
<rpm>0.00</rpm>
</extensions>
</trkpt>
<trkpt lat="30.650417328" lon="34.809585571">
<ele>797.078125</ele>
<time>2013-11-21T14:16:14Z</time>
<speed>3.500000</speed>
<extensions>
<speed>3.5</speed>
<temp>0.00</temp>
<bpm>0</bpm>
<rpm>0.00</rpm>
</extensions>
</trkpt>
<trkpt lat="30.650262833" lon="34.809516907">
<ele>797.953125</ele>
<time>2013-11-21T14:16:19Z</time>
<speed>3.840000</speed>
<extensions>
<speed>3.8</speed>
<temp>0.00</temp>
<bpm>0</bpm>
<rpm>0.00</rpm>
</extensions>
</trkpt>
<trkpt lat="30.650085449" lon="34.809444427">
<ele>799.171875</ele>
<time>2013-11-21T14:16:24Z</time>
<speed>4.250000</speed>
<extensions>
<speed>4.3</speed>
<temp>0.00</temp>
<bpm>0</bpm>
<rpm>0.00</rpm>
</extensions>
</trkpt>
<trkpt lat="30.649900436" lon="34.809368134">
<ele>798.343750</ele>
<time>2013-11-21T14:16:29Z</time>
<speed>4.110000</speed>
<extensions>
<speed>4.1</speed>
<temp>0.00</temp>
<bpm>0</bpm>
<rpm>0.00</rpm>
</extensions>
</trkpt>
<trkpt lat="30.649726868" lon="34.809303284">
<ele>798.531250</ele>
<time>2013-11-21T14:16:34Z</time>
<speed>3.550000</speed>
<extensions>
<speed>3.5</speed>
<temp>0.00</temp>
<bpm>0</bpm>
<rpm>0.00</rpm>
</extensions>
</trkpt>
<trkpt lat="30.649578094" lon="34.809246063">
<ele>800.812500</ele>
<time>2013-11-21T14:16:39Z</time>
<speed>3.980000</speed>
<extensions>
<speed>4.0</speed>
<temp>0.00</temp>
<bpm>0</bpm>
<rpm>0.00</rpm>
</extensions>
</trkpt>
<trkpt lat="30.649406433" lon="34.809158325">
<ele>800.890625</ele>
<time>2013-11-21T14:16:44Z</time>
<speed>4.590000</speed>
<extensions>
<speed>4.6</speed>
<temp>0.00</temp>
<bpm>0</bpm>
<rpm>0.00</rpm>
</extensions>
</trkpt>
<trkpt lat="30.649238586" lon="34.809074402">
<ele>801.218750</ele>
<time>2013-11-21T14:16:49Z</time>
<speed>3.700000</speed>
<extensions>
<speed>3.7</speed>
<temp>0.00</temp>
<bpm>0</bpm>
<rpm>0.00</rpm>
</extensions>
</trkpt>
<trkpt lat="30.649089813" lon="34.808982849">
<ele>800.687500</ele>
<time>2013-11-21T14:16:54Z</time>
<speed>4.060000</speed>
<extensions>
<speed>4.1</speed>
<temp>0.00</temp>
<bpm>0</bpm>
<rpm>0.00</rpm>
</extensions>
</trkpt>
<trkpt lat="30.648933411" lon="34.808902740">
<ele>800.187500</ele>
<time>2013-11-21T14:16:59Z</time>
<speed>3.890000</speed>
<extensions>
<speed>3.9</speed>
<temp>0.00</temp>
<bpm>0</bpm>
<rpm>0.00</rpm>
</extensions>
</trkpt>
<trkpt lat="30.648754120" lon="34.808807373">
<ele>798.937500</ele>
<time>2013-11-21T14:17:04Z</time>
<speed>4.390000</speed>
<extensions>
<speed>4.4</speed>
<temp>0.00</temp>
<bpm>0</bpm>
<rpm>0.00</rpm>
</extensions>
</trkpt>
<trkpt lat="30.648540497" lon="34.808700562">
<ele>798.609375</ele>
<time>2013-11-21T14:17:09Z</time>
<speed>5.390000</speed>
<extensions>
<speed>5.4</speed>
<temp>0.00</temp>
<bpm>0</bpm>
<rpm>0.00</rpm>
</extensions>
</trkpt>
<trkpt lat="30.648303986" lon="34.808586121">
<ele>798.828125</ele>
<time>2013-11-21T14:17:14Z</time>
<speed>5.500000</speed>
<extensions>
<speed>5.5</speed>
<temp>0.00</temp>
<bpm>0</bpm>
<rpm>0.00</rpm>
</extensions>
</trkpt>
<trkpt lat="30.648092270" lon="34.808475494">
<ele>796.953125</ele>
<time>2013-11-21T14:17:19Z</time>
<speed>4.920000</speed>
<extensions>
<speed>4.9</speed>
<temp>0.00</temp>
<bpm>0</bpm>
<rpm>0.00</rpm>
</extensions>
</trkpt>
<trkpt lat="30.647884369" lon="34.808383942">
<ele>798.093750</ele>
<time>2013-11-21T14:17:24Z</time>
<speed>4.860000</speed>
<extensions>
<speed>4.9</speed>
<temp>0.00</temp>
<bpm>0</bpm>
<rpm>0.00</rpm>
</extensions>
</trkpt>
<trkpt lat="30.647695541" lon="34.808280945">
<ele>796.828125</ele>
<time>2013-11-21T14:17:29Z</time>
<speed>4.510000</speed>
<extensions>
<speed>4.5</speed>
<temp>0.00</temp>
<bpm>0</bpm>
<rpm>0.00</rpm>
</extensions>
</trkpt>
<trkpt lat="30.647516251" lon="34.808181763">
<ele>795.937500</ele>
<time>2013-11-21T14:17:34Z</time>
<speed>4.370000</speed>
<extensions>
<speed>4.4</speed>
<temp>0.00</temp>
<bpm>0</bpm>
<rpm>0.00</rpm>
</extensions>
</trkpt>
<trkpt lat="30.647331238" lon="34.808078766">
<ele>795.062500</ele>
<time>2013-11-21T14:17:39Z</time>
<speed>4.010000</speed>
<extensions>
<speed>4.0</speed>
<temp>0.00</temp>
<bpm>0</bpm>
<rpm>0.00</rpm>
</extensions>
</trkpt>
<trkpt lat="30.647169113" lon="34.807998657">
<ele>794.718750</ele>
<time>2013-11-21T14:17:44Z</time>
<speed>3.950000</speed>
<extensions>
<speed>4.0</speed>
<temp>0.00</temp>
<bpm>0</bpm>
<rpm>0.00</rpm>
</extensions>
</trkpt>
<trkpt lat="30.647005081" lon="34.807937622">
<ele>795.812500</ele>
<time>2013-11-21T14:17:49Z</time>
<speed>3.420000</speed>
<extensions>
<speed>3.4</speed>
<temp>0.00</temp>
<bpm>0</bpm>
<rpm>0.00</rpm>
</extensions>
</trkpt>
<trkpt lat="30.646863937" lon="34.807880402">
<ele>798.156250</ele>
<time>2013-11-21T14:17:54Z</time>
<speed>3.570000</speed>
<extensions>
<speed>3.6</speed>
<temp>0.00</temp>
<bpm>0</bpm>
<rpm>0.00</rpm>
</extensions>
</trkpt>
<trkpt lat="30.646713257" lon="34.807796478">
<ele>800.562500</ele>
<time>2013-11-21T14:17:59Z</time>
<speed>3.730000</speed>
<extensions>
<speed>3.7</speed>
<temp>0.00</temp>
<bpm>0</bpm>
<rpm>0.00</rpm>
</extensions>
</trkpt>
<trkpt lat="30.646562576" lon="34.807723999">
<ele>801.046875</ele>
<time>2013-11-21T14:18:04Z</time>
<speed>3.940000</speed>
<extensions>
<speed>3.9</speed>
<temp>0.00</temp>
<bpm>0</bpm>
<rpm>0.00</rpm>
</extensions>
</trkpt>
<trkpt lat="30.646400452" lon="34.807628632">
<ele>801.046875</ele>
<time>2013-11-21T14:18:09Z</time>
<speed>3.900000</speed>
<extensions>
<speed>3.9</speed>
<temp>0.00</temp>
<bpm>0</bpm>
<rpm>0.00</rpm>
</extensions>
</trkpt>
<trkpt lat="30.646238327" lon="34.807563782">
<ele>801.312500</ele>
<time>2013-11-21T14:18:14Z</time>
<speed>3.990000</speed>
<extensions>
<speed>4.0</speed>
<temp>0.00</temp>
<bpm>0</bpm>
<rpm>0.00</rpm>
</extensions>
</trkpt>
<trkpt lat="30.646083832" lon="34.807498932">
<ele>802.765625</ele>
<time>2013-11-21T14:18:19Z</time>
<speed>3.970000</speed>
<extensions>
<speed>4.0</speed>
<temp>0.00</temp>
<bpm>0</bpm>
<rpm>0.00</rpm>
</extensions>
</trkpt>
<trkpt lat="30.645906448" lon="34.807460785">
<ele>801.437500</ele>
<time>2013-11-21T14:18:24Z</time>
<speed>4.240000</speed>
<extensions>
<speed>4.2</speed>
<temp>0.00</temp>
<bpm>0</bpm>
<rpm>0.00</rpm>
</extensions>
</trkpt>
<trkpt lat="30.645719528" lon="34.807422638">
<ele>803.062500</ele>
<time>2013-11-21T14:18:29Z</time>
<speed>4.540000</speed>
<extensions>
<speed>4.5</speed>
<temp>0.00</temp>
<bpm>0</bpm>
<rpm>0.00</rpm>
</extensions>
</trkpt>
<trkpt lat="30.645505905" lon="34.807376862">
<ele>802.734375</ele>
<time>2013-11-21T14:18:34Z</time>
<speed>4.740000</speed>
<extensions>
<speed>4.7</speed>
<temp>0.00</temp>
<bpm>0</bpm>
<rpm>0.00</rpm>
</extensions>
</trkpt>
<trkpt lat="30.645296097" lon="34.807338715">
<ele>803.968750</ele>
<time>2013-11-21T14:18:39Z</time>
<speed>4.760000</speed>
<extensions>
<speed>4.8</speed>
<temp>0.00</temp>
<bpm>0</bpm>
<rpm>0.00</rpm>
</extensions>
</trkpt>
<trkpt lat="30.645112991" lon="34.807289124">
<ele>804.656250</ele>
<time>2013-11-21T14:18:44Z</time>
<speed>3.820000</speed>
<extensions>
<speed>3.8</speed>
<temp>0.00</temp>
<bpm>0</bpm>
<rpm>0.00</rpm>
</extensions>
</trkpt>
<trkpt lat="30.644910812" lon="34.807254791">
<ele>802.453125</ele>
<time>2013-11-21T14:18:49Z</time>
<speed>5.030000</speed>
<extensions>
<speed>5.0</speed>
<temp>0.00</temp>
<bpm>0</bpm>
<rpm>0.00</rpm>
</extensions>
</trkpt>
<trkpt lat="30.644687653" lon="34.807212830">
<ele>800.546875</ele>
<time>2013-11-21T14:18:54Z</time>
<speed>5.070000</speed>
<extensions>
<speed>5.1</speed>
<temp>0.00</temp>
<bpm>0</bpm>
<rpm>0.00</rpm>
</extensions>
</trkpt>
<trkpt lat="30.644454956" lon="34.807170868">
<ele>799.500000</ele>
<time>2013-11-21T14:18:59Z</time>
<speed>5.250000</speed>
<extensions>
<speed>5.2</speed>
<temp>0.00</temp>
<bpm>0</bpm>
<rpm>0.00</rpm>
</extensions>
</trkpt>
<trkpt lat="30.644210815" lon="34.807121277">
<ele>800.281250</ele>
<time>2013-11-21T14:19:04Z</time>
<speed>5.480000</speed>
<extensions>
<speed>5.5</speed>
<temp>0.00</temp>
<bpm>0</bpm>
<rpm>0.00</rpm>
</extensions>
</trkpt>
<trkpt lat="30.643978119" lon="34.807079315">
<ele>797.812500</ele>
<time>2013-11-21T14:19:09Z</time>
<speed>5.500000</speed>
<extensions>
<speed>5.5</speed>
<temp>0.00</temp>
<bpm>0</bpm>
<rpm>0.00</rpm>
</extensions>
</trkpt>
<trkpt lat="30.643724442" lon="34.807033539">
<ele>801.093750</ele>
<time>2013-11-21T14:19:14Z</time>
<speed>5.880000</speed>
<extensions>
<speed>5.9</speed>
<temp>0.00</temp>
<bpm>0</bpm>
<rpm>0.00</rpm>
</extensions>
</trkpt>
<trkpt lat="30.643468857" lon="34.806987762">
<ele>801.125000</ele>
<time>2013-11-21T14:19:19Z</time>
<speed>5.590000</speed>
<extensions>
<speed>5.6</speed>
<temp>0.00</temp>
<bpm>0</bpm>
<rpm>0.00</rpm>
</extensions>
</trkpt>
<trkpt lat="30.643220901" lon="34.806949615">
<ele>802.890625</ele>
<time>2013-11-21T14:19:24Z</time>
<speed>5.570000</speed>
<extensions>
<speed>5.6</speed>
<temp>0.00</temp>
<bpm>0</bpm>
<rpm>0.00</rpm>
</extensions>
</trkpt>
<trkpt lat="30.642961502" lon="34.806896210">
<ele>802.968750</ele>
<time>2013-11-21T14:19:29Z</time>
<speed>5.850000</speed>
<extensions>
<speed>5.8</speed>
<temp>0.00</temp>
<bpm>0</bpm>
<rpm>0.00</rpm>
</extensions>
</trkpt>
<trkpt lat="30.642684937" lon="34.806858063">
<ele>804.390625</ele>
<time>2013-11-21T14:19:34Z</time>
<speed>6.470000</speed>
<extensions>
<speed>6.5</speed>
<temp>0.00</temp>
<bpm>0</bpm>
<rpm>0.00</rpm>
</extensions>
</trkpt>
<trkpt lat="30.642398834" lon="34.806789398">
<ele>803.703125</ele>
<time>2013-11-21T14:19:39Z</time>
<speed>6.490000</speed>
<extensions>
<speed>6.5</speed>
<temp>0.00</temp>
<bpm>0</bpm>
<rpm>0.00</rpm>
</extensions>
</trkpt>
<trkpt lat="30.642107010" lon="34.806735992">
<ele>801.390625</ele>
<time>2013-11-21T14:19:44Z</time>
<speed>6.930000</speed>
<extensions>
<speed>6.9</speed>
<temp>0.00</temp>
<bpm>0</bpm>
<rpm>0.00</rpm>
</extensions>
</trkpt>
<trkpt lat="30.641838074" lon="34.806686401">
<ele>798.375000</ele>
<time>2013-11-21T14:19:49Z</time>
<speed>5.480000</speed>
<extensions>
<speed>5.5</speed>
<temp>0.00</temp>
<bpm>0</bpm>
<rpm>0.00</rpm>
</extensions>
</trkpt>
<trkpt lat="30.641607285" lon="34.806655884">
<ele>796.843750</ele>
<time>2013-11-21T14:19:54Z</time>
<speed>4.560000</speed>
<extensions>
<speed>4.6</speed>
<temp>0.00</temp>
<bpm>0</bpm>
<rpm>0.00</rpm>
</extensions>
</trkpt>
<trkpt lat="30.641443253" lon="34.806621552">
<ele>794.562500</ele>
<time>2013-11-21T14:19:59Z</time>
<speed>3.070000</speed>
<extensions>
<speed>3.1</speed>
<temp>0.00</temp>
<bpm>0</bpm>
<rpm>0.00</rpm>
</extensions>
</trkpt>
<trkpt lat="30.641311646" lon="34.806602478">
<ele>795.859375</ele>
<time>2013-11-21T14:20:04Z</time>
<speed>2.450000</speed>
<extensions>
<speed>2.4</speed>
<temp>0.00</temp>
<bpm>0</bpm>
<rpm>0.00</rpm>
</extensions>
</trkpt>
<trkpt lat="30.641191483" lon="34.806621552">
<ele>798.484375</ele>
<time>2013-11-21T14:20:09Z</time>
<speed>2.990000</speed>
<extensions>
<speed>3.0</speed>
<temp>0.00</temp>
<bpm>0</bpm>
<rpm>0.00</rpm>
</extensions>
</trkpt>
<trkpt lat="30.641052246" lon="34.806587219">
<ele>801.406250</ele>
<time>2013-11-21T14:20:14Z</time>
<speed>2.590000</speed>
<extensions>
<speed>2.6</speed>
<temp>0.00</temp>
<bpm>0</bpm>
<rpm>0.00</rpm>
</extensions>
</trkpt>
<trkpt lat="30.641010284" lon="34.806529999">
<ele>794.406250</ele>
<time>2013-11-21T14:20:19Z</time>
<speed>0.780000</speed>
<extensions>
<speed>0.8</speed>
<temp>0.00</temp>
<bpm>0</bpm>
<rpm>0.00</rpm>
</extensions>
</trkpt>
<trkpt lat="30.641019821" lon="34.806507111">
<ele>791.546875</ele>
<time>2013-11-21T14:20:24Z</time>
<speed>0.210000</speed>
<extensions>
<speed>0.2</speed>
<temp>0.00</temp>
<bpm>0</bpm>
<rpm>0.00</rpm>
</extensions>
</trkpt>
<trkpt lat="30.641021729" lon="34.806495667">
<ele>791.625000</ele>
<time>2013-11-21T14:20:29Z</time>
<speed>0.230000</speed>
<extensions>
<speed>0.2</speed>
<temp>0.00</temp>
<bpm>0</bpm>
<rpm>0.00</rpm>
</extensions>
</trkpt>
<trkpt lat="30.641023636" lon="34.806476593">
<ele>791.687500</ele>
<time>2013-11-21T14:20:34Z</time>
<speed>0.140000</speed>
<extensions>
<speed>0.1</speed>
<temp>0.00</temp>
<bpm>0</bpm>
<rpm>0.00</rpm>
</extensions>
</trkpt>
<trkpt lat="30.641023636" lon="34.806472778">
<ele>791.750000</ele>
<time>2013-11-21T14:20:39Z</time>
<speed>0.080000</speed>
<extensions>
<speed>0.1</speed>
<temp>0.00</temp>
<bpm>0</bpm>
<rpm>0.00</rpm>
</extensions>
</trkpt>
<trkpt lat="30.641023636" lon="34.806468964">
<ele>791.812500</ele>
<time>2013-11-21T14:20:44Z</time>
<speed>0.350000</speed>
<extensions>
<speed>0.3</speed>
<temp>0.00</temp>
<bpm>0</bpm>
<rpm>0.00</rpm>
</extensions>
</trkpt>
<trkpt lat="30.641000748" lon="34.806457520">
<ele>791.921875</ele>
<time>2013-11-21T14:20:49Z</time>
<speed>1.290000</speed>
<extensions>
<speed>1.3</speed>
<temp>0.00</temp>
<bpm>0</bpm>
<rpm>0.00</rpm>
</extensions>
</trkpt>
<trkpt lat="30.640878677" lon="34.806465149">
<ele>793.015625</ele>
<time>2013-11-21T14:20:54Z</time>
<speed>2.700000</speed>
<extensions>
<speed>2.7</speed>
<temp>0.00</temp>
<bpm>0</bpm>
<rpm>0.00</rpm>
</extensions>
</trkpt>
<trkpt lat="30.640731812" lon="34.806465149">
<ele>794.765625</ele>
<time>2013-11-21T14:20:59Z</time>
<speed>3.610000</speed>
<extensions>
<speed>3.6</speed>
<temp>0.00</temp>
<bpm>0</bpm>
<rpm>0.00</rpm>
</extensions>
</trkpt>
<trkpt lat="30.640594482" lon="34.806457520">
<ele>796.125000</ele>
<time>2013-11-21T14:21:04Z</time>
<speed>2.830000</speed>
<extensions>
<speed>2.8</speed>
<temp>0.00</temp>
<bpm>0</bpm>
<rpm>0.00</rpm>
</extensions>
</trkpt>
<trkpt lat="30.640436172" lon="34.806446075">
<ele>797.453125</ele>
<time>2013-11-21T14:21:09Z</time>
<speed>3.140000</speed>
<extensions>
<speed>3.1</speed>
<temp>0.00</temp>
<bpm>0</bpm>
<rpm>0.00</rpm>
</extensions>
</trkpt>
<trkpt lat="30.640291214" lon="34.806430817">
<ele>797.453125</ele>
<time>2013-11-21T14:21:14Z</time>
<speed>3.330000</speed>
<extensions>
<speed>3.3</speed>
<temp>0.00</temp>
<bpm>0</bpm>
<rpm>0.00</rpm>
</extensions>
</trkpt>
<trkpt lat="30.640125275" lon="34.806388855">
<ele>800.218750</ele>
<time>2013-11-21T14:21:19Z</time>
<speed>3.250000</speed>
<extensions>
<speed>3.2</speed>
<temp>0.00</temp>
<bpm>0</bpm>
<rpm>0.00</rpm>
</extensions>
</trkpt>
<trkpt lat="30.639963150" lon="34.806346893">
<ele>801.750000</ele>
<time>2013-11-21T14:21:24Z</time>
<speed>3.850000</speed>
<extensions>
<speed>3.8</speed>
<temp>0.00</temp>
<bpm>0</bpm>
<rpm>0.00</rpm>
</extensions>
</trkpt>
<trkpt lat="30.639781952" lon="34.806308746">
<ele>803.312500</ele>
<time>2013-11-21T14:21:29Z</time>
<speed>3.960000</speed>
<extensions>
<speed>4.0</speed>
<temp>0.00</temp>
<bpm>0</bpm>
<rpm>0.00</rpm>
</extensions>
</trkpt>
<trkpt lat="30.639614105" lon="34.806274414">
<ele>805.890625</ele>
<time>2013-11-21T14:21:34Z</time>
<speed>4.100000</speed>
<extensions>
<speed>4.1</speed>
<temp>0.00</temp>
<bpm>0</bpm>
<rpm>0.00</rpm>
</extensions>
</trkpt>
<trkpt lat="30.639417648" lon="34.806240082">
<ele>808.093750</ele>
<time>2013-11-21T14:21:39Z</time>
<speed>4.040000</speed>
<extensions>
<speed>4.0</speed>
<temp>0.00</temp>
<bpm>0</bpm>
<rpm>0.00</rpm>
</extensions>
</trkpt>
<trkpt lat="30.639278412" lon="34.806221008">
<ele>808.390625</ele>
<time>2013-11-21T14:21:44Z</time>
<speed>3.310000</speed>
<extensions>
<speed>3.3</speed>
<temp>0.00</temp>
<bpm>0</bpm>
<rpm>0.00</rpm>
</extensions>
</trkpt>
<trkpt lat="30.639133453" lon="34.806190491">
<ele>808.937500</ele>
<time>2013-11-21T14:21:49Z</time>
<speed>3.220000</speed>
<extensions>
<speed>3.2</speed>
<temp>0.00</temp>
<bpm>0</bpm>
<rpm>0.00</rpm>
</extensions>
</trkpt>
<trkpt lat="30.638965607" lon="34.806152344">
<ele>813.687500</ele>
<time>2013-11-21T14:21:54Z</time>
<speed>3.780000</speed>
<extensions>
<speed>3.8</speed>
<temp>0.00</temp>
<bpm>0</bpm>
<rpm>0.00</rpm>
</extensions>
</trkpt>
<trkpt lat="30.638830185" lon="34.806095123">
<ele>815.109375</ele>
<time>2013-11-21T14:21:59Z</time>
<speed>1.980000</speed>
<extensions>
<speed>2.0</speed>
<temp>0.00</temp>
<bpm>0</bpm>
<rpm>0.00</rpm>
</extensions>
</trkpt>
<trkpt lat="30.638723373" lon="34.806064606">
<ele>817.015625</ele>
<time>2013-11-21T14:22:04Z</time>
<speed>3.720000</speed>
<extensions>
<speed>3.7</speed>
<temp>0.00</temp>
<bpm>0</bpm>
<rpm>0.00</rpm>
</extensions>
</trkpt>
<trkpt lat="30.638547897" lon="34.806022644">
<ele>819.281250</ele>
<time>2013-11-21T14:22:09Z</time>
<speed>3.600000</speed>
<extensions>
<speed>3.6</speed>
<temp>0.00</temp>
<bpm>0</bpm>
<rpm>0.00</rpm>
</extensions>
</trkpt>
<trkpt lat="30.638355255" lon="34.805999756">
<ele>815.406250</ele>
<time>2013-11-21T14:22:14Z</time>
<speed>3.380000</speed>
<extensions>
<speed>3.4</speed>
<temp>0.00</temp>
<bpm>0</bpm>
<rpm>0.00</rpm>
</extensions>
</trkpt>
<trkpt lat="30.638212204" lon="34.805984497">
<ele>814.156250</ele>
<time>2013-11-21T14:22:19Z</time>
<speed>3.180000</speed>
<extensions>
<speed>3.2</speed>
<temp>0.00</temp>
<bpm>0</bpm>
<rpm>0.00</rpm>
</extensions>
</trkpt>
<trkpt lat="30.638061523" lon="34.805973053">
<ele>814.343750</ele>
<time>2013-11-21T14:22:24Z</time>
<speed>3.540000</speed>
<extensions>
<speed>3.5</speed>
<temp>0.00</temp>
<bpm>0</bpm>
<rpm>0.00</rpm>
</extensions>
</trkpt>
<trkpt lat="30.637914658" lon="34.805950165">
<ele>814.078125</ele>
<time>2013-11-21T14:22:29Z</time>
<speed>2.580000</speed>
<extensions>
<speed>2.6</speed>
<temp>0.00</temp>
<bpm>0</bpm>
<rpm>0.00</rpm>
</extensions>
</trkpt>
<trkpt lat="30.637779236" lon="34.805934906">
<ele>815.578125</ele>
<time>2013-11-21T14:22:34Z</time>
<speed>2.550000</speed>
<extensions>
<speed>2.6</speed>
<temp>0.00</temp>
<bpm>0</bpm>
<rpm>0.00</rpm>
</extensions>
</trkpt>
<trkpt lat="30.637706757" lon="34.805923462">
<ele>816.546875</ele>
<time>2013-11-21T14:22:39Z</time>
<speed>1.990000</speed>
<extensions>
<speed>2.0</speed>
<temp>0.00</temp>
<bpm>0</bpm>
<rpm>0.00</rpm>
</extensions>
</trkpt>
<trkpt lat="30.637607574" lon="34.805896759">
<ele>816.531250</ele>
<time>2013-11-21T14:22:44Z</time>
<speed>2.700000</speed>
<extensions>
<speed>2.7</speed>
<temp>0.00</temp>
<bpm>0</bpm>
<rpm>0.00</rpm>
</extensions>
</trkpt>
<trkpt lat="30.637479782" lon="34.805870056">
<ele>816.921875</ele>
<time>2013-11-21T14:22:49Z</time>
<speed>2.780000</speed>
<extensions>
<speed>2.8</speed>
<temp>0.00</temp>
<bpm>0</bpm>
<rpm>0.00</rpm>
</extensions>
</trkpt>
<trkpt lat="30.637371063" lon="34.805847168">
<ele>817.234375</ele>
<time>2013-11-21T14:22:54Z</time>
<speed>1.430000</speed>
<extensions>
<speed>1.4</speed>
<temp>0.00</temp>
<bpm>0</bpm>
<rpm>0.00</rpm>
</extensions>
</trkpt>
<trkpt lat="30.637283325" lon="34.805831909">
<ele>815.953125</ele>
<time>2013-11-21T14:22:59Z</time>
<speed>2.220000</speed>
<extensions>
<speed>2.2</speed>
<temp>0.00</temp>
<bpm>0</bpm>
<rpm>0.00</rpm>
</extensions>
</trkpt>
<trkpt lat="30.637193680" lon="34.805820465">
<ele>814.359375</ele>
<time>2013-11-21T14:23:04Z</time>
<speed>2.800000</speed>
<extensions>
<speed>2.8</speed>
<temp>0.00</temp>
<bpm>0</bpm>
<rpm>0.00</rpm>
</extensions>
</trkpt>
<trkpt lat="30.637079239" lon="34.805812836">
<ele>814.906250</ele>
<time>2013-11-21T14:23:09Z</time>
<speed>1.260000</speed>
<extensions>
<speed>1.3</speed>
<temp>0.00</temp>
<bpm>0</bpm>
<rpm>0.00</rpm>
</extensions>
</trkpt>
<trkpt lat="30.636983871" lon="34.805793762">
<ele>814.390625</ele>
<time>2013-11-21T14:23:14Z</time>
<speed>2.510000</speed>
<extensions>
<speed>2.5</speed>
<temp>0.00</temp>
<bpm>0</bpm>
<rpm>0.00</rpm>
</extensions>
</trkpt>
<trkpt lat="30.636856079" lon="34.805755615">
<ele>815.531250</ele>
<time>2013-11-21T14:23:19Z</time>
<speed>2.790000</speed>
<extensions>
<speed>2.8</speed>
<temp>0.00</temp>
<bpm>0</bpm>
<rpm>0.00</rpm>
</extensions>
</trkpt>
<trkpt lat="30.636756897" lon="34.805744171">
<ele>818.890625</ele>
<time>2013-11-21T14:23:24Z</time>
<speed>1.990000</speed>
<extensions>
<speed>2.0</speed>
<temp>0.00</temp>
<bpm>0</bpm>
<rpm>0.00</rpm>
</extensions>
</trkpt>
<trkpt lat="30.636661530" lon="34.805721283">
<ele>819.937500</ele>
<time>2013-11-21T14:23:29Z</time>
<speed>1.960000</speed>
<extensions>
<speed>2.0</speed>
<temp>0.00</temp>
<bpm>0</bpm>
<rpm>0.00</rpm>
</extensions>
</trkpt>
<trkpt lat="30.636575699" lon="34.805702209">
<ele>818.671875</ele>
<time>2013-11-21T14:23:34Z</time>
<speed>2.270000</speed>
<extensions>
<speed>2.3</speed>
<temp>0.00</temp>
<bpm>0</bpm>
<rpm>0.00</rpm>
</extensions>
</trkpt>
<trkpt lat="30.636472702" lon="34.805683136">
<ele>816.531250</ele>
<time>2013-11-21T14:23:39Z</time>
<speed>2.700000</speed>
<extensions>
<speed>2.7</speed>
<temp>0.00</temp>
<bpm>0</bpm>
<rpm>0.00</rpm>
</extensions>
</trkpt>
<trkpt lat="30.636341095" lon="34.805660248">
<ele>816.187500</ele>
<time>2013-11-21T14:23:44Z</time>
<speed>2.710000</speed>
<extensions>
<speed>2.7</speed>
<temp>0.00</temp>
<bpm>0</bpm>
<rpm>0.00</rpm>
</extensions>
</trkpt>
<trkpt lat="30.636220932" lon="34.805625916">
<ele>817.421875</ele>
<time>2013-11-21T14:23:49Z</time>
<speed>2.490000</speed>
<extensions>
<speed>2.5</speed>
<temp>0.00</temp>
<bpm>0</bpm>
<rpm>0.00</rpm>
</extensions>
</trkpt>
<trkpt lat="30.636108398" lon="34.805622101">
<ele>817.718750</ele>
<time>2013-11-21T14:23:54Z</time>
<speed>3.180000</speed>
<extensions>
<speed>3.2</speed>
<temp>0.00</temp>
<bpm>0</bpm>
<rpm>0.00</rpm>
</extensions>
</trkpt>
<trkpt lat="30.635961533" lon="34.805595398">
<ele>817.125000</ele>
<time>2013-11-21T14:23:59Z</time>
<speed>2.890000</speed>
<extensions>
<speed>2.9</speed>
<temp>0.00</temp>
<bpm>0</bpm>
<rpm>0.00</rpm>
</extensions>
</trkpt>
<trkpt lat="30.635816574" lon="34.805561066">
<ele>820.234375</ele>
<time>2013-11-21T14:24:04Z</time>
<speed>3.800000</speed>
<extensions>
<speed>3.8</speed>
<temp>0.00</temp>
<bpm>0</bpm>
<rpm>0.00</rpm>
</extensions>
</trkpt>
<trkpt lat="30.635667801" lon="34.805526733">
<ele>823.640625</ele>
<time>2013-11-21T14:24:09Z</time>
<speed>3.260000</speed>
<extensions>
<speed>3.3</speed>
<temp>0.00</temp>
<bpm>0</bpm>
<rpm>0.00</rpm>
</extensions>
</trkpt>
<trkpt lat="30.635503769" lon="34.805503845">
<ele>824.640625</ele>
<time>2013-11-21T14:24:14Z</time>
<speed>3.050000</speed>
<extensions>
<speed>3.0</speed>
<temp>0.00</temp>
<bpm>0</bpm>
<rpm>0.00</rpm>
</extensions>
</trkpt>
<trkpt lat="30.635356903" lon="34.805469513">
<ele>827.437500</ele>
<time>2013-11-21T14:24:19Z</time>
<speed>3.120000</speed>
<extensions>
<speed>3.1</speed>
<temp>0.00</temp>
<bpm>0</bpm>
<rpm>0.00</rpm>
</extensions>
</trkpt>
<trkpt lat="30.635234833" lon="34.805438995">
<ele>828.984375</ele>
<time>2013-11-21T14:24:24Z</time>
<speed>3.190000</speed>
<extensions>
<speed>3.2</speed>
<temp>0.00</temp>
<bpm>0</bpm>
<rpm>0.00</rpm>
</extensions>
</trkpt>
<trkpt lat="30.635082245" lon="34.805389404">
<ele>830.312500</ele>
<time>2013-11-21T14:24:29Z</time>
<speed>2.830000</speed>
<extensions>
<speed>2.8</speed>
<temp>0.00</temp>
<bpm>0</bpm>
<rpm>0.00</rpm>
</extensions>
</trkpt>
<trkpt lat="30.634927750" lon="34.805355072">
<ele>832.375000</ele>
<time>2013-11-21T14:24:34Z</time>
<speed>3.140000</speed>
<extensions>
<speed>3.1</speed>
<temp>0.00</temp>
<bpm>0</bpm>
<rpm>0.00</rpm>
</extensions>
</trkpt>
<trkpt lat="30.634759903" lon="34.805335999">
<ele>831.921875</ele>
<time>2013-11-21T14:24:39Z</time>
<speed>3.870000</speed>
<extensions>
<speed>3.9</speed>
<temp>0.00</temp>
<bpm>0</bpm>
<rpm>0.00</rpm>
</extensions>
</trkpt>
<trkpt lat="30.634630203" lon="34.805313110">
<ele>831.781250</ele>
<time>2013-11-21T14:24:44Z</time>
<speed>2.180000</speed>
<extensions>
<speed>2.2</speed>
<temp>0.00</temp>
<bpm>0</bpm>
<rpm>0.00</rpm>
</extensions>
</trkpt>
<trkpt lat="30.634550095" lon="34.805263519">
<ele>833.531250</ele>
<time>2013-11-21T14:24:49Z</time>
<speed>1.900000</speed>
<extensions>
<speed>1.9</speed>
<temp>0.00</temp>
<bpm>0</bpm>
<rpm>0.00</rpm>
</extensions>
</trkpt>
<trkpt lat="30.634460449" lon="34.805233002">
<ele>833.937500</ele>
<time>2013-11-21T14:24:54Z</time>
<speed>2.120000</speed>
<extensions>
<speed>2.1</speed>
<temp>0.00</temp>
<bpm>0</bpm>
<rpm>0.00</rpm>
</extensions>
</trkpt>
<trkpt lat="30.634332657" lon="34.805236816">
<ele>833.078125</ele>
<time>2013-11-21T14:24:59Z</time>
<speed>2.900000</speed>
<extensions>
<speed>2.9</speed>
<temp>0.00</temp>
<bpm>0</bpm>
<rpm>0.00</rpm>
</extensions>
</trkpt>
<trkpt lat="30.634206772" lon="34.805225372">
<ele>833.734375</ele>
<time>2013-11-21T14:25:04Z</time>
<speed>2.420000</speed>
<extensions>
<speed>2.4</speed>
<temp>0.00</temp>
<bpm>0</bpm>
<rpm>0.00</rpm>
</extensions>
</trkpt>
<trkpt lat="30.634059906" lon="34.805225372">
<ele>833.000000</ele>
<time>2013-11-21T14:25:09Z</time>
<speed>3.800000</speed>
<extensions>
<speed>3.8</speed>
<temp>0.00</temp>
<bpm>0</bpm>
<rpm>0.00</rpm>
</extensions>
</trkpt>
<trkpt lat="30.633844376" lon="34.805229187">
<ele>834.890625</ele>
<time>2013-11-21T14:25:14Z</time>
<speed>3.830000</speed>
<extensions>
<speed>3.8</speed>
<temp>0.00</temp>
<bpm>0</bpm>
<rpm>0.00</rpm>
</extensions>
</trkpt>
<trkpt lat="30.633697510" lon="34.805217743">
<ele>838.078125</ele>
<time>2013-11-21T14:25:19Z</time>
<speed>3.040000</speed>
<extensions>
<speed>3.0</speed>
<temp>0.00</temp>
<bpm>0</bpm>
<rpm>0.00</rpm>
</extensions>
</trkpt>
<trkpt lat="30.633583069" lon="34.805194855">
<ele>839.437500</ele>
<time>2013-11-21T14:25:24Z</time>
<speed>2.560000</speed>
<extensions>
<speed>2.6</speed>
<temp>0.00</temp>
<bpm>0</bpm>
<rpm>0.00</rpm>
</extensions>
</trkpt>
<trkpt lat="30.633436203" lon="34.805156708">
<ele>839.250000</ele>
<time>2013-11-21T14:25:29Z</time>
<speed>4.120000</speed>
<extensions>
<speed>4.1</speed>
<temp>0.00</temp>
<bpm>0</bpm>
<rpm>0.00</rpm>
</extensions>
</trkpt>
<trkpt lat="30.633258820" lon="34.805133820">
<ele>840.187500</ele>
<time>2013-11-21T14:25:34Z</time>
<speed>3.940000</speed>
<extensions>
<speed>3.9</speed>
<temp>0.00</temp>
<bpm>0</bpm>
<rpm>0.00</rpm>
</extensions>
</trkpt>
<trkpt lat="30.633064270" lon="34.805126190">
<ele>840.546875</ele>
<time>2013-11-21T14:25:39Z</time>
<speed>4.080000</speed>
<extensions>
<speed>4.1</speed>
<temp>0.00</temp>
<bpm>0</bpm>
<rpm>0.00</rpm>
</extensions>
</trkpt>
<trkpt lat="30.632867813" lon="34.805114746">
<ele>839.078125</ele>
<time>2013-11-21T14:25:44Z</time>
<speed>4.170000</speed>
<extensions>
<speed>4.2</speed>
<temp>0.00</temp>
<bpm>0</bpm>
<rpm>0.00</rpm>
</extensions>
</trkpt>
<trkpt lat="30.632669449" lon="34.805103302">
<ele>839.515625</ele>
<time>2013-11-21T14:25:49Z</time>
<speed>4.450000</speed>
<extensions>
<speed>4.5</speed>
<temp>0.00</temp>
<bpm>0</bpm>
<rpm>0.00</rpm>
</extensions>
</trkpt>
<trkpt lat="30.632478714" lon="34.805084229">
<ele>838.062500</ele>
<time>2013-11-21T14:25:54Z</time>
<speed>4.390000</speed>
<extensions>
<speed>4.4</speed>
<temp>0.00</temp>
<bpm>0</bpm>
<rpm>0.00</rpm>
</extensions>
</trkpt>
<trkpt lat="30.632289886" lon="34.805065155">
<ele>835.281250</ele>
<time>2013-11-21T14:25:59Z</time>
<speed>4.710000</speed>
<extensions>
<speed>4.7</speed>
<temp>0.00</temp>
<bpm>0</bpm>
<rpm>0.00</rpm>
</extensions>
</trkpt>
<trkpt lat="30.632076263" lon="34.805076599">
<ele>834.875000</ele>
<time>2013-11-21T14:26:04Z</time>
<speed>4.630000</speed>
<extensions>
<speed>4.6</speed>
<temp>0.00</temp>
<bpm>0</bpm>
<rpm>0.00</rpm>
</extensions>
</trkpt>
<trkpt lat="30.631891251" lon="34.805061340">
<ele>836.156250</ele>
<time>2013-11-21T14:26:09Z</time>
<speed>4.250000</speed>
<extensions>
<speed>4.3</speed>
<temp>0.00</temp>
<bpm>0</bpm>
<rpm>0.00</rpm>
</extensions>
</trkpt>
<trkpt lat="30.631706238" lon="34.805072784">
<ele>836.328125</ele>
<time>2013-11-21T14:26:14Z</time>
<speed>3.420000</speed>
<extensions>
<speed>3.4</speed>
<temp>0.00</temp>
<bpm>0</bpm>
<rpm>0.00</rpm>
</extensions>
</trkpt>
<trkpt lat="30.631534576" lon="34.805076599">
<ele>837.187500</ele>
<time>2013-11-21T14:26:19Z</time>
<speed>3.400000</speed>
<extensions>
<speed>3.4</speed>
<temp>0.00</temp>
<bpm>0</bpm>
<rpm>0.00</rpm>
</extensions>
</trkpt>
<trkpt lat="30.631387711" lon="34.805049896">
<ele>836.312500</ele>
<time>2013-11-21T14:26:24Z</time>
<speed>2.830000</speed>
<extensions>
<speed>2.8</speed>
<temp>0.00</temp>
<bpm>0</bpm>
<rpm>0.00</rpm>
</extensions>
</trkpt>
<trkpt lat="30.631250381" lon="34.805057526">
<ele>835.734375</ele>
<time>2013-11-21T14:26:29Z</time>
<speed>3.120000</speed>
<extensions>
<speed>3.1</speed>
<temp>0.00</temp>
<bpm>0</bpm>
<rpm>0.00</rpm>
</extensions>
</trkpt>
<trkpt lat="30.631156921" lon="34.805046082">
<ele>834.968750</ele>
<time>2013-11-21T14:26:34Z</time>
<speed>1.680000</speed>
<extensions>
<speed>1.7</speed>
<temp>0.00</temp>
<bpm>0</bpm>
<rpm>0.00</rpm>
</extensions>
</trkpt>
<trkpt lat="30.631067276" lon="34.805046082">
<ele>831.812500</ele>
<time>2013-11-21T14:26:39Z</time>
<speed>2.290000</speed>
<extensions>
<speed>2.3</speed>
<temp>0.00</temp>
<bpm>0</bpm>
<rpm>0.00</rpm>
</extensions>
</trkpt>
<trkpt lat="30.630960464" lon="34.805038452">
<ele>830.781250</ele>
<time>2013-11-21T14:26:44Z</time>
<speed>2.860000</speed>
<extensions>
<speed>2.9</speed>
<temp>0.00</temp>
<bpm>0</bpm>
<rpm>0.00</rpm>
</extensions>
</trkpt>
<trkpt lat="30.630832672" lon="34.805034637">
<ele>829.031250</ele>
<time>2013-11-21T14:26:49Z</time>
<speed>2.770000</speed>
<extensions>
<speed>2.8</speed>
<temp>0.00</temp>
<bpm>0</bpm>
<rpm>0.00</rpm>
</extensions>
</trkpt>
<trkpt lat="30.630693436" lon="34.805034637">
<ele>825.187500</ele>
<time>2013-11-21T14:26:54Z</time>
<speed>2.730000</speed>
<extensions>
<speed>2.7</speed>
<temp>0.00</temp>
<bpm>0</bpm>
<rpm>0.00</rpm>
</extensions>
</trkpt>
<trkpt lat="30.630563736" lon="34.805042267">
<ele>823.625000</ele>
<time>2013-11-21T14:26:59Z</time>
<speed>2.050000</speed>
<extensions>
<speed>2.1</speed>
<temp>0.00</temp>
<bpm>0</bpm>
<rpm>0.00</rpm>
</extensions>
</trkpt>
<trkpt lat="30.630430222" lon="34.805004120">
<ele>828.156250</ele>
<time>2013-11-21T14:27:04Z</time>
<speed>2.570000</speed>
<extensions>
<speed>2.6</speed>
<temp>0.00</temp>
<bpm>0</bpm>
<rpm>0.00</rpm>
</extensions>
</trkpt>
<trkpt lat="30.630304337" lon="34.805000305">
<ele>828.500000</ele>
<time>2013-11-21T14:27:09Z</time>
<speed>2.700000</speed>
<extensions>
<speed>2.7</speed>
<temp>0.00</temp>
<bpm>0</bpm>
<rpm>0.00</rpm>
</extensions>
</trkpt>
<trkpt lat="30.630180359" lon="34.805007935">
<ele>825.421875</ele>
<time>2013-11-21T14:27:14Z</time>
<speed>3.020000</speed>
<extensions>
<speed>3.0</speed>
<temp>0.00</temp>
<bpm>0</bpm>
<rpm>0.00</rpm>
</extensions>
</trkpt>
<trkpt lat="30.630058289" lon="34.804996490">
<ele>826.171875</ele>
<time>2013-11-21T14:27:19Z</time>
<speed>2.350000</speed>
<extensions>
<speed>2.4</speed>
<temp>0.00</temp>
<bpm>0</bpm>
<rpm>0.00</rpm>
</extensions>
</trkpt>
<trkpt lat="30.629922867" lon="34.804985046">
<ele>827.703125</ele>
<time>2013-11-21T14:27:24Z</time>
<speed>2.640000</speed>
<extensions>
<speed>2.6</speed>
<temp>0.00</temp>
<bpm>0</bpm>
<rpm>0.00</rpm>
</extensions>
</trkpt>
<trkpt lat="30.629804611" lon="34.804988861">
<ele>831.375000</ele>
<time>2013-11-21T14:27:29Z</time>
<speed>2.610000</speed>
<extensions>
<speed>2.6</speed>
<temp>0.00</temp>
<bpm>0</bpm>
<rpm>0.00</rpm>
</extensions>
</trkpt>
<trkpt lat="30.629693985" lon="34.804954529">
<ele>839.765625</ele>
<time>2013-11-21T14:27:34Z</time>
<speed>2.730000</speed>
<extensions>
<speed>2.7</speed>
<temp>0.00</temp>
<bpm>0</bpm>
<rpm>0.00</rpm>
</extensions>
</trkpt>
<trkpt lat="30.629583359" lon="34.804920197">
<ele>843.140625</ele>
<time>2013-11-21T14:27:39Z</time>
<speed>2.900000</speed>
<extensions>
<speed>2.9</speed>
<temp>0.00</temp>
<bpm>0</bpm>
<rpm>0.00</rpm>
</extensions>
</trkpt>
<trkpt lat="30.629438400" lon="34.804920197">
<ele>843.546875</ele>
<time>2013-11-21T14:27:44Z</time>
<speed>2.980000</speed>
<extensions>
<speed>3.0</speed>
<temp>0.00</temp>
<bpm>0</bpm>
<rpm>0.00</rpm>
</extensions>
</trkpt>
<trkpt lat="30.629293442" lon="34.804916382">
<ele>844.703125</ele>
<time>2013-11-21T14:27:49Z</time>
<speed>3.100000</speed>
<extensions>
<speed>3.1</speed>
<temp>0.00</temp>
<bpm>0</bpm>
<rpm>0.00</rpm>
</extensions>
</trkpt>
<trkpt lat="30.629161835" lon="34.804916382">
<ele>843.109375</ele>
<time>2013-11-21T14:27:54Z</time>
<speed>2.970000</speed>
<extensions>
<speed>3.0</speed>
<temp>0.00</temp>
<bpm>0</bpm>
<rpm>0.00</rpm>
</extensions>
</trkpt>
<trkpt lat="30.629045486" lon="34.804904938">
<ele>841.671875</ele>
<time>2013-11-21T14:27:59Z</time>
<speed>2.190000</speed>
<extensions>
<speed>2.2</speed>
<temp>0.00</temp>
<bpm>0</bpm>
<rpm>0.00</rpm>
</extensions>
</trkpt>
<trkpt lat="30.628883362" lon="34.804912567">
<ele>838.343750</ele>
<time>2013-11-21T14:28:04Z</time>
<speed>2.960000</speed>
<extensions>
<speed>3.0</speed>
<temp>0.00</temp>
<bpm>0</bpm>
<rpm>0.00</rpm>
</extensions>
</trkpt>
<trkpt lat="30.628730774" lon="34.804904938">
<ele>840.437500</ele>
<time>2013-11-21T14:28:09Z</time>
<speed>2.330000</speed>
<extensions>
<speed>2.3</speed>
<temp>0.00</temp>
<bpm>0</bpm>
<rpm>0.00</rpm>
</extensions>
</trkpt>
<trkpt lat="30.628618240" lon="34.804901123">
<ele>838.906250</ele>
<time>2013-11-21T14:28:14Z</time>
<speed>2.850000</speed>
<extensions>
<speed>2.9</speed>
<temp>0.00</temp>
<bpm>0</bpm>
<rpm>0.00</rpm>
</extensions>
</trkpt>
<trkpt lat="30.628480911" lon="34.804885864">
<ele>840.734375</ele>
<time>2013-11-21T14:28:19Z</time>
<speed>2.940000</speed>
<extensions>
<speed>2.9</speed>
<temp>0.00</temp>
<bpm>0</bpm>
<rpm>0.00</rpm>
</extensions>
</trkpt>
<trkpt lat="30.628377914" lon="34.804882050">
<ele>840.187500</ele>
<time>2013-11-21T14:28:24Z</time>
<speed>2.140000</speed>
<extensions>
<speed>2.1</speed>
<temp>0.00</temp>
<bpm>0</bpm>
<rpm>0.00</rpm>
</extensions>
</trkpt>
<trkpt lat="30.628273010" lon="34.804859161">
<ele>840.937500</ele>
<time>2013-11-21T14:28:29Z</time>
<speed>2.670000</speed>
<extensions>
<speed>2.7</speed>
<temp>0.00</temp>
<bpm>0</bpm>
<rpm>0.00</rpm>
</extensions>
</trkpt>
<trkpt lat="30.628171921" lon="34.804847717">
<ele>842.187500</ele>
<time>2013-11-21T14:28:34Z</time>
<speed>2.500000</speed>
<extensions>
<speed>2.5</speed>
<temp>0.00</temp>
<bpm>0</bpm>
<rpm>0.00</rpm>
</extensions>
</trkpt>
<trkpt lat="30.628046036" lon="34.804824829">
<ele>846.171875</ele>
<time>2013-11-21T14:28:39Z</time>
<speed>2.650000</speed>
<extensions>
<speed>2.6</speed>
<temp>0.00</temp>
<bpm>0</bpm>
<rpm>0.00</rpm>
</extensions>
</trkpt>
<trkpt lat="30.627908707" lon="34.804801941">
<ele>846.296875</ele>
<time>2013-11-21T14:28:44Z</time>
<speed>2.700000</speed>
<extensions>
<speed>2.7</speed>
<temp>0.00</temp>
<bpm>0</bpm>
<rpm>0.00</rpm>
</extensions>
</trkpt>
<trkpt lat="30.627796173" lon="34.804771423">
<ele>846.140625</ele>
<time>2013-11-21T14:28:49Z</time>
<speed>2.750000</speed>
<extensions>
<speed>2.7</speed>
<temp>0.00</temp>
<bpm>0</bpm>
<rpm>0.00</rpm>
</extensions>
</trkpt>
<trkpt lat="30.627672195" lon="34.804740906">
<ele>845.312500</ele>
<time>2013-11-21T14:28:54Z</time>
<speed>3.270000</speed>
<extensions>
<speed>3.3</speed>
<temp>0.00</temp>
<bpm>0</bpm>
<rpm>0.00</rpm>
</extensions>
</trkpt>
<trkpt lat="30.627542496" lon="34.804702759">
<ele>846.031250</ele>
<time>2013-11-21T14:28:59Z</time>
<speed>2.500000</speed>
<extensions>
<speed>2.5</speed>
<temp>0.00</temp>
<bpm>0</bpm>
<rpm>0.00</rpm>
</extensions>
</trkpt>
<trkpt lat="30.627441406" lon="34.804687500">
<ele>847.875000</ele>
<time>2013-11-21T14:29:04Z</time>
<speed>1.910000</speed>
<extensions>
<speed>1.9</speed>
<temp>0.00</temp>
<bpm>0</bpm>
<rpm>0.00</rpm>
</extensions>
</trkpt>
<trkpt lat="30.627326965" lon="34.804649353">
<ele>848.000000</ele>
<time>2013-11-21T14:29:09Z</time>
<speed>3.410000</speed>
<extensions>
<speed>3.4</speed>
<temp>0.00</temp>
<bpm>0</bpm>
<rpm>0.00</rpm>
</extensions>
</trkpt>
<trkpt lat="30.627147675" lon="34.804573059">
<ele>849.250000</ele>
<time>2013-11-21T14:29:14Z</time>
<speed>4.350000</speed>
<extensions>
<speed>4.3</speed>
<temp>0.00</temp>
<bpm>0</bpm>
<rpm>0.00</rpm>
</extensions>
</trkpt>
<trkpt lat="30.626964569" lon="34.804489136">
<ele>850.265625</ele>
<time>2013-11-21T14:29:19Z</time>
<speed>4.270000</speed>
<extensions>
<speed>4.3</speed>
<temp>0.00</temp>
<bpm>0</bpm>
<rpm>0.00</rpm>
</extensions>
</trkpt>
<trkpt lat="30.626783371" lon="34.804447174">
<ele>850.312500</ele>
<time>2013-11-21T14:29:24Z</time>
<speed>4.130000</speed>
<extensions>
<speed>4.1</speed>
<temp>0.00</temp>
<bpm>0</bpm>
<rpm>0.00</rpm>
</extensions>
</trkpt>
<trkpt lat="30.626562119" lon="34.804424286">
<ele>848.218750</ele>
<time>2013-11-21T14:29:29Z</time>
<speed>4.790000</speed>
<extensions>
<speed>4.8</speed>
<temp>0.00</temp>
<bpm>0</bpm>
<rpm>0.00</rpm>
</extensions>
</trkpt>
<trkpt lat="30.626306534" lon="34.804378510">
<ele>845.468750</ele>
<time>2013-11-21T14:29:34Z</time>
<speed>5.570000</speed>
<extensions>
<speed>5.6</speed>
<temp>0.00</temp>
<bpm>0</bpm>
<rpm>0.00</rpm>
</extensions>
</trkpt>
<trkpt lat="30.626066208" lon="34.804313660">
<ele>841.578125</ele>
<time>2013-11-21T14:29:39Z</time>
<speed>5.220000</speed>
<extensions>
<speed>5.2</speed>
<temp>0.00</temp>
<bpm>0</bpm>
<rpm>0.00</rpm>
</extensions>
</trkpt>
<trkpt lat="30.625820160" lon="34.804271698">
<ele>841.500000</ele>
<time>2013-11-21T14:29:44Z</time>
<speed>5.330000</speed>
<extensions>
<speed>5.3</speed>
<temp>0.00</temp>
<bpm>0</bpm>
<rpm>0.00</rpm>
</extensions>
</trkpt>
<trkpt lat="30.625579834" lon="34.804203033">
<ele>841.078125</ele>
<time>2013-11-21T14:29:49Z</time>
<speed>4.900000</speed>
<extensions>
<speed>4.9</speed>
<temp>0.00</temp>
<bpm>0</bpm>
<rpm>0.00</rpm>
</extensions>
</trkpt>
<trkpt lat="30.625352859" lon="34.804161072">
<ele>843.578125</ele>
<time>2013-11-21T14:29:54Z</time>
<speed>4.190000</speed>
<extensions>
<speed>4.2</speed>
<temp>0.00</temp>
<bpm>0</bpm>
<rpm>0.00</rpm>
</extensions>
</trkpt>
<trkpt lat="30.625192642" lon="34.804103851">
<ele>845.015625</ele>
<time>2013-11-21T14:29:59Z</time>
<speed>3.480000</speed>
<extensions>
<speed>3.5</speed>
<temp>0.00</temp>
<bpm>0</bpm>
<rpm>0.00</rpm>
</extensions>
</trkpt>
<trkpt lat="30.625043869" lon="34.804073334">
<ele>844.531250</ele>
<time>2013-11-21T14:30:04Z</time>
<speed>3.880000</speed>
<extensions>
<speed>3.9</speed>
<temp>0.00</temp>
<bpm>0</bpm>
<rpm>0.00</rpm>
</extensions>
</trkpt>
<trkpt lat="30.624868393" lon="34.804050446">
<ele>846.234375</ele>
<time>2013-11-21T14:30:09Z</time>
<speed>4.020000</speed>
<extensions>
<speed>4.0</speed>
<temp>0.00</temp>
<bpm>0</bpm>
<rpm>0.00</rpm>
</extensions>
</trkpt>
<trkpt lat="30.624687195" lon="34.803977966">
<ele>845.156250</ele>
<time>2013-11-21T14:30:14Z</time>
<speed>4.660000</speed>
<extensions>
<speed>4.7</speed>
<temp>0.00</temp>
<bpm>0</bpm>
<rpm>0.00</rpm>
</extensions>
</trkpt>
<trkpt lat="30.624477386" lon="34.803936005">
<ele>847.343750</ele>
<time>2013-11-21T14:30:19Z</time>
<speed>4.420000</speed>
<extensions>
<speed>4.4</speed>
<temp>0.00</temp>
<bpm>0</bpm>
<rpm>0.00</rpm>
</extensions>
</trkpt>
<trkpt lat="30.624300003" lon="34.803905487">
<ele>850.468750</ele>
<time>2013-11-21T14:30:24Z</time>
<speed>3.240000</speed>
<extensions>
<speed>3.2</speed>
<temp>0.00</temp>
<bpm>0</bpm>
<rpm>0.00</rpm>
</extensions>
</trkpt>
<trkpt lat="30.624168396" lon="34.803878784">
<ele>850.921875</ele>
<time>2013-11-21T14:30:29Z</time>
<speed>2.220000</speed>
<extensions>
<speed>2.2</speed>
<temp>0.00</temp>
<bpm>0</bpm>
<rpm>0.00</rpm>
</extensions>
</trkpt>
<trkpt lat="30.624063492" lon="34.803844452">
<ele>853.000000</ele>
<time>2013-11-21T14:30:34Z</time>
<speed>1.750000</speed>
<extensions>
<speed>1.8</speed>
<temp>0.00</temp>
<bpm>0</bpm>
<rpm>0.00</rpm>
</extensions>
</trkpt>
<trkpt lat="30.623996735" lon="34.803787231">
<ele>853.250000</ele>
<time>2013-11-21T14:30:39Z</time>
<speed>1.400000</speed>
<extensions>
<speed>1.4</speed>
<temp>0.00</temp>
<bpm>0</bpm>
<rpm>0.00</rpm>
</extensions>
</trkpt>
<trkpt lat="30.623918533" lon="34.803733826">
<ele>852.062500</ele>
<time>2013-11-21T14:30:44Z</time>
<speed>1.680000</speed>
<extensions>
<speed>1.7</speed>
<temp>0.00</temp>
<bpm>0</bpm>
<rpm>0.00</rpm>
</extensions>
</trkpt>
<trkpt lat="30.623847961" lon="34.803813934">
<ele>851.703125</ele>
<time>2013-11-21T14:30:49Z</time>
<speed>1.740000</speed>
<extensions>
<speed>1.7</speed>
<temp>0.00</temp>
<bpm>0</bpm>
<rpm>0.00</rpm>
</extensions>
</trkpt>
<trkpt lat="30.623737335" lon="34.803817749">
<ele>852.515625</ele>
<time>2013-11-21T14:30:54Z</time>
<speed>2.770000</speed>
<extensions>
<speed>2.8</speed>
<temp>0.00</temp>
<bpm>0</bpm>
<rpm>0.00</rpm>
</extensions>
</trkpt>
<trkpt lat="30.623605728" lon="34.803802490">
<ele>851.687500</ele>
<time>2013-11-21T14:30:59Z</time>
<speed>3.180000</speed>
<extensions>
<speed>3.2</speed>
<temp>0.00</temp>
<bpm>0</bpm>
<rpm>0.00</rpm>
</extensions>
</trkpt>
<trkpt lat="30.623470306" lon="34.803798676">
<ele>851.390625</ele>
<time>2013-11-21T14:31:04Z</time>
<speed>3.020000</speed>
<extensions>
<speed>3.0</speed>
<temp>0.00</temp>
<bpm>0</bpm>
<rpm>0.00</rpm>
</extensions>
</trkpt>
<trkpt lat="30.623327255" lon="34.803779602">
<ele>850.296875</ele>
<time>2013-11-21T14:31:09Z</time>
<speed>2.530000</speed>
<extensions>
<speed>2.5</speed>
<temp>0.00</temp>
<bpm>0</bpm>
<rpm>0.00</rpm>
</extensions>
</trkpt>
<trkpt lat="30.623218536" lon="34.803783417">
<ele>848.171875</ele>
<time>2013-11-21T14:31:14Z</time>
<speed>2.170000</speed>
<extensions>
<speed>2.2</speed>
<temp>0.00</temp>
<bpm>0</bpm>
<rpm>0.00</rpm>
</extensions>
</trkpt>
<trkpt lat="30.623111725" lon="34.803775787">
<ele>847.187500</ele>
<time>2013-11-21T14:31:19Z</time>
<speed>1.630000</speed>
<extensions>
<speed>1.6</speed>
<temp>0.00</temp>
<bpm>0</bpm>
<rpm>0.00</rpm>
</extensions>
</trkpt>
<trkpt lat="30.623020172" lon="34.803752899">
<ele>848.156250</ele>
<time>2013-11-21T14:31:24Z</time>
<speed>2.030000</speed>
<extensions>
<speed>2.0</speed>
<temp>0.00</temp>
<bpm>0</bpm>
<rpm>0.00</rpm>
</extensions>
</trkpt>
<trkpt lat="30.622917175" lon="34.803749084">
<ele>847.015625</ele>
<time>2013-11-21T14:31:29Z</time>
<speed>2.770000</speed>
<extensions>
<speed>2.8</speed>
<temp>0.00</temp>
<bpm>0</bpm>
<rpm>0.00</rpm>
</extensions>
</trkpt>
<trkpt lat="30.622749329" lon="34.803726196">
<ele>847.937500</ele>
<time>2013-11-21T14:31:34Z</time>
<speed>3.060000</speed>
<extensions>
<speed>3.1</speed>
<temp>0.00</temp>
<bpm>0</bpm>
<rpm>0.00</rpm>
</extensions>
</trkpt>
<trkpt lat="30.622585297" lon="34.803707123">
<ele>849.078125</ele>
<time>2013-11-21T14:31:39Z</time>
<speed>3.210000</speed>
<extensions>
<speed>3.2</speed>
<temp>0.00</temp>
<bpm>0</bpm>
<rpm>0.00</rpm>
</extensions>
</trkpt>
<trkpt lat="30.622432709" lon="34.803695679">
<ele>848.906250</ele>
<time>2013-11-21T14:31:44Z</time>
<speed>3.020000</speed>
<extensions>
<speed>3.0</speed>
<temp>0.00</temp>
<bpm>0</bpm>
<rpm>0.00</rpm>
</extensions>
</trkpt>
<trkpt lat="30.622295380" lon="34.803699493">
<ele>847.062500</ele>
<time>2013-11-21T14:31:49Z</time>
<speed>2.750000</speed>
<extensions>
<speed>2.7</speed>
<temp>0.00</temp>
<bpm>0</bpm>
<rpm>0.00</rpm>
</extensions>
</trkpt>
<trkpt lat="30.622142792" lon="34.803699493">
<ele>844.312500</ele>
<time>2013-11-21T14:31:54Z</time>
<speed>3.170000</speed>
<extensions>
<speed>3.2</speed>
<temp>0.00</temp>
<bpm>0</bpm>
<rpm>0.00</rpm>
</extensions>
</trkpt>
<trkpt lat="30.621984482" lon="34.803680420">
<ele>841.703125</ele>
<time>2013-11-21T14:31:59Z</time>
<speed>2.700000</speed>
<extensions>
<speed>2.7</speed>
<temp>0.00</temp>
<bpm>0</bpm>
<rpm>0.00</rpm>
</extensions>
</trkpt>
<trkpt lat="30.621849060" lon="34.803672791">
<ele>838.781250</ele>
<time>2013-11-21T14:32:04Z</time>
<speed>2.740000</speed>
<extensions>
<speed>2.7</speed>
<temp>0.00</temp>
<bpm>0</bpm>
<rpm>0.00</rpm>
</extensions>
</trkpt>
<trkpt lat="30.621688843" lon="34.803672791">
<ele>839.062500</ele>
<time>2013-11-21T14:32:09Z</time>
<speed>3.070000</speed>
<extensions>
<speed>3.1</speed>
<temp>0.00</temp>
<bpm>0</bpm>
<rpm>0.00</rpm>
</extensions>
</trkpt>
<trkpt lat="30.621526718" lon="34.803665161">
<ele>840.031250</ele>
<time>2013-11-21T14:32:14Z</time>
<speed>3.690000</speed>
<extensions>
<speed>3.7</speed>
<temp>0.00</temp>
<bpm>0</bpm>
<rpm>0.00</rpm>
</extensions>
</trkpt>
<trkpt lat="30.621334076" lon="34.803668976">
<ele>839.546875</ele>
<time>2013-11-21T14:32:19Z</time>
<speed>2.590000</speed>
<extensions>
<speed>2.6</speed>
<temp>0.00</temp>
<bpm>0</bpm>
<rpm>0.00</rpm>
</extensions>
</trkpt>
<trkpt lat="30.621179581" lon="34.803646088">
<ele>842.546875</ele>
<time>2013-11-21T14:32:24Z</time>
<speed>3.570000</speed>
<extensions>
<speed>3.6</speed>
<temp>0.00</temp>
<bpm>0</bpm>
<rpm>0.00</rpm>
</extensions>
</trkpt>
<trkpt lat="30.620996475" lon="34.803646088">
<ele>840.656250</ele>
<time>2013-11-21T14:32:29Z</time>
<speed>3.910000</speed>
<extensions>
<speed>3.9</speed>
<temp>0.00</temp>
<bpm>0</bpm>
<rpm>0.00</rpm>
</extensions>
</trkpt>
<trkpt lat="30.620800018" lon="34.803657532">
<ele>837.265625</ele>
<time>2013-11-21T14:32:34Z</time>
<speed>3.590000</speed>
<extensions>
<speed>3.6</speed>
<temp>0.00</temp>
<bpm>0</bpm>
<rpm>0.00</rpm>
</extensions>
</trkpt>
<trkpt lat="30.620651245" lon="34.803657532">
<ele>835.718750</ele>
<time>2013-11-21T14:32:39Z</time>
<speed>3.480000</speed>
<extensions>
<speed>3.5</speed>
<temp>0.00</temp>
<bpm>0</bpm>
<rpm>0.00</rpm>
</extensions>
</trkpt>
<trkpt lat="30.620458603" lon="34.803668976">
<ele>834.812500</ele>
<time>2013-11-21T14:32:44Z</time>
<speed>3.260000</speed>
<extensions>
<speed>3.3</speed>
<temp>0.00</temp>
<bpm>0</bpm>
<rpm>0.00</rpm>
</extensions>
</trkpt>
<trkpt lat="30.620294571" lon="34.803680420">
<ele>832.359375</ele>
<time>2013-11-21T14:32:49Z</time>
<speed>3.000000</speed>
<extensions>
<speed>3.0</speed>
<temp>0.00</temp>
<bpm>0</bpm>
<rpm>0.00</rpm>
</extensions>
</trkpt>
<trkpt lat="30.620124817" lon="34.803653717">
<ele>830.796875</ele>
<time>2013-11-21T14:32:54Z</time>
<speed>3.680000</speed>
<extensions>
<speed>3.7</speed>
<temp>0.00</temp>
<bpm>0</bpm>
<rpm>0.00</rpm>
</extensions>
</trkpt>
<trkpt lat="30.619951248" lon="34.803680420">
<ele>833.875000</ele>
<time>2013-11-21T14:32:59Z</time>
<speed>3.040000</speed>
<extensions>
<speed>3.0</speed>
<temp>0.00</temp>
<bpm>0</bpm>
<rpm>0.00</rpm>
</extensions>
</trkpt>
<trkpt lat="30.619791031" lon="34.803638458">
<ele>838.890625</ele>
<time>2013-11-21T14:33:04Z</time>
<speed>3.120000</speed>
<extensions>
<speed>3.1</speed>
<temp>0.00</temp>
<bpm>0</bpm>
<rpm>0.00</rpm>
</extensions>
</trkpt>
<trkpt lat="30.619621277" lon="34.803634644">
<ele>841.453125</ele>
<time>2013-11-21T14:33:09Z</time>
<speed>4.000000</speed>
<extensions>
<speed>4.0</speed>
<temp>0.00</temp>
<bpm>0</bpm>
<rpm>0.00</rpm>
</extensions>
</trkpt>
<trkpt lat="30.619409561" lon="34.803627014">
<ele>841.578125</ele>
<time>2013-11-21T14:33:14Z</time>
<speed>3.740000</speed>
<extensions>
<speed>3.7</speed>
<temp>0.00</temp>
<bpm>0</bpm>
<rpm>0.00</rpm>
</extensions>
</trkpt>
<trkpt lat="30.619241714" lon="34.803638458">
<ele>846.000000</ele>
<time>2013-11-21T14:33:19Z</time>
<speed>2.950000</speed>
<extensions>
<speed>2.9</speed>
<temp>0.00</temp>
<bpm>0</bpm>
<rpm>0.00</rpm>
</extensions>
</trkpt>
<trkpt lat="30.619083405" lon="34.803623199">
<ele>847.500000</ele>
<time>2013-11-21T14:33:24Z</time>
<speed>2.510000</speed>
<extensions>
<speed>2.5</speed>
<temp>0.00</temp>
<bpm>0</bpm>
<rpm>0.00</rpm>
</extensions>
</trkpt>
<trkpt lat="30.618896484" lon="34.803607941">
<ele>848.437500</ele>
<time>2013-11-21T14:33:29Z</time>
<speed>3.610000</speed>
<extensions>
<speed>3.6</speed>
<temp>0.00</temp>
<bpm>0</bpm>
<rpm>0.00</rpm>
</extensions>
</trkpt>
<trkpt lat="30.618722916" lon="34.803562164">
<ele>847.984375</ele>
<time>2013-11-21T14:33:34Z</time>
<speed>4.420000</speed>
<extensions>
<speed>4.4</speed>
<temp>0.00</temp>
<bpm>0</bpm>
<rpm>0.00</rpm>
</extensions>
</trkpt>
<trkpt lat="30.618526459" lon="34.803573608">
<ele>850.015625</ele>
<time>2013-11-21T14:33:39Z</time>
<speed>4.010000</speed>
<extensions>
<speed>4.0</speed>
<temp>0.00</temp>
<bpm>0</bpm>
<rpm>0.00</rpm>
</extensions>
</trkpt>
<trkpt lat="30.618339539" lon="34.803554535">
<ele>856.062500</ele>
<time>2013-11-21T14:33:44Z</time>
<speed>3.830000</speed>
<extensions>
<speed>3.8</speed>
<temp>0.00</temp>
<bpm>0</bpm>
<rpm>0.00</rpm>
</extensions>
</trkpt>
<trkpt lat="30.618175507" lon="34.803550720">
<ele>854.421875</ele>
<time>2013-11-21T14:33:49Z</time>
<speed>3.630000</speed>
<extensions>
<speed>3.6</speed>
<temp>0.00</temp>
<bpm>0</bpm>
<rpm>0.00</rpm>
</extensions>
</trkpt>
<trkpt lat="30.618001938" lon="34.803531647">
<ele>854.718750</ele>
<time>2013-11-21T14:33:54Z</time>
<speed>4.030000</speed>
<extensions>
<speed>4.0</speed>
<temp>0.00</temp>
<bpm>0</bpm>
<rpm>0.00</rpm>
</extensions>
</trkpt>
<trkpt lat="30.617797852" lon="34.803516388">
<ele>856.906250</ele>
<time>2013-11-21T14:33:59Z</time>
<speed>4.000000</speed>
<extensions>
<speed>4.0</speed>
<temp>0.00</temp>
<bpm>0</bpm>
<rpm>0.00</rpm>
</extensions>
</trkpt>
<trkpt lat="30.617588043" lon="34.803493500">
<ele>856.609375</ele>
<time>2013-11-21T14:34:04Z</time>
<speed>4.670000</speed>
<extensions>
<speed>4.7</speed>
<temp>0.00</temp>
<bpm>0</bpm>
<rpm>0.00</rpm>
</extensions>
</trkpt>
<trkpt lat="30.617317200" lon="34.803485870">
<ele>857.859375</ele>
<time>2013-11-21T14:34:09Z</time>
<speed>4.670000</speed>
<extensions>
<speed>4.7</speed>
<temp>0.00</temp>
<bpm>0</bpm>
<rpm>0.00</rpm>
</extensions>
</trkpt>
<trkpt lat="30.617086411" lon="34.803459167">
<ele>859.312500</ele>
<time>2013-11-21T14:34:14Z</time>
<speed>5.120000</speed>
<extensions>
<speed>5.1</speed>
<temp>0.00</temp>
<bpm>0</bpm>
<rpm>0.00</rpm>
</extensions>
</trkpt>
<trkpt lat="30.616840363" lon="34.803451538">
<ele>863.171875</ele>
<time>2013-11-21T14:34:19Z</time>
<speed>4.930000</speed>
<extensions>
<speed>4.9</speed>
<temp>0.00</temp>
<bpm>0</bpm>
<rpm>0.00</rpm>
</extensions>
</trkpt>
<trkpt lat="30.616622925" lon="34.803447723">
<ele>867.359375</ele>
<time>2013-11-21T14:34:24Z</time>
<speed>3.900000</speed>
<extensions>
<speed>3.9</speed>
<temp>0.00</temp>
<bpm>0</bpm>
<rpm>0.00</rpm>
</extensions>
</trkpt>
<trkpt lat="30.616495132" lon="34.803394318">
<ele>866.468750</ele>
<time>2013-11-21T14:34:29Z</time>
<speed>2.320000</speed>
<extensions>
<speed>2.3</speed>
<temp>0.00</temp>
<bpm>0</bpm>
<rpm>0.00</rpm>
</extensions>
</trkpt>
<trkpt lat="30.616460800" lon="34.803379059">
<ele>867.625000</ele>
<time>2013-11-21T14:34:34Z</time>
<speed>0.010000</speed>
<extensions>
<speed>0.0</speed>
<temp>0.00</temp>
<bpm>0</bpm>
<rpm>0.00</rpm>
</extensions>
</trkpt>
<trkpt lat="30.616458893" lon="34.803379059">
<ele>867.718750</ele>
<time>2013-11-21T14:34:39Z</time>
<speed>0.100000</speed>
<extensions>
<speed>0.1</speed>
<temp>0.00</temp>
<bpm>0</bpm>
<rpm>0.00</rpm>
</extensions>
</trkpt>
<trkpt lat="30.616456985" lon="34.803379059">
<ele>867.640625</ele>
<time>2013-11-21T14:34:44Z</time>
<speed>0.080000</speed>
<extensions>
<speed>0.1</speed>
<temp>0.00</temp>
<bpm>0</bpm>
<rpm>0.00</rpm>
</extensions>
</trkpt>
<trkpt lat="30.616455078" lon="34.803375244">
<ele>867.453125</ele>
<time>2013-11-21T14:34:49Z</time>
<speed>0.110000</speed>
<extensions>
<speed>0.1</speed>
<temp>0.00</temp>
<bpm>0</bpm>
<rpm>0.00</rpm>
</extensions>
</trkpt>
<trkpt lat="30.616456985" lon="34.803375244">
<ele>867.265625</ele>
<time>2013-11-21T14:34:54Z</time>
<speed>0.040000</speed>
<extensions>
<speed>0.0</speed>
<temp>0.00</temp>
<bpm>0</bpm>
<rpm>0.00</rpm>
</extensions>
</trkpt>
<trkpt lat="30.616456985" lon="34.803379059">
<ele>867.281250</ele>
<time>2013-11-21T14:34:59Z</time>
<speed>0.040000</speed>
<extensions>
<speed>0.0</speed>
<temp>0.00</temp>
<bpm>0</bpm>
<rpm>0.00</rpm>
</extensions>
</trkpt>
<trkpt lat="30.616455078" lon="34.803379059">
<ele>867.218750</ele>
<time>2013-11-21T14:35:04Z</time>
<speed>0.010000</speed>
<extensions>
<speed>0.0</speed>
<temp>0.00</temp>
<bpm>0</bpm>
<rpm>0.00</rpm>
</extensions>
</trkpt>
<trkpt lat="30.616455078" lon="34.803379059">
<ele>867.218750</ele>
<time>2013-11-21T14:35:09Z</time>
<speed>0.030000</speed>
<extensions>
<speed>0.0</speed>
<temp>0.00</temp>
<bpm>0</bpm>
<rpm>0.00</rpm>
</extensions>
</trkpt>
<trkpt lat="30.616455078" lon="34.803379059">
<ele>867.140625</ele>
<time>2013-11-21T14:35:14Z</time>
<extensions>
<speed>0.0</speed>
<temp>0.00</temp>
<bpm>0</bpm>
<rpm>0.00</rpm>
</extensions>
</trkpt>
<trkpt lat="30.616455078" lon="34.803379059">
<ele>867.140625</ele>
<time>2013-11-21T14:35:19Z</time>
<speed>0.010000</speed>
<extensions>
<speed>0.0</speed>
<temp>0.00</temp>
<bpm>0</bpm>
<rpm>0.00</rpm>
</extensions>
</trkpt>
<trkpt lat="30.616455078" lon="34.803379059">
<ele>867.140625</ele>
<time>2013-11-21T14:35:24Z</time>
<speed>0.010000</speed>
<extensions>
<speed>0.0</speed>
<temp>0.00</temp>
<bpm>0</bpm>
<rpm>0.00</rpm>
</extensions>
</trkpt>
<trkpt lat="30.616455078" lon="34.803379059">
<ele>867.109375</ele>
<time>2013-11-21T14:35:29Z</time>
<extensions>
<speed>0.0</speed>
<temp>0.00</temp>
<bpm>0</bpm>
<rpm>0.00</rpm>
</extensions>
</trkpt>
<trkpt lat="30.616455078" lon="34.803379059">
<ele>867.093750</ele>
<time>2013-11-21T14:35:34Z</time>
<speed>0.010000</speed>
<extensions>
<speed>0.0</speed>
<temp>0.00</temp>
<bpm>0</bpm>
<rpm>0.00</rpm>
</extensions>
</trkpt>
<trkpt lat="30.616455078" lon="34.803379059">
<ele>867.093750</ele>
<time>2013-11-21T14:35:39Z</time>
<speed>0.030000</speed>
<extensions>
<speed>0.0</speed>
<temp>0.00</temp>
<bpm>0</bpm>
<rpm>0.00</rpm>
</extensions>
</trkpt>
<trkpt lat="30.616453171" lon="34.803379059">
<ele>867.109375</ele>
<time>2013-11-21T14:35:44Z</time>
<speed>0.030000</speed>
<extensions>
<speed>0.0</speed>
<temp>0.00</temp>
<bpm>0</bpm>
<rpm>0.00</rpm>
</extensions>
</trkpt>
<trkpt lat="30.616453171" lon="34.803375244">
<ele>867.093750</ele>
<time>2013-11-21T14:35:49Z</time>
<speed>0.040000</speed>
<extensions>
<speed>0.0</speed>
<temp>0.00</temp>
<bpm>0</bpm>
<rpm>0.00</rpm>
</extensions>
</trkpt>
<trkpt lat="30.616453171" lon="34.803375244">
<ele>867.093750</ele>
<time>2013-11-21T14:35:54Z</time>
<speed>0.020000</speed>
<extensions>
<speed>0.0</speed>
<temp>0.00</temp>
<bpm>0</bpm>
<rpm>0.00</rpm>
</extensions>
</trkpt>
<trkpt lat="30.616453171" lon="34.803375244">
<ele>867.093750</ele>
<time>2013-11-21T14:35:59Z</time>
<speed>0.100000</speed>
<extensions>
<speed>0.1</speed>
<temp>0.00</temp>
<bpm>0</bpm>
<rpm>0.00</rpm>
</extensions>
</trkpt>
<trkpt lat="30.616453171" lon="34.803375244">
<ele>867.046875</ele>
<time>2013-11-21T14:36:04Z</time>
<speed>0.040000</speed>
<extensions>
<speed>0.0</speed>
<temp>0.00</temp>
<bpm>0</bpm>
<rpm>0.00</rpm>
</extensions>
</trkpt>
<trkpt lat="30.616453171" lon="34.803375244">
<ele>867.046875</ele>
<time>2013-11-21T14:36:09Z</time>
<speed>0.020000</speed>
<extensions>
<speed>0.0</speed>
<temp>0.00</temp>
<bpm>0</bpm>
<rpm>0.00</rpm>
</extensions>
</trkpt>
<trkpt lat="30.616453171" lon="34.803375244">
<ele>867.046875</ele>
<time>2013-11-21T14:36:14Z</time>
<speed>0.010000</speed>
<extensions>
<speed>0.0</speed>
<temp>0.00</temp>
<bpm>0</bpm>
<rpm>0.00</rpm>
</extensions>
</trkpt>
<trkpt lat="30.616453171" lon="34.803375244">
<ele>867.031250</ele>
<time>2013-11-21T14:36:19Z</time>
<extensions>
<speed>0.0</speed>
<temp>0.00</temp>
<bpm>0</bpm>
<rpm>0.00</rpm>
</extensions>
</trkpt>
<trkpt lat="30.616453171" lon="34.803375244">
<ele>867.031250</ele>
<time>2013-11-21T14:36:24Z</time>
<speed>0.040000</speed>
<extensions>
<speed>0.0</speed>
<temp>0.00</temp>
<bpm>0</bpm>
<rpm>0.00</rpm>
</extensions>
</trkpt>
<trkpt lat="30.616453171" lon="34.803375244">
<ele>867.046875</ele>
<time>2013-11-21T14:36:29Z</time>
<speed>0.020000</speed>
<extensions>
<speed>0.0</speed>
<temp>0.00</temp>
<bpm>0</bpm>
<rpm>0.00</rpm>
</extensions>
</trkpt>
<trkpt lat="30.616451263" lon="34.803375244">
<ele>867.093750</ele>
<time>2013-11-21T14:36:34Z</time>
<speed>0.020000</speed>
<extensions>
<speed>0.0</speed>
<temp>0.00</temp>
<bpm>0</bpm>
<rpm>0.00</rpm>
</extensions>
</trkpt>
<trkpt lat="30.616451263" lon="34.803375244">
<ele>867.093750</ele>
<time>2013-11-21T14:36:39Z</time>
<speed>0.010000</speed>
<extensions>
<speed>0.0</speed>
<temp>0.00</temp>
<bpm>0</bpm>
<rpm>0.00</rpm>
</extensions>
</trkpt>
<trkpt lat="30.616451263" lon="34.803379059">
<ele>867.062500</ele>
<time>2013-11-21T14:36:44Z</time>
<speed>0.010000</speed>
<extensions>
<speed>0.0</speed>
<temp>0.00</temp>
<bpm>0</bpm>
<rpm>0.00</rpm>
</extensions>
</trkpt>
<trkpt lat="30.616451263" lon="34.803379059">
<ele>867.062500</ele>
<time>2013-11-21T14:36:49Z</time>
<speed>0.010000</speed>
<extensions>
<speed>0.0</speed>
<temp>0.00</temp>
<bpm>0</bpm>
<rpm>0.00</rpm>
</extensions>
</trkpt>
<trkpt lat="30.616451263" lon="34.803379059">
<ele>867.062500</ele>
<time>2013-11-21T14:36:54Z</time>
<speed>0.010000</speed>
<extensions>
<speed>0.0</speed>
<temp>0.00</temp>
<bpm>0</bpm>
<rpm>0.00</rpm>
</extensions>
</trkpt>
<trkpt lat="30.616451263" lon="34.803379059">
<ele>867.031250</ele>
<time>2013-11-21T14:36:59Z</time>
<speed>0.010000</speed>
<extensions>
<speed>0.0</speed>
<temp>0.00</temp>
<bpm>0</bpm>
<rpm>0.00</rpm>
</extensions>
</trkpt>
<trkpt lat="30.616451263" lon="34.803379059">
<ele>867.046875</ele>
<time>2013-11-21T14:37:04Z</time>
<speed>0.020000</speed>
<extensions>
<speed>0.0</speed>
<temp>0.00</temp>
<bpm>0</bpm>
<rpm>0.00</rpm>
</extensions>
</trkpt>
<trkpt lat="30.616451263" lon="34.803379059">
<ele>867.062500</ele>
<time>2013-11-21T14:37:09Z</time>
<speed>0.010000</speed>
<extensions>
<speed>0.0</speed>
<temp>0.00</temp>
<bpm>0</bpm>
<rpm>0.00</rpm>
</extensions>
</trkpt>
<trkpt lat="30.616451263" lon="34.803379059">
<ele>867.093750</ele>
<time>2013-11-21T14:37:14Z</time>
<speed>0.020000</speed>
<extensions>
<speed>0.0</speed>
<temp>0.00</temp>
<bpm>0</bpm>
<rpm>0.00</rpm>
</extensions>
</trkpt>
<trkpt lat="30.616451263" lon="34.803375244">
<ele>867.109375</ele>
<time>2013-11-21T14:37:19Z</time>
<speed>0.010000</speed>
<extensions>
<speed>0.0</speed>
<temp>0.00</temp>
<bpm>0</bpm>
<rpm>0.00</rpm>
</extensions>
</trkpt>
<trkpt lat="30.616451263" lon="34.803375244">
<ele>867.125000</ele>
<time>2013-11-21T14:37:24Z</time>
<speed>0.030000</speed>
<extensions>
<speed>0.0</speed>
<temp>0.00</temp>
<bpm>0</bpm>
<rpm>0.00</rpm>
</extensions>
</trkpt>
<trkpt lat="30.616453171" lon="34.803375244">
<ele>867.109375</ele>
<time>2013-11-21T14:37:29Z</time>
<speed>0.020000</speed>
<extensions>
<speed>0.0</speed>
<temp>0.00</temp>
<bpm>0</bpm>
<rpm>0.00</rpm>
</extensions>
</trkpt>
<trkpt lat="30.616453171" lon="34.803375244">
<ele>867.109375</ele>
<time>2013-11-21T14:37:34Z</time>
<speed>0.020000</speed>
<extensions>
<speed>0.0</speed>
<temp>0.00</temp>
<bpm>0</bpm>
<rpm>0.00</rpm>
</extensions>
</trkpt>
<trkpt lat="30.616453171" lon="34.803375244">
<ele>867.125000</ele>
<time>2013-11-21T14:37:39Z</time>
<speed>0.020000</speed>
<extensions>
<speed>0.0</speed>
<temp>0.00</temp>
<bpm>0</bpm>
<rpm>0.00</rpm>
</extensions>
</trkpt>
<trkpt lat="30.616453171" lon="34.803375244">
<ele>867.140625</ele>
<time>2013-11-21T14:37:44Z</time>
<speed>0.020000</speed>
<extensions>
<speed>0.0</speed>
<temp>0.00</temp>
<bpm>0</bpm>
<rpm>0.00</rpm>
</extensions>
</trkpt>
<trkpt lat="30.616453171" lon="34.803375244">
<ele>867.156250</ele>
<time>2013-11-21T14:37:49Z</time>
<speed>0.010000</speed>
<extensions>
<speed>0.0</speed>
<temp>0.00</temp>
<bpm>0</bpm>
<rpm>0.00</rpm>
</extensions>
</trkpt>
<trkpt lat="30.616453171" lon="34.803375244">
<ele>867.203125</ele>
<time>2013-11-21T14:37:54Z</time>
<speed>0.030000</speed>
<extensions>
<speed>0.0</speed>
<temp>0.00</temp>
<bpm>0</bpm>
<rpm>0.00</rpm>
</extensions>
</trkpt>
<trkpt lat="30.616453171" lon="34.803375244">
<ele>867.250000</ele>
<time>2013-11-21T14:37:59Z</time>
<speed>0.080000</speed>
<extensions>
<speed>0.1</speed>
<temp>0.00</temp>
<bpm>0</bpm>
<rpm>0.00</rpm>
</extensions>
</trkpt>
<trkpt lat="30.616451263" lon="34.803371429">
<ele>867.250000</ele>
<time>2013-11-21T14:38:04Z</time>
<speed>0.170000</speed>
<extensions>
<speed>0.2</speed>
<temp>0.00</temp>
<bpm>0</bpm>
<rpm>0.00</rpm>
</extensions>
</trkpt>
<trkpt lat="30.616451263" lon="34.803367615">
<ele>867.281250</ele>
<time>2013-11-21T14:38:09Z</time>
<speed>0.280000</speed>
<extensions>
<speed>0.3</speed>
<temp>0.00</temp>
<bpm>0</bpm>
<rpm>0.00</rpm>
</extensions>
</trkpt>
<trkpt lat="30.616451263" lon="34.803298950">
<ele>867.312500</ele>
<time>2013-11-21T14:38:14Z</time>
<speed>2.970000</speed>
<extensions>
<speed>3.0</speed>
<temp>0.00</temp>
<bpm>0</bpm>
<rpm>0.00</rpm>
</extensions>
</trkpt>
<trkpt lat="30.616472244" lon="34.803070068">
<ele>864.796875</ele>
<time>2013-11-21T14:38:19Z</time>
<speed>3.640000</speed>
<extensions>
<speed>3.6</speed>
<temp>0.00</temp>
<bpm>0</bpm>
<rpm>0.00</rpm>
</extensions>
</trkpt>
<trkpt lat="30.616458893" lon="34.802738190">
<ele>863.640625</ele>
<time>2013-11-21T14:38:24Z</time>
<speed>4.660000</speed>
<extensions>
<speed>4.7</speed>
<temp>0.00</temp>
<bpm>0</bpm>
<rpm>0.00</rpm>
</extensions>
</trkpt>
<trkpt lat="30.616483688" lon="34.802410126">
<ele>860.750000</ele>
<time>2013-11-21T14:38:29Z</time>
<speed>5.200000</speed>
<extensions>
<speed>5.2</speed>
<temp>0.00</temp>
<bpm>0</bpm>
<rpm>0.00</rpm>
</extensions>
</trkpt>
<trkpt lat="30.616506577" lon="34.802078247">
<ele>860.515625</ele>
<time>2013-11-21T14:38:34Z</time>
<speed>5.370000</speed>
<extensions>
<speed>5.4</speed>
<temp>0.00</temp>
<bpm>0</bpm>
<rpm>0.00</rpm>
</extensions>
</trkpt>
<trkpt lat="30.616567612" lon="34.801742554">
<ele>862.984375</ele>
<time>2013-11-21T14:38:39Z</time>
<speed>5.600000</speed>
<extensions>
<speed>5.6</speed>
<temp>0.00</temp>
<bpm>0</bpm>
<rpm>0.00</rpm>
</extensions>
</trkpt>
<trkpt lat="30.616621017" lon="34.801448822">
<ele>864.906250</ele>
<time>2013-11-21T14:38:44Z</time>
<speed>5.570000</speed>
<extensions>
<speed>5.6</speed>
<temp>0.00</temp>
<bpm>0</bpm>
<rpm>0.00</rpm>
</extensions>
</trkpt>
<trkpt lat="30.616685867" lon="34.801166534">
<ele>865.906250</ele>
<time>2013-11-21T14:38:49Z</time>
<speed>5.010000</speed>
<extensions>
<speed>5.0</speed>
<temp>0.00</temp>
<bpm>0</bpm>
<rpm>0.00</rpm>
</extensions>
</trkpt>
<trkpt lat="30.616752625" lon="34.800926208">
<ele>863.781250</ele>
<time>2013-11-21T14:38:54Z</time>
<speed>4.360000</speed>
<extensions>
<speed>4.4</speed>
<temp>0.00</temp>
<bpm>0</bpm>
<rpm>0.00</rpm>
</extensions>
</trkpt>
<trkpt lat="30.616777420" lon="34.800716400">
<ele>863.578125</ele>
<time>2013-11-21T14:38:59Z</time>
<speed>4.450000</speed>
<extensions>
<speed>4.5</speed>
<temp>0.00</temp>
<bpm>0</bpm>
<rpm>0.00</rpm>
</extensions>
</trkpt>
<trkpt lat="30.616710663" lon="34.800457001">
<ele>861.609375</ele>
<time>2013-11-21T14:39:04Z</time>
<speed>4.010000</speed>
<extensions>
<speed>4.0</speed>
<temp>0.00</temp>
<bpm>0</bpm>
<rpm>0.00</rpm>
</extensions>
</trkpt>
<trkpt lat="30.616640091" lon="34.800292969">
<ele>858.015625</ele>
<time>2013-11-21T14:39:09Z</time>
<speed>1.230000</speed>
<extensions>
<speed>1.2</speed>
<temp>0.00</temp>
<bpm>0</bpm>
<rpm>0.00</rpm>
</extensions>
</trkpt>
<trkpt lat="30.616573334" lon="34.800197601">
<ele>857.203125</ele>
<time>2013-11-21T14:39:14Z</time>
<speed>1.220000</speed>
<extensions>
<speed>1.2</speed>
<temp>0.00</temp>
<bpm>0</bpm>
<rpm>0.00</rpm>
</extensions>
</trkpt>
<trkpt lat="30.616590500" lon="34.800205231">
<ele>856.046875</ele>
<time>2013-11-21T14:39:19Z</time>
<speed>2.780000</speed>
<extensions>
<speed>2.8</speed>
<temp>0.00</temp>
<bpm>0</bpm>
<rpm>0.00</rpm>
</extensions>
</trkpt>
<trkpt lat="30.616634369" lon="34.800304413">
<ele>853.953125</ele>
<time>2013-11-21T14:39:24Z</time>
<speed>2.490000</speed>
<extensions>
<speed>2.5</speed>
<temp>0.00</temp>
<bpm>0</bpm>
<rpm>0.00</rpm>
</extensions>
</trkpt>
<trkpt lat="30.616693497" lon="34.800441742">
<ele>848.750000</ele>
<time>2013-11-21T14:39:29Z</time>
<speed>2.620000</speed>
<extensions>
<speed>2.6</speed>
<temp>0.00</temp>
<bpm>0</bpm>
<rpm>0.00</rpm>
</extensions>
</trkpt>
<trkpt lat="30.616817474" lon="34.800472260">
<ele>847.812500</ele>
<time>2013-11-21T14:39:34Z</time>
<speed>1.680000</speed>
<extensions>
<speed>1.7</speed>
<temp>0.00</temp>
<bpm>0</bpm>
<rpm>0.00</rpm>
</extensions>
</trkpt>
<trkpt lat="30.616918564" lon="34.800491333">
<ele>846.312500</ele>
<time>2013-11-21T14:39:39Z</time>
<speed>2.710000</speed>
<extensions>
<speed>2.7</speed>
<temp>0.00</temp>
<bpm>0</bpm>
<rpm>0.00</rpm>
</extensions>
</trkpt>
<trkpt lat="30.617097855" lon="34.800510406">
<ele>844.968750</ele>
<time>2013-11-21T14:39:44Z</time>
<speed>3.360000</speed>
<extensions>
<speed>3.4</speed>
<temp>0.00</temp>
<bpm>0</bpm>
<rpm>0.00</rpm>
</extensions>
</trkpt>
<trkpt lat="30.617279053" lon="34.800537109">
<ele>843.343750</ele>
<time>2013-11-21T14:39:49Z</time>
<speed>3.060000</speed>
<extensions>
<speed>3.1</speed>
<temp>0.00</temp>
<bpm>0</bpm>
<rpm>0.00</rpm>
</extensions>
</trkpt>
<trkpt lat="30.617458344" lon="34.800548553">
<ele>842.031250</ele>
<time>2013-11-21T14:39:54Z</time>
<speed>3.740000</speed>
<extensions>
<speed>3.7</speed>
<temp>0.00</temp>
<bpm>0</bpm>
<rpm>0.00</rpm>
</extensions>
</trkpt>
<trkpt lat="30.617685318" lon="34.800537109">
<ele>836.062500</ele>
<time>2013-11-21T14:39:59Z</time>
<speed>4.180000</speed>
<extensions>
<speed>4.2</speed>
<temp>0.00</temp>
<bpm>0</bpm>
<rpm>0.00</rpm>
</extensions>
</trkpt>
<trkpt lat="30.617912292" lon="34.800518036">
<ele>838.734375</ele>
<time>2013-11-21T14:40:04Z</time>
<speed>4.010000</speed>
<extensions>
<speed>4.0</speed>
<temp>0.00</temp>
<bpm>0</bpm>
<rpm>0.00</rpm>
</extensions>
</trkpt>
<trkpt lat="30.618103027" lon="34.800495148">
<ele>838.343750</ele>
<time>2013-11-21T14:40:09Z</time>
<speed>4.220000</speed>
<extensions>
<speed>4.2</speed>
<temp>0.00</temp>
<bpm>0</bpm>
<rpm>0.00</rpm>
</extensions>
</trkpt>
<trkpt lat="30.618268967" lon="34.800445557">
<ele>834.343750</ele>
<time>2013-11-21T14:40:14Z</time>
<speed>3.510000</speed>
<extensions>
<speed>3.5</speed>
<temp>0.00</temp>
<bpm>0</bpm>
<rpm>0.00</rpm>
</extensions>
</trkpt>
<trkpt lat="30.618379593" lon="34.800392151">
<ele>831.968750</ele>
<time>2013-11-21T14:40:19Z</time>
<speed>1.990000</speed>
<extensions>
<speed>2.0</speed>
<temp>0.00</temp>
<bpm>0</bpm>
<rpm>0.00</rpm>
</extensions>
</trkpt>
<trkpt lat="30.618492126" lon="34.800472260">
<ele>832.421875</ele>
<time>2013-11-21T14:40:24Z</time>
<speed>2.990000</speed>
<extensions>
<speed>3.0</speed>
<temp>0.00</temp>
<bpm>0</bpm>
<rpm>0.00</rpm>
</extensions>
</trkpt>
<trkpt lat="30.618566513" lon="34.800643921">
<ele>833.171875</ele>
<time>2013-11-21T14:40:29Z</time>
<speed>2.930000</speed>
<extensions>
<speed>2.9</speed>
<temp>0.00</temp>
<bpm>0</bpm>
<rpm>0.00</rpm>
</extensions>
</trkpt>
<trkpt lat="30.618633270" lon="34.800777435">
<ele>833.296875</ele>
<time>2013-11-21T14:40:34Z</time>
<speed>2.710000</speed>
<extensions>
<speed>2.7</speed>
<temp>0.00</temp>
<bpm>0</bpm>
<rpm>0.00</rpm>
</extensions>
</trkpt>
<trkpt lat="30.618663788" lon="34.800960541">
<ele>832.984375</ele>
<time>2013-11-21T14:40:39Z</time>
<speed>2.670000</speed>
<extensions>
<speed>2.7</speed>
<temp>0.00</temp>
<bpm>0</bpm>
<rpm>0.00</rpm>
</extensions>
</trkpt>
<trkpt lat="30.618684769" lon="34.801105499">
<ele>832.906250</ele>
<time>2013-11-21T14:40:44Z</time>
<speed>2.590000</speed>
<extensions>
<speed>2.6</speed>
<temp>0.00</temp>
<bpm>0</bpm>
<rpm>0.00</rpm>
</extensions>
</trkpt>
<trkpt lat="30.618743896" lon="34.801193237">
<ele>827.281250</ele>
<time>2013-11-21T14:40:49Z</time>
<speed>2.180000</speed>
<extensions>
<speed>2.2</speed>
<temp>0.00</temp>
<bpm>0</bpm>
<rpm>0.00</rpm>
</extensions>
</trkpt>
<trkpt lat="30.618724823" lon="34.801338196">
<ele>826.671875</ele>
<time>2013-11-21T14:40:54Z</time>
<speed>2.310000</speed>
<extensions>
<speed>2.3</speed>
<temp>0.00</temp>
<bpm>0</bpm>
<rpm>0.00</rpm>
</extensions>
</trkpt>
<trkpt lat="30.618743896" lon="34.801467896">
<ele>826.921875</ele>
<time>2013-11-21T14:40:59Z</time>
<speed>1.710000</speed>
<extensions>
<speed>1.7</speed>
<temp>0.00</temp>
<bpm>0</bpm>
<rpm>0.00</rpm>
</extensions>
</trkpt>
<trkpt lat="30.618730545" lon="34.801628113">
<ele>824.968750</ele>
<time>2013-11-21T14:41:04Z</time>
<speed>1.170000</speed>
<extensions>
<speed>1.2</speed>
<temp>0.00</temp>
<bpm>0</bpm>
<rpm>0.00</rpm>
</extensions>
</trkpt>
<trkpt lat="30.618768692" lon="34.801681519">
<ele>825.609375</ele>
<time>2013-11-21T14:41:09Z</time>
<speed>0.570000</speed>
<extensions>
<speed>0.6</speed>
<temp>0.00</temp>
<bpm>0</bpm>
<rpm>0.00</rpm>
</extensions>
</trkpt>
<trkpt lat="30.618782043" lon="34.801700592">
<ele>824.015625</ele>
<time>2013-11-21T14:41:14Z</time>
<speed>0.350000</speed>
<extensions>
<speed>0.3</speed>
<temp>0.00</temp>
<bpm>0</bpm>
<rpm>0.00</rpm>
</extensions>
</trkpt>
<trkpt lat="30.618791580" lon="34.801715851">
<ele>822.406250</ele>
<time>2013-11-21T14:41:19Z</time>
<speed>0.310000</speed>
<extensions>
<speed>0.3</speed>
<temp>0.00</temp>
<bpm>0</bpm>
<rpm>0.00</rpm>
</extensions>
</trkpt>
<trkpt lat="30.618791580" lon="34.801742554">
<ele>820.843750</ele>
<time>2013-11-21T14:41:24Z</time>
<speed>0.530000</speed>
<extensions>
<speed>0.5</speed>
<temp>0.00</temp>
<bpm>0</bpm>
<rpm>0.00</rpm>
</extensions>
</trkpt>
<trkpt lat="30.618789673" lon="34.801757813">
<ele>819.484375</ele>
<time>2013-11-21T14:41:29Z</time>
<speed>0.260000</speed>
<extensions>
<speed>0.3</speed>
<temp>0.00</temp>
<bpm>0</bpm>
<rpm>0.00</rpm>
</extensions>
</trkpt>
<trkpt lat="30.618793488" lon="34.801769257">
<ele>818.828125</ele>
<time>2013-11-21T14:41:34Z</time>
<speed>0.040000</speed>
<extensions>
<speed>0.0</speed>
<temp>0.00</temp>
<bpm>0</bpm>
<rpm>0.00</rpm>
</extensions>
</trkpt>
<trkpt lat="30.618791580" lon="34.801742554">
<ele>818.843750</ele>
<time>2013-11-21T14:41:39Z</time>
<speed>1.300000</speed>
<extensions>
<speed>1.3</speed>
<temp>0.00</temp>
<bpm>0</bpm>
<rpm>0.00</rpm>
</extensions>
</trkpt>
<trkpt lat="30.618745804" lon="34.801712036">
<ele>822.984375</ele>
<time>2013-11-21T14:41:44Z</time>
<speed>0.820000</speed>
<extensions>
<speed>0.8</speed>
<temp>0.00</temp>
<bpm>0</bpm>
<rpm>0.00</rpm>
</extensions>
</trkpt>
<trkpt lat="30.618713379" lon="34.801692963">
<ele>825.609375</ele>
<time>2013-11-21T14:41:49Z</time>
<speed>0.170000</speed>
<extensions>
<speed>0.2</speed>
<temp>0.00</temp>
<bpm>0</bpm>
<rpm>0.00</rpm>
</extensions>
</trkpt>
<trkpt lat="30.618713379" lon="34.801700592">
<ele>825.843750</ele>
<time>2013-11-21T14:41:54Z</time>
<speed>0.130000</speed>
<extensions>
<speed>0.1</speed>
<temp>0.00</temp>
<bpm>0</bpm>
<rpm>0.00</rpm>
</extensions>
</trkpt>
<trkpt lat="30.618713379" lon="34.801708221">
<ele>825.906250</ele>
<time>2013-11-21T14:41:59Z</time>
<speed>0.130000</speed>
<extensions>
<speed>0.1</speed>
<temp>0.00</temp>
<bpm>0</bpm>
<rpm>0.00</rpm>
</extensions>
</trkpt>
<trkpt lat="30.618721008" lon="34.801708221">
<ele>825.937500</ele>
<time>2013-11-21T14:42:04Z</time>
<speed>0.190000</speed>
<extensions>
<speed>0.2</speed>
<temp>0.00</temp>
<bpm>0</bpm>
<rpm>0.00</rpm>
</extensions>
</trkpt>
<trkpt lat="30.618724823" lon="34.801712036">
<ele>826.031250</ele>
<time>2013-11-21T14:42:09Z</time>
<speed>0.140000</speed>
<extensions>
<speed>0.1</speed>
<temp>0.00</temp>
<bpm>0</bpm>
<rpm>0.00</rpm>
</extensions>
</trkpt>
<trkpt lat="30.618753433" lon="34.801692963">
<ele>826.406250</ele>
<time>2013-11-21T14:42:14Z</time>
<speed>0.510000</speed>
<extensions>
<speed>0.5</speed>
<temp>0.00</temp>
<bpm>0</bpm>
<rpm>0.00</rpm>
</extensions>
</trkpt>
<trkpt lat="30.618780136" lon="34.801673889">
<ele>826.906250</ele>
<time>2013-11-21T14:42:19Z</time>
<speed>0.350000</speed>
<extensions>
<speed>0.3</speed>
<temp>0.00</temp>
<bpm>0</bpm>
<rpm>0.00</rpm>
</extensions>
</trkpt>
<trkpt lat="30.618782043" lon="34.801673889">
<ele>827.437500</ele>
<time>2013-11-21T14:42:24Z</time>
<speed>0.250000</speed>
<extensions>
<speed>0.2</speed>
<temp>0.00</temp>
<bpm>0</bpm>
<rpm>0.00</rpm>
</extensions>
</trkpt>
<trkpt lat="30.618774414" lon="34.801670074">
<ele>827.484375</ele>
<time>2013-11-21T14:42:29Z</time>
<speed>0.140000</speed>
<extensions>
<speed>0.1</speed>
<temp>0.00</temp>
<bpm>0</bpm>
<rpm>0.00</rpm>
</extensions>
</trkpt>
<trkpt lat="30.618774414" lon="34.801666260">
<ele>827.546875</ele>
<time>2013-11-21T14:42:34Z</time>
<speed>0.180000</speed>
<extensions>
<speed>0.2</speed>
<temp>0.00</temp>
<bpm>0</bpm>
<rpm>0.00</rpm>
</extensions>
</trkpt>
<trkpt lat="30.618801117" lon="34.801731110">
<ele>828.093750</ele>
<time>2013-11-21T14:42:39Z</time>
<speed>0.870000</speed>
<extensions>
<speed>0.9</speed>
<temp>0.00</temp>
<bpm>0</bpm>
<rpm>0.00</rpm>
</extensions>
</trkpt>
<trkpt lat="30.618837357" lon="34.801765442">
<ele>828.468750</ele>
<time>2013-11-21T14:42:44Z</time>
<speed>0.150000</speed>
<extensions>
<speed>0.2</speed>
<temp>0.00</temp>
<bpm>0</bpm>
<rpm>0.00</rpm>
</extensions>
</trkpt>
<trkpt lat="30.618862152" lon="34.801773071">
<ele>829.781250</ele>
<time>2013-11-21T14:42:49Z</time>
<speed>0.220000</speed>
<extensions>
<speed>0.2</speed>
<temp>0.00</temp>
<bpm>0</bpm>
<rpm>0.00</rpm>
</extensions>
</trkpt>
<trkpt lat="30.618835449" lon="34.801753998">
<ele>832.984375</ele>
<time>2013-11-21T14:42:54Z</time>
<speed>0.670000</speed>
<extensions>
<speed>0.7</speed>
<temp>0.00</temp>
<bpm>0</bpm>
<rpm>0.00</rpm>
</extensions>
</trkpt>
<trkpt lat="30.618795395" lon="34.801738739">
<ele>834.562500</ele>
<time>2013-11-21T14:42:59Z</time>
<speed>0.300000</speed>
<extensions>
<speed>0.3</speed>
<temp>0.00</temp>
<bpm>0</bpm>
<rpm>0.00</rpm>
</extensions>
</trkpt>
<trkpt lat="30.618789673" lon="34.801719666">
<ele>834.750000</ele>
<time>2013-11-21T14:43:04Z</time>
<speed>0.210000</speed>
<extensions>
<speed>0.2</speed>
<temp>0.00</temp>
<bpm>0</bpm>
<rpm>0.00</rpm>
</extensions>
</trkpt>
<trkpt lat="30.618782043" lon="34.801731110">
<ele>835.781250</ele>
<time>2013-11-21T14:43:09Z</time>
<speed>0.260000</speed>
<extensions>
<speed>0.3</speed>
<temp>0.00</temp>
<bpm>0</bpm>
<rpm>0.00</rpm>
</extensions>
</trkpt>
<trkpt lat="30.618789673" lon="34.801731110">
<ele>836.046875</ele>
<time>2013-11-21T14:43:14Z</time>
<speed>0.150000</speed>
<extensions>
<speed>0.2</speed>
<temp>0.00</temp>
<bpm>0</bpm>
<rpm>0.00</rpm>
</extensions>
</trkpt>
<trkpt lat="30.618803024" lon="34.801746368">
<ele>836.406250</ele>
<time>2013-11-21T14:43:19Z</time>
<speed>0.340000</speed>
<extensions>
<speed>0.3</speed>
<temp>0.00</temp>
<bpm>0</bpm>
<rpm>0.00</rpm>
</extensions>
</trkpt>
<trkpt lat="30.618797302" lon="34.801750183">
<ele>836.812500</ele>
<time>2013-11-21T14:43:24Z</time>
<speed>0.050000</speed>
<extensions>
<speed>0.1</speed>
<temp>0.00</temp>
<bpm>0</bpm>
<rpm>0.00</rpm>
</extensions>
</trkpt>
<trkpt lat="30.618797302" lon="34.801742554">
<ele>837.015625</ele>
<time>2013-11-21T14:43:29Z</time>
<speed>0.090000</speed>
<extensions>
<speed>0.1</speed>
<temp>0.00</temp>
<bpm>0</bpm>
<rpm>0.00</rpm>
</extensions>
</trkpt>
<trkpt lat="30.618801117" lon="34.801719666">
<ele>837.609375</ele>
<time>2013-11-21T14:43:34Z</time>
<speed>0.310000</speed>
<extensions>
<speed>0.3</speed>
<temp>0.00</temp>
<bpm>0</bpm>
<rpm>0.00</rpm>
</extensions>
</trkpt>
<trkpt lat="30.618804932" lon="34.801719666">
<ele>838.265625</ele>
<time>2013-11-21T14:43:39Z</time>
<speed>0.120000</speed>
<extensions>
<speed>0.1</speed>
<temp>0.00</temp>
<bpm>0</bpm>
<rpm>0.00</rpm>
</extensions>
</trkpt>
<trkpt lat="30.618801117" lon="34.801715851">
<ele>838.406250</ele>
<time>2013-11-21T14:43:44Z</time>
<speed>0.060000</speed>
<extensions>
<speed>0.1</speed>
<temp>0.00</temp>
<bpm>0</bpm>
<rpm>0.00</rpm>
</extensions>
</trkpt>
<trkpt lat="30.618803024" lon="34.801704407">
<ele>838.453125</ele>
<time>2013-11-21T14:43:49Z</time>
<speed>0.220000</speed>
<extensions>
<speed>0.2</speed>
<temp>0.00</temp>
<bpm>0</bpm>
<rpm>0.00</rpm>
</extensions>
</trkpt>
<trkpt lat="30.618810654" lon="34.801696777">
<ele>838.515625</ele>
<time>2013-11-21T14:43:54Z</time>
<speed>0.260000</speed>
<extensions>
<speed>0.3</speed>
<temp>0.00</temp>
<bpm>0</bpm>
<rpm>0.00</rpm>
</extensions>
</trkpt>
<trkpt lat="30.618776321" lon="34.801715851">
<ele>840.046875</ele>
<time>2013-11-21T14:43:59Z</time>
<speed>0.420000</speed>
<extensions>
<speed>0.4</speed>
<temp>0.00</temp>
<bpm>0</bpm>
<rpm>0.00</rpm>
</extensions>
</trkpt>
<trkpt lat="30.618806839" lon="34.801753998">
<ele>841.953125</ele>
<time>2013-11-21T14:44:04Z</time>
<speed>0.880000</speed>
<extensions>
<speed>0.9</speed>
<temp>0.00</temp>
<bpm>0</bpm>
<rpm>0.00</rpm>
</extensions>
</trkpt>
<trkpt lat="30.618803024" lon="34.801784515">
<ele>841.578125</ele>
<time>2013-11-21T14:44:09Z</time>
<speed>0.710000</speed>
<extensions>
<speed>0.7</speed>
<temp>0.00</temp>
<bpm>0</bpm>
<rpm>0.00</rpm>
</extensions>
</trkpt>
<trkpt lat="30.618808746" lon="34.801773071">
<ele>841.875000</ele>
<time>2013-11-21T14:44:14Z</time>
<speed>0.100000</speed>
<extensions>
<speed>0.1</speed>
<temp>0.00</temp>
<bpm>0</bpm>
<rpm>0.00</rpm>
</extensions>
</trkpt>
<trkpt lat="30.618835449" lon="34.801761627">
<ele>841.437500</ele>
<time>2013-11-21T14:44:19Z</time>
<speed>0.060000</speed>
<extensions>
<speed>0.1</speed>
<temp>0.00</temp>
<bpm>0</bpm>
<rpm>0.00</rpm>
</extensions>
</trkpt>
<trkpt lat="30.618827820" lon="34.801689148">
<ele>841.109375</ele>
<time>2013-11-21T14:44:24Z</time>
<speed>1.300000</speed>
<extensions>
<speed>1.3</speed>
<temp>0.00</temp>
<bpm>0</bpm>
<rpm>0.00</rpm>
</extensions>
</trkpt>
<trkpt lat="30.618822098" lon="34.801628113">
<ele>840.890625</ele>
<time>2013-11-21T14:44:29Z</time>
<speed>0.520000</speed>
<extensions>
<speed>0.5</speed>
<temp>0.00</temp>
<bpm>0</bpm>
<rpm>0.00</rpm>
</extensions>
</trkpt>
<trkpt lat="30.618829727" lon="34.801597595">
<ele>841.625000</ele>
<time>2013-11-21T14:44:34Z</time>
<speed>0.170000</speed>
<extensions>
<speed>0.2</speed>
<temp>0.00</temp>
<bpm>0</bpm>
<rpm>0.00</rpm>
</extensions>
</trkpt>
<trkpt lat="30.618844986" lon="34.801612854">
<ele>842.218750</ele>
<time>2013-11-21T14:44:39Z</time>
<speed>0.120000</speed>
<extensions>
<speed>0.1</speed>
<temp>0.00</temp>
<bpm>0</bpm>
<rpm>0.00</rpm>
</extensions>
</trkpt>
<trkpt lat="30.618822098" lon="34.801628113">
<ele>842.359375</ele>
<time>2013-11-21T14:44:44Z</time>
<speed>0.430000</speed>
<extensions>
<speed>0.4</speed>
<temp>0.00</temp>
<bpm>0</bpm>
<rpm>0.00</rpm>
</extensions>
</trkpt>
<trkpt lat="30.618795395" lon="34.801624298">
<ele>843.359375</ele>
<time>2013-11-21T14:44:49Z</time>
<speed>0.520000</speed>
<extensions>
<speed>0.5</speed>
<temp>0.00</temp>
<bpm>0</bpm>
<rpm>0.00</rpm>
</extensions>
</trkpt>
<trkpt lat="30.618803024" lon="34.801635742">
<ele>843.734375</ele>
<time>2013-11-21T14:44:54Z</time>
<speed>0.340000</speed>
<extensions>
<speed>0.3</speed>
<temp>0.00</temp>
<bpm>0</bpm>
<rpm>0.00</rpm>
</extensions>
</trkpt>
<trkpt lat="30.618772507" lon="34.801647186">
<ele>843.921875</ele>
<time>2013-11-21T14:44:59Z</time>
<speed>0.250000</speed>
<extensions>
<speed>0.2</speed>
<temp>0.00</temp>
<bpm>0</bpm>
<rpm>0.00</rpm>
</extensions>
</trkpt>
<trkpt lat="30.618751526" lon="34.801670074">
<ele>844.531250</ele>
<time>2013-11-21T14:45:04Z</time>
<speed>0.110000</speed>
<extensions>
<speed>0.1</speed>
<temp>0.00</temp>
<bpm>0</bpm>
<rpm>0.00</rpm>
</extensions>
</trkpt>
<trkpt lat="30.618751526" lon="34.801673889">
<ele>844.625000</ele>
<time>2013-11-21T14:45:09Z</time>
<speed>0.370000</speed>
<extensions>
<speed>0.4</speed>
<temp>0.00</temp>
<bpm>0</bpm>
<rpm>0.00</rpm>
</extensions>
</trkpt>
<trkpt lat="30.618747711" lon="34.801639557">
<ele>845.828125</ele>
<time>2013-11-21T14:45:14Z</time>
<speed>0.230000</speed>
<extensions>
<speed>0.2</speed>
<temp>0.00</temp>
<bpm>0</bpm>
<rpm>0.00</rpm>
</extensions>
</trkpt>
<trkpt lat="30.618749619" lon="34.801616669">
<ele>846.468750</ele>
<time>2013-11-21T14:45:19Z</time>
<speed>0.290000</speed>
<extensions>
<speed>0.3</speed>
<temp>0.00</temp>
<bpm>0</bpm>
<rpm>0.00</rpm>
</extensions>
</trkpt>
<trkpt lat="30.618749619" lon="34.801612854">
<ele>846.578125</ele>
<time>2013-11-21T14:45:24Z</time>
<speed>0.170000</speed>
<extensions>
<speed>0.2</speed>
<temp>0.00</temp>
<bpm>0</bpm>
<rpm>0.00</rpm>
</extensions>
</trkpt>
<trkpt lat="30.618745804" lon="34.801616669">
<ele>846.578125</ele>
<time>2013-11-21T14:45:29Z</time>
<speed>0.060000</speed>
<extensions>
<speed>0.1</speed>
<temp>0.00</temp>
<bpm>0</bpm>
<rpm>0.00</rpm>
</extensions>
</trkpt>
<trkpt lat="30.618741989" lon="34.801616669">
<ele>846.734375</ele>
<time>2013-11-21T14:45:34Z</time>
<speed>0.180000</speed>
<extensions>
<speed>0.2</speed>
<temp>0.00</temp>
<bpm>0</bpm>
<rpm>0.00</rpm>
</extensions>
</trkpt>
<trkpt lat="30.618736267" lon="34.801620483">
<ele>846.812500</ele>
<time>2013-11-21T14:45:39Z</time>
<speed>0.180000</speed>
<extensions>
<speed>0.2</speed>
<temp>0.00</temp>
<bpm>0</bpm>
<rpm>0.00</rpm>
</extensions>
</trkpt>
<trkpt lat="30.618732452" lon="34.801620483">
<ele>846.859375</ele>
<time>2013-11-21T14:45:44Z</time>
<speed>0.350000</speed>
<extensions>
<speed>0.3</speed>
<temp>0.00</temp>
<bpm>0</bpm>
<rpm>0.00</rpm>
</extensions>
</trkpt>
<trkpt lat="30.618747711" lon="34.801620483">
<ele>847.046875</ele>
<time>2013-11-21T14:45:49Z</time>
<speed>0.260000</speed>
<extensions>
<speed>0.3</speed>
<temp>0.00</temp>
<bpm>0</bpm>
<rpm>0.00</rpm>
</extensions>
</trkpt>
<trkpt lat="30.618736267" lon="34.801609039">
<ele>847.812500</ele>
<time>2013-11-21T14:45:54Z</time>
<speed>0.220000</speed>
<extensions>
<speed>0.2</speed>
<temp>0.00</temp>
<bpm>0</bpm>
<rpm>0.00</rpm>
</extensions>
</trkpt>
<trkpt lat="30.618736267" lon="34.801605225">
<ele>848.140625</ele>
<time>2013-11-21T14:45:59Z</time>
<speed>0.060000</speed>
<extensions>
<speed>0.1</speed>
<temp>0.00</temp>
<bpm>0</bpm>
<rpm>0.00</rpm>
</extensions>
</trkpt>
<trkpt lat="30.618722916" lon="34.801624298">
<ele>848.312500</ele>
<time>2013-11-21T14:46:04Z</time>
<speed>0.460000</speed>
<extensions>
<speed>0.5</speed>
<temp>0.00</temp>
<bpm>0</bpm>
<rpm>0.00</rpm>
</extensions>
</trkpt>
<trkpt lat="30.618700027" lon="34.801620483">
<ele>848.609375</ele>
<time>2013-11-21T14:46:09Z</time>
<speed>0.220000</speed>
<extensions>
<speed>0.2</speed>
<temp>0.00</temp>
<bpm>0</bpm>
<rpm>0.00</rpm>
</extensions>
</trkpt>
<trkpt lat="30.618686676" lon="34.801643372">
<ele>849.140625</ele>
<time>2013-11-21T14:46:14Z</time>
<speed>0.410000</speed>
<extensions>
<speed>0.4</speed>
<temp>0.00</temp>
<bpm>0</bpm>
<rpm>0.00</rpm>
</extensions>
</trkpt>
<trkpt lat="30.618692398" lon="34.801662445">
<ele>849.656250</ele>
<time>2013-11-21T14:46:19Z</time>
<speed>0.330000</speed>
<extensions>
<speed>0.3</speed>
<temp>0.00</temp>
<bpm>0</bpm>
<rpm>0.00</rpm>
</extensions>
</trkpt>
<trkpt lat="30.618680954" lon="34.801681519">
<ele>850.187500</ele>
<time>2013-11-21T14:46:24Z</time>
<speed>0.300000</speed>
<extensions>
<speed>0.3</speed>
<temp>0.00</temp>
<bpm>0</bpm>
<rpm>0.00</rpm>
</extensions>
</trkpt>
<trkpt lat="30.618658066" lon="34.801696777">
<ele>851.031250</ele>
<time>2013-11-21T14:46:29Z</time>
<speed>0.470000</speed>
<extensions>
<speed>0.5</speed>
<temp>0.00</temp>
<bpm>0</bpm>
<rpm>0.00</rpm>
</extensions>
</trkpt>
<trkpt lat="30.618635178" lon="34.801719666">
<ele>851.437500</ele>
<time>2013-11-21T14:46:34Z</time>
<speed>0.700000</speed>
<extensions>
<speed>0.7</speed>
<temp>0.00</temp>
<bpm>0</bpm>
<rpm>0.00</rpm>
</extensions>
</trkpt>
<trkpt lat="30.618640900" lon="34.801723480">
<ele>851.890625</ele>
<time>2013-11-21T14:46:39Z</time>
<speed>0.620000</speed>
<extensions>
<speed>0.6</speed>
<temp>0.00</temp>
<bpm>0</bpm>
<rpm>0.00</rpm>
</extensions>
</trkpt>
<trkpt lat="30.618642807" lon="34.801712036">
<ele>852.687500</ele>
<time>2013-11-21T14:46:44Z</time>
<speed>0.460000</speed>
<extensions>
<speed>0.5</speed>
<temp>0.00</temp>
<bpm>0</bpm>
<rpm>0.00</rpm>
</extensions>
</trkpt>
<trkpt lat="30.618671417" lon="34.801670074">
<ele>853.750000</ele>
<time>2013-11-21T14:46:49Z</time>
<speed>0.100000</speed>
<extensions>
<speed>0.1</speed>
<temp>0.00</temp>
<bpm>0</bpm>
<rpm>0.00</rpm>
</extensions>
</trkpt>
<trkpt lat="30.618675232" lon="34.801662445">
<ele>853.843750</ele>
<time>2013-11-21T14:46:54Z</time>
<speed>0.110000</speed>
<extensions>
<speed>0.1</speed>
<temp>0.00</temp>
<bpm>0</bpm>
<rpm>0.00</rpm>
</extensions>
</trkpt>
<trkpt lat="30.618679047" lon="34.801658630">
<ele>853.890625</ele>
<time>2013-11-21T14:46:59Z</time>
<speed>0.160000</speed>
<extensions>
<speed>0.2</speed>
<temp>0.00</temp>
<bpm>0</bpm>
<rpm>0.00</rpm>
</extensions>
</trkpt>
<trkpt lat="30.618680954" lon="34.801651001">
<ele>853.906250</ele>
<time>2013-11-21T14:47:04Z</time>
<speed>0.130000</speed>
<extensions>
<speed>0.1</speed>
<temp>0.00</temp>
<bpm>0</bpm>
<rpm>0.00</rpm>
</extensions>
</trkpt>
<trkpt lat="30.618688583" lon="34.801654816">
<ele>854.000000</ele>
<time>2013-11-21T14:47:09Z</time>
<speed>0.140000</speed>
<extensions>
<speed>0.1</speed>
<temp>0.00</temp>
<bpm>0</bpm>
<rpm>0.00</rpm>
</extensions>
</trkpt>
<trkpt lat="30.618692398" lon="34.801662445">
<ele>854.078125</ele>
<time>2013-11-21T14:47:14Z</time>
<speed>0.230000</speed>
<extensions>
<speed>0.2</speed>
<temp>0.00</temp>
<bpm>0</bpm>
<rpm>0.00</rpm>
</extensions>
</trkpt>
<trkpt lat="30.618698120" lon="34.801662445">
<ele>854.593750</ele>
<time>2013-11-21T14:47:19Z</time>
<speed>0.090000</speed>
<extensions>
<speed>0.1</speed>
<temp>0.00</temp>
<bpm>0</bpm>
<rpm>0.00</rpm>
</extensions>
</trkpt>
<trkpt lat="30.618703842" lon="34.801670074">
<ele>855.046875</ele>
<time>2013-11-21T14:47:24Z</time>
<speed>0.130000</speed>
<extensions>
<speed>0.1</speed>
<temp>0.00</temp>
<bpm>0</bpm>
<rpm>0.00</rpm>
</extensions>
</trkpt>
<trkpt lat="30.618709564" lon="34.801685333">
<ele>855.703125</ele>
<time>2013-11-21T14:47:29Z</time>
<speed>0.310000</speed>
<extensions>
<speed>0.3</speed>
<temp>0.00</temp>
<bpm>0</bpm>
<rpm>0.00</rpm>
</extensions>
</trkpt>
<trkpt lat="30.618707657" lon="34.801689148">
<ele>856.250000</ele>
<time>2013-11-21T14:47:34Z</time>
<speed>0.130000</speed>
<extensions>
<speed>0.1</speed>
<temp>0.00</temp>
<bpm>0</bpm>
<rpm>0.00</rpm>
</extensions>
</trkpt>
<trkpt lat="30.618705750" lon="34.801689148">
<ele>856.312500</ele>
<time>2013-11-21T14:47:39Z</time>
<speed>0.110000</speed>
<extensions>
<speed>0.1</speed>
<temp>0.00</temp>
<bpm>0</bpm>
<rpm>0.00</rpm>
</extensions>
</trkpt>
<trkpt lat="30.618705750" lon="34.801685333">
<ele>856.390625</ele>
<time>2013-11-21T14:47:44Z</time>
<speed>0.250000</speed>
<extensions>
<speed>0.2</speed>
<temp>0.00</temp>
<bpm>0</bpm>
<rpm>0.00</rpm>
</extensions>
</trkpt>
<trkpt lat="30.618700027" lon="34.801689148">
<ele>856.453125</ele>
<time>2013-11-21T14:47:49Z</time>
<speed>0.210000</speed>
<extensions>
<speed>0.2</speed>
<temp>0.00</temp>
<bpm>0</bpm>
<rpm>0.00</rpm>
</extensions>
</trkpt>
<trkpt lat="30.618692398" lon="34.801712036">
<ele>857.046875</ele>
<time>2013-11-21T14:47:54Z</time>
<speed>0.470000</speed>
<extensions>
<speed>0.5</speed>
<temp>0.00</temp>
<bpm>0</bpm>
<rpm>0.00</rpm>
</extensions>
</trkpt>
<trkpt lat="30.618688583" lon="34.801734924">
<ele>858.046875</ele>
<time>2013-11-21T14:47:59Z</time>
<speed>0.260000</speed>
<extensions>
<speed>0.3</speed>
<temp>0.00</temp>
<bpm>0</bpm>
<rpm>0.00</rpm>
</extensions>
</trkpt>
<trkpt lat="30.618680954" lon="34.801738739">
<ele>858.156250</ele>
<time>2013-11-21T14:48:04Z</time>
<speed>0.120000</speed>
<extensions>
<speed>0.1</speed>
<temp>0.00</temp>
<bpm>0</bpm>
<rpm>0.00</rpm>
</extensions>
</trkpt>
<trkpt lat="30.618679047" lon="34.801757813">
<ele>858.265625</ele>
<time>2013-11-21T14:48:09Z</time>
<speed>0.410000</speed>
<extensions>
<speed>0.4</speed>
<temp>0.00</temp>
<bpm>0</bpm>
<rpm>0.00</rpm>
</extensions>
</trkpt>
<trkpt lat="30.618690491" lon="34.801773071">
<ele>858.531250</ele>
<time>2013-11-21T14:48:14Z</time>
<speed>0.200000</speed>
<extensions>
<speed>0.2</speed>
<temp>0.00</temp>
<bpm>0</bpm>
<rpm>0.00</rpm>
</extensions>
</trkpt>
<trkpt lat="30.618690491" lon="34.801784515">
<ele>858.578125</ele>
<time>2013-11-21T14:48:19Z</time>
<speed>0.210000</speed>
<extensions>
<speed>0.2</speed>
<temp>0.00</temp>
<bpm>0</bpm>
<rpm>0.00</rpm>
</extensions>
</trkpt>
<trkpt lat="30.618690491" lon="34.801792145">
<ele>858.609375</ele>
<time>2013-11-21T14:48:24Z</time>
<speed>0.200000</speed>
<extensions>
<speed>0.2</speed>
<temp>0.00</temp>
<bpm>0</bpm>
<rpm>0.00</rpm>
</extensions>
</trkpt>
<trkpt lat="30.618686676" lon="34.801799774">
<ele>859.140625</ele>
<time>2013-11-21T14:48:29Z</time>
<speed>0.100000</speed>
<extensions>
<speed>0.1</speed>
<temp>0.00</temp>
<bpm>0</bpm>
<rpm>0.00</rpm>
</extensions>
</trkpt>
<trkpt lat="30.618680954" lon="34.801795959">
<ele>859.343750</ele>
<time>2013-11-21T14:48:34Z</time>
<speed>0.250000</speed>
<extensions>
<speed>0.2</speed>
<temp>0.00</temp>
<bpm>0</bpm>
<rpm>0.00</rpm>
</extensions>
</trkpt>
<trkpt lat="30.618669510" lon="34.801780701">
<ele>860.296875</ele>
<time>2013-11-21T14:48:39Z</time>
<speed>0.210000</speed>
<extensions>
<speed>0.2</speed>
<temp>0.00</temp>
<bpm>0</bpm>
<rpm>0.00</rpm>
</extensions>
</trkpt>
<trkpt lat="30.618656158" lon="34.801776886">
<ele>860.843750</ele>
<time>2013-11-21T14:48:44Z</time>
<speed>0.280000</speed>
<extensions>
<speed>0.3</speed>
<temp>0.00</temp>
<bpm>0</bpm>
<rpm>0.00</rpm>
</extensions>
</trkpt>
<trkpt lat="30.618621826" lon="34.801799774">
<ele>861.390625</ele>
<time>2013-11-21T14:48:49Z</time>
<speed>0.570000</speed>
<extensions>
<speed>0.6</speed>
<temp>0.00</temp>
<bpm>0</bpm>
<rpm>0.00</rpm>
</extensions>
</trkpt>
<trkpt lat="30.618618011" lon="34.801799774">
<ele>861.359375</ele>
<time>2013-11-21T14:48:54Z</time>
<speed>0.250000</speed>
<extensions>
<speed>0.2</speed>
<temp>0.00</temp>
<bpm>0</bpm>
<rpm>0.00</rpm>
</extensions>
</trkpt>
<trkpt lat="30.618604660" lon="34.801803589">
<ele>861.156250</ele>
<time>2013-11-21T14:48:59Z</time>
<speed>0.490000</speed>
<extensions>
<speed>0.5</speed>
<temp>0.00</temp>
<bpm>0</bpm>
<rpm>0.00</rpm>
</extensions>
</trkpt>
<trkpt lat="30.618577957" lon="34.801830292">
<ele>861.203125</ele>
<time>2013-11-21T14:49:04Z</time>
<speed>0.470000</speed>
<extensions>
<speed>0.5</speed>
<temp>0.00</temp>
<bpm>0</bpm>
<rpm>0.00</rpm>
</extensions>
</trkpt>
<trkpt lat="30.618579865" lon="34.801826477">
<ele>861.531250</ele>
<time>2013-11-21T14:49:09Z</time>
<speed>0.280000</speed>
<extensions>
<speed>0.3</speed>
<temp>0.00</temp>
<bpm>0</bpm>
<rpm>0.00</rpm>
</extensions>
</trkpt>
<trkpt lat="30.618591309" lon="34.801811218">
<ele>861.703125</ele>
<time>2013-11-21T14:49:14Z</time>
<speed>0.030000</speed>
<extensions>
<speed>0.0</speed>
<temp>0.00</temp>
<bpm>0</bpm>
<rpm>0.00</rpm>
</extensions>
</trkpt>
<trkpt lat="30.618591309" lon="34.801807404">
<ele>861.781250</ele>
<time>2013-11-21T14:49:19Z</time>
<speed>0.100000</speed>
<extensions>
<speed>0.1</speed>
<temp>0.00</temp>
<bpm>0</bpm>
<rpm>0.00</rpm>
</extensions>
</trkpt>
<trkpt lat="30.618593216" lon="34.801803589">
<ele>861.859375</ele>
<time>2013-11-21T14:49:24Z</time>
<speed>0.060000</speed>
<extensions>
<speed>0.1</speed>
<temp>0.00</temp>
<bpm>0</bpm>
<rpm>0.00</rpm>
</extensions>
</trkpt>
<trkpt lat="30.618593216" lon="34.801803589">
<ele>861.968750</ele>
<time>2013-11-21T14:49:29Z</time>
<speed>0.080000</speed>
<extensions>
<speed>0.1</speed>
<temp>0.00</temp>
<bpm>0</bpm>
<rpm>0.00</rpm>
</extensions>
</trkpt>
<trkpt lat="30.618593216" lon="34.801807404">
<ele>862.078125</ele>
<time>2013-11-21T14:49:34Z</time>
<speed>0.120000</speed>
<extensions>
<speed>0.1</speed>
<temp>0.00</temp>
<bpm>0</bpm>
<rpm>0.00</rpm>
</extensions>
</trkpt>
<trkpt lat="30.618593216" lon="34.801803589">
<ele>862.109375</ele>
<time>2013-11-21T14:49:39Z</time>
<speed>0.060000</speed>
<extensions>
<speed>0.1</speed>
<temp>0.00</temp>
<bpm>0</bpm>
<rpm>0.00</rpm>
</extensions>
</trkpt>
<trkpt lat="30.618595123" lon="34.801803589">
<ele>862.125000</ele>
<time>2013-11-21T14:49:44Z</time>
<speed>0.140000</speed>
<extensions>
<speed>0.1</speed>
<temp>0.00</temp>
<bpm>0</bpm>
<rpm>0.00</rpm>
</extensions>
</trkpt>
<trkpt lat="30.618589401" lon="34.801799774">
<ele>862.171875</ele>
<time>2013-11-21T14:49:49Z</time>
<speed>0.060000</speed>
<extensions>
<speed>0.1</speed>
<temp>0.00</temp>
<bpm>0</bpm>
<rpm>0.00</rpm>
</extensions>
</trkpt>
<trkpt lat="30.618585587" lon="34.801803589">
<ele>862.218750</ele>
<time>2013-11-21T14:49:54Z</time>
<speed>0.210000</speed>
<extensions>
<speed>0.2</speed>
<temp>0.00</temp>
<bpm>0</bpm>
<rpm>0.00</rpm>
</extensions>
</trkpt>
<trkpt lat="30.618577957" lon="34.801803589">
<ele>862.265625</ele>
<time>2013-11-21T14:49:59Z</time>
<speed>0.120000</speed>
<extensions>
<speed>0.1</speed>
<temp>0.00</temp>
<bpm>0</bpm>
<rpm>0.00</rpm>
</extensions>
</trkpt>
<trkpt lat="30.618572235" lon="34.801803589">
<ele>862.312500</ele>
<time>2013-11-21T14:50:04Z</time>
<speed>0.110000</speed>
<extensions>
<speed>0.1</speed>
<temp>0.00</temp>
<bpm>0</bpm>
<rpm>0.00</rpm>
</extensions>
</trkpt>
<trkpt lat="30.618568420" lon="34.801795959">
<ele>862.359375</ele>
<time>2013-11-21T14:50:09Z</time>
<speed>0.130000</speed>
<extensions>
<speed>0.1</speed>
<temp>0.00</temp>
<bpm>0</bpm>
<rpm>0.00</rpm>
</extensions>
</trkpt>
<trkpt lat="30.618568420" lon="34.801792145">
<ele>862.421875</ele>
<time>2013-11-21T14:50:14Z</time>
<speed>0.030000</speed>
<extensions>
<speed>0.0</speed>
<temp>0.00</temp>
<bpm>0</bpm>
<rpm>0.00</rpm>
</extensions>
</trkpt>
<trkpt lat="30.618566513" lon="34.801792145">
<ele>862.468750</ele>
<time>2013-11-21T14:50:19Z</time>
<speed>0.120000</speed>
<extensions>
<speed>0.1</speed>
<temp>0.00</temp>
<bpm>0</bpm>
<rpm>0.00</rpm>
</extensions>
</trkpt>
<trkpt lat="30.618566513" lon="34.801795959">
<ele>862.531250</ele>
<time>2013-11-21T14:50:24Z</time>
<speed>0.080000</speed>
<extensions>
<speed>0.1</speed>
<temp>0.00</temp>
<bpm>0</bpm>
<rpm>0.00</rpm>
</extensions>
</trkpt>
<trkpt lat="30.618572235" lon="34.801792145">
<ele>862.609375</ele>
<time>2013-11-21T14:50:29Z</time>
<speed>0.140000</speed>
<extensions>
<speed>0.1</speed>
<temp>0.00</temp>
<bpm>0</bpm>
<rpm>0.00</rpm>
</extensions>
</trkpt>
<trkpt lat="30.618576050" lon="34.801788330">
<ele>862.734375</ele>
<time>2013-11-21T14:50:34Z</time>
<speed>0.080000</speed>
<extensions>
<speed>0.1</speed>
<temp>0.00</temp>
<bpm>0</bpm>
<rpm>0.00</rpm>
</extensions>
</trkpt>
<trkpt lat="30.618581772" lon="34.801788330">
<ele>862.812500</ele>
<time>2013-11-21T14:50:39Z</time>
<speed>0.070000</speed>
<extensions>
<speed>0.1</speed>
<temp>0.00</temp>
<bpm>0</bpm>
<rpm>0.00</rpm>
</extensions>
</trkpt>
<trkpt lat="30.618581772" lon="34.801788330">
<ele>862.875000</ele>
<time>2013-11-21T14:50:44Z</time>
<speed>0.140000</speed>
<extensions>
<speed>0.1</speed>
<temp>0.00</temp>
<bpm>0</bpm>
<rpm>0.00</rpm>
</extensions>
</trkpt>
<trkpt lat="30.618585587" lon="34.801792145">
<ele>862.953125</ele>
<time>2013-11-21T14:50:49Z</time>
<speed>0.040000</speed>
<extensions>
<speed>0.0</speed>
<temp>0.00</temp>
<bpm>0</bpm>
<rpm>0.00</rpm>
</extensions>
</trkpt>
<trkpt lat="30.618587494" lon="34.801792145">
<ele>863.031250</ele>
<time>2013-11-21T14:50:54Z</time>
<speed>0.040000</speed>
<extensions>
<speed>0.0</speed>
<temp>0.00</temp>
<bpm>0</bpm>
<rpm>0.00</rpm>
</extensions>
</trkpt>
<trkpt lat="30.618581772" lon="34.801799774">
<ele>863.078125</ele>
<time>2013-11-21T14:50:59Z</time>
<speed>0.290000</speed>
<extensions>
<speed>0.3</speed>
<temp>0.00</temp>
<bpm>0</bpm>
<rpm>0.00</rpm>
</extensions>
</trkpt>
<trkpt lat="30.618574142" lon="34.801807404">
<ele>863.078125</ele>
<time>2013-11-21T14:51:04Z</time>
<speed>0.210000</speed>
<extensions>
<speed>0.2</speed>
<temp>0.00</temp>
<bpm>0</bpm>
<rpm>0.00</rpm>
</extensions>
</trkpt>
<trkpt lat="30.618560791" lon="34.801811218">
<ele>863.187500</ele>
<time>2013-11-21T14:51:09Z</time>
<speed>0.060000</speed>
<extensions>
<speed>0.1</speed>
<temp>0.00</temp>
<bpm>0</bpm>
<rpm>0.00</rpm>
</extensions>
</trkpt>
<trkpt lat="30.618558884" lon="34.801811218">
<ele>863.234375</ele>
<time>2013-11-21T14:51:14Z</time>
<speed>0.090000</speed>
<extensions>
<speed>0.1</speed>
<temp>0.00</temp>
<bpm>0</bpm>
<rpm>0.00</rpm>
</extensions>
</trkpt>
<trkpt lat="30.618556976" lon="34.801811218">
<ele>863.250000</ele>
<time>2013-11-21T14:51:19Z</time>
<speed>0.050000</speed>
<extensions>
<speed>0.1</speed>
<temp>0.00</temp>
<bpm>0</bpm>
<rpm>0.00</rpm>
</extensions>
</trkpt>
<trkpt lat="30.618553162" lon="34.801811218">
<ele>863.281250</ele>
<time>2013-11-21T14:51:24Z</time>
<speed>0.120000</speed>
<extensions>
<speed>0.1</speed>
<temp>0.00</temp>
<bpm>0</bpm>
<rpm>0.00</rpm>
</extensions>
</trkpt>
<trkpt lat="30.618551254" lon="34.801807404">
<ele>863.296875</ele>
<time>2013-11-21T14:51:29Z</time>
<speed>0.130000</speed>
<extensions>
<speed>0.1</speed>
<temp>0.00</temp>
<bpm>0</bpm>
<rpm>0.00</rpm>
</extensions>
</trkpt>
<trkpt lat="30.618553162" lon="34.801803589">
<ele>863.296875</ele>
<time>2013-11-21T14:51:34Z</time>
<speed>0.080000</speed>
<extensions>
<speed>0.1</speed>
<temp>0.00</temp>
<bpm>0</bpm>
<rpm>0.00</rpm>
</extensions>
</trkpt>
<trkpt lat="30.618551254" lon="34.801803589">
<ele>863.281250</ele>
<time>2013-11-21T14:51:39Z</time>
<speed>0.150000</speed>
<extensions>
<speed>0.2</speed>
<temp>0.00</temp>
<bpm>0</bpm>
<rpm>0.00</rpm>
</extensions>
</trkpt>
<trkpt lat="30.618551254" lon="34.801803589">
<ele>863.265625</ele>
<time>2013-11-21T14:51:44Z</time>
<speed>0.070000</speed>
<extensions>
<speed>0.1</speed>
<temp>0.00</temp>
<bpm>0</bpm>
<rpm>0.00</rpm>
</extensions>
</trkpt>
<trkpt lat="30.618545532" lon="34.801807404">
<ele>863.250000</ele>
<time>2013-11-21T14:51:49Z</time>
<speed>0.130000</speed>
<extensions>
<speed>0.1</speed>
<temp>0.00</temp>
<bpm>0</bpm>
<rpm>0.00</rpm>
</extensions>
</trkpt>
<trkpt lat="30.618543625" lon="34.801811218">
<ele>863.265625</ele>
<time>2013-11-21T14:51:54Z</time>
<speed>0.120000</speed>
<extensions>
<speed>0.1</speed>
<temp>0.00</temp>
<bpm>0</bpm>
<rpm>0.00</rpm>
</extensions>
</trkpt>
<trkpt lat="30.618541718" lon="34.801811218">
<ele>863.312500</ele>
<time>2013-11-21T14:51:59Z</time>
<speed>0.170000</speed>
<extensions>
<speed>0.2</speed>
<temp>0.00</temp>
<bpm>0</bpm>
<rpm>0.00</rpm>
</extensions>
</trkpt>
<trkpt lat="30.618537903" lon="34.801818848">
<ele>863.343750</ele>
<time>2013-11-21T14:52:04Z</time>
<speed>0.140000</speed>
<extensions>
<speed>0.1</speed>
<temp>0.00</temp>
<bpm>0</bpm>
<rpm>0.00</rpm>
</extensions>
</trkpt>
<trkpt lat="30.618535995" lon="34.801815033">
<ele>863.343750</ele>
<time>2013-11-21T14:52:09Z</time>
<speed>0.050000</speed>
<extensions>
<speed>0.1</speed>
<temp>0.00</temp>
<bpm>0</bpm>
<rpm>0.00</rpm>
</extensions>
</trkpt>
<trkpt lat="30.618539810" lon="34.801807404">
<ele>863.359375</ele>
<time>2013-11-21T14:52:14Z</time>
<speed>0.160000</speed>
<extensions>
<speed>0.2</speed>
<temp>0.00</temp>
<bpm>0</bpm>
<rpm>0.00</rpm>
</extensions>
</trkpt>
<trkpt lat="30.618543625" lon="34.801807404">
<ele>863.359375</ele>
<time>2013-11-21T14:52:19Z</time>
<speed>0.010000</speed>
<extensions>
<speed>0.0</speed>
<temp>0.00</temp>
<bpm>0</bpm>
<rpm>0.00</rpm>
</extensions>
</trkpt>
<trkpt lat="30.618541718" lon="34.801807404">
<ele>863.328125</ele>
<time>2013-11-21T14:52:24Z</time>
<speed>0.050000</speed>
<extensions>
<speed>0.1</speed>
<temp>0.00</temp>
<bpm>0</bpm>
<rpm>0.00</rpm>
</extensions>
</trkpt>
<trkpt lat="30.618541718" lon="34.801803589">
<ele>863.312500</ele>
<time>2013-11-21T14:52:29Z</time>
<speed>0.120000</speed>
<extensions>
<speed>0.1</speed>
<temp>0.00</temp>
<bpm>0</bpm>
<rpm>0.00</rpm>
</extensions>
</trkpt>
<trkpt lat="30.618539810" lon="34.801803589">
<ele>863.343750</ele>
<time>2013-11-21T14:52:34Z</time>
<speed>0.040000</speed>
<extensions>
<speed>0.0</speed>
<temp>0.00</temp>
<bpm>0</bpm>
<rpm>0.00</rpm>
</extensions>
</trkpt>
<trkpt lat="30.618535995" lon="34.801807404">
<ele>863.328125</ele>
<time>2013-11-21T14:52:39Z</time>
<speed>0.200000</speed>
<extensions>
<speed>0.2</speed>
<temp>0.00</temp>
<bpm>0</bpm>
<rpm>0.00</rpm>
</extensions>
</trkpt>
<trkpt lat="30.618526459" lon="34.801811218">
<ele>863.359375</ele>
<time>2013-11-21T14:52:44Z</time>
<speed>0.190000</speed>
<extensions>
<speed>0.2</speed>
<temp>0.00</temp>
<bpm>0</bpm>
<rpm>0.00</rpm>
</extensions>
</trkpt>
<trkpt lat="30.618522644" lon="34.801818848">
<ele>863.375000</ele>
<time>2013-11-21T14:52:49Z</time>
<speed>0.210000</speed>
<extensions>
<speed>0.2</speed>
<temp>0.00</temp>
<bpm>0</bpm>
<rpm>0.00</rpm>
</extensions>
</trkpt>
<trkpt lat="30.618522644" lon="34.801818848">
<ele>863.406250</ele>
<time>2013-11-21T14:52:54Z</time>
<speed>0.170000</speed>
<extensions>
<speed>0.2</speed>
<temp>0.00</temp>
<bpm>0</bpm>
<rpm>0.00</rpm>
</extensions>
</trkpt>
<trkpt lat="30.618524551" lon="34.801815033">
<ele>863.421875</ele>
<time>2013-11-21T14:52:59Z</time>
<speed>0.300000</speed>
<extensions>
<speed>0.3</speed>
<temp>0.00</temp>
<bpm>0</bpm>
<rpm>0.00</rpm>
</extensions>
</trkpt>
<trkpt lat="30.618549347" lon="34.801784515">
<ele>863.062500</ele>
<time>2013-11-21T14:53:04Z</time>
<speed>0.330000</speed>
<extensions>
<speed>0.3</speed>
<temp>0.00</temp>
<bpm>0</bpm>
<rpm>0.00</rpm>
</extensions>
</trkpt>
<trkpt lat="30.618574142" lon="34.801746368">
<ele>862.890625</ele>
<time>2013-11-21T14:53:09Z</time>
<speed>0.380000</speed>
<extensions>
<speed>0.4</speed>
<temp>0.00</temp>
<bpm>0</bpm>
<rpm>0.00</rpm>
</extensions>
</trkpt>
<trkpt lat="30.618577957" lon="34.801750183">
<ele>862.921875</ele>
<time>2013-11-21T14:53:14Z</time>
<speed>0.150000</speed>
<extensions>
<speed>0.2</speed>
<temp>0.00</temp>
<bpm>0</bpm>
<rpm>0.00</rpm>
</extensions>
</trkpt>
<trkpt lat="30.618579865" lon="34.801750183">
<ele>862.984375</ele>
<time>2013-11-21T14:53:19Z</time>
<speed>0.040000</speed>
<extensions>
<speed>0.0</speed>
<temp>0.00</temp>
<bpm>0</bpm>
<rpm>0.00</rpm>
</extensions>
</trkpt>
<trkpt lat="30.618581772" lon="34.801750183">
<ele>863.062500</ele>
<time>2013-11-21T14:53:24Z</time>
<speed>0.130000</speed>
<extensions>
<speed>0.1</speed>
<temp>0.00</temp>
<bpm>0</bpm>
<rpm>0.00</rpm>
</extensions>
</trkpt>
<trkpt lat="30.618589401" lon="34.801750183">
<ele>863.156250</ele>
<time>2013-11-21T14:53:29Z</time>
<speed>0.140000</speed>
<extensions>
<speed>0.1</speed>
<temp>0.00</temp>
<bpm>0</bpm>
<rpm>0.00</rpm>
</extensions>
</trkpt>
<trkpt lat="30.618595123" lon="34.801750183">
<ele>863.281250</ele>
<time>2013-11-21T14:53:34Z</time>
<speed>0.130000</speed>
<extensions>
<speed>0.1</speed>
<temp>0.00</temp>
<bpm>0</bpm>
<rpm>0.00</rpm>
</extensions>
</trkpt>
<trkpt lat="30.618600845" lon="34.801750183">
<ele>863.437500</ele>
<time>2013-11-21T14:53:39Z</time>
<speed>0.090000</speed>
<extensions>
<speed>0.1</speed>
<temp>0.00</temp>
<bpm>0</bpm>
<rpm>0.00</rpm>
</extensions>
</trkpt>
<trkpt lat="30.618602753" lon="34.801750183">
<ele>863.656250</ele>
<time>2013-11-21T14:53:44Z</time>
<speed>0.080000</speed>
<extensions>
<speed>0.1</speed>
<temp>0.00</temp>
<bpm>0</bpm>
<rpm>0.00</rpm>
</extensions>
</trkpt>
<trkpt lat="30.618602753" lon="34.801746368">
<ele>863.937500</ele>
<time>2013-11-21T14:53:49Z</time>
<speed>0.120000</speed>
<extensions>
<speed>0.1</speed>
<temp>0.00</temp>
<bpm>0</bpm>
<rpm>0.00</rpm>
</extensions>
</trkpt>
<trkpt lat="30.618604660" lon="34.801738739">
<ele>864.281250</ele>
<time>2013-11-21T14:53:54Z</time>
<speed>0.130000</speed>
<extensions>
<speed>0.1</speed>
<temp>0.00</temp>
<bpm>0</bpm>
<rpm>0.00</rpm>
</extensions>
</trkpt>
<trkpt lat="30.618606567" lon="34.801734924">
<ele>864.640625</ele>
<time>2013-11-21T14:53:59Z</time>
<speed>0.120000</speed>
<extensions>
<speed>0.1</speed>
<temp>0.00</temp>
<bpm>0</bpm>
<rpm>0.00</rpm>
</extensions>
</trkpt>
<trkpt lat="30.618610382" lon="34.801727295">
<ele>865.031250</ele>
<time>2013-11-21T14:54:04Z</time>
<speed>0.120000</speed>
<extensions>
<speed>0.1</speed>
<temp>0.00</temp>
<bpm>0</bpm>
<rpm>0.00</rpm>
</extensions>
</trkpt>
<trkpt lat="30.618616104" lon="34.801723480">
<ele>865.500000</ele>
<time>2013-11-21T14:54:09Z</time>
<speed>0.180000</speed>
<extensions>
<speed>0.2</speed>
<temp>0.00</temp>
<bpm>0</bpm>
<rpm>0.00</rpm>
</extensions>
</trkpt>
<trkpt lat="30.618623734" lon="34.801719666">
<ele>865.984375</ele>
<time>2013-11-21T14:54:14Z</time>
<speed>0.170000</speed>
<extensions>
<speed>0.2</speed>
<temp>0.00</temp>
<bpm>0</bpm>
<rpm>0.00</rpm>
</extensions>
</trkpt>
<trkpt lat="30.618631363" lon="34.801712036">
<ele>866.468750</ele>
<time>2013-11-21T14:54:19Z</time>
<speed>0.280000</speed>
<extensions>
<speed>0.3</speed>
<temp>0.00</temp>
<bpm>0</bpm>
<rpm>0.00</rpm>
</extensions>
</trkpt>
<trkpt lat="30.618640900" lon="34.801708221">
<ele>867.031250</ele>
<time>2013-11-21T14:54:24Z</time>
<speed>0.210000</speed>
<extensions>
<speed>0.2</speed>
<temp>0.00</temp>
<bpm>0</bpm>
<rpm>0.00</rpm>
</extensions>
</trkpt>
<trkpt lat="30.618650436" lon="34.801708221">
<ele>867.593750</ele>
<time>2013-11-21T14:54:29Z</time>
<speed>0.160000</speed>
<extensions>
<speed>0.2</speed>
<temp>0.00</temp>
<bpm>0</bpm>
<rpm>0.00</rpm>
</extensions>
</trkpt>
<trkpt lat="30.618658066" lon="34.801708221">
<ele>868.109375</ele>
<time>2013-11-21T14:54:34Z</time>
<speed>0.160000</speed>
<extensions>
<speed>0.2</speed>
<temp>0.00</temp>
<bpm>0</bpm>
<rpm>0.00</rpm>
</extensions>
</trkpt>
<trkpt lat="30.618659973" lon="34.801700592">
<ele>868.609375</ele>
<time>2013-11-21T14:54:39Z</time>
<speed>0.080000</speed>
<extensions>
<speed>0.1</speed>
<temp>0.00</temp>
<bpm>0</bpm>
<rpm>0.00</rpm>
</extensions>
</trkpt>
<trkpt lat="30.618659973" lon="34.801696777">
<ele>869.093750</ele>
<time>2013-11-21T14:54:44Z</time>
<speed>0.060000</speed>
<extensions>
<speed>0.1</speed>
<temp>0.00</temp>
<bpm>0</bpm>
<rpm>0.00</rpm>
</extensions>
</trkpt>
<trkpt lat="30.618661880" lon="34.801689148">
<ele>869.531250</ele>
<time>2013-11-21T14:54:49Z</time>
<speed>0.160000</speed>
<extensions>
<speed>0.2</speed>
<temp>0.00</temp>
<bpm>0</bpm>
<rpm>0.00</rpm>
</extensions>
</trkpt>
<trkpt lat="30.618667603" lon="34.801677704">
<ele>869.890625</ele>
<time>2013-11-21T14:54:54Z</time>
<speed>0.270000</speed>
<extensions>
<speed>0.3</speed>
<temp>0.00</temp>
<bpm>0</bpm>
<rpm>0.00</rpm>
</extensions>
</trkpt>
<trkpt lat="30.618673325" lon="34.801670074">
<ele>870.125000</ele>
<time>2013-11-21T14:54:59Z</time>
<speed>0.140000</speed>
<extensions>
<speed>0.1</speed>
<temp>0.00</temp>
<bpm>0</bpm>
<rpm>0.00</rpm>
</extensions>
</trkpt>
<trkpt lat="30.618675232" lon="34.801666260">
<ele>870.187500</ele>
<time>2013-11-21T14:55:04Z</time>
<speed>0.040000</speed>
<extensions>
<speed>0.0</speed>
<temp>0.00</temp>
<bpm>0</bpm>
<rpm>0.00</rpm>
</extensions>
</trkpt>
<trkpt lat="30.618673325" lon="34.801666260">
<ele>870.140625</ele>
<time>2013-11-21T14:55:09Z</time>
<speed>0.120000</speed>
<extensions>
<speed>0.1</speed>
<temp>0.00</temp>
<bpm>0</bpm>
<rpm>0.00</rpm>
</extensions>
</trkpt>
<trkpt lat="30.618665695" lon="34.801670074">
<ele>869.859375</ele>
<time>2013-11-21T14:55:14Z</time>
<speed>0.140000</speed>
<extensions>
<speed>0.1</speed>
<temp>0.00</temp>
<bpm>0</bpm>
<rpm>0.00</rpm>
</extensions>
</trkpt>
<trkpt lat="30.618663788" lon="34.801673889">
<ele>869.421875</ele>
<time>2013-11-21T14:55:19Z</time>
<speed>0.090000</speed>
<extensions>
<speed>0.1</speed>
<temp>0.00</temp>
<bpm>0</bpm>
<rpm>0.00</rpm>
</extensions>
</trkpt>
<trkpt lat="30.618661880" lon="34.801673889">
<ele>868.765625</ele>
<time>2013-11-21T14:55:24Z</time>
<speed>0.040000</speed>
<extensions>
<speed>0.0</speed>
<temp>0.00</temp>
<bpm>0</bpm>
<rpm>0.00</rpm>
</extensions>
</trkpt>
<trkpt lat="30.618658066" lon="34.801677704">
<ele>867.984375</ele>
<time>2013-11-21T14:55:29Z</time>
<speed>0.010000</speed>
<extensions>
<speed>0.0</speed>
<temp>0.00</temp>
<bpm>0</bpm>
<rpm>0.00</rpm>
</extensions>
</trkpt>
<trkpt lat="30.618658066" lon="34.801673889">
<ele>867.734375</ele>
<time>2013-11-21T14:55:34Z</time>
<speed>0.030000</speed>
<extensions>
<speed>0.0</speed>
<temp>0.00</temp>
<bpm>0</bpm>
<rpm>0.00</rpm>
</extensions>
</trkpt>
<trkpt lat="30.618658066" lon="34.801673889">
<ele>867.687500</ele>
<time>2013-11-21T14:55:39Z</time>
<speed>0.030000</speed>
<extensions>
<speed>0.0</speed>
<temp>0.00</temp>
<bpm>0</bpm>
<rpm>0.00</rpm>
</extensions>
</trkpt>
<trkpt lat="30.618658066" lon="34.801673889">
<ele>867.640625</ele>
<time>2013-11-21T14:55:44Z</time>
<speed>0.010000</speed>
<extensions>
<speed>0.0</speed>
<temp>0.00</temp>
<bpm>0</bpm>
<rpm>0.00</rpm>
</extensions>
</trkpt>
<trkpt lat="30.618658066" lon="34.801677704">
<ele>867.578125</ele>
<time>2013-11-21T14:55:49Z</time>
<speed>0.010000</speed>
<extensions>
<speed>0.0</speed>
<temp>0.00</temp>
<bpm>0</bpm>
<rpm>0.00</rpm>
</extensions>
</trkpt>
<trkpt lat="30.618658066" lon="34.801677704">
<ele>867.515625</ele>
<time>2013-11-21T14:55:54Z</time>
<speed>0.010000</speed>
<extensions>
<speed>0.0</speed>
<temp>0.00</temp>
<bpm>0</bpm>
<rpm>0.00</rpm>
</extensions>
</trkpt>
<trkpt lat="30.618658066" lon="34.801677704">
<ele>867.453125</ele>
<time>2013-11-21T14:55:59Z</time>
<speed>0.020000</speed>
<extensions>
<speed>0.0</speed>
<temp>0.00</temp>
<bpm>0</bpm>
<rpm>0.00</rpm>
</extensions>
</trkpt>
<trkpt lat="30.618658066" lon="34.801677704">
<ele>867.390625</ele>
<time>2013-11-21T14:56:04Z</time>
<speed>0.020000</speed>
<extensions>
<speed>0.0</speed>
<temp>0.00</temp>
<bpm>0</bpm>
<rpm>0.00</rpm>
</extensions>
</trkpt>
<trkpt lat="30.618658066" lon="34.801677704">
<ele>867.296875</ele>
<time>2013-11-21T14:56:09Z</time>
<extensions>
<speed>0.0</speed>
<temp>0.00</temp>
<bpm>0</bpm>
<rpm>0.00</rpm>
</extensions>
</trkpt>
<trkpt lat="30.618659973" lon="34.801677704">
<ele>867.203125</ele>
<time>2013-11-21T14:56:14Z</time>
<speed>0.010000</speed>
<extensions>
<speed>0.0</speed>
<temp>0.00</temp>
<bpm>0</bpm>
<rpm>0.00</rpm>
</extensions>
</trkpt>
<trkpt lat="30.618659973" lon="34.801677704">
<ele>867.125000</ele>
<time>2013-11-21T14:56:19Z</time>
<speed>0.020000</speed>
<extensions>
<speed>0.0</speed>
<temp>0.00</temp>
<bpm>0</bpm>
<rpm>0.00</rpm>
</extensions>
</trkpt>
<trkpt lat="30.618659973" lon="34.801677704">
<ele>867.062500</ele>
<time>2013-11-21T14:56:24Z</time>
<speed>0.010000</speed>
<extensions>
<speed>0.0</speed>
<temp>0.00</temp>
<bpm>0</bpm>
<rpm>0.00</rpm>
</extensions>
</trkpt>
<trkpt lat="30.618659973" lon="34.801677704">
<ele>867.000000</ele>
<time>2013-11-21T14:56:29Z</time>
<extensions>
<speed>0.0</speed>
<temp>0.00</temp>
<bpm>0</bpm>
<rpm>0.00</rpm>
</extensions>
</trkpt>
<trkpt lat="30.618659973" lon="34.801677704">
<ele>866.906250</ele>
<time>2013-11-21T14:56:34Z</time>
<speed>0.020000</speed>
<extensions>
<speed>0.0</speed>
<temp>0.00</temp>
<bpm>0</bpm>
<rpm>0.00</rpm>
</extensions>
</trkpt>
<trkpt lat="30.618659973" lon="34.801673889">
<ele>866.859375</ele>
<time>2013-11-21T14:56:39Z</time>
<speed>0.010000</speed>
<extensions>
<speed>0.0</speed>
<temp>0.00</temp>
<bpm>0</bpm>
<rpm>0.00</rpm>
</extensions>
</trkpt>
<trkpt lat="30.618659973" lon="34.801673889">
<ele>866.812500</ele>
<time>2013-11-21T14:56:44Z</time>
<speed>0.030000</speed>
<extensions>
<speed>0.0</speed>
<temp>0.00</temp>
<bpm>0</bpm>
<rpm>0.00</rpm>
</extensions>
</trkpt>
<trkpt lat="30.618659973" lon="34.801673889">
<ele>866.734375</ele>
<time>2013-11-21T14:56:49Z</time>
<speed>0.030000</speed>
<extensions>
<speed>0.0</speed>
<temp>0.00</temp>
<bpm>0</bpm>
<rpm>0.00</rpm>
</extensions>
</trkpt>
<trkpt lat="30.618659973" lon="34.801673889">
<ele>866.656250</ele>
<time>2013-11-21T14:56:54Z</time>
<speed>0.020000</speed>
<extensions>
<speed>0.0</speed>
<temp>0.00</temp>
<bpm>0</bpm>
<rpm>0.00</rpm>
</extensions>
</trkpt>
<trkpt lat="30.618659973" lon="34.801673889">
<ele>866.531250</ele>
<time>2013-11-21T14:56:59Z</time>
<speed>0.020000</speed>
<extensions>
<speed>0.0</speed>
<temp>0.00</temp>
<bpm>0</bpm>
<rpm>0.00</rpm>
</extensions>
</trkpt>
<trkpt lat="30.618659973" lon="34.801673889">
<ele>866.453125</ele>
<time>2013-11-21T14:57:04Z</time>
<speed>0.020000</speed>
<extensions>
<speed>0.0</speed>
<temp>0.00</temp>
<bpm>0</bpm>
<rpm>0.00</rpm>
</extensions>
</trkpt>
<trkpt lat="30.618659973" lon="34.801673889">
<ele>866.375000</ele>
<time>2013-11-21T14:57:09Z</time>
<speed>0.040000</speed>
<extensions>
<speed>0.0</speed>
<temp>0.00</temp>
<bpm>0</bpm>
<rpm>0.00</rpm>
</extensions>
</trkpt>
<trkpt lat="30.618661880" lon="34.801673889">
<ele>866.281250</ele>
<time>2013-11-21T14:57:14Z</time>
<speed>0.040000</speed>
<extensions>
<speed>0.0</speed>
<temp>0.00</temp>
<bpm>0</bpm>
<rpm>0.00</rpm>
</extensions>
</trkpt>
<trkpt lat="30.618661880" lon="34.801670074">
<ele>866.187500</ele>
<time>2013-11-21T14:57:19Z</time>
<speed>0.040000</speed>
<extensions>
<speed>0.0</speed>
<temp>0.00</temp>
<bpm>0</bpm>
<rpm>0.00</rpm>
</extensions>
</trkpt>
<trkpt lat="30.618663788" lon="34.801670074">
<ele>866.109375</ele>
<time>2013-11-21T14:57:24Z</time>
<speed>0.030000</speed>
<extensions>
<speed>0.0</speed>
<temp>0.00</temp>
<bpm>0</bpm>
<rpm>0.00</rpm>
</extensions>
</trkpt>
<trkpt lat="30.618663788" lon="34.801670074">
<ele>866.031250</ele>
<time>2013-11-21T14:57:29Z</time>
<speed>0.040000</speed>
<extensions>
<speed>0.0</speed>
<temp>0.00</temp>
<bpm>0</bpm>
<rpm>0.00</rpm>
</extensions>
</trkpt>
<trkpt lat="30.618663788" lon="34.801670074">
<ele>865.968750</ele>
<time>2013-11-21T14:57:34Z</time>
<speed>0.020000</speed>
<extensions>
<speed>0.0</speed>
<temp>0.00</temp>
<bpm>0</bpm>
<rpm>0.00</rpm>
</extensions>
</trkpt>
<trkpt lat="30.618663788" lon="34.801670074">
<ele>865.890625</ele>
<time>2013-11-21T14:57:39Z</time>
<speed>0.040000</speed>
<extensions>
<speed>0.0</speed>
<temp>0.00</temp>
<bpm>0</bpm>
<rpm>0.00</rpm>
</extensions>
</trkpt>
<trkpt lat="30.618663788" lon="34.801670074">
<ele>865.828125</ele>
<time>2013-11-21T14:57:44Z</time>
<speed>0.010000</speed>
<extensions>
<speed>0.0</speed>
<temp>0.00</temp>
<bpm>0</bpm>
<rpm>0.00</rpm>
</extensions>
</trkpt>
<trkpt lat="30.618663788" lon="34.801670074">
<ele>865.750000</ele>
<time>2013-11-21T14:57:49Z</time>
<extensions>
<speed>0.0</speed>
<temp>0.00</temp>
<bpm>0</bpm>
<rpm>0.00</rpm>
</extensions>
</trkpt>
<trkpt lat="30.618663788" lon="34.801670074">
<ele>865.718750</ele>
<time>2013-11-21T14:57:54Z</time>
<speed>0.010000</speed>
<extensions>
<speed>0.0</speed>
<temp>0.00</temp>
<bpm>0</bpm>
<rpm>0.00</rpm>
</extensions>
</trkpt>
<trkpt lat="30.618663788" lon="34.801666260">
<ele>865.703125</ele>
<time>2013-11-21T14:57:59Z</time>
<speed>0.010000</speed>
<extensions>
<speed>0.0</speed>
<temp>0.00</temp>
<bpm>0</bpm>
<rpm>0.00</rpm>
</extensions>
</trkpt>
<trkpt lat="30.618663788" lon="34.801666260">
<ele>865.656250</ele>
<time>2013-11-21T14:58:04Z</time>
<extensions>
<speed>0.0</speed>
<temp>0.00</temp>
<bpm>0</bpm>
<rpm>0.00</rpm>
</extensions>
</trkpt>
<trkpt lat="30.618663788" lon="34.801666260">
<ele>865.656250</ele>
<time>2013-11-21T14:58:09Z</time>
<speed>0.020000</speed>
<extensions>
<speed>0.0</speed>
<temp>0.00</temp>
<bpm>0</bpm>
<rpm>0.00</rpm>
</extensions>
</trkpt>
<trkpt lat="30.618663788" lon="34.801666260">
<ele>865.625000</ele>
<time>2013-11-21T14:58:14Z</time>
<extensions>
<speed>0.0</speed>
<temp>0.00</temp>
<bpm>0</bpm>
<rpm>0.00</rpm>
</extensions>
</trkpt>
<trkpt lat="30.618663788" lon="34.801666260">
<ele>865.640625</ele>
<time>2013-11-21T14:58:19Z</time>
<speed>0.020000</speed>
<extensions>
<speed>0.0</speed>
<temp>0.00</temp>
<bpm>0</bpm>
<rpm>0.00</rpm>
</extensions>
</trkpt>
<trkpt lat="30.618665695" lon="34.801666260">
<ele>865.656250</ele>
<time>2013-11-21T14:58:24Z</time>
<speed>0.010000</speed>
<extensions>
<speed>0.0</speed>
<temp>0.00</temp>
<bpm>0</bpm>
<rpm>0.00</rpm>
</extensions>
</trkpt>
<trkpt lat="30.618665695" lon="34.801666260">
<ele>865.687500</ele>
<time>2013-11-21T14:58:29Z</time>
<speed>0.010000</speed>
<extensions>
<speed>0.0</speed>
<temp>0.00</temp>
<bpm>0</bpm>
<rpm>0.00</rpm>
</extensions>
</trkpt>
<trkpt lat="30.618665695" lon="34.801666260">
<ele>865.718750</ele>
<time>2013-11-21T14:58:34Z</time>
<speed>0.020000</speed>
<extensions>
<speed>0.0</speed>
<temp>0.00</temp>
<bpm>0</bpm>
<rpm>0.00</rpm>
</extensions>
</trkpt>
<trkpt lat="30.618665695" lon="34.801666260">
<ele>865.734375</ele>
<time>2013-11-21T14:58:39Z</time>
<speed>0.010000</speed>
<extensions>
<speed>0.0</speed>
<temp>0.00</temp>
<bpm>0</bpm>
<rpm>0.00</rpm>
</extensions>
</trkpt>
<trkpt lat="30.618667603" lon="34.801666260">
<ele>865.765625</ele>
<time>2013-11-21T14:58:44Z</time>
<speed>0.010000</speed>
<extensions>
<speed>0.0</speed>
<temp>0.00</temp>
<bpm>0</bpm>
<rpm>0.00</rpm>
</extensions>
</trkpt>
<trkpt lat="30.618667603" lon="34.801666260">
<ele>865.812500</ele>
<time>2013-11-21T14:58:49Z</time>
<speed>0.010000</speed>
<extensions>
<speed>0.0</speed>
<temp>0.00</temp>
<bpm>0</bpm>
<rpm>0.00</rpm>
</extensions>
</trkpt>
<trkpt lat="30.618667603" lon="34.801666260">
<ele>865.828125</ele>
<time>2013-11-21T14:58:54Z</time>
<speed>0.030000</speed>
<extensions>
<speed>0.0</speed>
<temp>0.00</temp>
<bpm>0</bpm>
<rpm>0.00</rpm>
</extensions>
</trkpt>
<trkpt lat="30.618667603" lon="34.801666260">
<ele>865.859375</ele>
<time>2013-11-21T14:58:59Z</time>
<speed>0.010000</speed>
<extensions>
<speed>0.0</speed>
<temp>0.00</temp>
<bpm>0</bpm>
<rpm>0.00</rpm>
</extensions>
</trkpt>
<trkpt lat="30.618667603" lon="34.801666260">
<ele>865.890625</ele>
<time>2013-11-21T14:59:04Z</time>
<speed>0.020000</speed>
<extensions>
<speed>0.0</speed>
<temp>0.00</temp>
<bpm>0</bpm>
<rpm>0.00</rpm>
</extensions>
</trkpt>
<trkpt lat="30.618667603" lon="34.801670074">
<ele>865.906250</ele>
<time>2013-11-21T14:59:09Z</time>
<extensions>
<speed>0.0</speed>
<temp>0.00</temp>
<bpm>0</bpm>
<rpm>0.00</rpm>
</extensions>
</trkpt>
<trkpt lat="30.618667603" lon="34.801670074">
<ele>865.921875</ele>
<time>2013-11-21T14:59:14Z</time>
<speed>0.010000</speed>
<extensions>
<speed>0.0</speed>
<temp>0.00</temp>
<bpm>0</bpm>
<rpm>0.00</rpm>
</extensions>
</trkpt>
<trkpt lat="30.618667603" lon="34.801670074">
<ele>865.937500</ele>
<time>2013-11-21T14:59:19Z</time>
<speed>0.020000</speed>
<extensions>
<speed>0.0</speed>
<temp>0.00</temp>
<bpm>0</bpm>
<rpm>0.00</rpm>
</extensions>
</trkpt>
<trkpt lat="30.618667603" lon="34.801670074">
<ele>865.953125</ele>
<time>2013-11-21T14:59:24Z</time>
<speed>0.030000</speed>
<extensions>
<speed>0.0</speed>
<temp>0.00</temp>
<bpm>0</bpm>
<rpm>0.00</rpm>
</extensions>
</trkpt>
<trkpt lat="30.618667603" lon="34.801670074">
<ele>865.968750</ele>
<time>2013-11-21T14:59:29Z</time>
<speed>0.030000</speed>
<extensions>
<speed>0.0</speed>
<temp>0.00</temp>
<bpm>0</bpm>
<rpm>0.00</rpm>
</extensions>
</trkpt>
<trkpt lat="30.618665695" lon="34.801670074">
<ele>866.000000</ele>
<time>2013-11-21T14:59:34Z</time>
<speed>0.030000</speed>
<extensions>
<speed>0.0</speed>
<temp>0.00</temp>
<bpm>0</bpm>
<rpm>0.00</rpm>
</extensions>
</trkpt>
<trkpt lat="30.618667603" lon="34.801673889">
<ele>866.015625</ele>
<time>2013-11-21T14:59:39Z</time>
<speed>0.020000</speed>
<extensions>
<speed>0.0</speed>
<temp>0.00</temp>
<bpm>0</bpm>
<rpm>0.00</rpm>
</extensions>
</trkpt>
<trkpt lat="30.618665695" lon="34.801673889">
<ele>866.015625</ele>
<time>2013-11-21T14:59:44Z</time>
<speed>0.030000</speed>
<extensions>
<speed>0.0</speed>
<temp>0.00</temp>
<bpm>0</bpm>
<rpm>0.00</rpm>
</extensions>
</trkpt>
<trkpt lat="30.618665695" lon="34.801673889">
<ele>866.000000</ele>
<time>2013-11-21T14:59:49Z</time>
<speed>0.040000</speed>
<extensions>
<speed>0.0</speed>
<temp>0.00</temp>
<bpm>0</bpm>
<rpm>0.00</rpm>
</extensions>
</trkpt>
<trkpt lat="30.618665695" lon="34.801673889">
<ele>866.000000</ele>
<time>2013-11-21T14:59:54Z</time>
<speed>0.030000</speed>
<extensions>
<speed>0.0</speed>
<temp>0.00</temp>
<bpm>0</bpm>
<rpm>0.00</rpm>
</extensions>
</trkpt>
<trkpt lat="30.618665695" lon="34.801673889">
<ele>866.000000</ele>
<time>2013-11-21T14:59:59Z</time>
<speed>0.010000</speed>
<extensions>
<speed>0.0</speed>
<temp>0.00</temp>
<bpm>0</bpm>
<rpm>0.00</rpm>
</extensions>
</trkpt>
<trkpt lat="30.618665695" lon="34.801677704">
<ele>866.015625</ele>
<time>2013-11-21T15:00:04Z</time>
<speed>0.010000</speed>
<extensions>
<speed>0.0</speed>
<temp>0.00</temp>
<bpm>0</bpm>
<rpm>0.00</rpm>
</extensions>
</trkpt>
<trkpt lat="30.618665695" lon="34.801677704">
<ele>866.015625</ele>
<time>2013-11-21T15:00:09Z</time>
<speed>0.010000</speed>
<extensions>
<speed>0.0</speed>
<temp>0.00</temp>
<bpm>0</bpm>
<rpm>0.00</rpm>
</extensions>
</trkpt>
<trkpt lat="30.618665695" lon="34.801677704">
<ele>866.015625</ele>
<time>2013-11-21T15:00:14Z</time>
<speed>0.010000</speed>
<extensions>
<speed>0.0</speed>
<temp>0.00</temp>
<bpm>0</bpm>
<rpm>0.00</rpm>
</extensions>
</trkpt>
<trkpt lat="30.618665695" lon="34.801677704">
<ele>865.968750</ele>
<time>2013-11-21T15:00:19Z</time>
<speed>0.030000</speed>
<extensions>
<speed>0.0</speed>
<temp>0.00</temp>
<bpm>0</bpm>
<rpm>0.00</rpm>
</extensions>
</trkpt>
<trkpt lat="30.618667603" lon="34.801673889">
<ele>865.890625</ele>
<time>2013-11-21T15:00:24Z</time>
<speed>0.020000</speed>
<extensions>
<speed>0.0</speed>
<temp>0.00</temp>
<bpm>0</bpm>
<rpm>0.00</rpm>
</extensions>
</trkpt>
<trkpt lat="30.618667603" lon="34.801673889">
<ele>865.828125</ele>
<time>2013-11-21T15:00:29Z</time>
<speed>0.010000</speed>
<extensions>
<speed>0.0</speed>
<temp>0.00</temp>
<bpm>0</bpm>
<rpm>0.00</rpm>
</extensions>
</trkpt>
<trkpt lat="30.618667603" lon="34.801673889">
<ele>865.734375</ele>
<time>2013-11-21T15:00:34Z</time>
<extensions>
<speed>0.0</speed>
<temp>0.00</temp>
<bpm>0</bpm>
<rpm>0.00</rpm>
</extensions>
</trkpt>
<trkpt lat="30.618667603" lon="34.801673889">
<ele>865.640625</ele>
<time>2013-11-21T15:00:39Z</time>
<speed>0.010000</speed>
<extensions>
<speed>0.0</speed>
<temp>0.00</temp>
<bpm>0</bpm>
<rpm>0.00</rpm>
</extensions>
</trkpt>
<trkpt lat="30.618669510" lon="34.801673889">
<ele>865.531250</ele>
<time>2013-11-21T15:00:44Z</time>
<speed>0.020000</speed>
<extensions>
<speed>0.0</speed>
<temp>0.00</temp>
<bpm>0</bpm>
<rpm>0.00</rpm>
</extensions>
</trkpt>
<trkpt lat="30.618669510" lon="34.801673889">
<ele>865.437500</ele>
<time>2013-11-21T15:00:49Z</time>
<speed>0.010000</speed>
<extensions>
<speed>0.0</speed>
<temp>0.00</temp>
<bpm>0</bpm>
<rpm>0.00</rpm>
</extensions>
</trkpt>
<trkpt lat="30.618669510" lon="34.801673889">
<ele>865.375000</ele>
<time>2013-11-21T15:00:54Z</time>
<speed>0.030000</speed>
<extensions>
<speed>0.0</speed>
<temp>0.00</temp>
<bpm>0</bpm>
<rpm>0.00</rpm>
</extensions>
</trkpt>
<trkpt lat="30.618671417" lon="34.801673889">
<ele>865.281250</ele>
<time>2013-11-21T15:00:59Z</time>
<speed>0.020000</speed>
<extensions>
<speed>0.0</speed>
<temp>0.00</temp>
<bpm>0</bpm>
<rpm>0.00</rpm>
</extensions>
</trkpt>
<trkpt lat="30.618671417" lon="34.801673889">
<ele>865.171875</ele>
<time>2013-11-21T15:01:04Z</time>
<speed>0.010000</speed>
<extensions>
<speed>0.0</speed>
<temp>0.00</temp>
<bpm>0</bpm>
<rpm>0.00</rpm>
</extensions>
</trkpt>
<trkpt lat="30.618671417" lon="34.801673889">
<ele>865.078125</ele>
<time>2013-11-21T15:01:09Z</time>
<speed>0.010000</speed>
<extensions>
<speed>0.0</speed>
<temp>0.00</temp>
<bpm>0</bpm>
<rpm>0.00</rpm>
</extensions>
</trkpt>
<trkpt lat="30.618671417" lon="34.801673889">
<ele>865.000000</ele>
<time>2013-11-21T15:01:14Z</time>
<speed>0.010000</speed>
<extensions>
<speed>0.0</speed>
<temp>0.00</temp>
<bpm>0</bpm>
<rpm>0.00</rpm>
</extensions>
</trkpt>
<trkpt lat="30.618671417" lon="34.801673889">
<ele>864.937500</ele>
<time>2013-11-21T15:01:19Z</time>
<speed>0.020000</speed>
<extensions>
<speed>0.0</speed>
<temp>0.00</temp>
<bpm>0</bpm>
<rpm>0.00</rpm>
</extensions>
</trkpt>
<trkpt lat="30.618671417" lon="34.801673889">
<ele>864.875000</ele>
<time>2013-11-21T15:01:24Z</time>
<speed>0.020000</speed>
<extensions>
<speed>0.0</speed>
<temp>0.00</temp>
<bpm>0</bpm>
<rpm>0.00</rpm>
</extensions>
</trkpt>
<trkpt lat="30.618671417" lon="34.801673889">
<ele>864.843750</ele>
<time>2013-11-21T15:01:29Z</time>
<speed>0.010000</speed>
<extensions>
<speed>0.0</speed>
<temp>0.00</temp>
<bpm>0</bpm>
<rpm>0.00</rpm>
</extensions>
</trkpt>
<trkpt lat="30.618673325" lon="34.801673889">
<ele>864.812500</ele>
<time>2013-11-21T15:01:34Z</time>
<speed>0.030000</speed>
<extensions>
<speed>0.0</speed>
<temp>0.00</temp>
<bpm>0</bpm>
<rpm>0.00</rpm>
</extensions>
</trkpt>
<trkpt lat="30.618673325" lon="34.801673889">
<ele>864.812500</ele>
<time>2013-11-21T15:01:39Z</time>
<speed>0.010000</speed>
<extensions>
<speed>0.0</speed>
<temp>0.00</temp>
<bpm>0</bpm>
<rpm>0.00</rpm>
</extensions>
</trkpt>
<trkpt lat="30.618673325" lon="34.801673889">
<ele>864.750000</ele>
<time>2013-11-21T15:01:44Z</time>
<extensions>
<speed>0.0</speed>
<temp>0.00</temp>
<bpm>0</bpm>
<rpm>0.00</rpm>
</extensions>
</trkpt>
<trkpt lat="30.618673325" lon="34.801673889">
<ele>864.703125</ele>
<time>2013-11-21T15:01:49Z</time>
<speed>0.020000</speed>
<extensions>
<speed>0.0</speed>
<temp>0.00</temp>
<bpm>0</bpm>
<rpm>0.00</rpm>
</extensions>
</trkpt>
<trkpt lat="30.618673325" lon="34.801673889">
<ele>864.625000</ele>
<time>2013-11-21T15:01:54Z</time>
<speed>0.020000</speed>
<extensions>
<speed>0.0</speed>
<temp>0.00</temp>
<bpm>0</bpm>
<rpm>0.00</rpm>
</extensions>
</trkpt>
<trkpt lat="30.618671417" lon="34.801673889">
<ele>864.578125</ele>
<time>2013-11-21T15:01:59Z</time>
<speed>0.030000</speed>
<extensions>
<speed>0.0</speed>
<temp>0.00</temp>
<bpm>0</bpm>
<rpm>0.00</rpm>
</extensions>
</trkpt>
<trkpt lat="30.618671417" lon="34.801673889">
<ele>864.515625</ele>
<time>2013-11-21T15:02:04Z</time>
<speed>0.030000</speed>
<extensions>
<speed>0.0</speed>
<temp>0.00</temp>
<bpm>0</bpm>
<rpm>0.00</rpm>
</extensions>
</trkpt>
<trkpt lat="30.618671417" lon="34.801673889">
<ele>864.453125</ele>
<time>2013-11-21T15:02:09Z</time>
<speed>0.040000</speed>
<extensions>
<speed>0.0</speed>
<temp>0.00</temp>
<bpm>0</bpm>
<rpm>0.00</rpm>
</extensions>
</trkpt>
<trkpt lat="30.618669510" lon="34.801670074">
<ele>864.406250</ele>
<time>2013-11-21T15:02:14Z</time>
<speed>0.050000</speed>
<extensions>
<speed>0.1</speed>
<temp>0.00</temp>
<bpm>0</bpm>
<rpm>0.00</rpm>
</extensions>
</trkpt>
<trkpt lat="30.618669510" lon="34.801670074">
<ele>864.343750</ele>
<time>2013-11-21T15:02:19Z</time>
<speed>0.040000</speed>
<extensions>
<speed>0.0</speed>
<temp>0.00</temp>
<bpm>0</bpm>
<rpm>0.00</rpm>
</extensions>
</trkpt>
<trkpt lat="30.618669510" lon="34.801670074">
<ele>864.265625</ele>
<time>2013-11-21T15:02:24Z</time>
<speed>0.020000</speed>
<extensions>
<speed>0.0</speed>
<temp>0.00</temp>
<bpm>0</bpm>
<rpm>0.00</rpm>
</extensions>
</trkpt>
<trkpt lat="30.618669510" lon="34.801670074">
<ele>864.203125</ele>
<time>2013-11-21T15:02:29Z</time>
<speed>0.020000</speed>
<extensions>
<speed>0.0</speed>
<temp>0.00</temp>
<bpm>0</bpm>
<rpm>0.00</rpm>
</extensions>
</trkpt>
<trkpt lat="30.618669510" lon="34.801670074">
<ele>864.125000</ele>
<time>2013-11-21T15:02:34Z</time>
<speed>0.020000</speed>
<extensions>
<speed>0.0</speed>
<temp>0.00</temp>
<bpm>0</bpm>
<rpm>0.00</rpm>
</extensions>
</trkpt>
<trkpt lat="30.618669510" lon="34.801670074">
<ele>864.062500</ele>
<time>2013-11-21T15:02:39Z</time>
<speed>0.020000</speed>
<extensions>
<speed>0.0</speed>
<temp>0.00</temp>
<bpm>0</bpm>
<rpm>0.00</rpm>
</extensions>
</trkpt>
<trkpt lat="30.618669510" lon="34.801666260">
<ele>863.968750</ele>
<time>2013-11-21T15:02:44Z</time>
<speed>0.030000</speed>
<extensions>
<speed>0.0</speed>
<temp>0.00</temp>
<bpm>0</bpm>
<rpm>0.00</rpm>
</extensions>
</trkpt>
<trkpt lat="30.618669510" lon="34.801666260">
<ele>863.843750</ele>
<time>2013-11-21T15:02:49Z</time>
<speed>0.020000</speed>
<extensions>
<speed>0.0</speed>
<temp>0.00</temp>
<bpm>0</bpm>
<rpm>0.00</rpm>
</extensions>
</trkpt>
<trkpt lat="30.618669510" lon="34.801666260">
<ele>863.718750</ele>
<time>2013-11-21T15:02:54Z</time>
<extensions>
<speed>0.0</speed>
<temp>0.00</temp>
<bpm>0</bpm>
<rpm>0.00</rpm>
</extensions>
</trkpt>
<trkpt lat="30.618669510" lon="34.801666260">
<ele>863.625000</ele>
<time>2013-11-21T15:02:59Z</time>
<speed>0.020000</speed>
<extensions>
<speed>0.0</speed>
<temp>0.00</temp>
<bpm>0</bpm>
<rpm>0.00</rpm>
</extensions>
</trkpt>
<trkpt lat="30.618669510" lon="34.801666260">
<ele>863.531250</ele>
<time>2013-11-21T15:03:04Z</time>
<speed>0.030000</speed>
<extensions>
<speed>0.0</speed>
<temp>0.00</temp>
<bpm>0</bpm>
<rpm>0.00</rpm>
</extensions>
</trkpt>
<trkpt lat="30.618669510" lon="34.801666260">
<ele>863.437500</ele>
<time>2013-11-21T15:03:09Z</time>
<speed>0.020000</speed>
<extensions>
<speed>0.0</speed>
<temp>0.00</temp>
<bpm>0</bpm>
<rpm>0.00</rpm>
</extensions>
</trkpt>
<trkpt lat="30.618669510" lon="34.801666260">
<ele>863.406250</ele>
<time>2013-11-21T15:03:14Z</time>
<speed>0.020000</speed>
<extensions>
<speed>0.0</speed>
<temp>0.00</temp>
<bpm>0</bpm>
<rpm>0.00</rpm>
</extensions>
</trkpt>
<trkpt lat="30.618669510" lon="34.801662445">
<ele>863.343750</ele>
<time>2013-11-21T15:03:19Z</time>
<speed>0.020000</speed>
<extensions>
<speed>0.0</speed>
<temp>0.00</temp>
<bpm>0</bpm>
<rpm>0.00</rpm>
</extensions>
</trkpt>
<trkpt lat="30.618669510" lon="34.801662445">
<ele>863.281250</ele>
<time>2013-11-21T15:03:24Z</time>
<speed>0.010000</speed>
<extensions>
<speed>0.0</speed>
<temp>0.00</temp>
<bpm>0</bpm>
<rpm>0.00</rpm>
</extensions>
</trkpt>
<trkpt lat="30.618669510" lon="34.801662445">
<ele>863.203125</ele>
<time>2013-11-21T15:03:29Z</time>
<speed>0.010000</speed>
<extensions>
<speed>0.0</speed>
<temp>0.00</temp>
<bpm>0</bpm>
<rpm>0.00</rpm>
</extensions>
</trkpt>
<trkpt lat="30.618669510" lon="34.801662445">
<ele>863.125000</ele>
<time>2013-11-21T15:03:34Z</time>
<speed>0.030000</speed>
<extensions>
<speed>0.0</speed>
<temp>0.00</temp>
<bpm>0</bpm>
<rpm>0.00</rpm>
</extensions>
</trkpt>
<trkpt lat="30.618667603" lon="34.801662445">
<ele>863.062500</ele>
<time>2013-11-21T15:03:39Z</time>
<speed>0.020000</speed>
<extensions>
<speed>0.0</speed>
<temp>0.00</temp>
<bpm>0</bpm>
<rpm>0.00</rpm>
</extensions>
</trkpt>
<trkpt lat="30.618667603" lon="34.801662445">
<ele>863.000000</ele>
<time>2013-11-21T15:03:44Z</time>
<speed>0.010000</speed>
<extensions>
<speed>0.0</speed>
<temp>0.00</temp>
<bpm>0</bpm>
<rpm>0.00</rpm>
</extensions>
</trkpt>
<trkpt lat="30.618667603" lon="34.801662445">
<ele>862.968750</ele>
<time>2013-11-21T15:03:49Z</time>
<speed>0.010000</speed>
<extensions>
<speed>0.0</speed>
<temp>0.00</temp>
<bpm>0</bpm>
<rpm>0.00</rpm>
</extensions>
</trkpt>
<trkpt lat="30.618667603" lon="34.801662445">
<ele>862.921875</ele>
<time>2013-11-21T15:03:54Z</time>
<speed>0.020000</speed>
<extensions>
<speed>0.0</speed>
<temp>0.00</temp>
<bpm>0</bpm>
<rpm>0.00</rpm>
</extensions>
</trkpt>
<trkpt lat="30.618665695" lon="34.801662445">
<ele>862.859375</ele>
<time>2013-11-21T15:03:59Z</time>
<speed>0.030000</speed>
<extensions>
<speed>0.0</speed>
<temp>0.00</temp>
<bpm>0</bpm>
<rpm>0.00</rpm>
</extensions>
</trkpt>
<trkpt lat="30.618665695" lon="34.801662445">
<ele>862.781250</ele>
<time>2013-11-21T15:04:04Z</time>
<speed>0.010000</speed>
<extensions>
<speed>0.0</speed>
<temp>0.00</temp>
<bpm>0</bpm>
<rpm>0.00</rpm>
</extensions>
</trkpt>
<trkpt lat="30.618665695" lon="34.801662445">
<ele>862.734375</ele>
<time>2013-11-21T15:04:09Z</time>
<speed>0.020000</speed>
<extensions>
<speed>0.0</speed>
<temp>0.00</temp>
<bpm>0</bpm>
<rpm>0.00</rpm>
</extensions>
</trkpt>
<trkpt lat="30.618665695" lon="34.801662445">
<ele>862.656250</ele>
<time>2013-11-21T15:04:14Z</time>
<speed>0.010000</speed>
<extensions>
<speed>0.0</speed>
<temp>0.00</temp>
<bpm>0</bpm>
<rpm>0.00</rpm>
</extensions>
</trkpt>
<trkpt lat="30.618663788" lon="34.801662445">
<ele>862.593750</ele>
<time>2013-11-21T15:04:19Z</time>
<speed>0.020000</speed>
<extensions>
<speed>0.0</speed>
<temp>0.00</temp>
<bpm>0</bpm>
<rpm>0.00</rpm>
</extensions>
</trkpt>
<trkpt lat="30.618663788" lon="34.801662445">
<ele>862.531250</ele>
<time>2013-11-21T15:04:24Z</time>
<speed>0.050000</speed>
<extensions>
<speed>0.1</speed>
<temp>0.00</temp>
<bpm>0</bpm>
<rpm>0.00</rpm>
</extensions>
</trkpt>
<trkpt lat="30.618663788" lon="34.801666260">
<ele>862.453125</ele>
<time>2013-11-21T15:04:29Z</time>
<speed>0.030000</speed>
<extensions>
<speed>0.0</speed>
<temp>0.00</temp>
<bpm>0</bpm>
<rpm>0.00</rpm>
</extensions>
</trkpt>
<trkpt lat="30.618663788" lon="34.801666260">
<ele>862.437500</ele>
<time>2013-11-21T15:04:34Z</time>
<speed>0.010000</speed>
<extensions>
<speed>0.0</speed>
<temp>0.00</temp>
<bpm>0</bpm>
<rpm>0.00</rpm>
</extensions>
</trkpt>
<trkpt lat="30.618663788" lon="34.801666260">
<ele>862.406250</ele>
<time>2013-11-21T15:04:39Z</time>
<speed>0.040000</speed>
<extensions>
<speed>0.0</speed>
<temp>0.00</temp>
<bpm>0</bpm>
<rpm>0.00</rpm>
</extensions>
</trkpt>
<trkpt lat="30.618663788" lon="34.801666260">
<ele>862.359375</ele>
<time>2013-11-21T15:04:44Z</time>
<speed>0.010000</speed>
<extensions>
<speed>0.0</speed>
<temp>0.00</temp>
<bpm>0</bpm>
<rpm>0.00</rpm>
</extensions>
</trkpt>
<trkpt lat="30.618663788" lon="34.801666260">
<ele>862.328125</ele>
<time>2013-11-21T15:04:49Z</time>
<speed>0.020000</speed>
<extensions>
<speed>0.0</speed>
<temp>0.00</temp>
<bpm>0</bpm>
<rpm>0.00</rpm>
</extensions>
</trkpt>
<trkpt lat="30.618663788" lon="34.801666260">
<ele>862.296875</ele>
<time>2013-11-21T15:04:54Z</time>
<speed>0.020000</speed>
<extensions>
<speed>0.0</speed>
<temp>0.00</temp>
<bpm>0</bpm>
<rpm>0.00</rpm>
</extensions>
</trkpt>
<trkpt lat="30.618663788" lon="34.801666260">
<ele>862.265625</ele>
<time>2013-11-21T15:04:59Z</time>
<speed>0.010000</speed>
<extensions>
<speed>0.0</speed>
<temp>0.00</temp>
<bpm>0</bpm>
<rpm>0.00</rpm>
</extensions>
</trkpt>
<trkpt lat="30.618663788" lon="34.801666260">
<ele>862.250000</ele>
<time>2013-11-21T15:05:04Z</time>
<speed>0.010000</speed>
<extensions>
<speed>0.0</speed>
<temp>0.00</temp>
<bpm>0</bpm>
<rpm>0.00</rpm>
</extensions>
</trkpt>
<trkpt lat="30.618663788" lon="34.801666260">
<ele>862.218750</ele>
<time>2013-11-21T15:05:09Z</time>
<speed>0.010000</speed>
<extensions>
<speed>0.0</speed>
<temp>0.00</temp>
<bpm>0</bpm>
<rpm>0.00</rpm>
</extensions>
</trkpt>
<trkpt lat="30.618663788" lon="34.801666260">
<ele>862.156250</ele>
<time>2013-11-21T15:05:14Z</time>
<extensions>
<speed>0.0</speed>
<temp>0.00</temp>
<bpm>0</bpm>
<rpm>0.00</rpm>
</extensions>
</trkpt>
<trkpt lat="30.618663788" lon="34.801666260">
<ele>862.093750</ele>
<time>2013-11-21T15:05:19Z</time>
<speed>0.010000</speed>
<extensions>
<speed>0.0</speed>
<temp>0.00</temp>
<bpm>0</bpm>
<rpm>0.00</rpm>
</extensions>
</trkpt>
<trkpt lat="30.618663788" lon="34.801666260">
<ele>862.031250</ele>
<time>2013-11-21T15:05:24Z</time>
<speed>0.020000</speed>
<extensions>
<speed>0.0</speed>
<temp>0.00</temp>
<bpm>0</bpm>
<rpm>0.00</rpm>
</extensions>
</trkpt>
<trkpt lat="30.618663788" lon="34.801666260">
<ele>861.968750</ele>
<time>2013-11-21T15:05:29Z</time>
<speed>0.030000</speed>
<extensions>
<speed>0.0</speed>
<temp>0.00</temp>
<bpm>0</bpm>
<rpm>0.00</rpm>
</extensions>
</trkpt>
<trkpt lat="30.618663788" lon="34.801666260">
<ele>861.937500</ele>
<time>2013-11-21T15:05:34Z</time>
<speed>0.020000</speed>
<extensions>
<speed>0.0</speed>
<temp>0.00</temp>
<bpm>0</bpm>
<rpm>0.00</rpm>
</extensions>
</trkpt>
<trkpt lat="30.618663788" lon="34.801666260">
<ele>861.890625</ele>
<time>2013-11-21T15:05:39Z</time>
<speed>0.010000</speed>
<extensions>
<speed>0.0</speed>
<temp>0.00</temp>
<bpm>0</bpm>
<rpm>0.00</rpm>
</extensions>
</trkpt>
<trkpt lat="30.618663788" lon="34.801666260">
<ele>861.843750</ele>
<time>2013-11-21T15:05:44Z</time>
<speed>0.020000</speed>
<extensions>
<speed>0.0</speed>
<temp>0.00</temp>
<bpm>0</bpm>
<rpm>0.00</rpm>
</extensions>
</trkpt>
<trkpt lat="30.618663788" lon="34.801666260">
<ele>861.781250</ele>
<time>2013-11-21T15:05:49Z</time>
<extensions>
<speed>0.0</speed>
<temp>0.00</temp>
<bpm>0</bpm>
<rpm>0.00</rpm>
</extensions>
</trkpt>
<trkpt lat="30.618663788" lon="34.801666260">
<ele>861.718750</ele>
<time>2013-11-21T15:05:54Z</time>
<extensions>
<speed>0.0</speed>
<temp>0.00</temp>
<bpm>0</bpm>
<rpm>0.00</rpm>
</extensions>
</trkpt>
<trkpt lat="30.618663788" lon="34.801666260">
<ele>861.656250</ele>
<time>2013-11-21T15:05:59Z</time>
<speed>0.020000</speed>
<extensions>
<speed>0.0</speed>
<temp>0.00</temp>
<bpm>0</bpm>
<rpm>0.00</rpm>
</extensions>
</trkpt>
<trkpt lat="30.618663788" lon="34.801666260">
<ele>861.609375</ele>
<time>2013-11-21T15:06:04Z</time>
<speed>0.020000</speed>
<extensions>
<speed>0.0</speed>
<temp>0.00</temp>
<bpm>0</bpm>
<rpm>0.00</rpm>
</extensions>
</trkpt>
<trkpt lat="30.618663788" lon="34.801666260">
<ele>861.546875</ele>
<time>2013-11-21T15:06:09Z</time>
<speed>0.020000</speed>
<extensions>
<speed>0.0</speed>
<temp>0.00</temp>
<bpm>0</bpm>
<rpm>0.00</rpm>
</extensions>
</trkpt>
<trkpt lat="30.618663788" lon="34.801666260">
<ele>861.500000</ele>
<time>2013-11-21T15:06:14Z</time>
<speed>0.040000</speed>
<extensions>
<speed>0.0</speed>
<temp>0.00</temp>
<bpm>0</bpm>
<rpm>0.00</rpm>
</extensions>
</trkpt>
<trkpt lat="30.618663788" lon="34.801666260">
<ele>861.421875</ele>
<time>2013-11-21T15:06:19Z</time>
<speed>0.020000</speed>
<extensions>
<speed>0.0</speed>
<temp>0.00</temp>
<bpm>0</bpm>
<rpm>0.00</rpm>
</extensions>
</trkpt>
<trkpt lat="30.618663788" lon="34.801670074">
<ele>861.359375</ele>
<time>2013-11-21T15:06:24Z</time>
<extensions>
<speed>0.0</speed>
<temp>0.00</temp>
<bpm>0</bpm>
<rpm>0.00</rpm>
</extensions>
</trkpt>
<trkpt lat="30.618663788" lon="34.801670074">
<ele>861.296875</ele>
<time>2013-11-21T15:06:29Z</time>
<speed>0.010000</speed>
<extensions>
<speed>0.0</speed>
<temp>0.00</temp>
<bpm>0</bpm>
<rpm>0.00</rpm>
</extensions>
</trkpt>
<trkpt lat="30.618663788" lon="34.801670074">
<ele>861.265625</ele>
<time>2013-11-21T15:06:34Z</time>
<speed>0.040000</speed>
<extensions>
<speed>0.0</speed>
<temp>0.00</temp>
<bpm>0</bpm>
<rpm>0.00</rpm>
</extensions>
</trkpt>
<trkpt lat="30.618663788" lon="34.801670074">
<ele>861.203125</ele>
<time>2013-11-21T15:06:39Z</time>
<speed>0.020000</speed>
<extensions>
<speed>0.0</speed>
<temp>0.00</temp>
<bpm>0</bpm>
<rpm>0.00</rpm>
</extensions>
</trkpt>
<trkpt lat="30.618661880" lon="34.801670074">
<ele>861.156250</ele>
<time>2013-11-21T15:06:44Z</time>
<speed>0.020000</speed>
<extensions>
<speed>0.0</speed>
<temp>0.00</temp>
<bpm>0</bpm>
<rpm>0.00</rpm>
</extensions>
</trkpt>
<trkpt lat="30.618661880" lon="34.801673889">
<ele>861.125000</ele>
<time>2013-11-21T15:06:49Z</time>
<speed>0.030000</speed>
<extensions>
<speed>0.0</speed>
<temp>0.00</temp>
<bpm>0</bpm>
<rpm>0.00</rpm>
</extensions>
</trkpt>
<trkpt lat="30.618661880" lon="34.801673889">
<ele>861.125000</ele>
<time>2013-11-21T15:06:54Z</time>
<speed>0.040000</speed>
<extensions>
<speed>0.0</speed>
<temp>0.00</temp>
<bpm>0</bpm>
<rpm>0.00</rpm>
</extensions>
</trkpt>
<trkpt lat="30.618661880" lon="34.801673889">
<ele>861.109375</ele>
<time>2013-11-21T15:06:59Z</time>
<speed>0.040000</speed>
<extensions>
<speed>0.0</speed>
<temp>0.00</temp>
<bpm>0</bpm>
<rpm>0.00</rpm>
</extensions>
</trkpt>
<trkpt lat="30.618661880" lon="34.801677704">
<ele>861.093750</ele>
<time>2013-11-21T15:07:04Z</time>
<speed>0.060000</speed>
<extensions>
<speed>0.1</speed>
<temp>0.00</temp>
<bpm>0</bpm>
<rpm>0.00</rpm>
</extensions>
</trkpt>
<trkpt lat="30.618661880" lon="34.801677704">
<ele>861.078125</ele>
<time>2013-11-21T15:07:09Z</time>
<speed>0.070000</speed>
<extensions>
<speed>0.1</speed>
<temp>0.00</temp>
<bpm>0</bpm>
<rpm>0.00</rpm>
</extensions>
</trkpt>
<trkpt lat="30.618659973" lon="34.801677704">
<ele>861.062500</ele>
<time>2013-11-21T15:07:14Z</time>
<speed>0.020000</speed>
<extensions>
<speed>0.0</speed>
<temp>0.00</temp>
<bpm>0</bpm>
<rpm>0.00</rpm>
</extensions>
</trkpt>
<trkpt lat="30.618659973" lon="34.801677704">
<ele>861.046875</ele>
<time>2013-11-21T15:07:19Z</time>
<speed>0.050000</speed>
<extensions>
<speed>0.1</speed>
<temp>0.00</temp>
<bpm>0</bpm>
<rpm>0.00</rpm>
</extensions>
</trkpt>
<trkpt lat="30.618659973" lon="34.801681519">
<ele>861.015625</ele>
<time>2013-11-21T15:07:24Z</time>
<speed>0.010000</speed>
<extensions>
<speed>0.0</speed>
<temp>0.00</temp>
<bpm>0</bpm>
<rpm>0.00</rpm>
</extensions>
</trkpt>
<trkpt lat="30.618659973" lon="34.801681519">
<ele>861.000000</ele>
<time>2013-11-21T15:07:29Z</time>
<speed>0.030000</speed>
<extensions>
<speed>0.0</speed>
<temp>0.00</temp>
<bpm>0</bpm>
<rpm>0.00</rpm>
</extensions>
</trkpt>
<trkpt lat="30.618659973" lon="34.801681519">
<ele>860.968750</ele>
<time>2013-11-21T15:07:34Z</time>
<speed>0.030000</speed>
<extensions>
<speed>0.0</speed>
<temp>0.00</temp>
<bpm>0</bpm>
<rpm>0.00</rpm>
</extensions>
</trkpt>
<trkpt lat="30.618659973" lon="34.801681519">
<ele>860.968750</ele>
<time>2013-11-21T15:07:39Z</time>
<speed>0.030000</speed>
<extensions>
<speed>0.0</speed>
<temp>0.00</temp>
<bpm>0</bpm>
<rpm>0.00</rpm>
</extensions>
</trkpt>
<trkpt lat="30.618659973" lon="34.801685333">
<ele>860.953125</ele>
<time>2013-11-21T15:07:44Z</time>
<speed>0.060000</speed>
<extensions>
<speed>0.1</speed>
<temp>0.00</temp>
<bpm>0</bpm>
<rpm>0.00</rpm>
</extensions>
</trkpt>
<trkpt lat="30.618659973" lon="34.801685333">
<ele>860.968750</ele>
<time>2013-11-21T15:07:49Z</time>
<speed>0.010000</speed>
<extensions>
<speed>0.0</speed>
<temp>0.00</temp>
<bpm>0</bpm>
<rpm>0.00</rpm>
</extensions>
</trkpt>
<trkpt lat="30.618659973" lon="34.801685333">
<ele>860.984375</ele>
<time>2013-11-21T15:07:54Z</time>
<speed>0.030000</speed>
<extensions>
<speed>0.0</speed>
<temp>0.00</temp>
<bpm>0</bpm>
<rpm>0.00</rpm>
</extensions>
</trkpt>
<trkpt lat="30.618659973" lon="34.801685333">
<ele>861.000000</ele>
<time>2013-11-21T15:07:59Z</time>
<speed>0.020000</speed>
<extensions>
<speed>0.0</speed>
<temp>0.00</temp>
<bpm>0</bpm>
<rpm>0.00</rpm>
</extensions>
</trkpt>
<trkpt lat="30.618659973" lon="34.801685333">
<ele>861.015625</ele>
<time>2013-11-21T15:08:04Z</time>
<extensions>
<speed>0.0</speed>
<temp>0.00</temp>
<bpm>0</bpm>
<rpm>0.00</rpm>
</extensions>
</trkpt>
<trkpt lat="30.618659973" lon="34.801689148">
<ele>861.015625</ele>
<time>2013-11-21T15:08:09Z</time>
<speed>0.030000</speed>
<extensions>
<speed>0.0</speed>
<temp>0.00</temp>
<bpm>0</bpm>
<rpm>0.00</rpm>
</extensions>
</trkpt>
<trkpt lat="30.618659973" lon="34.801689148">
<ele>861.015625</ele>
<time>2013-11-21T15:08:14Z</time>
<speed>0.030000</speed>
<extensions>
<speed>0.0</speed>
<temp>0.00</temp>
<bpm>0</bpm>
<rpm>0.00</rpm>
</extensions>
</trkpt>
<trkpt lat="30.618659973" lon="34.801689148">
<ele>861.046875</ele>
<time>2013-11-21T15:08:19Z</time>
<speed>0.010000</speed>
<extensions>
<speed>0.0</speed>
<temp>0.00</temp>
<bpm>0</bpm>
<rpm>0.00</rpm>
</extensions>
</trkpt>
<trkpt lat="30.618659973" lon="34.801689148">
<ele>861.046875</ele>
<time>2013-11-21T15:08:24Z</time>
<speed>0.020000</speed>
<extensions>
<speed>0.0</speed>
<temp>0.00</temp>
<bpm>0</bpm>
<rpm>0.00</rpm>
</extensions>
</trkpt>
<trkpt lat="30.618658066" lon="34.801689148">
<ele>861.031250</ele>
<time>2013-11-21T15:08:29Z</time>
<speed>0.010000</speed>
<extensions>
<speed>0.0</speed>
<temp>0.00</temp>
<bpm>0</bpm>
<rpm>0.00</rpm>
</extensions>
</trkpt>
<trkpt lat="30.618658066" lon="34.801689148">
<ele>860.968750</ele>
<time>2013-11-21T15:08:34Z</time>
<speed>0.020000</speed>
<extensions>
<speed>0.0</speed>
<temp>0.00</temp>
<bpm>0</bpm>
<rpm>0.00</rpm>
</extensions>
</trkpt>
<trkpt lat="30.618658066" lon="34.801692963">
<ele>860.937500</ele>
<time>2013-11-21T15:08:39Z</time>
<speed>0.030000</speed>
<extensions>
<speed>0.0</speed>
<temp>0.00</temp>
<bpm>0</bpm>
<rpm>0.00</rpm>
</extensions>
</trkpt>
<trkpt lat="30.618658066" lon="34.801692963">
<ele>860.921875</ele>
<time>2013-11-21T15:08:44Z</time>
<speed>0.010000</speed>
<extensions>
<speed>0.0</speed>
<temp>0.00</temp>
<bpm>0</bpm>
<rpm>0.00</rpm>
</extensions>
</trkpt>
<trkpt lat="30.618658066" lon="34.801692963">
<ele>860.890625</ele>
<time>2013-11-21T15:08:49Z</time>
<speed>0.020000</speed>
<extensions>
<speed>0.0</speed>
<temp>0.00</temp>
<bpm>0</bpm>
<rpm>0.00</rpm>
</extensions>
</trkpt>
<trkpt lat="30.618656158" lon="34.801692963">
<ele>860.843750</ele>
<time>2013-11-21T15:08:54Z</time>
<speed>0.010000</speed>
<extensions>
<speed>0.0</speed>
<temp>0.00</temp>
<bpm>0</bpm>
<rpm>0.00</rpm>
</extensions>
</trkpt>
<trkpt lat="30.618656158" lon="34.801689148">
<ele>860.734375</ele>
<time>2013-11-21T15:08:59Z</time>
<speed>0.020000</speed>
<extensions>
<speed>0.0</speed>
<temp>0.00</temp>
<bpm>0</bpm>
<rpm>0.00</rpm>
</extensions>
</trkpt>
<trkpt lat="30.618656158" lon="34.801689148">
<ele>860.593750</ele>
<time>2013-11-21T15:09:04Z</time>
<speed>0.020000</speed>
<extensions>
<speed>0.0</speed>
<temp>0.00</temp>
<bpm>0</bpm>
<rpm>0.00</rpm>
</extensions>
</trkpt>
<trkpt lat="30.618658066" lon="34.801689148">
<ele>860.500000</ele>
<time>2013-11-21T15:09:09Z</time>
<extensions>
<speed>0.0</speed>
<temp>0.00</temp>
<bpm>0</bpm>
<rpm>0.00</rpm>
</extensions>
</trkpt>
<trkpt lat="30.618656158" lon="34.801689148">
<ele>860.437500</ele>
<time>2013-11-21T15:09:14Z</time>
<speed>0.030000</speed>
<extensions>
<speed>0.0</speed>
<temp>0.00</temp>
<bpm>0</bpm>
<rpm>0.00</rpm>
</extensions>
</trkpt>
<trkpt lat="30.618656158" lon="34.801689148">
<ele>860.359375</ele>
<time>2013-11-21T15:09:19Z</time>
<speed>0.010000</speed>
<extensions>
<speed>0.0</speed>
<temp>0.00</temp>
<bpm>0</bpm>
<rpm>0.00</rpm>
</extensions>
</trkpt>
<trkpt lat="30.618656158" lon="34.801685333">
<ele>860.265625</ele>
<time>2013-11-21T15:09:24Z</time>
<speed>0.020000</speed>
<extensions>
<speed>0.0</speed>
<temp>0.00</temp>
<bpm>0</bpm>
<rpm>0.00</rpm>
</extensions>
</trkpt>
<trkpt lat="30.618656158" lon="34.801685333">
<ele>860.187500</ele>
<time>2013-11-21T15:09:29Z</time>
<speed>0.030000</speed>
<extensions>
<speed>0.0</speed>
<temp>0.00</temp>
<bpm>0</bpm>
<rpm>0.00</rpm>
</extensions>
</trkpt>
<trkpt lat="30.618656158" lon="34.801685333">
<ele>860.125000</ele>
<time>2013-11-21T15:09:34Z</time>
<speed>0.040000</speed>
<extensions>
<speed>0.0</speed>
<temp>0.00</temp>
<bpm>0</bpm>
<rpm>0.00</rpm>
</extensions>
</trkpt>
<trkpt lat="30.618654251" lon="34.801685333">
<ele>860.046875</ele>
<time>2013-11-21T15:09:39Z</time>
<speed>0.050000</speed>
<extensions>
<speed>0.1</speed>
<temp>0.00</temp>
<bpm>0</bpm>
<rpm>0.00</rpm>
</extensions>
</trkpt>
<trkpt lat="30.618654251" lon="34.801685333">
<ele>859.968750</ele>
<time>2013-11-21T15:09:44Z</time>
<speed>0.070000</speed>
<extensions>
<speed>0.1</speed>
<temp>0.00</temp>
<bpm>0</bpm>
<rpm>0.00</rpm>
</extensions>
</trkpt>
<trkpt lat="30.618654251" lon="34.801681519">
<ele>859.890625</ele>
<time>2013-11-21T15:09:49Z</time>
<speed>0.010000</speed>
<extensions>
<speed>0.0</speed>
<temp>0.00</temp>
<bpm>0</bpm>
<rpm>0.00</rpm>
</extensions>
</trkpt>
<trkpt lat="30.618654251" lon="34.801681519">
<ele>859.828125</ele>
<time>2013-11-21T15:09:54Z</time>
<extensions>
<speed>0.0</speed>
<temp>0.00</temp>
<bpm>0</bpm>
<rpm>0.00</rpm>
</extensions>
</trkpt>
<trkpt lat="30.618654251" lon="34.801681519">
<ele>859.750000</ele>
<time>2013-11-21T15:09:59Z</time>
<speed>0.030000</speed>
<extensions>
<speed>0.0</speed>
<temp>0.00</temp>
<bpm>0</bpm>
<rpm>0.00</rpm>
</extensions>
</trkpt>
<trkpt lat="30.618652344" lon="34.801681519">
<ele>859.671875</ele>
<time>2013-11-21T15:10:04Z</time>
<speed>0.050000</speed>
<extensions>
<speed>0.1</speed>
<temp>0.00</temp>
<bpm>0</bpm>
<rpm>0.00</rpm>
</extensions>
</trkpt>
<trkpt lat="30.618652344" lon="34.801677704">
<ele>859.578125</ele>
<time>2013-11-21T15:10:09Z</time>
<speed>0.050000</speed>
<extensions>
<speed>0.1</speed>
<temp>0.00</temp>
<bpm>0</bpm>
<rpm>0.00</rpm>
</extensions>
</trkpt>
<trkpt lat="30.618652344" lon="34.801677704">
<ele>859.500000</ele>
<time>2013-11-21T15:10:14Z</time>
<speed>0.040000</speed>
<extensions>
<speed>0.0</speed>
<temp>0.00</temp>
<bpm>0</bpm>
<rpm>0.00</rpm>
</extensions>
</trkpt>
<trkpt lat="30.618652344" lon="34.801677704">
<ele>859.421875</ele>
<time>2013-11-21T15:10:19Z</time>
<speed>0.040000</speed>
<extensions>
<speed>0.0</speed>
<temp>0.00</temp>
<bpm>0</bpm>
<rpm>0.00</rpm>
</extensions>
</trkpt>
<trkpt lat="30.618652344" lon="34.801673889">
<ele>859.343750</ele>
<time>2013-11-21T15:10:24Z</time>
<speed>0.030000</speed>
<extensions>
<speed>0.0</speed>
<temp>0.00</temp>
<bpm>0</bpm>
<rpm>0.00</rpm>
</extensions>
</trkpt>
<trkpt lat="30.618652344" lon="34.801673889">
<ele>859.296875</ele>
<time>2013-11-21T15:10:29Z</time>
<speed>0.060000</speed>
<extensions>
<speed>0.1</speed>
<temp>0.00</temp>
<bpm>0</bpm>
<rpm>0.00</rpm>
</extensions>
</trkpt>
<trkpt lat="30.618654251" lon="34.801670074">
<ele>859.187500</ele>
<time>2013-11-21T15:10:34Z</time>
<speed>0.060000</speed>
<extensions>
<speed>0.1</speed>
<temp>0.00</temp>
<bpm>0</bpm>
<rpm>0.00</rpm>
</extensions>
</trkpt>
<trkpt lat="30.618654251" lon="34.801670074">
<ele>859.062500</ele>
<time>2013-11-21T15:10:39Z</time>
<speed>0.030000</speed>
<extensions>
<speed>0.0</speed>
<temp>0.00</temp>
<bpm>0</bpm>
<rpm>0.00</rpm>
</extensions>
</trkpt>
<trkpt lat="30.618652344" lon="34.801670074">
<ele>858.984375</ele>
<time>2013-11-21T15:10:44Z</time>
<speed>0.040000</speed>
<extensions>
<speed>0.0</speed>
<temp>0.00</temp>
<bpm>0</bpm>
<rpm>0.00</rpm>
</extensions>
</trkpt>
<trkpt lat="30.618652344" lon="34.801666260">
<ele>858.734375</ele>
<time>2013-11-21T15:10:49Z</time>
<speed>0.150000</speed>
<extensions>
<speed>0.2</speed>
<temp>0.00</temp>
<bpm>0</bpm>
<rpm>0.00</rpm>
</extensions>
</trkpt>
<trkpt lat="30.618648529" lon="34.801654816">
<ele>858.265625</ele>
<time>2013-11-21T15:10:54Z</time>
<speed>0.240000</speed>
<extensions>
<speed>0.2</speed>
<temp>0.00</temp>
<bpm>0</bpm>
<rpm>0.00</rpm>
</extensions>
</trkpt>
<trkpt lat="30.618638992" lon="34.801643372">
<ele>855.875000</ele>
<time>2013-11-21T15:10:59Z</time>
<speed>0.320000</speed>
<extensions>
<speed>0.3</speed>
<temp>0.00</temp>
<bpm>0</bpm>
<rpm>0.00</rpm>
</extensions>
</trkpt>
<trkpt lat="30.618650436" lon="34.801609039">
<ele>852.781250</ele>
<time>2013-11-21T15:11:04Z</time>
<speed>0.380000</speed>
<extensions>
<speed>0.4</speed>
<temp>0.00</temp>
<bpm>0</bpm>
<rpm>0.00</rpm>
</extensions>
</trkpt>
<trkpt lat="30.618640900" lon="34.801601410">
<ele>848.218750</ele>
<time>2013-11-21T15:11:09Z</time>
<speed>0.240000</speed>
<extensions>
<speed>0.2</speed>
<temp>0.00</temp>
<bpm>0</bpm>
<rpm>0.00</rpm>
</extensions>
</trkpt>
<trkpt lat="30.618637085" lon="34.801589966">
<ele>846.609375</ele>
<time>2013-11-21T15:11:14Z</time>
<speed>0.180000</speed>
<extensions>
<speed>0.2</speed>
<temp>0.00</temp>
<bpm>0</bpm>
<rpm>0.00</rpm>
</extensions>
</trkpt>
<trkpt lat="30.618637085" lon="34.801578522">
<ele>845.390625</ele>
<time>2013-11-21T15:11:19Z</time>
<speed>0.100000</speed>
<extensions>
<speed>0.1</speed>
<temp>0.00</temp>
<bpm>0</bpm>
<rpm>0.00</rpm>
</extensions>
</trkpt>
<trkpt lat="30.618631363" lon="34.801578522">
<ele>844.125000</ele>
<time>2013-11-21T15:11:24Z</time>
<speed>0.170000</speed>
<extensions>
<speed>0.2</speed>
<temp>0.00</temp>
<bpm>0</bpm>
<rpm>0.00</rpm>
</extensions>
</trkpt>
<trkpt lat="30.618621826" lon="34.801570892">
<ele>842.750000</ele>
<time>2013-11-21T15:11:29Z</time>
<speed>0.210000</speed>
<extensions>
<speed>0.2</speed>
<temp>0.00</temp>
<bpm>0</bpm>
<rpm>0.00</rpm>
</extensions>
</trkpt>
<trkpt lat="30.618610382" lon="34.801567078">
<ele>840.671875</ele>
<time>2013-11-21T15:11:34Z</time>
<speed>0.360000</speed>
<extensions>
<speed>0.4</speed>
<temp>0.00</temp>
<bpm>0</bpm>
<rpm>0.00</rpm>
</extensions>
</trkpt>
<trkpt lat="30.618595123" lon="34.801578522">
<ele>837.437500</ele>
<time>2013-11-21T15:11:39Z</time>
<speed>0.340000</speed>
<extensions>
<speed>0.3</speed>
<temp>0.00</temp>
<bpm>0</bpm>
<rpm>0.00</rpm>
</extensions>
</trkpt>
<trkpt lat="30.618595123" lon="34.801570892">
<ele>836.203125</ele>
<time>2013-11-21T15:11:44Z</time>
<speed>0.230000</speed>
<extensions>
<speed>0.2</speed>
<temp>0.00</temp>
<bpm>0</bpm>
<rpm>0.00</rpm>
</extensions>
</trkpt>
<trkpt lat="30.618587494" lon="34.801574707">
<ele>834.781250</ele>
<time>2013-11-21T15:11:49Z</time>
<speed>0.220000</speed>
<extensions>
<speed>0.2</speed>
<temp>0.00</temp>
<bpm>0</bpm>
<rpm>0.00</rpm>
</extensions>
</trkpt>
<trkpt lat="30.618579865" lon="34.801582336">
<ele>833.750000</ele>
<time>2013-11-21T15:11:54Z</time>
<speed>0.110000</speed>
<extensions>
<speed>0.1</speed>
<temp>0.00</temp>
<bpm>0</bpm>
<rpm>0.00</rpm>
</extensions>
</trkpt>
<trkpt lat="30.618579865" lon="34.801586151">
<ele>832.843750</ele>
<time>2013-11-21T15:11:59Z</time>
<speed>0.130000</speed>
<extensions>
<speed>0.1</speed>
<temp>0.00</temp>
<bpm>0</bpm>
<rpm>0.00</rpm>
</extensions>
</trkpt>
<trkpt lat="30.618581772" lon="34.801586151">
<ele>832.078125</ele>
<time>2013-11-21T15:12:04Z</time>
<speed>0.020000</speed>
<extensions>
<speed>0.0</speed>
<temp>0.00</temp>
<bpm>0</bpm>
<rpm>0.00</rpm>
</extensions>
</trkpt>
<trkpt lat="30.618585587" lon="34.801586151">
<ele>831.687500</ele>
<time>2013-11-21T15:12:09Z</time>
<speed>0.020000</speed>
<extensions>
<speed>0.0</speed>
<temp>0.00</temp>
<bpm>0</bpm>
<rpm>0.00</rpm>
</extensions>
</trkpt>
<trkpt lat="30.618585587" lon="34.801586151">
<ele>831.750000</ele>
<time>2013-11-21T15:12:14Z</time>
<speed>0.020000</speed>
<extensions>
<speed>0.0</speed>
<temp>0.00</temp>
<bpm>0</bpm>
<rpm>0.00</rpm>
</extensions>
</trkpt>
<trkpt lat="30.618585587" lon="34.801586151">
<ele>831.781250</ele>
<time>2013-11-21T15:12:19Z</time>
<speed>0.040000</speed>
<extensions>
<speed>0.0</speed>
<temp>0.00</temp>
<bpm>0</bpm>
<rpm>0.00</rpm>
</extensions>
</trkpt>
<trkpt lat="30.618585587" lon="34.801586151">
<ele>831.812500</ele>
<time>2013-11-21T15:12:24Z</time>
<extensions>
<speed>0.0</speed>
<temp>0.00</temp>
<bpm>0</bpm>
<rpm>0.00</rpm>
</extensions>
</trkpt>
<trkpt lat="30.618587494" lon="34.801586151">
<ele>831.843750</ele>
<time>2013-11-21T15:12:29Z</time>
<speed>0.020000</speed>
<extensions>
<speed>0.0</speed>
<temp>0.00</temp>
<bpm>0</bpm>
<rpm>0.00</rpm>
</extensions>
</trkpt>
<trkpt lat="30.618587494" lon="34.801586151">
<ele>831.890625</ele>
<time>2013-11-21T15:12:34Z</time>
<speed>0.020000</speed>
<extensions>
<speed>0.0</speed>
<temp>0.00</temp>
<bpm>0</bpm>
<rpm>0.00</rpm>
</extensions>
</trkpt>
<trkpt lat="30.618587494" lon="34.801586151">
<ele>831.906250</ele>
<time>2013-11-21T15:12:39Z</time>
<speed>0.050000</speed>
<extensions>
<speed>0.1</speed>
<temp>0.00</temp>
<bpm>0</bpm>
<rpm>0.00</rpm>
</extensions>
</trkpt>
<trkpt lat="30.618587494" lon="34.801586151">
<ele>831.937500</ele>
<time>2013-11-21T15:12:44Z</time>
<speed>0.010000</speed>
<extensions>
<speed>0.0</speed>
<temp>0.00</temp>
<bpm>0</bpm>
<rpm>0.00</rpm>
</extensions>
</trkpt>
<trkpt lat="30.618589401" lon="34.801586151">
<ele>831.953125</ele>
<time>2013-11-21T15:12:49Z</time>
<speed>0.020000</speed>
<extensions>
<speed>0.0</speed>
<temp>0.00</temp>
<bpm>0</bpm>
<rpm>0.00</rpm>
</extensions>
</trkpt>
<trkpt lat="30.618589401" lon="34.801586151">
<ele>832.000000</ele>
<time>2013-11-21T15:12:54Z</time>
<speed>0.020000</speed>
<extensions>
<speed>0.0</speed>
<temp>0.00</temp>
<bpm>0</bpm>
<rpm>0.00</rpm>
</extensions>
</trkpt>
<trkpt lat="30.618589401" lon="34.801586151">
<ele>832.015625</ele>
<time>2013-11-21T15:12:59Z</time>
<speed>0.040000</speed>
<extensions>
<speed>0.0</speed>
<temp>0.00</temp>
<bpm>0</bpm>
<rpm>0.00</rpm>
</extensions>
</trkpt>
<trkpt lat="30.618589401" lon="34.801586151">
<ele>832.015625</ele>
<time>2013-11-21T15:13:04Z</time>
<speed>0.020000</speed>
<extensions>
<speed>0.0</speed>
<temp>0.00</temp>
<bpm>0</bpm>
<rpm>0.00</rpm>
</extensions>
</trkpt>
<trkpt lat="30.618589401" lon="34.801586151">
<ele>832.015625</ele>
<time>2013-11-21T15:13:09Z</time>
<speed>0.010000</speed>
<extensions>
<speed>0.0</speed>
<temp>0.00</temp>
<bpm>0</bpm>
<rpm>0.00</rpm>
</extensions>
</trkpt>
<trkpt lat="30.618591309" lon="34.801586151">
<ele>832.046875</ele>
<time>2013-11-21T15:13:14Z</time>
<speed>0.030000</speed>
<extensions>
<speed>0.0</speed>
<temp>0.00</temp>
<bpm>0</bpm>
<rpm>0.00</rpm>
</extensions>
</trkpt>
<trkpt lat="30.618591309" lon="34.801582336">
<ele>832.078125</ele>
<time>2013-11-21T15:13:19Z</time>
<speed>0.040000</speed>
<extensions>
<speed>0.0</speed>
<temp>0.00</temp>
<bpm>0</bpm>
<rpm>0.00</rpm>
</extensions>
</trkpt>
<trkpt lat="30.618591309" lon="34.801582336">
<ele>832.093750</ele>
<time>2013-11-21T15:13:24Z</time>
<speed>0.020000</speed>
<extensions>
<speed>0.0</speed>
<temp>0.00</temp>
<bpm>0</bpm>
<rpm>0.00</rpm>
</extensions>
</trkpt>
<trkpt lat="30.618593216" lon="34.801582336">
<ele>832.062500</ele>
<time>2013-11-21T15:13:29Z</time>
<speed>0.050000</speed>
<extensions>
<speed>0.1</speed>
<temp>0.00</temp>
<bpm>0</bpm>
<rpm>0.00</rpm>
</extensions>
</trkpt>
<trkpt lat="30.618593216" lon="34.801582336">
<ele>832.078125</ele>
<time>2013-11-21T15:13:34Z</time>
<speed>0.040000</speed>
<extensions>
<speed>0.0</speed>
<temp>0.00</temp>
<bpm>0</bpm>
<rpm>0.00</rpm>
</extensions>
</trkpt>
<trkpt lat="30.618595123" lon="34.801582336">
<ele>832.078125</ele>
<time>2013-11-21T15:13:39Z</time>
<speed>0.050000</speed>
<extensions>
<speed>0.1</speed>
<temp>0.00</temp>
<bpm>0</bpm>
<rpm>0.00</rpm>
</extensions>
</trkpt>
<trkpt lat="30.618595123" lon="34.801582336">
<ele>832.109375</ele>
<time>2013-11-21T15:13:44Z</time>
<speed>0.030000</speed>
<extensions>
<speed>0.0</speed>
<temp>0.00</temp>
<bpm>0</bpm>
<rpm>0.00</rpm>
</extensions>
</trkpt>
<trkpt lat="30.618597031" lon="34.801582336">
<ele>832.140625</ele>
<time>2013-11-21T15:13:49Z</time>
<speed>0.030000</speed>
<extensions>
<speed>0.0</speed>
<temp>0.00</temp>
<bpm>0</bpm>
<rpm>0.00</rpm>
</extensions>
</trkpt>
<trkpt lat="30.618597031" lon="34.801582336">
<ele>832.171875</ele>
<time>2013-11-21T15:13:54Z</time>
<speed>0.010000</speed>
<extensions>
<speed>0.0</speed>
<temp>0.00</temp>
<bpm>0</bpm>
<rpm>0.00</rpm>
</extensions>
</trkpt>
<trkpt lat="30.618597031" lon="34.801582336">
<ele>832.218750</ele>
<time>2013-11-21T15:13:59Z</time>
<speed>0.030000</speed>
<extensions>
<speed>0.0</speed>
<temp>0.00</temp>
<bpm>0</bpm>
<rpm>0.00</rpm>
</extensions>
</trkpt>
<trkpt lat="30.618597031" lon="34.801582336">
<ele>832.250000</ele>
<time>2013-11-21T15:14:04Z</time>
<speed>0.010000</speed>
<extensions>
<speed>0.0</speed>
<temp>0.00</temp>
<bpm>0</bpm>
<rpm>0.00</rpm>
</extensions>
</trkpt>
<trkpt lat="30.618598938" lon="34.801582336">
<ele>832.281250</ele>
<time>2013-11-21T15:14:09Z</time>
<extensions>
<speed>0.0</speed>
<temp>0.00</temp>
<bpm>0</bpm>
<rpm>0.00</rpm>
</extensions>
</trkpt>
<trkpt lat="30.618598938" lon="34.801582336">
<ele>832.281250</ele>
<time>2013-11-21T15:14:14Z</time>
<speed>0.020000</speed>
<extensions>
<speed>0.0</speed>
<temp>0.00</temp>
<bpm>0</bpm>
<rpm>0.00</rpm>
</extensions>
</trkpt>
<trkpt lat="30.618598938" lon="34.801582336">
<ele>832.281250</ele>
<time>2013-11-21T15:14:19Z</time>
<extensions>
<speed>0.0</speed>
<temp>0.00</temp>
<bpm>0</bpm>
<rpm>0.00</rpm>
</extensions>
</trkpt>
<trkpt lat="30.618598938" lon="34.801586151">
<ele>832.296875</ele>
<time>2013-11-21T15:14:24Z</time>
<speed>0.030000</speed>
<extensions>
<speed>0.0</speed>
<temp>0.00</temp>
<bpm>0</bpm>
<rpm>0.00</rpm>
</extensions>
</trkpt>
<trkpt lat="30.618598938" lon="34.801586151">
<ele>832.312500</ele>
<time>2013-11-21T15:14:29Z</time>
<speed>0.020000</speed>
<extensions>
<speed>0.0</speed>
<temp>0.00</temp>
<bpm>0</bpm>
<rpm>0.00</rpm>
</extensions>
</trkpt>
<trkpt lat="30.618598938" lon="34.801586151">
<ele>832.312500</ele>
<time>2013-11-21T15:14:34Z</time>
<speed>0.010000</speed>
<extensions>
<speed>0.0</speed>
<temp>0.00</temp>
<bpm>0</bpm>
<rpm>0.00</rpm>
</extensions>
</trkpt>
<trkpt lat="30.618598938" lon="34.801586151">
<ele>832.328125</ele>
<time>2013-11-21T15:14:39Z</time>
<speed>0.020000</speed>
<extensions>
<speed>0.0</speed>
<temp>0.00</temp>
<bpm>0</bpm>
<rpm>0.00</rpm>
</extensions>
</trkpt>
<trkpt lat="30.618600845" lon="34.801586151">
<ele>832.343750</ele>
<time>2013-11-21T15:14:44Z</time>
<speed>0.010000</speed>
<extensions>
<speed>0.0</speed>
<temp>0.00</temp>
<bpm>0</bpm>
<rpm>0.00</rpm>
</extensions>
</trkpt>
<trkpt lat="30.618600845" lon="34.801586151">
<ele>832.375000</ele>
<time>2013-11-21T15:14:49Z</time>
<extensions>
<speed>0.0</speed>
<temp>0.00</temp>
<bpm>0</bpm>
<rpm>0.00</rpm>
</extensions>
</trkpt>
<trkpt lat="30.618600845" lon="34.801586151">
<ele>832.390625</ele>
<time>2013-11-21T15:14:54Z</time>
<speed>0.010000</speed>
<extensions>
<speed>0.0</speed>
<temp>0.00</temp>
<bpm>0</bpm>
<rpm>0.00</rpm>
</extensions>
</trkpt>
<trkpt lat="30.618600845" lon="34.801586151">
<ele>832.390625</ele>
<time>2013-11-21T15:14:59Z</time>
<speed>0.030000</speed>
<extensions>
<speed>0.0</speed>
<temp>0.00</temp>
<bpm>0</bpm>
<rpm>0.00</rpm>
</extensions>
</trkpt>
<trkpt lat="30.618602753" lon="34.801586151">
<ele>832.406250</ele>
<time>2013-11-21T15:15:04Z</time>
<speed>0.010000</speed>
<extensions>
<speed>0.0</speed>
<temp>0.00</temp>
<bpm>0</bpm>
<rpm>0.00</rpm>
</extensions>
</trkpt>
<trkpt lat="30.618602753" lon="34.801586151">
<ele>832.390625</ele>
<time>2013-11-21T15:15:09Z</time>
<speed>0.010000</speed>
<extensions>
<speed>0.0</speed>
<temp>0.00</temp>
<bpm>0</bpm>
<rpm>0.00</rpm>
</extensions>
</trkpt>
<trkpt lat="30.618602753" lon="34.801586151">
<ele>832.406250</ele>
<time>2013-11-21T15:15:14Z</time>
<speed>0.010000</speed>
<extensions>
<speed>0.0</speed>
<temp>0.00</temp>
<bpm>0</bpm>
<rpm>0.00</rpm>
</extensions>
</trkpt>
<trkpt lat="30.618602753" lon="34.801586151">
<ele>832.406250</ele>
<time>2013-11-21T15:15:19Z</time>
<speed>0.020000</speed>
<extensions>
<speed>0.0</speed>
<temp>0.00</temp>
<bpm>0</bpm>
<rpm>0.00</rpm>
</extensions>
</trkpt>
<trkpt lat="30.618602753" lon="34.801586151">
<ele>832.406250</ele>
<time>2013-11-21T15:15:24Z</time>
<speed>0.020000</speed>
<extensions>
<speed>0.0</speed>
<temp>0.00</temp>
<bpm>0</bpm>
<rpm>0.00</rpm>
</extensions>
</trkpt>
<trkpt lat="30.618602753" lon="34.801586151">
<ele>832.390625</ele>
<time>2013-11-21T15:15:29Z</time>
<speed>0.030000</speed>
<extensions>
<speed>0.0</speed>
<temp>0.00</temp>
<bpm>0</bpm>
<rpm>0.00</rpm>
</extensions>
</trkpt>
<trkpt lat="30.618602753" lon="34.801582336">
<ele>832.390625</ele>
<time>2013-11-21T15:15:34Z</time>
<speed>0.010000</speed>
<extensions>
<speed>0.0</speed>
<temp>0.00</temp>
<bpm>0</bpm>
<rpm>0.00</rpm>
</extensions>
</trkpt>
<trkpt lat="30.618602753" lon="34.801582336">
<ele>832.359375</ele>
<time>2013-11-21T15:15:39Z</time>
<speed>0.010000</speed>
<extensions>
<speed>0.0</speed>
<temp>0.00</temp>
<bpm>0</bpm>
<rpm>0.00</rpm>
</extensions>
</trkpt>
<trkpt lat="30.618602753" lon="34.801582336">
<ele>832.343750</ele>
<time>2013-11-21T15:15:44Z</time>
<speed>0.020000</speed>
<extensions>
<speed>0.0</speed>
<temp>0.00</temp>
<bpm>0</bpm>
<rpm>0.00</rpm>
</extensions>
</trkpt>
<trkpt lat="30.618602753" lon="34.801582336">
<ele>832.328125</ele>
<time>2013-11-21T15:15:49Z</time>
<extensions>
<speed>0.0</speed>
<temp>0.00</temp>
<bpm>0</bpm>
<rpm>0.00</rpm>
</extensions>
</trkpt>
<trkpt lat="30.618602753" lon="34.801582336">
<ele>832.328125</ele>
<time>2013-11-21T15:15:54Z</time>
<speed>0.010000</speed>
<extensions>
<speed>0.0</speed>
<temp>0.00</temp>
<bpm>0</bpm>
<rpm>0.00</rpm>
</extensions>
</trkpt>
<trkpt lat="30.618602753" lon="34.801582336">
<ele>832.328125</ele>
<time>2013-11-21T15:15:59Z</time>
<speed>0.010000</speed>
<extensions>
<speed>0.0</speed>
<temp>0.00</temp>
<bpm>0</bpm>
<rpm>0.00</rpm>
</extensions>
</trkpt>
<trkpt lat="30.618602753" lon="34.801582336">
<ele>832.343750</ele>
<time>2013-11-21T15:16:04Z</time>
<speed>0.020000</speed>
<extensions>
<speed>0.0</speed>
<temp>0.00</temp>
<bpm>0</bpm>
<rpm>0.00</rpm>
</extensions>
</trkpt>
<trkpt lat="30.618604660" lon="34.801582336">
<ele>832.406250</ele>
<time>2013-11-21T15:16:09Z</time>
<speed>0.010000</speed>
<extensions>
<speed>0.0</speed>
<temp>0.00</temp>
<bpm>0</bpm>
<rpm>0.00</rpm>
</extensions>
</trkpt>
<trkpt lat="30.618602753" lon="34.801582336">
<ele>832.437500</ele>
<time>2013-11-21T15:16:14Z</time>
<extensions>
<speed>0.0</speed>
<temp>0.00</temp>
<bpm>0</bpm>
<rpm>0.00</rpm>
</extensions>
</trkpt>
<trkpt lat="30.618604660" lon="34.801582336">
<ele>832.484375</ele>
<time>2013-11-21T15:16:19Z</time>
<speed>0.010000</speed>
<extensions>
<speed>0.0</speed>
<temp>0.00</temp>
<bpm>0</bpm>
<rpm>0.00</rpm>
</extensions>
</trkpt>
<trkpt lat="30.618604660" lon="34.801582336">
<ele>832.515625</ele>
<time>2013-11-21T15:16:24Z</time>
<speed>0.020000</speed>
<extensions>
<speed>0.0</speed>
<temp>0.00</temp>
<bpm>0</bpm>
<rpm>0.00</rpm>
</extensions>
</trkpt>
<trkpt lat="30.618604660" lon="34.801582336">
<ele>832.578125</ele>
<time>2013-11-21T15:16:29Z</time>
<speed>0.010000</speed>
<extensions>
<speed>0.0</speed>
<temp>0.00</temp>
<bpm>0</bpm>
<rpm>0.00</rpm>
</extensions>
</trkpt>
<trkpt lat="30.618604660" lon="34.801582336">
<ele>832.625000</ele>
<time>2013-11-21T15:16:34Z</time>
<speed>0.030000</speed>
<extensions>
<speed>0.0</speed>
<temp>0.00</temp>
<bpm>0</bpm>
<rpm>0.00</rpm>
</extensions>
</trkpt>
<trkpt lat="30.618606567" lon="34.801582336">
<ele>832.687500</ele>
<time>2013-11-21T15:16:39Z</time>
<extensions>
<speed>0.0</speed>
<temp>0.00</temp>
<bpm>0</bpm>
<rpm>0.00</rpm>
</extensions>
</trkpt>
<trkpt lat="30.618606567" lon="34.801582336">
<ele>832.734375</ele>
<time>2013-11-21T15:16:44Z</time>
<speed>0.010000</speed>
<extensions>
<speed>0.0</speed>
<temp>0.00</temp>
<bpm>0</bpm>
<rpm>0.00</rpm>
</extensions>
</trkpt>
<trkpt lat="30.618606567" lon="34.801582336">
<ele>832.796875</ele>
<time>2013-11-21T15:16:49Z</time>
<speed>0.020000</speed>
<extensions>
<speed>0.0</speed>
<temp>0.00</temp>
<bpm>0</bpm>
<rpm>0.00</rpm>
</extensions>
</trkpt>
<trkpt lat="30.618606567" lon="34.801582336">
<ele>832.828125</ele>
<time>2013-11-21T15:16:54Z</time>
<speed>0.010000</speed>
<extensions>
<speed>0.0</speed>
<temp>0.00</temp>
<bpm>0</bpm>
<rpm>0.00</rpm>
</extensions>
</trkpt>
<trkpt lat="30.618606567" lon="34.801582336">
<ele>832.859375</ele>
<time>2013-11-21T15:16:59Z</time>
<speed>0.030000</speed>
<extensions>
<speed>0.0</speed>
<temp>0.00</temp>
<bpm>0</bpm>
<rpm>0.00</rpm>
</extensions>
</trkpt>
<trkpt lat="30.618608475" lon="34.801582336">
<ele>832.937500</ele>
<time>2013-11-21T15:17:04Z</time>
<speed>0.040000</speed>
<extensions>
<speed>0.0</speed>
<temp>0.00</temp>
<bpm>0</bpm>
<rpm>0.00</rpm>
</extensions>
</trkpt>
<trkpt lat="30.618608475" lon="34.801582336">
<ele>833.000000</ele>
<time>2013-11-21T15:17:09Z</time>
<speed>0.030000</speed>
<extensions>
<speed>0.0</speed>
<temp>0.00</temp>
<bpm>0</bpm>
<rpm>0.00</rpm>
</extensions>
</trkpt>
<trkpt lat="30.618608475" lon="34.801582336">
<ele>833.046875</ele>
<time>2013-11-21T15:17:14Z</time>
<speed>0.020000</speed>
<extensions>
<speed>0.0</speed>
<temp>0.00</temp>
<bpm>0</bpm>
<rpm>0.00</rpm>
</extensions>
</trkpt>
<trkpt lat="30.618610382" lon="34.801582336">
<ele>833.078125</ele>
<time>2013-11-21T15:17:19Z</time>
<speed>0.030000</speed>
<extensions>
<speed>0.0</speed>
<temp>0.00</temp>
<bpm>0</bpm>
<rpm>0.00</rpm>
</extensions>
</trkpt>
<trkpt lat="30.618610382" lon="34.801582336">
<ele>833.156250</ele>
<time>2013-11-21T15:17:24Z</time>
<speed>0.010000</speed>
<extensions>
<speed>0.0</speed>
<temp>0.00</temp>
<bpm>0</bpm>
<rpm>0.00</rpm>
</extensions>
</trkpt>
<trkpt lat="30.618610382" lon="34.801582336">
<ele>833.187500</ele>
<time>2013-11-21T15:17:29Z</time>
<speed>0.020000</speed>
<extensions>
<speed>0.0</speed>
<temp>0.00</temp>
<bpm>0</bpm>
<rpm>0.00</rpm>
</extensions>
</trkpt>
<trkpt lat="30.618610382" lon="34.801582336">
<ele>833.218750</ele>
<time>2013-11-21T15:17:34Z</time>
<speed>0.010000</speed>
<extensions>
<speed>0.0</speed>
<temp>0.00</temp>
<bpm>0</bpm>
<rpm>0.00</rpm>
</extensions>
</trkpt>
<trkpt lat="30.618612289" lon="34.801582336">
<ele>833.250000</ele>
<time>2013-11-21T15:17:39Z</time>
<speed>0.020000</speed>
<extensions>
<speed>0.0</speed>
<temp>0.00</temp>
<bpm>0</bpm>
<rpm>0.00</rpm>
</extensions>
</trkpt>
<trkpt lat="30.618612289" lon="34.801582336">
<ele>833.281250</ele>
<time>2013-11-21T15:17:44Z</time>
<speed>0.010000</speed>
<extensions>
<speed>0.0</speed>
<temp>0.00</temp>
<bpm>0</bpm>
<rpm>0.00</rpm>
</extensions>
</trkpt>
<trkpt lat="30.618612289" lon="34.801582336">
<ele>833.296875</ele>
<time>2013-11-21T15:17:49Z</time>
<speed>0.010000</speed>
<extensions>
<speed>0.0</speed>
<temp>0.00</temp>
<bpm>0</bpm>
<rpm>0.00</rpm>
</extensions>
</trkpt>
<trkpt lat="30.618614197" lon="34.801582336">
<ele>833.328125</ele>
<time>2013-11-21T15:17:54Z</time>
<speed>0.030000</speed>
<extensions>
<speed>0.0</speed>
<temp>0.00</temp>
<bpm>0</bpm>
<rpm>0.00</rpm>
</extensions>
</trkpt>
<trkpt lat="30.618614197" lon="34.801582336">
<ele>833.343750</ele>
<time>2013-11-21T15:17:59Z</time>
<extensions>
<speed>0.0</speed>
<temp>0.00</temp>
<bpm>0</bpm>
<rpm>0.00</rpm>
</extensions>
</trkpt>
<trkpt lat="30.618614197" lon="34.801582336">
<ele>833.390625</ele>
<time>2013-11-21T15:18:04Z</time>
<speed>0.020000</speed>
<extensions>
<speed>0.0</speed>
<temp>0.00</temp>
<bpm>0</bpm>
<rpm>0.00</rpm>
</extensions>
</trkpt>
<trkpt lat="30.618614197" lon="34.801582336">
<ele>833.406250</ele>
<time>2013-11-21T15:18:09Z</time>
<speed>0.020000</speed>
<extensions>
<speed>0.0</speed>
<temp>0.00</temp>
<bpm>0</bpm>
<rpm>0.00</rpm>
</extensions>
</trkpt>
<trkpt lat="30.618616104" lon="34.801582336">
<ele>833.421875</ele>
<time>2013-11-21T15:18:14Z</time>
<extensions>
<speed>0.0</speed>
<temp>0.00</temp>
<bpm>0</bpm>
<rpm>0.00</rpm>
</extensions>
</trkpt>
<trkpt lat="30.618616104" lon="34.801582336">
<ele>833.453125</ele>
<time>2013-11-21T15:18:19Z</time>
<speed>0.010000</speed>
<extensions>
<speed>0.0</speed>
<temp>0.00</temp>
<bpm>0</bpm>
<rpm>0.00</rpm>
</extensions>
</trkpt>
<trkpt lat="30.618616104" lon="34.801582336">
<ele>833.437500</ele>
<time>2013-11-21T15:18:24Z</time>
<speed>0.010000</speed>
<extensions>
<speed>0.0</speed>
<temp>0.00</temp>
<bpm>0</bpm>
<rpm>0.00</rpm>
</extensions>
</trkpt>
<trkpt lat="30.618616104" lon="34.801582336">
<ele>833.437500</ele>
<time>2013-11-21T15:18:29Z</time>
<speed>0.040000</speed>
<extensions>
<speed>0.0</speed>
<temp>0.00</temp>
<bpm>0</bpm>
<rpm>0.00</rpm>
</extensions>
</trkpt>
<trkpt lat="30.618616104" lon="34.801586151">
<ele>833.437500</ele>
<time>2013-11-21T15:18:34Z</time>
<speed>0.010000</speed>
<extensions>
<speed>0.0</speed>
<temp>0.00</temp>
<bpm>0</bpm>
<rpm>0.00</rpm>
</extensions>
</trkpt>
<trkpt lat="30.618616104" lon="34.801586151">
<ele>833.421875</ele>
<time>2013-11-21T15:18:39Z</time>
<speed>0.020000</speed>
<extensions>
<speed>0.0</speed>
<temp>0.00</temp>
<bpm>0</bpm>
<rpm>0.00</rpm>
</extensions>
</trkpt>
<trkpt lat="30.618616104" lon="34.801586151">
<ele>833.406250</ele>
<time>2013-11-21T15:18:44Z</time>
<speed>0.020000</speed>
<extensions>
<speed>0.0</speed>
<temp>0.00</temp>
<bpm>0</bpm>
<rpm>0.00</rpm>
</extensions>
</trkpt>
<trkpt lat="30.618616104" lon="34.801586151">
<ele>833.375000</ele>
<time>2013-11-21T15:18:49Z</time>
<speed>0.020000</speed>
<extensions>
<speed>0.0</speed>
<temp>0.00</temp>
<bpm>0</bpm>
<rpm>0.00</rpm>
</extensions>
</trkpt>
<trkpt lat="30.618616104" lon="34.801586151">
<ele>833.390625</ele>
<time>2013-11-21T15:18:54Z</time>
<extensions>
<speed>0.0</speed>
<temp>0.00</temp>
<bpm>0</bpm>
<rpm>0.00</rpm>
</extensions>
</trkpt>
<trkpt lat="30.618616104" lon="34.801586151">
<ele>833.406250</ele>
<time>2013-11-21T15:18:59Z</time>
<extensions>
<speed>0.0</speed>
<temp>0.00</temp>
<bpm>0</bpm>
<rpm>0.00</rpm>
</extensions>
</trkpt>
<trkpt lat="30.618616104" lon="34.801586151">
<ele>833.421875</ele>
<time>2013-11-21T15:19:04Z</time>
<extensions>
<speed>0.0</speed>
<temp>0.00</temp>
<bpm>0</bpm>
<rpm>0.00</rpm>
</extensions>
</trkpt>
<trkpt lat="30.618616104" lon="34.801586151">
<ele>833.406250</ele>
<time>2013-11-21T15:19:09Z</time>
<speed>0.020000</speed>
<extensions>
<speed>0.0</speed>
<temp>0.00</temp>
<bpm>0</bpm>
<rpm>0.00</rpm>
</extensions>
</trkpt>
<trkpt lat="30.618614197" lon="34.801586151">
<ele>833.359375</ele>
<time>2013-11-21T15:19:14Z</time>
<extensions>
<speed>0.0</speed>
<temp>0.00</temp>
<bpm>0</bpm>
<rpm>0.00</rpm>
</extensions>
</trkpt>
<trkpt lat="30.618614197" lon="34.801586151">
<ele>833.343750</ele>
<time>2013-11-21T15:19:19Z</time>
<speed>0.010000</speed>
<extensions>
<speed>0.0</speed>
<temp>0.00</temp>
<bpm>0</bpm>
<rpm>0.00</rpm>
</extensions>
</trkpt>
<trkpt lat="30.618614197" lon="34.801586151">
<ele>833.343750</ele>
<time>2013-11-21T15:19:24Z</time>
<speed>0.030000</speed>
<extensions>
<speed>0.0</speed>
<temp>0.00</temp>
<bpm>0</bpm>
<rpm>0.00</rpm>
</extensions>
</trkpt>
<trkpt lat="30.618614197" lon="34.801586151">
<ele>833.343750</ele>
<time>2013-11-21T15:19:29Z</time>
<speed>0.010000</speed>
<extensions>
<speed>0.0</speed>
<temp>0.00</temp>
<bpm>0</bpm>
<rpm>0.00</rpm>
</extensions>
</trkpt>
<trkpt lat="30.618614197" lon="34.801589966">
<ele>833.328125</ele>
<time>2013-11-21T15:19:34Z</time>
<speed>0.020000</speed>
<extensions>
<speed>0.0</speed>
<temp>0.00</temp>
<bpm>0</bpm>
<rpm>0.00</rpm>
</extensions>
</trkpt>
<trkpt lat="30.618614197" lon="34.801589966">
<ele>833.296875</ele>
<time>2013-11-21T15:19:39Z</time>
<speed>0.030000</speed>
<extensions>
<speed>0.0</speed>
<temp>0.00</temp>
<bpm>0</bpm>
<rpm>0.00</rpm>
</extensions>
</trkpt>
<trkpt lat="30.618618011" lon="34.801589966">
<ele>833.203125</ele>
<time>2013-11-21T15:19:44Z</time>
<speed>0.060000</speed>
<extensions>
<speed>0.1</speed>
<temp>0.00</temp>
<bpm>0</bpm>
<rpm>0.00</rpm>
</extensions>
</trkpt>
<trkpt lat="30.618619919" lon="34.801593781">
<ele>833.062500</ele>
<time>2013-11-21T15:19:49Z</time>
<speed>0.060000</speed>
<extensions>
<speed>0.1</speed>
<temp>0.00</temp>
<bpm>0</bpm>
<rpm>0.00</rpm>
</extensions>
</trkpt>
<trkpt lat="30.618619919" lon="34.801593781">
<ele>833.031250</ele>
<time>2013-11-21T15:19:54Z</time>
<speed>0.010000</speed>
<extensions>
<speed>0.0</speed>
<temp>0.00</temp>
<bpm>0</bpm>
<rpm>0.00</rpm>
</extensions>
</trkpt>
<trkpt lat="30.618619919" lon="34.801593781">
<ele>833.031250</ele>
<time>2013-11-21T15:19:59Z</time>
<speed>0.040000</speed>
<extensions>
<speed>0.0</speed>
<temp>0.00</temp>
<bpm>0</bpm>
<rpm>0.00</rpm>
</extensions>
</trkpt>
<trkpt lat="30.618618011" lon="34.801593781">
<ele>833.015625</ele>
<time>2013-11-21T15:20:04Z</time>
<speed>0.040000</speed>
<extensions>
<speed>0.0</speed>
<temp>0.00</temp>
<bpm>0</bpm>
<rpm>0.00</rpm>
</extensions>
</trkpt>
<trkpt lat="30.618618011" lon="34.801597595">
<ele>833.015625</ele>
<time>2013-11-21T15:20:09Z</time>
<extensions>
<speed>0.0</speed>
<temp>0.00</temp>
<bpm>0</bpm>
<rpm>0.00</rpm>
</extensions>
</trkpt>
<trkpt lat="30.618618011" lon="34.801597595">
<ele>833.000000</ele>
<time>2013-11-21T15:20:14Z</time>
<speed>0.020000</speed>
<extensions>
<speed>0.0</speed>
<temp>0.00</temp>
<bpm>0</bpm>
<rpm>0.00</rpm>
</extensions>
</trkpt>
<trkpt lat="30.618618011" lon="34.801597595">
<ele>832.984375</ele>
<time>2013-11-21T15:20:19Z</time>
<speed>0.030000</speed>
<extensions>
<speed>0.0</speed>
<temp>0.00</temp>
<bpm>0</bpm>
<rpm>0.00</rpm>
</extensions>
</trkpt>
<trkpt lat="30.618618011" lon="34.801597595">
<ele>832.984375</ele>
<time>2013-11-21T15:20:24Z</time>
<speed>0.040000</speed>
<extensions>
<speed>0.0</speed>
<temp>0.00</temp>
<bpm>0</bpm>
<rpm>0.00</rpm>
</extensions>
</trkpt>
<trkpt lat="30.618618011" lon="34.801597595">
<ele>832.984375</ele>
<time>2013-11-21T15:20:29Z</time>
<speed>0.020000</speed>
<extensions>
<speed>0.0</speed>
<temp>0.00</temp>
<bpm>0</bpm>
<rpm>0.00</rpm>
</extensions>
</trkpt>
<trkpt lat="30.618618011" lon="34.801597595">
<ele>832.937500</ele>
<time>2013-11-21T15:20:34Z</time>
<speed>0.020000</speed>
<extensions>
<speed>0.0</speed>
<temp>0.00</temp>
<bpm>0</bpm>
<rpm>0.00</rpm>
</extensions>
</trkpt>
<trkpt lat="30.618618011" lon="34.801601410">
<ele>832.875000</ele>
<time>2013-11-21T15:20:39Z</time>
<speed>0.030000</speed>
<extensions>
<speed>0.0</speed>
<temp>0.00</temp>
<bpm>0</bpm>
<rpm>0.00</rpm>
</extensions>
</trkpt>
<trkpt lat="30.618618011" lon="34.801601410">
<ele>832.843750</ele>
<time>2013-11-21T15:20:44Z</time>
<speed>0.040000</speed>
<extensions>
<speed>0.0</speed>
<temp>0.00</temp>
<bpm>0</bpm>
<rpm>0.00</rpm>
</extensions>
</trkpt>
<trkpt lat="30.618619919" lon="34.801601410">
<ele>832.812500</ele>
<time>2013-11-21T15:20:49Z</time>
<speed>0.020000</speed>
<extensions>
<speed>0.0</speed>
<temp>0.00</temp>
<bpm>0</bpm>
<rpm>0.00</rpm>
</extensions>
</trkpt>
<trkpt lat="30.618619919" lon="34.801601410">
<ele>832.781250</ele>
<time>2013-11-21T15:20:54Z</time>
<speed>0.040000</speed>
<extensions>
<speed>0.0</speed>
<temp>0.00</temp>
<bpm>0</bpm>
<rpm>0.00</rpm>
</extensions>
</trkpt>
<trkpt lat="30.618619919" lon="34.801605225">
<ele>832.734375</ele>
<time>2013-11-21T15:20:59Z</time>
<speed>0.030000</speed>
<extensions>
<speed>0.0</speed>
<temp>0.00</temp>
<bpm>0</bpm>
<rpm>0.00</rpm>
</extensions>
</trkpt>
<trkpt lat="30.618619919" lon="34.801605225">
<ele>832.703125</ele>
<time>2013-11-21T15:21:04Z</time>
<extensions>
<speed>0.0</speed>
<temp>0.00</temp>
<bpm>0</bpm>
<rpm>0.00</rpm>
</extensions>
</trkpt>
<trkpt lat="30.618619919" lon="34.801605225">
<ele>832.671875</ele>
<time>2013-11-21T15:21:09Z</time>
<speed>0.010000</speed>
<extensions>
<speed>0.0</speed>
<temp>0.00</temp>
<bpm>0</bpm>
<rpm>0.00</rpm>
</extensions>
</trkpt>
<trkpt lat="30.618619919" lon="34.801605225">
<ele>832.671875</ele>
<time>2013-11-21T15:21:14Z</time>
<speed>0.020000</speed>
<extensions>
<speed>0.0</speed>
<temp>0.00</temp>
<bpm>0</bpm>
<rpm>0.00</rpm>
</extensions>
</trkpt>
<trkpt lat="30.618619919" lon="34.801605225">
<ele>832.656250</ele>
<time>2013-11-21T15:21:19Z</time>
<speed>0.020000</speed>
<extensions>
<speed>0.0</speed>
<temp>0.00</temp>
<bpm>0</bpm>
<rpm>0.00</rpm>
</extensions>
</trkpt>
<trkpt lat="30.618619919" lon="34.801605225">
<ele>832.625000</ele>
<time>2013-11-21T15:21:24Z</time>
<speed>0.040000</speed>
<extensions>
<speed>0.0</speed>
<temp>0.00</temp>
<bpm>0</bpm>
<rpm>0.00</rpm>
</extensions>
</trkpt>
<trkpt lat="30.618621826" lon="34.801605225">
<ele>832.578125</ele>
<time>2013-11-21T15:21:29Z</time>
<speed>0.030000</speed>
<extensions>
<speed>0.0</speed>
<temp>0.00</temp>
<bpm>0</bpm>
<rpm>0.00</rpm>
</extensions>
</trkpt>
<trkpt lat="30.618621826" lon="34.801609039">
<ele>832.562500</ele>
<time>2013-11-21T15:21:34Z</time>
<speed>0.020000</speed>
<extensions>
<speed>0.0</speed>
<temp>0.00</temp>
<bpm>0</bpm>
<rpm>0.00</rpm>
</extensions>
</trkpt>
<trkpt lat="30.618621826" lon="34.801609039">
<ele>832.531250</ele>
<time>2013-11-21T15:21:39Z</time>
<speed>0.040000</speed>
<extensions>
<speed>0.0</speed>
<temp>0.00</temp>
<bpm>0</bpm>
<rpm>0.00</rpm>
</extensions>
</trkpt>
<trkpt lat="30.618621826" lon="34.801609039">
<ele>832.546875</ele>
<time>2013-11-21T15:21:44Z</time>
<speed>0.020000</speed>
<extensions>
<speed>0.0</speed>
<temp>0.00</temp>
<bpm>0</bpm>
<rpm>0.00</rpm>
</extensions>
</trkpt>
<trkpt lat="30.618621826" lon="34.801609039">
<ele>832.531250</ele>
<time>2013-11-21T15:21:49Z</time>
<speed>0.030000</speed>
<extensions>
<speed>0.0</speed>
<temp>0.00</temp>
<bpm>0</bpm>
<rpm>0.00</rpm>
</extensions>
</trkpt>
<trkpt lat="30.618623734" lon="34.801609039">
<ele>832.531250</ele>
<time>2013-11-21T15:21:54Z</time>
<speed>0.020000</speed>
<extensions>
<speed>0.0</speed>
<temp>0.00</temp>
<bpm>0</bpm>
<rpm>0.00</rpm>
</extensions>
</trkpt>
<trkpt lat="30.618623734" lon="34.801609039">
<ele>832.531250</ele>
<time>2013-11-21T15:21:59Z</time>
<speed>0.030000</speed>
<extensions>
<speed>0.0</speed>
<temp>0.00</temp>
<bpm>0</bpm>
<rpm>0.00</rpm>
</extensions>
</trkpt>
<trkpt lat="30.618623734" lon="34.801609039">
<ele>832.531250</ele>
<time>2013-11-21T15:22:04Z</time>
<speed>0.020000</speed>
<extensions>
<speed>0.0</speed>
<temp>0.00</temp>
<bpm>0</bpm>
<rpm>0.00</rpm>
</extensions>
</trkpt>
<trkpt lat="30.618623734" lon="34.801609039">
<ele>832.546875</ele>
<time>2013-11-21T15:22:09Z</time>
<speed>0.040000</speed>
<extensions>
<speed>0.0</speed>
<temp>0.00</temp>
<bpm>0</bpm>
<rpm>0.00</rpm>
</extensions>
</trkpt>
<trkpt lat="30.618625641" lon="34.801612854">
<ele>832.562500</ele>
<time>2013-11-21T15:22:14Z</time>
<speed>0.010000</speed>
<extensions>
<speed>0.0</speed>
<temp>0.00</temp>
<bpm>0</bpm>
<rpm>0.00</rpm>
</extensions>
</trkpt>
<trkpt lat="30.618625641" lon="34.801612854">
<ele>832.578125</ele>
<time>2013-11-21T15:22:19Z</time>
<speed>0.030000</speed>
<extensions>
<speed>0.0</speed>
<temp>0.00</temp>
<bpm>0</bpm>
<rpm>0.00</rpm>
</extensions>
</trkpt>
<trkpt lat="30.618625641" lon="34.801612854">
<ele>832.593750</ele>
<time>2013-11-21T15:22:24Z</time>
<speed>0.010000</speed>
<extensions>
<speed>0.0</speed>
<temp>0.00</temp>
<bpm>0</bpm>
<rpm>0.00</rpm>
</extensions>
</trkpt>
<trkpt lat="30.618627548" lon="34.801612854">
<ele>832.609375</ele>
<time>2013-11-21T15:22:29Z</time>
<speed>0.010000</speed>
<extensions>
<speed>0.0</speed>
<temp>0.00</temp>
<bpm>0</bpm>
<rpm>0.00</rpm>
</extensions>
</trkpt>
</trkseg>
</trk>
</gpx>